<?xml version="1.0" encoding="UTF-8"?>
<gpx version="1.1" creator="https://www.youtrack.es" xsi:schemaLocation="http://www.topografix.com/GPX/1/1 http://www.topografix.com/GPX/1/1/gpx.xsd http://www.garmin.com/xmlschemas/GpxExtensions/v3 http://www.garmin.com/xmlschemas/GpxExtensionsv3.xsd http://www.garmin.com/xmlschemas/TrackPointExtension/v1 http://www.garmin.com/xmlschemas/TrackPointExtensionv1.xsd" xmlns:gpxtpx="http://www.garmin.com/xmlschemas/TrackPointExtension/v1" xmlns:gpxx="http://www.garmin.com/xmlschemas/GpxExtensions/v3" xmlns:xsi="http://www.w3.org/2001/XMLSchema-instance">
  <metadata>
    <link href="https://www.youtrack.es">
      <text>YouTrack.es</text>
    </link>
    <time>2026-05-08T23:04:34Z</time>
  </metadata>
  <trk>
    <src>https://www.youtrack.es</src>
    <link href="https://www.youtrack.es/ruta/14499-cavalls-del-vent-2020">
      <text>YouTrack.es</text>
    </link>
    <trkseg>
      <trkpt lat="42.257983" lon="1.724351">
        <ele>1242.80004882813</ele>
        <time>2020-07-11T05:34:43.127Z</time>
      </trkpt>
      <trkpt lat="42.257902" lon="1.72425">
        <ele>1261</ele>
        <time>2020-07-11T05:35:52.127Z</time>
      </trkpt>
      <trkpt lat="42.257851" lon="1.724196">
        <ele>1260</ele>
        <time>2020-07-11T05:36:01.127Z</time>
      </trkpt>
      <trkpt lat="42.257788" lon="1.724084">
        <ele>1256</ele>
        <time>2020-07-11T05:43:02.127Z</time>
      </trkpt>
      <trkpt lat="42.257794" lon="1.723938">
        <ele>1254</ele>
        <time>2020-07-11T05:43:15.127Z</time>
      </trkpt>
      <trkpt lat="42.257874" lon="1.723842">
        <ele>1252</ele>
        <time>2020-07-11T05:43:25.127Z</time>
      </trkpt>
      <trkpt lat="42.257946" lon="1.723742">
        <ele>1251</ele>
        <time>2020-07-11T05:43:34.127Z</time>
      </trkpt>
      <trkpt lat="42.25803" lon="1.723662">
        <ele>1249</ele>
        <time>2020-07-11T05:43:44.127Z</time>
      </trkpt>
      <trkpt lat="42.258112" lon="1.723567">
        <ele>1244.27901082866</ele>
        <time>2020-07-11T05:44:00.127Z</time>
      </trkpt>
      <trkpt lat="42.258046" lon="1.723387">
        <ele>1237</ele>
        <time>2020-07-11T05:44:27.018Z</time>
      </trkpt>
      <trkpt lat="42.257949" lon="1.723328">
        <ele>1233</ele>
        <time>2020-07-11T05:44:42.026Z</time>
      </trkpt>
      <trkpt lat="42.257916" lon="1.72319">
        <ele>1231</ele>
        <time>2020-07-11T05:44:48.127Z</time>
      </trkpt>
      <trkpt lat="42.257961" lon="1.723055">
        <ele>1229</ele>
        <time>2020-07-11T05:44:54.127Z</time>
      </trkpt>
      <trkpt lat="42.257932" lon="1.722898">
        <ele>1226.09300360955</ele>
        <time>2020-07-11T05:45:10.127Z</time>
      </trkpt>
      <trkpt lat="42.25801" lon="1.7228">
        <ele>1227</ele>
        <time>2020-07-11T05:45:39.127Z</time>
      </trkpt>
      <trkpt lat="42.257943" lon="1.722697">
        <ele>1227</ele>
        <time>2020-07-11T05:46:01.127Z</time>
      </trkpt>
      <trkpt lat="42.257893" lon="1.722815">
        <ele>1227</ele>
        <time>2020-07-11T05:46:11.127Z</time>
      </trkpt>
      <trkpt lat="42.257798" lon="1.722871">
        <ele>1228</ele>
        <time>2020-07-11T05:46:27.127Z</time>
      </trkpt>
      <trkpt lat="42.257651" lon="1.722948">
        <ele>1233</ele>
        <time>2020-07-11T05:46:43.127Z</time>
      </trkpt>
      <trkpt lat="42.257616" lon="1.723074">
        <ele>1233</ele>
        <time>2020-07-11T05:47:11.127Z</time>
      </trkpt>
      <trkpt lat="42.257516" lon="1.723042">
        <ele>1233</ele>
        <time>2020-07-11T05:47:19.127Z</time>
      </trkpt>
      <trkpt lat="42.257408" lon="1.723034">
        <ele>1234</ele>
        <time>2020-07-11T05:47:24.127Z</time>
      </trkpt>
      <trkpt lat="42.257304" lon="1.723073">
        <ele>1234</ele>
        <time>2020-07-11T05:47:29.127Z</time>
      </trkpt>
      <trkpt lat="42.25721" lon="1.723115">
        <ele>1235</ele>
        <time>2020-07-11T05:47:38.127Z</time>
      </trkpt>
      <trkpt lat="42.257101" lon="1.723145">
        <ele>1238</ele>
        <time>2020-07-11T05:47:55.127Z</time>
      </trkpt>
      <trkpt lat="42.257023" lon="1.723234">
        <ele>1238</ele>
        <time>2020-07-11T05:48:08.127Z</time>
      </trkpt>
      <trkpt lat="42.256969" lon="1.723352">
        <ele>1240</ele>
        <time>2020-07-11T05:48:19.127Z</time>
      </trkpt>
      <trkpt lat="42.256873" lon="1.723399">
        <ele>1242</ele>
        <time>2020-07-11T05:48:25.127Z</time>
      </trkpt>
      <trkpt lat="42.256706" lon="1.72339">
        <ele>1244</ele>
        <time>2020-07-11T05:48:38.127Z</time>
      </trkpt>
      <trkpt lat="42.256593" lon="1.723367">
        <ele>1244</ele>
        <time>2020-07-11T05:48:47.127Z</time>
      </trkpt>
      <trkpt lat="42.256489" lon="1.723331">
        <ele>1244</ele>
        <time>2020-07-11T05:48:54.127Z</time>
      </trkpt>
      <trkpt lat="42.256392" lon="1.723295">
        <ele>1245</ele>
        <time>2020-07-11T05:49:05.127Z</time>
      </trkpt>
      <trkpt lat="42.256296" lon="1.723252">
        <ele>1247</ele>
        <time>2020-07-11T05:49:17.136Z</time>
      </trkpt>
      <trkpt lat="42.256291" lon="1.723118">
        <ele>1247</ele>
        <time>2020-07-11T05:49:25.127Z</time>
      </trkpt>
      <trkpt lat="42.256188" lon="1.723141">
        <ele>1248</ele>
        <time>2020-07-11T05:49:32.129Z</time>
      </trkpt>
      <trkpt lat="42.256059" lon="1.723111">
        <ele>1250</ele>
        <time>2020-07-11T05:49:44.127Z</time>
      </trkpt>
      <trkpt lat="42.255959" lon="1.723121">
        <ele>1250</ele>
        <time>2020-07-11T05:49:54.127Z</time>
      </trkpt>
      <trkpt lat="42.255862" lon="1.723165">
        <ele>1249.09300360955</ele>
        <time>2020-07-11T05:50:00.127Z</time>
      </trkpt>
      <trkpt lat="42.255746" lon="1.723118">
        <ele>1248</ele>
        <time>2020-07-11T05:50:13.127Z</time>
      </trkpt>
      <trkpt lat="42.255645" lon="1.723091">
        <ele>1248</ele>
        <time>2020-07-11T05:50:19.127Z</time>
      </trkpt>
      <trkpt lat="42.255537" lon="1.723153">
        <ele>1247</ele>
        <time>2020-07-11T05:50:27.127Z</time>
      </trkpt>
      <trkpt lat="42.255444" lon="1.72321">
        <ele>1246</ele>
        <time>2020-07-11T05:50:36.123Z</time>
      </trkpt>
      <trkpt lat="42.255345" lon="1.723197">
        <ele>1244</ele>
        <time>2020-07-11T05:50:49.122Z</time>
      </trkpt>
      <trkpt lat="42.255247" lon="1.723179">
        <ele>1244</ele>
        <time>2020-07-11T05:51:16.127Z</time>
      </trkpt>
      <trkpt lat="42.255163" lon="1.723273">
        <ele>1255</ele>
        <time>2020-07-11T05:52:13.127Z</time>
      </trkpt>
      <trkpt lat="42.255061" lon="1.723266">
        <ele>1258.81399278089</ele>
        <time>2020-07-11T05:52:30.127Z</time>
      </trkpt>
      <trkpt lat="42.255063" lon="1.723131">
        <ele>1264</ele>
        <time>2020-07-11T05:53:02.134Z</time>
      </trkpt>
      <trkpt lat="42.254962" lon="1.72313">
        <ele>1265</ele>
        <time>2020-07-11T05:53:17.121Z</time>
      </trkpt>
      <trkpt lat="42.254848" lon="1.723127">
        <ele>1265</ele>
        <time>2020-07-11T05:53:27.126Z</time>
      </trkpt>
      <trkpt lat="42.254747" lon="1.723101">
        <ele>1267</ele>
        <time>2020-07-11T05:53:37.120Z</time>
      </trkpt>
      <trkpt lat="42.254711" lon="1.722973">
        <ele>1269</ele>
        <time>2020-07-11T05:53:45.124Z</time>
      </trkpt>
      <trkpt lat="42.254712" lon="1.722839">
        <ele>1270</ele>
        <time>2020-07-11T05:53:53.128Z</time>
      </trkpt>
      <trkpt lat="42.254634" lon="1.722923">
        <ele>1272</ele>
        <time>2020-07-11T05:54:06.127Z</time>
      </trkpt>
      <trkpt lat="42.254524" lon="1.722909">
        <ele>1275</ele>
        <time>2020-07-11T05:54:27.129Z</time>
      </trkpt>
      <trkpt lat="42.254392" lon="1.722874">
        <ele>1277</ele>
        <time>2020-07-11T05:54:51.127Z</time>
      </trkpt>
      <trkpt lat="42.254297" lon="1.722813">
        <ele>1276</ele>
        <time>2020-07-11T05:55:02.120Z</time>
      </trkpt>
      <trkpt lat="42.254199" lon="1.722748">
        <ele>1276</ele>
        <time>2020-07-11T05:55:17.135Z</time>
      </trkpt>
      <trkpt lat="42.254115" lon="1.722635">
        <ele>1278</ele>
        <time>2020-07-11T05:55:26.127Z</time>
      </trkpt>
      <trkpt lat="42.254011" lon="1.722602">
        <ele>1278</ele>
        <time>2020-07-11T05:55:33.127Z</time>
      </trkpt>
      <trkpt lat="42.253924" lon="1.72254">
        <ele>1277</ele>
        <time>2020-07-11T05:55:41.132Z</time>
      </trkpt>
      <trkpt lat="42.253909" lon="1.722383">
        <ele>1278</ele>
        <time>2020-07-11T05:56:05.127Z</time>
      </trkpt>
      <trkpt lat="42.253972" lon="1.722266">
        <ele>1278</ele>
        <time>2020-07-11T05:56:12.127Z</time>
      </trkpt>
      <trkpt lat="42.25399" lon="1.722129">
        <ele>1277</ele>
        <time>2020-07-11T05:56:23.128Z</time>
      </trkpt>
      <trkpt lat="42.253979" lon="1.721974">
        <ele>1275</ele>
        <time>2020-07-11T05:56:34.125Z</time>
      </trkpt>
      <trkpt lat="42.254013" lon="1.721846">
        <ele>1273</ele>
        <time>2020-07-11T05:56:42.129Z</time>
      </trkpt>
      <trkpt lat="42.25407" lon="1.721733">
        <ele>1272</ele>
        <time>2020-07-11T05:56:50.228Z</time>
      </trkpt>
      <trkpt lat="42.254119" lon="1.721597">
        <ele>1271</ele>
        <time>2020-07-11T05:57:02.124Z</time>
      </trkpt>
      <trkpt lat="42.254159" lon="1.721465">
        <ele>1271</ele>
        <time>2020-07-11T05:57:12.127Z</time>
      </trkpt>
      <trkpt lat="42.254175" lon="1.721329">
        <ele>1269.18600721911</ele>
        <time>2020-07-11T05:57:20.127Z</time>
      </trkpt>
      <trkpt lat="42.254212" lon="1.721194">
        <ele>1268</ele>
        <time>2020-07-11T05:57:31.230Z</time>
      </trkpt>
      <trkpt lat="42.254244" lon="1.721028">
        <ele>1267</ele>
        <time>2020-07-11T05:57:44.127Z</time>
      </trkpt>
      <trkpt lat="42.254293" lon="1.720901">
        <ele>1267</ele>
        <time>2020-07-11T05:57:52.127Z</time>
      </trkpt>
      <trkpt lat="42.254331" lon="1.720775">
        <ele>1267</ele>
        <time>2020-07-11T05:57:59.127Z</time>
      </trkpt>
      <trkpt lat="42.254345" lon="1.720634">
        <ele>1267</ele>
        <time>2020-07-11T05:58:08.127Z</time>
      </trkpt>
      <trkpt lat="42.254302" lon="1.720502">
        <ele>1265.9969920385</ele>
        <time>2020-07-11T05:58:19.223Z</time>
      </trkpt>
      <trkpt lat="42.254276" lon="1.720332">
        <ele>1262</ele>
        <time>2020-07-11T05:58:32.127Z</time>
      </trkpt>
      <trkpt lat="42.254295" lon="1.720191">
        <ele>1261</ele>
        <time>2020-07-11T05:58:39.127Z</time>
      </trkpt>
      <trkpt lat="42.25438" lon="1.719992">
        <ele>1258.19579891941</ele>
        <time>2020-07-11T05:58:50.127Z</time>
      </trkpt>
      <trkpt lat="42.254375" lon="1.719831">
        <ele>1258</ele>
        <time>2020-07-11T05:58:58.127Z</time>
      </trkpt>
      <trkpt lat="42.254427" lon="1.719711">
        <ele>1256</ele>
        <time>2020-07-11T05:59:05.131Z</time>
      </trkpt>
      <trkpt lat="42.254459" lon="1.719568">
        <ele>1256</ele>
        <time>2020-07-11T05:59:18.127Z</time>
      </trkpt>
      <trkpt lat="42.254474" lon="1.719434">
        <ele>1256</ele>
        <time>2020-07-11T05:59:32.127Z</time>
      </trkpt>
      <trkpt lat="42.254501" lon="1.719305">
        <ele>1256</ele>
        <time>2020-07-11T05:59:46.127Z</time>
      </trkpt>
      <trkpt lat="42.254453" lon="1.719179">
        <ele>1254</ele>
        <time>2020-07-11T05:59:55.127Z</time>
      </trkpt>
      <trkpt lat="42.254385" lon="1.719073">
        <ele>1250.18600721911</ele>
        <time>2020-07-11T06:00:10.127Z</time>
      </trkpt>
      <trkpt lat="42.254339" lon="1.718952">
        <ele>1249</ele>
        <time>2020-07-11T06:00:22.230Z</time>
      </trkpt>
      <trkpt lat="42.254206" lon="1.718892">
        <ele>1250</ele>
        <time>2020-07-11T06:00:52.879Z</time>
      </trkpt>
      <trkpt lat="42.254199" lon="1.719061">
        <ele>1254</ele>
        <time>2020-07-11T06:01:15.026Z</time>
      </trkpt>
      <trkpt lat="42.254138" lon="1.71917">
        <ele>1256</ele>
        <time>2020-07-11T06:01:28.127Z</time>
      </trkpt>
      <trkpt lat="42.25407" lon="1.719272">
        <ele>1259.81399278089</ele>
        <time>2020-07-11T06:01:40.127Z</time>
      </trkpt>
      <trkpt lat="42.253999" lon="1.719329">
        <ele>1260</ele>
        <time>2020-07-11T06:01:48.125Z</time>
      </trkpt>
      <trkpt lat="42.253902" lon="1.71938">
        <ele>1263</ele>
        <time>2020-07-11T06:02:02.127Z</time>
      </trkpt>
      <trkpt lat="42.253818" lon="1.719442">
        <ele>1265</ele>
        <time>2020-07-11T06:02:15.121Z</time>
      </trkpt>
      <trkpt lat="42.253718" lon="1.719473">
        <ele>1266</ele>
        <time>2020-07-11T06:02:24.133Z</time>
      </trkpt>
      <trkpt lat="42.253613" lon="1.719468">
        <ele>1266</ele>
        <time>2020-07-11T06:02:31.127Z</time>
      </trkpt>
      <trkpt lat="42.253516" lon="1.719406">
        <ele>1265.09300360955</ele>
        <time>2020-07-11T06:02:40.127Z</time>
      </trkpt>
      <trkpt lat="42.25342" lon="1.719343">
        <ele>1265</ele>
        <time>2020-07-11T06:02:48.126Z</time>
      </trkpt>
      <trkpt lat="42.253408" lon="1.719209">
        <ele>1264</ele>
        <time>2020-07-11T06:02:56.225Z</time>
      </trkpt>
      <trkpt lat="42.253353" lon="1.719096">
        <ele>1263</ele>
        <time>2020-07-11T06:03:11.127Z</time>
      </trkpt>
      <trkpt lat="42.253286" lon="1.718952">
        <ele>1262.09300360955</ele>
        <time>2020-07-11T06:03:30.127Z</time>
      </trkpt>
      <trkpt lat="42.253231" lon="1.718831">
        <ele>1262</ele>
        <time>2020-07-11T06:03:39.127Z</time>
      </trkpt>
      <trkpt lat="42.253156" lon="1.718721">
        <ele>1261</ele>
        <time>2020-07-11T06:03:46.130Z</time>
      </trkpt>
      <trkpt lat="42.253063" lon="1.718651">
        <ele>1258</ele>
        <time>2020-07-11T06:03:55.230Z</time>
      </trkpt>
      <trkpt lat="42.252964" lon="1.718517">
        <ele>1256.09789945971</ele>
        <time>2020-07-11T06:04:10.127Z</time>
      </trkpt>
      <trkpt lat="42.252874" lon="1.718438">
        <ele>1256</ele>
        <time>2020-07-11T06:04:17.127Z</time>
      </trkpt>
      <trkpt lat="42.252792" lon="1.718334">
        <ele>1252</ele>
        <time>2020-07-11T06:04:26.127Z</time>
      </trkpt>
      <trkpt lat="42.25272" lon="1.718239">
        <ele>1248.18598638063</ele>
        <time>2020-07-11T06:04:35.127Z</time>
      </trkpt>
      <trkpt lat="42.252624" lon="1.718207">
        <ele>1247</ele>
        <time>2020-07-11T06:04:44.127Z</time>
      </trkpt>
      <trkpt lat="42.252515" lon="1.718193">
        <ele>1243</ele>
        <time>2020-07-11T06:04:57.127Z</time>
      </trkpt>
      <trkpt lat="42.252621" lon="1.718191">
        <ele>1241.11195826087</ele>
        <time>2020-07-11T06:05:10.127Z</time>
      </trkpt>
      <trkpt lat="42.252606" lon="1.71833">
        <ele>1241</ele>
        <time>2020-07-11T06:05:17.127Z</time>
      </trkpt>
      <trkpt lat="42.252527" lon="1.718461">
        <ele>1239</ele>
        <time>2020-07-11T06:05:25.127Z</time>
      </trkpt>
      <trkpt lat="42.252597" lon="1.71857">
        <ele>1238</ele>
        <time>2020-07-11T06:05:53.127Z</time>
      </trkpt>
      <trkpt lat="42.252538" lon="1.718711">
        <ele>1241</ele>
        <time>2020-07-11T06:06:03.127Z</time>
      </trkpt>
      <trkpt lat="42.252501" lon="1.718854">
        <ele>1243</ele>
        <time>2020-07-11T06:06:21.127Z</time>
      </trkpt>
      <trkpt lat="42.252468" lon="1.718987">
        <ele>1244</ele>
        <time>2020-07-11T06:06:33.127Z</time>
      </trkpt>
      <trkpt lat="42.252415" lon="1.7191">
        <ele>1246</ele>
        <time>2020-07-11T06:06:43.127Z</time>
      </trkpt>
      <trkpt lat="42.252371" lon="1.719224">
        <ele>1249</ele>
        <time>2020-07-11T06:06:53.230Z</time>
      </trkpt>
      <trkpt lat="42.252274" lon="1.719262">
        <ele>1251</ele>
        <time>2020-07-11T06:07:09.127Z</time>
      </trkpt>
      <trkpt lat="42.252195" lon="1.71935">
        <ele>1255</ele>
        <time>2020-07-11T06:07:23.132Z</time>
      </trkpt>
      <trkpt lat="42.252099" lon="1.719395">
        <ele>1257</ele>
        <time>2020-07-11T06:07:33.127Z</time>
      </trkpt>
      <trkpt lat="42.252041" lon="1.719534">
        <ele>1262</ele>
        <time>2020-07-11T06:07:51.127Z</time>
      </trkpt>
      <trkpt lat="42.251997" lon="1.719656">
        <ele>1263</ele>
        <time>2020-07-11T06:08:04.127Z</time>
      </trkpt>
      <trkpt lat="42.251893" lon="1.719686">
        <ele>1264</ele>
        <time>2020-07-11T06:08:24.127Z</time>
      </trkpt>
      <trkpt lat="42.251839" lon="1.719564">
        <ele>1269</ele>
        <time>2020-07-11T06:08:44.127Z</time>
      </trkpt>
      <trkpt lat="42.251777" lon="1.719453">
        <ele>1275</ele>
        <time>2020-07-11T06:09:02.127Z</time>
      </trkpt>
      <trkpt lat="42.251746" lon="1.71931">
        <ele>1277</ele>
        <time>2020-07-11T06:09:25.127Z</time>
      </trkpt>
      <trkpt lat="42.25172" lon="1.719179">
        <ele>1280.8141783029</ele>
        <time>2020-07-11T06:09:40.127Z</time>
      </trkpt>
      <trkpt lat="42.251656" lon="1.719062">
        <ele>1286</ele>
        <time>2020-07-11T06:09:57.127Z</time>
      </trkpt>
      <trkpt lat="42.25164" lon="1.718925">
        <ele>1289</ele>
        <time>2020-07-11T06:10:11.127Z</time>
      </trkpt>
      <trkpt lat="42.251609" lon="1.718789">
        <ele>1291</ele>
        <time>2020-07-11T06:10:24.127Z</time>
      </trkpt>
      <trkpt lat="42.251603" lon="1.718646">
        <ele>1293</ele>
        <time>2020-07-11T06:10:36.127Z</time>
      </trkpt>
      <trkpt lat="42.251629" lon="1.718512">
        <ele>1297.81399278089</ele>
        <time>2020-07-11T06:11:00.127Z</time>
      </trkpt>
      <trkpt lat="42.251611" lon="1.71838">
        <ele>1300</ele>
        <time>2020-07-11T06:11:18.127Z</time>
      </trkpt>
      <trkpt lat="42.251599" lon="1.718245">
        <ele>1304</ele>
        <time>2020-07-11T06:11:38.127Z</time>
      </trkpt>
      <trkpt lat="42.251506" lon="1.718157">
        <ele>1310</ele>
        <time>2020-07-11T06:11:57.127Z</time>
      </trkpt>
      <trkpt lat="42.251517" lon="1.718022">
        <ele>1312</ele>
        <time>2020-07-11T06:12:08.127Z</time>
      </trkpt>
      <trkpt lat="42.251485" lon="1.717894">
        <ele>1313</ele>
        <time>2020-07-11T06:12:17.131Z</time>
      </trkpt>
      <trkpt lat="42.251387" lon="1.717794">
        <ele>1315</ele>
        <time>2020-07-11T06:12:29.127Z</time>
      </trkpt>
      <trkpt lat="42.251347" lon="1.717672">
        <ele>1317</ele>
        <time>2020-07-11T06:12:41.127Z</time>
      </trkpt>
      <trkpt lat="42.251269" lon="1.717568">
        <ele>1319</ele>
        <time>2020-07-11T06:12:53.127Z</time>
      </trkpt>
      <trkpt lat="42.251218" lon="1.717426">
        <ele>1322</ele>
        <time>2020-07-11T06:13:04.127Z</time>
      </trkpt>
      <trkpt lat="42.251178" lon="1.7173">
        <ele>1323</ele>
        <time>2020-07-11T06:13:27.127Z</time>
      </trkpt>
      <trkpt lat="42.251114" lon="1.717184">
        <ele>1326.81399278089</ele>
        <time>2020-07-11T06:13:40.127Z</time>
      </trkpt>
      <trkpt lat="42.251037" lon="1.71709">
        <ele>1329</ele>
        <time>2020-07-11T06:13:53.127Z</time>
      </trkpt>
      <trkpt lat="42.250961" lon="1.717002">
        <ele>1330</ele>
        <time>2020-07-11T06:14:07.127Z</time>
      </trkpt>
      <trkpt lat="42.250896" lon="1.716901">
        <ele>1335</ele>
        <time>2020-07-11T06:14:23.127Z</time>
      </trkpt>
      <trkpt lat="42.250836" lon="1.716782">
        <ele>1338</ele>
        <time>2020-07-11T06:14:41.127Z</time>
      </trkpt>
      <trkpt lat="42.250758" lon="1.716691">
        <ele>1340</ele>
        <time>2020-07-11T06:14:57.127Z</time>
      </trkpt>
      <trkpt lat="42.250666" lon="1.716634">
        <ele>1342</ele>
        <time>2020-07-11T06:15:08.127Z</time>
      </trkpt>
      <trkpt lat="42.25057" lon="1.716591">
        <ele>1344.90699639045</ele>
        <time>2020-07-11T06:15:20.127Z</time>
      </trkpt>
      <trkpt lat="42.250468" lon="1.716552">
        <ele>1345</ele>
        <time>2020-07-11T06:15:30.127Z</time>
      </trkpt>
      <trkpt lat="42.250378" lon="1.716493">
        <ele>1346</ele>
        <time>2020-07-11T06:15:42.127Z</time>
      </trkpt>
      <trkpt lat="42.250277" lon="1.716464">
        <ele>1348</ele>
        <time>2020-07-11T06:15:57.127Z</time>
      </trkpt>
      <trkpt lat="42.250179" lon="1.716438">
        <ele>1353</ele>
        <time>2020-07-11T06:16:13.127Z</time>
      </trkpt>
      <trkpt lat="42.250075" lon="1.716434">
        <ele>1353</ele>
        <time>2020-07-11T06:16:25.127Z</time>
      </trkpt>
      <trkpt lat="42.250035" lon="1.71631">
        <ele>1355</ele>
        <time>2020-07-11T06:16:51.127Z</time>
      </trkpt>
      <trkpt lat="42.250094" lon="1.716196">
        <ele>1354.09300360955</ele>
        <time>2020-07-11T06:17:00.127Z</time>
      </trkpt>
      <trkpt lat="42.250142" lon="1.716012">
        <ele>1356</ele>
        <time>2020-07-11T06:17:17.127Z</time>
      </trkpt>
      <trkpt lat="42.250193" lon="1.715894">
        <ele>1359</ele>
        <time>2020-07-11T06:17:31.127Z</time>
      </trkpt>
      <trkpt lat="42.250092" lon="1.715918">
        <ele>1363</ele>
        <time>2020-07-11T06:17:53.122Z</time>
      </trkpt>
      <trkpt lat="42.249992" lon="1.715944">
        <ele>1368.81019552525</ele>
        <time>2020-07-11T06:18:20.127Z</time>
      </trkpt>
      <trkpt lat="42.24989" lon="1.715908">
        <ele>1375</ele>
        <time>2020-07-11T06:18:51.126Z</time>
      </trkpt>
      <trkpt lat="42.249794" lon="1.715876">
        <ele>1378</ele>
        <time>2020-07-11T06:19:04.133Z</time>
      </trkpt>
      <trkpt lat="42.249765" lon="1.715743">
        <ele>1380</ele>
        <time>2020-07-11T06:19:18.127Z</time>
      </trkpt>
      <trkpt lat="42.249678" lon="1.715667">
        <ele>1382</ele>
        <time>2020-07-11T06:19:32.127Z</time>
      </trkpt>
      <trkpt lat="42.249599" lon="1.715572">
        <ele>1382</ele>
        <time>2020-07-11T06:19:46.130Z</time>
      </trkpt>
      <trkpt lat="42.249519" lon="1.715485">
        <ele>1385</ele>
        <time>2020-07-11T06:20:04.127Z</time>
      </trkpt>
      <trkpt lat="42.249426" lon="1.71541">
        <ele>1387</ele>
        <time>2020-07-11T06:20:19.127Z</time>
      </trkpt>
      <trkpt lat="42.249393" lon="1.715283">
        <ele>1389</ele>
        <time>2020-07-11T06:20:35.127Z</time>
      </trkpt>
      <trkpt lat="42.249316" lon="1.715197">
        <ele>1390</ele>
        <time>2020-07-11T06:20:41.127Z</time>
      </trkpt>
      <trkpt lat="42.24925" lon="1.715096">
        <ele>1391</ele>
        <time>2020-07-11T06:20:51.127Z</time>
      </trkpt>
      <trkpt lat="42.249181" lon="1.714998">
        <ele>1396.80624</ele>
        <time>2020-07-11T06:21:20.127Z</time>
      </trkpt>
      <trkpt lat="42.24916" lon="1.715142">
        <ele>1405</ele>
        <time>2020-07-11T06:22:03.127Z</time>
      </trkpt>
      <trkpt lat="42.249186" lon="1.715281">
        <ele>1408</ele>
        <time>2020-07-11T06:22:24.126Z</time>
      </trkpt>
      <trkpt lat="42.249151" lon="1.715415">
        <ele>1415</ele>
        <time>2020-07-11T06:22:54.127Z</time>
      </trkpt>
      <trkpt lat="42.249188" lon="1.715542">
        <ele>1416</ele>
        <time>2020-07-11T06:23:08.127Z</time>
      </trkpt>
      <trkpt lat="42.249205" lon="1.715687">
        <ele>1420</ele>
        <time>2020-07-11T06:23:26.021Z</time>
      </trkpt>
      <trkpt lat="42.24911" lon="1.715748">
        <ele>1426</ele>
        <time>2020-07-11T06:23:51.127Z</time>
      </trkpt>
      <trkpt lat="42.24914" lon="1.715876">
        <ele>1428</ele>
        <time>2020-07-11T06:24:09.127Z</time>
      </trkpt>
      <trkpt lat="42.248987" lon="1.715836">
        <ele>1431</ele>
        <time>2020-07-11T06:24:28.127Z</time>
      </trkpt>
      <trkpt lat="42.248884" lon="1.715813">
        <ele>1433</ele>
        <time>2020-07-11T06:24:41.127Z</time>
      </trkpt>
      <trkpt lat="42.248854" lon="1.715682">
        <ele>1436</ele>
        <time>2020-07-11T06:25:11.127Z</time>
      </trkpt>
      <trkpt lat="42.248768" lon="1.715583">
        <ele>1438</ele>
        <time>2020-07-11T06:25:26.127Z</time>
      </trkpt>
      <trkpt lat="42.248682" lon="1.715503">
        <ele>1440</ele>
        <time>2020-07-11T06:25:35.127Z</time>
      </trkpt>
      <trkpt lat="42.248588" lon="1.715444">
        <ele>1443.81019552525</ele>
        <time>2020-07-11T06:25:50.127Z</time>
      </trkpt>
      <trkpt lat="42.248549" lon="1.715311">
        <ele>1444</ele>
        <time>2020-07-11T06:25:59.127Z</time>
      </trkpt>
      <trkpt lat="42.248454" lon="1.715173">
        <ele>1447</ele>
        <time>2020-07-11T06:26:18.127Z</time>
      </trkpt>
      <trkpt lat="42.248399" lon="1.715057">
        <ele>1448</ele>
        <time>2020-07-11T06:26:25.127Z</time>
      </trkpt>
      <trkpt lat="42.248343" lon="1.714936">
        <ele>1451</ele>
        <time>2020-07-11T06:26:49.127Z</time>
      </trkpt>
      <trkpt lat="42.248308" lon="1.71481">
        <ele>1457</ele>
        <time>2020-07-11T06:27:09.127Z</time>
      </trkpt>
      <trkpt lat="42.248226" lon="1.714714">
        <ele>1458</ele>
        <time>2020-07-11T06:27:21.127Z</time>
      </trkpt>
      <trkpt lat="42.24817" lon="1.7146">
        <ele>1460</ele>
        <time>2020-07-11T06:27:38.127Z</time>
      </trkpt>
      <trkpt lat="42.248139" lon="1.714463">
        <ele>1463</ele>
        <time>2020-07-11T06:27:55.126Z</time>
      </trkpt>
      <trkpt lat="42.248082" lon="1.714344">
        <ele>1464</ele>
        <time>2020-07-11T06:28:05.127Z</time>
      </trkpt>
      <trkpt lat="42.248016" lon="1.714232">
        <ele>1468</ele>
        <time>2020-07-11T06:28:21.127Z</time>
      </trkpt>
      <trkpt lat="42.247919" lon="1.714196">
        <ele>1472</ele>
        <time>2020-07-11T06:28:42.127Z</time>
      </trkpt>
      <trkpt lat="42.24782" lon="1.714124">
        <ele>1472</ele>
        <time>2020-07-11T06:28:56.127Z</time>
      </trkpt>
      <trkpt lat="42.247811" lon="1.713966">
        <ele>1479</ele>
        <time>2020-07-11T06:29:21.127Z</time>
      </trkpt>
      <trkpt lat="42.247823" lon="1.713816">
        <ele>1483</ele>
        <time>2020-07-11T06:29:57.127Z</time>
      </trkpt>
      <trkpt lat="42.247839" lon="1.71368">
        <ele>1485</ele>
        <time>2020-07-11T06:30:06.126Z</time>
      </trkpt>
      <trkpt lat="42.247834" lon="1.713524">
        <ele>1489</ele>
        <time>2020-07-11T06:30:29.127Z</time>
      </trkpt>
      <trkpt lat="42.247733" lon="1.713447">
        <ele>1494</ele>
        <time>2020-07-11T06:30:52.133Z</time>
      </trkpt>
      <trkpt lat="42.247639" lon="1.713387">
        <ele>1499</ele>
        <time>2020-07-11T06:31:13.127Z</time>
      </trkpt>
      <trkpt lat="42.247582" lon="1.713274">
        <ele>1500</ele>
        <time>2020-07-11T06:31:28.128Z</time>
      </trkpt>
      <trkpt lat="42.247488" lon="1.713202">
        <ele>1503</ele>
        <time>2020-07-11T06:31:44.127Z</time>
      </trkpt>
      <trkpt lat="42.247488" lon="1.713356">
        <ele>1512</ele>
        <time>2020-07-11T06:32:31.127Z</time>
      </trkpt>
      <trkpt lat="42.247399" lon="1.713434">
        <ele>1517</ele>
        <time>2020-07-11T06:33:19.129Z</time>
      </trkpt>
      <trkpt lat="42.247343" lon="1.713551">
        <ele>1521</ele>
        <time>2020-07-11T06:33:26.722Z</time>
      </trkpt>
      <trkpt lat="42.247255" lon="1.713478">
        <ele>1524.81399278089</ele>
        <time>2020-07-11T06:33:50.127Z</time>
      </trkpt>
      <trkpt lat="42.247194" lon="1.713373">
        <ele>1527</ele>
        <time>2020-07-11T06:34:08.127Z</time>
      </trkpt>
      <trkpt lat="42.247248" lon="1.713485">
        <ele>1534</ele>
        <time>2020-07-11T06:35:06.127Z</time>
      </trkpt>
      <trkpt lat="42.247158" lon="1.713545">
        <ele>1536</ele>
        <time>2020-07-11T06:35:23.127Z</time>
      </trkpt>
      <trkpt lat="42.247113" lon="1.713421">
        <ele>1541</ele>
        <time>2020-07-11T06:35:42.127Z</time>
      </trkpt>
      <trkpt lat="42.24707" lon="1.713278">
        <ele>1542</ele>
        <time>2020-07-11T06:35:55.127Z</time>
      </trkpt>
      <trkpt lat="42.246977" lon="1.713221">
        <ele>1543</ele>
        <time>2020-07-11T06:36:03.128Z</time>
      </trkpt>
      <trkpt lat="42.246868" lon="1.713181">
        <ele>1545</ele>
        <time>2020-07-11T06:36:17.127Z</time>
      </trkpt>
      <trkpt lat="42.246802" lon="1.71308">
        <ele>1549.90699639045</ele>
        <time>2020-07-11T06:36:40.127Z</time>
      </trkpt>
      <trkpt lat="42.246737" lon="1.712956">
        <ele>1550</ele>
        <time>2020-07-11T06:36:58.127Z</time>
      </trkpt>
      <trkpt lat="42.246694" lon="1.712832">
        <ele>1550</ele>
        <time>2020-07-11T06:37:25.127Z</time>
      </trkpt>
      <trkpt lat="42.246596" lon="1.712776">
        <ele>1554</ele>
        <time>2020-07-11T06:37:47.127Z</time>
      </trkpt>
      <trkpt lat="42.246568" lon="1.712634">
        <ele>1560.90699639045</ele>
        <time>2020-07-11T06:38:10.127Z</time>
      </trkpt>
      <trkpt lat="42.246418" lon="1.712626">
        <ele>1563</ele>
        <time>2020-07-11T06:38:21.127Z</time>
      </trkpt>
      <trkpt lat="42.24634" lon="1.712514">
        <ele>1570</ele>
        <time>2020-07-11T06:38:55.127Z</time>
      </trkpt>
      <trkpt lat="42.246256" lon="1.712439">
        <ele>1573</ele>
        <time>2020-07-11T06:39:07.127Z</time>
      </trkpt>
      <trkpt lat="42.246323" lon="1.712548">
        <ele>1576</ele>
        <time>2020-07-11T06:39:30.127Z</time>
      </trkpt>
      <trkpt lat="42.246301" lon="1.712701">
        <ele>1577</ele>
        <time>2020-07-11T06:39:57.127Z</time>
      </trkpt>
      <trkpt lat="42.24631" lon="1.712839">
        <ele>1578</ele>
        <time>2020-07-11T06:40:07.127Z</time>
      </trkpt>
      <trkpt lat="42.246288" lon="1.71297">
        <ele>1579</ele>
        <time>2020-07-11T06:40:18.132Z</time>
      </trkpt>
      <trkpt lat="42.246341" lon="1.713094">
        <ele>1580</ele>
        <time>2020-07-11T06:40:26.237Z</time>
      </trkpt>
      <trkpt lat="42.246394" lon="1.713216">
        <ele>1580</ele>
        <time>2020-07-11T06:40:43.127Z</time>
      </trkpt>
      <trkpt lat="42.246438" lon="1.713348">
        <ele>1581</ele>
        <time>2020-07-11T06:41:09.127Z</time>
      </trkpt>
      <trkpt lat="42.246479" lon="1.713474">
        <ele>1581</ele>
        <time>2020-07-11T06:41:18.124Z</time>
      </trkpt>
      <trkpt lat="42.246476" lon="1.713612">
        <ele>1582</ele>
        <time>2020-07-11T06:41:26.227Z</time>
      </trkpt>
      <trkpt lat="42.246424" lon="1.713734">
        <ele>1583</ele>
        <time>2020-07-11T06:41:36.127Z</time>
      </trkpt>
      <trkpt lat="42.246379" lon="1.713828">
        <ele>1584</ele>
        <time>2020-07-11T06:41:45.126Z</time>
      </trkpt>
      <trkpt lat="42.246292" lon="1.713936">
        <ele>1585</ele>
        <time>2020-07-11T06:41:55.123Z</time>
      </trkpt>
      <trkpt lat="42.246301" lon="1.714074">
        <ele>1586</ele>
        <time>2020-07-11T06:42:02.127Z</time>
      </trkpt>
      <trkpt lat="42.246275" lon="1.714217">
        <ele>1587</ele>
        <time>2020-07-11T06:42:11.127Z</time>
      </trkpt>
      <trkpt lat="42.24624" lon="1.714355">
        <ele>1587</ele>
        <time>2020-07-11T06:42:22.127Z</time>
      </trkpt>
      <trkpt lat="42.246189" lon="1.714484">
        <ele>1587.90700680969</ele>
        <time>2020-07-11T06:42:31.127Z</time>
      </trkpt>
      <trkpt lat="42.246134" lon="1.71461">
        <ele>1588</ele>
        <time>2020-07-11T06:42:40.127Z</time>
      </trkpt>
      <trkpt lat="42.24604" lon="1.714678">
        <ele>1588.90800522247</ele>
        <time>2020-07-11T06:42:51.128Z</time>
      </trkpt>
      <trkpt lat="42.246032" lon="1.71482">
        <ele>1592</ele>
        <time>2020-07-11T06:43:16.126Z</time>
      </trkpt>
      <trkpt lat="42.246084" lon="1.714935">
        <ele>1593</ele>
        <time>2020-07-11T06:43:40.127Z</time>
      </trkpt>
      <trkpt lat="42.246164" lon="1.715071">
        <ele>1596</ele>
        <time>2020-07-11T06:43:58.127Z</time>
      </trkpt>
      <trkpt lat="42.246266" lon="1.715311">
        <ele>1602</ele>
        <time>2020-07-11T06:44:25.127Z</time>
      </trkpt>
      <trkpt lat="42.246328" lon="1.715423">
        <ele>1605</ele>
        <time>2020-07-11T06:44:45.130Z</time>
      </trkpt>
      <trkpt lat="42.246333" lon="1.715588">
        <ele>1607</ele>
        <time>2020-07-11T06:45:00.127Z</time>
      </trkpt>
      <trkpt lat="42.246411" lon="1.715678">
        <ele>1611</ele>
        <time>2020-07-11T06:45:12.127Z</time>
      </trkpt>
      <trkpt lat="42.246421" lon="1.715814">
        <ele>1612</ele>
        <time>2020-07-11T06:45:25.127Z</time>
      </trkpt>
      <trkpt lat="42.246503" lon="1.715894">
        <ele>1613</ele>
        <time>2020-07-11T06:45:32.127Z</time>
      </trkpt>
      <trkpt lat="42.246508" lon="1.71603">
        <ele>1614</ele>
        <time>2020-07-11T06:45:45.127Z</time>
      </trkpt>
      <trkpt lat="42.246441" lon="1.716142">
        <ele>1615</ele>
        <time>2020-07-11T06:46:00.127Z</time>
      </trkpt>
      <trkpt lat="42.246349" lon="1.716072">
        <ele>1617</ele>
        <time>2020-07-11T06:46:09.127Z</time>
      </trkpt>
      <trkpt lat="42.246304" lon="1.716202">
        <ele>1623</ele>
        <time>2020-07-11T06:46:45.126Z</time>
      </trkpt>
      <trkpt lat="42.246253" lon="1.716326">
        <ele>1625</ele>
        <time>2020-07-11T06:46:55.127Z</time>
      </trkpt>
      <trkpt lat="42.246217" lon="1.71646">
        <ele>1626</ele>
        <time>2020-07-11T06:47:05.127Z</time>
      </trkpt>
      <trkpt lat="42.246257" lon="1.716586">
        <ele>1625</ele>
        <time>2020-07-11T06:47:16.127Z</time>
      </trkpt>
      <trkpt lat="42.246265" lon="1.71672">
        <ele>1624</ele>
        <time>2020-07-11T06:47:23.133Z</time>
      </trkpt>
      <trkpt lat="42.246257" lon="1.716855">
        <ele>1624</ele>
        <time>2020-07-11T06:47:30.127Z</time>
      </trkpt>
      <trkpt lat="42.246243" lon="1.717015">
        <ele>1622</ele>
        <time>2020-07-11T06:47:47.127Z</time>
      </trkpt>
      <trkpt lat="42.246251" lon="1.717151">
        <ele>1620</ele>
        <time>2020-07-11T06:47:56.127Z</time>
      </trkpt>
      <trkpt lat="42.246223" lon="1.717287">
        <ele>1618</ele>
        <time>2020-07-11T06:48:05.127Z</time>
      </trkpt>
      <trkpt lat="42.246222" lon="1.717428">
        <ele>1618</ele>
        <time>2020-07-11T06:48:14.129Z</time>
      </trkpt>
      <trkpt lat="42.246234" lon="1.717565">
        <ele>1618</ele>
        <time>2020-07-11T06:48:22.227Z</time>
      </trkpt>
      <trkpt lat="42.246207" lon="1.717699">
        <ele>1618</ele>
        <time>2020-07-11T06:48:29.129Z</time>
      </trkpt>
      <trkpt lat="42.246171" lon="1.717827">
        <ele>1618</ele>
        <time>2020-07-11T06:48:38.127Z</time>
      </trkpt>
      <trkpt lat="42.24618" lon="1.717965">
        <ele>1619</ele>
        <time>2020-07-11T06:48:46.127Z</time>
      </trkpt>
      <trkpt lat="42.24613" lon="1.718086">
        <ele>1619</ele>
        <time>2020-07-11T06:48:52.127Z</time>
      </trkpt>
      <trkpt lat="42.24611" lon="1.718227">
        <ele>1620</ele>
        <time>2020-07-11T06:49:04.127Z</time>
      </trkpt>
      <trkpt lat="42.246047" lon="1.718351">
        <ele>1622</ele>
        <time>2020-07-11T06:49:14.130Z</time>
      </trkpt>
      <trkpt lat="42.246085" lon="1.718524">
        <ele>1623</ele>
        <time>2020-07-11T06:49:25.121Z</time>
      </trkpt>
      <trkpt lat="42.24604" lon="1.718644">
        <ele>1624</ele>
        <time>2020-07-11T06:49:36.127Z</time>
      </trkpt>
      <trkpt lat="42.246005" lon="1.718801">
        <ele>1626</ele>
        <time>2020-07-11T06:49:49.127Z</time>
      </trkpt>
      <trkpt lat="42.245992" lon="1.718946">
        <ele>1628</ele>
        <time>2020-07-11T06:49:59.127Z</time>
      </trkpt>
      <trkpt lat="42.245986" lon="1.719083">
        <ele>1629</ele>
        <time>2020-07-11T06:50:12.127Z</time>
      </trkpt>
      <trkpt lat="42.246003" lon="1.719227">
        <ele>1631</ele>
        <time>2020-07-11T06:50:23.127Z</time>
      </trkpt>
      <trkpt lat="42.245957" lon="1.719352">
        <ele>1631</ele>
        <time>2020-07-11T06:50:30.127Z</time>
      </trkpt>
      <trkpt lat="42.245851" lon="1.719368">
        <ele>1632</ele>
        <time>2020-07-11T06:50:40.127Z</time>
      </trkpt>
      <trkpt lat="42.24577" lon="1.719275">
        <ele>1636</ele>
        <time>2020-07-11T06:50:56.127Z</time>
      </trkpt>
      <trkpt lat="42.24572" lon="1.719146">
        <ele>1636</ele>
        <time>2020-07-11T06:51:06.127Z</time>
      </trkpt>
      <trkpt lat="42.245687" lon="1.718904">
        <ele>1639</ele>
        <time>2020-07-11T06:51:25.127Z</time>
      </trkpt>
      <trkpt lat="42.245616" lon="1.718809">
        <ele>1643</ele>
        <time>2020-07-11T06:51:42.127Z</time>
      </trkpt>
      <trkpt lat="42.245535" lon="1.718724">
        <ele>1644.80422539007</ele>
        <time>2020-07-11T06:51:51.127Z</time>
      </trkpt>
      <trkpt lat="42.245482" lon="1.718603">
        <ele>1645</ele>
        <time>2020-07-11T06:52:00.127Z</time>
      </trkpt>
      <trkpt lat="42.245514" lon="1.718462">
        <ele>1646</ele>
        <time>2020-07-11T06:52:09.130Z</time>
      </trkpt>
      <trkpt lat="42.245531" lon="1.71832">
        <ele>1647</ele>
        <time>2020-07-11T06:52:17.124Z</time>
      </trkpt>
      <trkpt lat="42.245502" lon="1.718185">
        <ele>1651</ele>
        <time>2020-07-11T06:52:32.132Z</time>
      </trkpt>
      <trkpt lat="42.245518" lon="1.718053">
        <ele>1654</ele>
        <time>2020-07-11T06:52:42.236Z</time>
      </trkpt>
      <trkpt lat="42.24551" lon="1.717893">
        <ele>1655</ele>
        <time>2020-07-11T06:52:57.127Z</time>
      </trkpt>
      <trkpt lat="42.245489" lon="1.717711">
        <ele>1657</ele>
        <time>2020-07-11T06:53:07.123Z</time>
      </trkpt>
      <trkpt lat="42.245416" lon="1.717619">
        <ele>1661</ele>
        <time>2020-07-11T06:53:23.223Z</time>
      </trkpt>
      <trkpt lat="42.245388" lon="1.717489">
        <ele>1663</ele>
        <time>2020-07-11T06:53:33.127Z</time>
      </trkpt>
      <trkpt lat="42.245419" lon="1.71735">
        <ele>1664</ele>
        <time>2020-07-11T06:53:45.127Z</time>
      </trkpt>
      <trkpt lat="42.245434" lon="1.717215">
        <ele>1666</ele>
        <time>2020-07-11T06:53:58.129Z</time>
      </trkpt>
      <trkpt lat="42.245446" lon="1.717063">
        <ele>1668</ele>
        <time>2020-07-11T06:54:09.128Z</time>
      </trkpt>
      <trkpt lat="42.245383" lon="1.716956">
        <ele>1669</ele>
        <time>2020-07-11T06:54:19.127Z</time>
      </trkpt>
      <trkpt lat="42.245301" lon="1.716869">
        <ele>1672.81800727049</ele>
        <time>2020-07-11T06:54:31.129Z</time>
      </trkpt>
      <trkpt lat="42.245286" lon="1.716728">
        <ele>1673.90700680969</ele>
        <time>2020-07-11T06:54:41.127Z</time>
      </trkpt>
      <trkpt lat="42.245319" lon="1.716599">
        <ele>1675</ele>
        <time>2020-07-11T06:54:53.122Z</time>
      </trkpt>
      <trkpt lat="42.245214" lon="1.716559">
        <ele>1677</ele>
        <time>2020-07-11T06:55:11.126Z</time>
      </trkpt>
      <trkpt lat="42.245316" lon="1.716604">
        <ele>1677</ele>
        <time>2020-07-11T06:55:34.122Z</time>
      </trkpt>
      <trkpt lat="42.245233" lon="1.716527">
        <ele>1677</ele>
        <time>2020-07-11T06:55:39.127Z</time>
      </trkpt>
      <trkpt lat="42.245204" lon="1.716392">
        <ele>1679</ele>
        <time>2020-07-11T06:55:52.231Z</time>
      </trkpt>
      <trkpt lat="42.24511" lon="1.716346">
        <ele>1680</ele>
        <time>2020-07-11T06:56:59.127Z</time>
      </trkpt>
      <trkpt lat="42.245019" lon="1.716291">
        <ele>1680</ele>
        <time>2020-07-11T06:58:38.120Z</time>
      </trkpt>
      <trkpt lat="42.244936" lon="1.716218">
        <ele>1681</ele>
        <time>2020-07-11T06:58:52.136Z</time>
      </trkpt>
      <trkpt lat="42.244837" lon="1.716268">
        <ele>1681</ele>
        <time>2020-07-11T06:59:47.121Z</time>
      </trkpt>
      <trkpt lat="42.244915" lon="1.716184">
        <ele>1680</ele>
        <time>2020-07-11T07:01:43.127Z</time>
      </trkpt>
      <trkpt lat="42.244987" lon="1.716087">
        <ele>1678</ele>
        <time>2020-07-11T07:02:06.129Z</time>
      </trkpt>
      <trkpt lat="42.244873" lon="1.71615">
        <ele>1679</ele>
        <time>2020-07-11T07:02:21.131Z</time>
      </trkpt>
      <trkpt lat="42.244967" lon="1.716095">
        <ele>1679</ele>
        <time>2020-07-11T07:03:43.127Z</time>
      </trkpt>
      <trkpt lat="42.245024" lon="1.715972">
        <ele>1679</ele>
        <time>2020-07-11T07:03:50.133Z</time>
      </trkpt>
      <trkpt lat="42.245082" lon="1.71586">
        <ele>1677</ele>
        <time>2020-07-11T07:04:02.121Z</time>
      </trkpt>
      <trkpt lat="42.245147" lon="1.715755">
        <ele>1677</ele>
        <time>2020-07-11T07:04:08.127Z</time>
      </trkpt>
      <trkpt lat="42.24505" lon="1.715667">
        <ele>1677</ele>
        <time>2020-07-11T07:04:14.127Z</time>
      </trkpt>
      <trkpt lat="42.244949" lon="1.715582">
        <ele>1677</ele>
        <time>2020-07-11T07:04:20.127Z</time>
      </trkpt>
      <trkpt lat="42.244932" lon="1.715446">
        <ele>1677</ele>
        <time>2020-07-11T07:04:31.127Z</time>
      </trkpt>
      <trkpt lat="42.244841" lon="1.715382">
        <ele>1677</ele>
        <time>2020-07-11T07:04:39.127Z</time>
      </trkpt>
      <trkpt lat="42.244798" lon="1.715262">
        <ele>1678</ele>
        <time>2020-07-11T07:04:45.127Z</time>
      </trkpt>
      <trkpt lat="42.244851" lon="1.715137">
        <ele>1678</ele>
        <time>2020-07-11T07:04:52.127Z</time>
      </trkpt>
      <trkpt lat="42.24491" lon="1.714912">
        <ele>1678</ele>
        <time>2020-07-11T07:05:07.127Z</time>
      </trkpt>
      <trkpt lat="42.244726" lon="1.714782">
        <ele>1678</ele>
        <time>2020-07-11T07:05:15.127Z</time>
      </trkpt>
      <trkpt lat="42.244676" lon="1.7146">
        <ele>1680</ele>
        <time>2020-07-11T07:05:25.127Z</time>
      </trkpt>
      <trkpt lat="42.244642" lon="1.7145">
        <ele>1681</ele>
        <time>2020-07-11T07:05:32.130Z</time>
      </trkpt>
      <trkpt lat="42.244635" lon="1.71436">
        <ele>1681</ele>
        <time>2020-07-11T07:05:39.127Z</time>
      </trkpt>
      <trkpt lat="42.244704" lon="1.714258">
        <ele>1682</ele>
        <time>2020-07-11T07:05:50.127Z</time>
      </trkpt>
      <trkpt lat="42.244656" lon="1.714134">
        <ele>1682</ele>
        <time>2020-07-11T07:05:58.127Z</time>
      </trkpt>
      <trkpt lat="42.244679" lon="1.714">
        <ele>1684</ele>
        <time>2020-07-11T07:06:08.127Z</time>
      </trkpt>
      <trkpt lat="42.244699" lon="1.713864">
        <ele>1684.89595831609</ele>
        <time>2020-07-11T07:06:21.127Z</time>
      </trkpt>
      <trkpt lat="42.244564" lon="1.713841">
        <ele>1685</ele>
        <time>2020-07-11T07:06:27.127Z</time>
      </trkpt>
      <trkpt lat="42.244659" lon="1.713897">
        <ele>1685</ele>
        <time>2020-07-11T07:07:13.127Z</time>
      </trkpt>
      <trkpt lat="42.244698" lon="1.714033">
        <ele>1684.09299319031</ele>
        <time>2020-07-11T07:07:21.127Z</time>
      </trkpt>
      <trkpt lat="42.244776" lon="1.714127">
        <ele>1684</ele>
        <time>2020-07-11T07:07:30.127Z</time>
      </trkpt>
      <trkpt lat="42.24466" lon="1.714136">
        <ele>1685</ele>
        <time>2020-07-11T07:07:39.133Z</time>
      </trkpt>
      <trkpt lat="42.244723" lon="1.714261">
        <ele>1685</ele>
        <time>2020-07-11T07:07:50.127Z</time>
      </trkpt>
      <trkpt lat="42.244811" lon="1.714381">
        <ele>1683</ele>
        <time>2020-07-11T07:07:56.127Z</time>
      </trkpt>
      <trkpt lat="42.244774" lon="1.714507">
        <ele>1681</ele>
        <time>2020-07-11T07:08:03.127Z</time>
      </trkpt>
      <trkpt lat="42.244837" lon="1.714612">
        <ele>1681</ele>
        <time>2020-07-11T07:08:08.126Z</time>
      </trkpt>
      <trkpt lat="42.244828" lon="1.714765">
        <ele>1680</ele>
        <time>2020-07-11T07:08:15.129Z</time>
      </trkpt>
      <trkpt lat="42.244748" lon="1.714869">
        <ele>1679.08899953919</ele>
        <time>2020-07-11T07:08:21.131Z</time>
      </trkpt>
      <trkpt lat="42.244796" lon="1.715037">
        <ele>1679</ele>
        <time>2020-07-11T07:08:30.127Z</time>
      </trkpt>
      <trkpt lat="42.24477" lon="1.71517">
        <ele>1678</ele>
        <time>2020-07-11T07:08:36.123Z</time>
      </trkpt>
      <trkpt lat="42.244798" lon="1.715322">
        <ele>1678</ele>
        <time>2020-07-11T07:08:47.127Z</time>
      </trkpt>
      <trkpt lat="42.244877" lon="1.715414">
        <ele>1677</ele>
        <time>2020-07-11T07:08:56.130Z</time>
      </trkpt>
      <trkpt lat="42.244942" lon="1.715527">
        <ele>1676</ele>
        <time>2020-07-11T07:09:05.128Z</time>
      </trkpt>
      <trkpt lat="42.245012" lon="1.71566">
        <ele>1676</ele>
        <time>2020-07-11T07:09:10.127Z</time>
      </trkpt>
      <trkpt lat="42.244982" lon="1.715816">
        <ele>1677</ele>
        <time>2020-07-11T07:09:30.133Z</time>
      </trkpt>
      <trkpt lat="42.245026" lon="1.715676">
        <ele>1673</ele>
        <time>2020-07-11T07:09:45.127Z</time>
      </trkpt>
      <trkpt lat="42.245088" lon="1.715548">
        <ele>1669</ele>
        <time>2020-07-11T07:09:57.127Z</time>
      </trkpt>
      <trkpt lat="42.24486" lon="1.715482">
        <ele>1668</ele>
        <time>2020-07-11T07:10:03.127Z</time>
      </trkpt>
      <trkpt lat="42.244841" lon="1.71534">
        <ele>1667</ele>
        <time>2020-07-11T07:10:17.127Z</time>
      </trkpt>
      <trkpt lat="42.244926" lon="1.715254">
        <ele>1664</ele>
        <time>2020-07-11T07:10:23.127Z</time>
      </trkpt>
      <trkpt lat="42.245032" lon="1.715103">
        <ele>1663</ele>
        <time>2020-07-11T07:10:34.127Z</time>
      </trkpt>
      <trkpt lat="42.245017" lon="1.71497">
        <ele>1662</ele>
        <time>2020-07-11T07:10:49.127Z</time>
      </trkpt>
      <trkpt lat="42.245102" lon="1.714895">
        <ele>1660</ele>
        <time>2020-07-11T07:10:57.127Z</time>
      </trkpt>
      <trkpt lat="42.245129" lon="1.71476">
        <ele>1658</ele>
        <time>2020-07-11T07:11:12.127Z</time>
      </trkpt>
      <trkpt lat="42.245112" lon="1.714622">
        <ele>1657</ele>
        <time>2020-07-11T07:11:23.127Z</time>
      </trkpt>
      <trkpt lat="42.245179" lon="1.714494">
        <ele>1656</ele>
        <time>2020-07-11T07:11:33.127Z</time>
      </trkpt>
      <trkpt lat="42.245246" lon="1.714378">
        <ele>1656</ele>
        <time>2020-07-11T07:11:48.127Z</time>
      </trkpt>
      <trkpt lat="42.245228" lon="1.714231">
        <ele>1656</ele>
        <time>2020-07-11T07:11:54.125Z</time>
      </trkpt>
      <trkpt lat="42.245312" lon="1.714158">
        <ele>1655</ele>
        <time>2020-07-11T07:12:02.127Z</time>
      </trkpt>
      <trkpt lat="42.245445" lon="1.714003">
        <ele>1654</ele>
        <time>2020-07-11T07:12:18.127Z</time>
      </trkpt>
      <trkpt lat="42.245351" lon="1.713842">
        <ele>1653</ele>
        <time>2020-07-11T07:12:33.133Z</time>
      </trkpt>
      <trkpt lat="42.245385" lon="1.713693">
        <ele>1648</ele>
        <time>2020-07-11T07:12:47.127Z</time>
      </trkpt>
      <trkpt lat="42.245397" lon="1.713557">
        <ele>1645</ele>
        <time>2020-07-11T07:12:59.130Z</time>
      </trkpt>
      <trkpt lat="42.245387" lon="1.713418">
        <ele>1644</ele>
        <time>2020-07-11T07:13:09.229Z</time>
      </trkpt>
      <trkpt lat="42.245402" lon="1.713266">
        <ele>1645</ele>
        <time>2020-07-11T07:13:15.130Z</time>
      </trkpt>
      <trkpt lat="42.24531" lon="1.713165">
        <ele>1646</ele>
        <time>2020-07-11T07:13:24.130Z</time>
      </trkpt>
      <trkpt lat="42.245266" lon="1.713036">
        <ele>1648</ele>
        <time>2020-07-11T07:13:36.232Z</time>
      </trkpt>
      <trkpt lat="42.245273" lon="1.712838">
        <ele>1649</ele>
        <time>2020-07-11T07:13:46.127Z</time>
      </trkpt>
      <trkpt lat="42.245233" lon="1.712712">
        <ele>1650</ele>
        <time>2020-07-11T07:13:58.127Z</time>
      </trkpt>
      <trkpt lat="42.245149" lon="1.712603">
        <ele>1651</ele>
        <time>2020-07-11T07:14:05.127Z</time>
      </trkpt>
      <trkpt lat="42.245099" lon="1.71248">
        <ele>1652</ele>
        <time>2020-07-11T07:14:12.127Z</time>
      </trkpt>
      <trkpt lat="42.245049" lon="1.712346">
        <ele>1654</ele>
        <time>2020-07-11T07:14:26.127Z</time>
      </trkpt>
      <trkpt lat="42.24496" lon="1.712245">
        <ele>1654</ele>
        <time>2020-07-11T07:14:32.127Z</time>
      </trkpt>
      <trkpt lat="42.24482" lon="1.71201">
        <ele>1656</ele>
        <time>2020-07-11T07:14:43.127Z</time>
      </trkpt>
      <trkpt lat="42.244856" lon="1.711882">
        <ele>1656</ele>
        <time>2020-07-11T07:14:49.127Z</time>
      </trkpt>
      <trkpt lat="42.24487" lon="1.711744">
        <ele>1657</ele>
        <time>2020-07-11T07:14:55.126Z</time>
      </trkpt>
      <trkpt lat="42.244798" lon="1.71163">
        <ele>1657</ele>
        <time>2020-07-11T07:15:02.131Z</time>
      </trkpt>
      <trkpt lat="42.244806" lon="1.711488">
        <ele>1657</ele>
        <time>2020-07-11T07:15:09.126Z</time>
      </trkpt>
      <trkpt lat="42.244775" lon="1.711298">
        <ele>1659</ele>
        <time>2020-07-11T07:15:20.127Z</time>
      </trkpt>
      <trkpt lat="42.244849" lon="1.7112">
        <ele>1659</ele>
        <time>2020-07-11T07:15:28.127Z</time>
      </trkpt>
      <trkpt lat="42.245" lon="1.711088">
        <ele>1661</ele>
        <time>2020-07-11T07:15:40.127Z</time>
      </trkpt>
      <trkpt lat="42.245099" lon="1.710994">
        <ele>1662</ele>
        <time>2020-07-11T07:15:46.127Z</time>
      </trkpt>
      <trkpt lat="42.245078" lon="1.710802">
        <ele>1664</ele>
        <time>2020-07-11T07:15:54.127Z</time>
      </trkpt>
      <trkpt lat="42.244999" lon="1.710718">
        <ele>1664.90700680969</ele>
        <time>2020-07-11T07:16:01.127Z</time>
      </trkpt>
      <trkpt lat="42.244912" lon="1.710613">
        <ele>1666</ele>
        <time>2020-07-11T07:16:13.127Z</time>
      </trkpt>
      <trkpt lat="42.24499" lon="1.710444">
        <ele>1667</ele>
        <time>2020-07-11T07:16:24.127Z</time>
      </trkpt>
      <trkpt lat="42.245064" lon="1.710267">
        <ele>1667</ele>
        <time>2020-07-11T07:16:31.127Z</time>
      </trkpt>
      <trkpt lat="42.245103" lon="1.710139">
        <ele>1667.86860553381</ele>
        <time>2020-07-11T07:16:41.127Z</time>
      </trkpt>
      <trkpt lat="42.245063" lon="1.709955">
        <ele>1670</ele>
        <time>2020-07-11T07:16:52.130Z</time>
      </trkpt>
      <trkpt lat="42.244988" lon="1.709823">
        <ele>1670</ele>
        <time>2020-07-11T07:16:58.127Z</time>
      </trkpt>
      <trkpt lat="42.244948" lon="1.709626">
        <ele>1670</ele>
        <time>2020-07-11T07:17:06.127Z</time>
      </trkpt>
      <trkpt lat="42.244971" lon="1.709481">
        <ele>1670</ele>
        <time>2020-07-11T07:17:16.127Z</time>
      </trkpt>
      <trkpt lat="42.245031" lon="1.709368">
        <ele>1672</ele>
        <time>2020-07-11T07:17:25.127Z</time>
      </trkpt>
      <trkpt lat="42.245143" lon="1.709355">
        <ele>1672.90700680969</ele>
        <time>2020-07-11T07:17:31.127Z</time>
      </trkpt>
      <trkpt lat="42.245251" lon="1.709354">
        <ele>1673</ele>
        <time>2020-07-11T07:17:37.127Z</time>
      </trkpt>
      <trkpt lat="42.245358" lon="1.709309">
        <ele>1674</ele>
        <time>2020-07-11T07:17:44.127Z</time>
      </trkpt>
      <trkpt lat="42.245403" lon="1.709172">
        <ele>1675</ele>
        <time>2020-07-11T07:17:54.127Z</time>
      </trkpt>
      <trkpt lat="42.245432" lon="1.70904">
        <ele>1676</ele>
        <time>2020-07-11T07:18:03.127Z</time>
      </trkpt>
      <trkpt lat="42.245432" lon="1.708902">
        <ele>1677</ele>
        <time>2020-07-11T07:18:13.127Z</time>
      </trkpt>
      <trkpt lat="42.245408" lon="1.708772">
        <ele>1678.81401361937</ele>
        <time>2020-07-11T07:18:21.127Z</time>
      </trkpt>
      <trkpt lat="42.245428" lon="1.708638">
        <ele>1679</ele>
        <time>2020-07-11T07:18:30.127Z</time>
      </trkpt>
      <trkpt lat="42.245453" lon="1.708505">
        <ele>1680</ele>
        <time>2020-07-11T07:18:39.127Z</time>
      </trkpt>
      <trkpt lat="42.24556" lon="1.708474">
        <ele>1682</ele>
        <time>2020-07-11T07:18:49.127Z</time>
      </trkpt>
      <trkpt lat="42.245659" lon="1.70851">
        <ele>1683</ele>
        <time>2020-07-11T07:18:55.127Z</time>
      </trkpt>
      <trkpt lat="42.245758" lon="1.708534">
        <ele>1683.90700680969</ele>
        <time>2020-07-11T07:19:01.127Z</time>
      </trkpt>
      <trkpt lat="42.24587" lon="1.708547">
        <ele>1684</ele>
        <time>2020-07-11T07:19:08.127Z</time>
      </trkpt>
      <trkpt lat="42.245976" lon="1.708532">
        <ele>1685</ele>
        <time>2020-07-11T07:19:15.127Z</time>
      </trkpt>
      <trkpt lat="42.246078" lon="1.70853">
        <ele>1685</ele>
        <time>2020-07-11T07:19:24.127Z</time>
      </trkpt>
      <trkpt lat="42.246182" lon="1.708486">
        <ele>1687</ele>
        <time>2020-07-11T07:19:36.127Z</time>
      </trkpt>
      <trkpt lat="42.24627" lon="1.708411">
        <ele>1688</ele>
        <time>2020-07-11T07:19:49.127Z</time>
      </trkpt>
      <trkpt lat="42.24636" lon="1.708328">
        <ele>1690</ele>
        <time>2020-07-11T07:20:00.127Z</time>
      </trkpt>
      <trkpt lat="42.246463" lon="1.70829">
        <ele>1692</ele>
        <time>2020-07-11T07:20:10.127Z</time>
      </trkpt>
      <trkpt lat="42.24658" lon="1.708282">
        <ele>1692</ele>
        <time>2020-07-11T07:20:18.127Z</time>
      </trkpt>
      <trkpt lat="42.246688" lon="1.708266">
        <ele>1694.89801789471</ele>
        <time>2020-07-11T07:20:31.127Z</time>
      </trkpt>
      <trkpt lat="42.246798" lon="1.70826">
        <ele>1695</ele>
        <time>2020-07-11T07:20:38.127Z</time>
      </trkpt>
      <trkpt lat="42.246897" lon="1.708232">
        <ele>1697</ele>
        <time>2020-07-11T07:20:47.127Z</time>
      </trkpt>
      <trkpt lat="42.246982" lon="1.708076">
        <ele>1700</ele>
        <time>2020-07-11T07:21:07.127Z</time>
      </trkpt>
      <trkpt lat="42.247064" lon="1.707941">
        <ele>1702</ele>
        <time>2020-07-11T07:21:19.127Z</time>
      </trkpt>
      <trkpt lat="42.247021" lon="1.707816">
        <ele>1703</ele>
        <time>2020-07-11T07:21:25.127Z</time>
      </trkpt>
      <trkpt lat="42.24714" lon="1.707744">
        <ele>1704</ele>
        <time>2020-07-11T07:21:33.127Z</time>
      </trkpt>
      <trkpt lat="42.247263" lon="1.707676">
        <ele>1705.80422539007</ele>
        <time>2020-07-11T07:21:41.127Z</time>
      </trkpt>
      <trkpt lat="42.247364" lon="1.707674">
        <ele>1706</ele>
        <time>2020-07-11T07:21:48.123Z</time>
      </trkpt>
      <trkpt lat="42.24757" lon="1.707613">
        <ele>1707</ele>
        <time>2020-07-11T07:22:00.127Z</time>
      </trkpt>
      <trkpt lat="42.247664" lon="1.707555">
        <ele>1709</ele>
        <time>2020-07-11T07:22:12.127Z</time>
      </trkpt>
      <trkpt lat="42.247763" lon="1.707521">
        <ele>1709</ele>
        <time>2020-07-11T07:22:20.132Z</time>
      </trkpt>
      <trkpt lat="42.247872" lon="1.707504">
        <ele>1711.90211269503</ele>
        <time>2020-07-11T07:22:31.127Z</time>
      </trkpt>
      <trkpt lat="42.24799" lon="1.707451">
        <ele>1714</ele>
        <time>2020-07-11T07:22:43.127Z</time>
      </trkpt>
      <trkpt lat="42.248225" lon="1.707398">
        <ele>1714</ele>
        <time>2020-07-11T07:22:54.127Z</time>
      </trkpt>
      <trkpt lat="42.248297" lon="1.707293">
        <ele>1717</ele>
        <time>2020-07-11T07:23:13.127Z</time>
      </trkpt>
      <trkpt lat="42.248382" lon="1.707208">
        <ele>1718.81401361937</ele>
        <time>2020-07-11T07:23:21.127Z</time>
      </trkpt>
      <trkpt lat="42.248453" lon="1.707106">
        <ele>1719</ele>
        <time>2020-07-11T07:23:27.127Z</time>
      </trkpt>
      <trkpt lat="42.248501" lon="1.706947">
        <ele>1720.80422539007</ele>
        <time>2020-07-11T07:23:41.127Z</time>
      </trkpt>
      <trkpt lat="42.248422" lon="1.706648">
        <ele>1722</ele>
        <time>2020-07-11T07:23:53.127Z</time>
      </trkpt>
      <trkpt lat="42.248456" lon="1.706498">
        <ele>1724</ele>
        <time>2020-07-11T07:24:05.122Z</time>
      </trkpt>
      <trkpt lat="42.248542" lon="1.706388">
        <ele>1726</ele>
        <time>2020-07-11T07:24:15.127Z</time>
      </trkpt>
      <trkpt lat="42.248616" lon="1.70628">
        <ele>1727</ele>
        <time>2020-07-11T07:24:22.127Z</time>
      </trkpt>
      <trkpt lat="42.248696" lon="1.7062">
        <ele>1727.90700680969</ele>
        <time>2020-07-11T07:24:31.127Z</time>
      </trkpt>
      <trkpt lat="42.248692" lon="1.706058">
        <ele>1728.90313333333</ele>
        <time>2020-07-11T07:24:41.127Z</time>
      </trkpt>
      <trkpt lat="42.248654" lon="1.705836">
        <ele>1730.50401925145</ele>
        <time>2020-07-11T07:24:50.972Z</time>
      </trkpt>
      <trkpt lat="42.248648" lon="1.705656">
        <ele>1732</ele>
        <time>2020-07-11T07:25:05.127Z</time>
      </trkpt>
      <trkpt lat="42.248718" lon="1.705505">
        <ele>1732</ele>
        <time>2020-07-11T07:25:15.127Z</time>
      </trkpt>
      <trkpt lat="42.248715" lon="1.705345">
        <ele>1734</ele>
        <time>2020-07-11T07:25:23.128Z</time>
      </trkpt>
      <trkpt lat="42.24883" lon="1.705291">
        <ele>1734</ele>
        <time>2020-07-11T07:25:29.127Z</time>
      </trkpt>
      <trkpt lat="42.248934" lon="1.70522">
        <ele>1734</ele>
        <time>2020-07-11T07:25:36.127Z</time>
      </trkpt>
      <trkpt lat="42.249021" lon="1.705154">
        <ele>1734</ele>
        <time>2020-07-11T07:25:43.127Z</time>
      </trkpt>
      <trkpt lat="42.249105" lon="1.705082">
        <ele>1735</ele>
        <time>2020-07-11T07:25:52.127Z</time>
      </trkpt>
      <trkpt lat="42.249209" lon="1.705035">
        <ele>1735</ele>
        <time>2020-07-11T07:26:00.127Z</time>
      </trkpt>
      <trkpt lat="42.249334" lon="1.705018">
        <ele>1736</ele>
        <time>2020-07-11T07:26:06.127Z</time>
      </trkpt>
      <trkpt lat="42.249417" lon="1.705122">
        <ele>1737</ele>
        <time>2020-07-11T07:26:14.123Z</time>
      </trkpt>
      <trkpt lat="42.249453" lon="1.704994">
        <ele>1736</ele>
        <time>2020-07-11T07:26:50.127Z</time>
      </trkpt>
      <trkpt lat="42.249529" lon="1.704891">
        <ele>1738</ele>
        <time>2020-07-11T07:26:59.127Z</time>
      </trkpt>
      <trkpt lat="42.249636" lon="1.704845">
        <ele>1739</ele>
        <time>2020-07-11T07:27:08.127Z</time>
      </trkpt>
      <trkpt lat="42.249736" lon="1.704766">
        <ele>1741</ele>
        <time>2020-07-11T07:27:17.127Z</time>
      </trkpt>
      <trkpt lat="42.249838" lon="1.704707">
        <ele>1742</ele>
        <time>2020-07-11T07:27:24.127Z</time>
      </trkpt>
      <trkpt lat="42.249945" lon="1.704661">
        <ele>1743</ele>
        <time>2020-07-11T07:27:32.127Z</time>
      </trkpt>
      <trkpt lat="42.250044" lon="1.704609">
        <ele>1743</ele>
        <time>2020-07-11T07:27:39.127Z</time>
      </trkpt>
      <trkpt lat="42.250164" lon="1.704521">
        <ele>1746</ele>
        <time>2020-07-11T07:27:52.127Z</time>
      </trkpt>
      <trkpt lat="42.250274" lon="1.704522">
        <ele>1746</ele>
        <time>2020-07-11T07:28:00.127Z</time>
      </trkpt>
      <trkpt lat="42.250372" lon="1.704547">
        <ele>1747</ele>
        <time>2020-07-11T07:28:09.127Z</time>
      </trkpt>
      <trkpt lat="42.250473" lon="1.704582">
        <ele>1749</ele>
        <time>2020-07-11T07:28:18.127Z</time>
      </trkpt>
      <trkpt lat="42.250582" lon="1.704611">
        <ele>1751</ele>
        <time>2020-07-11T07:28:24.127Z</time>
      </trkpt>
      <trkpt lat="42.250678" lon="1.704565">
        <ele>1752</ele>
        <time>2020-07-11T07:28:33.127Z</time>
      </trkpt>
      <trkpt lat="42.250752" lon="1.704473">
        <ele>1753</ele>
        <time>2020-07-11T07:28:42.127Z</time>
      </trkpt>
      <trkpt lat="42.250838" lon="1.7044">
        <ele>1753</ele>
        <time>2020-07-11T07:28:50.127Z</time>
      </trkpt>
      <trkpt lat="42.250947" lon="1.704372">
        <ele>1755</ele>
        <time>2020-07-11T07:29:00.127Z</time>
      </trkpt>
      <trkpt lat="42.251055" lon="1.70436">
        <ele>1756</ele>
        <time>2020-07-11T07:29:09.127Z</time>
      </trkpt>
      <trkpt lat="42.251183" lon="1.704338">
        <ele>1758.81021916878</ele>
        <time>2020-07-11T07:29:21.127Z</time>
      </trkpt>
      <trkpt lat="42.251287" lon="1.704216">
        <ele>1760</ele>
        <time>2020-07-11T07:29:33.127Z</time>
      </trkpt>
      <trkpt lat="42.251368" lon="1.704128">
        <ele>1760.90700680969</ele>
        <time>2020-07-11T07:29:41.127Z</time>
      </trkpt>
      <trkpt lat="42.251464" lon="1.704064">
        <ele>1761</ele>
        <time>2020-07-11T07:29:48.127Z</time>
      </trkpt>
      <trkpt lat="42.251568" lon="1.704008">
        <ele>1762</ele>
        <time>2020-07-11T07:29:57.127Z</time>
      </trkpt>
      <trkpt lat="42.251671" lon="1.704002">
        <ele>1763</ele>
        <time>2020-07-11T07:30:04.127Z</time>
      </trkpt>
      <trkpt lat="42.251786" lon="1.703963">
        <ele>1763</ele>
        <time>2020-07-11T07:30:10.127Z</time>
      </trkpt>
      <trkpt lat="42.251894" lon="1.703964">
        <ele>1764</ele>
        <time>2020-07-11T07:30:26.231Z</time>
      </trkpt>
      <trkpt lat="42.252001" lon="1.703935">
        <ele>1765</ele>
        <time>2020-07-11T07:30:36.127Z</time>
      </trkpt>
      <trkpt lat="42.252099" lon="1.703895">
        <ele>1765</ele>
        <time>2020-07-11T07:30:45.122Z</time>
      </trkpt>
      <trkpt lat="42.252202" lon="1.703862">
        <ele>1765.90700680969</ele>
        <time>2020-07-11T07:30:51.127Z</time>
      </trkpt>
      <trkpt lat="42.252308" lon="1.70382">
        <ele>1766</ele>
        <time>2020-07-11T07:31:02.127Z</time>
      </trkpt>
      <trkpt lat="42.252407" lon="1.703798">
        <ele>1766</ele>
        <time>2020-07-11T07:31:09.127Z</time>
      </trkpt>
      <trkpt lat="42.252499" lon="1.703717">
        <ele>1768</ele>
        <time>2020-07-11T07:31:17.133Z</time>
      </trkpt>
      <trkpt lat="42.252584" lon="1.703605">
        <ele>1768</ele>
        <time>2020-07-11T07:31:23.129Z</time>
      </trkpt>
      <trkpt lat="42.252624" lon="1.703467">
        <ele>1768</ele>
        <time>2020-07-11T07:31:31.127Z</time>
      </trkpt>
      <trkpt lat="42.252667" lon="1.703344">
        <ele>1768</ele>
        <time>2020-07-11T07:31:39.127Z</time>
      </trkpt>
      <trkpt lat="42.252696" lon="1.703207">
        <ele>1767</ele>
        <time>2020-07-11T07:31:46.237Z</time>
      </trkpt>
      <trkpt lat="42.25274" lon="1.703062">
        <ele>1767</ele>
        <time>2020-07-11T07:31:54.132Z</time>
      </trkpt>
      <trkpt lat="42.252666" lon="1.702863">
        <ele>1766</ele>
        <time>2020-07-11T07:32:13.127Z</time>
      </trkpt>
      <trkpt lat="42.252644" lon="1.702707">
        <ele>1766</ele>
        <time>2020-07-11T07:32:19.127Z</time>
      </trkpt>
      <trkpt lat="42.252566" lon="1.702583">
        <ele>1765</ele>
        <time>2020-07-11T07:32:24.127Z</time>
      </trkpt>
      <trkpt lat="42.252488" lon="1.702474">
        <ele>1762</ele>
        <time>2020-07-11T07:32:32.127Z</time>
      </trkpt>
      <trkpt lat="42.252416" lon="1.702369">
        <ele>1761</ele>
        <time>2020-07-11T07:32:40.127Z</time>
      </trkpt>
      <trkpt lat="42.252336" lon="1.702278">
        <ele>1761</ele>
        <time>2020-07-11T07:32:48.127Z</time>
      </trkpt>
      <trkpt lat="42.252262" lon="1.702187">
        <ele>1760</ele>
        <time>2020-07-11T07:32:56.127Z</time>
      </trkpt>
      <trkpt lat="42.252193" lon="1.702084">
        <ele>1757</ele>
        <time>2020-07-11T07:33:02.127Z</time>
      </trkpt>
      <trkpt lat="42.252127" lon="1.701958">
        <ele>1757</ele>
        <time>2020-07-11T07:33:09.127Z</time>
      </trkpt>
      <trkpt lat="42.252125" lon="1.701781">
        <ele>1757</ele>
        <time>2020-07-11T07:33:19.127Z</time>
      </trkpt>
      <trkpt lat="42.252099" lon="1.701648">
        <ele>1756</ele>
        <time>2020-07-11T07:33:29.127Z</time>
      </trkpt>
      <trkpt lat="42.252101" lon="1.701485">
        <ele>1755</ele>
        <time>2020-07-11T07:33:35.127Z</time>
      </trkpt>
      <trkpt lat="42.252104" lon="1.701346">
        <ele>1755</ele>
        <time>2020-07-11T07:33:42.127Z</time>
      </trkpt>
      <trkpt lat="42.252122" lon="1.701009">
        <ele>1755</ele>
        <time>2020-07-11T07:33:58.127Z</time>
      </trkpt>
      <trkpt lat="42.25212" lon="1.700868">
        <ele>1754</ele>
        <time>2020-07-11T07:34:07.127Z</time>
      </trkpt>
      <trkpt lat="42.252022" lon="1.700744">
        <ele>1754</ele>
        <time>2020-07-11T07:34:15.127Z</time>
      </trkpt>
      <trkpt lat="42.25196" lon="1.700611">
        <ele>1753</ele>
        <time>2020-07-11T07:34:23.127Z</time>
      </trkpt>
      <trkpt lat="42.251907" lon="1.700494">
        <ele>1751</ele>
        <time>2020-07-11T07:34:34.127Z</time>
      </trkpt>
      <trkpt lat="42.251836" lon="1.700386">
        <ele>1751</ele>
        <time>2020-07-11T07:34:39.127Z</time>
      </trkpt>
      <trkpt lat="42.251762" lon="1.700271">
        <ele>1750</ele>
        <time>2020-07-11T07:34:45.127Z</time>
      </trkpt>
      <trkpt lat="42.251738" lon="1.700126">
        <ele>1749</ele>
        <time>2020-07-11T07:34:57.127Z</time>
      </trkpt>
      <trkpt lat="42.251703" lon="1.69999">
        <ele>1747</ele>
        <time>2020-07-11T07:35:03.127Z</time>
      </trkpt>
      <trkpt lat="42.251658" lon="1.699857">
        <ele>1747</ele>
        <time>2020-07-11T07:35:15.127Z</time>
      </trkpt>
      <trkpt lat="42.251693" lon="1.699701">
        <ele>1746</ele>
        <time>2020-07-11T07:35:23.127Z</time>
      </trkpt>
      <trkpt lat="42.251561" lon="1.699414">
        <ele>1746</ele>
        <time>2020-07-11T07:35:37.127Z</time>
      </trkpt>
      <trkpt lat="42.25154" lon="1.699277">
        <ele>1746</ele>
        <time>2020-07-11T07:35:50.127Z</time>
      </trkpt>
      <trkpt lat="42.251581" lon="1.699126">
        <ele>1746</ele>
        <time>2020-07-11T07:35:56.127Z</time>
      </trkpt>
      <trkpt lat="42.251654" lon="1.699021">
        <ele>1746</ele>
        <time>2020-07-11T07:36:01.127Z</time>
      </trkpt>
      <trkpt lat="42.251628" lon="1.698905">
        <ele>1746</ele>
        <time>2020-07-11T07:36:08.127Z</time>
      </trkpt>
      <trkpt lat="42.251606" lon="1.698774">
        <ele>1748</ele>
        <time>2020-07-11T07:36:16.127Z</time>
      </trkpt>
      <trkpt lat="42.25154" lon="1.698671">
        <ele>1748</ele>
        <time>2020-07-11T07:36:24.127Z</time>
      </trkpt>
      <trkpt lat="42.2515" lon="1.698547">
        <ele>1748</ele>
        <time>2020-07-11T07:36:35.127Z</time>
      </trkpt>
      <trkpt lat="42.2514" lon="1.698467">
        <ele>1749</ele>
        <time>2020-07-11T07:36:42.127Z</time>
      </trkpt>
      <trkpt lat="42.251318" lon="1.698374">
        <ele>1749</ele>
        <time>2020-07-11T07:36:48.127Z</time>
      </trkpt>
      <trkpt lat="42.251318" lon="1.698231">
        <ele>1751</ele>
        <time>2020-07-11T07:36:58.127Z</time>
      </trkpt>
      <trkpt lat="42.251404" lon="1.698154">
        <ele>1750</ele>
        <time>2020-07-11T07:37:08.127Z</time>
      </trkpt>
      <trkpt lat="42.251496" lon="1.698121">
        <ele>1751</ele>
        <time>2020-07-11T07:37:20.127Z</time>
      </trkpt>
      <trkpt lat="42.251591" lon="1.69805">
        <ele>1753</ele>
        <time>2020-07-11T07:37:28.127Z</time>
      </trkpt>
      <trkpt lat="42.251686" lon="1.697987">
        <ele>1754</ele>
        <time>2020-07-11T07:37:39.127Z</time>
      </trkpt>
      <trkpt lat="42.25191" lon="1.697952">
        <ele>1757</ele>
        <time>2020-07-11T07:37:52.127Z</time>
      </trkpt>
      <trkpt lat="42.252122" lon="1.697958">
        <ele>1758</ele>
        <time>2020-07-11T07:38:02.127Z</time>
      </trkpt>
      <trkpt lat="42.252228" lon="1.697962">
        <ele>1758</ele>
        <time>2020-07-11T07:38:10.127Z</time>
      </trkpt>
      <trkpt lat="42.252328" lon="1.697947">
        <ele>1759</ele>
        <time>2020-07-11T07:38:19.127Z</time>
      </trkpt>
      <trkpt lat="42.252434" lon="1.69793">
        <ele>1760</ele>
        <time>2020-07-11T07:38:29.127Z</time>
      </trkpt>
      <trkpt lat="42.25258" lon="1.697953">
        <ele>1762.90700680969</ele>
        <time>2020-07-11T07:38:41.127Z</time>
      </trkpt>
      <trkpt lat="42.252678" lon="1.697951">
        <ele>1763</ele>
        <time>2020-07-11T07:38:48.127Z</time>
      </trkpt>
      <trkpt lat="42.25277" lon="1.698004">
        <ele>1765</ele>
        <time>2020-07-11T07:38:56.127Z</time>
      </trkpt>
      <trkpt lat="42.252861" lon="1.698079">
        <ele>1767</ele>
        <time>2020-07-11T07:39:06.127Z</time>
      </trkpt>
      <trkpt lat="42.252964" lon="1.698087">
        <ele>1769</ele>
        <time>2020-07-11T07:39:16.127Z</time>
      </trkpt>
      <trkpt lat="42.253031" lon="1.69796">
        <ele>1771</ele>
        <time>2020-07-11T07:39:39.127Z</time>
      </trkpt>
      <trkpt lat="42.253088" lon="1.69785">
        <ele>1771</ele>
        <time>2020-07-11T07:39:49.128Z</time>
      </trkpt>
      <trkpt lat="42.2532" lon="1.69772">
        <ele>1773</ele>
        <time>2020-07-11T07:39:59.127Z</time>
      </trkpt>
      <trkpt lat="42.253257" lon="1.69747">
        <ele>1772</ele>
        <time>2020-07-11T07:40:15.127Z</time>
      </trkpt>
      <trkpt lat="42.253355" lon="1.697401">
        <ele>1772</ele>
        <time>2020-07-11T07:40:22.127Z</time>
      </trkpt>
      <trkpt lat="42.253481" lon="1.697285">
        <ele>1773</ele>
        <time>2020-07-11T07:40:34.127Z</time>
      </trkpt>
      <trkpt lat="42.253607" lon="1.697186">
        <ele>1773</ele>
        <time>2020-07-11T07:40:42.127Z</time>
      </trkpt>
      <trkpt lat="42.25369" lon="1.697105">
        <ele>1773</ele>
        <time>2020-07-11T07:40:48.127Z</time>
      </trkpt>
      <trkpt lat="42.253801" lon="1.697024">
        <ele>1773</ele>
        <time>2020-07-11T07:40:55.131Z</time>
      </trkpt>
      <trkpt lat="42.253798" lon="1.696882">
        <ele>1773</ele>
        <time>2020-07-11T07:41:03.127Z</time>
      </trkpt>
      <trkpt lat="42.253865" lon="1.696759">
        <ele>1773</ele>
        <time>2020-07-11T07:41:11.127Z</time>
      </trkpt>
      <trkpt lat="42.253966" lon="1.696635">
        <ele>1773</ele>
        <time>2020-07-11T07:41:22.127Z</time>
      </trkpt>
      <trkpt lat="42.253964" lon="1.696501">
        <ele>1773</ele>
        <time>2020-07-11T07:41:29.127Z</time>
      </trkpt>
      <trkpt lat="42.253985" lon="1.696303">
        <ele>1773</ele>
        <time>2020-07-11T07:41:40.127Z</time>
      </trkpt>
      <trkpt lat="42.254022" lon="1.696168">
        <ele>1775</ele>
        <time>2020-07-11T07:41:49.127Z</time>
      </trkpt>
      <trkpt lat="42.253931" lon="1.696051">
        <ele>1776</ele>
        <time>2020-07-11T07:41:54.127Z</time>
      </trkpt>
      <trkpt lat="42.254011" lon="1.695829">
        <ele>1776</ele>
        <time>2020-07-11T07:42:06.127Z</time>
      </trkpt>
      <trkpt lat="42.254004" lon="1.695685">
        <ele>1776</ele>
        <time>2020-07-11T07:42:15.133Z</time>
      </trkpt>
      <trkpt lat="42.253974" lon="1.695528">
        <ele>1776</ele>
        <time>2020-07-11T07:42:21.127Z</time>
      </trkpt>
      <trkpt lat="42.253973" lon="1.695382">
        <ele>1777</ele>
        <time>2020-07-11T07:42:32.127Z</time>
      </trkpt>
      <trkpt lat="42.253957" lon="1.695246">
        <ele>1777</ele>
        <time>2020-07-11T07:42:40.127Z</time>
      </trkpt>
      <trkpt lat="42.253934" lon="1.695107">
        <ele>1777</ele>
        <time>2020-07-11T07:42:47.135Z</time>
      </trkpt>
      <trkpt lat="42.253952" lon="1.69497">
        <ele>1778</ele>
        <time>2020-07-11T07:42:56.127Z</time>
      </trkpt>
      <trkpt lat="42.253952" lon="1.694833">
        <ele>1778</ele>
        <time>2020-07-11T07:43:06.127Z</time>
      </trkpt>
      <trkpt lat="42.254049" lon="1.694775">
        <ele>1779</ele>
        <time>2020-07-11T07:43:17.127Z</time>
      </trkpt>
      <trkpt lat="42.254134" lon="1.694685">
        <ele>1779</ele>
        <time>2020-07-11T07:43:26.127Z</time>
      </trkpt>
      <trkpt lat="42.254228" lon="1.694601">
        <ele>1779</ele>
        <time>2020-07-11T07:43:33.127Z</time>
      </trkpt>
      <trkpt lat="42.25433" lon="1.694554">
        <ele>1780.81401361937</ele>
        <time>2020-07-11T07:43:41.127Z</time>
      </trkpt>
      <trkpt lat="42.25443" lon="1.694513">
        <ele>1781</ele>
        <time>2020-07-11T07:43:47.129Z</time>
      </trkpt>
      <trkpt lat="42.254526" lon="1.694465">
        <ele>1783</ele>
        <time>2020-07-11T07:43:56.127Z</time>
      </trkpt>
      <trkpt lat="42.254612" lon="1.69439">
        <ele>1784</ele>
        <time>2020-07-11T07:44:04.127Z</time>
      </trkpt>
      <trkpt lat="42.254656" lon="1.694248">
        <ele>1784</ele>
        <time>2020-07-11T07:44:13.127Z</time>
      </trkpt>
      <trkpt lat="42.254674" lon="1.694112">
        <ele>1784</ele>
        <time>2020-07-11T07:44:19.136Z</time>
      </trkpt>
      <trkpt lat="42.254757" lon="1.69398">
        <ele>1786</ele>
        <time>2020-07-11T07:44:29.127Z</time>
      </trkpt>
      <trkpt lat="42.254838" lon="1.693886">
        <ele>1786</ele>
        <time>2020-07-11T07:44:37.127Z</time>
      </trkpt>
      <trkpt lat="42.254924" lon="1.69374">
        <ele>1786</ele>
        <time>2020-07-11T07:44:49.127Z</time>
      </trkpt>
      <trkpt lat="42.255006" lon="1.69357">
        <ele>1787</ele>
        <time>2020-07-11T07:44:59.127Z</time>
      </trkpt>
      <trkpt lat="42.255064" lon="1.693451">
        <ele>1788</ele>
        <time>2020-07-11T07:45:07.127Z</time>
      </trkpt>
      <trkpt lat="42.255124" lon="1.693323">
        <ele>1788</ele>
        <time>2020-07-11T07:45:15.127Z</time>
      </trkpt>
      <trkpt lat="42.255186" lon="1.693209">
        <ele>1789</ele>
        <time>2020-07-11T07:45:23.127Z</time>
      </trkpt>
      <trkpt lat="42.255245" lon="1.693099">
        <ele>1789</ele>
        <time>2020-07-11T07:45:30.127Z</time>
      </trkpt>
      <trkpt lat="42.255275" lon="1.692963">
        <ele>1790</ele>
        <time>2020-07-11T07:45:38.127Z</time>
      </trkpt>
      <trkpt lat="42.255276" lon="1.692829">
        <ele>1790</ele>
        <time>2020-07-11T07:45:46.127Z</time>
      </trkpt>
      <trkpt lat="42.255278" lon="1.692692">
        <ele>1791</ele>
        <time>2020-07-11T07:45:54.127Z</time>
      </trkpt>
      <trkpt lat="42.25527" lon="1.692546">
        <ele>1793</ele>
        <time>2020-07-11T07:46:02.127Z</time>
      </trkpt>
      <trkpt lat="42.255292" lon="1.6924">
        <ele>1793</ele>
        <time>2020-07-11T07:46:10.127Z</time>
      </trkpt>
      <trkpt lat="42.255272" lon="1.692263">
        <ele>1793</ele>
        <time>2020-07-11T07:46:18.127Z</time>
      </trkpt>
      <trkpt lat="42.255278" lon="1.692114">
        <ele>1794</ele>
        <time>2020-07-11T07:46:26.127Z</time>
      </trkpt>
      <trkpt lat="42.255296" lon="1.692009">
        <ele>1795</ele>
        <time>2020-07-11T07:46:34.127Z</time>
      </trkpt>
      <trkpt lat="42.255302" lon="1.691903">
        <ele>1795</ele>
        <time>2020-07-11T07:46:40.127Z</time>
      </trkpt>
      <trkpt lat="42.255284" lon="1.691798">
        <ele>1796</ele>
        <time>2020-07-11T07:46:46.127Z</time>
      </trkpt>
      <trkpt lat="42.25526" lon="1.691655">
        <ele>1797</ele>
        <time>2020-07-11T07:46:53.127Z</time>
      </trkpt>
      <trkpt lat="42.255246" lon="1.69152">
        <ele>1797.90700680969</ele>
        <time>2020-07-11T07:47:01.127Z</time>
      </trkpt>
      <trkpt lat="42.255276" lon="1.691378">
        <ele>1798</ele>
        <time>2020-07-11T07:47:11.127Z</time>
      </trkpt>
      <trkpt lat="42.255352" lon="1.691292">
        <ele>1800</ele>
        <time>2020-07-11T07:47:32.127Z</time>
      </trkpt>
      <trkpt lat="42.25545" lon="1.691216">
        <ele>1800</ele>
        <time>2020-07-11T07:47:40.127Z</time>
      </trkpt>
      <trkpt lat="42.255535" lon="1.691144">
        <ele>1800</ele>
        <time>2020-07-11T07:47:47.127Z</time>
      </trkpt>
      <trkpt lat="42.255619" lon="1.69107">
        <ele>1800</ele>
        <time>2020-07-11T07:47:55.127Z</time>
      </trkpt>
      <trkpt lat="42.255716" lon="1.691033">
        <ele>1801</ele>
        <time>2020-07-11T07:48:03.127Z</time>
      </trkpt>
      <trkpt lat="42.255801" lon="1.690954">
        <ele>1801</ele>
        <time>2020-07-11T07:48:10.127Z</time>
      </trkpt>
      <trkpt lat="42.255856" lon="1.690842">
        <ele>1802</ele>
        <time>2020-07-11T07:48:17.127Z</time>
      </trkpt>
      <trkpt lat="42.255903" lon="1.690734">
        <ele>1802</ele>
        <time>2020-07-11T07:48:24.127Z</time>
      </trkpt>
      <trkpt lat="42.255959" lon="1.690606">
        <ele>1802</ele>
        <time>2020-07-11T07:48:32.127Z</time>
      </trkpt>
      <trkpt lat="42.256008" lon="1.690489">
        <ele>1802</ele>
        <time>2020-07-11T07:48:41.127Z</time>
      </trkpt>
      <trkpt lat="42.256094" lon="1.690421">
        <ele>1802</ele>
        <time>2020-07-11T07:48:50.127Z</time>
      </trkpt>
      <trkpt lat="42.256185" lon="1.690363">
        <ele>1803</ele>
        <time>2020-07-11T07:48:56.127Z</time>
      </trkpt>
      <trkpt lat="42.256281" lon="1.690306">
        <ele>1801</ele>
        <time>2020-07-11T07:49:03.127Z</time>
      </trkpt>
      <trkpt lat="42.256381" lon="1.69026">
        <ele>1801.90700680969</ele>
        <time>2020-07-11T07:49:11.127Z</time>
      </trkpt>
      <trkpt lat="42.256475" lon="1.690195">
        <ele>1802</ele>
        <time>2020-07-11T07:49:18.127Z</time>
      </trkpt>
      <trkpt lat="42.256563" lon="1.690121">
        <ele>1803</ele>
        <time>2020-07-11T07:49:24.127Z</time>
      </trkpt>
      <trkpt lat="42.256648" lon="1.68998">
        <ele>1803</ele>
        <time>2020-07-11T07:49:33.127Z</time>
      </trkpt>
      <trkpt lat="42.25669" lon="1.689834">
        <ele>1803.90700680969</ele>
        <time>2020-07-11T07:49:41.127Z</time>
      </trkpt>
      <trkpt lat="42.256723" lon="1.689707">
        <ele>1804</ele>
        <time>2020-07-11T07:49:49.127Z</time>
      </trkpt>
      <trkpt lat="42.256781" lon="1.689556">
        <ele>1804</ele>
        <time>2020-07-11T07:49:57.127Z</time>
      </trkpt>
      <trkpt lat="42.25686" lon="1.689432">
        <ele>1803</ele>
        <time>2020-07-11T07:50:05.127Z</time>
      </trkpt>
      <trkpt lat="42.256958" lon="1.689313">
        <ele>1805</ele>
        <time>2020-07-11T07:50:17.127Z</time>
      </trkpt>
      <trkpt lat="42.257048" lon="1.689215">
        <ele>1806</ele>
        <time>2020-07-11T07:50:25.127Z</time>
      </trkpt>
      <trkpt lat="42.257132" lon="1.689125">
        <ele>1806</ele>
        <time>2020-07-11T07:50:33.127Z</time>
      </trkpt>
      <trkpt lat="42.257197" lon="1.689016">
        <ele>1807.81401361937</ele>
        <time>2020-07-11T07:50:41.127Z</time>
      </trkpt>
      <trkpt lat="42.257258" lon="1.688902">
        <ele>1808</ele>
        <time>2020-07-11T07:50:49.127Z</time>
      </trkpt>
      <trkpt lat="42.257322" lon="1.688794">
        <ele>1808</ele>
        <time>2020-07-11T07:50:57.127Z</time>
      </trkpt>
      <trkpt lat="42.257398" lon="1.688684">
        <ele>1809</ele>
        <time>2020-07-11T07:51:05.127Z</time>
      </trkpt>
      <trkpt lat="42.257451" lon="1.688565">
        <ele>1810</ele>
        <time>2020-07-11T07:51:13.127Z</time>
      </trkpt>
      <trkpt lat="42.25753" lon="1.688481">
        <ele>1810</ele>
        <time>2020-07-11T07:51:21.127Z</time>
      </trkpt>
      <trkpt lat="42.257597" lon="1.688387">
        <ele>1810</ele>
        <time>2020-07-11T07:51:29.127Z</time>
      </trkpt>
      <trkpt lat="42.257635" lon="1.688264">
        <ele>1811</ele>
        <time>2020-07-11T07:51:37.127Z</time>
      </trkpt>
      <trkpt lat="42.257683" lon="1.688151">
        <ele>1812</ele>
        <time>2020-07-11T07:51:45.127Z</time>
      </trkpt>
      <trkpt lat="42.257664" lon="1.688003">
        <ele>1813</ele>
        <time>2020-07-11T07:51:52.127Z</time>
      </trkpt>
      <trkpt lat="42.257653" lon="1.687852">
        <ele>1813</ele>
        <time>2020-07-11T07:52:01.127Z</time>
      </trkpt>
      <trkpt lat="42.257604" lon="1.687718">
        <ele>1813</ele>
        <time>2020-07-11T07:52:09.127Z</time>
      </trkpt>
      <trkpt lat="42.257633" lon="1.687578">
        <ele>1813</ele>
        <time>2020-07-11T07:52:17.127Z</time>
      </trkpt>
      <trkpt lat="42.25766" lon="1.68743">
        <ele>1813</ele>
        <time>2020-07-11T07:52:25.127Z</time>
      </trkpt>
      <trkpt lat="42.257692" lon="1.687314">
        <ele>1812</ele>
        <time>2020-07-11T07:52:33.127Z</time>
      </trkpt>
      <trkpt lat="42.257788" lon="1.687176">
        <ele>1812</ele>
        <time>2020-07-11T07:52:45.127Z</time>
      </trkpt>
      <trkpt lat="42.25791" lon="1.687182">
        <ele>1814</ele>
        <time>2020-07-11T07:52:53.127Z</time>
      </trkpt>
      <trkpt lat="42.258034" lon="1.687172">
        <ele>1814.9080064</ele>
        <time>2020-07-11T07:53:01.127Z</time>
      </trkpt>
      <trkpt lat="42.258137" lon="1.687154">
        <ele>1815</ele>
        <time>2020-07-11T07:53:09.127Z</time>
      </trkpt>
      <trkpt lat="42.258258" lon="1.687144">
        <ele>1818.8160128</ele>
        <time>2020-07-11T07:53:21.127Z</time>
      </trkpt>
      <trkpt lat="42.258362" lon="1.687077">
        <ele>1819</ele>
        <time>2020-07-11T07:53:33.127Z</time>
      </trkpt>
      <trkpt lat="42.258425" lon="1.687007">
        <ele>1820.8160128</ele>
        <time>2020-07-11T07:53:41.127Z</time>
      </trkpt>
      <trkpt lat="42.258501" lon="1.68688">
        <ele>1821</ele>
        <time>2020-07-11T07:53:53.127Z</time>
      </trkpt>
      <trkpt lat="42.258509" lon="1.686736">
        <ele>1822.8160128</ele>
        <time>2020-07-11T07:54:01.127Z</time>
      </trkpt>
      <trkpt lat="42.258552" lon="1.686591">
        <ele>1823</ele>
        <time>2020-07-11T07:54:09.127Z</time>
      </trkpt>
      <trkpt lat="42.258639" lon="1.68651">
        <ele>1825</ele>
        <time>2020-07-11T07:54:21.127Z</time>
      </trkpt>
      <trkpt lat="42.258745" lon="1.686524">
        <ele>1825</ele>
        <time>2020-07-11T07:54:29.127Z</time>
      </trkpt>
      <trkpt lat="42.25886" lon="1.686556">
        <ele>1826</ele>
        <time>2020-07-11T07:54:37.127Z</time>
      </trkpt>
      <trkpt lat="42.259019" lon="1.686534">
        <ele>1826</ele>
        <time>2020-07-11T07:54:49.127Z</time>
      </trkpt>
      <trkpt lat="42.259137" lon="1.686448">
        <ele>1826</ele>
        <time>2020-07-11T07:54:57.127Z</time>
      </trkpt>
      <trkpt lat="42.259241" lon="1.686346">
        <ele>1826</ele>
        <time>2020-07-11T07:55:05.127Z</time>
      </trkpt>
      <trkpt lat="42.259304" lon="1.686204">
        <ele>1826</ele>
        <time>2020-07-11T07:55:13.127Z</time>
      </trkpt>
      <trkpt lat="42.259336" lon="1.686051">
        <ele>1826</ele>
        <time>2020-07-11T07:55:21.127Z</time>
      </trkpt>
      <trkpt lat="42.259353" lon="1.685905">
        <ele>1826</ele>
        <time>2020-07-11T07:55:29.127Z</time>
      </trkpt>
      <trkpt lat="42.259452" lon="1.685861">
        <ele>1827</ele>
        <time>2020-07-11T07:55:37.127Z</time>
      </trkpt>
      <trkpt lat="42.259544" lon="1.685881">
        <ele>1828</ele>
        <time>2020-07-11T07:55:45.127Z</time>
      </trkpt>
      <trkpt lat="42.259642" lon="1.685874">
        <ele>1830</ele>
        <time>2020-07-11T07:55:53.127Z</time>
      </trkpt>
      <trkpt lat="42.259758" lon="1.685855">
        <ele>1832.71532875317</ele>
        <time>2020-07-11T07:56:01.127Z</time>
      </trkpt>
      <trkpt lat="42.259823" lon="1.685788">
        <ele>1833</ele>
        <time>2020-07-11T07:56:09.127Z</time>
      </trkpt>
      <trkpt lat="42.259897" lon="1.685692">
        <ele>1833</ele>
        <time>2020-07-11T07:56:17.127Z</time>
      </trkpt>
      <trkpt lat="42.259962" lon="1.685593">
        <ele>1835</ele>
        <time>2020-07-11T07:56:25.127Z</time>
      </trkpt>
      <trkpt lat="42.260026" lon="1.685521">
        <ele>1835</ele>
        <time>2020-07-11T07:56:33.127Z</time>
      </trkpt>
      <trkpt lat="42.26009" lon="1.685483">
        <ele>1835</ele>
        <time>2020-07-11T07:56:49.127Z</time>
      </trkpt>
      <trkpt lat="42.260168" lon="1.685493">
        <ele>1837</ele>
        <time>2020-07-11T07:56:57.127Z</time>
      </trkpt>
      <trkpt lat="42.260256" lon="1.685548">
        <ele>1836</ele>
        <time>2020-07-11T07:57:05.127Z</time>
      </trkpt>
      <trkpt lat="42.26036" lon="1.685596">
        <ele>1839</ele>
        <time>2020-07-11T07:57:13.127Z</time>
      </trkpt>
      <trkpt lat="42.26047" lon="1.685626">
        <ele>1841.81401361937</ele>
        <time>2020-07-11T07:57:21.127Z</time>
      </trkpt>
      <trkpt lat="42.260647" lon="1.685688">
        <ele>1840</ele>
        <time>2020-07-11T07:57:33.127Z</time>
      </trkpt>
      <trkpt lat="42.260743" lon="1.6858">
        <ele>1839.09299319031</ele>
        <time>2020-07-11T07:57:41.127Z</time>
      </trkpt>
      <trkpt lat="42.260812" lon="1.685883">
        <ele>1840.90700680969</ele>
        <time>2020-07-11T07:58:21.127Z</time>
      </trkpt>
      <trkpt lat="42.260882" lon="1.685978">
        <ele>1841</ele>
        <time>2020-07-11T07:58:29.127Z</time>
      </trkpt>
      <trkpt lat="42.260957" lon="1.686067">
        <ele>1843</ele>
        <time>2020-07-11T07:58:37.127Z</time>
      </trkpt>
      <trkpt lat="42.261016" lon="1.686155">
        <ele>1843</ele>
        <time>2020-07-11T07:58:49.127Z</time>
      </trkpt>
      <trkpt lat="42.261264" lon="1.686404">
        <ele>1844</ele>
        <time>2020-07-11T07:59:06.127Z</time>
      </trkpt>
      <trkpt lat="42.261339" lon="1.686513">
        <ele>1845</ele>
        <time>2020-07-11T07:59:13.125Z</time>
      </trkpt>
      <trkpt lat="42.261409" lon="1.686632">
        <ele>1845</ele>
        <time>2020-07-11T07:59:23.135Z</time>
      </trkpt>
      <trkpt lat="42.261481" lon="1.686738">
        <ele>1845</ele>
        <time>2020-07-11T07:59:30.127Z</time>
      </trkpt>
      <trkpt lat="42.261533" lon="1.686824">
        <ele>1845</ele>
        <time>2020-07-11T07:59:35.127Z</time>
      </trkpt>
      <trkpt lat="42.261572" lon="1.686909">
        <ele>1845</ele>
        <time>2020-07-11T07:59:40.127Z</time>
      </trkpt>
      <trkpt lat="42.261634" lon="1.686993">
        <ele>1845</ele>
        <time>2020-07-11T07:59:47.127Z</time>
      </trkpt>
      <trkpt lat="42.261689" lon="1.687049">
        <ele>1847</ele>
        <time>2020-07-11T07:59:53.127Z</time>
      </trkpt>
      <trkpt lat="42.261722" lon="1.687139">
        <ele>1847</ele>
        <time>2020-07-11T07:59:58.127Z</time>
      </trkpt>
      <trkpt lat="42.261766" lon="1.687227">
        <ele>1847</ele>
        <time>2020-07-11T08:00:04.127Z</time>
      </trkpt>
      <trkpt lat="42.261806" lon="1.687297">
        <ele>1847</ele>
        <time>2020-07-11T08:00:09.127Z</time>
      </trkpt>
      <trkpt lat="42.261855" lon="1.687377">
        <ele>1849</ele>
        <time>2020-07-11T08:00:14.127Z</time>
      </trkpt>
      <trkpt lat="42.261914" lon="1.687479">
        <ele>1849</ele>
        <time>2020-07-11T08:00:20.127Z</time>
      </trkpt>
      <trkpt lat="42.261958" lon="1.687608">
        <ele>1850</ele>
        <time>2020-07-11T08:00:26.127Z</time>
      </trkpt>
      <trkpt lat="42.262016" lon="1.687697">
        <ele>1850</ele>
        <time>2020-07-11T08:00:33.127Z</time>
      </trkpt>
      <trkpt lat="42.262067" lon="1.687795">
        <ele>1850</ele>
        <time>2020-07-11T08:00:39.127Z</time>
      </trkpt>
      <trkpt lat="42.262113" lon="1.687914">
        <ele>1850</ele>
        <time>2020-07-11T08:00:45.119Z</time>
      </trkpt>
      <trkpt lat="42.262159" lon="1.688035">
        <ele>1850</ele>
        <time>2020-07-11T08:00:50.127Z</time>
      </trkpt>
      <trkpt lat="42.262226" lon="1.688137">
        <ele>1851</ele>
        <time>2020-07-11T08:00:58.127Z</time>
      </trkpt>
      <trkpt lat="42.262269" lon="1.688204">
        <ele>1852</ele>
        <time>2020-07-11T08:01:05.127Z</time>
      </trkpt>
      <trkpt lat="42.262315" lon="1.688277">
        <ele>1852.90606777601</ele>
        <time>2020-07-11T08:01:11.127Z</time>
      </trkpt>
      <trkpt lat="42.262355" lon="1.688355">
        <ele>1853</ele>
        <time>2020-07-11T08:01:17.127Z</time>
      </trkpt>
      <trkpt lat="42.262377" lon="1.688434">
        <ele>1854</ele>
        <time>2020-07-11T08:01:23.127Z</time>
      </trkpt>
      <trkpt lat="42.262402" lon="1.688509">
        <ele>1854</ele>
        <time>2020-07-11T08:01:28.127Z</time>
      </trkpt>
      <trkpt lat="42.262428" lon="1.688585">
        <ele>1855</ele>
        <time>2020-07-11T08:01:33.127Z</time>
      </trkpt>
      <trkpt lat="42.262459" lon="1.688658">
        <ele>1855</ele>
        <time>2020-07-11T08:01:38.127Z</time>
      </trkpt>
      <trkpt lat="42.262517" lon="1.688742">
        <ele>1856</ele>
        <time>2020-07-11T08:01:44.127Z</time>
      </trkpt>
      <trkpt lat="42.262606" lon="1.688803">
        <ele>1856</ele>
        <time>2020-07-11T08:01:52.128Z</time>
      </trkpt>
      <trkpt lat="42.262648" lon="1.688954">
        <ele>1856</ele>
        <time>2020-07-11T08:02:00.127Z</time>
      </trkpt>
      <trkpt lat="42.262705" lon="1.689029">
        <ele>1857</ele>
        <time>2020-07-11T08:02:05.127Z</time>
      </trkpt>
      <trkpt lat="42.262737" lon="1.689121">
        <ele>1858.81401361937</ele>
        <time>2020-07-11T08:02:11.127Z</time>
      </trkpt>
      <trkpt lat="42.262784" lon="1.689239">
        <ele>1859</ele>
        <time>2020-07-11T08:02:22.119Z</time>
      </trkpt>
      <trkpt lat="42.262832" lon="1.689372">
        <ele>1859</ele>
        <time>2020-07-11T08:02:28.127Z</time>
      </trkpt>
      <trkpt lat="42.262893" lon="1.689493">
        <ele>1860</ele>
        <time>2020-07-11T08:02:37.127Z</time>
      </trkpt>
      <trkpt lat="42.262938" lon="1.689582">
        <ele>1861</ele>
        <time>2020-07-11T08:02:43.127Z</time>
      </trkpt>
      <trkpt lat="42.262941" lon="1.689716">
        <ele>1862.81800727049</ele>
        <time>2020-07-11T08:02:51.129Z</time>
      </trkpt>
      <trkpt lat="42.262992" lon="1.689856">
        <ele>1863</ele>
        <time>2020-07-11T08:02:57.127Z</time>
      </trkpt>
      <trkpt lat="42.263027" lon="1.689962">
        <ele>1864</ele>
        <time>2020-07-11T08:03:06.127Z</time>
      </trkpt>
      <trkpt lat="42.263039" lon="1.690067">
        <ele>1864</ele>
        <time>2020-07-11T08:03:13.127Z</time>
      </trkpt>
      <trkpt lat="42.263051" lon="1.69021">
        <ele>1865</ele>
        <time>2020-07-11T08:03:25.130Z</time>
      </trkpt>
      <trkpt lat="42.263084" lon="1.690341">
        <ele>1865</ele>
        <time>2020-07-11T08:03:33.125Z</time>
      </trkpt>
      <trkpt lat="42.263164" lon="1.690465">
        <ele>1865</ele>
        <time>2020-07-11T08:03:38.121Z</time>
      </trkpt>
      <trkpt lat="42.263209" lon="1.690587">
        <ele>1865</ele>
        <time>2020-07-11T08:03:44.125Z</time>
      </trkpt>
      <trkpt lat="42.263292" lon="1.690662">
        <ele>1866</ele>
        <time>2020-07-11T08:03:54.123Z</time>
      </trkpt>
      <trkpt lat="42.263355" lon="1.690632">
        <ele>1865</ele>
        <time>2020-07-11T08:04:10.127Z</time>
      </trkpt>
      <trkpt lat="42.263452" lon="1.6906">
        <ele>1867</ele>
        <time>2020-07-11T08:04:20.130Z</time>
      </trkpt>
      <trkpt lat="42.263541" lon="1.690527">
        <ele>1868</ele>
        <time>2020-07-11T08:04:28.123Z</time>
      </trkpt>
      <trkpt lat="42.263486" lon="1.690394">
        <ele>1870</ele>
        <time>2020-07-11T08:04:37.124Z</time>
      </trkpt>
      <trkpt lat="42.263477" lon="1.690257">
        <ele>1872</ele>
        <time>2020-07-11T08:04:46.124Z</time>
      </trkpt>
      <trkpt lat="42.263471" lon="1.690119">
        <ele>1871.09898762655</ele>
        <time>2020-07-11T08:04:51.122Z</time>
      </trkpt>
      <trkpt lat="42.263521" lon="1.689941">
        <ele>1871</ele>
        <time>2020-07-11T08:05:00.127Z</time>
      </trkpt>
      <trkpt lat="42.263571" lon="1.689837">
        <ele>1870</ele>
        <time>2020-07-11T08:05:08.127Z</time>
      </trkpt>
      <trkpt lat="42.263648" lon="1.689695">
        <ele>1872</ele>
        <time>2020-07-11T08:05:24.126Z</time>
      </trkpt>
      <trkpt lat="42.263744" lon="1.689562">
        <ele>1873</ele>
        <time>2020-07-11T08:05:36.127Z</time>
      </trkpt>
      <trkpt lat="42.263819" lon="1.689502">
        <ele>1873</ele>
        <time>2020-07-11T08:05:44.127Z</time>
      </trkpt>
      <trkpt lat="42.263939" lon="1.689422">
        <ele>1875</ele>
        <time>2020-07-11T08:05:56.229Z</time>
      </trkpt>
      <trkpt lat="42.26401" lon="1.689327">
        <ele>1877</ele>
        <time>2020-07-11T08:06:04.127Z</time>
      </trkpt>
      <trkpt lat="42.264066" lon="1.689216">
        <ele>1877</ele>
        <time>2020-07-11T08:06:16.124Z</time>
      </trkpt>
      <trkpt lat="42.264148" lon="1.689119">
        <ele>1880</ele>
        <time>2020-07-11T08:06:36.127Z</time>
      </trkpt>
      <trkpt lat="42.264224" lon="1.689057">
        <ele>1881</ele>
        <time>2020-07-11T08:06:48.128Z</time>
      </trkpt>
      <trkpt lat="42.264325" lon="1.68899">
        <ele>1883</ele>
        <time>2020-07-11T08:07:00.127Z</time>
      </trkpt>
      <trkpt lat="42.264413" lon="1.688911">
        <ele>1887</ele>
        <time>2020-07-11T08:07:16.128Z</time>
      </trkpt>
      <trkpt lat="42.264528" lon="1.688903">
        <ele>1891</ele>
        <time>2020-07-11T08:07:36.127Z</time>
      </trkpt>
      <trkpt lat="42.264645" lon="1.688949">
        <ele>1896</ele>
        <time>2020-07-11T08:08:04.127Z</time>
      </trkpt>
      <trkpt lat="42.264773" lon="1.688982">
        <ele>1902</ele>
        <time>2020-07-11T08:08:32.127Z</time>
      </trkpt>
      <trkpt lat="42.264842" lon="1.689016">
        <ele>1904</ele>
        <time>2020-07-11T08:08:44.134Z</time>
      </trkpt>
      <trkpt lat="42.26496" lon="1.689056">
        <ele>1905</ele>
        <time>2020-07-11T08:08:56.233Z</time>
      </trkpt>
      <trkpt lat="42.26506" lon="1.68913">
        <ele>1911</ele>
        <time>2020-07-11T08:09:24.128Z</time>
      </trkpt>
      <trkpt lat="42.265183" lon="1.689152">
        <ele>1913</ele>
        <time>2020-07-11T08:09:40.127Z</time>
      </trkpt>
      <trkpt lat="42.265298" lon="1.68924">
        <ele>1915</ele>
        <time>2020-07-11T08:09:52.127Z</time>
      </trkpt>
      <trkpt lat="42.265396" lon="1.689297">
        <ele>1916</ele>
        <time>2020-07-11T08:10:04.127Z</time>
      </trkpt>
      <trkpt lat="42.265503" lon="1.689308">
        <ele>1917</ele>
        <time>2020-07-11T08:10:16.127Z</time>
      </trkpt>
      <trkpt lat="42.265624" lon="1.689334">
        <ele>1919</ele>
        <time>2020-07-11T08:10:24.125Z</time>
      </trkpt>
      <trkpt lat="42.265544" lon="1.68925">
        <ele>1919</ele>
        <time>2020-07-11T08:11:17.228Z</time>
      </trkpt>
      <trkpt lat="42.265584" lon="1.689376">
        <ele>1920</ele>
        <time>2020-07-11T08:15:18.121Z</time>
      </trkpt>
      <trkpt lat="42.265586" lon="1.689233">
        <ele>1921</ele>
        <time>2020-07-11T08:15:59.122Z</time>
      </trkpt>
      <trkpt lat="42.265516" lon="1.68934">
        <ele>1920</ele>
        <time>2020-07-11T08:16:56.124Z</time>
      </trkpt>
      <trkpt lat="42.265606" lon="1.68927">
        <ele>1922</ele>
        <time>2020-07-11T08:17:45.128Z</time>
      </trkpt>
      <trkpt lat="42.265666" lon="1.689143">
        <ele>1923</ele>
        <time>2020-07-11T08:18:13.122Z</time>
      </trkpt>
      <trkpt lat="42.265726" lon="1.689016">
        <ele>1924</ele>
        <time>2020-07-11T08:18:24.121Z</time>
      </trkpt>
      <trkpt lat="42.26582" lon="1.688945">
        <ele>1925</ele>
        <time>2020-07-11T08:18:34.127Z</time>
      </trkpt>
      <trkpt lat="42.265938" lon="1.688902">
        <ele>1926</ele>
        <time>2020-07-11T08:18:46.124Z</time>
      </trkpt>
      <trkpt lat="42.266008" lon="1.688801">
        <ele>1928</ele>
        <time>2020-07-11T08:18:59.122Z</time>
      </trkpt>
      <trkpt lat="42.266087" lon="1.688715">
        <ele>1930.8240233475</ele>
        <time>2020-07-11T08:19:11.132Z</time>
      </trkpt>
      <trkpt lat="42.266168" lon="1.688616">
        <ele>1931</ele>
        <time>2020-07-11T08:19:26.132Z</time>
      </trkpt>
      <trkpt lat="42.266212" lon="1.688487">
        <ele>1933</ele>
        <time>2020-07-11T08:19:34.128Z</time>
      </trkpt>
      <trkpt lat="42.266266" lon="1.688395">
        <ele>1935</ele>
        <time>2020-07-11T08:19:42.235Z</time>
      </trkpt>
      <trkpt lat="42.266361" lon="1.688353">
        <ele>1936</ele>
        <time>2020-07-11T08:19:55.126Z</time>
      </trkpt>
      <trkpt lat="42.266438" lon="1.68827">
        <ele>1940</ele>
        <time>2020-07-11T08:20:08.133Z</time>
      </trkpt>
      <trkpt lat="42.266504" lon="1.688169">
        <ele>1942</ele>
        <time>2020-07-11T08:20:25.125Z</time>
      </trkpt>
      <trkpt lat="42.266546" lon="1.688048">
        <ele>1948</ele>
        <time>2020-07-11T08:20:59.124Z</time>
      </trkpt>
      <trkpt lat="42.266635" lon="1.687984">
        <ele>1951</ele>
        <time>2020-07-11T08:21:14.127Z</time>
      </trkpt>
      <trkpt lat="42.266717" lon="1.687936">
        <ele>1953</ele>
        <time>2020-07-11T08:21:28.127Z</time>
      </trkpt>
      <trkpt lat="42.266755" lon="1.687883">
        <ele>1955</ele>
        <time>2020-07-11T08:21:38.127Z</time>
      </trkpt>
      <trkpt lat="42.266795" lon="1.687835">
        <ele>1957</ele>
        <time>2020-07-11T08:21:49.127Z</time>
      </trkpt>
      <trkpt lat="42.266854" lon="1.6878">
        <ele>1960.81401361937</ele>
        <time>2020-07-11T08:22:01.127Z</time>
      </trkpt>
      <trkpt lat="42.266897" lon="1.687754">
        <ele>1961</ele>
        <time>2020-07-11T08:22:10.127Z</time>
      </trkpt>
      <trkpt lat="42.266944" lon="1.687708">
        <ele>1963.81401361937</ele>
        <time>2020-07-11T08:22:21.127Z</time>
      </trkpt>
      <trkpt lat="42.266971" lon="1.687647">
        <ele>1965</ele>
        <time>2020-07-11T08:22:33.127Z</time>
      </trkpt>
      <trkpt lat="42.267037" lon="1.687531">
        <ele>1969</ele>
        <time>2020-07-11T08:22:53.127Z</time>
      </trkpt>
      <trkpt lat="42.267083" lon="1.687443">
        <ele>1972</ele>
        <time>2020-07-11T08:23:05.127Z</time>
      </trkpt>
      <trkpt lat="42.267123" lon="1.687319">
        <ele>1976</ele>
        <time>2020-07-11T08:23:21.127Z</time>
      </trkpt>
      <trkpt lat="42.267186" lon="1.687206">
        <ele>1980</ele>
        <time>2020-07-11T08:23:37.127Z</time>
      </trkpt>
      <trkpt lat="42.267277" lon="1.687106">
        <ele>1982</ele>
        <time>2020-07-11T08:23:53.127Z</time>
      </trkpt>
      <trkpt lat="42.267372" lon="1.687022">
        <ele>1986</ele>
        <time>2020-07-11T08:24:09.127Z</time>
      </trkpt>
      <trkpt lat="42.267473" lon="1.686979">
        <ele>1989</ele>
        <time>2020-07-11T08:24:25.127Z</time>
      </trkpt>
      <trkpt lat="42.267539" lon="1.686903">
        <ele>1993.81401361937</ele>
        <time>2020-07-11T08:24:41.127Z</time>
      </trkpt>
      <trkpt lat="42.26753" lon="1.68681">
        <ele>1995</ele>
        <time>2020-07-11T08:24:53.127Z</time>
      </trkpt>
      <trkpt lat="42.267543" lon="1.686679">
        <ele>1996</ele>
        <time>2020-07-11T08:25:05.130Z</time>
      </trkpt>
      <trkpt lat="42.267543" lon="1.686484">
        <ele>1998</ele>
        <time>2020-07-11T08:25:17.120Z</time>
      </trkpt>
      <trkpt lat="42.267548" lon="1.686308">
        <ele>2000</ele>
        <time>2020-07-11T08:26:29.124Z</time>
      </trkpt>
      <trkpt lat="42.267633" lon="1.686198">
        <ele>2001.90700680969</ele>
        <time>2020-07-11T08:26:41.127Z</time>
      </trkpt>
      <trkpt lat="42.267662" lon="1.685989">
        <ele>2003</ele>
        <time>2020-07-11T08:26:53.128Z</time>
      </trkpt>
      <trkpt lat="42.267782" lon="1.685944">
        <ele>2004.82200092161</ele>
        <time>2020-07-11T08:27:01.131Z</time>
      </trkpt>
      <trkpt lat="42.267847" lon="1.685832">
        <ele>2005</ele>
        <time>2020-07-11T08:27:13.128Z</time>
      </trkpt>
      <trkpt lat="42.267902" lon="1.685742">
        <ele>2005</ele>
        <time>2020-07-11T08:27:21.228Z</time>
      </trkpt>
      <trkpt lat="42.267946" lon="1.68562">
        <ele>2009</ele>
        <time>2020-07-11T08:28:13.123Z</time>
      </trkpt>
      <trkpt lat="42.268074" lon="1.685638">
        <ele>2013</ele>
        <time>2020-07-11T08:28:25.126Z</time>
      </trkpt>
      <trkpt lat="42.268165" lon="1.685569">
        <ele>2013</ele>
        <time>2020-07-11T08:28:37.127Z</time>
      </trkpt>
      <trkpt lat="42.268275" lon="1.685473">
        <ele>2017</ele>
        <time>2020-07-11T08:28:49.130Z</time>
      </trkpt>
      <trkpt lat="42.268374" lon="1.68549">
        <ele>2018</ele>
        <time>2020-07-11T08:28:57.124Z</time>
      </trkpt>
      <trkpt lat="42.268491" lon="1.68552">
        <ele>2021</ele>
        <time>2020-07-11T08:29:13.129Z</time>
      </trkpt>
      <trkpt lat="42.268513" lon="1.685662">
        <ele>2022</ele>
        <time>2020-07-11T08:29:25.127Z</time>
      </trkpt>
      <trkpt lat="42.268519" lon="1.685815">
        <ele>2023.90700680969</ele>
        <time>2020-07-11T08:29:41.127Z</time>
      </trkpt>
      <trkpt lat="42.26848" lon="1.685886">
        <ele>2024</ele>
        <time>2020-07-11T08:29:49.127Z</time>
      </trkpt>
      <trkpt lat="42.268444" lon="1.685982">
        <ele>2025</ele>
        <time>2020-07-11T08:30:05.127Z</time>
      </trkpt>
      <trkpt lat="42.268418" lon="1.686115">
        <ele>2027.90606777601</ele>
        <time>2020-07-11T08:30:21.127Z</time>
      </trkpt>
      <trkpt lat="42.268438" lon="1.686243">
        <ele>2030</ele>
        <time>2020-07-11T08:30:38.127Z</time>
      </trkpt>
      <trkpt lat="42.268494" lon="1.686381">
        <ele>2034</ele>
        <time>2020-07-11T08:30:54.127Z</time>
      </trkpt>
      <trkpt lat="42.268575" lon="1.686414">
        <ele>2035</ele>
        <time>2020-07-11T08:31:06.127Z</time>
      </trkpt>
      <trkpt lat="42.268692" lon="1.686438">
        <ele>2038</ele>
        <time>2020-07-11T08:31:22.127Z</time>
      </trkpt>
      <trkpt lat="42.268811" lon="1.686421">
        <ele>2039</ele>
        <time>2020-07-11T08:31:34.127Z</time>
      </trkpt>
      <trkpt lat="42.268906" lon="1.686322">
        <ele>2042</ele>
        <time>2020-07-11T08:31:50.127Z</time>
      </trkpt>
      <trkpt lat="42.268971" lon="1.686214">
        <ele>2044</ele>
        <time>2020-07-11T08:32:02.127Z</time>
      </trkpt>
      <trkpt lat="42.269016" lon="1.686138">
        <ele>2046</ele>
        <time>2020-07-11T08:32:10.127Z</time>
      </trkpt>
      <trkpt lat="42.269064" lon="1.686061">
        <ele>2046</ele>
        <time>2020-07-11T08:32:18.127Z</time>
      </trkpt>
      <trkpt lat="42.269104" lon="1.686014">
        <ele>2049</ele>
        <time>2020-07-11T08:32:30.127Z</time>
      </trkpt>
      <trkpt lat="42.269142" lon="1.686121">
        <ele>2051</ele>
        <time>2020-07-11T08:32:46.127Z</time>
      </trkpt>
      <trkpt lat="42.269147" lon="1.686218">
        <ele>2052</ele>
        <time>2020-07-11T08:32:54.127Z</time>
      </trkpt>
      <trkpt lat="42.269164" lon="1.686339">
        <ele>2054</ele>
        <time>2020-07-11T08:33:11.127Z</time>
      </trkpt>
      <trkpt lat="42.269174" lon="1.686438">
        <ele>2054</ele>
        <time>2020-07-11T08:33:19.127Z</time>
      </trkpt>
      <trkpt lat="42.269178" lon="1.686535">
        <ele>2056</ele>
        <time>2020-07-11T08:33:27.127Z</time>
      </trkpt>
      <trkpt lat="42.269174" lon="1.686644">
        <ele>2057</ele>
        <time>2020-07-11T08:33:35.127Z</time>
      </trkpt>
      <trkpt lat="42.269185" lon="1.686802">
        <ele>2059</ele>
        <time>2020-07-11T08:33:47.127Z</time>
      </trkpt>
      <trkpt lat="42.269194" lon="1.686953">
        <ele>2059</ele>
        <time>2020-07-11T08:33:59.127Z</time>
      </trkpt>
      <trkpt lat="42.269199" lon="1.687048">
        <ele>2062</ele>
        <time>2020-07-11T08:34:07.127Z</time>
      </trkpt>
      <trkpt lat="42.269203" lon="1.687191">
        <ele>2062</ele>
        <time>2020-07-11T08:34:19.127Z</time>
      </trkpt>
      <trkpt lat="42.269183" lon="1.687334">
        <ele>2066.81401361937</ele>
        <time>2020-07-11T08:34:31.127Z</time>
      </trkpt>
      <trkpt lat="42.269173" lon="1.687496">
        <ele>2066</ele>
        <time>2020-07-11T08:34:43.127Z</time>
      </trkpt>
      <trkpt lat="42.269205" lon="1.687645">
        <ele>2068</ele>
        <time>2020-07-11T08:34:55.127Z</time>
      </trkpt>
      <trkpt lat="42.269284" lon="1.687769">
        <ele>2068</ele>
        <time>2020-07-11T08:35:07.127Z</time>
      </trkpt>
      <trkpt lat="42.26937" lon="1.687857">
        <ele>2070</ele>
        <time>2020-07-11T08:35:19.127Z</time>
      </trkpt>
      <trkpt lat="42.269422" lon="1.687919">
        <ele>2071</ele>
        <time>2020-07-11T08:35:27.127Z</time>
      </trkpt>
      <trkpt lat="42.269492" lon="1.687905">
        <ele>2072</ele>
        <time>2020-07-11T08:35:35.127Z</time>
      </trkpt>
      <trkpt lat="42.269564" lon="1.687796">
        <ele>2073</ele>
        <time>2020-07-11T08:35:47.127Z</time>
      </trkpt>
      <trkpt lat="42.269636" lon="1.687692">
        <ele>2074</ele>
        <time>2020-07-11T08:35:59.127Z</time>
      </trkpt>
      <trkpt lat="42.269668" lon="1.687611">
        <ele>2076</ele>
        <time>2020-07-11T08:36:07.127Z</time>
      </trkpt>
      <trkpt lat="42.269704" lon="1.687523">
        <ele>2077</ele>
        <time>2020-07-11T08:36:15.127Z</time>
      </trkpt>
      <trkpt lat="42.269736" lon="1.687434">
        <ele>2080</ele>
        <time>2020-07-11T08:36:23.127Z</time>
      </trkpt>
      <trkpt lat="42.269776" lon="1.687289">
        <ele>2080</ele>
        <time>2020-07-11T08:36:35.127Z</time>
      </trkpt>
      <trkpt lat="42.26982" lon="1.687141">
        <ele>2082</ele>
        <time>2020-07-11T08:36:47.127Z</time>
      </trkpt>
      <trkpt lat="42.269847" lon="1.687059">
        <ele>2083</ele>
        <time>2020-07-11T08:36:55.127Z</time>
      </trkpt>
      <trkpt lat="42.269898" lon="1.686945">
        <ele>2085</ele>
        <time>2020-07-11T08:37:07.127Z</time>
      </trkpt>
      <trkpt lat="42.26992" lon="1.686851">
        <ele>2086</ele>
        <time>2020-07-11T08:37:15.127Z</time>
      </trkpt>
      <trkpt lat="42.269935" lon="1.686765">
        <ele>2088</ele>
        <time>2020-07-11T08:37:23.127Z</time>
      </trkpt>
      <trkpt lat="42.269967" lon="1.686678">
        <ele>2089.81401361937</ele>
        <time>2020-07-11T08:37:31.127Z</time>
      </trkpt>
      <trkpt lat="42.26998" lon="1.686559">
        <ele>2090</ele>
        <time>2020-07-11T08:37:43.127Z</time>
      </trkpt>
      <trkpt lat="42.269982" lon="1.686454">
        <ele>2090.90700680969</ele>
        <time>2020-07-11T08:37:51.127Z</time>
      </trkpt>
      <trkpt lat="42.270007" lon="1.686347">
        <ele>2091</ele>
        <time>2020-07-11T08:37:59.127Z</time>
      </trkpt>
      <trkpt lat="42.270037" lon="1.68625">
        <ele>2095</ele>
        <time>2020-07-11T08:38:07.127Z</time>
      </trkpt>
      <trkpt lat="42.270063" lon="1.686182">
        <ele>2095</ele>
        <time>2020-07-11T08:38:15.127Z</time>
      </trkpt>
      <trkpt lat="42.270087" lon="1.686103">
        <ele>2096</ele>
        <time>2020-07-11T08:38:34.127Z</time>
      </trkpt>
      <trkpt lat="42.270111" lon="1.686006">
        <ele>2098</ele>
        <time>2020-07-11T08:38:43.127Z</time>
      </trkpt>
      <trkpt lat="42.270129" lon="1.685919">
        <ele>2099.90700680969</ele>
        <time>2020-07-11T08:38:51.127Z</time>
      </trkpt>
      <trkpt lat="42.270171" lon="1.685803">
        <ele>2101</ele>
        <time>2020-07-11T08:39:07.127Z</time>
      </trkpt>
      <trkpt lat="42.270152" lon="1.68576">
        <ele>2101</ele>
        <time>2020-07-11T08:39:37.127Z</time>
      </trkpt>
      <trkpt lat="42.270218" lon="1.685704">
        <ele>2102</ele>
        <time>2020-07-11T08:42:26.233Z</time>
      </trkpt>
      <trkpt lat="42.270176" lon="1.685609">
        <ele>2102</ele>
        <time>2020-07-11T08:42:48.134Z</time>
      </trkpt>
      <trkpt lat="42.270146" lon="1.685486">
        <ele>2103</ele>
        <time>2020-07-11T08:43:00.127Z</time>
      </trkpt>
      <trkpt lat="42.270116" lon="1.685377">
        <ele>2104</ele>
        <time>2020-07-11T08:43:08.127Z</time>
      </trkpt>
      <trkpt lat="42.270107" lon="1.685297">
        <ele>2105</ele>
        <time>2020-07-11T08:43:14.133Z</time>
      </trkpt>
      <trkpt lat="42.270103" lon="1.685158">
        <ele>2106</ele>
        <time>2020-07-11T08:43:23.123Z</time>
      </trkpt>
      <trkpt lat="42.270146" lon="1.685">
        <ele>2108</ele>
        <time>2020-07-11T08:43:33.127Z</time>
      </trkpt>
      <trkpt lat="42.270194" lon="1.684877">
        <ele>2109</ele>
        <time>2020-07-11T08:43:42.127Z</time>
      </trkpt>
      <trkpt lat="42.270242" lon="1.684757">
        <ele>2110</ele>
        <time>2020-07-11T08:43:54.127Z</time>
      </trkpt>
      <trkpt lat="42.270281" lon="1.684628">
        <ele>2111</ele>
        <time>2020-07-11T08:44:04.127Z</time>
      </trkpt>
      <trkpt lat="42.270335" lon="1.684525">
        <ele>2112</ele>
        <time>2020-07-11T08:44:13.127Z</time>
      </trkpt>
      <trkpt lat="42.270406" lon="1.684419">
        <ele>2113</ele>
        <time>2020-07-11T08:44:23.132Z</time>
      </trkpt>
      <trkpt lat="42.270468" lon="1.684308">
        <ele>2113</ele>
        <time>2020-07-11T08:44:34.127Z</time>
      </trkpt>
      <trkpt lat="42.270551" lon="1.684247">
        <ele>2114</ele>
        <time>2020-07-11T08:44:42.127Z</time>
      </trkpt>
      <trkpt lat="42.270631" lon="1.684149">
        <ele>2115</ele>
        <time>2020-07-11T08:44:55.125Z</time>
      </trkpt>
      <trkpt lat="42.270672" lon="1.684029">
        <ele>2118</ele>
        <time>2020-07-11T08:45:06.127Z</time>
      </trkpt>
      <trkpt lat="42.270696" lon="1.683886">
        <ele>2119</ele>
        <time>2020-07-11T08:45:23.127Z</time>
      </trkpt>
      <trkpt lat="42.270758" lon="1.683773">
        <ele>2119</ele>
        <time>2020-07-11T08:45:32.127Z</time>
      </trkpt>
      <trkpt lat="42.270821" lon="1.683664">
        <ele>2120.81401361937</ele>
        <time>2020-07-11T08:45:41.127Z</time>
      </trkpt>
      <trkpt lat="42.270885" lon="1.683555">
        <ele>2122.90500998413</ele>
        <time>2020-07-11T08:45:51.125Z</time>
      </trkpt>
      <trkpt lat="42.270936" lon="1.683437">
        <ele>2123</ele>
        <time>2020-07-11T08:46:02.127Z</time>
      </trkpt>
      <trkpt lat="42.270984" lon="1.683331">
        <ele>2125</ele>
        <time>2020-07-11T08:46:14.127Z</time>
      </trkpt>
      <trkpt lat="42.271044" lon="1.683217">
        <ele>2126</ele>
        <time>2020-07-11T08:46:24.120Z</time>
      </trkpt>
      <trkpt lat="42.271074" lon="1.683088">
        <ele>2128</ele>
        <time>2020-07-11T08:46:34.127Z</time>
      </trkpt>
      <trkpt lat="42.271116" lon="1.682981">
        <ele>2129</ele>
        <time>2020-07-11T08:46:44.131Z</time>
      </trkpt>
      <trkpt lat="42.271156" lon="1.68288">
        <ele>2129</ele>
        <time>2020-07-11T08:46:55.122Z</time>
      </trkpt>
      <trkpt lat="42.271169" lon="1.682774">
        <ele>2131</ele>
        <time>2020-07-11T08:47:04.127Z</time>
      </trkpt>
      <trkpt lat="42.271183" lon="1.682672">
        <ele>2134</ele>
        <time>2020-07-11T08:47:14.133Z</time>
      </trkpt>
      <trkpt lat="42.271266" lon="1.682584">
        <ele>2135</ele>
        <time>2020-07-11T08:47:25.134Z</time>
      </trkpt>
      <trkpt lat="42.271295" lon="1.682446">
        <ele>2135</ele>
        <time>2020-07-11T08:47:38.127Z</time>
      </trkpt>
      <trkpt lat="42.271335" lon="1.682318">
        <ele>2140</ele>
        <time>2020-07-11T08:47:54.122Z</time>
      </trkpt>
      <trkpt lat="42.271403" lon="1.682197">
        <ele>2141</ele>
        <time>2020-07-11T08:48:14.133Z</time>
      </trkpt>
      <trkpt lat="42.271433" lon="1.682101">
        <ele>2144</ele>
        <time>2020-07-11T08:48:26.233Z</time>
      </trkpt>
      <trkpt lat="42.271506" lon="1.681982">
        <ele>2144</ele>
        <time>2020-07-11T08:48:38.127Z</time>
      </trkpt>
      <trkpt lat="42.271592" lon="1.681858">
        <ele>2148</ele>
        <time>2020-07-11T08:49:06.126Z</time>
      </trkpt>
      <trkpt lat="42.271644" lon="1.681722">
        <ele>2151</ele>
        <time>2020-07-11T08:49:18.118Z</time>
      </trkpt>
      <trkpt lat="42.271709" lon="1.681634">
        <ele>2152</ele>
        <time>2020-07-11T08:49:26.237Z</time>
      </trkpt>
      <trkpt lat="42.271654" lon="1.681534">
        <ele>2154</ele>
        <time>2020-07-11T08:49:34.127Z</time>
      </trkpt>
      <trkpt lat="42.271744" lon="1.681516">
        <ele>2155</ele>
        <time>2020-07-11T08:51:02.127Z</time>
      </trkpt>
      <trkpt lat="42.271796" lon="1.681614">
        <ele>2157</ele>
        <time>2020-07-11T08:51:14.126Z</time>
      </trkpt>
      <trkpt lat="42.271849" lon="1.681728">
        <ele>2160</ele>
        <time>2020-07-11T08:51:26.233Z</time>
      </trkpt>
      <trkpt lat="42.27187" lon="1.681864">
        <ele>2160</ele>
        <time>2020-07-11T08:52:18.122Z</time>
      </trkpt>
      <trkpt lat="42.271969" lon="1.68198">
        <ele>2161</ele>
        <time>2020-07-11T08:52:30.119Z</time>
      </trkpt>
      <trkpt lat="42.272027" lon="1.682124">
        <ele>2163</ele>
        <time>2020-07-11T08:52:46.126Z</time>
      </trkpt>
      <trkpt lat="42.272085" lon="1.682244">
        <ele>2166</ele>
        <time>2020-07-11T08:52:58.127Z</time>
      </trkpt>
      <trkpt lat="42.27212" lon="1.682354">
        <ele>2167</ele>
        <time>2020-07-11T08:53:10.127Z</time>
      </trkpt>
      <trkpt lat="42.272116" lon="1.682495">
        <ele>2169.91198832655</ele>
        <time>2020-07-11T08:53:26.132Z</time>
      </trkpt>
      <trkpt lat="42.272142" lon="1.682671">
        <ele>2171</ele>
        <time>2020-07-11T08:53:42.127Z</time>
      </trkpt>
      <trkpt lat="42.272181" lon="1.682859">
        <ele>2172</ele>
        <time>2020-07-11T08:53:58.128Z</time>
      </trkpt>
      <trkpt lat="42.272228" lon="1.683012">
        <ele>2175</ele>
        <time>2020-07-11T08:54:10.120Z</time>
      </trkpt>
      <trkpt lat="42.272243" lon="1.683147">
        <ele>2177</ele>
        <time>2020-07-11T08:54:22.134Z</time>
      </trkpt>
      <trkpt lat="42.272325" lon="1.683301">
        <ele>2177</ele>
        <time>2020-07-11T08:54:30.130Z</time>
      </trkpt>
      <trkpt lat="42.272409" lon="1.683432">
        <ele>2178</ele>
        <time>2020-07-11T08:54:46.118Z</time>
      </trkpt>
      <trkpt lat="42.272454" lon="1.683557">
        <ele>2180</ele>
        <time>2020-07-11T08:54:54.134Z</time>
      </trkpt>
      <trkpt lat="42.27249" lon="1.683747">
        <ele>2182</ele>
        <time>2020-07-11T08:55:06.129Z</time>
      </trkpt>
      <trkpt lat="42.272475" lon="1.683902">
        <ele>2182</ele>
        <time>2020-07-11T08:55:18.124Z</time>
      </trkpt>
      <trkpt lat="42.272499" lon="1.684083">
        <ele>2185</ele>
        <time>2020-07-11T08:55:34.125Z</time>
      </trkpt>
      <trkpt lat="42.272519" lon="1.684227">
        <ele>2186</ele>
        <time>2020-07-11T08:55:46.122Z</time>
      </trkpt>
      <trkpt lat="42.272553" lon="1.684378">
        <ele>2187</ele>
        <time>2020-07-11T08:55:58.131Z</time>
      </trkpt>
      <trkpt lat="42.272607" lon="1.684492">
        <ele>2188</ele>
        <time>2020-07-11T08:56:10.132Z</time>
      </trkpt>
      <trkpt lat="42.272632" lon="1.684645">
        <ele>2190</ele>
        <time>2020-07-11T08:56:18.128Z</time>
      </trkpt>
      <trkpt lat="42.272699" lon="1.684803">
        <ele>2192</ele>
        <time>2020-07-11T08:56:38.122Z</time>
      </trkpt>
      <trkpt lat="42.272836" lon="1.684822">
        <ele>2198</ele>
        <time>2020-07-11T08:57:22.125Z</time>
      </trkpt>
      <trkpt lat="42.272899" lon="1.684675">
        <ele>2200</ele>
        <time>2020-07-11T08:57:38.126Z</time>
      </trkpt>
      <trkpt lat="42.272937" lon="1.684537">
        <ele>2203</ele>
        <time>2020-07-11T08:57:50.123Z</time>
      </trkpt>
      <trkpt lat="42.273015" lon="1.684428">
        <ele>2205</ele>
        <time>2020-07-11T08:58:02.121Z</time>
      </trkpt>
      <trkpt lat="42.273103" lon="1.684353">
        <ele>2206</ele>
        <time>2020-07-11T08:58:10.120Z</time>
      </trkpt>
      <trkpt lat="42.273159" lon="1.684226">
        <ele>2207</ele>
        <time>2020-07-11T08:58:22.123Z</time>
      </trkpt>
      <trkpt lat="42.273183" lon="1.684072">
        <ele>2209</ele>
        <time>2020-07-11T08:59:34.132Z</time>
      </trkpt>
      <trkpt lat="42.273242" lon="1.68395">
        <ele>2210</ele>
        <time>2020-07-11T08:59:50.128Z</time>
      </trkpt>
      <trkpt lat="42.273321" lon="1.683867">
        <ele>2213</ele>
        <time>2020-07-11T08:59:58.127Z</time>
      </trkpt>
      <trkpt lat="42.273437" lon="1.683872">
        <ele>2215</ele>
        <time>2020-07-11T09:00:14.125Z</time>
      </trkpt>
      <trkpt lat="42.273511" lon="1.683994">
        <ele>2217</ele>
        <time>2020-07-11T09:00:30.127Z</time>
      </trkpt>
      <trkpt lat="42.273573" lon="1.684174">
        <ele>2220</ele>
        <time>2020-07-11T09:00:42.128Z</time>
      </trkpt>
      <trkpt lat="42.27363" lon="1.68435">
        <ele>2220</ele>
        <time>2020-07-11T09:00:54.227Z</time>
      </trkpt>
      <trkpt lat="42.273632" lon="1.68449">
        <ele>2222.90400122878</ele>
        <time>2020-07-11T09:01:06.124Z</time>
      </trkpt>
      <trkpt lat="42.273637" lon="1.684653">
        <ele>2224</ele>
        <time>2020-07-11T09:01:18.129Z</time>
      </trkpt>
      <trkpt lat="42.273624" lon="1.68479">
        <ele>2226</ele>
        <time>2020-07-11T09:01:33.122Z</time>
      </trkpt>
      <trkpt lat="42.273668" lon="1.684911">
        <ele>2229</ele>
        <time>2020-07-11T09:01:46.131Z</time>
      </trkpt>
      <trkpt lat="42.273756" lon="1.68502">
        <ele>2230</ele>
        <time>2020-07-11T09:01:52.128Z</time>
      </trkpt>
      <trkpt lat="42.273714" lon="1.685144">
        <ele>2231</ele>
        <time>2020-07-11T09:02:05.124Z</time>
      </trkpt>
      <trkpt lat="42.273769" lon="1.685265">
        <ele>2233</ele>
        <time>2020-07-11T09:02:22.134Z</time>
      </trkpt>
      <trkpt lat="42.273798" lon="1.685398">
        <ele>2235</ele>
        <time>2020-07-11T09:02:35.122Z</time>
      </trkpt>
      <trkpt lat="42.273806" lon="1.685537">
        <ele>2238.8240233475</ele>
        <time>2020-07-11T09:02:51.132Z</time>
      </trkpt>
      <trkpt lat="42.273843" lon="1.685674">
        <ele>2240</ele>
        <time>2020-07-11T09:03:03.121Z</time>
      </trkpt>
      <trkpt lat="42.273885" lon="1.685798">
        <ele>2241</ele>
        <time>2020-07-11T09:03:16.133Z</time>
      </trkpt>
      <trkpt lat="42.273895" lon="1.685932">
        <ele>2242</ele>
        <time>2020-07-11T09:03:28.121Z</time>
      </trkpt>
      <trkpt lat="42.273897" lon="1.686072">
        <ele>2245</ele>
        <time>2020-07-11T09:03:42.122Z</time>
      </trkpt>
      <trkpt lat="42.27396" lon="1.686175">
        <ele>2246.90900363525</ele>
        <time>2020-07-11T09:03:51.129Z</time>
      </trkpt>
      <trkpt lat="42.274028" lon="1.686282">
        <ele>2248</ele>
        <time>2020-07-11T09:04:09.122Z</time>
      </trkpt>
      <trkpt lat="42.274132" lon="1.686291">
        <ele>2248</ele>
        <time>2020-07-11T09:04:17.130Z</time>
      </trkpt>
      <trkpt lat="42.274219" lon="1.686359">
        <ele>2251</ele>
        <time>2020-07-11T09:04:29.131Z</time>
      </trkpt>
      <trkpt lat="42.274309" lon="1.686419">
        <ele>2252.82602017306</ele>
        <time>2020-07-11T09:04:41.133Z</time>
      </trkpt>
      <trkpt lat="42.274389" lon="1.686513">
        <ele>2255</ele>
        <time>2020-07-11T09:04:55.118Z</time>
      </trkpt>
      <trkpt lat="42.274461" lon="1.686615">
        <ele>2256</ele>
        <time>2020-07-11T09:05:06.124Z</time>
      </trkpt>
      <trkpt lat="42.27453" lon="1.686737">
        <ele>2258</ele>
        <time>2020-07-11T09:05:20.124Z</time>
      </trkpt>
      <trkpt lat="42.27464" lon="1.686773">
        <ele>2261</ele>
        <time>2020-07-11T09:05:34.128Z</time>
      </trkpt>
      <trkpt lat="42.274732" lon="1.686858">
        <ele>2263</ele>
        <time>2020-07-11T09:05:54.134Z</time>
      </trkpt>
      <trkpt lat="42.274797" lon="1.686992">
        <ele>2267</ele>
        <time>2020-07-11T09:06:14.126Z</time>
      </trkpt>
      <trkpt lat="42.274872" lon="1.687108">
        <ele>2269</ele>
        <time>2020-07-11T09:06:26.127Z</time>
      </trkpt>
      <trkpt lat="42.274894" lon="1.68727">
        <ele>2269</ele>
        <time>2020-07-11T09:06:38.129Z</time>
      </trkpt>
      <trkpt lat="42.275004" lon="1.68734">
        <ele>2271</ele>
        <time>2020-07-11T09:06:50.127Z</time>
      </trkpt>
      <trkpt lat="42.275094" lon="1.687448">
        <ele>2273</ele>
        <time>2020-07-11T09:07:02.130Z</time>
      </trkpt>
      <trkpt lat="42.27511" lon="1.687594">
        <ele>2273</ele>
        <time>2020-07-11T09:07:14.125Z</time>
      </trkpt>
      <trkpt lat="42.275208" lon="1.68768">
        <ele>2274</ele>
        <time>2020-07-11T09:07:26.122Z</time>
      </trkpt>
      <trkpt lat="42.275279" lon="1.687798">
        <ele>2279</ele>
        <time>2020-07-11T09:07:42.122Z</time>
      </trkpt>
      <trkpt lat="42.275339" lon="1.687929">
        <ele>2282</ele>
        <time>2020-07-11T09:08:02.124Z</time>
      </trkpt>
      <trkpt lat="42.27542" lon="1.688013">
        <ele>2282</ele>
        <time>2020-07-11T09:08:18.127Z</time>
      </trkpt>
      <trkpt lat="42.275406" lon="1.688181">
        <ele>2284</ele>
        <time>2020-07-11T09:08:42.127Z</time>
      </trkpt>
      <trkpt lat="42.275356" lon="1.688341">
        <ele>2285</ele>
        <time>2020-07-11T09:08:54.130Z</time>
      </trkpt>
      <trkpt lat="42.275365" lon="1.688495">
        <ele>2285</ele>
        <time>2020-07-11T09:09:06.128Z</time>
      </trkpt>
      <trkpt lat="42.27537" lon="1.688645">
        <ele>2286</ele>
        <time>2020-07-11T09:09:22.129Z</time>
      </trkpt>
      <trkpt lat="42.275426" lon="1.688789">
        <ele>2287</ele>
        <time>2020-07-11T09:09:38.127Z</time>
      </trkpt>
      <trkpt lat="42.275391" lon="1.688971">
        <ele>2288</ele>
        <time>2020-07-11T09:09:50.131Z</time>
      </trkpt>
      <trkpt lat="42.275381" lon="1.689165">
        <ele>2289</ele>
        <time>2020-07-11T09:10:02.127Z</time>
      </trkpt>
      <trkpt lat="42.275405" lon="1.689303">
        <ele>2289</ele>
        <time>2020-07-11T09:10:10.125Z</time>
      </trkpt>
      <trkpt lat="42.275416" lon="1.689446">
        <ele>2289</ele>
        <time>2020-07-11T09:10:18.124Z</time>
      </trkpt>
      <trkpt lat="42.275448" lon="1.689577">
        <ele>2290</ele>
        <time>2020-07-11T09:10:26.123Z</time>
      </trkpt>
      <trkpt lat="42.275387" lon="1.689729">
        <ele>2291</ele>
        <time>2020-07-11T09:10:42.121Z</time>
      </trkpt>
      <trkpt lat="42.275334" lon="1.689949">
        <ele>2291</ele>
        <time>2020-07-11T09:10:54.126Z</time>
      </trkpt>
      <trkpt lat="42.275303" lon="1.6901">
        <ele>2292</ele>
        <time>2020-07-11T09:11:06.129Z</time>
      </trkpt>
      <trkpt lat="42.275257" lon="1.690248">
        <ele>2294</ele>
        <time>2020-07-11T09:11:18.120Z</time>
      </trkpt>
      <trkpt lat="42.275237" lon="1.690406">
        <ele>2295</ele>
        <time>2020-07-11T09:11:34.119Z</time>
      </trkpt>
      <trkpt lat="42.275232" lon="1.690546">
        <ele>2296</ele>
        <time>2020-07-11T09:11:46.128Z</time>
      </trkpt>
      <trkpt lat="42.275241" lon="1.690702">
        <ele>2298</ele>
        <time>2020-07-11T09:11:58.128Z</time>
      </trkpt>
      <trkpt lat="42.275237" lon="1.69085">
        <ele>2299</ele>
        <time>2020-07-11T09:12:10.132Z</time>
      </trkpt>
      <trkpt lat="42.27527" lon="1.691023">
        <ele>2302</ele>
        <time>2020-07-11T09:12:22.132Z</time>
      </trkpt>
      <trkpt lat="42.275323" lon="1.691183">
        <ele>2303</ele>
        <time>2020-07-11T09:12:34.124Z</time>
      </trkpt>
      <trkpt lat="42.275338" lon="1.691354">
        <ele>2305</ele>
        <time>2020-07-11T09:12:50.127Z</time>
      </trkpt>
      <trkpt lat="42.275418" lon="1.691492">
        <ele>2307</ele>
        <time>2020-07-11T09:13:02.122Z</time>
      </trkpt>
      <trkpt lat="42.275418" lon="1.691641">
        <ele>2308</ele>
        <time>2020-07-11T09:13:14.119Z</time>
      </trkpt>
      <trkpt lat="42.275434" lon="1.691803">
        <ele>2309</ele>
        <time>2020-07-11T09:13:30.130Z</time>
      </trkpt>
      <trkpt lat="42.275462" lon="1.691942">
        <ele>2311</ele>
        <time>2020-07-11T09:13:42.129Z</time>
      </trkpt>
      <trkpt lat="42.275496" lon="1.692104">
        <ele>2311</ele>
        <time>2020-07-11T09:13:54.132Z</time>
      </trkpt>
      <trkpt lat="42.275464" lon="1.692262">
        <ele>2314</ele>
        <time>2020-07-11T09:14:06.118Z</time>
      </trkpt>
      <trkpt lat="42.275471" lon="1.692424">
        <ele>2315</ele>
        <time>2020-07-11T09:14:18.134Z</time>
      </trkpt>
      <trkpt lat="42.275456" lon="1.692599">
        <ele>2315</ele>
        <time>2020-07-11T09:14:26.129Z</time>
      </trkpt>
      <trkpt lat="42.275474" lon="1.69278">
        <ele>2317</ele>
        <time>2020-07-11T09:14:38.121Z</time>
      </trkpt>
      <trkpt lat="42.275482" lon="1.692915">
        <ele>2317</ele>
        <time>2020-07-11T09:14:50.121Z</time>
      </trkpt>
      <trkpt lat="42.275513" lon="1.693051">
        <ele>2318</ele>
        <time>2020-07-11T09:14:58.122Z</time>
      </trkpt>
      <trkpt lat="42.275527" lon="1.693233">
        <ele>2321</ele>
        <time>2020-07-11T09:15:14.123Z</time>
      </trkpt>
      <trkpt lat="42.275519" lon="1.693402">
        <ele>2322</ele>
        <time>2020-07-11T09:15:30.127Z</time>
      </trkpt>
      <trkpt lat="42.275555" lon="1.693579">
        <ele>2325</ele>
        <time>2020-07-11T09:15:42.121Z</time>
      </trkpt>
      <trkpt lat="42.275608" lon="1.693713">
        <ele>2326.904999616</ele>
        <time>2020-07-11T09:15:54.125Z</time>
      </trkpt>
      <trkpt lat="42.275628" lon="1.693862">
        <ele>2328</ele>
        <time>2020-07-11T09:16:06.119Z</time>
      </trkpt>
      <trkpt lat="42.275592" lon="1.694001">
        <ele>2329</ele>
        <time>2020-07-11T09:16:18.122Z</time>
      </trkpt>
      <trkpt lat="42.275628" lon="1.694187">
        <ele>2330</ele>
        <time>2020-07-11T09:16:30.124Z</time>
      </trkpt>
      <trkpt lat="42.275631" lon="1.694376">
        <ele>2333</ele>
        <time>2020-07-11T09:16:46.128Z</time>
      </trkpt>
      <trkpt lat="42.275652" lon="1.694532">
        <ele>2335</ele>
        <time>2020-07-11T09:17:02.122Z</time>
      </trkpt>
      <trkpt lat="42.275699" lon="1.694677">
        <ele>2335</ele>
        <time>2020-07-11T09:17:14.125Z</time>
      </trkpt>
      <trkpt lat="42.275662" lon="1.694845">
        <ele>2338.80999923201</ele>
        <time>2020-07-11T09:17:26.125Z</time>
      </trkpt>
      <trkpt lat="42.275718" lon="1.694976">
        <ele>2341</ele>
        <time>2020-07-11T09:17:38.125Z</time>
      </trkpt>
      <trkpt lat="42.27579" lon="1.695114">
        <ele>2343</ele>
        <time>2020-07-11T09:17:50.123Z</time>
      </trkpt>
      <trkpt lat="42.275844" lon="1.695261">
        <ele>2345.90400122878</ele>
        <time>2020-07-11T09:18:06.124Z</time>
      </trkpt>
      <trkpt lat="42.275801" lon="1.695411">
        <ele>2348</ele>
        <time>2020-07-11T09:18:22.125Z</time>
      </trkpt>
      <trkpt lat="42.275866" lon="1.695537">
        <ele>2349</ele>
        <time>2020-07-11T09:18:38.122Z</time>
      </trkpt>
      <trkpt lat="42.275892" lon="1.695672">
        <ele>2354</ele>
        <time>2020-07-11T09:18:58.124Z</time>
      </trkpt>
      <trkpt lat="42.275982" lon="1.695781">
        <ele>2355</ele>
        <time>2020-07-11T09:19:14.124Z</time>
      </trkpt>
      <trkpt lat="42.276004" lon="1.695933">
        <ele>2358</ele>
        <time>2020-07-11T09:19:26.127Z</time>
      </trkpt>
      <trkpt lat="42.27603" lon="1.696081">
        <ele>2360</ele>
        <time>2020-07-11T09:19:42.127Z</time>
      </trkpt>
      <trkpt lat="42.276109" lon="1.696179">
        <ele>2362</ele>
        <time>2020-07-11T09:19:54.124Z</time>
      </trkpt>
      <trkpt lat="42.276145" lon="1.696338">
        <ele>2365</ele>
        <time>2020-07-11T09:20:10.125Z</time>
      </trkpt>
      <trkpt lat="42.276161" lon="1.696474">
        <ele>2369</ele>
        <time>2020-07-11T09:20:38.124Z</time>
      </trkpt>
      <trkpt lat="42.276174" lon="1.696636">
        <ele>2372</ele>
        <time>2020-07-11T09:20:54.124Z</time>
      </trkpt>
      <trkpt lat="42.276276" lon="1.69672">
        <ele>2374</ele>
        <time>2020-07-11T09:21:02.131Z</time>
      </trkpt>
      <trkpt lat="42.276302" lon="1.696877">
        <ele>2376</ele>
        <time>2020-07-11T09:21:18.126Z</time>
      </trkpt>
      <trkpt lat="42.276376" lon="1.69701">
        <ele>2381</ele>
        <time>2020-07-11T09:21:42.128Z</time>
      </trkpt>
      <trkpt lat="42.276457" lon="1.697094">
        <ele>2382</ele>
        <time>2020-07-11T09:21:58.121Z</time>
      </trkpt>
      <trkpt lat="42.27646" lon="1.697231">
        <ele>2386</ele>
        <time>2020-07-11T09:22:26.118Z</time>
      </trkpt>
      <trkpt lat="42.276493" lon="1.697378">
        <ele>2387</ele>
        <time>2020-07-11T09:23:06.128Z</time>
      </trkpt>
      <trkpt lat="42.27658" lon="1.697443">
        <ele>2393</ele>
        <time>2020-07-11T09:23:30.132Z</time>
      </trkpt>
      <trkpt lat="42.276645" lon="1.697583">
        <ele>2397</ele>
        <time>2020-07-11T09:23:54.119Z</time>
      </trkpt>
      <trkpt lat="42.276732" lon="1.697662">
        <ele>2399</ele>
        <time>2020-07-11T09:24:18.119Z</time>
      </trkpt>
      <trkpt lat="42.276852" lon="1.697717">
        <ele>2407</ele>
        <time>2020-07-11T09:25:05.127Z</time>
      </trkpt>
      <trkpt lat="42.27693" lon="1.697703">
        <ele>2410</ele>
        <time>2020-07-11T09:25:22.127Z</time>
      </trkpt>
      <trkpt lat="42.276973" lon="1.697676">
        <ele>2410</ele>
        <time>2020-07-11T09:25:33.127Z</time>
      </trkpt>
      <trkpt lat="42.277013" lon="1.697685">
        <ele>2410</ele>
        <time>2020-07-11T09:26:28.127Z</time>
      </trkpt>
      <trkpt lat="42.277038" lon="1.697756">
        <ele>2411</ele>
        <time>2020-07-11T09:26:53.127Z</time>
      </trkpt>
      <trkpt lat="42.277073" lon="1.697869">
        <ele>2411</ele>
        <time>2020-07-11T09:27:01.127Z</time>
      </trkpt>
      <trkpt lat="42.277089" lon="1.69799">
        <ele>2411</ele>
        <time>2020-07-11T09:27:09.127Z</time>
      </trkpt>
      <trkpt lat="42.277086" lon="1.698105">
        <ele>2411</ele>
        <time>2020-07-11T09:27:18.127Z</time>
      </trkpt>
      <trkpt lat="42.27708" lon="1.698208">
        <ele>2413</ele>
        <time>2020-07-11T09:27:27.127Z</time>
      </trkpt>
      <trkpt lat="42.277082" lon="1.698325">
        <ele>2414</ele>
        <time>2020-07-11T09:27:37.127Z</time>
      </trkpt>
      <trkpt lat="42.277064" lon="1.698446">
        <ele>2416</ele>
        <time>2020-07-11T09:27:49.127Z</time>
      </trkpt>
      <trkpt lat="42.277065" lon="1.698562">
        <ele>2417</ele>
        <time>2020-07-11T09:28:01.127Z</time>
      </trkpt>
      <trkpt lat="42.277114" lon="1.698654">
        <ele>2417</ele>
        <time>2020-07-11T09:28:11.127Z</time>
      </trkpt>
      <trkpt lat="42.277157" lon="1.698727">
        <ele>2417</ele>
        <time>2020-07-11T09:28:19.127Z</time>
      </trkpt>
      <trkpt lat="42.277185" lon="1.6988">
        <ele>2414.09300360955</ele>
        <time>2020-07-11T09:28:26.127Z</time>
      </trkpt>
      <trkpt lat="42.277195" lon="1.698917">
        <ele>2416</ele>
        <time>2020-07-11T09:28:38.127Z</time>
      </trkpt>
      <trkpt lat="42.277214" lon="1.699001">
        <ele>2416</ele>
        <time>2020-07-11T09:28:45.127Z</time>
      </trkpt>
      <trkpt lat="42.277217" lon="1.699096">
        <ele>2417</ele>
        <time>2020-07-11T09:28:52.127Z</time>
      </trkpt>
      <trkpt lat="42.277219" lon="1.699172">
        <ele>2417.90700680969</ele>
        <time>2020-07-11T09:28:59.127Z</time>
      </trkpt>
      <trkpt lat="42.277269" lon="1.699314">
        <ele>2419</ele>
        <time>2020-07-11T09:29:30.130Z</time>
      </trkpt>
      <trkpt lat="42.277317" lon="1.699434">
        <ele>2418</ele>
        <time>2020-07-11T09:29:38.123Z</time>
      </trkpt>
      <trkpt lat="42.277218" lon="1.699571">
        <ele>2417</ele>
        <time>2020-07-11T09:30:18.127Z</time>
      </trkpt>
      <trkpt lat="42.277282" lon="1.699741">
        <ele>2417</ele>
        <time>2020-07-11T09:30:26.124Z</time>
      </trkpt>
      <trkpt lat="42.277333" lon="1.699866">
        <ele>2420</ele>
        <time>2020-07-11T09:30:38.132Z</time>
      </trkpt>
      <trkpt lat="42.277325" lon="1.700101">
        <ele>2419</ele>
        <time>2020-07-11T09:30:50.124Z</time>
      </trkpt>
      <trkpt lat="42.277387" lon="1.700274">
        <ele>2420</ele>
        <time>2020-07-11T09:30:58.123Z</time>
      </trkpt>
      <trkpt lat="42.27748" lon="1.70034">
        <ele>2419</ele>
        <time>2020-07-11T09:31:06.122Z</time>
      </trkpt>
      <trkpt lat="42.277552" lon="1.700476">
        <ele>2421</ele>
        <time>2020-07-11T09:31:14.120Z</time>
      </trkpt>
      <trkpt lat="42.277592" lon="1.700605">
        <ele>2421</ele>
        <time>2020-07-11T09:31:22.124Z</time>
      </trkpt>
      <trkpt lat="42.277568" lon="1.700766">
        <ele>2422</ele>
        <time>2020-07-11T09:31:42.122Z</time>
      </trkpt>
      <trkpt lat="42.277618" lon="1.700929">
        <ele>2422</ele>
        <time>2020-07-11T09:31:54.122Z</time>
      </trkpt>
      <trkpt lat="42.277657" lon="1.70108">
        <ele>2420</ele>
        <time>2020-07-11T09:32:06.124Z</time>
      </trkpt>
      <trkpt lat="42.277663" lon="1.701306">
        <ele>2420</ele>
        <time>2020-07-11T09:32:14.121Z</time>
      </trkpt>
      <trkpt lat="42.27767" lon="1.701451">
        <ele>2421</ele>
        <time>2020-07-11T09:32:22.122Z</time>
      </trkpt>
      <trkpt lat="42.27775" lon="1.701654">
        <ele>2421</ele>
        <time>2020-07-11T09:32:35.127Z</time>
      </trkpt>
      <trkpt lat="42.277812" lon="1.701766">
        <ele>2421</ele>
        <time>2020-07-11T09:32:43.122Z</time>
      </trkpt>
      <trkpt lat="42.27785" lon="1.701906">
        <ele>2420.09399160309</ele>
        <time>2020-07-11T09:32:51.126Z</time>
      </trkpt>
      <trkpt lat="42.277799" lon="1.70203">
        <ele>2420</ele>
        <time>2020-07-11T09:32:57.122Z</time>
      </trkpt>
      <trkpt lat="42.277797" lon="1.702174">
        <ele>2421</ele>
        <time>2020-07-11T09:33:03.130Z</time>
      </trkpt>
      <trkpt lat="42.277879" lon="1.702279">
        <ele>2421</ele>
        <time>2020-07-11T09:33:08.124Z</time>
      </trkpt>
      <trkpt lat="42.277922" lon="1.702411">
        <ele>2420</ele>
        <time>2020-07-11T09:33:17.126Z</time>
      </trkpt>
      <trkpt lat="42.277991" lon="1.70253">
        <ele>2419</ele>
        <time>2020-07-11T09:33:24.131Z</time>
      </trkpt>
      <trkpt lat="42.278054" lon="1.702639">
        <ele>2418</ele>
        <time>2020-07-11T09:33:39.127Z</time>
      </trkpt>
      <trkpt lat="42.278071" lon="1.70277">
        <ele>2417</ele>
        <time>2020-07-11T09:33:54.123Z</time>
      </trkpt>
      <trkpt lat="42.278131" lon="1.702904">
        <ele>2416.09099636475</ele>
        <time>2020-07-11T09:34:01.129Z</time>
      </trkpt>
      <trkpt lat="42.278204" lon="1.702997">
        <ele>2416</ele>
        <time>2020-07-11T09:34:09.121Z</time>
      </trkpt>
      <trkpt lat="42.278212" lon="1.703138">
        <ele>2417</ele>
        <time>2020-07-11T09:34:23.132Z</time>
      </trkpt>
      <trkpt lat="42.278285" lon="1.703241">
        <ele>2417</ele>
        <time>2020-07-11T09:34:30.128Z</time>
      </trkpt>
      <trkpt lat="42.278355" lon="1.70337">
        <ele>2415</ele>
        <time>2020-07-11T09:34:38.124Z</time>
      </trkpt>
      <trkpt lat="42.278399" lon="1.703495">
        <ele>2415</ele>
        <time>2020-07-11T09:34:43.131Z</time>
      </trkpt>
      <trkpt lat="42.278454" lon="1.703611">
        <ele>2415</ele>
        <time>2020-07-11T09:34:53.126Z</time>
      </trkpt>
      <trkpt lat="42.278522" lon="1.703733">
        <ele>2413.17799907839</ele>
        <time>2020-07-11T09:35:01.131Z</time>
      </trkpt>
      <trkpt lat="42.278584" lon="1.703847">
        <ele>2413</ele>
        <time>2020-07-11T09:35:07.130Z</time>
      </trkpt>
      <trkpt lat="42.27871" lon="1.703934">
        <ele>2413</ele>
        <time>2020-07-11T09:35:12.121Z</time>
      </trkpt>
      <trkpt lat="42.27878" lon="1.704054">
        <ele>2413</ele>
        <time>2020-07-11T09:35:20.125Z</time>
      </trkpt>
      <trkpt lat="42.278844" lon="1.704167">
        <ele>2413</ele>
        <time>2020-07-11T09:35:28.130Z</time>
      </trkpt>
      <trkpt lat="42.278874" lon="1.704297">
        <ele>2411</ele>
        <time>2020-07-11T09:35:33.128Z</time>
      </trkpt>
      <trkpt lat="42.278904" lon="1.704435">
        <ele>2410</ele>
        <time>2020-07-11T09:35:39.135Z</time>
      </trkpt>
      <trkpt lat="42.278938" lon="1.704565">
        <ele>2408</ele>
        <time>2020-07-11T09:35:56.122Z</time>
      </trkpt>
      <trkpt lat="42.278914" lon="1.704711">
        <ele>2406</ele>
        <time>2020-07-11T09:36:04.127Z</time>
      </trkpt>
      <trkpt lat="42.278932" lon="1.704861">
        <ele>2405.09299319031</ele>
        <time>2020-07-11T09:36:11.127Z</time>
      </trkpt>
      <trkpt lat="42.278972" lon="1.705">
        <ele>2405</ele>
        <time>2020-07-11T09:36:20.127Z</time>
      </trkpt>
      <trkpt lat="42.278984" lon="1.705141">
        <ele>2404</ele>
        <time>2020-07-11T09:36:28.127Z</time>
      </trkpt>
      <trkpt lat="42.278996" lon="1.705273">
        <ele>2404</ele>
        <time>2020-07-11T09:36:35.127Z</time>
      </trkpt>
      <trkpt lat="42.279025" lon="1.705406">
        <ele>2404</ele>
        <time>2020-07-11T09:36:42.127Z</time>
      </trkpt>
      <trkpt lat="42.27905" lon="1.705532">
        <ele>2404</ele>
        <time>2020-07-11T09:36:49.127Z</time>
      </trkpt>
      <trkpt lat="42.279068" lon="1.705657">
        <ele>2403</ele>
        <time>2020-07-11T09:36:56.127Z</time>
      </trkpt>
      <trkpt lat="42.279075" lon="1.705784">
        <ele>2401</ele>
        <time>2020-07-11T09:37:05.127Z</time>
      </trkpt>
      <trkpt lat="42.279096" lon="1.705894">
        <ele>2401</ele>
        <time>2020-07-11T09:37:12.127Z</time>
      </trkpt>
      <trkpt lat="42.279116" lon="1.706005">
        <ele>2401</ele>
        <time>2020-07-11T09:37:19.127Z</time>
      </trkpt>
      <trkpt lat="42.279152" lon="1.706143">
        <ele>2401</ele>
        <time>2020-07-11T09:37:27.127Z</time>
      </trkpt>
      <trkpt lat="42.279167" lon="1.706277">
        <ele>2401</ele>
        <time>2020-07-11T09:37:35.127Z</time>
      </trkpt>
      <trkpt lat="42.27918" lon="1.706414">
        <ele>2401</ele>
        <time>2020-07-11T09:37:43.127Z</time>
      </trkpt>
      <trkpt lat="42.279224" lon="1.706555">
        <ele>2401</ele>
        <time>2020-07-11T09:37:51.127Z</time>
      </trkpt>
      <trkpt lat="42.27928" lon="1.706743">
        <ele>2401</ele>
        <time>2020-07-11T09:38:03.127Z</time>
      </trkpt>
      <trkpt lat="42.279343" lon="1.706878">
        <ele>2402</ele>
        <time>2020-07-11T09:38:11.127Z</time>
      </trkpt>
      <trkpt lat="42.279365" lon="1.70702">
        <ele>2402</ele>
        <time>2020-07-11T09:38:19.127Z</time>
      </trkpt>
      <trkpt lat="42.279387" lon="1.70722">
        <ele>2401</ele>
        <time>2020-07-11T09:38:31.127Z</time>
      </trkpt>
      <trkpt lat="42.279409" lon="1.707368">
        <ele>2401</ele>
        <time>2020-07-11T09:38:39.127Z</time>
      </trkpt>
      <trkpt lat="42.279441" lon="1.707517">
        <ele>2401</ele>
        <time>2020-07-11T09:38:47.127Z</time>
      </trkpt>
      <trkpt lat="42.279443" lon="1.707658">
        <ele>2400</ele>
        <time>2020-07-11T09:38:55.127Z</time>
      </trkpt>
      <trkpt lat="42.279454" lon="1.707822">
        <ele>2399</ele>
        <time>2020-07-11T09:39:03.127Z</time>
      </trkpt>
      <trkpt lat="42.279452" lon="1.707957">
        <ele>2399</ele>
        <time>2020-07-11T09:39:11.127Z</time>
      </trkpt>
      <trkpt lat="42.279462" lon="1.708103">
        <ele>2399</ele>
        <time>2020-07-11T09:39:19.127Z</time>
      </trkpt>
      <trkpt lat="42.27947" lon="1.708245">
        <ele>2398</ele>
        <time>2020-07-11T09:39:27.127Z</time>
      </trkpt>
      <trkpt lat="42.279426" lon="1.70844">
        <ele>2397</ele>
        <time>2020-07-11T09:39:39.127Z</time>
      </trkpt>
      <trkpt lat="42.27946" lon="1.708611">
        <ele>2398</ele>
        <time>2020-07-11T09:39:47.127Z</time>
      </trkpt>
      <trkpt lat="42.279494" lon="1.708766">
        <ele>2398</ele>
        <time>2020-07-11T09:39:55.127Z</time>
      </trkpt>
      <trkpt lat="42.279521" lon="1.708916">
        <ele>2398</ele>
        <time>2020-07-11T09:40:03.127Z</time>
      </trkpt>
      <trkpt lat="42.279552" lon="1.709062">
        <ele>2398</ele>
        <time>2020-07-11T09:40:11.127Z</time>
      </trkpt>
      <trkpt lat="42.279596" lon="1.70921">
        <ele>2398</ele>
        <time>2020-07-11T09:40:19.127Z</time>
      </trkpt>
      <trkpt lat="42.279603" lon="1.709353">
        <ele>2398</ele>
        <time>2020-07-11T09:40:27.127Z</time>
      </trkpt>
      <trkpt lat="42.279631" lon="1.709494">
        <ele>2399</ele>
        <time>2020-07-11T09:40:35.127Z</time>
      </trkpt>
      <trkpt lat="42.279667" lon="1.709617">
        <ele>2399</ele>
        <time>2020-07-11T09:40:43.127Z</time>
      </trkpt>
      <trkpt lat="42.279707" lon="1.709698">
        <ele>2398.09299319031</ele>
        <time>2020-07-11T09:40:51.127Z</time>
      </trkpt>
      <trkpt lat="42.279754" lon="1.709828">
        <ele>2398</ele>
        <time>2020-07-11T09:40:59.127Z</time>
      </trkpt>
      <trkpt lat="42.279828" lon="1.709927">
        <ele>2395</ele>
        <time>2020-07-11T09:41:07.127Z</time>
      </trkpt>
      <trkpt lat="42.27989" lon="1.710008">
        <ele>2394</ele>
        <time>2020-07-11T09:41:15.127Z</time>
      </trkpt>
      <trkpt lat="42.279966" lon="1.710058">
        <ele>2392</ele>
        <time>2020-07-11T09:41:23.127Z</time>
      </trkpt>
      <trkpt lat="42.280072" lon="1.710178">
        <ele>2392</ele>
        <time>2020-07-11T09:41:35.127Z</time>
      </trkpt>
      <trkpt lat="42.280152" lon="1.710235">
        <ele>2395</ele>
        <time>2020-07-11T09:41:43.127Z</time>
      </trkpt>
      <trkpt lat="42.280236" lon="1.710223">
        <ele>2396.81401361937</ele>
        <time>2020-07-11T09:41:51.127Z</time>
      </trkpt>
      <trkpt lat="42.280332" lon="1.710191">
        <ele>2397</ele>
        <time>2020-07-11T09:41:59.127Z</time>
      </trkpt>
      <trkpt lat="42.280413" lon="1.710184">
        <ele>2396</ele>
        <time>2020-07-11T09:42:07.127Z</time>
      </trkpt>
      <trkpt lat="42.28049" lon="1.710162">
        <ele>2397</ele>
        <time>2020-07-11T09:42:15.127Z</time>
      </trkpt>
      <trkpt lat="42.280576" lon="1.710146">
        <ele>2397</ele>
        <time>2020-07-11T09:42:23.127Z</time>
      </trkpt>
      <trkpt lat="42.280714" lon="1.710148">
        <ele>2398</ele>
        <time>2020-07-11T09:42:35.127Z</time>
      </trkpt>
      <trkpt lat="42.280781" lon="1.710126">
        <ele>2398</ele>
        <time>2020-07-11T09:42:43.127Z</time>
      </trkpt>
      <trkpt lat="42.280842" lon="1.710126">
        <ele>2398</ele>
        <time>2020-07-11T09:42:55.127Z</time>
      </trkpt>
      <trkpt lat="42.280938" lon="1.710143">
        <ele>2400</ele>
        <time>2020-07-11T09:43:03.127Z</time>
      </trkpt>
      <trkpt lat="42.28102" lon="1.710112">
        <ele>2400.90700680969</ele>
        <time>2020-07-11T09:43:11.127Z</time>
      </trkpt>
      <trkpt lat="42.281115" lon="1.710086">
        <ele>2401</ele>
        <time>2020-07-11T09:43:19.127Z</time>
      </trkpt>
      <trkpt lat="42.281211" lon="1.710081">
        <ele>2402</ele>
        <time>2020-07-11T09:43:27.127Z</time>
      </trkpt>
      <trkpt lat="42.281305" lon="1.710092">
        <ele>2402</ele>
        <time>2020-07-11T09:43:35.127Z</time>
      </trkpt>
      <trkpt lat="42.281402" lon="1.71009">
        <ele>2403</ele>
        <time>2020-07-11T09:43:43.127Z</time>
      </trkpt>
      <trkpt lat="42.281497" lon="1.710078">
        <ele>2403</ele>
        <time>2020-07-11T09:43:51.127Z</time>
      </trkpt>
      <trkpt lat="42.281588" lon="1.710054">
        <ele>2403</ele>
        <time>2020-07-11T09:43:59.127Z</time>
      </trkpt>
      <trkpt lat="42.281672" lon="1.710023">
        <ele>2406</ele>
        <time>2020-07-11T09:44:07.127Z</time>
      </trkpt>
      <trkpt lat="42.281749" lon="1.709929">
        <ele>2406</ele>
        <time>2020-07-11T09:44:15.127Z</time>
      </trkpt>
      <trkpt lat="42.281822" lon="1.709848">
        <ele>2407</ele>
        <time>2020-07-11T09:44:23.127Z</time>
      </trkpt>
      <trkpt lat="42.281902" lon="1.709789">
        <ele>2407.90700680969</ele>
        <time>2020-07-11T09:44:31.127Z</time>
      </trkpt>
      <trkpt lat="42.281974" lon="1.709709">
        <ele>2408</ele>
        <time>2020-07-11T09:44:39.127Z</time>
      </trkpt>
      <trkpt lat="42.282064" lon="1.709648">
        <ele>2408</ele>
        <time>2020-07-11T09:44:47.127Z</time>
      </trkpt>
      <trkpt lat="42.282158" lon="1.709668">
        <ele>2408</ele>
        <time>2020-07-11T09:44:55.127Z</time>
      </trkpt>
      <trkpt lat="42.282294" lon="1.709671">
        <ele>2408</ele>
        <time>2020-07-11T09:45:07.127Z</time>
      </trkpt>
      <trkpt lat="42.282428" lon="1.709742">
        <ele>2408</ele>
        <time>2020-07-11T09:45:19.127Z</time>
      </trkpt>
      <trkpt lat="42.282524" lon="1.709768">
        <ele>2408</ele>
        <time>2020-07-11T09:45:27.127Z</time>
      </trkpt>
      <trkpt lat="42.282621" lon="1.709812">
        <ele>2406</ele>
        <time>2020-07-11T09:45:35.127Z</time>
      </trkpt>
      <trkpt lat="42.282721" lon="1.709861">
        <ele>2405</ele>
        <time>2020-07-11T09:45:43.127Z</time>
      </trkpt>
      <trkpt lat="42.282823" lon="1.709896">
        <ele>2405</ele>
        <time>2020-07-11T09:45:51.127Z</time>
      </trkpt>
      <trkpt lat="42.282919" lon="1.709912">
        <ele>2405</ele>
        <time>2020-07-11T09:45:59.127Z</time>
      </trkpt>
      <trkpt lat="42.283027" lon="1.709942">
        <ele>2405</ele>
        <time>2020-07-11T09:46:09.127Z</time>
      </trkpt>
      <trkpt lat="42.283105" lon="1.710014">
        <ele>2405</ele>
        <time>2020-07-11T09:46:17.878Z</time>
      </trkpt>
      <trkpt lat="42.283199" lon="1.71002">
        <ele>2405</ele>
        <time>2020-07-11T09:46:26.231Z</time>
      </trkpt>
      <trkpt lat="42.283298" lon="1.710094">
        <ele>2404</ele>
        <time>2020-07-11T09:46:33.127Z</time>
      </trkpt>
      <trkpt lat="42.283375" lon="1.71012">
        <ele>2404</ele>
        <time>2020-07-11T09:46:39.127Z</time>
      </trkpt>
      <trkpt lat="42.283476" lon="1.710115">
        <ele>2403</ele>
        <time>2020-07-11T09:46:49.128Z</time>
      </trkpt>
      <trkpt lat="42.283561" lon="1.710086">
        <ele>2402</ele>
        <time>2020-07-11T09:46:56.228Z</time>
      </trkpt>
      <trkpt lat="42.283662" lon="1.710112">
        <ele>2401.09299319031</ele>
        <time>2020-07-11T09:47:01.127Z</time>
      </trkpt>
      <trkpt lat="42.283733" lon="1.710126">
        <ele>2401</ele>
        <time>2020-07-11T09:47:06.127Z</time>
      </trkpt>
      <trkpt lat="42.283798" lon="1.710138">
        <ele>2401</ele>
        <time>2020-07-11T09:47:11.127Z</time>
      </trkpt>
      <trkpt lat="42.283892" lon="1.710087">
        <ele>2401</ele>
        <time>2020-07-11T09:47:19.127Z</time>
      </trkpt>
      <trkpt lat="42.283968" lon="1.710066">
        <ele>2402</ele>
        <time>2020-07-11T09:47:25.127Z</time>
      </trkpt>
      <trkpt lat="42.28407" lon="1.710059">
        <ele>2403</ele>
        <time>2020-07-11T09:47:32.127Z</time>
      </trkpt>
      <trkpt lat="42.284146" lon="1.710089">
        <ele>2403</ele>
        <time>2020-07-11T09:47:40.127Z</time>
      </trkpt>
      <trkpt lat="42.284235" lon="1.710131">
        <ele>2403</ele>
        <time>2020-07-11T09:47:48.128Z</time>
      </trkpt>
      <trkpt lat="42.284339" lon="1.710156">
        <ele>2402</ele>
        <time>2020-07-11T09:47:54.127Z</time>
      </trkpt>
      <trkpt lat="42.284438" lon="1.710173">
        <ele>2400</ele>
        <time>2020-07-11T09:48:03.127Z</time>
      </trkpt>
      <trkpt lat="42.284515" lon="1.71021">
        <ele>2401</ele>
        <time>2020-07-11T09:48:09.127Z</time>
      </trkpt>
      <trkpt lat="42.284636" lon="1.710346">
        <ele>2400.08798832625</ele>
        <time>2020-07-11T09:48:21.132Z</time>
      </trkpt>
      <trkpt lat="42.284711" lon="1.710445">
        <ele>2400</ele>
        <time>2020-07-11T09:48:29.127Z</time>
      </trkpt>
      <trkpt lat="42.284808" lon="1.710507">
        <ele>2399</ele>
        <time>2020-07-11T09:48:37.127Z</time>
      </trkpt>
      <trkpt lat="42.284892" lon="1.710562">
        <ele>2399</ele>
        <time>2020-07-11T09:48:44.122Z</time>
      </trkpt>
      <trkpt lat="42.284984" lon="1.710655">
        <ele>2399</ele>
        <time>2020-07-11T09:48:56.231Z</time>
      </trkpt>
      <trkpt lat="42.285063" lon="1.710755">
        <ele>2397</ele>
        <time>2020-07-11T09:49:02.127Z</time>
      </trkpt>
      <trkpt lat="42.285122" lon="1.710818">
        <ele>2397</ele>
        <time>2020-07-11T09:49:07.127Z</time>
      </trkpt>
      <trkpt lat="42.285279" lon="1.710865">
        <ele>2397</ele>
        <time>2020-07-11T09:49:20.125Z</time>
      </trkpt>
      <trkpt lat="42.285387" lon="1.710872">
        <ele>2396</ele>
        <time>2020-07-11T09:49:30.127Z</time>
      </trkpt>
      <trkpt lat="42.285443" lon="1.710905">
        <ele>2397</ele>
        <time>2020-07-11T09:49:36.127Z</time>
      </trkpt>
      <trkpt lat="42.285508" lon="1.710905">
        <ele>2399</ele>
        <time>2020-07-11T09:49:44.134Z</time>
      </trkpt>
      <trkpt lat="42.285591" lon="1.710862">
        <ele>2401</ele>
        <time>2020-07-11T09:49:55.123Z</time>
      </trkpt>
      <trkpt lat="42.285691" lon="1.710891">
        <ele>2403</ele>
        <time>2020-07-11T09:50:05.127Z</time>
      </trkpt>
      <trkpt lat="42.285805" lon="1.710902">
        <ele>2404</ele>
        <time>2020-07-11T09:50:17.125Z</time>
      </trkpt>
      <trkpt lat="42.285886" lon="1.710872">
        <ele>2406</ele>
        <time>2020-07-11T09:50:25.129Z</time>
      </trkpt>
      <trkpt lat="42.285992" lon="1.710912">
        <ele>2406.90700680969</ele>
        <time>2020-07-11T09:50:41.127Z</time>
      </trkpt>
      <trkpt lat="42.286111" lon="1.710961">
        <ele>2410</ele>
        <time>2020-07-11T09:50:53.133Z</time>
      </trkpt>
      <trkpt lat="42.286188" lon="1.711029">
        <ele>2412</ele>
        <time>2020-07-11T09:51:09.127Z</time>
      </trkpt>
      <trkpt lat="42.286285" lon="1.711129">
        <ele>2415</ele>
        <time>2020-07-11T09:51:29.124Z</time>
      </trkpt>
      <trkpt lat="42.286398" lon="1.711217">
        <ele>2418</ele>
        <time>2020-07-11T09:51:49.128Z</time>
      </trkpt>
      <trkpt lat="42.286494" lon="1.711284">
        <ele>2419</ele>
        <time>2020-07-11T09:52:05.127Z</time>
      </trkpt>
      <trkpt lat="42.286588" lon="1.711239">
        <ele>2422</ele>
        <time>2020-07-11T09:52:25.128Z</time>
      </trkpt>
      <trkpt lat="42.286677" lon="1.711252">
        <ele>2426</ele>
        <time>2020-07-11T09:52:45.130Z</time>
      </trkpt>
      <trkpt lat="42.286761" lon="1.711332">
        <ele>2428</ele>
        <time>2020-07-11T09:56:25.122Z</time>
      </trkpt>
      <trkpt lat="42.286895" lon="1.711351">
        <ele>2426</ele>
        <time>2020-07-11T09:56:45.127Z</time>
      </trkpt>
      <trkpt lat="42.287005" lon="1.711373">
        <ele>2423</ele>
        <time>2020-07-11T09:56:57.132Z</time>
      </trkpt>
      <trkpt lat="42.287081" lon="1.711478">
        <ele>2423</ele>
        <time>2020-07-11T09:57:05.129Z</time>
      </trkpt>
      <trkpt lat="42.287176" lon="1.711596">
        <ele>2422</ele>
        <time>2020-07-11T09:57:13.125Z</time>
      </trkpt>
      <trkpt lat="42.287267" lon="1.711685">
        <ele>2419</ele>
        <time>2020-07-11T09:57:25.125Z</time>
      </trkpt>
      <trkpt lat="42.287345" lon="1.711817">
        <ele>2418</ele>
        <time>2020-07-11T09:57:37.127Z</time>
      </trkpt>
      <trkpt lat="42.28745" lon="1.711962">
        <ele>2417</ele>
        <time>2020-07-11T09:57:49.125Z</time>
      </trkpt>
      <trkpt lat="42.287516" lon="1.71208">
        <ele>2416</ele>
        <time>2020-07-11T09:58:01.127Z</time>
      </trkpt>
      <trkpt lat="42.287634" lon="1.712114">
        <ele>2413.18998003174</ele>
        <time>2020-07-11T09:58:21.125Z</time>
      </trkpt>
      <trkpt lat="42.287613" lon="1.712002">
        <ele>2410</ele>
        <time>2020-07-11T09:58:37.127Z</time>
      </trkpt>
      <trkpt lat="42.287699" lon="1.711899">
        <ele>2404</ele>
        <time>2020-07-11T09:58:57.132Z</time>
      </trkpt>
      <trkpt lat="42.287654" lon="1.711733">
        <ele>2399</ele>
        <time>2020-07-11T09:59:29.123Z</time>
      </trkpt>
      <trkpt lat="42.287555" lon="1.711617">
        <ele>2397</ele>
        <time>2020-07-11T09:59:37.128Z</time>
      </trkpt>
      <trkpt lat="42.287566" lon="1.711482">
        <ele>2393</ele>
        <time>2020-07-11T09:59:53.120Z</time>
      </trkpt>
      <trkpt lat="42.287568" lon="1.711327">
        <ele>2392</ele>
        <time>2020-07-11T10:00:02.125Z</time>
      </trkpt>
      <trkpt lat="42.28758" lon="1.711133">
        <ele>2390</ele>
        <time>2020-07-11T10:00:23.127Z</time>
      </trkpt>
      <trkpt lat="42.28749" lon="1.711039">
        <ele>2388.18598638063</ele>
        <time>2020-07-11T10:00:31.127Z</time>
      </trkpt>
      <trkpt lat="42.287388" lon="1.710992">
        <ele>2386</ele>
        <time>2020-07-11T10:00:37.128Z</time>
      </trkpt>
      <trkpt lat="42.287356" lon="1.710841">
        <ele>2386</ele>
        <time>2020-07-11T10:00:46.126Z</time>
      </trkpt>
      <trkpt lat="42.287456" lon="1.7108">
        <ele>2384</ele>
        <time>2020-07-11T10:00:55.123Z</time>
      </trkpt>
      <trkpt lat="42.287563" lon="1.710841">
        <ele>2383</ele>
        <time>2020-07-11T10:01:12.127Z</time>
      </trkpt>
      <trkpt lat="42.28749" lon="1.710932">
        <ele>2383</ele>
        <time>2020-07-11T10:02:02.123Z</time>
      </trkpt>
      <trkpt lat="42.28744" lon="1.711053">
        <ele>2382</ele>
        <time>2020-07-11T10:03:05.121Z</time>
      </trkpt>
      <trkpt lat="42.287524" lon="1.710969">
        <ele>2380</ele>
        <time>2020-07-11T10:03:30.132Z</time>
      </trkpt>
      <trkpt lat="42.287621" lon="1.710997">
        <ele>2380</ele>
        <time>2020-07-11T10:03:38.133Z</time>
      </trkpt>
      <trkpt lat="42.28772" lon="1.711064">
        <ele>2376</ele>
        <time>2020-07-11T10:04:08.129Z</time>
      </trkpt>
      <trkpt lat="42.287804" lon="1.71114">
        <ele>2373</ele>
        <time>2020-07-11T10:04:31.133Z</time>
      </trkpt>
      <trkpt lat="42.28789" lon="1.711247">
        <ele>2372.09299319031</ele>
        <time>2020-07-11T10:04:41.127Z</time>
      </trkpt>
      <trkpt lat="42.287993" lon="1.7113">
        <ele>2371</ele>
        <time>2020-07-11T10:05:00.128Z</time>
      </trkpt>
      <trkpt lat="42.288005" lon="1.71144">
        <ele>2367</ele>
        <time>2020-07-11T10:05:13.127Z</time>
      </trkpt>
      <trkpt lat="42.288042" lon="1.711313">
        <ele>2364</ele>
        <time>2020-07-11T10:05:32.127Z</time>
      </trkpt>
      <trkpt lat="42.28804" lon="1.711178">
        <ele>2359</ele>
        <time>2020-07-11T10:05:57.130Z</time>
      </trkpt>
      <trkpt lat="42.28798" lon="1.711067">
        <ele>2357</ele>
        <time>2020-07-11T10:06:23.125Z</time>
      </trkpt>
      <trkpt lat="42.288055" lon="1.710974">
        <ele>2356</ele>
        <time>2020-07-11T10:06:34.128Z</time>
      </trkpt>
      <trkpt lat="42.288173" lon="1.711007">
        <ele>2352</ele>
        <time>2020-07-11T10:06:42.125Z</time>
      </trkpt>
      <trkpt lat="42.288117" lon="1.710875">
        <ele>2345</ele>
        <time>2020-07-11T10:07:26.129Z</time>
      </trkpt>
      <trkpt lat="42.288212" lon="1.71101">
        <ele>2340</ele>
        <time>2020-07-11T10:07:46.127Z</time>
      </trkpt>
      <trkpt lat="42.288312" lon="1.711066">
        <ele>2339</ele>
        <time>2020-07-11T10:07:58.131Z</time>
      </trkpt>
      <trkpt lat="42.288446" lon="1.711129">
        <ele>2330</ele>
        <time>2020-07-11T10:08:22.123Z</time>
      </trkpt>
      <trkpt lat="42.288515" lon="1.71123">
        <ele>2326</ele>
        <time>2020-07-11T10:08:34.126Z</time>
      </trkpt>
      <trkpt lat="42.288628" lon="1.711298">
        <ele>2323</ele>
        <time>2020-07-11T10:08:42.127Z</time>
      </trkpt>
      <trkpt lat="42.288765" lon="1.71131">
        <ele>2322</ele>
        <time>2020-07-11T10:08:50.132Z</time>
      </trkpt>
      <trkpt lat="42.288879" lon="1.711358">
        <ele>2319</ele>
        <time>2020-07-11T10:08:58.126Z</time>
      </trkpt>
      <trkpt lat="42.288989" lon="1.711377">
        <ele>2315</ele>
        <time>2020-07-11T10:09:14.124Z</time>
      </trkpt>
      <trkpt lat="42.289119" lon="1.711459">
        <ele>2310</ele>
        <time>2020-07-11T10:09:30.118Z</time>
      </trkpt>
      <trkpt lat="42.289178" lon="1.711618">
        <ele>2307</ele>
        <time>2020-07-11T10:09:42.123Z</time>
      </trkpt>
      <trkpt lat="42.289083" lon="1.711699">
        <ele>2306</ele>
        <time>2020-07-11T10:09:54.131Z</time>
      </trkpt>
      <trkpt lat="42.289102" lon="1.711857">
        <ele>2301</ele>
        <time>2020-07-11T10:10:10.130Z</time>
      </trkpt>
      <trkpt lat="42.289172" lon="1.712037">
        <ele>2296.18800399355</ele>
        <time>2020-07-11T10:10:26.126Z</time>
      </trkpt>
      <trkpt lat="42.28928" lon="1.712157">
        <ele>2295</ele>
        <time>2020-07-11T10:10:34.130Z</time>
      </trkpt>
      <trkpt lat="42.289377" lon="1.712184">
        <ele>2293</ele>
        <time>2020-07-11T10:10:54.122Z</time>
      </trkpt>
      <trkpt lat="42.289448" lon="1.712282">
        <ele>2290</ele>
        <time>2020-07-11T10:11:10.127Z</time>
      </trkpt>
      <trkpt lat="42.289551" lon="1.712264">
        <ele>2286</ele>
        <time>2020-07-11T10:11:22.123Z</time>
      </trkpt>
      <trkpt lat="42.289659" lon="1.712339">
        <ele>2281</ele>
        <time>2020-07-11T10:11:38.122Z</time>
      </trkpt>
      <trkpt lat="42.289806" lon="1.712271">
        <ele>2276</ele>
        <time>2020-07-11T10:11:54.126Z</time>
      </trkpt>
      <trkpt lat="42.289924" lon="1.712299">
        <ele>2272</ele>
        <time>2020-07-11T10:12:06.125Z</time>
      </trkpt>
      <trkpt lat="42.290073" lon="1.712406">
        <ele>2266.19000076799</ele>
        <time>2020-07-11T10:12:26.125Z</time>
      </trkpt>
      <trkpt lat="42.290224" lon="1.712432">
        <ele>2258</ele>
        <time>2020-07-11T10:12:58.123Z</time>
      </trkpt>
      <trkpt lat="42.290346" lon="1.712475">
        <ele>2249.27002534368</ele>
        <time>2020-07-11T10:13:26.130Z</time>
      </trkpt>
      <trkpt lat="42.290425" lon="1.712588">
        <ele>2247</ele>
        <time>2020-07-11T10:13:34.126Z</time>
      </trkpt>
      <trkpt lat="42.290526" lon="1.712674">
        <ele>2245</ele>
        <time>2020-07-11T10:13:42.128Z</time>
      </trkpt>
      <trkpt lat="42.290501" lon="1.712833">
        <ele>2241</ele>
        <time>2020-07-11T10:13:54.130Z</time>
      </trkpt>
      <trkpt lat="42.290527" lon="1.712967">
        <ele>2239</ele>
        <time>2020-07-11T10:14:02.124Z</time>
      </trkpt>
      <trkpt lat="42.290457" lon="1.713091">
        <ele>2239</ele>
        <time>2020-07-11T10:14:10.126Z</time>
      </trkpt>
      <trkpt lat="42.290524" lon="1.713214">
        <ele>2239</ele>
        <time>2020-07-11T10:14:18.124Z</time>
      </trkpt>
      <trkpt lat="42.290524" lon="1.713368">
        <ele>2234</ele>
        <time>2020-07-11T10:14:34.128Z</time>
      </trkpt>
      <trkpt lat="42.290615" lon="1.713546">
        <ele>2233</ele>
        <time>2020-07-11T10:14:42.120Z</time>
      </trkpt>
      <trkpt lat="42.290723" lon="1.713701">
        <ele>2233</ele>
        <time>2020-07-11T10:14:50.133Z</time>
      </trkpt>
      <trkpt lat="42.290849" lon="1.713825">
        <ele>2223</ele>
        <time>2020-07-11T10:15:14.124Z</time>
      </trkpt>
      <trkpt lat="42.291009" lon="1.713963">
        <ele>2223</ele>
        <time>2020-07-11T10:15:22.123Z</time>
      </trkpt>
      <trkpt lat="42.291056" lon="1.714089">
        <ele>2223</ele>
        <time>2020-07-11T10:15:30.120Z</time>
      </trkpt>
      <trkpt lat="42.29112" lon="1.714206">
        <ele>2222</ele>
        <time>2020-07-11T10:15:38.134Z</time>
      </trkpt>
      <trkpt lat="42.291127" lon="1.714387">
        <ele>2218</ele>
        <time>2020-07-11T10:15:54.129Z</time>
      </trkpt>
      <trkpt lat="42.291183" lon="1.714531">
        <ele>2216</ele>
        <time>2020-07-11T10:16:02.132Z</time>
      </trkpt>
      <trkpt lat="42.291233" lon="1.714662">
        <ele>2214</ele>
        <time>2020-07-11T10:16:10.132Z</time>
      </trkpt>
      <trkpt lat="42.291275" lon="1.714809">
        <ele>2208.1760233469</ele>
        <time>2020-07-11T10:16:26.132Z</time>
      </trkpt>
      <trkpt lat="42.291259" lon="1.714949">
        <ele>2205</ele>
        <time>2020-07-11T10:16:38.123Z</time>
      </trkpt>
      <trkpt lat="42.291335" lon="1.715056">
        <ele>2203</ele>
        <time>2020-07-11T10:16:50.123Z</time>
      </trkpt>
      <trkpt lat="42.291449" lon="1.715107">
        <ele>2200</ele>
        <time>2020-07-11T10:16:58.126Z</time>
      </trkpt>
      <trkpt lat="42.291561" lon="1.715097">
        <ele>2198</ele>
        <time>2020-07-11T10:17:06.127Z</time>
      </trkpt>
      <trkpt lat="42.291708" lon="1.715054">
        <ele>2196</ele>
        <time>2020-07-11T10:17:14.126Z</time>
      </trkpt>
      <trkpt lat="42.29168" lon="1.714871">
        <ele>2192.09700995827</ele>
        <time>2020-07-11T10:17:26.123Z</time>
      </trkpt>
      <trkpt lat="42.291771" lon="1.714788">
        <ele>2188.09299319031</ele>
        <time>2020-07-11T10:17:41.127Z</time>
      </trkpt>
      <trkpt lat="42.291837" lon="1.714904">
        <ele>2186</ele>
        <time>2020-07-11T10:17:50.137Z</time>
      </trkpt>
      <trkpt lat="42.291936" lon="1.714995">
        <ele>2183</ele>
        <time>2020-07-11T10:17:57.128Z</time>
      </trkpt>
      <trkpt lat="42.292036" lon="1.715067">
        <ele>2181</ele>
        <time>2020-07-11T10:18:06.124Z</time>
      </trkpt>
      <trkpt lat="42.292096" lon="1.714946">
        <ele>2178</ele>
        <time>2020-07-11T10:18:19.122Z</time>
      </trkpt>
      <trkpt lat="42.292108" lon="1.714805">
        <ele>2176</ele>
        <time>2020-07-11T10:18:30.127Z</time>
      </trkpt>
      <trkpt lat="42.292068" lon="1.71466">
        <ele>2175</ele>
        <time>2020-07-11T10:18:35.127Z</time>
      </trkpt>
      <trkpt lat="42.29207" lon="1.714517">
        <ele>2171</ele>
        <time>2020-07-11T10:18:45.124Z</time>
      </trkpt>
      <trkpt lat="42.292158" lon="1.714454">
        <ele>2169</ele>
        <time>2020-07-11T10:18:55.128Z</time>
      </trkpt>
      <trkpt lat="42.292196" lon="1.714585">
        <ele>2165</ele>
        <time>2020-07-11T10:19:04.123Z</time>
      </trkpt>
      <trkpt lat="42.292286" lon="1.714671">
        <ele>2162</ele>
        <time>2020-07-11T10:19:12.127Z</time>
      </trkpt>
      <trkpt lat="42.292392" lon="1.714698">
        <ele>2162</ele>
        <time>2020-07-11T10:19:19.122Z</time>
      </trkpt>
      <trkpt lat="42.292493" lon="1.714719">
        <ele>2159.4920001024</ele>
        <time>2020-07-11T10:19:25.728Z</time>
      </trkpt>
      <trkpt lat="42.292574" lon="1.714812">
        <ele>2159</ele>
        <time>2020-07-11T10:19:33.223Z</time>
      </trkpt>
      <trkpt lat="42.292643" lon="1.714931">
        <ele>2158.10199170549</ele>
        <time>2020-07-11T10:19:41.118Z</time>
      </trkpt>
      <trkpt lat="42.292689" lon="1.714801">
        <ele>2155</ele>
        <time>2020-07-11T10:19:52.127Z</time>
      </trkpt>
      <trkpt lat="42.29261" lon="1.714534">
        <ele>2152</ele>
        <time>2020-07-11T10:20:04.128Z</time>
      </trkpt>
      <trkpt lat="42.29257" lon="1.714388">
        <ele>2151</ele>
        <time>2020-07-11T10:20:10.122Z</time>
      </trkpt>
      <trkpt lat="42.292644" lon="1.714286">
        <ele>2148</ele>
        <time>2020-07-11T10:20:22.126Z</time>
      </trkpt>
      <trkpt lat="42.292749" lon="1.714253">
        <ele>2144</ele>
        <time>2020-07-11T10:20:34.122Z</time>
      </trkpt>
      <trkpt lat="42.292846" lon="1.714287">
        <ele>2142</ele>
        <time>2020-07-11T10:20:44.132Z</time>
      </trkpt>
      <trkpt lat="42.292948" lon="1.714253">
        <ele>2141.18998003174</ele>
        <time>2020-07-11T10:21:01.125Z</time>
      </trkpt>
      <trkpt lat="42.292914" lon="1.714077">
        <ele>2141</ele>
        <time>2020-07-11T10:21:07.126Z</time>
      </trkpt>
      <trkpt lat="42.293022" lon="1.714045">
        <ele>2138.09000844789</ele>
        <time>2020-07-11T10:21:16.130Z</time>
      </trkpt>
      <trkpt lat="42.293135" lon="1.71403">
        <ele>2138</ele>
        <time>2020-07-11T10:21:24.130Z</time>
      </trkpt>
      <trkpt lat="42.293222" lon="1.714118">
        <ele>2137</ele>
        <time>2020-07-11T10:21:44.127Z</time>
      </trkpt>
      <trkpt lat="42.293345" lon="1.714116">
        <ele>2134</ele>
        <time>2020-07-11T10:21:57.121Z</time>
      </trkpt>
      <trkpt lat="42.293515" lon="1.714212">
        <ele>2132</ele>
        <time>2020-07-11T10:22:13.124Z</time>
      </trkpt>
      <trkpt lat="42.293706" lon="1.714142">
        <ele>2129</ele>
        <time>2020-07-11T10:22:30.128Z</time>
      </trkpt>
      <trkpt lat="42.293734" lon="1.713981">
        <ele>2128</ele>
        <time>2020-07-11T10:22:42.127Z</time>
      </trkpt>
      <trkpt lat="42.293772" lon="1.713837">
        <ele>2125</ele>
        <time>2020-07-11T10:22:53.130Z</time>
      </trkpt>
      <trkpt lat="42.29377" lon="1.713701">
        <ele>2124</ele>
        <time>2020-07-11T10:22:59.130Z</time>
      </trkpt>
      <trkpt lat="42.293792" lon="1.713569">
        <ele>2122</ele>
        <time>2020-07-11T10:23:13.128Z</time>
      </trkpt>
      <trkpt lat="42.293895" lon="1.713569">
        <ele>2119.29099892479</ele>
        <time>2020-07-11T10:23:21.123Z</time>
      </trkpt>
      <trkpt lat="42.294003" lon="1.71357">
        <ele>2118.08700048639</ele>
        <time>2020-07-11T10:23:26.133Z</time>
      </trkpt>
      <trkpt lat="42.294105" lon="1.713618">
        <ele>2117</ele>
        <time>2020-07-11T10:23:35.130Z</time>
      </trkpt>
      <trkpt lat="42.294158" lon="1.713731">
        <ele>2114.19998975987</ele>
        <time>2020-07-11T10:23:41.120Z</time>
      </trkpt>
      <trkpt lat="42.294176" lon="1.713876">
        <ele>2114</ele>
        <time>2020-07-11T10:23:57.125Z</time>
      </trkpt>
      <trkpt lat="42.294245" lon="1.713984">
        <ele>2111</ele>
        <time>2020-07-11T10:24:03.122Z</time>
      </trkpt>
      <trkpt lat="42.294306" lon="1.714092">
        <ele>2111</ele>
        <time>2020-07-11T10:24:09.130Z</time>
      </trkpt>
      <trkpt lat="42.294235" lon="1.714187">
        <ele>2110</ele>
        <time>2020-07-11T10:24:20.121Z</time>
      </trkpt>
      <trkpt lat="42.294166" lon="1.714338">
        <ele>2104</ele>
        <time>2020-07-11T10:24:32.133Z</time>
      </trkpt>
      <trkpt lat="42.294095" lon="1.714447">
        <ele>2100.09900673271</ele>
        <time>2020-07-11T10:24:46.121Z</time>
      </trkpt>
      <trkpt lat="42.294089" lon="1.71458">
        <ele>2100</ele>
        <time>2020-07-11T10:24:54.126Z</time>
      </trkpt>
      <trkpt lat="42.29416" lon="1.714681">
        <ele>2096</ele>
        <time>2020-07-11T10:25:06.132Z</time>
      </trkpt>
      <trkpt lat="42.294201" lon="1.714827">
        <ele>2093</ele>
        <time>2020-07-11T10:25:12.127Z</time>
      </trkpt>
      <trkpt lat="42.294273" lon="1.714929">
        <ele>2090</ele>
        <time>2020-07-11T10:25:28.134Z</time>
      </trkpt>
      <trkpt lat="42.294372" lon="1.714909">
        <ele>2080</ele>
        <time>2020-07-11T10:26:10.123Z</time>
      </trkpt>
      <trkpt lat="42.294468" lon="1.714872">
        <ele>2080</ele>
        <time>2020-07-11T10:26:18.129Z</time>
      </trkpt>
      <trkpt lat="42.29451" lon="1.714743">
        <ele>2076</ele>
        <time>2020-07-11T10:26:29.123Z</time>
      </trkpt>
      <trkpt lat="42.294571" lon="1.71463">
        <ele>2074</ele>
        <time>2020-07-11T10:26:39.121Z</time>
      </trkpt>
      <trkpt lat="42.294642" lon="1.714508">
        <ele>2070</ele>
        <time>2020-07-11T10:26:52.126Z</time>
      </trkpt>
      <trkpt lat="42.294699" lon="1.714392">
        <ele>2067</ele>
        <time>2020-07-11T10:27:00.124Z</time>
      </trkpt>
      <trkpt lat="42.294757" lon="1.714244">
        <ele>2064</ele>
        <time>2020-07-11T10:27:12.127Z</time>
      </trkpt>
      <trkpt lat="42.294796" lon="1.714107">
        <ele>2061.25797450207</ele>
        <time>2020-07-11T10:27:21.134Z</time>
      </trkpt>
      <trkpt lat="42.294899" lon="1.714076">
        <ele>2060</ele>
        <time>2020-07-11T10:27:28.123Z</time>
      </trkpt>
      <trkpt lat="42.295006" lon="1.714031">
        <ele>2060</ele>
        <time>2020-07-11T10:27:37.130Z</time>
      </trkpt>
      <trkpt lat="42.295104" lon="1.713971">
        <ele>2057</ele>
        <time>2020-07-11T10:27:44.129Z</time>
      </trkpt>
      <trkpt lat="42.295163" lon="1.713863">
        <ele>2055</ele>
        <time>2020-07-11T10:27:53.123Z</time>
      </trkpt>
      <trkpt lat="42.295262" lon="1.713867">
        <ele>2052.18598638063</ele>
        <time>2020-07-11T10:28:01.127Z</time>
      </trkpt>
      <trkpt lat="42.295295" lon="1.713733">
        <ele>2050</ele>
        <time>2020-07-11T10:28:13.127Z</time>
      </trkpt>
      <trkpt lat="42.295369" lon="1.713617">
        <ele>2048.09299319031</ele>
        <time>2020-07-11T10:28:21.127Z</time>
      </trkpt>
      <trkpt lat="42.295468" lon="1.713573">
        <ele>2047</ele>
        <time>2020-07-11T10:28:28.129Z</time>
      </trkpt>
      <trkpt lat="42.295552" lon="1.713492">
        <ele>2043</ele>
        <time>2020-07-11T10:28:42.132Z</time>
      </trkpt>
      <trkpt lat="42.295761" lon="1.713394">
        <ele>2042</ele>
        <time>2020-07-11T10:28:58.122Z</time>
      </trkpt>
      <trkpt lat="42.295842" lon="1.71331">
        <ele>2039</ele>
        <time>2020-07-11T10:29:17.127Z</time>
      </trkpt>
      <trkpt lat="42.295953" lon="1.713323">
        <ele>2036</ele>
        <time>2020-07-11T10:29:28.127Z</time>
      </trkpt>
      <trkpt lat="42.29605" lon="1.713371">
        <ele>2034</ele>
        <time>2020-07-11T10:29:37.127Z</time>
      </trkpt>
      <trkpt lat="42.296138" lon="1.713448">
        <ele>2032</ele>
        <time>2020-07-11T10:29:45.127Z</time>
      </trkpt>
      <trkpt lat="42.296242" lon="1.71346">
        <ele>2029</ele>
        <time>2020-07-11T10:30:03.127Z</time>
      </trkpt>
      <trkpt lat="42.29635" lon="1.713431">
        <ele>2028</ele>
        <time>2020-07-11T10:30:14.127Z</time>
      </trkpt>
      <trkpt lat="42.296455" lon="1.71344">
        <ele>2026</ele>
        <time>2020-07-11T10:30:22.127Z</time>
      </trkpt>
      <trkpt lat="42.296557" lon="1.71348">
        <ele>2024</ele>
        <time>2020-07-11T10:30:30.127Z</time>
      </trkpt>
      <trkpt lat="42.296656" lon="1.713554">
        <ele>2022</ele>
        <time>2020-07-11T10:30:38.127Z</time>
      </trkpt>
      <trkpt lat="42.296733" lon="1.713657">
        <ele>2019</ele>
        <time>2020-07-11T10:30:47.127Z</time>
      </trkpt>
      <trkpt lat="42.296801" lon="1.713763">
        <ele>2017.09300360955</ele>
        <time>2020-07-11T10:30:56.127Z</time>
      </trkpt>
      <trkpt lat="42.296884" lon="1.713854">
        <ele>2014</ele>
        <time>2020-07-11T10:31:08.127Z</time>
      </trkpt>
      <trkpt lat="42.296931" lon="1.713935">
        <ele>2013</ele>
        <time>2020-07-11T10:31:14.127Z</time>
      </trkpt>
      <trkpt lat="42.296948" lon="1.71402">
        <ele>2012</ele>
        <time>2020-07-11T10:31:20.127Z</time>
      </trkpt>
      <trkpt lat="42.297009" lon="1.714069">
        <ele>2009</ele>
        <time>2020-07-11T10:31:27.127Z</time>
      </trkpt>
      <trkpt lat="42.297104" lon="1.714143">
        <ele>2009</ele>
        <time>2020-07-11T10:31:36.127Z</time>
      </trkpt>
      <trkpt lat="42.297151" lon="1.714203">
        <ele>2010</ele>
        <time>2020-07-11T10:31:42.127Z</time>
      </trkpt>
      <trkpt lat="42.297175" lon="1.713981">
        <ele>2010</ele>
        <time>2020-07-11T10:33:43.127Z</time>
      </trkpt>
      <trkpt lat="42.297142" lon="1.714155">
        <ele>2010</ele>
        <time>2020-07-11T10:34:25.127Z</time>
      </trkpt>
      <trkpt lat="42.297322" lon="1.713836">
        <ele>2011</ele>
        <time>2020-07-11T10:35:59.127Z</time>
      </trkpt>
      <trkpt lat="42.29718" lon="1.714092">
        <ele>2010</ele>
        <time>2020-07-11T10:36:07.127Z</time>
      </trkpt>
      <trkpt lat="42.297092" lon="1.714197">
        <ele>2010</ele>
        <time>2020-07-11T10:36:47.132Z</time>
      </trkpt>
      <trkpt lat="42.297044" lon="1.714085">
        <ele>2010</ele>
        <time>2020-07-11T10:37:21.120Z</time>
      </trkpt>
      <trkpt lat="42.29698" lon="1.713981">
        <ele>2010</ele>
        <time>2020-07-11T10:43:16.128Z</time>
      </trkpt>
      <trkpt lat="42.297069" lon="1.714107">
        <ele>2010</ele>
        <time>2020-07-11T10:43:28.130Z</time>
      </trkpt>
      <trkpt lat="42.296999" lon="1.714008">
        <ele>2009</ele>
        <time>2020-07-11T10:44:44.127Z</time>
      </trkpt>
      <trkpt lat="42.29712" lon="1.714022">
        <ele>2010</ele>
        <time>2020-07-11T10:45:24.127Z</time>
      </trkpt>
      <trkpt lat="42.297025" lon="1.713962">
        <ele>2009</ele>
        <time>2020-07-11T10:45:48.128Z</time>
      </trkpt>
      <trkpt lat="42.297106" lon="1.714076">
        <ele>2009</ele>
        <time>2020-07-11T10:46:44.120Z</time>
      </trkpt>
      <trkpt lat="42.297011" lon="1.713997">
        <ele>2009</ele>
        <time>2020-07-11T10:46:56.124Z</time>
      </trkpt>
      <trkpt lat="42.297062" lon="1.714114">
        <ele>2009</ele>
        <time>2020-07-11T10:49:16.131Z</time>
      </trkpt>
      <trkpt lat="42.296966" lon="1.714061">
        <ele>2007</ele>
        <time>2020-07-11T10:50:22.127Z</time>
      </trkpt>
      <trkpt lat="42.297075" lon="1.714071">
        <ele>2009</ele>
        <time>2020-07-11T10:51:16.125Z</time>
      </trkpt>
      <trkpt lat="42.297003" lon="1.713977">
        <ele>2011.09799805438</ele>
        <time>2020-07-11T10:54:51.122Z</time>
      </trkpt>
      <trkpt lat="42.297051" lon="1.714102">
        <ele>2010</ele>
        <time>2020-07-11T10:55:09.127Z</time>
      </trkpt>
      <trkpt lat="42.29699" lon="1.713992">
        <ele>2018</ele>
        <time>2020-07-11T10:56:18.127Z</time>
      </trkpt>
      <trkpt lat="42.297052" lon="1.714107">
        <ele>2021.55686623916</ele>
        <time>2020-07-11T10:56:41.127Z</time>
      </trkpt>
      <trkpt lat="42.297166" lon="1.714185">
        <ele>2007</ele>
        <time>2020-07-11T11:00:04.133Z</time>
      </trkpt>
      <trkpt lat="42.297098" lon="1.714075">
        <ele>2007</ele>
        <time>2020-07-11T11:00:43.127Z</time>
      </trkpt>
      <trkpt lat="42.297039" lon="1.714184">
        <ele>2007</ele>
        <time>2020-07-11T11:01:14.125Z</time>
      </trkpt>
      <trkpt lat="42.297065" lon="1.714044">
        <ele>2008</ele>
        <time>2020-07-11T11:02:16.118Z</time>
      </trkpt>
      <trkpt lat="42.296949" lon="1.713989">
        <ele>2009</ele>
        <time>2020-07-11T11:03:34.125Z</time>
      </trkpt>
      <trkpt lat="42.29685" lon="1.713982">
        <ele>2009</ele>
        <time>2020-07-11T11:03:39.131Z</time>
      </trkpt>
      <trkpt lat="42.296754" lon="1.713946">
        <ele>2008</ele>
        <time>2020-07-11T11:03:45.123Z</time>
      </trkpt>
      <trkpt lat="42.29666" lon="1.71401">
        <ele>2007.08999795197</ele>
        <time>2020-07-11T11:03:51.130Z</time>
      </trkpt>
      <trkpt lat="42.296567" lon="1.714076">
        <ele>2007</ele>
        <time>2020-07-11T11:03:58.123Z</time>
      </trkpt>
      <trkpt lat="42.296515" lon="1.714198">
        <ele>2007</ele>
        <time>2020-07-11T11:04:03.126Z</time>
      </trkpt>
      <trkpt lat="42.296584" lon="1.714295">
        <ele>2009</ele>
        <time>2020-07-11T11:04:37.227Z</time>
      </trkpt>
      <trkpt lat="42.296478" lon="1.71432">
        <ele>2008</ele>
        <time>2020-07-11T11:05:07.124Z</time>
      </trkpt>
      <trkpt lat="42.29643" lon="1.714439">
        <ele>2008</ele>
        <time>2020-07-11T11:05:35.121Z</time>
      </trkpt>
      <trkpt lat="42.296364" lon="1.714554">
        <ele>2007</ele>
        <time>2020-07-11T11:05:43.121Z</time>
      </trkpt>
      <trkpt lat="42.29645" lon="1.714731">
        <ele>2007</ele>
        <time>2020-07-11T11:05:51.127Z</time>
      </trkpt>
      <trkpt lat="42.296397" lon="1.714854">
        <ele>2007</ele>
        <time>2020-07-11T11:05:59.128Z</time>
      </trkpt>
      <trkpt lat="42.296375" lon="1.715007">
        <ele>2005</ele>
        <time>2020-07-11T11:06:15.126Z</time>
      </trkpt>
      <trkpt lat="42.296338" lon="1.715146">
        <ele>2006</ele>
        <time>2020-07-11T11:06:23.129Z</time>
      </trkpt>
      <trkpt lat="42.296262" lon="1.715274">
        <ele>2007</ele>
        <time>2020-07-11T11:06:35.128Z</time>
      </trkpt>
      <trkpt lat="42.296197" lon="1.715385">
        <ele>2007</ele>
        <time>2020-07-11T11:06:43.121Z</time>
      </trkpt>
      <trkpt lat="42.296081" lon="1.715515">
        <ele>2008</ele>
        <time>2020-07-11T11:06:55.129Z</time>
      </trkpt>
      <trkpt lat="42.296" lon="1.71564">
        <ele>2012</ele>
        <time>2020-07-11T11:07:07.124Z</time>
      </trkpt>
      <trkpt lat="42.295906" lon="1.715721">
        <ele>2012</ele>
        <time>2020-07-11T11:07:19.124Z</time>
      </trkpt>
      <trkpt lat="42.295836" lon="1.715846">
        <ele>2013.91100046081</ele>
        <time>2020-07-11T11:07:31.131Z</time>
      </trkpt>
      <trkpt lat="42.295764" lon="1.715977">
        <ele>2014</ele>
        <time>2020-07-11T11:07:43.132Z</time>
      </trkpt>
      <trkpt lat="42.295775" lon="1.716159">
        <ele>2014</ele>
        <time>2020-07-11T11:07:55.127Z</time>
      </trkpt>
      <trkpt lat="42.295815" lon="1.716312">
        <ele>2015</ele>
        <time>2020-07-11T11:08:03.124Z</time>
      </trkpt>
      <trkpt lat="42.295739" lon="1.716424">
        <ele>2016</ele>
        <time>2020-07-11T11:08:15.135Z</time>
      </trkpt>
      <trkpt lat="42.295691" lon="1.716605">
        <ele>2017</ele>
        <time>2020-07-11T11:08:23.129Z</time>
      </trkpt>
      <trkpt lat="42.295628" lon="1.716727">
        <ele>2017</ele>
        <time>2020-07-11T11:08:31.119Z</time>
      </trkpt>
      <trkpt lat="42.295559" lon="1.716858">
        <ele>2017</ele>
        <time>2020-07-11T11:08:47.134Z</time>
      </trkpt>
      <trkpt lat="42.295472" lon="1.716994">
        <ele>2019</ele>
        <time>2020-07-11T11:09:03.124Z</time>
      </trkpt>
      <trkpt lat="42.295478" lon="1.71716">
        <ele>2020</ele>
        <time>2020-07-11T11:09:19.124Z</time>
      </trkpt>
      <trkpt lat="42.295416" lon="1.717308">
        <ele>2021.80001024013</ele>
        <time>2020-07-11T11:09:31.120Z</time>
      </trkpt>
      <trkpt lat="42.295409" lon="1.717518">
        <ele>2023</ele>
        <time>2020-07-11T11:09:43.119Z</time>
      </trkpt>
      <trkpt lat="42.295306" lon="1.717624">
        <ele>2025</ele>
        <time>2020-07-11T11:09:55.129Z</time>
      </trkpt>
      <trkpt lat="42.295272" lon="1.717772">
        <ele>2028</ele>
        <time>2020-07-11T11:10:07.123Z</time>
      </trkpt>
      <trkpt lat="42.295195" lon="1.717889">
        <ele>2030</ele>
        <time>2020-07-11T11:10:19.126Z</time>
      </trkpt>
      <trkpt lat="42.295125" lon="1.718036">
        <ele>2032</ele>
        <time>2020-07-11T11:10:35.131Z</time>
      </trkpt>
      <trkpt lat="42.295046" lon="1.71818">
        <ele>2032</ele>
        <time>2020-07-11T11:10:47.128Z</time>
      </trkpt>
      <trkpt lat="42.295005" lon="1.718355">
        <ele>2033</ele>
        <time>2020-07-11T11:10:59.126Z</time>
      </trkpt>
      <trkpt lat="42.294879" lon="1.718399">
        <ele>2035.90900363525</ele>
        <time>2020-07-11T11:11:11.129Z</time>
      </trkpt>
      <trkpt lat="42.294779" lon="1.718516">
        <ele>2036</ele>
        <time>2020-07-11T11:11:23.131Z</time>
      </trkpt>
      <trkpt lat="42.294718" lon="1.718646">
        <ele>2036</ele>
        <time>2020-07-11T11:11:35.123Z</time>
      </trkpt>
      <trkpt lat="42.29461" lon="1.718749">
        <ele>2036.91000204803</ele>
        <time>2020-07-11T11:11:51.130Z</time>
      </trkpt>
      <trkpt lat="42.294481" lon="1.718783">
        <ele>2039</ele>
        <time>2020-07-11T11:12:07.124Z</time>
      </trkpt>
      <trkpt lat="42.294421" lon="1.718898">
        <ele>2040</ele>
        <time>2020-07-11T11:12:19.123Z</time>
      </trkpt>
      <trkpt lat="42.294341" lon="1.718992">
        <ele>2041</ele>
        <time>2020-07-11T11:12:27.118Z</time>
      </trkpt>
      <trkpt lat="42.294328" lon="1.71915">
        <ele>2042</ele>
        <time>2020-07-11T11:12:39.129Z</time>
      </trkpt>
      <trkpt lat="42.294318" lon="1.71932">
        <ele>2045</ele>
        <time>2020-07-11T11:12:55.120Z</time>
      </trkpt>
      <trkpt lat="42.294292" lon="1.719458">
        <ele>2045</ele>
        <time>2020-07-11T11:13:07.134Z</time>
      </trkpt>
      <trkpt lat="42.29437" lon="1.719578">
        <ele>2046</ele>
        <time>2020-07-11T11:13:19.124Z</time>
      </trkpt>
      <trkpt lat="42.294328" lon="1.719747">
        <ele>2048</ele>
        <time>2020-07-11T11:13:35.122Z</time>
      </trkpt>
      <trkpt lat="42.294334" lon="1.719889">
        <ele>2044.09600122882</ele>
        <time>2020-07-11T11:13:51.124Z</time>
      </trkpt>
      <trkpt lat="42.294341" lon="1.720033">
        <ele>2044</ele>
        <time>2020-07-11T11:14:02.128Z</time>
      </trkpt>
      <trkpt lat="42.294267" lon="1.720136">
        <ele>2044</ele>
        <time>2020-07-11T11:14:11.127Z</time>
      </trkpt>
      <trkpt lat="42.294226" lon="1.720264">
        <ele>2043.09299319031</ele>
        <time>2020-07-11T11:14:21.127Z</time>
      </trkpt>
      <trkpt lat="42.294136" lon="1.720336">
        <ele>2042</ele>
        <time>2020-07-11T11:14:33.126Z</time>
      </trkpt>
      <trkpt lat="42.294079" lon="1.720454">
        <ele>2041</ele>
        <time>2020-07-11T11:14:44.127Z</time>
      </trkpt>
      <trkpt lat="42.294113" lon="1.720594">
        <ele>2040</ele>
        <time>2020-07-11T11:14:52.120Z</time>
      </trkpt>
      <trkpt lat="42.294046" lon="1.720719">
        <ele>2040</ele>
        <time>2020-07-11T11:14:58.130Z</time>
      </trkpt>
      <trkpt lat="42.293985" lon="1.720822">
        <ele>2036.09100683511</ele>
        <time>2020-07-11T11:15:06.129Z</time>
      </trkpt>
      <trkpt lat="42.293918" lon="1.720876">
        <ele>2035</ele>
        <time>2020-07-11T11:15:12.127Z</time>
      </trkpt>
      <trkpt lat="42.293869" lon="1.720968">
        <ele>2034</ele>
        <time>2020-07-11T11:15:18.120Z</time>
      </trkpt>
      <trkpt lat="42.293806" lon="1.721078">
        <ele>2034</ele>
        <time>2020-07-11T11:15:31.132Z</time>
      </trkpt>
      <trkpt lat="42.293823" lon="1.721213">
        <ele>2031</ele>
        <time>2020-07-11T11:15:50.133Z</time>
      </trkpt>
      <trkpt lat="42.293798" lon="1.721355">
        <ele>2029.19799293431</ele>
        <time>2020-07-11T11:16:01.121Z</time>
      </trkpt>
      <trkpt lat="42.29382" lon="1.72149">
        <ele>2029</ele>
        <time>2020-07-11T11:16:10.131Z</time>
      </trkpt>
      <trkpt lat="42.293827" lon="1.721627">
        <ele>2028</ele>
        <time>2020-07-11T11:16:17.126Z</time>
      </trkpt>
      <trkpt lat="42.293857" lon="1.721776">
        <ele>2025</ele>
        <time>2020-07-11T11:16:24.125Z</time>
      </trkpt>
      <trkpt lat="42.293756" lon="1.721836">
        <ele>2021</ele>
        <time>2020-07-11T11:16:37.129Z</time>
      </trkpt>
      <trkpt lat="42.293646" lon="1.721889">
        <ele>2020</ele>
        <time>2020-07-11T11:16:45.127Z</time>
      </trkpt>
      <trkpt lat="42.293578" lon="1.721992">
        <ele>2016</ele>
        <time>2020-07-11T11:17:16.128Z</time>
      </trkpt>
      <trkpt lat="42.293499" lon="1.722074">
        <ele>2014</ele>
        <time>2020-07-11T11:17:24.122Z</time>
      </trkpt>
      <trkpt lat="42.293446" lon="1.722195">
        <ele>2011.19200245763</ele>
        <time>2020-07-11T11:17:31.124Z</time>
      </trkpt>
      <trkpt lat="42.293343" lon="1.722227">
        <ele>2010</ele>
        <time>2020-07-11T11:17:38.128Z</time>
      </trkpt>
      <trkpt lat="42.293242" lon="1.722235">
        <ele>2008</ele>
        <time>2020-07-11T11:17:50.121Z</time>
      </trkpt>
      <trkpt lat="42.29311" lon="1.722312">
        <ele>2003</ele>
        <time>2020-07-11T11:18:06.135Z</time>
      </trkpt>
      <trkpt lat="42.292969" lon="1.722276">
        <ele>2001</ele>
        <time>2020-07-11T11:18:14.127Z</time>
      </trkpt>
      <trkpt lat="42.292836" lon="1.72229">
        <ele>2000</ele>
        <time>2020-07-11T11:18:22.129Z</time>
      </trkpt>
      <trkpt lat="42.292705" lon="1.722381">
        <ele>1998</ele>
        <time>2020-07-11T11:18:34.125Z</time>
      </trkpt>
      <trkpt lat="42.292612" lon="1.722487">
        <ele>1995</ele>
        <time>2020-07-11T11:18:46.124Z</time>
      </trkpt>
      <trkpt lat="42.292474" lon="1.722454">
        <ele>1994</ele>
        <time>2020-07-11T11:18:56.127Z</time>
      </trkpt>
      <trkpt lat="42.292376" lon="1.722383">
        <ele>1991</ele>
        <time>2020-07-11T11:19:07.127Z</time>
      </trkpt>
      <trkpt lat="42.292183" lon="1.722421">
        <ele>1989</ele>
        <time>2020-07-11T11:19:19.124Z</time>
      </trkpt>
      <trkpt lat="42.292106" lon="1.72251">
        <ele>1989</ele>
        <time>2020-07-11T11:19:27.131Z</time>
      </trkpt>
      <trkpt lat="42.292009" lon="1.722573">
        <ele>1988</ele>
        <time>2020-07-11T11:19:32.135Z</time>
      </trkpt>
      <trkpt lat="42.291906" lon="1.722609">
        <ele>1988</ele>
        <time>2020-07-11T11:19:38.126Z</time>
      </trkpt>
      <trkpt lat="42.291819" lon="1.722675">
        <ele>1986</ele>
        <time>2020-07-11T11:19:53.127Z</time>
      </trkpt>
      <trkpt lat="42.291736" lon="1.722768">
        <ele>1985</ele>
        <time>2020-07-11T11:20:04.133Z</time>
      </trkpt>
      <trkpt lat="42.291727" lon="1.722904">
        <ele>1983</ele>
        <time>2020-07-11T11:20:17.127Z</time>
      </trkpt>
      <trkpt lat="42.291754" lon="1.723047">
        <ele>1981</ele>
        <time>2020-07-11T11:20:27.124Z</time>
      </trkpt>
      <trkpt lat="42.291682" lon="1.723156">
        <ele>1977</ele>
        <time>2020-07-11T11:20:38.127Z</time>
      </trkpt>
      <trkpt lat="42.291601" lon="1.723237">
        <ele>1976</ele>
        <time>2020-07-11T11:20:45.128Z</time>
      </trkpt>
      <trkpt lat="42.291507" lon="1.723285">
        <ele>1973.28497004762</ele>
        <time>2020-07-11T11:20:51.125Z</time>
      </trkpt>
      <trkpt lat="42.291422" lon="1.723353">
        <ele>1972</ele>
        <time>2020-07-11T11:20:57.127Z</time>
      </trkpt>
      <trkpt lat="42.291325" lon="1.723418">
        <ele>1970</ele>
        <time>2020-07-11T11:21:05.130Z</time>
      </trkpt>
      <trkpt lat="42.29122" lon="1.723486">
        <ele>1970</ele>
        <time>2020-07-11T11:21:11.121Z</time>
      </trkpt>
      <trkpt lat="42.291139" lon="1.723573">
        <ele>1970</ele>
        <time>2020-07-11T11:21:16.128Z</time>
      </trkpt>
      <trkpt lat="42.291053" lon="1.723666">
        <ele>1970</ele>
        <time>2020-07-11T11:21:27.127Z</time>
      </trkpt>
      <trkpt lat="42.290949" lon="1.723707">
        <ele>1970</ele>
        <time>2020-07-11T11:21:36.126Z</time>
      </trkpt>
      <trkpt lat="42.29085" lon="1.723682">
        <ele>1969</ele>
        <time>2020-07-11T11:21:47.127Z</time>
      </trkpt>
      <trkpt lat="42.290765" lon="1.72376">
        <ele>1966.18598638063</ele>
        <time>2020-07-11T11:22:01.127Z</time>
      </trkpt>
      <trkpt lat="42.290686" lon="1.723856">
        <ele>1966</ele>
        <time>2020-07-11T11:22:11.128Z</time>
      </trkpt>
      <trkpt lat="42.290584" lon="1.723845">
        <ele>1965</ele>
        <time>2020-07-11T11:22:25.126Z</time>
      </trkpt>
      <trkpt lat="42.290507" lon="1.723933">
        <ele>1964</ele>
        <time>2020-07-11T11:22:46.132Z</time>
      </trkpt>
      <trkpt lat="42.290551" lon="1.724055">
        <ele>1964</ele>
        <time>2020-07-11T11:23:00.121Z</time>
      </trkpt>
      <trkpt lat="42.290614" lon="1.724189">
        <ele>1963</ele>
        <time>2020-07-11T11:23:08.127Z</time>
      </trkpt>
      <trkpt lat="42.29062" lon="1.724325">
        <ele>1962</ele>
        <time>2020-07-11T11:23:14.121Z</time>
      </trkpt>
      <trkpt lat="42.290635" lon="1.724476">
        <ele>1961</ele>
        <time>2020-07-11T11:23:24.128Z</time>
      </trkpt>
      <trkpt lat="42.290684" lon="1.724601">
        <ele>1961</ele>
        <time>2020-07-11T11:23:34.126Z</time>
      </trkpt>
      <trkpt lat="42.290679" lon="1.72474">
        <ele>1961</ele>
        <time>2020-07-11T11:23:40.127Z</time>
      </trkpt>
      <trkpt lat="42.29066" lon="1.724875">
        <ele>1961</ele>
        <time>2020-07-11T11:23:51.124Z</time>
      </trkpt>
      <trkpt lat="42.290603" lon="1.724991">
        <ele>1961</ele>
        <time>2020-07-11T11:23:59.120Z</time>
      </trkpt>
      <trkpt lat="42.290688" lon="1.725073">
        <ele>1961</ele>
        <time>2020-07-11T11:24:19.132Z</time>
      </trkpt>
      <trkpt lat="42.290767" lon="1.724987">
        <ele>1960.82801699862</ele>
        <time>2020-07-11T11:24:31.134Z</time>
      </trkpt>
      <trkpt lat="42.290825" lon="1.725103">
        <ele>1962</ele>
        <time>2020-07-11T11:25:15.125Z</time>
      </trkpt>
      <trkpt lat="42.290875" lon="1.725251">
        <ele>1962.90600839691</ele>
        <time>2020-07-11T11:25:31.126Z</time>
      </trkpt>
      <trkpt lat="42.290916" lon="1.72538">
        <ele>1963</ele>
        <time>2020-07-11T11:25:46.127Z</time>
      </trkpt>
      <trkpt lat="42.291007" lon="1.725436">
        <ele>1964</ele>
        <time>2020-07-11T11:26:00.127Z</time>
      </trkpt>
      <trkpt lat="42.291129" lon="1.725563">
        <ele>1962</ele>
        <time>2020-07-11T11:26:16.127Z</time>
      </trkpt>
      <trkpt lat="42.29117" lon="1.725722">
        <ele>1961</ele>
        <time>2020-07-11T11:26:28.127Z</time>
      </trkpt>
      <trkpt lat="42.291293" lon="1.725806">
        <ele>1960</ele>
        <time>2020-07-11T11:26:40.127Z</time>
      </trkpt>
      <trkpt lat="42.291312" lon="1.725981">
        <ele>1957</ele>
        <time>2020-07-11T11:26:56.125Z</time>
      </trkpt>
      <trkpt lat="42.291332" lon="1.726124">
        <ele>1956</ele>
        <time>2020-07-11T11:27:04.119Z</time>
      </trkpt>
      <trkpt lat="42.291386" lon="1.726278">
        <ele>1956</ele>
        <time>2020-07-11T11:27:12.127Z</time>
      </trkpt>
      <trkpt lat="42.291408" lon="1.726447">
        <ele>1955</ele>
        <time>2020-07-11T11:27:32.136Z</time>
      </trkpt>
      <trkpt lat="42.291492" lon="1.726553">
        <ele>1955</ele>
        <time>2020-07-11T11:27:40.122Z</time>
      </trkpt>
      <trkpt lat="42.29149" lon="1.72671">
        <ele>1955</ele>
        <time>2020-07-11T11:27:52.122Z</time>
      </trkpt>
      <trkpt lat="42.291572" lon="1.726879">
        <ele>1954</ele>
        <time>2020-07-11T11:28:12.124Z</time>
      </trkpt>
      <trkpt lat="42.291677" lon="1.726889">
        <ele>1954</ele>
        <time>2020-07-11T11:28:20.120Z</time>
      </trkpt>
      <trkpt lat="42.291758" lon="1.727037">
        <ele>1953</ele>
        <time>2020-07-11T11:28:28.125Z</time>
      </trkpt>
      <trkpt lat="42.291859" lon="1.727206">
        <ele>1954</ele>
        <time>2020-07-11T11:28:38.127Z</time>
      </trkpt>
      <trkpt lat="42.291949" lon="1.727297">
        <ele>1954</ele>
        <time>2020-07-11T11:28:57.126Z</time>
      </trkpt>
      <trkpt lat="42.292048" lon="1.727309">
        <ele>1954</ele>
        <time>2020-07-11T11:29:04.127Z</time>
      </trkpt>
      <trkpt lat="42.292143" lon="1.72738">
        <ele>1955</ele>
        <time>2020-07-11T11:29:17.127Z</time>
      </trkpt>
      <trkpt lat="42.292222" lon="1.727468">
        <ele>1956</ele>
        <time>2020-07-11T11:29:30.229Z</time>
      </trkpt>
      <trkpt lat="42.292306" lon="1.727388">
        <ele>1955</ele>
        <time>2020-07-11T11:29:39.127Z</time>
      </trkpt>
      <trkpt lat="42.292388" lon="1.727474">
        <ele>1956</ele>
        <time>2020-07-11T11:29:45.127Z</time>
      </trkpt>
      <trkpt lat="42.292476" lon="1.727549">
        <ele>1957</ele>
        <time>2020-07-11T11:29:58.127Z</time>
      </trkpt>
      <trkpt lat="42.292578" lon="1.727624">
        <ele>1958</ele>
        <time>2020-07-11T11:30:08.129Z</time>
      </trkpt>
      <trkpt lat="42.292745" lon="1.727803">
        <ele>1958</ele>
        <time>2020-07-11T11:30:16.127Z</time>
      </trkpt>
      <trkpt lat="42.292763" lon="1.72794">
        <ele>1960</ele>
        <time>2020-07-11T11:30:25.128Z</time>
      </trkpt>
      <trkpt lat="42.292687" lon="1.728034">
        <ele>1961</ele>
        <time>2020-07-11T11:30:34.129Z</time>
      </trkpt>
      <trkpt lat="42.292682" lon="1.728186">
        <ele>1962</ele>
        <time>2020-07-11T11:30:44.127Z</time>
      </trkpt>
      <trkpt lat="42.292591" lon="1.728266">
        <ele>1960</ele>
        <time>2020-07-11T11:30:56.129Z</time>
      </trkpt>
      <trkpt lat="42.292537" lon="1.728388">
        <ele>1956.09300360955</ele>
        <time>2020-07-11T11:31:06.127Z</time>
      </trkpt>
      <trkpt lat="42.292472" lon="1.728504">
        <ele>1955</ele>
        <time>2020-07-11T11:31:18.127Z</time>
      </trkpt>
      <trkpt lat="42.292385" lon="1.728588">
        <ele>1953</ele>
        <time>2020-07-11T11:31:29.127Z</time>
      </trkpt>
      <trkpt lat="42.292311" lon="1.728684">
        <ele>1951</ele>
        <time>2020-07-11T11:31:37.127Z</time>
      </trkpt>
      <trkpt lat="42.292227" lon="1.728776">
        <ele>1950</ele>
        <time>2020-07-11T11:31:48.127Z</time>
      </trkpt>
      <trkpt lat="42.292189" lon="1.728908">
        <ele>1950</ele>
        <time>2020-07-11T11:31:56.127Z</time>
      </trkpt>
      <trkpt lat="42.292151" lon="1.729034">
        <ele>1950</ele>
        <time>2020-07-11T11:32:05.127Z</time>
      </trkpt>
      <trkpt lat="42.292158" lon="1.729184">
        <ele>1949</ele>
        <time>2020-07-11T11:32:17.127Z</time>
      </trkpt>
      <trkpt lat="42.292204" lon="1.729317">
        <ele>1948</ele>
        <time>2020-07-11T11:32:29.127Z</time>
      </trkpt>
      <trkpt lat="42.292178" lon="1.729398">
        <ele>1948</ele>
        <time>2020-07-11T11:32:35.127Z</time>
      </trkpt>
      <trkpt lat="42.292168" lon="1.729545">
        <ele>1949</ele>
        <time>2020-07-11T11:32:46.127Z</time>
      </trkpt>
      <trkpt lat="42.292194" lon="1.729623">
        <ele>1950</ele>
        <time>2020-07-11T11:32:53.127Z</time>
      </trkpt>
      <trkpt lat="42.292207" lon="1.729763">
        <ele>1949</ele>
        <time>2020-07-11T11:33:07.127Z</time>
      </trkpt>
      <trkpt lat="42.292176" lon="1.729844">
        <ele>1950</ele>
        <time>2020-07-11T11:33:14.127Z</time>
      </trkpt>
      <trkpt lat="42.292167" lon="1.729935">
        <ele>1950</ele>
        <time>2020-07-11T11:33:20.127Z</time>
      </trkpt>
      <trkpt lat="42.292163" lon="1.730052">
        <ele>1950</ele>
        <time>2020-07-11T11:33:27.127Z</time>
      </trkpt>
      <trkpt lat="42.292121" lon="1.730152">
        <ele>1948</ele>
        <time>2020-07-11T11:33:35.127Z</time>
      </trkpt>
      <trkpt lat="42.292101" lon="1.730251">
        <ele>1948</ele>
        <time>2020-07-11T11:33:42.127Z</time>
      </trkpt>
      <trkpt lat="42.292128" lon="1.730375">
        <ele>1948</ele>
        <time>2020-07-11T11:33:50.127Z</time>
      </trkpt>
      <trkpt lat="42.292175" lon="1.730488">
        <ele>1946</ele>
        <time>2020-07-11T11:33:57.127Z</time>
      </trkpt>
      <trkpt lat="42.292177" lon="1.73059">
        <ele>1944</ele>
        <time>2020-07-11T11:34:03.127Z</time>
      </trkpt>
      <trkpt lat="42.292169" lon="1.73068">
        <ele>1944</ele>
        <time>2020-07-11T11:34:09.127Z</time>
      </trkpt>
      <trkpt lat="42.292176" lon="1.730758">
        <ele>1943.09299319031</ele>
        <time>2020-07-11T11:34:27.127Z</time>
      </trkpt>
      <trkpt lat="42.292207" lon="1.730778">
        <ele>1945</ele>
        <time>2020-07-11T11:34:42.127Z</time>
      </trkpt>
      <trkpt lat="42.292209" lon="1.730819">
        <ele>1945</ele>
        <time>2020-07-11T11:34:47.127Z</time>
      </trkpt>
      <trkpt lat="42.292196" lon="1.730865">
        <ele>1947</ele>
        <time>2020-07-11T11:34:52.127Z</time>
      </trkpt>
      <trkpt lat="42.292166" lon="1.730894">
        <ele>1947</ele>
        <time>2020-07-11T11:34:57.127Z</time>
      </trkpt>
      <trkpt lat="42.29221" lon="1.730889">
        <ele>1948</ele>
        <time>2020-07-11T11:35:09.127Z</time>
      </trkpt>
      <trkpt lat="42.292241" lon="1.730861">
        <ele>1949</ele>
        <time>2020-07-11T11:35:14.127Z</time>
      </trkpt>
      <trkpt lat="42.292271" lon="1.730868">
        <ele>1949</ele>
        <time>2020-07-11T11:35:19.127Z</time>
      </trkpt>
      <trkpt lat="42.292298" lon="1.730916">
        <ele>1950</ele>
        <time>2020-07-11T11:35:25.127Z</time>
      </trkpt>
      <trkpt lat="42.292357" lon="1.730975">
        <ele>1952</ele>
        <time>2020-07-11T11:35:33.127Z</time>
      </trkpt>
      <trkpt lat="42.292398" lon="1.731074">
        <ele>1953.81401361937</ele>
        <time>2020-07-11T11:35:41.127Z</time>
      </trkpt>
      <trkpt lat="42.292485" lon="1.731148">
        <ele>1954</ele>
        <time>2020-07-11T11:35:54.127Z</time>
      </trkpt>
      <trkpt lat="42.292562" lon="1.731207">
        <ele>1954</ele>
        <time>2020-07-11T11:36:05.127Z</time>
      </trkpt>
      <trkpt lat="42.292639" lon="1.731308">
        <ele>1955</ele>
        <time>2020-07-11T11:36:20.127Z</time>
      </trkpt>
      <trkpt lat="42.292724" lon="1.731389">
        <ele>1956</ele>
        <time>2020-07-11T11:36:29.127Z</time>
      </trkpt>
      <trkpt lat="42.292783" lon="1.731458">
        <ele>1957</ele>
        <time>2020-07-11T11:36:40.127Z</time>
      </trkpt>
      <trkpt lat="42.292855" lon="1.731487">
        <ele>1958</ele>
        <time>2020-07-11T11:36:48.127Z</time>
      </trkpt>
      <trkpt lat="42.292881" lon="1.731457">
        <ele>1959</ele>
        <time>2020-07-11T11:36:58.127Z</time>
      </trkpt>
      <trkpt lat="42.292912" lon="1.731403">
        <ele>1961</ele>
        <time>2020-07-11T11:37:04.127Z</time>
      </trkpt>
      <trkpt lat="42.293007" lon="1.731339">
        <ele>1963</ele>
        <time>2020-07-11T11:37:20.127Z</time>
      </trkpt>
      <trkpt lat="42.293104" lon="1.731281">
        <ele>1965</ele>
        <time>2020-07-11T11:37:36.127Z</time>
      </trkpt>
      <trkpt lat="42.293211" lon="1.731283">
        <ele>1968</ele>
        <time>2020-07-11T11:37:56.127Z</time>
      </trkpt>
      <trkpt lat="42.293292" lon="1.73139">
        <ele>1970</ele>
        <time>2020-07-11T11:38:32.127Z</time>
      </trkpt>
      <trkpt lat="42.293323" lon="1.731505">
        <ele>1970</ele>
        <time>2020-07-11T11:38:40.127Z</time>
      </trkpt>
      <trkpt lat="42.293325" lon="1.73163">
        <ele>1972</ele>
        <time>2020-07-11T11:38:52.127Z</time>
      </trkpt>
      <trkpt lat="42.29338" lon="1.731753">
        <ele>1975</ele>
        <time>2020-07-11T11:39:28.127Z</time>
      </trkpt>
      <trkpt lat="42.293485" lon="1.731828">
        <ele>1978</ele>
        <time>2020-07-11T11:39:48.127Z</time>
      </trkpt>
      <trkpt lat="42.293446" lon="1.731959">
        <ele>1982</ele>
        <time>2020-07-11T11:40:04.127Z</time>
      </trkpt>
      <trkpt lat="42.293503" lon="1.732093">
        <ele>1986</ele>
        <time>2020-07-11T11:40:28.127Z</time>
      </trkpt>
      <trkpt lat="42.293583" lon="1.732224">
        <ele>1989</ele>
        <time>2020-07-11T11:40:48.127Z</time>
      </trkpt>
      <trkpt lat="42.293609" lon="1.732385">
        <ele>1993</ele>
        <time>2020-07-11T11:41:12.127Z</time>
      </trkpt>
      <trkpt lat="42.293558" lon="1.732506">
        <ele>1997</ele>
        <time>2020-07-11T11:41:32.127Z</time>
      </trkpt>
      <trkpt lat="42.293461" lon="1.732596">
        <ele>1998</ele>
        <time>2020-07-11T11:41:48.127Z</time>
      </trkpt>
      <trkpt lat="42.293428" lon="1.732733">
        <ele>2005</ele>
        <time>2020-07-11T11:42:20.127Z</time>
      </trkpt>
      <trkpt lat="42.29348" lon="1.732864">
        <ele>2010</ele>
        <time>2020-07-11T11:42:44.127Z</time>
      </trkpt>
      <trkpt lat="42.293546" lon="1.73298">
        <ele>2011</ele>
        <time>2020-07-11T11:43:00.127Z</time>
      </trkpt>
      <trkpt lat="42.29346" lon="1.733062">
        <ele>2016</ele>
        <time>2020-07-11T11:43:16.127Z</time>
      </trkpt>
      <trkpt lat="42.293457" lon="1.733208">
        <ele>2022</ele>
        <time>2020-07-11T11:43:48.127Z</time>
      </trkpt>
      <trkpt lat="42.293427" lon="1.733359">
        <ele>2026</ele>
        <time>2020-07-11T11:44:20.127Z</time>
      </trkpt>
      <trkpt lat="42.29341" lon="1.733497">
        <ele>2034</ele>
        <time>2020-07-11T11:44:52.127Z</time>
      </trkpt>
      <trkpt lat="42.293502" lon="1.733566">
        <ele>2037</ele>
        <time>2020-07-11T11:45:16.127Z</time>
      </trkpt>
      <trkpt lat="42.293611" lon="1.733685">
        <ele>2041</ele>
        <time>2020-07-11T11:45:40.127Z</time>
      </trkpt>
      <trkpt lat="42.293704" lon="1.733733">
        <ele>2043</ele>
        <time>2020-07-11T11:45:53.133Z</time>
      </trkpt>
      <trkpt lat="42.29362" lon="1.733757">
        <ele>2045</ele>
        <time>2020-07-11T11:46:14.130Z</time>
      </trkpt>
      <trkpt lat="42.293684" lon="1.733862">
        <ele>2049</ele>
        <time>2020-07-11T11:46:43.127Z</time>
      </trkpt>
      <trkpt lat="42.293788" lon="1.733883">
        <ele>2050</ele>
        <time>2020-07-11T11:47:00.127Z</time>
      </trkpt>
      <trkpt lat="42.29383" lon="1.733994">
        <ele>2054</ele>
        <time>2020-07-11T11:47:15.133Z</time>
      </trkpt>
      <trkpt lat="42.293726" lon="1.734007">
        <ele>2056</ele>
        <time>2020-07-11T11:47:25.127Z</time>
      </trkpt>
      <trkpt lat="42.293776" lon="1.734126">
        <ele>2059</ele>
        <time>2020-07-11T11:47:46.132Z</time>
      </trkpt>
      <trkpt lat="42.293846" lon="1.734232">
        <ele>2061</ele>
        <time>2020-07-11T11:47:54.123Z</time>
      </trkpt>
      <trkpt lat="42.293799" lon="1.734356">
        <ele>2062</ele>
        <time>2020-07-11T11:48:09.127Z</time>
      </trkpt>
      <trkpt lat="42.2937" lon="1.734385">
        <ele>2063</ele>
        <time>2020-07-11T11:48:20.120Z</time>
      </trkpt>
      <trkpt lat="42.293679" lon="1.734529">
        <ele>2068</ele>
        <time>2020-07-11T11:48:44.027Z</time>
      </trkpt>
      <trkpt lat="42.293574" lon="1.734515">
        <ele>2070</ele>
        <time>2020-07-11T11:48:51.230Z</time>
      </trkpt>
      <trkpt lat="42.293476" lon="1.734481">
        <ele>2073</ele>
        <time>2020-07-11T11:49:08.127Z</time>
      </trkpt>
      <trkpt lat="42.293424" lon="1.734604">
        <ele>2077.90700680969</ele>
        <time>2020-07-11T11:49:41.127Z</time>
      </trkpt>
      <trkpt lat="42.293484" lon="1.734714">
        <ele>2082</ele>
        <time>2020-07-11T11:49:58.127Z</time>
      </trkpt>
      <trkpt lat="42.293491" lon="1.734856">
        <ele>2084</ele>
        <time>2020-07-11T11:50:17.127Z</time>
      </trkpt>
      <trkpt lat="42.293554" lon="1.734974">
        <ele>2087</ele>
        <time>2020-07-11T11:50:34.127Z</time>
      </trkpt>
      <trkpt lat="42.293472" lon="1.735084">
        <ele>2089</ele>
        <time>2020-07-11T11:50:43.125Z</time>
      </trkpt>
      <trkpt lat="42.293569" lon="1.735144">
        <ele>2092</ele>
        <time>2020-07-11T11:50:57.127Z</time>
      </trkpt>
      <trkpt lat="42.293585" lon="1.735283">
        <ele>2096</ele>
        <time>2020-07-11T11:51:23.227Z</time>
      </trkpt>
      <trkpt lat="42.293592" lon="1.735432">
        <ele>2097</ele>
        <time>2020-07-11T11:51:54.227Z</time>
      </trkpt>
      <trkpt lat="42.293665" lon="1.735536">
        <ele>2099</ele>
        <time>2020-07-11T11:52:04.127Z</time>
      </trkpt>
      <trkpt lat="42.293686" lon="1.735651">
        <ele>2099</ele>
        <time>2020-07-11T11:52:15.127Z</time>
      </trkpt>
      <trkpt lat="42.293628" lon="1.735769">
        <ele>2102</ele>
        <time>2020-07-11T11:52:28.127Z</time>
      </trkpt>
      <trkpt lat="42.293616" lon="1.73591">
        <ele>2107</ele>
        <time>2020-07-11T11:52:55.122Z</time>
      </trkpt>
      <trkpt lat="42.293545" lon="1.736012">
        <ele>2109</ele>
        <time>2020-07-11T11:53:04.127Z</time>
      </trkpt>
      <trkpt lat="42.293567" lon="1.736148">
        <ele>2110</ele>
        <time>2020-07-11T11:53:20.132Z</time>
      </trkpt>
      <trkpt lat="42.293622" lon="1.736269">
        <ele>2113</ele>
        <time>2020-07-11T11:53:40.127Z</time>
      </trkpt>
      <trkpt lat="42.29368" lon="1.7364">
        <ele>2111.18798320618</ele>
        <time>2020-07-11T11:53:51.126Z</time>
      </trkpt>
      <trkpt lat="42.293717" lon="1.736535">
        <ele>2111</ele>
        <time>2020-07-11T11:53:58.127Z</time>
      </trkpt>
      <trkpt lat="42.293751" lon="1.736666">
        <ele>2112.09299319031</ele>
        <time>2020-07-11T11:54:11.127Z</time>
      </trkpt>
      <trkpt lat="42.293816" lon="1.736792">
        <ele>2112.90000512007</ele>
        <time>2020-07-11T11:54:21.120Z</time>
      </trkpt>
      <trkpt lat="42.293836" lon="1.736936">
        <ele>2113</ele>
        <time>2020-07-11T11:54:29.127Z</time>
      </trkpt>
      <trkpt lat="42.293883" lon="1.73706">
        <ele>2114</ele>
        <time>2020-07-11T11:54:39.127Z</time>
      </trkpt>
      <trkpt lat="42.293952" lon="1.737166">
        <ele>2114</ele>
        <time>2020-07-11T11:54:47.126Z</time>
      </trkpt>
      <trkpt lat="42.293982" lon="1.737292">
        <ele>2114</ele>
        <time>2020-07-11T11:54:55.121Z</time>
      </trkpt>
      <trkpt lat="42.293959" lon="1.737429">
        <ele>2115</ele>
        <time>2020-07-11T11:55:04.127Z</time>
      </trkpt>
      <trkpt lat="42.293986" lon="1.737569">
        <ele>2116</ele>
        <time>2020-07-11T11:55:14.124Z</time>
      </trkpt>
      <trkpt lat="42.294047" lon="1.73772">
        <ele>2116</ele>
        <time>2020-07-11T11:55:23.132Z</time>
      </trkpt>
      <trkpt lat="42.293997" lon="1.737867">
        <ele>2116</ele>
        <time>2020-07-11T11:55:35.127Z</time>
      </trkpt>
      <trkpt lat="42.294015" lon="1.738039">
        <ele>2117</ele>
        <time>2020-07-11T11:55:48.126Z</time>
      </trkpt>
      <trkpt lat="42.29403" lon="1.73818">
        <ele>2119</ele>
        <time>2020-07-11T11:55:56.226Z</time>
      </trkpt>
      <trkpt lat="42.293835" lon="1.738259">
        <ele>2119</ele>
        <time>2020-07-11T11:56:08.127Z</time>
      </trkpt>
      <trkpt lat="42.293862" lon="1.738397">
        <ele>2119</ele>
        <time>2020-07-11T11:56:20.135Z</time>
      </trkpt>
      <trkpt lat="42.293828" lon="1.73856">
        <ele>2120</ele>
        <time>2020-07-11T11:56:32.127Z</time>
      </trkpt>
      <trkpt lat="42.29381" lon="1.738703">
        <ele>2122</ele>
        <time>2020-07-11T11:56:44.127Z</time>
      </trkpt>
      <trkpt lat="42.293916" lon="1.738773">
        <ele>2122</ele>
        <time>2020-07-11T11:56:56.230Z</time>
      </trkpt>
      <trkpt lat="42.293908" lon="1.738916">
        <ele>2121</ele>
        <time>2020-07-11T11:57:04.127Z</time>
      </trkpt>
      <trkpt lat="42.29394" lon="1.739065">
        <ele>2123</ele>
        <time>2020-07-11T11:57:16.128Z</time>
      </trkpt>
      <trkpt lat="42.293959" lon="1.739229">
        <ele>2123</ele>
        <time>2020-07-11T11:57:28.127Z</time>
      </trkpt>
      <trkpt lat="42.293947" lon="1.739391">
        <ele>2125</ele>
        <time>2020-07-11T11:57:40.127Z</time>
      </trkpt>
      <trkpt lat="42.294" lon="1.73958">
        <ele>2125</ele>
        <time>2020-07-11T11:57:52.125Z</time>
      </trkpt>
      <trkpt lat="42.294014" lon="1.739716">
        <ele>2126</ele>
        <time>2020-07-11T11:58:04.127Z</time>
      </trkpt>
      <trkpt lat="42.294074" lon="1.739842">
        <ele>2127</ele>
        <time>2020-07-11T11:58:16.124Z</time>
      </trkpt>
      <trkpt lat="42.294156" lon="1.73997">
        <ele>2128</ele>
        <time>2020-07-11T11:58:24.121Z</time>
      </trkpt>
      <trkpt lat="42.294194" lon="1.740119">
        <ele>2130</ele>
        <time>2020-07-11T11:58:36.128Z</time>
      </trkpt>
      <trkpt lat="42.294134" lon="1.740256">
        <ele>2134</ele>
        <time>2020-07-11T11:58:52.134Z</time>
      </trkpt>
      <trkpt lat="42.294207" lon="1.74036">
        <ele>2135</ele>
        <time>2020-07-11T11:59:08.124Z</time>
      </trkpt>
      <trkpt lat="42.294196" lon="1.740544">
        <ele>2136</ele>
        <time>2020-07-11T11:59:20.132Z</time>
      </trkpt>
      <trkpt lat="42.294223" lon="1.740744">
        <ele>2136</ele>
        <time>2020-07-11T11:59:32.127Z</time>
      </trkpt>
      <trkpt lat="42.294268" lon="1.740898">
        <ele>2136</ele>
        <time>2020-07-11T11:59:44.136Z</time>
      </trkpt>
      <trkpt lat="42.294276" lon="1.741014">
        <ele>2136</ele>
        <time>2020-07-11T11:59:56.232Z</time>
      </trkpt>
      <trkpt lat="42.294446" lon="1.741097">
        <ele>2137</ele>
        <time>2020-07-11T12:00:12.127Z</time>
      </trkpt>
      <trkpt lat="42.294511" lon="1.741238">
        <ele>2138</ele>
        <time>2020-07-11T12:00:24.129Z</time>
      </trkpt>
      <trkpt lat="42.294474" lon="1.741363">
        <ele>2139</ele>
        <time>2020-07-11T12:00:36.127Z</time>
      </trkpt>
      <trkpt lat="42.294521" lon="1.741494">
        <ele>2141</ele>
        <time>2020-07-11T12:00:48.225Z</time>
      </trkpt>
      <trkpt lat="42.29454" lon="1.741661">
        <ele>2144</ele>
        <time>2020-07-11T12:01:04.121Z</time>
      </trkpt>
      <trkpt lat="42.294616" lon="1.741775">
        <ele>2145</ele>
        <time>2020-07-11T12:01:16.130Z</time>
      </trkpt>
      <trkpt lat="42.294564" lon="1.741922">
        <ele>2146</ele>
        <time>2020-07-11T12:01:28.127Z</time>
      </trkpt>
      <trkpt lat="42.294596" lon="1.742062">
        <ele>2149</ele>
        <time>2020-07-11T12:01:48.128Z</time>
      </trkpt>
      <trkpt lat="42.294649" lon="1.742233">
        <ele>2150</ele>
        <time>2020-07-11T12:02:00.126Z</time>
      </trkpt>
      <trkpt lat="42.294774" lon="1.742255">
        <ele>2150</ele>
        <time>2020-07-11T12:02:48.127Z</time>
      </trkpt>
      <trkpt lat="42.294816" lon="1.74243">
        <ele>2151</ele>
        <time>2020-07-11T12:02:56.230Z</time>
      </trkpt>
      <trkpt lat="42.294843" lon="1.742556">
        <ele>2151</ele>
        <time>2020-07-11T12:03:08.127Z</time>
      </trkpt>
      <trkpt lat="42.294847" lon="1.74271">
        <ele>2154</ele>
        <time>2020-07-11T12:03:28.127Z</time>
      </trkpt>
      <trkpt lat="42.294892" lon="1.742801">
        <ele>2156</ele>
        <time>2020-07-11T12:03:40.127Z</time>
      </trkpt>
      <trkpt lat="42.294937" lon="1.742941">
        <ele>2156</ele>
        <time>2020-07-11T12:03:52.122Z</time>
      </trkpt>
      <trkpt lat="42.295003" lon="1.743063">
        <ele>2156</ele>
        <time>2020-07-11T12:04:00.123Z</time>
      </trkpt>
      <trkpt lat="42.295108" lon="1.743204">
        <ele>2161</ele>
        <time>2020-07-11T12:04:20.121Z</time>
      </trkpt>
      <trkpt lat="42.295116" lon="1.743345">
        <ele>2162</ele>
        <time>2020-07-11T12:04:32.127Z</time>
      </trkpt>
      <trkpt lat="42.295085" lon="1.743515">
        <ele>2162</ele>
        <time>2020-07-11T12:04:44.130Z</time>
      </trkpt>
      <trkpt lat="42.295079" lon="1.743662">
        <ele>2162</ele>
        <time>2020-07-11T12:05:04.123Z</time>
      </trkpt>
      <trkpt lat="42.295031" lon="1.74379">
        <ele>2159</ele>
        <time>2020-07-11T12:05:55.126Z</time>
      </trkpt>
      <trkpt lat="42.294963" lon="1.743862">
        <ele>2156.30594631587</ele>
        <time>2020-07-11T12:06:01.127Z</time>
      </trkpt>
      <trkpt lat="42.294982" lon="1.74399">
        <ele>2158</ele>
        <time>2020-07-11T12:06:10.127Z</time>
      </trkpt>
      <trkpt lat="42.295006" lon="1.744126">
        <ele>2158</ele>
        <time>2020-07-11T12:06:24.235Z</time>
      </trkpt>
      <trkpt lat="42.294913" lon="1.7442">
        <ele>2154</ele>
        <time>2020-07-11T12:06:46.127Z</time>
      </trkpt>
      <trkpt lat="42.294843" lon="1.744298">
        <ele>2153</ele>
        <time>2020-07-11T12:06:58.126Z</time>
      </trkpt>
      <trkpt lat="42.294788" lon="1.744439">
        <ele>2150</ele>
        <time>2020-07-11T12:07:07.127Z</time>
      </trkpt>
      <trkpt lat="42.29475" lon="1.744566">
        <ele>2146.09300360955</ele>
        <time>2020-07-11T12:07:16.127Z</time>
      </trkpt>
      <trkpt lat="42.294722" lon="1.744683">
        <ele>2146</ele>
        <time>2020-07-11T12:07:25.123Z</time>
      </trkpt>
      <trkpt lat="42.294662" lon="1.744777">
        <ele>2145</ele>
        <time>2020-07-11T12:07:33.127Z</time>
      </trkpt>
      <trkpt lat="42.294598" lon="1.744854">
        <ele>2138.18600721911</ele>
        <time>2020-07-11T12:07:42.127Z</time>
      </trkpt>
      <trkpt lat="42.294545" lon="1.744977">
        <ele>2134</ele>
        <time>2020-07-11T12:07:52.123Z</time>
      </trkpt>
      <trkpt lat="42.294485" lon="1.745098">
        <ele>2131</ele>
        <time>2020-07-11T12:08:03.127Z</time>
      </trkpt>
      <trkpt lat="42.294385" lon="1.74516">
        <ele>2129</ele>
        <time>2020-07-11T12:08:12.127Z</time>
      </trkpt>
      <trkpt lat="42.294298" lon="1.745251">
        <ele>2130</ele>
        <time>2020-07-11T12:08:24.128Z</time>
      </trkpt>
      <trkpt lat="42.294267" lon="1.745393">
        <ele>2129</ele>
        <time>2020-07-11T12:08:33.128Z</time>
      </trkpt>
      <trkpt lat="42.29421" lon="1.745502">
        <ele>2126.28800368645</ele>
        <time>2020-07-11T12:08:41.124Z</time>
      </trkpt>
      <trkpt lat="42.294189" lon="1.745637">
        <ele>2125</ele>
        <time>2020-07-11T12:08:48.122Z</time>
      </trkpt>
      <trkpt lat="42.29413" lon="1.745765">
        <ele>2124</ele>
        <time>2020-07-11T12:08:58.125Z</time>
      </trkpt>
      <trkpt lat="42.294126" lon="1.745904">
        <ele>2120</ele>
        <time>2020-07-11T12:09:11.124Z</time>
      </trkpt>
      <trkpt lat="42.294144" lon="1.746056">
        <ele>2120</ele>
        <time>2020-07-11T12:09:20.118Z</time>
      </trkpt>
      <trkpt lat="42.294107" lon="1.746193">
        <ele>2120</ele>
        <time>2020-07-11T12:09:25.131Z</time>
      </trkpt>
      <trkpt lat="42.294026" lon="1.746291">
        <ele>2121</ele>
        <time>2020-07-11T12:09:32.123Z</time>
      </trkpt>
      <trkpt lat="42.293973" lon="1.746405">
        <ele>2121</ele>
        <time>2020-07-11T12:09:39.125Z</time>
      </trkpt>
      <trkpt lat="42.293945" lon="1.746545">
        <ele>2121</ele>
        <time>2020-07-11T12:09:48.220Z</time>
      </trkpt>
      <trkpt lat="42.293928" lon="1.746687">
        <ele>2119</ele>
        <time>2020-07-11T12:10:01.234Z</time>
      </trkpt>
      <trkpt lat="42.293846" lon="1.746793">
        <ele>2118</ele>
        <time>2020-07-11T12:10:14.127Z</time>
      </trkpt>
      <trkpt lat="42.293769" lon="1.746895">
        <ele>2119</ele>
        <time>2020-07-11T12:10:23.124Z</time>
      </trkpt>
      <trkpt lat="42.293696" lon="1.746991">
        <ele>2118</ele>
        <time>2020-07-11T12:10:33.124Z</time>
      </trkpt>
      <trkpt lat="42.29362" lon="1.747098">
        <ele>2118</ele>
        <time>2020-07-11T12:10:38.127Z</time>
      </trkpt>
      <trkpt lat="42.293593" lon="1.747238">
        <ele>2118</ele>
        <time>2020-07-11T12:10:48.121Z</time>
      </trkpt>
      <trkpt lat="42.293442" lon="1.74743">
        <ele>2118</ele>
        <time>2020-07-11T12:10:56.129Z</time>
      </trkpt>
      <trkpt lat="42.293481" lon="1.747565">
        <ele>2118</ele>
        <time>2020-07-11T12:11:03.127Z</time>
      </trkpt>
      <trkpt lat="42.293527" lon="1.747744">
        <ele>2118</ele>
        <time>2020-07-11T12:11:16.122Z</time>
      </trkpt>
      <trkpt lat="42.293523" lon="1.74789">
        <ele>2117</ele>
        <time>2020-07-11T12:11:24.122Z</time>
      </trkpt>
      <trkpt lat="42.293372" lon="1.747936">
        <ele>2117</ele>
        <time>2020-07-11T12:11:36.120Z</time>
      </trkpt>
      <trkpt lat="42.293243" lon="1.748027">
        <ele>2117</ele>
        <time>2020-07-11T12:11:44.120Z</time>
      </trkpt>
      <trkpt lat="42.293139" lon="1.748104">
        <ele>2117</ele>
        <time>2020-07-11T12:11:52.122Z</time>
      </trkpt>
      <trkpt lat="42.293039" lon="1.748127">
        <ele>2119</ele>
        <time>2020-07-11T12:12:04.130Z</time>
      </trkpt>
      <trkpt lat="42.29293" lon="1.748159">
        <ele>2120</ele>
        <time>2020-07-11T12:12:12.125Z</time>
      </trkpt>
      <trkpt lat="42.292827" lon="1.748082">
        <ele>2120</ele>
        <time>2020-07-11T12:12:20.130Z</time>
      </trkpt>
      <trkpt lat="42.292721" lon="1.748059">
        <ele>2120</ele>
        <time>2020-07-11T12:12:28.130Z</time>
      </trkpt>
      <trkpt lat="42.2926" lon="1.747985">
        <ele>2125</ele>
        <time>2020-07-11T12:12:40.130Z</time>
      </trkpt>
      <trkpt lat="42.292524" lon="1.747826">
        <ele>2128</ele>
        <time>2020-07-11T12:12:56.231Z</time>
      </trkpt>
      <trkpt lat="42.292506" lon="1.747691">
        <ele>2132</ele>
        <time>2020-07-11T12:13:20.131Z</time>
      </trkpt>
      <trkpt lat="42.292454" lon="1.747575">
        <ele>2137</ele>
        <time>2020-07-11T12:13:52.123Z</time>
      </trkpt>
      <trkpt lat="42.292335" lon="1.74755">
        <ele>2137</ele>
        <time>2020-07-11T12:14:00.122Z</time>
      </trkpt>
      <trkpt lat="42.292276" lon="1.747427">
        <ele>2141.81399278089</ele>
        <time>2020-07-11T12:14:16.127Z</time>
      </trkpt>
      <trkpt lat="42.292191" lon="1.747343">
        <ele>2143</ele>
        <time>2020-07-11T12:14:28.122Z</time>
      </trkpt>
      <trkpt lat="42.292117" lon="1.747243">
        <ele>2148</ele>
        <time>2020-07-11T12:14:52.125Z</time>
      </trkpt>
      <trkpt lat="42.29206" lon="1.74713">
        <ele>2153</ele>
        <time>2020-07-11T12:15:15.124Z</time>
      </trkpt>
      <trkpt lat="42.29196" lon="1.747153">
        <ele>2155.78217119104</ele>
        <time>2020-07-11T12:15:31.120Z</time>
      </trkpt>
      <trkpt lat="42.291894" lon="1.74705">
        <ele>2158</ele>
        <time>2020-07-11T12:15:43.122Z</time>
      </trkpt>
      <trkpt lat="42.291816" lon="1.746964">
        <ele>2159</ele>
        <time>2020-07-11T12:15:56.126Z</time>
      </trkpt>
      <trkpt lat="42.291806" lon="1.746817">
        <ele>2162</ele>
        <time>2020-07-11T12:16:08.124Z</time>
      </trkpt>
      <trkpt lat="42.291884" lon="1.746698">
        <ele>2165</ele>
        <time>2020-07-11T12:16:29.121Z</time>
      </trkpt>
      <trkpt lat="42.291813" lon="1.746598">
        <ele>2171</ele>
        <time>2020-07-11T12:16:59.123Z</time>
      </trkpt>
      <trkpt lat="42.291887" lon="1.746501">
        <ele>2176</ele>
        <time>2020-07-11T12:17:27.127Z</time>
      </trkpt>
      <trkpt lat="42.291984" lon="1.746471">
        <ele>2178</ele>
        <time>2020-07-11T12:17:46.125Z</time>
      </trkpt>
      <trkpt lat="42.291985" lon="1.746326">
        <ele>2182</ele>
        <time>2020-07-11T12:18:05.122Z</time>
      </trkpt>
      <trkpt lat="42.291883" lon="1.74634">
        <ele>2185</ele>
        <time>2020-07-11T12:18:23.127Z</time>
      </trkpt>
      <trkpt lat="42.291784" lon="1.74632">
        <ele>2188</ele>
        <time>2020-07-11T12:18:35.124Z</time>
      </trkpt>
      <trkpt lat="42.291706" lon="1.74623">
        <ele>2189</ele>
        <time>2020-07-11T12:18:46.122Z</time>
      </trkpt>
      <trkpt lat="42.291603" lon="1.746228">
        <ele>2190</ele>
        <time>2020-07-11T12:19:05.122Z</time>
      </trkpt>
      <trkpt lat="42.291508" lon="1.746141">
        <ele>2194</ele>
        <time>2020-07-11T12:19:20.124Z</time>
      </trkpt>
      <trkpt lat="42.291409" lon="1.746111">
        <ele>2196</ele>
        <time>2020-07-11T12:19:39.127Z</time>
      </trkpt>
      <trkpt lat="42.291322" lon="1.746028">
        <ele>2199.80600071681</ele>
        <time>2020-07-11T12:19:51.123Z</time>
      </trkpt>
      <trkpt lat="42.29122" lon="1.746025">
        <ele>2204</ele>
        <time>2020-07-11T12:20:09.121Z</time>
      </trkpt>
      <trkpt lat="42.291119" lon="1.746056">
        <ele>2204</ele>
        <time>2020-07-11T12:20:25.127Z</time>
      </trkpt>
      <trkpt lat="42.291002" lon="1.746096">
        <ele>2207</ele>
        <time>2020-07-11T12:20:39.119Z</time>
      </trkpt>
      <trkpt lat="42.291022" lon="1.746227">
        <ele>2212</ele>
        <time>2020-07-11T12:21:02.128Z</time>
      </trkpt>
      <trkpt lat="42.290963" lon="1.746335">
        <ele>2212</ele>
        <time>2020-07-11T12:21:09.126Z</time>
      </trkpt>
      <trkpt lat="42.290905" lon="1.746466">
        <ele>2213.90200194562</ele>
        <time>2020-07-11T12:21:21.122Z</time>
      </trkpt>
      <trkpt lat="42.290825" lon="1.746577">
        <ele>2214</ele>
        <time>2020-07-11T12:21:30.121Z</time>
      </trkpt>
      <trkpt lat="42.290803" lon="1.746708">
        <ele>2213</ele>
        <time>2020-07-11T12:21:39.127Z</time>
      </trkpt>
      <trkpt lat="42.290765" lon="1.746854">
        <ele>2213</ele>
        <time>2020-07-11T12:21:47.127Z</time>
      </trkpt>
      <trkpt lat="42.290696" lon="1.746967">
        <ele>2212</ele>
        <time>2020-07-11T12:21:59.127Z</time>
      </trkpt>
      <trkpt lat="42.290737" lon="1.74711">
        <ele>2210</ele>
        <time>2020-07-11T12:22:09.124Z</time>
      </trkpt>
      <trkpt lat="42.29094" lon="1.747223">
        <ele>2209</ele>
        <time>2020-07-11T12:22:19.121Z</time>
      </trkpt>
      <trkpt lat="42.290961" lon="1.747359">
        <ele>2206.18798320618</ele>
        <time>2020-07-11T12:22:31.126Z</time>
      </trkpt>
      <trkpt lat="42.29092" lon="1.747483">
        <ele>2204.09299319031</ele>
        <time>2020-07-11T12:22:41.127Z</time>
      </trkpt>
      <trkpt lat="42.29088" lon="1.747613">
        <ele>2204</ele>
        <time>2020-07-11T12:22:48.120Z</time>
      </trkpt>
      <trkpt lat="42.290911" lon="1.747745">
        <ele>2203</ele>
        <time>2020-07-11T12:22:59.124Z</time>
      </trkpt>
      <trkpt lat="42.290921" lon="1.747884">
        <ele>2202</ele>
        <time>2020-07-11T12:23:08.127Z</time>
      </trkpt>
      <trkpt lat="42.290957" lon="1.748015">
        <ele>2198.09300360955</ele>
        <time>2020-07-11T12:23:16.127Z</time>
      </trkpt>
      <trkpt lat="42.290948" lon="1.748165">
        <ele>2198</ele>
        <time>2020-07-11T12:23:22.125Z</time>
      </trkpt>
      <trkpt lat="42.290937" lon="1.748298">
        <ele>2198</ele>
        <time>2020-07-11T12:23:30.123Z</time>
      </trkpt>
      <trkpt lat="42.290971" lon="1.748438">
        <ele>2195</ele>
        <time>2020-07-11T12:23:44.128Z</time>
      </trkpt>
      <trkpt lat="42.291028" lon="1.748547">
        <ele>2193</ele>
        <time>2020-07-11T12:23:50.120Z</time>
      </trkpt>
      <trkpt lat="42.291064" lon="1.748681">
        <ele>2191</ele>
        <time>2020-07-11T12:23:57.132Z</time>
      </trkpt>
      <trkpt lat="42.291084" lon="1.74882">
        <ele>2190</ele>
        <time>2020-07-11T12:24:10.119Z</time>
      </trkpt>
      <trkpt lat="42.29108" lon="1.748963">
        <ele>2190</ele>
        <time>2020-07-11T12:24:18.130Z</time>
      </trkpt>
      <trkpt lat="42.291061" lon="1.749097">
        <ele>2189</ele>
        <time>2020-07-11T12:24:25.123Z</time>
      </trkpt>
      <trkpt lat="42.291011" lon="1.749238">
        <ele>2188</ele>
        <time>2020-07-11T12:24:32.119Z</time>
      </trkpt>
      <trkpt lat="42.290993" lon="1.749375">
        <ele>2186</ele>
        <time>2020-07-11T12:24:45.122Z</time>
      </trkpt>
      <trkpt lat="42.291022" lon="1.749516">
        <ele>2183</ele>
        <time>2020-07-11T12:24:57.130Z</time>
      </trkpt>
      <trkpt lat="42.291056" lon="1.749655">
        <ele>2182</ele>
        <time>2020-07-11T12:25:05.123Z</time>
      </trkpt>
      <trkpt lat="42.291043" lon="1.749792">
        <ele>2182</ele>
        <time>2020-07-11T12:25:12.124Z</time>
      </trkpt>
      <trkpt lat="42.291021" lon="1.749953">
        <ele>2182</ele>
        <time>2020-07-11T12:25:18.120Z</time>
      </trkpt>
      <trkpt lat="42.291005" lon="1.750086">
        <ele>2182</ele>
        <time>2020-07-11T12:25:25.125Z</time>
      </trkpt>
      <trkpt lat="42.290991" lon="1.750233">
        <ele>2181.09899646715</ele>
        <time>2020-07-11T12:25:31.121Z</time>
      </trkpt>
      <trkpt lat="42.290937" lon="1.750371">
        <ele>2181</ele>
        <time>2020-07-11T12:25:41.126Z</time>
      </trkpt>
      <trkpt lat="42.290926" lon="1.750541">
        <ele>2181</ele>
        <time>2020-07-11T12:25:49.126Z</time>
      </trkpt>
      <trkpt lat="42.291063" lon="1.750699">
        <ele>2180</ele>
        <time>2020-07-11T12:25:57.130Z</time>
      </trkpt>
      <trkpt lat="42.291158" lon="1.750845">
        <ele>2180</ele>
        <time>2020-07-11T12:26:05.129Z</time>
      </trkpt>
      <trkpt lat="42.291132" lon="1.750999">
        <ele>2179</ele>
        <time>2020-07-11T12:26:13.119Z</time>
      </trkpt>
      <trkpt lat="42.291066" lon="1.751113">
        <ele>2178.08698991347</ele>
        <time>2020-07-11T12:26:21.133Z</time>
      </trkpt>
      <trkpt lat="42.291114" lon="1.751245">
        <ele>2178</ele>
        <time>2020-07-11T12:26:29.120Z</time>
      </trkpt>
      <trkpt lat="42.29105" lon="1.751352">
        <ele>2179</ele>
        <time>2020-07-11T12:26:37.134Z</time>
      </trkpt>
      <trkpt lat="42.291135" lon="1.751564">
        <ele>2180</ele>
        <time>2020-07-11T12:26:53.123Z</time>
      </trkpt>
      <trkpt lat="42.291125" lon="1.75175">
        <ele>2181</ele>
        <time>2020-07-11T12:27:05.129Z</time>
      </trkpt>
      <trkpt lat="42.291193" lon="1.751902">
        <ele>2183</ele>
        <time>2020-07-11T12:27:13.127Z</time>
      </trkpt>
      <trkpt lat="42.291276" lon="1.7521">
        <ele>2184</ele>
        <time>2020-07-11T12:27:25.128Z</time>
      </trkpt>
      <trkpt lat="42.291347" lon="1.752276">
        <ele>2184</ele>
        <time>2020-07-11T12:27:37.127Z</time>
      </trkpt>
      <trkpt lat="42.291379" lon="1.75242">
        <ele>2184</ele>
        <time>2020-07-11T12:27:45.121Z</time>
      </trkpt>
      <trkpt lat="42.291478" lon="1.752461">
        <ele>2185</ele>
        <time>2020-07-11T12:28:29.120Z</time>
      </trkpt>
      <trkpt lat="42.291559" lon="1.752539">
        <ele>2182</ele>
        <time>2020-07-11T12:28:49.126Z</time>
      </trkpt>
      <trkpt lat="42.291639" lon="1.752682">
        <ele>2178</ele>
        <time>2020-07-11T12:29:26.131Z</time>
      </trkpt>
      <trkpt lat="42.29172" lon="1.752806">
        <ele>2177</ele>
        <time>2020-07-11T12:29:39.126Z</time>
      </trkpt>
      <trkpt lat="42.291757" lon="1.752933">
        <ele>2177</ele>
        <time>2020-07-11T12:29:46.126Z</time>
      </trkpt>
      <trkpt lat="42.291813" lon="1.753069">
        <ele>2178</ele>
        <time>2020-07-11T12:29:53.127Z</time>
      </trkpt>
      <trkpt lat="42.291809" lon="1.753206">
        <ele>2180</ele>
        <time>2020-07-11T12:30:04.127Z</time>
      </trkpt>
      <trkpt lat="42.291847" lon="1.753342">
        <ele>2180</ele>
        <time>2020-07-11T12:30:13.127Z</time>
      </trkpt>
      <trkpt lat="42.291887" lon="1.753469">
        <ele>2181</ele>
        <time>2020-07-11T12:30:24.127Z</time>
      </trkpt>
      <trkpt lat="42.291892" lon="1.753608">
        <ele>2182</ele>
        <time>2020-07-11T12:30:32.133Z</time>
      </trkpt>
      <trkpt lat="42.291871" lon="1.753747">
        <ele>2184</ele>
        <time>2020-07-11T12:30:52.128Z</time>
      </trkpt>
      <trkpt lat="42.291924" lon="1.753862">
        <ele>2184</ele>
        <time>2020-07-11T12:31:00.123Z</time>
      </trkpt>
      <trkpt lat="42.291977" lon="1.753986">
        <ele>2183</ele>
        <time>2020-07-11T12:31:06.120Z</time>
      </trkpt>
      <trkpt lat="42.291927" lon="1.754108">
        <ele>2184</ele>
        <time>2020-07-11T12:31:16.130Z</time>
      </trkpt>
      <trkpt lat="42.291937" lon="1.754247">
        <ele>2185</ele>
        <time>2020-07-11T12:31:23.127Z</time>
      </trkpt>
      <trkpt lat="42.292002" lon="1.754352">
        <ele>2185</ele>
        <time>2020-07-11T12:31:30.135Z</time>
      </trkpt>
      <trkpt lat="42.292034" lon="1.754485">
        <ele>2185</ele>
        <time>2020-07-11T12:31:39.127Z</time>
      </trkpt>
      <trkpt lat="42.291967" lon="1.754597">
        <ele>2187</ele>
        <time>2020-07-11T12:31:46.125Z</time>
      </trkpt>
      <trkpt lat="42.291916" lon="1.754744">
        <ele>2188</ele>
        <time>2020-07-11T12:31:54.132Z</time>
      </trkpt>
      <trkpt lat="42.291967" lon="1.754881">
        <ele>2189</ele>
        <time>2020-07-11T12:32:04.130Z</time>
      </trkpt>
      <trkpt lat="42.292079" lon="1.754941">
        <ele>2191</ele>
        <time>2020-07-11T12:32:16.131Z</time>
      </trkpt>
      <trkpt lat="42.292119" lon="1.755074">
        <ele>2190</ele>
        <time>2020-07-11T12:32:23.127Z</time>
      </trkpt>
      <trkpt lat="42.292144" lon="1.755207">
        <ele>2190</ele>
        <time>2020-07-11T12:32:35.128Z</time>
      </trkpt>
      <trkpt lat="42.292184" lon="1.755347">
        <ele>2192</ele>
        <time>2020-07-11T12:32:46.129Z</time>
      </trkpt>
      <trkpt lat="42.29221" lon="1.755484">
        <ele>2192</ele>
        <time>2020-07-11T12:32:53.126Z</time>
      </trkpt>
      <trkpt lat="42.292308" lon="1.755584">
        <ele>2192</ele>
        <time>2020-07-11T12:33:00.129Z</time>
      </trkpt>
      <trkpt lat="42.292362" lon="1.75576">
        <ele>2194</ele>
        <time>2020-07-11T12:33:12.127Z</time>
      </trkpt>
      <trkpt lat="42.292465" lon="1.755822">
        <ele>2193</ele>
        <time>2020-07-11T12:33:23.121Z</time>
      </trkpt>
      <trkpt lat="42.292415" lon="1.755952">
        <ele>2193</ele>
        <time>2020-07-11T12:33:29.132Z</time>
      </trkpt>
      <trkpt lat="42.292474" lon="1.756061">
        <ele>2192</ele>
        <time>2020-07-11T12:33:34.123Z</time>
      </trkpt>
      <trkpt lat="42.292486" lon="1.756194">
        <ele>2192</ele>
        <time>2020-07-11T12:33:43.130Z</time>
      </trkpt>
      <trkpt lat="42.292406" lon="1.75632">
        <ele>2192</ele>
        <time>2020-07-11T12:33:51.123Z</time>
      </trkpt>
      <trkpt lat="42.292354" lon="1.75644">
        <ele>2192</ele>
        <time>2020-07-11T12:33:56.125Z</time>
      </trkpt>
      <trkpt lat="42.292229" lon="1.756653">
        <ele>2194</ele>
        <time>2020-07-11T12:34:05.130Z</time>
      </trkpt>
      <trkpt lat="42.292357" lon="1.756725">
        <ele>2195</ele>
        <time>2020-07-11T12:34:20.127Z</time>
      </trkpt>
      <trkpt lat="42.292425" lon="1.756849">
        <ele>2195</ele>
        <time>2020-07-11T12:34:29.129Z</time>
      </trkpt>
      <trkpt lat="42.292328" lon="1.756936">
        <ele>2194</ele>
        <time>2020-07-11T12:34:35.121Z</time>
      </trkpt>
      <trkpt lat="42.292394" lon="1.757048">
        <ele>2193</ele>
        <time>2020-07-11T12:34:42.121Z</time>
      </trkpt>
      <trkpt lat="42.292455" lon="1.757164">
        <ele>2193</ele>
        <time>2020-07-11T12:34:52.128Z</time>
      </trkpt>
      <trkpt lat="42.292533" lon="1.757264">
        <ele>2193</ele>
        <time>2020-07-11T12:34:58.118Z</time>
      </trkpt>
      <trkpt lat="42.292518" lon="1.757401">
        <ele>2193</ele>
        <time>2020-07-11T12:35:04.124Z</time>
      </trkpt>
      <trkpt lat="42.29251" lon="1.757545">
        <ele>2194</ele>
        <time>2020-07-11T12:35:15.127Z</time>
      </trkpt>
      <trkpt lat="42.292535" lon="1.757681">
        <ele>2194</ele>
        <time>2020-07-11T12:35:24.127Z</time>
      </trkpt>
      <trkpt lat="42.292508" lon="1.757811">
        <ele>2195</ele>
        <time>2020-07-11T12:35:32.127Z</time>
      </trkpt>
      <trkpt lat="42.292461" lon="1.757947">
        <ele>2194</ele>
        <time>2020-07-11T12:35:48.128Z</time>
      </trkpt>
      <trkpt lat="42.292556" lon="1.75818">
        <ele>2193</ele>
        <time>2020-07-11T12:36:00.127Z</time>
      </trkpt>
      <trkpt lat="42.292643" lon="1.758414">
        <ele>2192</ele>
        <time>2020-07-11T12:36:14.119Z</time>
      </trkpt>
      <trkpt lat="42.292618" lon="1.758548">
        <ele>2192</ele>
        <time>2020-07-11T12:36:24.127Z</time>
      </trkpt>
      <trkpt lat="42.29258" lon="1.75868">
        <ele>2193</ele>
        <time>2020-07-11T12:36:33.135Z</time>
      </trkpt>
      <trkpt lat="42.292594" lon="1.75882">
        <ele>2193</ele>
        <time>2020-07-11T12:36:40.125Z</time>
      </trkpt>
      <trkpt lat="42.292598" lon="1.758954">
        <ele>2195</ele>
        <time>2020-07-11T12:36:48.126Z</time>
      </trkpt>
      <trkpt lat="42.292597" lon="1.7591">
        <ele>2197</ele>
        <time>2020-07-11T12:36:57.118Z</time>
      </trkpt>
      <trkpt lat="42.292629" lon="1.759238">
        <ele>2198</ele>
        <time>2020-07-11T12:37:05.127Z</time>
      </trkpt>
      <trkpt lat="42.292636" lon="1.759336">
        <ele>2198</ele>
        <time>2020-07-11T12:37:11.127Z</time>
      </trkpt>
      <trkpt lat="42.292647" lon="1.759414">
        <ele>2198</ele>
        <time>2020-07-11T12:37:16.127Z</time>
      </trkpt>
      <trkpt lat="42.292655" lon="1.759506">
        <ele>2199</ele>
        <time>2020-07-11T12:37:23.127Z</time>
      </trkpt>
      <trkpt lat="42.292669" lon="1.759569">
        <ele>2199</ele>
        <time>2020-07-11T12:37:28.127Z</time>
      </trkpt>
      <trkpt lat="42.292677" lon="1.759643">
        <ele>2199</ele>
        <time>2020-07-11T12:37:34.127Z</time>
      </trkpt>
      <trkpt lat="42.292694" lon="1.759705">
        <ele>2199</ele>
        <time>2020-07-11T12:37:40.127Z</time>
      </trkpt>
      <trkpt lat="42.292711" lon="1.759775">
        <ele>2198</ele>
        <time>2020-07-11T12:37:48.127Z</time>
      </trkpt>
      <trkpt lat="42.29272" lon="1.759845">
        <ele>2198</ele>
        <time>2020-07-11T12:37:54.127Z</time>
      </trkpt>
      <trkpt lat="42.292736" lon="1.75991">
        <ele>2198</ele>
        <time>2020-07-11T12:38:00.127Z</time>
      </trkpt>
      <trkpt lat="42.292756" lon="1.759963">
        <ele>2197</ele>
        <time>2020-07-11T12:38:06.127Z</time>
      </trkpt>
      <trkpt lat="42.292755" lon="1.760089">
        <ele>2197</ele>
        <time>2020-07-11T12:38:14.127Z</time>
      </trkpt>
      <trkpt lat="42.292768" lon="1.76016">
        <ele>2197</ele>
        <time>2020-07-11T12:38:19.127Z</time>
      </trkpt>
      <trkpt lat="42.292784" lon="1.760249">
        <ele>2197</ele>
        <time>2020-07-11T12:38:26.127Z</time>
      </trkpt>
      <trkpt lat="42.292814" lon="1.760329">
        <ele>2196</ele>
        <time>2020-07-11T12:38:32.127Z</time>
      </trkpt>
      <trkpt lat="42.292816" lon="1.760406">
        <ele>2196</ele>
        <time>2020-07-11T12:38:38.127Z</time>
      </trkpt>
      <trkpt lat="42.292835" lon="1.760473">
        <ele>2196</ele>
        <time>2020-07-11T12:38:44.127Z</time>
      </trkpt>
      <trkpt lat="42.292855" lon="1.760539">
        <ele>2196</ele>
        <time>2020-07-11T12:38:49.127Z</time>
      </trkpt>
      <trkpt lat="42.29288" lon="1.760603">
        <ele>2198</ele>
        <time>2020-07-11T12:38:54.127Z</time>
      </trkpt>
      <trkpt lat="42.292929" lon="1.760721">
        <ele>2198</ele>
        <time>2020-07-11T12:39:03.127Z</time>
      </trkpt>
      <trkpt lat="42.29295" lon="1.760789">
        <ele>2198</ele>
        <time>2020-07-11T12:39:08.127Z</time>
      </trkpt>
      <trkpt lat="42.292946" lon="1.76091">
        <ele>2199</ele>
        <time>2020-07-11T12:39:17.127Z</time>
      </trkpt>
      <trkpt lat="42.292938" lon="1.760989">
        <ele>2199</ele>
        <time>2020-07-11T12:39:24.127Z</time>
      </trkpt>
      <trkpt lat="42.292938" lon="1.761053">
        <ele>2199</ele>
        <time>2020-07-11T12:39:49.127Z</time>
      </trkpt>
      <trkpt lat="42.292946" lon="1.761115">
        <ele>2200</ele>
        <time>2020-07-11T12:39:54.127Z</time>
      </trkpt>
      <trkpt lat="42.292951" lon="1.76128">
        <ele>2198</ele>
        <time>2020-07-11T12:40:05.127Z</time>
      </trkpt>
      <trkpt lat="42.292919" lon="1.761356">
        <ele>2199</ele>
        <time>2020-07-11T12:40:13.127Z</time>
      </trkpt>
      <trkpt lat="42.292899" lon="1.761434">
        <ele>2197</ele>
        <time>2020-07-11T12:40:25.127Z</time>
      </trkpt>
      <trkpt lat="42.292889" lon="1.761534">
        <ele>2195</ele>
        <time>2020-07-11T12:40:33.127Z</time>
      </trkpt>
      <trkpt lat="42.292886" lon="1.761653">
        <ele>2194</ele>
        <time>2020-07-11T12:40:41.127Z</time>
      </trkpt>
      <trkpt lat="42.292886" lon="1.761783">
        <ele>2194</ele>
        <time>2020-07-11T12:40:49.127Z</time>
      </trkpt>
      <trkpt lat="42.292869" lon="1.761928">
        <ele>2194.09299319031</ele>
        <time>2020-07-11T12:41:01.127Z</time>
      </trkpt>
      <trkpt lat="42.29287" lon="1.762111">
        <ele>2192.09600122882</ele>
        <time>2020-07-11T12:41:21.124Z</time>
      </trkpt>
      <trkpt lat="42.292848" lon="1.762243">
        <ele>2192</ele>
        <time>2020-07-11T12:41:33.120Z</time>
      </trkpt>
      <trkpt lat="42.292796" lon="1.762368">
        <ele>2191</ele>
        <time>2020-07-11T12:41:49.132Z</time>
      </trkpt>
      <trkpt lat="42.292814" lon="1.76251">
        <ele>2185.09799805438</ele>
        <time>2020-07-11T12:42:01.122Z</time>
      </trkpt>
      <trkpt lat="42.292849" lon="1.762652">
        <ele>2185</ele>
        <time>2020-07-11T12:42:13.129Z</time>
      </trkpt>
      <trkpt lat="42.292846" lon="1.762879">
        <ele>2183</ele>
        <time>2020-07-11T12:42:25.127Z</time>
      </trkpt>
      <trkpt lat="42.292813" lon="1.763012">
        <ele>2181</ele>
        <time>2020-07-11T12:42:33.129Z</time>
      </trkpt>
      <trkpt lat="42.292776" lon="1.76319">
        <ele>2180</ele>
        <time>2020-07-11T12:42:45.127Z</time>
      </trkpt>
      <trkpt lat="42.292748" lon="1.763383">
        <ele>2175.37996006349</ele>
        <time>2020-07-11T12:43:01.125Z</time>
      </trkpt>
      <trkpt lat="42.292736" lon="1.763545">
        <ele>2174</ele>
        <time>2020-07-11T12:43:13.133Z</time>
      </trkpt>
      <trkpt lat="42.292742" lon="1.763688">
        <ele>2173</ele>
        <time>2020-07-11T12:43:25.125Z</time>
      </trkpt>
      <trkpt lat="42.292714" lon="1.763821">
        <ele>2172</ele>
        <time>2020-07-11T12:43:33.128Z</time>
      </trkpt>
      <trkpt lat="42.292643" lon="1.763943">
        <ele>2168.37596641237</ele>
        <time>2020-07-11T12:43:41.126Z</time>
      </trkpt>
      <trkpt lat="42.29261" lon="1.764121">
        <ele>2165</ele>
        <time>2020-07-11T12:43:53.126Z</time>
      </trkpt>
      <trkpt lat="42.292619" lon="1.764273">
        <ele>2160.26096974041</ele>
        <time>2020-07-11T12:44:01.133Z</time>
      </trkpt>
      <trkpt lat="42.292624" lon="1.764442">
        <ele>2162</ele>
        <time>2020-07-11T12:44:13.125Z</time>
      </trkpt>
      <trkpt lat="42.2926" lon="1.764611">
        <ele>2158</ele>
        <time>2020-07-11T12:44:25.127Z</time>
      </trkpt>
      <trkpt lat="42.292546" lon="1.764754">
        <ele>2156</ele>
        <time>2020-07-11T12:44:33.128Z</time>
      </trkpt>
      <trkpt lat="42.29253" lon="1.764949">
        <ele>2153</ele>
        <time>2020-07-11T12:44:49.135Z</time>
      </trkpt>
      <trkpt lat="42.292561" lon="1.76509">
        <ele>2149</ele>
        <time>2020-07-11T12:45:05.122Z</time>
      </trkpt>
      <trkpt lat="42.292489" lon="1.765248">
        <ele>2148</ele>
        <time>2020-07-11T12:45:13.225Z</time>
      </trkpt>
      <trkpt lat="42.292388" lon="1.765429">
        <ele>2147.09797913192</ele>
        <time>2020-07-11T12:45:21.123Z</time>
      </trkpt>
      <trkpt lat="42.29234" lon="1.765592">
        <ele>2147</ele>
        <time>2020-07-11T12:45:29.127Z</time>
      </trkpt>
      <trkpt lat="42.292374" lon="1.765787">
        <ele>2143.08798832625</ele>
        <time>2020-07-11T12:45:41.132Z</time>
      </trkpt>
      <trkpt lat="42.292325" lon="1.765919">
        <ele>2142</ele>
        <time>2020-07-11T12:45:49.129Z</time>
      </trkpt>
      <trkpt lat="42.292294" lon="1.76609">
        <ele>2139</ele>
        <time>2020-07-11T12:46:01.129Z</time>
      </trkpt>
      <trkpt lat="42.292293" lon="1.766262">
        <ele>2139</ele>
        <time>2020-07-11T12:46:17.129Z</time>
      </trkpt>
      <trkpt lat="42.292253" lon="1.766395">
        <ele>2139</ele>
        <time>2020-07-11T12:46:25.127Z</time>
      </trkpt>
      <trkpt lat="42.292252" lon="1.766558">
        <ele>2139</ele>
        <time>2020-07-11T12:46:31.125Z</time>
      </trkpt>
      <trkpt lat="42.29221" lon="1.766716">
        <ele>2139</ele>
        <time>2020-07-11T12:46:37.128Z</time>
      </trkpt>
      <trkpt lat="42.292196" lon="1.766853">
        <ele>2138</ele>
        <time>2020-07-11T12:46:45.127Z</time>
      </trkpt>
      <trkpt lat="42.292141" lon="1.766971">
        <ele>2138</ele>
        <time>2020-07-11T12:46:53.125Z</time>
      </trkpt>
      <trkpt lat="42.292143" lon="1.76712">
        <ele>2138</ele>
        <time>2020-07-11T12:47:00.120Z</time>
      </trkpt>
      <trkpt lat="42.292064" lon="1.76721">
        <ele>2139</ele>
        <time>2020-07-11T12:47:07.135Z</time>
      </trkpt>
      <trkpt lat="42.292002" lon="1.767333">
        <ele>2139</ele>
        <time>2020-07-11T12:47:16.127Z</time>
      </trkpt>
      <trkpt lat="42.291982" lon="1.767482">
        <ele>2140</ele>
        <time>2020-07-11T12:47:25.127Z</time>
      </trkpt>
      <trkpt lat="42.291912" lon="1.767582">
        <ele>2141</ele>
        <time>2020-07-11T12:47:34.124Z</time>
      </trkpt>
      <trkpt lat="42.291878" lon="1.767706">
        <ele>2140</ele>
        <time>2020-07-11T12:47:48.129Z</time>
      </trkpt>
      <trkpt lat="42.291849" lon="1.767841">
        <ele>2139</ele>
        <time>2020-07-11T12:47:55.126Z</time>
      </trkpt>
      <trkpt lat="42.291819" lon="1.767987">
        <ele>2140</ele>
        <time>2020-07-11T12:48:03.124Z</time>
      </trkpt>
      <trkpt lat="42.291806" lon="1.768144">
        <ele>2140</ele>
        <time>2020-07-11T12:48:15.127Z</time>
      </trkpt>
      <trkpt lat="42.291783" lon="1.768277">
        <ele>2138.18199272951</ele>
        <time>2020-07-11T12:48:21.129Z</time>
      </trkpt>
      <trkpt lat="42.291779" lon="1.768426">
        <ele>2137</ele>
        <time>2020-07-11T12:48:27.124Z</time>
      </trkpt>
      <trkpt lat="42.291731" lon="1.768698">
        <ele>2137</ele>
        <time>2020-07-11T12:48:36.128Z</time>
      </trkpt>
      <trkpt lat="42.291699" lon="1.768843">
        <ele>2136</ele>
        <time>2020-07-11T12:48:45.119Z</time>
      </trkpt>
      <trkpt lat="42.291714" lon="1.768975">
        <ele>2133</ele>
        <time>2020-07-11T12:49:06.126Z</time>
      </trkpt>
      <trkpt lat="42.291708" lon="1.769122">
        <ele>2133</ele>
        <time>2020-07-11T12:49:17.129Z</time>
      </trkpt>
      <trkpt lat="42.291721" lon="1.769272">
        <ele>2133</ele>
        <time>2020-07-11T12:49:23.125Z</time>
      </trkpt>
      <trkpt lat="42.29165" lon="1.7694">
        <ele>2133</ele>
        <time>2020-07-11T12:49:30.122Z</time>
      </trkpt>
      <trkpt lat="42.291607" lon="1.769525">
        <ele>2133</ele>
        <time>2020-07-11T12:49:38.122Z</time>
      </trkpt>
      <trkpt lat="42.291625" lon="1.769672">
        <ele>2129</ele>
        <time>2020-07-11T12:49:50.134Z</time>
      </trkpt>
      <trkpt lat="42.291615" lon="1.769806">
        <ele>2127</ele>
        <time>2020-07-11T12:49:57.127Z</time>
      </trkpt>
      <trkpt lat="42.291646" lon="1.769934">
        <ele>2126</ele>
        <time>2020-07-11T12:50:05.125Z</time>
      </trkpt>
      <trkpt lat="42.291664" lon="1.77008">
        <ele>2125</ele>
        <time>2020-07-11T12:50:12.121Z</time>
      </trkpt>
      <trkpt lat="42.291719" lon="1.770208">
        <ele>2123</ele>
        <time>2020-07-11T12:50:22.119Z</time>
      </trkpt>
      <trkpt lat="42.291767" lon="1.770386">
        <ele>2123</ele>
        <time>2020-07-11T12:50:38.131Z</time>
      </trkpt>
      <trkpt lat="42.29183" lon="1.770531">
        <ele>2123</ele>
        <time>2020-07-11T12:50:50.118Z</time>
      </trkpt>
      <trkpt lat="42.291892" lon="1.770664">
        <ele>2120</ele>
        <time>2020-07-11T12:50:58.128Z</time>
      </trkpt>
      <trkpt lat="42.29196" lon="1.770775">
        <ele>2119</ele>
        <time>2020-07-11T12:51:06.125Z</time>
      </trkpt>
      <trkpt lat="42.291915" lon="1.770961">
        <ele>2119</ele>
        <time>2020-07-11T12:51:18.127Z</time>
      </trkpt>
      <trkpt lat="42.291842" lon="1.771087">
        <ele>2119</ele>
        <time>2020-07-11T12:51:25.127Z</time>
      </trkpt>
      <trkpt lat="42.291824" lon="1.771218">
        <ele>2118</ele>
        <time>2020-07-11T12:51:33.119Z</time>
      </trkpt>
      <trkpt lat="42.291775" lon="1.771346">
        <ele>2116</ele>
        <time>2020-07-11T12:51:42.127Z</time>
      </trkpt>
      <trkpt lat="42.291744" lon="1.771482">
        <ele>2115</ele>
        <time>2020-07-11T12:51:50.127Z</time>
      </trkpt>
      <trkpt lat="42.29172" lon="1.771597">
        <ele>2115</ele>
        <time>2020-07-11T12:51:57.127Z</time>
      </trkpt>
      <trkpt lat="42.291696" lon="1.771698">
        <ele>2113</ele>
        <time>2020-07-11T12:52:04.127Z</time>
      </trkpt>
      <trkpt lat="42.291692" lon="1.771797">
        <ele>2113</ele>
        <time>2020-07-11T12:52:10.127Z</time>
      </trkpt>
      <trkpt lat="42.291654" lon="1.771876">
        <ele>2111.09299319031</ele>
        <time>2020-07-11T12:52:31.127Z</time>
      </trkpt>
      <trkpt lat="42.291612" lon="1.771955">
        <ele>2111</ele>
        <time>2020-07-11T12:52:38.127Z</time>
      </trkpt>
      <trkpt lat="42.291556" lon="1.772067">
        <ele>2106.18201367022</ele>
        <time>2020-07-11T12:52:46.129Z</time>
      </trkpt>
      <trkpt lat="42.291526" lon="1.772196">
        <ele>2105</ele>
        <time>2020-07-11T12:53:02.126Z</time>
      </trkpt>
      <trkpt lat="42.291533" lon="1.77234">
        <ele>2107</ele>
        <time>2020-07-11T12:54:30.127Z</time>
      </trkpt>
      <trkpt lat="42.291452" lon="1.772437">
        <ele>2104</ele>
        <time>2020-07-11T12:55:16.122Z</time>
      </trkpt>
      <trkpt lat="42.291342" lon="1.772514">
        <ele>2098</ele>
        <time>2020-07-11T12:55:39.127Z</time>
      </trkpt>
      <trkpt lat="42.29123" lon="1.772533">
        <ele>2094.09899646715</ele>
        <time>2020-07-11T12:55:51.121Z</time>
      </trkpt>
      <trkpt lat="42.291281" lon="1.772656">
        <ele>2092</ele>
        <time>2020-07-11T12:56:03.128Z</time>
      </trkpt>
      <trkpt lat="42.291226" lon="1.772785">
        <ele>2085</ele>
        <time>2020-07-11T12:56:43.123Z</time>
      </trkpt>
      <trkpt lat="42.291196" lon="1.772913">
        <ele>2084</ele>
        <time>2020-07-11T12:56:52.118Z</time>
      </trkpt>
      <trkpt lat="42.291134" lon="1.77302">
        <ele>2084</ele>
        <time>2020-07-11T12:56:58.132Z</time>
      </trkpt>
      <trkpt lat="42.291051" lon="1.773104">
        <ele>2082</ele>
        <time>2020-07-11T12:57:08.233Z</time>
      </trkpt>
      <trkpt lat="42.291025" lon="1.773239">
        <ele>2076</ele>
        <time>2020-07-11T12:57:22.128Z</time>
      </trkpt>
      <trkpt lat="42.290979" lon="1.773372">
        <ele>2074</ele>
        <time>2020-07-11T12:57:35.135Z</time>
      </trkpt>
      <trkpt lat="42.290901" lon="1.77346">
        <ele>2072</ele>
        <time>2020-07-11T12:57:53.130Z</time>
      </trkpt>
      <trkpt lat="42.290893" lon="1.773607">
        <ele>2066</ele>
        <time>2020-07-11T12:58:05.127Z</time>
      </trkpt>
      <trkpt lat="42.290839" lon="1.773731">
        <ele>2061</ele>
        <time>2020-07-11T12:58:22.123Z</time>
      </trkpt>
      <trkpt lat="42.290778" lon="1.773852">
        <ele>2059</ele>
        <time>2020-07-11T12:58:34.121Z</time>
      </trkpt>
      <trkpt lat="42.290751" lon="1.773992">
        <ele>2051</ele>
        <time>2020-07-11T12:58:48.125Z</time>
      </trkpt>
      <trkpt lat="42.290725" lon="1.774143">
        <ele>2047</ele>
        <time>2020-07-11T12:59:00.122Z</time>
      </trkpt>
      <trkpt lat="42.290713" lon="1.774278">
        <ele>2042</ele>
        <time>2020-07-11T12:59:08.126Z</time>
      </trkpt>
      <trkpt lat="42.290668" lon="1.774399">
        <ele>2038.20203247828</ele>
        <time>2020-07-11T12:59:16.120Z</time>
      </trkpt>
      <trkpt lat="42.290659" lon="1.774534">
        <ele>2036</ele>
        <time>2020-07-11T12:59:23.128Z</time>
      </trkpt>
      <trkpt lat="42.290692" lon="1.774664">
        <ele>2034</ele>
        <time>2020-07-11T12:59:32.124Z</time>
      </trkpt>
      <trkpt lat="42.290745" lon="1.774805">
        <ele>2032</ele>
        <time>2020-07-11T12:59:39.124Z</time>
      </trkpt>
      <trkpt lat="42.290809" lon="1.77491">
        <ele>2029.09300360955</ele>
        <time>2020-07-11T12:59:46.127Z</time>
      </trkpt>
      <trkpt lat="42.290846" lon="1.775036">
        <ele>2028</ele>
        <time>2020-07-11T12:59:54.129Z</time>
      </trkpt>
      <trkpt lat="42.290823" lon="1.775171">
        <ele>2024</ele>
        <time>2020-07-11T13:00:05.128Z</time>
      </trkpt>
      <trkpt lat="42.290924" lon="1.775236">
        <ele>2020</ele>
        <time>2020-07-11T13:00:19.127Z</time>
      </trkpt>
      <trkpt lat="42.291036" lon="1.775242">
        <ele>2016</ele>
        <time>2020-07-11T13:00:29.127Z</time>
      </trkpt>
      <trkpt lat="42.291135" lon="1.775345">
        <ele>2013</ele>
        <time>2020-07-11T13:00:40.127Z</time>
      </trkpt>
      <trkpt lat="42.291193" lon="1.775459">
        <ele>2010</ele>
        <time>2020-07-11T13:00:49.127Z</time>
      </trkpt>
      <trkpt lat="42.29127" lon="1.77556">
        <ele>2006.27901082866</ele>
        <time>2020-07-11T13:00:56.127Z</time>
      </trkpt>
      <trkpt lat="42.291323" lon="1.775684">
        <ele>2003</ele>
        <time>2020-07-11T13:01:02.127Z</time>
      </trkpt>
      <trkpt lat="42.29134" lon="1.775818">
        <ele>2002</ele>
        <time>2020-07-11T13:01:11.230Z</time>
      </trkpt>
      <trkpt lat="42.29128" lon="1.775988">
        <ele>2002</ele>
        <time>2020-07-11T13:01:19.127Z</time>
      </trkpt>
      <trkpt lat="42.291301" lon="1.776122">
        <ele>1998.09300360955</ele>
        <time>2020-07-11T13:01:26.127Z</time>
      </trkpt>
      <trkpt lat="42.291197" lon="1.776258">
        <ele>1997</ele>
        <time>2020-07-11T13:01:35.126Z</time>
      </trkpt>
      <trkpt lat="42.29125" lon="1.776386">
        <ele>1994</ele>
        <time>2020-07-11T13:01:44.127Z</time>
      </trkpt>
      <trkpt lat="42.291312" lon="1.776502">
        <ele>1992</ele>
        <time>2020-07-11T13:01:52.132Z</time>
      </trkpt>
      <trkpt lat="42.291396" lon="1.776586">
        <ele>1991</ele>
        <time>2020-07-11T13:01:59.133Z</time>
      </trkpt>
      <trkpt lat="42.291462" lon="1.776687">
        <ele>1990</ele>
        <time>2020-07-11T13:02:05.127Z</time>
      </trkpt>
      <trkpt lat="42.291403" lon="1.776921">
        <ele>1985</ele>
        <time>2020-07-11T13:02:27.126Z</time>
      </trkpt>
      <trkpt lat="42.291477" lon="1.777057">
        <ele>1984</ele>
        <time>2020-07-11T13:02:38.127Z</time>
      </trkpt>
      <trkpt lat="42.291561" lon="1.77715">
        <ele>1982</ele>
        <time>2020-07-11T13:02:47.127Z</time>
      </trkpt>
      <trkpt lat="42.291643" lon="1.777241">
        <ele>1979</ele>
        <time>2020-07-11T13:02:55.124Z</time>
      </trkpt>
      <trkpt lat="42.291732" lon="1.777384">
        <ele>1976</ele>
        <time>2020-07-11T13:03:04.127Z</time>
      </trkpt>
      <trkpt lat="42.291939" lon="1.777476">
        <ele>1973</ele>
        <time>2020-07-11T13:03:13.231Z</time>
      </trkpt>
      <trkpt lat="42.291858" lon="1.777603">
        <ele>1970</ele>
        <time>2020-07-11T13:03:22.127Z</time>
      </trkpt>
      <trkpt lat="42.291865" lon="1.777774">
        <ele>1967</ele>
        <time>2020-07-11T13:03:34.127Z</time>
      </trkpt>
      <trkpt lat="42.291929" lon="1.777892">
        <ele>1964.09299319031</ele>
        <time>2020-07-11T13:03:41.127Z</time>
      </trkpt>
      <trkpt lat="42.291894" lon="1.778034">
        <ele>1964</ele>
        <time>2020-07-11T13:03:48.127Z</time>
      </trkpt>
      <trkpt lat="42.291888" lon="1.778176">
        <ele>1963</ele>
        <time>2020-07-11T13:03:55.127Z</time>
      </trkpt>
      <trkpt lat="42.2918" lon="1.77826">
        <ele>1960</ele>
        <time>2020-07-11T13:04:05.122Z</time>
      </trkpt>
      <trkpt lat="42.291802" lon="1.778406">
        <ele>1959</ele>
        <time>2020-07-11T13:04:15.127Z</time>
      </trkpt>
      <trkpt lat="42.291897" lon="1.778683">
        <ele>1959</ele>
        <time>2020-07-11T13:04:27.127Z</time>
      </trkpt>
      <trkpt lat="42.291982" lon="1.778769">
        <ele>1958</ele>
        <time>2020-07-11T13:04:35.127Z</time>
      </trkpt>
      <trkpt lat="42.292068" lon="1.778857">
        <ele>1958</ele>
        <time>2020-07-11T13:04:45.225Z</time>
      </trkpt>
      <trkpt lat="42.292093" lon="1.779003">
        <ele>1957</ele>
        <time>2020-07-11T13:04:53.127Z</time>
      </trkpt>
      <trkpt lat="42.29221" lon="1.779197">
        <ele>1955</ele>
        <time>2020-07-11T13:05:06.127Z</time>
      </trkpt>
      <trkpt lat="42.292381" lon="1.779396">
        <ele>1955</ele>
        <time>2020-07-11T13:05:20.127Z</time>
      </trkpt>
      <trkpt lat="42.292395" lon="1.779533">
        <ele>1954</ele>
        <time>2020-07-11T13:05:30.127Z</time>
      </trkpt>
      <trkpt lat="42.292405" lon="1.779738">
        <ele>1954</ele>
        <time>2020-07-11T13:05:39.127Z</time>
      </trkpt>
      <trkpt lat="42.292418" lon="1.779878">
        <ele>1953</ele>
        <time>2020-07-11T13:05:47.127Z</time>
      </trkpt>
      <trkpt lat="42.292388" lon="1.780007">
        <ele>1951</ele>
        <time>2020-07-11T13:05:55.127Z</time>
      </trkpt>
      <trkpt lat="42.292477" lon="1.780077">
        <ele>1951</ele>
        <time>2020-07-11T13:06:02.125Z</time>
      </trkpt>
      <trkpt lat="42.29252" lon="1.780226">
        <ele>1951</ele>
        <time>2020-07-11T13:06:13.127Z</time>
      </trkpt>
      <trkpt lat="42.292556" lon="1.780422">
        <ele>1951</ele>
        <time>2020-07-11T13:06:20.127Z</time>
      </trkpt>
      <trkpt lat="42.292449" lon="1.7804">
        <ele>1949</ele>
        <time>2020-07-11T13:06:34.124Z</time>
      </trkpt>
      <trkpt lat="42.292486" lon="1.780269">
        <ele>1947</ele>
        <time>2020-07-11T13:06:49.129Z</time>
      </trkpt>
      <trkpt lat="42.29248" lon="1.780095">
        <ele>1946</ele>
        <time>2020-07-11T13:07:03.127Z</time>
      </trkpt>
      <trkpt lat="42.292445" lon="1.779965">
        <ele>1946</ele>
        <time>2020-07-11T13:07:09.119Z</time>
      </trkpt>
      <trkpt lat="42.292429" lon="1.779768">
        <ele>1946</ele>
        <time>2020-07-11T13:07:20.127Z</time>
      </trkpt>
      <trkpt lat="42.292507" lon="1.779683">
        <ele>1946</ele>
        <time>2020-07-11T13:07:29.127Z</time>
      </trkpt>
      <trkpt lat="42.292442" lon="1.77957">
        <ele>1947</ele>
        <time>2020-07-11T13:07:49.127Z</time>
      </trkpt>
      <trkpt lat="42.292437" lon="1.779426">
        <ele>1947</ele>
        <time>2020-07-11T13:07:56.128Z</time>
      </trkpt>
      <trkpt lat="42.29249" lon="1.779292">
        <ele>1944</ele>
        <time>2020-07-11T13:08:02.127Z</time>
      </trkpt>
      <trkpt lat="42.292436" lon="1.779145">
        <ele>1943</ele>
        <time>2020-07-11T13:08:09.128Z</time>
      </trkpt>
      <trkpt lat="42.292392" lon="1.779011">
        <ele>1942</ele>
        <time>2020-07-11T13:08:16.127Z</time>
      </trkpt>
      <trkpt lat="42.292359" lon="1.778868">
        <ele>1941</ele>
        <time>2020-07-11T13:08:23.124Z</time>
      </trkpt>
      <trkpt lat="42.292247" lon="1.778701">
        <ele>1940</ele>
        <time>2020-07-11T13:08:32.127Z</time>
      </trkpt>
      <trkpt lat="42.292299" lon="1.778582">
        <ele>1939</ele>
        <time>2020-07-11T13:08:49.127Z</time>
      </trkpt>
      <trkpt lat="42.292251" lon="1.778438">
        <ele>1933</ele>
        <time>2020-07-11T13:09:08.127Z</time>
      </trkpt>
      <trkpt lat="42.292265" lon="1.778248">
        <ele>1932</ele>
        <time>2020-07-11T13:09:18.127Z</time>
      </trkpt>
      <trkpt lat="42.292367" lon="1.778251">
        <ele>1924</ele>
        <time>2020-07-11T13:09:37.127Z</time>
      </trkpt>
      <trkpt lat="42.29245" lon="1.778337">
        <ele>1921</ele>
        <time>2020-07-11T13:09:48.127Z</time>
      </trkpt>
      <trkpt lat="42.292538" lon="1.778446">
        <ele>1919</ele>
        <time>2020-07-11T13:09:56.127Z</time>
      </trkpt>
      <trkpt lat="42.292637" lon="1.778515">
        <ele>1917.18598638063</ele>
        <time>2020-07-11T13:10:01.127Z</time>
      </trkpt>
      <trkpt lat="42.292681" lon="1.778655">
        <ele>1917</ele>
        <time>2020-07-11T13:10:12.127Z</time>
      </trkpt>
      <trkpt lat="42.292748" lon="1.778778">
        <ele>1916</ele>
        <time>2020-07-11T13:10:26.127Z</time>
      </trkpt>
      <trkpt lat="42.292758" lon="1.778919">
        <ele>1915</ele>
        <time>2020-07-11T13:10:34.127Z</time>
      </trkpt>
      <trkpt lat="42.292762" lon="1.779056">
        <ele>1916</ele>
        <time>2020-07-11T13:10:44.127Z</time>
      </trkpt>
      <trkpt lat="42.292777" lon="1.779194">
        <ele>1917</ele>
        <time>2020-07-11T13:10:52.127Z</time>
      </trkpt>
      <trkpt lat="42.292734" lon="1.779315">
        <ele>1917</ele>
        <time>2020-07-11T13:11:00.123Z</time>
      </trkpt>
      <trkpt lat="42.292825" lon="1.779395">
        <ele>1918</ele>
        <time>2020-07-11T13:11:07.132Z</time>
      </trkpt>
      <trkpt lat="42.292833" lon="1.779544">
        <ele>1918</ele>
        <time>2020-07-11T13:11:18.127Z</time>
      </trkpt>
      <trkpt lat="42.292994" lon="1.779728">
        <ele>1918</ele>
        <time>2020-07-11T13:11:27.125Z</time>
      </trkpt>
      <trkpt lat="42.293066" lon="1.779877">
        <ele>1917</ele>
        <time>2020-07-11T13:11:35.125Z</time>
      </trkpt>
      <trkpt lat="42.29296" lon="1.779996">
        <ele>1918</ele>
        <time>2020-07-11T13:11:46.127Z</time>
      </trkpt>
      <trkpt lat="42.292943" lon="1.780128">
        <ele>1919</ele>
        <time>2020-07-11T13:11:59.127Z</time>
      </trkpt>
      <trkpt lat="42.292924" lon="1.780265">
        <ele>1919</ele>
        <time>2020-07-11T13:12:05.127Z</time>
      </trkpt>
      <trkpt lat="42.292894" lon="1.780455">
        <ele>1919</ele>
        <time>2020-07-11T13:12:20.127Z</time>
      </trkpt>
      <trkpt lat="42.292938" lon="1.780581">
        <ele>1920</ele>
        <time>2020-07-11T13:12:27.127Z</time>
      </trkpt>
      <trkpt lat="42.292944" lon="1.780728">
        <ele>1920.90900363525</ele>
        <time>2020-07-11T13:12:41.129Z</time>
      </trkpt>
      <trkpt lat="42.293034" lon="1.780804">
        <ele>1921</ele>
        <time>2020-07-11T13:12:46.127Z</time>
      </trkpt>
      <trkpt lat="42.293084" lon="1.780934">
        <ele>1922</ele>
        <time>2020-07-11T13:12:54.122Z</time>
      </trkpt>
      <trkpt lat="42.293056" lon="1.781068">
        <ele>1922</ele>
        <time>2020-07-11T13:13:02.127Z</time>
      </trkpt>
      <trkpt lat="42.29309" lon="1.781204">
        <ele>1922</ele>
        <time>2020-07-11T13:13:10.127Z</time>
      </trkpt>
      <trkpt lat="42.293164" lon="1.781329">
        <ele>1921</ele>
        <time>2020-07-11T13:13:18.127Z</time>
      </trkpt>
      <trkpt lat="42.293201" lon="1.781462">
        <ele>1921</ele>
        <time>2020-07-11T13:13:24.128Z</time>
      </trkpt>
      <trkpt lat="42.293278" lon="1.781653">
        <ele>1921</ele>
        <time>2020-07-11T13:13:38.127Z</time>
      </trkpt>
      <trkpt lat="42.293324" lon="1.781786">
        <ele>1920</ele>
        <time>2020-07-11T13:13:50.127Z</time>
      </trkpt>
      <trkpt lat="42.293366" lon="1.781911">
        <ele>1919</ele>
        <time>2020-07-11T13:13:58.127Z</time>
      </trkpt>
      <trkpt lat="42.293424" lon="1.782022">
        <ele>1917</ele>
        <time>2020-07-11T13:14:05.127Z</time>
      </trkpt>
      <trkpt lat="42.293446" lon="1.782152">
        <ele>1916</ele>
        <time>2020-07-11T13:14:13.127Z</time>
      </trkpt>
      <trkpt lat="42.293482" lon="1.782292">
        <ele>1915.09299319031</ele>
        <time>2020-07-11T13:14:21.127Z</time>
      </trkpt>
      <trkpt lat="42.293421" lon="1.782414">
        <ele>1915</ele>
        <time>2020-07-11T13:14:28.127Z</time>
      </trkpt>
      <trkpt lat="42.293402" lon="1.782558">
        <ele>1915</ele>
        <time>2020-07-11T13:14:38.127Z</time>
      </trkpt>
      <trkpt lat="42.293338" lon="1.78266">
        <ele>1915</ele>
        <time>2020-07-11T13:14:46.130Z</time>
      </trkpt>
      <trkpt lat="42.293261" lon="1.782822">
        <ele>1914</ele>
        <time>2020-07-11T13:14:57.127Z</time>
      </trkpt>
      <trkpt lat="42.293249" lon="1.782961">
        <ele>1911</ele>
        <time>2020-07-11T13:15:04.228Z</time>
      </trkpt>
      <trkpt lat="42.293273" lon="1.783094">
        <ele>1910.09299319031</ele>
        <time>2020-07-11T13:15:11.127Z</time>
      </trkpt>
      <trkpt lat="42.293173" lon="1.783345">
        <ele>1907</ele>
        <time>2020-07-11T13:15:23.127Z</time>
      </trkpt>
      <trkpt lat="42.293254" lon="1.783438">
        <ele>1906</ele>
        <time>2020-07-11T13:15:31.127Z</time>
      </trkpt>
      <trkpt lat="42.293271" lon="1.783576">
        <ele>1905.09299319031</ele>
        <time>2020-07-11T13:15:41.127Z</time>
      </trkpt>
      <trkpt lat="42.293261" lon="1.783724">
        <ele>1905</ele>
        <time>2020-07-11T13:15:50.127Z</time>
      </trkpt>
      <trkpt lat="42.293232" lon="1.783934">
        <ele>1902.28179667197</ele>
        <time>2020-07-11T13:16:01.127Z</time>
      </trkpt>
      <trkpt lat="42.293286" lon="1.784086">
        <ele>1902</ele>
        <time>2020-07-11T13:16:09.126Z</time>
      </trkpt>
      <trkpt lat="42.293346" lon="1.78422">
        <ele>1901</ele>
        <time>2020-07-11T13:16:18.123Z</time>
      </trkpt>
      <trkpt lat="42.293196" lon="1.784425">
        <ele>1899</ele>
        <time>2020-07-11T13:16:26.239Z</time>
      </trkpt>
      <trkpt lat="42.293223" lon="1.784567">
        <ele>1897</ele>
        <time>2020-07-11T13:16:37.127Z</time>
      </trkpt>
      <trkpt lat="42.293259" lon="1.784713">
        <ele>1896</ele>
        <time>2020-07-11T13:16:46.129Z</time>
      </trkpt>
      <trkpt lat="42.293264" lon="1.78485">
        <ele>1895</ele>
        <time>2020-07-11T13:16:52.127Z</time>
      </trkpt>
      <trkpt lat="42.293255" lon="1.784992">
        <ele>1895</ele>
        <time>2020-07-11T13:16:59.128Z</time>
      </trkpt>
      <trkpt lat="42.293354" lon="1.785113">
        <ele>1896</ele>
        <time>2020-07-11T13:17:16.127Z</time>
      </trkpt>
      <trkpt lat="42.293399" lon="1.785233">
        <ele>1896</ele>
        <time>2020-07-11T13:17:23.127Z</time>
      </trkpt>
      <trkpt lat="42.293394" lon="1.785377">
        <ele>1896</ele>
        <time>2020-07-11T13:17:34.127Z</time>
      </trkpt>
      <trkpt lat="42.293446" lon="1.7855">
        <ele>1896</ele>
        <time>2020-07-11T13:17:43.127Z</time>
      </trkpt>
      <trkpt lat="42.293501" lon="1.785617">
        <ele>1896</ele>
        <time>2020-07-11T13:17:51.127Z</time>
      </trkpt>
      <trkpt lat="42.293556" lon="1.785752">
        <ele>1896</ele>
        <time>2020-07-11T13:17:59.127Z</time>
      </trkpt>
      <trkpt lat="42.293639" lon="1.785827">
        <ele>1896</ele>
        <time>2020-07-11T13:18:04.127Z</time>
      </trkpt>
      <trkpt lat="42.293667" lon="1.785967">
        <ele>1894</ele>
        <time>2020-07-11T13:18:14.127Z</time>
      </trkpt>
      <trkpt lat="42.293705" lon="1.786111">
        <ele>1895</ele>
        <time>2020-07-11T13:18:26.127Z</time>
      </trkpt>
      <trkpt lat="42.293745" lon="1.786237">
        <ele>1894</ele>
        <time>2020-07-11T13:18:32.127Z</time>
      </trkpt>
      <trkpt lat="42.293809" lon="1.78634">
        <ele>1894</ele>
        <time>2020-07-11T13:18:40.127Z</time>
      </trkpt>
      <trkpt lat="42.293823" lon="1.786514">
        <ele>1890</ele>
        <time>2020-07-11T13:18:53.127Z</time>
      </trkpt>
      <trkpt lat="42.293904" lon="1.786642">
        <ele>1888</ele>
        <time>2020-07-11T13:19:00.127Z</time>
      </trkpt>
      <trkpt lat="42.293991" lon="1.786716">
        <ele>1886</ele>
        <time>2020-07-11T13:19:24.127Z</time>
      </trkpt>
      <trkpt lat="42.294096" lon="1.786803">
        <ele>1886</ele>
        <time>2020-07-11T13:19:29.127Z</time>
      </trkpt>
      <trkpt lat="42.29415" lon="1.786937">
        <ele>1884</ele>
        <time>2020-07-11T13:19:43.127Z</time>
      </trkpt>
      <trkpt lat="42.294308" lon="1.787082">
        <ele>1884</ele>
        <time>2020-07-11T13:19:54.127Z</time>
      </trkpt>
      <trkpt lat="42.29436" lon="1.787205">
        <ele>1885</ele>
        <time>2020-07-11T13:20:10.127Z</time>
      </trkpt>
      <trkpt lat="42.294454" lon="1.787282">
        <ele>1885</ele>
        <time>2020-07-11T13:20:18.127Z</time>
      </trkpt>
      <trkpt lat="42.294524" lon="1.787377">
        <ele>1887</ele>
        <time>2020-07-11T13:20:28.127Z</time>
      </trkpt>
      <trkpt lat="42.294618" lon="1.787444">
        <ele>1888</ele>
        <time>2020-07-11T13:20:37.127Z</time>
      </trkpt>
      <trkpt lat="42.294691" lon="1.787553">
        <ele>1890</ele>
        <time>2020-07-11T13:20:46.127Z</time>
      </trkpt>
      <trkpt lat="42.294721" lon="1.787681">
        <ele>1891</ele>
        <time>2020-07-11T13:20:54.127Z</time>
      </trkpt>
      <trkpt lat="42.294745" lon="1.787786">
        <ele>1891</ele>
        <time>2020-07-11T13:21:00.127Z</time>
      </trkpt>
      <trkpt lat="42.29473" lon="1.787892">
        <ele>1891</ele>
        <time>2020-07-11T13:21:06.127Z</time>
      </trkpt>
      <trkpt lat="42.294701" lon="1.788027">
        <ele>1891</ele>
        <time>2020-07-11T13:21:15.940Z</time>
      </trkpt>
      <trkpt lat="42.294694" lon="1.788172">
        <ele>1886</ele>
        <time>2020-07-11T13:21:27.127Z</time>
      </trkpt>
      <trkpt lat="42.294694" lon="1.788314">
        <ele>1883</ele>
        <time>2020-07-11T13:21:37.127Z</time>
      </trkpt>
      <trkpt lat="42.294657" lon="1.788441">
        <ele>1882</ele>
        <time>2020-07-11T13:21:45.129Z</time>
      </trkpt>
      <trkpt lat="42.294605" lon="1.788562">
        <ele>1881</ele>
        <time>2020-07-11T13:21:51.127Z</time>
      </trkpt>
      <trkpt lat="42.294599" lon="1.788709">
        <ele>1881</ele>
        <time>2020-07-11T13:21:59.127Z</time>
      </trkpt>
      <trkpt lat="42.294674" lon="1.788824">
        <ele>1877</ele>
        <time>2020-07-11T13:22:06.127Z</time>
      </trkpt>
      <trkpt lat="42.294769" lon="1.788914">
        <ele>1874.18598638063</ele>
        <time>2020-07-11T13:22:21.127Z</time>
      </trkpt>
      <trkpt lat="42.294781" lon="1.789083">
        <ele>1874</ele>
        <time>2020-07-11T13:22:28.127Z</time>
      </trkpt>
      <trkpt lat="42.294745" lon="1.789219">
        <ele>1873</ele>
        <time>2020-07-11T13:22:34.123Z</time>
      </trkpt>
      <trkpt lat="42.294675" lon="1.789316">
        <ele>1873</ele>
        <time>2020-07-11T13:22:40.127Z</time>
      </trkpt>
      <trkpt lat="42.294592" lon="1.789394">
        <ele>1873</ele>
        <time>2020-07-11T13:22:46.127Z</time>
      </trkpt>
      <trkpt lat="42.294558" lon="1.789537">
        <ele>1869</ele>
        <time>2020-07-11T13:22:57.127Z</time>
      </trkpt>
      <trkpt lat="42.294567" lon="1.789686">
        <ele>1868</ele>
        <time>2020-07-11T13:23:02.127Z</time>
      </trkpt>
      <trkpt lat="42.294571" lon="1.789824">
        <ele>1868</ele>
        <time>2020-07-11T13:23:09.127Z</time>
      </trkpt>
      <trkpt lat="42.294617" lon="1.789943">
        <ele>1868</ele>
        <time>2020-07-11T13:23:17.127Z</time>
      </trkpt>
      <trkpt lat="42.294618" lon="1.790085">
        <ele>1866</ele>
        <time>2020-07-11T13:23:29.127Z</time>
      </trkpt>
      <trkpt lat="42.294579" lon="1.790217">
        <ele>1864</ele>
        <time>2020-07-11T13:23:37.127Z</time>
      </trkpt>
      <trkpt lat="42.294524" lon="1.790311">
        <ele>1862</ele>
        <time>2020-07-11T13:23:44.123Z</time>
      </trkpt>
      <trkpt lat="42.294489" lon="1.790435">
        <ele>1858</ele>
        <time>2020-07-11T13:23:57.119Z</time>
      </trkpt>
      <trkpt lat="42.294443" lon="1.790558">
        <ele>1857</ele>
        <time>2020-07-11T13:24:16.131Z</time>
      </trkpt>
      <trkpt lat="42.294363" lon="1.790624">
        <ele>1856</ele>
        <time>2020-07-11T13:24:44.122Z</time>
      </trkpt>
      <trkpt lat="42.294268" lon="1.79066">
        <ele>1857</ele>
        <time>2020-07-11T13:24:55.120Z</time>
      </trkpt>
      <trkpt lat="42.294335" lon="1.790558">
        <ele>1856</ele>
        <time>2020-07-11T13:25:32.127Z</time>
      </trkpt>
      <trkpt lat="42.294436" lon="1.790498">
        <ele>1857.81401361937</ele>
        <time>2020-07-11T13:25:51.127Z</time>
      </trkpt>
      <trkpt lat="42.294466" lon="1.790578">
        <ele>1856</ele>
        <time>2020-07-11T13:26:19.127Z</time>
      </trkpt>
      <trkpt lat="42.29443" lon="1.790681">
        <ele>1855</ele>
        <time>2020-07-11T13:27:11.127Z</time>
      </trkpt>
      <trkpt lat="42.294416" lon="1.790821">
        <ele>1854</ele>
        <time>2020-07-11T13:27:27.127Z</time>
      </trkpt>
      <trkpt lat="42.294399" lon="1.790964">
        <ele>1853</ele>
        <time>2020-07-11T13:27:35.127Z</time>
      </trkpt>
      <trkpt lat="42.29439" lon="1.791079">
        <ele>1850</ele>
        <time>2020-07-11T13:27:44.129Z</time>
      </trkpt>
      <trkpt lat="42.294347" lon="1.791203">
        <ele>1847</ele>
        <time>2020-07-11T13:27:55.125Z</time>
      </trkpt>
      <trkpt lat="42.294328" lon="1.79134">
        <ele>1845</ele>
        <time>2020-07-11T13:28:03.127Z</time>
      </trkpt>
      <trkpt lat="42.294292" lon="1.791444">
        <ele>1845</ele>
        <time>2020-07-11T13:28:10.127Z</time>
      </trkpt>
      <trkpt lat="42.294224" lon="1.79155">
        <ele>1844</ele>
        <time>2020-07-11T13:28:19.121Z</time>
      </trkpt>
      <trkpt lat="42.294271" lon="1.791671">
        <ele>1839.9950079361</ele>
        <time>2020-07-11T13:28:30.225Z</time>
      </trkpt>
      <trkpt lat="42.294298" lon="1.791806">
        <ele>1837.19394127458</ele>
        <time>2020-07-11T13:28:41.124Z</time>
      </trkpt>
      <trkpt lat="42.294316" lon="1.791946">
        <ele>1837</ele>
        <time>2020-07-11T13:28:50.127Z</time>
      </trkpt>
      <trkpt lat="42.294348" lon="1.792083">
        <ele>1835</ele>
        <time>2020-07-11T13:28:59.127Z</time>
      </trkpt>
      <trkpt lat="42.294294" lon="1.792198">
        <ele>1830</ele>
        <time>2020-07-11T13:29:06.127Z</time>
      </trkpt>
      <trkpt lat="42.294287" lon="1.792465">
        <ele>1829</ele>
        <time>2020-07-11T13:29:18.132Z</time>
      </trkpt>
      <trkpt lat="42.294224" lon="1.792576">
        <ele>1827</ele>
        <time>2020-07-11T13:29:24.136Z</time>
      </trkpt>
      <trkpt lat="42.294167" lon="1.792685">
        <ele>1826.09600122882</ele>
        <time>2020-07-11T13:29:31.124Z</time>
      </trkpt>
      <trkpt lat="42.294207" lon="1.792814">
        <ele>1826</ele>
        <time>2020-07-11T13:29:40.125Z</time>
      </trkpt>
      <trkpt lat="42.29418" lon="1.792948">
        <ele>1826</ele>
        <time>2020-07-11T13:29:47.132Z</time>
      </trkpt>
      <trkpt lat="42.294205" lon="1.793104">
        <ele>1824</ele>
        <time>2020-07-11T13:29:58.127Z</time>
      </trkpt>
      <trkpt lat="42.29416" lon="1.793233">
        <ele>1819</ele>
        <time>2020-07-11T13:30:06.127Z</time>
      </trkpt>
      <trkpt lat="42.294156" lon="1.793384">
        <ele>1819</ele>
        <time>2020-07-11T13:30:14.132Z</time>
      </trkpt>
      <trkpt lat="42.294146" lon="1.793545">
        <ele>1817</ele>
        <time>2020-07-11T13:30:26.234Z</time>
      </trkpt>
      <trkpt lat="42.29411" lon="1.793729">
        <ele>1816</ele>
        <time>2020-07-11T13:30:34.127Z</time>
      </trkpt>
      <trkpt lat="42.294104" lon="1.793873">
        <ele>1813</ele>
        <time>2020-07-11T13:30:42.127Z</time>
      </trkpt>
      <trkpt lat="42.294096" lon="1.794013">
        <ele>1812</ele>
        <time>2020-07-11T13:30:50.127Z</time>
      </trkpt>
      <trkpt lat="42.294127" lon="1.794155">
        <ele>1813</ele>
        <time>2020-07-11T13:30:58.127Z</time>
      </trkpt>
      <trkpt lat="42.29416" lon="1.794258">
        <ele>1811</ele>
        <time>2020-07-11T13:31:06.127Z</time>
      </trkpt>
      <trkpt lat="42.294224" lon="1.794366">
        <ele>1811</ele>
        <time>2020-07-11T13:31:14.127Z</time>
      </trkpt>
      <trkpt lat="42.294339" lon="1.79438">
        <ele>1806</ele>
        <time>2020-07-11T13:31:26.227Z</time>
      </trkpt>
      <trkpt lat="42.29445" lon="1.794455">
        <ele>1805</ele>
        <time>2020-07-11T13:31:38.127Z</time>
      </trkpt>
      <trkpt lat="42.294599" lon="1.794592">
        <ele>1805</ele>
        <time>2020-07-11T13:31:53.127Z</time>
      </trkpt>
      <trkpt lat="42.294693" lon="1.794638">
        <ele>1805</ele>
        <time>2020-07-11T13:31:59.127Z</time>
      </trkpt>
      <trkpt lat="42.294766" lon="1.794708">
        <ele>1803</ele>
        <time>2020-07-11T13:32:04.127Z</time>
      </trkpt>
      <trkpt lat="42.294826" lon="1.794798">
        <ele>1803</ele>
        <time>2020-07-11T13:32:11.127Z</time>
      </trkpt>
      <trkpt lat="42.294918" lon="1.794829">
        <ele>1803</ele>
        <time>2020-07-11T13:32:21.127Z</time>
      </trkpt>
      <trkpt lat="42.295018" lon="1.794855">
        <ele>1803</ele>
        <time>2020-07-11T13:32:30.127Z</time>
      </trkpt>
      <trkpt lat="42.295115" lon="1.794861">
        <ele>1803</ele>
        <time>2020-07-11T13:32:39.127Z</time>
      </trkpt>
      <trkpt lat="42.295228" lon="1.794903">
        <ele>1803</ele>
        <time>2020-07-11T13:32:49.127Z</time>
      </trkpt>
      <trkpt lat="42.295326" lon="1.794875">
        <ele>1803</ele>
        <time>2020-07-11T13:32:56.228Z</time>
      </trkpt>
      <trkpt lat="42.295402" lon="1.794983">
        <ele>1803</ele>
        <time>2020-07-11T13:33:01.127Z</time>
      </trkpt>
      <trkpt lat="42.295465" lon="1.795074">
        <ele>1803</ele>
        <time>2020-07-11T13:33:07.127Z</time>
      </trkpt>
      <trkpt lat="42.295526" lon="1.795153">
        <ele>1802</ele>
        <time>2020-07-11T13:33:13.127Z</time>
      </trkpt>
      <trkpt lat="42.295593" lon="1.795259">
        <ele>1801</ele>
        <time>2020-07-11T13:33:22.127Z</time>
      </trkpt>
      <trkpt lat="42.295651" lon="1.795372">
        <ele>1800.09299319031</ele>
        <time>2020-07-11T13:33:29.127Z</time>
      </trkpt>
      <trkpt lat="42.295706" lon="1.795493">
        <ele>1799</ele>
        <time>2020-07-11T13:33:39.127Z</time>
      </trkpt>
      <trkpt lat="42.295806" lon="1.795617">
        <ele>1798</ele>
        <time>2020-07-11T13:33:49.127Z</time>
      </trkpt>
      <trkpt lat="42.295834" lon="1.795766">
        <ele>1797</ele>
        <time>2020-07-11T13:33:56.127Z</time>
      </trkpt>
      <trkpt lat="42.295867" lon="1.795903">
        <ele>1798</ele>
        <time>2020-07-11T13:34:05.127Z</time>
      </trkpt>
      <trkpt lat="42.29593" lon="1.796009">
        <ele>1798</ele>
        <time>2020-07-11T13:34:16.127Z</time>
      </trkpt>
      <trkpt lat="42.296038" lon="1.796014">
        <ele>1798</ele>
        <time>2020-07-11T13:34:27.127Z</time>
      </trkpt>
      <trkpt lat="42.296133" lon="1.79608">
        <ele>1797</ele>
        <time>2020-07-11T13:34:36.127Z</time>
      </trkpt>
      <trkpt lat="42.296238" lon="1.796161">
        <ele>1797</ele>
        <time>2020-07-11T13:34:45.127Z</time>
      </trkpt>
      <trkpt lat="42.296326" lon="1.796227">
        <ele>1797</ele>
        <time>2020-07-11T13:34:50.127Z</time>
      </trkpt>
      <trkpt lat="42.296453" lon="1.796242">
        <ele>1796</ele>
        <time>2020-07-11T13:35:02.127Z</time>
      </trkpt>
      <trkpt lat="42.296545" lon="1.796294">
        <ele>1796</ele>
        <time>2020-07-11T13:35:09.128Z</time>
      </trkpt>
      <trkpt lat="42.296616" lon="1.79641">
        <ele>1796</ele>
        <time>2020-07-11T13:35:15.127Z</time>
      </trkpt>
      <trkpt lat="42.296697" lon="1.796496">
        <ele>1795.09299319031</ele>
        <time>2020-07-11T13:35:21.127Z</time>
      </trkpt>
      <trkpt lat="42.296803" lon="1.79661">
        <ele>1795</ele>
        <time>2020-07-11T13:35:30.127Z</time>
      </trkpt>
      <trkpt lat="42.296884" lon="1.796714">
        <ele>1796</ele>
        <time>2020-07-11T13:35:37.127Z</time>
      </trkpt>
      <trkpt lat="42.296963" lon="1.796814">
        <ele>1795</ele>
        <time>2020-07-11T13:35:45.128Z</time>
      </trkpt>
      <trkpt lat="42.297063" lon="1.796878">
        <ele>1795</ele>
        <time>2020-07-11T13:35:51.127Z</time>
      </trkpt>
      <trkpt lat="42.297131" lon="1.796887">
        <ele>1795</ele>
        <time>2020-07-11T13:36:07.127Z</time>
      </trkpt>
      <trkpt lat="42.297206" lon="1.796797">
        <ele>1795</ele>
        <time>2020-07-11T13:36:36.126Z</time>
      </trkpt>
      <trkpt lat="42.297219" lon="1.79665">
        <ele>1794</ele>
        <time>2020-07-11T13:36:53.127Z</time>
      </trkpt>
      <trkpt lat="42.29721" lon="1.796578">
        <ele>1792</ele>
        <time>2020-07-11T13:37:03.127Z</time>
      </trkpt>
      <trkpt lat="42.297207" lon="1.796489">
        <ele>1792</ele>
        <time>2020-07-11T13:37:08.127Z</time>
      </trkpt>
      <trkpt lat="42.29725" lon="1.796308">
        <ele>1793</ele>
        <time>2020-07-11T13:37:18.130Z</time>
      </trkpt>
      <trkpt lat="42.297304" lon="1.796214">
        <ele>1791</ele>
        <time>2020-07-11T13:37:25.127Z</time>
      </trkpt>
      <trkpt lat="42.297327" lon="1.796066">
        <ele>1787.09300360955</ele>
        <time>2020-07-11T13:37:36.127Z</time>
      </trkpt>
      <trkpt lat="42.297314" lon="1.795949">
        <ele>1787</ele>
        <time>2020-07-11T13:37:42.127Z</time>
      </trkpt>
      <trkpt lat="42.297355" lon="1.795827">
        <ele>1787</ele>
        <time>2020-07-11T13:37:48.127Z</time>
      </trkpt>
      <trkpt lat="42.297417" lon="1.795718">
        <ele>1786</ele>
        <time>2020-07-11T13:37:56.127Z</time>
      </trkpt>
      <trkpt lat="42.297485" lon="1.795572">
        <ele>1784</ele>
        <time>2020-07-11T13:38:04.127Z</time>
      </trkpt>
      <trkpt lat="42.297563" lon="1.795487">
        <ele>1784</ele>
        <time>2020-07-11T13:38:13.127Z</time>
      </trkpt>
      <trkpt lat="42.297695" lon="1.795486">
        <ele>1784</ele>
        <time>2020-07-11T13:38:24.127Z</time>
      </trkpt>
      <trkpt lat="42.297788" lon="1.795552">
        <ele>1784</ele>
        <time>2020-07-11T13:38:34.127Z</time>
      </trkpt>
      <trkpt lat="42.29789" lon="1.79559">
        <ele>1779.18600721911</ele>
        <time>2020-07-11T13:38:46.127Z</time>
      </trkpt>
      <trkpt lat="42.298" lon="1.795598">
        <ele>1778</ele>
        <time>2020-07-11T13:38:54.127Z</time>
      </trkpt>
      <trkpt lat="42.298106" lon="1.795566">
        <ele>1774</ele>
        <time>2020-07-11T13:39:03.127Z</time>
      </trkpt>
      <trkpt lat="42.298211" lon="1.795609">
        <ele>1773.09299319031</ele>
        <time>2020-07-11T13:39:11.127Z</time>
      </trkpt>
      <trkpt lat="42.298314" lon="1.795581">
        <ele>1773</ele>
        <time>2020-07-11T13:39:17.127Z</time>
      </trkpt>
      <trkpt lat="42.298426" lon="1.795573">
        <ele>1770</ele>
        <time>2020-07-11T13:39:24.133Z</time>
      </trkpt>
      <trkpt lat="42.298574" lon="1.795559">
        <ele>1768</ele>
        <time>2020-07-11T13:39:33.127Z</time>
      </trkpt>
      <trkpt lat="42.298658" lon="1.795641">
        <ele>1768</ele>
        <time>2020-07-11T13:39:39.127Z</time>
      </trkpt>
      <trkpt lat="42.298758" lon="1.795596">
        <ele>1764</ele>
        <time>2020-07-11T13:39:49.127Z</time>
      </trkpt>
      <trkpt lat="42.298863" lon="1.795593">
        <ele>1760</ele>
        <time>2020-07-11T13:39:58.127Z</time>
      </trkpt>
      <trkpt lat="42.298937" lon="1.795503">
        <ele>1760</ele>
        <time>2020-07-11T13:40:07.127Z</time>
      </trkpt>
      <trkpt lat="42.299037" lon="1.795387">
        <ele>1754</ele>
        <time>2020-07-11T13:40:17.127Z</time>
      </trkpt>
      <trkpt lat="42.299076" lon="1.795255">
        <ele>1753</ele>
        <time>2020-07-11T13:40:23.128Z</time>
      </trkpt>
      <trkpt lat="42.299091" lon="1.795121">
        <ele>1751</ele>
        <time>2020-07-11T13:40:32.127Z</time>
      </trkpt>
      <trkpt lat="42.299185" lon="1.795126">
        <ele>1751</ele>
        <time>2020-07-11T13:40:40.127Z</time>
      </trkpt>
      <trkpt lat="42.299289" lon="1.795114">
        <ele>1746.28179667197</ele>
        <time>2020-07-11T13:40:51.127Z</time>
      </trkpt>
      <trkpt lat="42.299426" lon="1.7951">
        <ele>1744</ele>
        <time>2020-07-11T13:41:05.127Z</time>
      </trkpt>
      <trkpt lat="42.299494" lon="1.794996">
        <ele>1743</ele>
        <time>2020-07-11T13:41:12.127Z</time>
      </trkpt>
      <trkpt lat="42.299579" lon="1.794926">
        <ele>1743</ele>
        <time>2020-07-11T13:41:18.127Z</time>
      </trkpt>
      <trkpt lat="42.299649" lon="1.794827">
        <ele>1742</ele>
        <time>2020-07-11T13:41:27.127Z</time>
      </trkpt>
      <trkpt lat="42.299742" lon="1.794747">
        <ele>1742</ele>
        <time>2020-07-11T13:41:34.127Z</time>
      </trkpt>
      <trkpt lat="42.299817" lon="1.794648">
        <ele>1742</ele>
        <time>2020-07-11T13:41:43.127Z</time>
      </trkpt>
      <trkpt lat="42.299898" lon="1.794564">
        <ele>1744</ele>
        <time>2020-07-11T13:41:54.127Z</time>
      </trkpt>
      <trkpt lat="42.299984" lon="1.794481">
        <ele>1748.81399278089</ele>
        <time>2020-07-11T13:42:06.127Z</time>
      </trkpt>
      <trkpt lat="42.300068" lon="1.79438">
        <ele>1751</ele>
        <time>2020-07-11T13:42:16.127Z</time>
      </trkpt>
      <trkpt lat="42.300122" lon="1.794315">
        <ele>1751</ele>
        <time>2020-07-11T13:42:27.127Z</time>
      </trkpt>
      <trkpt lat="42.300202" lon="1.794342">
        <ele>1746</ele>
        <time>2020-07-11T13:42:52.127Z</time>
      </trkpt>
      <trkpt lat="42.300308" lon="1.794346">
        <ele>1741</ele>
        <time>2020-07-11T13:43:06.127Z</time>
      </trkpt>
      <trkpt lat="42.300405" lon="1.794301">
        <ele>1739</ele>
        <time>2020-07-11T13:43:17.127Z</time>
      </trkpt>
      <trkpt lat="42.300509" lon="1.794278">
        <ele>1737</ele>
        <time>2020-07-11T13:43:25.127Z</time>
      </trkpt>
      <trkpt lat="42.300607" lon="1.794319">
        <ele>1732.18600721911</ele>
        <time>2020-07-11T13:43:36.127Z</time>
      </trkpt>
      <trkpt lat="42.300689" lon="1.794415">
        <ele>1731</ele>
        <time>2020-07-11T13:43:42.127Z</time>
      </trkpt>
      <trkpt lat="42.300776" lon="1.794484">
        <ele>1729</ele>
        <time>2020-07-11T13:43:50.127Z</time>
      </trkpt>
      <trkpt lat="42.300867" lon="1.794556">
        <ele>1724</ele>
        <time>2020-07-11T13:44:02.127Z</time>
      </trkpt>
      <trkpt lat="42.300954" lon="1.79465">
        <ele>1721</ele>
        <time>2020-07-11T13:44:12.127Z</time>
      </trkpt>
      <trkpt lat="42.301022" lon="1.79476">
        <ele>1718.18598638063</ele>
        <time>2020-07-11T13:44:21.127Z</time>
      </trkpt>
      <trkpt lat="42.301109" lon="1.794682">
        <ele>1709</ele>
        <time>2020-07-11T13:44:53.127Z</time>
      </trkpt>
      <trkpt lat="42.30118" lon="1.794516">
        <ele>1703</ele>
        <time>2020-07-11T13:45:11.127Z</time>
      </trkpt>
      <trkpt lat="42.301334" lon="1.794462">
        <ele>1703</ele>
        <time>2020-07-11T13:45:20.127Z</time>
      </trkpt>
      <trkpt lat="42.301409" lon="1.794358">
        <ele>1690</ele>
        <time>2020-07-11T13:46:03.127Z</time>
      </trkpt>
      <trkpt lat="42.301503" lon="1.7943">
        <ele>1690</ele>
        <time>2020-07-11T13:46:13.127Z</time>
      </trkpt>
      <trkpt lat="42.301602" lon="1.794215">
        <ele>1688</ele>
        <time>2020-07-11T13:46:22.127Z</time>
      </trkpt>
      <trkpt lat="42.301685" lon="1.794116">
        <ele>1688</ele>
        <time>2020-07-11T13:46:29.127Z</time>
      </trkpt>
      <trkpt lat="42.301765" lon="1.794026">
        <ele>1686</ele>
        <time>2020-07-11T13:46:37.127Z</time>
      </trkpt>
      <trkpt lat="42.301911" lon="1.793936">
        <ele>1682</ele>
        <time>2020-07-11T13:46:49.127Z</time>
      </trkpt>
      <trkpt lat="42.302003" lon="1.793876">
        <ele>1681</ele>
        <time>2020-07-11T13:46:54.127Z</time>
      </trkpt>
      <trkpt lat="42.302091" lon="1.79381">
        <ele>1680</ele>
        <time>2020-07-11T13:47:02.127Z</time>
      </trkpt>
      <trkpt lat="42.302193" lon="1.793784">
        <ele>1680</ele>
        <time>2020-07-11T13:47:09.127Z</time>
      </trkpt>
      <trkpt lat="42.302294" lon="1.793762">
        <ele>1679</ele>
        <time>2020-07-11T13:47:18.127Z</time>
      </trkpt>
      <trkpt lat="42.302412" lon="1.793672">
        <ele>1677</ele>
        <time>2020-07-11T13:47:27.127Z</time>
      </trkpt>
      <trkpt lat="42.302598" lon="1.793568">
        <ele>1676</ele>
        <time>2020-07-11T13:47:37.127Z</time>
      </trkpt>
      <trkpt lat="42.302688" lon="1.793512">
        <ele>1675</ele>
        <time>2020-07-11T13:47:44.127Z</time>
      </trkpt>
      <trkpt lat="42.302783" lon="1.793426">
        <ele>1675</ele>
        <time>2020-07-11T13:47:52.127Z</time>
      </trkpt>
      <trkpt lat="42.302886" lon="1.793384">
        <ele>1675</ele>
        <time>2020-07-11T13:47:59.128Z</time>
      </trkpt>
      <trkpt lat="42.302964" lon="1.79329">
        <ele>1675</ele>
        <time>2020-07-11T13:48:08.127Z</time>
      </trkpt>
      <trkpt lat="42.303042" lon="1.793201">
        <ele>1675</ele>
        <time>2020-07-11T13:48:13.127Z</time>
      </trkpt>
      <trkpt lat="42.303182" lon="1.793174">
        <ele>1676</ele>
        <time>2020-07-11T13:48:23.127Z</time>
      </trkpt>
      <trkpt lat="42.303282" lon="1.793196">
        <ele>1676</ele>
        <time>2020-07-11T13:48:32.127Z</time>
      </trkpt>
      <trkpt lat="42.303386" lon="1.793252">
        <ele>1676</ele>
        <time>2020-07-11T13:48:40.127Z</time>
      </trkpt>
      <trkpt lat="42.303472" lon="1.793322">
        <ele>1670</ele>
        <time>2020-07-11T13:48:49.127Z</time>
      </trkpt>
      <trkpt lat="42.303566" lon="1.7934">
        <ele>1670.90699639045</ele>
        <time>2020-07-11T13:48:56.127Z</time>
      </trkpt>
      <trkpt lat="42.303652" lon="1.793471">
        <ele>1670</ele>
        <time>2020-07-11T13:49:05.127Z</time>
      </trkpt>
      <trkpt lat="42.303739" lon="1.793545">
        <ele>1669</ele>
        <time>2020-07-11T13:49:14.230Z</time>
      </trkpt>
      <trkpt lat="42.303835" lon="1.793625">
        <ele>1667</ele>
        <time>2020-07-11T13:49:22.127Z</time>
      </trkpt>
      <trkpt lat="42.303946" lon="1.793699">
        <ele>1667</ele>
        <time>2020-07-11T13:49:27.127Z</time>
      </trkpt>
      <trkpt lat="42.30403" lon="1.793782">
        <ele>1665</ele>
        <time>2020-07-11T13:49:32.127Z</time>
      </trkpt>
      <trkpt lat="42.304118" lon="1.793879">
        <ele>1664</ele>
        <time>2020-07-11T13:49:43.127Z</time>
      </trkpt>
      <trkpt lat="42.304336" lon="1.794023">
        <ele>1662</ele>
        <time>2020-07-11T13:49:54.127Z</time>
      </trkpt>
      <trkpt lat="42.304421" lon="1.794121">
        <ele>1658</ele>
        <time>2020-07-11T13:50:07.127Z</time>
      </trkpt>
      <trkpt lat="42.304449" lon="1.794259">
        <ele>1658</ele>
        <time>2020-07-11T13:50:18.127Z</time>
      </trkpt>
      <trkpt lat="42.304497" lon="1.794377">
        <ele>1657</ele>
        <time>2020-07-11T13:50:25.127Z</time>
      </trkpt>
      <trkpt lat="42.304559" lon="1.79447">
        <ele>1655</ele>
        <time>2020-07-11T13:50:35.127Z</time>
      </trkpt>
      <trkpt lat="42.304627" lon="1.794576">
        <ele>1649</ele>
        <time>2020-07-11T13:50:52.127Z</time>
      </trkpt>
      <trkpt lat="42.304724" lon="1.794533">
        <ele>1649</ele>
        <time>2020-07-11T13:51:13.127Z</time>
      </trkpt>
      <trkpt lat="42.304838" lon="1.794537">
        <ele>1647</ele>
        <time>2020-07-11T13:51:47.127Z</time>
      </trkpt>
      <trkpt lat="42.3049" lon="1.79442">
        <ele>1643.27897957094</ele>
        <time>2020-07-11T13:52:01.127Z</time>
      </trkpt>
      <trkpt lat="42.30494" lon="1.794247">
        <ele>1640</ele>
        <time>2020-07-11T13:52:14.127Z</time>
      </trkpt>
      <trkpt lat="42.304884" lon="1.794133">
        <ele>1636</ele>
        <time>2020-07-11T13:52:25.127Z</time>
      </trkpt>
      <trkpt lat="42.304812" lon="1.794033">
        <ele>1635</ele>
        <time>2020-07-11T13:52:33.127Z</time>
      </trkpt>
      <trkpt lat="42.30485" lon="1.793897">
        <ele>1631</ele>
        <time>2020-07-11T13:52:48.127Z</time>
      </trkpt>
      <trkpt lat="42.30496" lon="1.793838">
        <ele>1630</ele>
        <time>2020-07-11T13:52:55.127Z</time>
      </trkpt>
      <trkpt lat="42.305063" lon="1.793777">
        <ele>1627</ele>
        <time>2020-07-11T13:53:02.127Z</time>
      </trkpt>
      <trkpt lat="42.305161" lon="1.793716">
        <ele>1627</ele>
        <time>2020-07-11T13:53:11.127Z</time>
      </trkpt>
      <trkpt lat="42.305258" lon="1.793679">
        <ele>1627</ele>
        <time>2020-07-11T13:53:16.127Z</time>
      </trkpt>
      <trkpt lat="42.305369" lon="1.793653">
        <ele>1626.09299319031</ele>
        <time>2020-07-11T13:53:21.127Z</time>
      </trkpt>
      <trkpt lat="42.305465" lon="1.7936">
        <ele>1626</ele>
        <time>2020-07-11T13:53:29.127Z</time>
      </trkpt>
      <trkpt lat="42.305559" lon="1.793549">
        <ele>1626</ele>
        <time>2020-07-11T13:53:36.127Z</time>
      </trkpt>
      <trkpt lat="42.305663" lon="1.79353">
        <ele>1626</ele>
        <time>2020-07-11T13:53:42.127Z</time>
      </trkpt>
      <trkpt lat="42.305767" lon="1.793486">
        <ele>1626</ele>
        <time>2020-07-11T13:53:48.127Z</time>
      </trkpt>
      <trkpt lat="42.305856" lon="1.793423">
        <ele>1625</ele>
        <time>2020-07-11T13:53:56.133Z</time>
      </trkpt>
      <trkpt lat="42.305955" lon="1.793368">
        <ele>1627</ele>
        <time>2020-07-11T13:54:07.132Z</time>
      </trkpt>
      <trkpt lat="42.306024" lon="1.793238">
        <ele>1628</ele>
        <time>2020-07-11T13:54:15.127Z</time>
      </trkpt>
      <trkpt lat="42.30609" lon="1.793129">
        <ele>1628</ele>
        <time>2020-07-11T13:54:20.129Z</time>
      </trkpt>
      <trkpt lat="42.306093" lon="1.79299">
        <ele>1629</ele>
        <time>2020-07-11T13:54:29.634Z</time>
      </trkpt>
      <trkpt lat="42.306106" lon="1.792847">
        <ele>1630</ele>
        <time>2020-07-11T13:54:45.127Z</time>
      </trkpt>
      <trkpt lat="42.306185" lon="1.792719">
        <ele>1630</ele>
        <time>2020-07-11T13:54:53.124Z</time>
      </trkpt>
      <trkpt lat="42.306269" lon="1.792639">
        <ele>1630</ele>
        <time>2020-07-11T13:55:00.127Z</time>
      </trkpt>
      <trkpt lat="42.306353" lon="1.792559">
        <ele>1630</ele>
        <time>2020-07-11T13:55:05.127Z</time>
      </trkpt>
      <trkpt lat="42.306439" lon="1.792477">
        <ele>1631</ele>
        <time>2020-07-11T13:55:14.121Z</time>
      </trkpt>
      <trkpt lat="42.306526" lon="1.792408">
        <ele>1631</ele>
        <time>2020-07-11T13:55:19.127Z</time>
      </trkpt>
      <trkpt lat="42.306624" lon="1.792336">
        <ele>1631</ele>
        <time>2020-07-11T13:55:30.127Z</time>
      </trkpt>
      <trkpt lat="42.306727" lon="1.792319">
        <ele>1633</ele>
        <time>2020-07-11T13:55:38.127Z</time>
      </trkpt>
      <trkpt lat="42.306828" lon="1.792337">
        <ele>1634</ele>
        <time>2020-07-11T13:55:47.127Z</time>
      </trkpt>
      <trkpt lat="42.306928" lon="1.792338">
        <ele>1636</ele>
        <time>2020-07-11T13:55:58.127Z</time>
      </trkpt>
      <trkpt lat="42.307032" lon="1.79233">
        <ele>1636</ele>
        <time>2020-07-11T13:56:06.127Z</time>
      </trkpt>
      <trkpt lat="42.307146" lon="1.792348">
        <ele>1636</ele>
        <time>2020-07-11T13:56:13.127Z</time>
      </trkpt>
      <trkpt lat="42.30725" lon="1.792382">
        <ele>1636.90700680969</ele>
        <time>2020-07-11T13:56:21.127Z</time>
      </trkpt>
      <trkpt lat="42.307346" lon="1.792419">
        <ele>1637</ele>
        <time>2020-07-11T13:56:28.127Z</time>
      </trkpt>
      <trkpt lat="42.307448" lon="1.792444">
        <ele>1637</ele>
        <time>2020-07-11T13:56:37.127Z</time>
      </trkpt>
      <trkpt lat="42.307548" lon="1.792466">
        <ele>1638</ele>
        <time>2020-07-11T13:56:45.127Z</time>
      </trkpt>
      <trkpt lat="42.307657" lon="1.7925">
        <ele>1639</ele>
        <time>2020-07-11T13:56:53.127Z</time>
      </trkpt>
      <trkpt lat="42.307759" lon="1.792468">
        <ele>1639</ele>
        <time>2020-07-11T13:57:00.127Z</time>
      </trkpt>
      <trkpt lat="42.307858" lon="1.79244">
        <ele>1639</ele>
        <time>2020-07-11T13:57:08.127Z</time>
      </trkpt>
      <trkpt lat="42.307963" lon="1.792419">
        <ele>1638</ele>
        <time>2020-07-11T13:57:16.127Z</time>
      </trkpt>
      <trkpt lat="42.308068" lon="1.792409">
        <ele>1637</ele>
        <time>2020-07-11T13:57:23.127Z</time>
      </trkpt>
      <trkpt lat="42.308168" lon="1.792412">
        <ele>1637</ele>
        <time>2020-07-11T13:57:29.127Z</time>
      </trkpt>
      <trkpt lat="42.30827" lon="1.792412">
        <ele>1635</ele>
        <time>2020-07-11T13:57:36.127Z</time>
      </trkpt>
      <trkpt lat="42.308382" lon="1.792402">
        <ele>1634</ele>
        <time>2020-07-11T13:57:44.127Z</time>
      </trkpt>
      <trkpt lat="42.308486" lon="1.792384">
        <ele>1634</ele>
        <time>2020-07-11T13:57:52.127Z</time>
      </trkpt>
      <trkpt lat="42.308587" lon="1.792397">
        <ele>1634</ele>
        <time>2020-07-11T13:57:59.127Z</time>
      </trkpt>
      <trkpt lat="42.308702" lon="1.792432">
        <ele>1634</ele>
        <time>2020-07-11T13:58:06.127Z</time>
      </trkpt>
      <trkpt lat="42.308806" lon="1.792412">
        <ele>1635</ele>
        <time>2020-07-11T13:58:14.127Z</time>
      </trkpt>
      <trkpt lat="42.308916" lon="1.792315">
        <ele>1635</ele>
        <time>2020-07-11T13:58:28.127Z</time>
      </trkpt>
      <trkpt lat="42.308962" lon="1.792197">
        <ele>1636</ele>
        <time>2020-07-11T13:58:35.127Z</time>
      </trkpt>
      <trkpt lat="42.308962" lon="1.792073">
        <ele>1636</ele>
        <time>2020-07-11T13:58:42.127Z</time>
      </trkpt>
      <trkpt lat="42.308956" lon="1.791938">
        <ele>1636</ele>
        <time>2020-07-11T13:58:48.121Z</time>
      </trkpt>
      <trkpt lat="42.308972" lon="1.791788">
        <ele>1636</ele>
        <time>2020-07-11T13:58:55.122Z</time>
      </trkpt>
      <trkpt lat="42.309001" lon="1.79167">
        <ele>1636</ele>
        <time>2020-07-11T13:59:04.127Z</time>
      </trkpt>
      <trkpt lat="42.309019" lon="1.791576">
        <ele>1636</ele>
        <time>2020-07-11T13:59:10.127Z</time>
      </trkpt>
      <trkpt lat="42.309062" lon="1.791466">
        <ele>1635</ele>
        <time>2020-07-11T13:59:17.129Z</time>
      </trkpt>
      <trkpt lat="42.309149" lon="1.79137">
        <ele>1634</ele>
        <time>2020-07-11T13:59:22.127Z</time>
      </trkpt>
      <trkpt lat="42.309169" lon="1.791224">
        <ele>1634</ele>
        <time>2020-07-11T13:59:31.127Z</time>
      </trkpt>
      <trkpt lat="42.309177" lon="1.791086">
        <ele>1634</ele>
        <time>2020-07-11T13:59:39.127Z</time>
      </trkpt>
      <trkpt lat="42.309149" lon="1.790948">
        <ele>1634</ele>
        <time>2020-07-11T13:59:48.127Z</time>
      </trkpt>
      <trkpt lat="42.309144" lon="1.790814">
        <ele>1632</ele>
        <time>2020-07-11T13:59:56.239Z</time>
      </trkpt>
      <trkpt lat="42.309297" lon="1.79064">
        <ele>1629</ele>
        <time>2020-07-11T14:00:10.127Z</time>
      </trkpt>
      <trkpt lat="42.309371" lon="1.790555">
        <ele>1627</ele>
        <time>2020-07-11T14:00:49.127Z</time>
      </trkpt>
      <trkpt lat="42.309421" lon="1.790483">
        <ele>1627</ele>
        <time>2020-07-11T14:00:59.127Z</time>
      </trkpt>
      <trkpt lat="42.309468" lon="1.790408">
        <ele>1625</ele>
        <time>2020-07-11T14:01:06.127Z</time>
      </trkpt>
      <trkpt lat="42.309519" lon="1.790451">
        <ele>1624</ele>
        <time>2020-07-11T14:01:22.127Z</time>
      </trkpt>
      <trkpt lat="42.309601" lon="1.790445">
        <ele>1619</ele>
        <time>2020-07-11T14:07:09.234Z</time>
      </trkpt>
      <trkpt lat="42.309523" lon="1.790482">
        <ele>1619</ele>
        <time>2020-07-11T14:07:55.129Z</time>
      </trkpt>
      <trkpt lat="42.309523" lon="1.790562">
        <ele>1612</ele>
        <time>2020-07-11T14:13:28.127Z</time>
      </trkpt>
      <trkpt lat="42.309558" lon="1.790642">
        <ele>1612</ele>
        <time>2020-07-11T14:13:34.127Z</time>
      </trkpt>
      <trkpt lat="42.309581" lon="1.79071">
        <ele>1612</ele>
        <time>2020-07-11T14:13:40.127Z</time>
      </trkpt>
      <trkpt lat="42.309605" lon="1.790786">
        <ele>1613</ele>
        <time>2020-07-11T14:13:46.127Z</time>
      </trkpt>
      <trkpt lat="42.309633" lon="1.790866">
        <ele>1614</ele>
        <time>2020-07-11T14:13:52.127Z</time>
      </trkpt>
      <trkpt lat="42.309663" lon="1.79098">
        <ele>1613</ele>
        <time>2020-07-11T14:14:02.127Z</time>
      </trkpt>
      <trkpt lat="42.30968" lon="1.791095">
        <ele>1614</ele>
        <time>2020-07-11T14:14:14.127Z</time>
      </trkpt>
      <trkpt lat="42.309626" lon="1.79121">
        <ele>1616</ele>
        <time>2020-07-11T14:14:26.127Z</time>
      </trkpt>
      <trkpt lat="42.309587" lon="1.791347">
        <ele>1620</ele>
        <time>2020-07-11T14:14:38.127Z</time>
      </trkpt>
      <trkpt lat="42.30951" lon="1.791495">
        <ele>1621</ele>
        <time>2020-07-11T14:14:54.127Z</time>
      </trkpt>
      <trkpt lat="42.309459" lon="1.791663">
        <ele>1622</ele>
        <time>2020-07-11T14:15:06.127Z</time>
      </trkpt>
      <trkpt lat="42.309442" lon="1.791823">
        <ele>1623</ele>
        <time>2020-07-11T14:15:18.127Z</time>
      </trkpt>
      <trkpt lat="42.309433" lon="1.791956">
        <ele>1625</ele>
        <time>2020-07-11T14:15:26.127Z</time>
      </trkpt>
      <trkpt lat="42.309489" lon="1.792101">
        <ele>1625</ele>
        <time>2020-07-11T14:15:38.127Z</time>
      </trkpt>
      <trkpt lat="42.309565" lon="1.792246">
        <ele>1625</ele>
        <time>2020-07-11T14:15:46.127Z</time>
      </trkpt>
      <trkpt lat="42.309626" lon="1.792364">
        <ele>1625</ele>
        <time>2020-07-11T14:15:58.127Z</time>
      </trkpt>
      <trkpt lat="42.309739" lon="1.792457">
        <ele>1625</ele>
        <time>2020-07-11T14:16:10.127Z</time>
      </trkpt>
      <trkpt lat="42.309835" lon="1.792488">
        <ele>1625</ele>
        <time>2020-07-11T14:16:18.127Z</time>
      </trkpt>
      <trkpt lat="42.309972" lon="1.792529">
        <ele>1624</ele>
        <time>2020-07-11T14:16:30.127Z</time>
      </trkpt>
      <trkpt lat="42.31007" lon="1.792528">
        <ele>1625</ele>
        <time>2020-07-11T14:16:38.127Z</time>
      </trkpt>
      <trkpt lat="42.310209" lon="1.792509">
        <ele>1625</ele>
        <time>2020-07-11T14:16:50.127Z</time>
      </trkpt>
      <trkpt lat="42.310318" lon="1.792533">
        <ele>1625</ele>
        <time>2020-07-11T14:16:58.127Z</time>
      </trkpt>
      <trkpt lat="42.310458" lon="1.792572">
        <ele>1626</ele>
        <time>2020-07-11T14:17:10.127Z</time>
      </trkpt>
      <trkpt lat="42.310575" lon="1.792628">
        <ele>1625</ele>
        <time>2020-07-11T14:17:22.127Z</time>
      </trkpt>
      <trkpt lat="42.310687" lon="1.7927">
        <ele>1625</ele>
        <time>2020-07-11T14:17:34.127Z</time>
      </trkpt>
      <trkpt lat="42.310794" lon="1.792786">
        <ele>1624</ele>
        <time>2020-07-11T14:17:46.127Z</time>
      </trkpt>
      <trkpt lat="42.310906" lon="1.792886">
        <ele>1624</ele>
        <time>2020-07-11T14:17:58.127Z</time>
      </trkpt>
      <trkpt lat="42.310986" lon="1.79297">
        <ele>1624</ele>
        <time>2020-07-11T14:18:06.127Z</time>
      </trkpt>
      <trkpt lat="42.311105" lon="1.79305">
        <ele>1624</ele>
        <time>2020-07-11T14:18:18.127Z</time>
      </trkpt>
      <trkpt lat="42.311192" lon="1.793114">
        <ele>1624</ele>
        <time>2020-07-11T14:18:26.127Z</time>
      </trkpt>
      <trkpt lat="42.311302" lon="1.793198">
        <ele>1624</ele>
        <time>2020-07-11T14:18:38.127Z</time>
      </trkpt>
      <trkpt lat="42.31139" lon="1.793262">
        <ele>1626</ele>
        <time>2020-07-11T14:18:46.127Z</time>
      </trkpt>
      <trkpt lat="42.311471" lon="1.793388">
        <ele>1627</ele>
        <time>2020-07-11T14:18:58.127Z</time>
      </trkpt>
      <trkpt lat="42.311538" lon="1.793533">
        <ele>1628</ele>
        <time>2020-07-11T14:19:10.127Z</time>
      </trkpt>
      <trkpt lat="42.311618" lon="1.793731">
        <ele>1628</ele>
        <time>2020-07-11T14:19:22.127Z</time>
      </trkpt>
      <trkpt lat="42.311639" lon="1.793867">
        <ele>1628</ele>
        <time>2020-07-11T14:19:30.127Z</time>
      </trkpt>
      <trkpt lat="42.311646" lon="1.794051">
        <ele>1627</ele>
        <time>2020-07-11T14:19:42.127Z</time>
      </trkpt>
      <trkpt lat="42.311688" lon="1.794178">
        <ele>1627</ele>
        <time>2020-07-11T14:19:50.127Z</time>
      </trkpt>
      <trkpt lat="42.311762" lon="1.79429">
        <ele>1626</ele>
        <time>2020-07-11T14:19:58.127Z</time>
      </trkpt>
      <trkpt lat="42.311847" lon="1.794423">
        <ele>1626</ele>
        <time>2020-07-11T14:20:06.127Z</time>
      </trkpt>
      <trkpt lat="42.311914" lon="1.794588">
        <ele>1627</ele>
        <time>2020-07-11T14:20:22.127Z</time>
      </trkpt>
      <trkpt lat="42.311953" lon="1.794713">
        <ele>1627</ele>
        <time>2020-07-11T14:20:30.127Z</time>
      </trkpt>
      <trkpt lat="42.31201" lon="1.795173">
        <ele>1627</ele>
        <time>2020-07-11T14:20:47.127Z</time>
      </trkpt>
      <trkpt lat="42.311988" lon="1.79533">
        <ele>1626</ele>
        <time>2020-07-11T14:20:58.127Z</time>
      </trkpt>
      <trkpt lat="42.312077" lon="1.795391">
        <ele>1626</ele>
        <time>2020-07-11T14:21:17.127Z</time>
      </trkpt>
      <trkpt lat="42.312172" lon="1.795329">
        <ele>1626</ele>
        <time>2020-07-11T14:21:37.127Z</time>
      </trkpt>
      <trkpt lat="42.312237" lon="1.795224">
        <ele>1625</ele>
        <time>2020-07-11T14:21:45.123Z</time>
      </trkpt>
      <trkpt lat="42.312291" lon="1.795099">
        <ele>1626</ele>
        <time>2020-07-11T14:21:56.231Z</time>
      </trkpt>
      <trkpt lat="42.312455" lon="1.795038">
        <ele>1626</ele>
        <time>2020-07-11T14:22:07.127Z</time>
      </trkpt>
      <trkpt lat="42.312542" lon="1.794973">
        <ele>1626</ele>
        <time>2020-07-11T14:22:22.120Z</time>
      </trkpt>
      <trkpt lat="42.31262" lon="1.794879">
        <ele>1626</ele>
        <time>2020-07-11T14:22:30.127Z</time>
      </trkpt>
      <trkpt lat="42.312707" lon="1.794806">
        <ele>1626</ele>
        <time>2020-07-11T14:22:38.127Z</time>
      </trkpt>
      <trkpt lat="42.31281" lon="1.794797">
        <ele>1626</ele>
        <time>2020-07-11T14:22:49.127Z</time>
      </trkpt>
      <trkpt lat="42.312914" lon="1.794794">
        <ele>1627</ele>
        <time>2020-07-11T14:22:57.127Z</time>
      </trkpt>
      <trkpt lat="42.313013" lon="1.794808">
        <ele>1629</ele>
        <time>2020-07-11T14:23:07.127Z</time>
      </trkpt>
      <trkpt lat="42.313119" lon="1.794816">
        <ele>1630</ele>
        <time>2020-07-11T14:23:18.127Z</time>
      </trkpt>
      <trkpt lat="42.313219" lon="1.794817">
        <ele>1632</ele>
        <time>2020-07-11T14:23:30.127Z</time>
      </trkpt>
      <trkpt lat="42.313285" lon="1.794758">
        <ele>1633</ele>
        <time>2020-07-11T14:23:44.119Z</time>
      </trkpt>
      <trkpt lat="42.313393" lon="1.794688">
        <ele>1634</ele>
        <time>2020-07-11T14:23:52.121Z</time>
      </trkpt>
      <trkpt lat="42.313407" lon="1.794553">
        <ele>1633.09299319031</ele>
        <time>2020-07-11T14:24:01.127Z</time>
      </trkpt>
      <trkpt lat="42.313337" lon="1.794452">
        <ele>1633</ele>
        <time>2020-07-11T14:24:12.127Z</time>
      </trkpt>
      <trkpt lat="42.313282" lon="1.794322">
        <ele>1633</ele>
        <time>2020-07-11T14:24:19.127Z</time>
      </trkpt>
      <trkpt lat="42.313239" lon="1.794184">
        <ele>1632</ele>
        <time>2020-07-11T14:24:27.127Z</time>
      </trkpt>
      <trkpt lat="42.313175" lon="1.794039">
        <ele>1631</ele>
        <time>2020-07-11T14:24:34.127Z</time>
      </trkpt>
      <trkpt lat="42.313177" lon="1.793887">
        <ele>1631</ele>
        <time>2020-07-11T14:24:41.119Z</time>
      </trkpt>
      <trkpt lat="42.313263" lon="1.793814">
        <ele>1631</ele>
        <time>2020-07-11T14:24:49.124Z</time>
      </trkpt>
      <trkpt lat="42.313262" lon="1.793671">
        <ele>1633</ele>
        <time>2020-07-11T14:24:55.131Z</time>
      </trkpt>
      <trkpt lat="42.313312" lon="1.793554">
        <ele>1632</ele>
        <time>2020-07-11T14:25:20.128Z</time>
      </trkpt>
      <trkpt lat="42.313347" lon="1.793423">
        <ele>1635.81401361937</ele>
        <time>2020-07-11T14:25:31.127Z</time>
      </trkpt>
      <trkpt lat="42.313433" lon="1.793331">
        <ele>1636</ele>
        <time>2020-07-11T14:25:40.127Z</time>
      </trkpt>
      <trkpt lat="42.313498" lon="1.79323">
        <ele>1640</ele>
        <time>2020-07-11T14:25:52.127Z</time>
      </trkpt>
      <trkpt lat="42.313586" lon="1.793142">
        <ele>1640</ele>
        <time>2020-07-11T14:25:58.127Z</time>
      </trkpt>
      <trkpt lat="42.313694" lon="1.793139">
        <ele>1642</ele>
        <time>2020-07-11T14:26:09.127Z</time>
      </trkpt>
      <trkpt lat="42.313777" lon="1.793236">
        <ele>1640</ele>
        <time>2020-07-11T14:26:24.127Z</time>
      </trkpt>
      <trkpt lat="42.313877" lon="1.79325">
        <ele>1640</ele>
        <time>2020-07-11T14:26:30.127Z</time>
      </trkpt>
      <trkpt lat="42.314026" lon="1.793327">
        <ele>1637.2060032</ele>
        <time>2020-07-11T14:26:41.127Z</time>
      </trkpt>
      <trkpt lat="42.314139" lon="1.793297">
        <ele>1636</ele>
        <time>2020-07-11T14:26:56.127Z</time>
      </trkpt>
      <trkpt lat="42.314213" lon="1.793202">
        <ele>1636</ele>
        <time>2020-07-11T14:27:03.127Z</time>
      </trkpt>
      <trkpt lat="42.31428" lon="1.793096">
        <ele>1636</ele>
        <time>2020-07-11T14:27:12.127Z</time>
      </trkpt>
      <trkpt lat="42.314339" lon="1.792888">
        <ele>1635</ele>
        <time>2020-07-11T14:27:26.127Z</time>
      </trkpt>
      <trkpt lat="42.314417" lon="1.792789">
        <ele>1634</ele>
        <time>2020-07-11T14:27:34.127Z</time>
      </trkpt>
      <trkpt lat="42.314505" lon="1.792719">
        <ele>1634</ele>
        <time>2020-07-11T14:27:43.127Z</time>
      </trkpt>
      <trkpt lat="42.314595" lon="1.792638">
        <ele>1635</ele>
        <time>2020-07-11T14:27:53.131Z</time>
      </trkpt>
      <trkpt lat="42.314671" lon="1.792514">
        <ele>1635</ele>
        <time>2020-07-11T14:27:59.127Z</time>
      </trkpt>
      <trkpt lat="42.314769" lon="1.792511">
        <ele>1634</ele>
        <time>2020-07-11T14:28:06.127Z</time>
      </trkpt>
      <trkpt lat="42.314876" lon="1.792502">
        <ele>1634</ele>
        <time>2020-07-11T14:28:16.237Z</time>
      </trkpt>
      <trkpt lat="42.314966" lon="1.792431">
        <ele>1634</ele>
        <time>2020-07-11T14:28:23.137Z</time>
      </trkpt>
      <trkpt lat="42.315049" lon="1.792356">
        <ele>1632</ele>
        <time>2020-07-11T14:28:36.127Z</time>
      </trkpt>
      <trkpt lat="42.31514" lon="1.792273">
        <ele>1631</ele>
        <time>2020-07-11T14:28:44.127Z</time>
      </trkpt>
      <trkpt lat="42.315231" lon="1.7922">
        <ele>1631</ele>
        <time>2020-07-11T14:28:56.127Z</time>
      </trkpt>
      <trkpt lat="42.315319" lon="1.792106">
        <ele>1633</ele>
        <time>2020-07-11T14:29:05.127Z</time>
      </trkpt>
      <trkpt lat="42.315395" lon="1.791998">
        <ele>1633</ele>
        <time>2020-07-11T14:29:14.123Z</time>
      </trkpt>
      <trkpt lat="42.315495" lon="1.791995">
        <ele>1634</ele>
        <time>2020-07-11T14:29:22.134Z</time>
      </trkpt>
      <trkpt lat="42.315586" lon="1.791935">
        <ele>1635</ele>
        <time>2020-07-11T14:29:32.127Z</time>
      </trkpt>
      <trkpt lat="42.315635" lon="1.792058">
        <ele>1637</ele>
        <time>2020-07-11T14:29:47.127Z</time>
      </trkpt>
      <trkpt lat="42.315668" lon="1.792199">
        <ele>1642</ele>
        <time>2020-07-11T14:29:58.127Z</time>
      </trkpt>
      <trkpt lat="42.315638" lon="1.792341">
        <ele>1644</ele>
        <time>2020-07-11T14:30:13.127Z</time>
      </trkpt>
      <trkpt lat="42.315638" lon="1.792475">
        <ele>1647</ele>
        <time>2020-07-11T14:30:35.127Z</time>
      </trkpt>
      <trkpt lat="42.315641" lon="1.792563">
        <ele>1648</ele>
        <time>2020-07-11T14:30:45.127Z</time>
      </trkpt>
      <trkpt lat="42.315621" lon="1.792701">
        <ele>1650</ele>
        <time>2020-07-11T14:30:55.127Z</time>
      </trkpt>
      <trkpt lat="42.31558" lon="1.792846">
        <ele>1652</ele>
        <time>2020-07-11T14:31:09.128Z</time>
      </trkpt>
      <trkpt lat="42.315499" lon="1.792928">
        <ele>1658</ele>
        <time>2020-07-11T14:31:33.127Z</time>
      </trkpt>
      <trkpt lat="42.315461" lon="1.793052">
        <ele>1659</ele>
        <time>2020-07-11T14:31:48.127Z</time>
      </trkpt>
      <trkpt lat="42.315477" lon="1.793192">
        <ele>1662</ele>
        <time>2020-07-11T14:32:05.127Z</time>
      </trkpt>
      <trkpt lat="42.315467" lon="1.793326">
        <ele>1663</ele>
        <time>2020-07-11T14:32:12.127Z</time>
      </trkpt>
      <trkpt lat="42.315481" lon="1.793462">
        <ele>1665</ele>
        <time>2020-07-11T14:32:27.127Z</time>
      </trkpt>
      <trkpt lat="42.315505" lon="1.793588">
        <ele>1668</ele>
        <time>2020-07-11T14:32:44.128Z</time>
      </trkpt>
      <trkpt lat="42.315524" lon="1.79373">
        <ele>1670</ele>
        <time>2020-07-11T14:32:58.127Z</time>
      </trkpt>
      <trkpt lat="42.315526" lon="1.793872">
        <ele>1670</ele>
        <time>2020-07-11T14:33:10.127Z</time>
      </trkpt>
      <trkpt lat="42.315538" lon="1.794014">
        <ele>1673</ele>
        <time>2020-07-11T14:33:24.127Z</time>
      </trkpt>
      <trkpt lat="42.315517" lon="1.794154">
        <ele>1674</ele>
        <time>2020-07-11T14:33:39.127Z</time>
      </trkpt>
      <trkpt lat="42.315531" lon="1.794299">
        <ele>1675</ele>
        <time>2020-07-11T14:33:50.127Z</time>
      </trkpt>
      <trkpt lat="42.315517" lon="1.794441">
        <ele>1677.81800727049</ele>
        <time>2020-07-11T14:34:01.129Z</time>
      </trkpt>
      <trkpt lat="42.31555" lon="1.794588">
        <ele>1680</ele>
        <time>2020-07-11T14:34:16.127Z</time>
      </trkpt>
      <trkpt lat="42.315567" lon="1.794736">
        <ele>1680</ele>
        <time>2020-07-11T14:34:27.126Z</time>
      </trkpt>
      <trkpt lat="42.315636" lon="1.794833">
        <ele>1681</ele>
        <time>2020-07-11T14:34:34.127Z</time>
      </trkpt>
      <trkpt lat="42.315696" lon="1.794982">
        <ele>1682</ele>
        <time>2020-07-11T14:34:50.127Z</time>
      </trkpt>
      <trkpt lat="42.315809" lon="1.795021">
        <ele>1684</ele>
        <time>2020-07-11T14:34:58.127Z</time>
      </trkpt>
      <trkpt lat="42.315894" lon="1.795115">
        <ele>1685</ele>
        <time>2020-07-11T14:35:09.127Z</time>
      </trkpt>
      <trkpt lat="42.315967" lon="1.795216">
        <ele>1685</ele>
        <time>2020-07-11T14:35:21.122Z</time>
      </trkpt>
      <trkpt lat="42.316049" lon="1.795312">
        <ele>1685</ele>
        <time>2020-07-11T14:35:31.127Z</time>
      </trkpt>
      <trkpt lat="42.31612" lon="1.795422">
        <ele>1685</ele>
        <time>2020-07-11T14:35:39.127Z</time>
      </trkpt>
      <trkpt lat="42.316195" lon="1.795516">
        <ele>1686</ele>
        <time>2020-07-11T14:35:52.126Z</time>
      </trkpt>
      <trkpt lat="42.316299" lon="1.79561">
        <ele>1686</ele>
        <time>2020-07-11T14:36:00.127Z</time>
      </trkpt>
      <trkpt lat="42.316381" lon="1.795706">
        <ele>1687</ele>
        <time>2020-07-11T14:36:07.127Z</time>
      </trkpt>
      <trkpt lat="42.316467" lon="1.795824">
        <ele>1687</ele>
        <time>2020-07-11T14:36:20.127Z</time>
      </trkpt>
      <trkpt lat="42.316535" lon="1.79593">
        <ele>1689</ele>
        <time>2020-07-11T14:36:32.127Z</time>
      </trkpt>
      <trkpt lat="42.316616" lon="1.79602">
        <ele>1689</ele>
        <time>2020-07-11T14:36:40.127Z</time>
      </trkpt>
      <trkpt lat="42.316713" lon="1.796102">
        <ele>1691</ele>
        <time>2020-07-11T14:36:56.127Z</time>
      </trkpt>
      <trkpt lat="42.316805" lon="1.796176">
        <ele>1692</ele>
        <time>2020-07-11T14:37:04.127Z</time>
      </trkpt>
      <trkpt lat="42.316904" lon="1.796224">
        <ele>1692</ele>
        <time>2020-07-11T14:37:14.127Z</time>
      </trkpt>
      <trkpt lat="42.317017" lon="1.796272">
        <ele>1692</ele>
        <time>2020-07-11T14:37:24.132Z</time>
      </trkpt>
      <trkpt lat="42.317119" lon="1.796358">
        <ele>1693</ele>
        <time>2020-07-11T14:37:36.127Z</time>
      </trkpt>
      <trkpt lat="42.317218" lon="1.796402">
        <ele>1694</ele>
        <time>2020-07-11T14:37:43.127Z</time>
      </trkpt>
      <trkpt lat="42.317284" lon="1.796592">
        <ele>1695</ele>
        <time>2020-07-11T14:37:53.134Z</time>
      </trkpt>
      <trkpt lat="42.317392" lon="1.79665">
        <ele>1695</ele>
        <time>2020-07-11T14:37:59.127Z</time>
      </trkpt>
      <trkpt lat="42.317438" lon="1.796776">
        <ele>1694</ele>
        <time>2020-07-11T14:38:07.127Z</time>
      </trkpt>
      <trkpt lat="42.317482" lon="1.796902">
        <ele>1694</ele>
        <time>2020-07-11T14:38:20.124Z</time>
      </trkpt>
      <trkpt lat="42.31755" lon="1.797016">
        <ele>1696</ele>
        <time>2020-07-11T14:38:29.127Z</time>
      </trkpt>
      <trkpt lat="42.317597" lon="1.797138">
        <ele>1698</ele>
        <time>2020-07-11T14:38:39.127Z</time>
      </trkpt>
      <trkpt lat="42.31762" lon="1.797269">
        <ele>1698</ele>
        <time>2020-07-11T14:38:49.127Z</time>
      </trkpt>
      <trkpt lat="42.317653" lon="1.797421">
        <ele>1700</ele>
        <time>2020-07-11T14:39:19.127Z</time>
      </trkpt>
      <trkpt lat="42.317716" lon="1.79753">
        <ele>1701</ele>
        <time>2020-07-11T14:39:29.127Z</time>
      </trkpt>
      <trkpt lat="42.317769" lon="1.797656">
        <ele>1702</ele>
        <time>2020-07-11T14:39:40.127Z</time>
      </trkpt>
      <trkpt lat="42.317837" lon="1.79774">
        <ele>1703</ele>
        <time>2020-07-11T14:39:49.135Z</time>
      </trkpt>
      <trkpt lat="42.317881" lon="1.797871">
        <ele>1704</ele>
        <time>2020-07-11T14:39:59.127Z</time>
      </trkpt>
      <trkpt lat="42.317978" lon="1.797891">
        <ele>1705</ele>
        <time>2020-07-11T14:40:06.127Z</time>
      </trkpt>
      <trkpt lat="42.318074" lon="1.797957">
        <ele>1705</ele>
        <time>2020-07-11T14:40:16.231Z</time>
      </trkpt>
      <trkpt lat="42.318176" lon="1.797982">
        <ele>1706</ele>
        <time>2020-07-11T14:40:23.128Z</time>
      </trkpt>
      <trkpt lat="42.318262" lon="1.798062">
        <ele>1707</ele>
        <time>2020-07-11T14:40:33.127Z</time>
      </trkpt>
      <trkpt lat="42.318368" lon="1.798057">
        <ele>1707</ele>
        <time>2020-07-11T14:40:42.127Z</time>
      </trkpt>
      <trkpt lat="42.318468" lon="1.798043">
        <ele>1707</ele>
        <time>2020-07-11T14:40:50.124Z</time>
      </trkpt>
      <trkpt lat="42.318568" lon="1.798047">
        <ele>1711</ele>
        <time>2020-07-11T14:41:04.127Z</time>
      </trkpt>
      <trkpt lat="42.318669" lon="1.798048">
        <ele>1712</ele>
        <time>2020-07-11T14:41:16.128Z</time>
      </trkpt>
      <trkpt lat="42.318752" lon="1.798114">
        <ele>1713</ele>
        <time>2020-07-11T14:41:25.127Z</time>
      </trkpt>
      <trkpt lat="42.318862" lon="1.798112">
        <ele>1713</ele>
        <time>2020-07-11T14:41:34.127Z</time>
      </trkpt>
      <trkpt lat="42.318952" lon="1.798135">
        <ele>1712</ele>
        <time>2020-07-11T14:41:42.127Z</time>
      </trkpt>
      <trkpt lat="42.319054" lon="1.79814">
        <ele>1712</ele>
        <time>2020-07-11T14:41:56.120Z</time>
      </trkpt>
      <trkpt lat="42.319143" lon="1.798232">
        <ele>1712</ele>
        <time>2020-07-11T14:42:06.127Z</time>
      </trkpt>
      <trkpt lat="42.31924" lon="1.79828">
        <ele>1712</ele>
        <time>2020-07-11T14:42:14.120Z</time>
      </trkpt>
      <trkpt lat="42.319323" lon="1.798354">
        <ele>1712</ele>
        <time>2020-07-11T14:42:20.122Z</time>
      </trkpt>
      <trkpt lat="42.319379" lon="1.798426">
        <ele>1712</ele>
        <time>2020-07-11T14:42:25.127Z</time>
      </trkpt>
      <trkpt lat="42.319494" lon="1.798414">
        <ele>1712</ele>
        <time>2020-07-11T14:42:30.127Z</time>
      </trkpt>
      <trkpt lat="42.31961" lon="1.798501">
        <ele>1711</ele>
        <time>2020-07-11T14:42:46.127Z</time>
      </trkpt>
      <trkpt lat="42.319617" lon="1.798551">
        <ele>1711.90700680969</ele>
        <time>2020-07-11T14:42:51.127Z</time>
      </trkpt>
      <trkpt lat="42.319615" lon="1.79861">
        <ele>1712</ele>
        <time>2020-07-11T14:42:56.127Z</time>
      </trkpt>
      <trkpt lat="42.319603" lon="1.798764">
        <ele>1713</ele>
        <time>2020-07-11T14:43:07.127Z</time>
      </trkpt>
      <trkpt lat="42.319599" lon="1.798834">
        <ele>1715</ele>
        <time>2020-07-11T14:43:12.127Z</time>
      </trkpt>
      <trkpt lat="42.319554" lon="1.798957">
        <ele>1717</ele>
        <time>2020-07-11T14:43:24.123Z</time>
      </trkpt>
      <trkpt lat="42.31953" lon="1.799091">
        <ele>1720</ele>
        <time>2020-07-11T14:43:43.127Z</time>
      </trkpt>
      <trkpt lat="42.319597" lon="1.799207">
        <ele>1720</ele>
        <time>2020-07-11T14:44:00.127Z</time>
      </trkpt>
      <trkpt lat="42.319632" lon="1.799342">
        <ele>1718</ele>
        <time>2020-07-11T14:44:07.127Z</time>
      </trkpt>
      <trkpt lat="42.31971" lon="1.799475">
        <ele>1718</ele>
        <time>2020-07-11T14:44:20.127Z</time>
      </trkpt>
      <trkpt lat="42.31987" lon="1.799683">
        <ele>1718</ele>
        <time>2020-07-11T14:44:30.127Z</time>
      </trkpt>
      <trkpt lat="42.319904" lon="1.79981">
        <ele>1717</ele>
        <time>2020-07-11T14:44:39.122Z</time>
      </trkpt>
      <trkpt lat="42.31996" lon="1.799931">
        <ele>1717</ele>
        <time>2020-07-11T14:44:45.127Z</time>
      </trkpt>
      <trkpt lat="42.319982" lon="1.800065">
        <ele>1717.90700680969</ele>
        <time>2020-07-11T14:44:51.127Z</time>
      </trkpt>
      <trkpt lat="42.320053" lon="1.800192">
        <ele>1719</ele>
        <time>2020-07-11T14:45:06.127Z</time>
      </trkpt>
      <trkpt lat="42.320099" lon="1.800317">
        <ele>1718</ele>
        <time>2020-07-11T14:45:20.127Z</time>
      </trkpt>
      <trkpt lat="42.320167" lon="1.800423">
        <ele>1717</ele>
        <time>2020-07-11T14:45:29.127Z</time>
      </trkpt>
      <trkpt lat="42.320241" lon="1.800516">
        <ele>1718</ele>
        <time>2020-07-11T14:45:37.127Z</time>
      </trkpt>
      <trkpt lat="42.32031" lon="1.800618">
        <ele>1718</ele>
        <time>2020-07-11T14:45:45.127Z</time>
      </trkpt>
      <trkpt lat="42.320379" lon="1.800728">
        <ele>1718</ele>
        <time>2020-07-11T14:45:54.127Z</time>
      </trkpt>
      <trkpt lat="42.320441" lon="1.800845">
        <ele>1717</ele>
        <time>2020-07-11T14:46:02.127Z</time>
      </trkpt>
      <trkpt lat="42.320489" lon="1.800954">
        <ele>1717</ele>
        <time>2020-07-11T14:46:08.127Z</time>
      </trkpt>
      <trkpt lat="42.320529" lon="1.801066">
        <ele>1717</ele>
        <time>2020-07-11T14:46:14.127Z</time>
      </trkpt>
      <trkpt lat="42.320556" lon="1.801201">
        <ele>1716</ele>
        <time>2020-07-11T14:46:23.127Z</time>
      </trkpt>
      <trkpt lat="42.320584" lon="1.801334">
        <ele>1716</ele>
        <time>2020-07-11T14:46:29.127Z</time>
      </trkpt>
      <trkpt lat="42.320589" lon="1.801485">
        <ele>1716</ele>
        <time>2020-07-11T14:46:38.127Z</time>
      </trkpt>
      <trkpt lat="42.320576" lon="1.801635">
        <ele>1716</ele>
        <time>2020-07-11T14:46:46.127Z</time>
      </trkpt>
      <trkpt lat="42.32054" lon="1.801759">
        <ele>1718</ele>
        <time>2020-07-11T14:46:53.127Z</time>
      </trkpt>
      <trkpt lat="42.320526" lon="1.801892">
        <ele>1717</ele>
        <time>2020-07-11T14:47:02.127Z</time>
      </trkpt>
      <trkpt lat="42.320505" lon="1.80203">
        <ele>1717</ele>
        <time>2020-07-11T14:47:09.127Z</time>
      </trkpt>
      <trkpt lat="42.320472" lon="1.802165">
        <ele>1717</ele>
        <time>2020-07-11T14:47:17.127Z</time>
      </trkpt>
      <trkpt lat="42.320419" lon="1.802285">
        <ele>1716</ele>
        <time>2020-07-11T14:47:27.127Z</time>
      </trkpt>
      <trkpt lat="42.320362" lon="1.8024">
        <ele>1716</ele>
        <time>2020-07-11T14:47:35.127Z</time>
      </trkpt>
      <trkpt lat="42.320316" lon="1.802523">
        <ele>1717</ele>
        <time>2020-07-11T14:47:44.127Z</time>
      </trkpt>
      <trkpt lat="42.320233" lon="1.802599">
        <ele>1717</ele>
        <time>2020-07-11T14:47:50.127Z</time>
      </trkpt>
      <trkpt lat="42.320154" lon="1.802685">
        <ele>1718</ele>
        <time>2020-07-11T14:47:58.127Z</time>
      </trkpt>
      <trkpt lat="42.320076" lon="1.802782">
        <ele>1718</ele>
        <time>2020-07-11T14:48:05.127Z</time>
      </trkpt>
      <trkpt lat="42.320051" lon="1.802917">
        <ele>1719</ele>
        <time>2020-07-11T14:48:14.127Z</time>
      </trkpt>
      <trkpt lat="42.320038" lon="1.803059">
        <ele>1719</ele>
        <time>2020-07-11T14:48:24.127Z</time>
      </trkpt>
      <trkpt lat="42.320048" lon="1.8032">
        <ele>1720</ele>
        <time>2020-07-11T14:48:33.127Z</time>
      </trkpt>
      <trkpt lat="42.31998" lon="1.803316">
        <ele>1720</ele>
        <time>2020-07-11T14:48:40.127Z</time>
      </trkpt>
      <trkpt lat="42.319931" lon="1.803439">
        <ele>1721</ele>
        <time>2020-07-11T14:48:49.127Z</time>
      </trkpt>
      <trkpt lat="42.319888" lon="1.80357">
        <ele>1721</ele>
        <time>2020-07-11T14:48:58.127Z</time>
      </trkpt>
      <trkpt lat="42.319864" lon="1.803758">
        <ele>1722</ele>
        <time>2020-07-11T14:49:10.125Z</time>
      </trkpt>
      <trkpt lat="42.319791" lon="1.80387">
        <ele>1722</ele>
        <time>2020-07-11T14:49:20.135Z</time>
      </trkpt>
      <trkpt lat="42.319733" lon="1.804003">
        <ele>1724</ele>
        <time>2020-07-11T14:49:28.127Z</time>
      </trkpt>
      <trkpt lat="42.319695" lon="1.804133">
        <ele>1725</ele>
        <time>2020-07-11T14:49:38.127Z</time>
      </trkpt>
      <trkpt lat="42.319634" lon="1.804254">
        <ele>1727</ele>
        <time>2020-07-11T14:49:48.127Z</time>
      </trkpt>
      <trkpt lat="42.319546" lon="1.804353">
        <ele>1726</ele>
        <time>2020-07-11T14:49:54.232Z</time>
      </trkpt>
      <trkpt lat="42.319457" lon="1.804424">
        <ele>1726</ele>
        <time>2020-07-11T14:50:00.131Z</time>
      </trkpt>
      <trkpt lat="42.319401" lon="1.804544">
        <ele>1726</ele>
        <time>2020-07-11T14:50:16.127Z</time>
      </trkpt>
      <trkpt lat="42.319457" lon="1.804664">
        <ele>1725</ele>
        <time>2020-07-11T14:50:27.127Z</time>
      </trkpt>
      <trkpt lat="42.319454" lon="1.804812">
        <ele>1724</ele>
        <time>2020-07-11T14:50:37.127Z</time>
      </trkpt>
      <trkpt lat="42.319499" lon="1.804942">
        <ele>1723</ele>
        <time>2020-07-11T14:50:52.127Z</time>
      </trkpt>
      <trkpt lat="42.319576" lon="1.80503">
        <ele>1723</ele>
        <time>2020-07-11T14:51:00.127Z</time>
      </trkpt>
      <trkpt lat="42.319609" lon="1.805172">
        <ele>1723</ele>
        <time>2020-07-11T14:51:07.127Z</time>
      </trkpt>
      <trkpt lat="42.319611" lon="1.805318">
        <ele>1723</ele>
        <time>2020-07-11T14:51:16.127Z</time>
      </trkpt>
      <trkpt lat="42.319644" lon="1.805449">
        <ele>1723</ele>
        <time>2020-07-11T14:51:25.127Z</time>
      </trkpt>
      <trkpt lat="42.319674" lon="1.80559">
        <ele>1721</ele>
        <time>2020-07-11T14:51:34.127Z</time>
      </trkpt>
      <trkpt lat="42.319709" lon="1.80572">
        <ele>1720</ele>
        <time>2020-07-11T14:51:46.127Z</time>
      </trkpt>
      <trkpt lat="42.319678" lon="1.805855">
        <ele>1720</ele>
        <time>2020-07-11T14:51:54.127Z</time>
      </trkpt>
      <trkpt lat="42.319668" lon="1.805991">
        <ele>1716</ele>
        <time>2020-07-11T14:52:03.127Z</time>
      </trkpt>
      <trkpt lat="42.319681" lon="1.806126">
        <ele>1715.09299319031</ele>
        <time>2020-07-11T14:52:11.127Z</time>
      </trkpt>
      <trkpt lat="42.319693" lon="1.806262">
        <ele>1715</ele>
        <time>2020-07-11T14:52:19.127Z</time>
      </trkpt>
      <trkpt lat="42.319767" lon="1.806375">
        <ele>1715</ele>
        <time>2020-07-11T14:52:28.127Z</time>
      </trkpt>
      <trkpt lat="42.319855" lon="1.806439">
        <ele>1715</ele>
        <time>2020-07-11T14:52:37.127Z</time>
      </trkpt>
      <trkpt lat="42.319921" lon="1.806547">
        <ele>1714</ele>
        <time>2020-07-11T14:52:44.127Z</time>
      </trkpt>
      <trkpt lat="42.319991" lon="1.806651">
        <ele>1712.18598638063</ele>
        <time>2020-07-11T14:52:51.127Z</time>
      </trkpt>
      <trkpt lat="42.320057" lon="1.806782">
        <ele>1712</ele>
        <time>2020-07-11T14:52:58.127Z</time>
      </trkpt>
      <trkpt lat="42.320093" lon="1.806917">
        <ele>1711</ele>
        <time>2020-07-11T14:53:07.127Z</time>
      </trkpt>
      <trkpt lat="42.320121" lon="1.807069">
        <ele>1711</ele>
        <time>2020-07-11T14:53:13.127Z</time>
      </trkpt>
      <trkpt lat="42.320137" lon="1.807207">
        <ele>1711</ele>
        <time>2020-07-11T14:53:19.127Z</time>
      </trkpt>
      <trkpt lat="42.320095" lon="1.80734">
        <ele>1710</ele>
        <time>2020-07-11T14:53:35.127Z</time>
      </trkpt>
      <trkpt lat="42.320086" lon="1.807484">
        <ele>1710</ele>
        <time>2020-07-11T14:53:45.127Z</time>
      </trkpt>
      <trkpt lat="42.320122" lon="1.807618">
        <ele>1711</ele>
        <time>2020-07-11T14:53:57.127Z</time>
      </trkpt>
      <trkpt lat="42.320179" lon="1.807732">
        <ele>1710</ele>
        <time>2020-07-11T14:54:08.127Z</time>
      </trkpt>
      <trkpt lat="42.320226" lon="1.807861">
        <ele>1710</ele>
        <time>2020-07-11T14:54:18.127Z</time>
      </trkpt>
      <trkpt lat="42.320303" lon="1.807963">
        <ele>1711</ele>
        <time>2020-07-11T14:54:28.127Z</time>
      </trkpt>
      <trkpt lat="42.320391" lon="1.808119">
        <ele>1709</ele>
        <time>2020-07-11T14:54:40.127Z</time>
      </trkpt>
      <trkpt lat="42.320456" lon="1.808227">
        <ele>1709</ele>
        <time>2020-07-11T14:54:48.127Z</time>
      </trkpt>
      <trkpt lat="42.320521" lon="1.808332">
        <ele>1709</ele>
        <time>2020-07-11T14:54:56.127Z</time>
      </trkpt>
      <trkpt lat="42.320601" lon="1.808505">
        <ele>1709</ele>
        <time>2020-07-11T14:55:04.127Z</time>
      </trkpt>
      <trkpt lat="42.32064" lon="1.808684">
        <ele>1710</ele>
        <time>2020-07-11T14:55:16.127Z</time>
      </trkpt>
      <trkpt lat="42.320677" lon="1.808824">
        <ele>1711</ele>
        <time>2020-07-11T14:55:24.127Z</time>
      </trkpt>
      <trkpt lat="42.320726" lon="1.808942">
        <ele>1712</ele>
        <time>2020-07-11T14:55:32.127Z</time>
      </trkpt>
      <trkpt lat="42.320767" lon="1.80914">
        <ele>1713</ele>
        <time>2020-07-11T14:55:44.127Z</time>
      </trkpt>
      <trkpt lat="42.32079" lon="1.809329">
        <ele>1714</ele>
        <time>2020-07-11T14:55:52.127Z</time>
      </trkpt>
      <trkpt lat="42.320781" lon="1.80952">
        <ele>1715</ele>
        <time>2020-07-11T14:56:04.127Z</time>
      </trkpt>
      <trkpt lat="42.320807" lon="1.809665">
        <ele>1714</ele>
        <time>2020-07-11T14:56:12.127Z</time>
      </trkpt>
      <trkpt lat="42.320825" lon="1.809828">
        <ele>1714</ele>
        <time>2020-07-11T14:56:20.127Z</time>
      </trkpt>
      <trkpt lat="42.32086" lon="1.810002">
        <ele>1712</ele>
        <time>2020-07-11T14:56:32.127Z</time>
      </trkpt>
      <trkpt lat="42.320942" lon="1.810179">
        <ele>1709</ele>
        <time>2020-07-11T14:56:44.127Z</time>
      </trkpt>
      <trkpt lat="42.321022" lon="1.810357">
        <ele>1707</ele>
        <time>2020-07-11T14:56:56.127Z</time>
      </trkpt>
      <trkpt lat="42.321109" lon="1.810523">
        <ele>1705</ele>
        <time>2020-07-11T14:57:08.127Z</time>
      </trkpt>
      <trkpt lat="42.321161" lon="1.810656">
        <ele>1704</ele>
        <time>2020-07-11T14:57:16.127Z</time>
      </trkpt>
      <trkpt lat="42.321234" lon="1.810829">
        <ele>1702</ele>
        <time>2020-07-11T14:57:28.127Z</time>
      </trkpt>
      <trkpt lat="42.321308" lon="1.810976">
        <ele>1700</ele>
        <time>2020-07-11T14:57:36.127Z</time>
      </trkpt>
      <trkpt lat="42.321384" lon="1.811116">
        <ele>1699</ele>
        <time>2020-07-11T14:57:44.127Z</time>
      </trkpt>
      <trkpt lat="42.321429" lon="1.811255">
        <ele>1697</ele>
        <time>2020-07-11T14:57:52.127Z</time>
      </trkpt>
      <trkpt lat="42.32144" lon="1.811378">
        <ele>1696</ele>
        <time>2020-07-11T14:58:12.127Z</time>
      </trkpt>
      <trkpt lat="42.321482" lon="1.811544">
        <ele>1695</ele>
        <time>2020-07-11T14:58:28.127Z</time>
      </trkpt>
      <trkpt lat="42.321479" lon="1.811736">
        <ele>1695</ele>
        <time>2020-07-11T14:58:40.127Z</time>
      </trkpt>
      <trkpt lat="42.321516" lon="1.811912">
        <ele>1694</ele>
        <time>2020-07-11T14:58:48.127Z</time>
      </trkpt>
      <trkpt lat="42.321522" lon="1.812057">
        <ele>1693</ele>
        <time>2020-07-11T14:58:56.127Z</time>
      </trkpt>
      <trkpt lat="42.321518" lon="1.812233">
        <ele>1691</ele>
        <time>2020-07-11T14:59:08.127Z</time>
      </trkpt>
      <trkpt lat="42.321563" lon="1.812419">
        <ele>1689</ele>
        <time>2020-07-11T14:59:20.127Z</time>
      </trkpt>
      <trkpt lat="42.321587" lon="1.812595">
        <ele>1685</ele>
        <time>2020-07-11T14:59:32.127Z</time>
      </trkpt>
      <trkpt lat="42.321649" lon="1.812755">
        <ele>1684</ele>
        <time>2020-07-11T14:59:44.127Z</time>
      </trkpt>
      <trkpt lat="42.321703" lon="1.812903">
        <ele>1680.18600721911</ele>
        <time>2020-07-11T14:59:56.127Z</time>
      </trkpt>
      <trkpt lat="42.321753" lon="1.813041">
        <ele>1679</ele>
        <time>2020-07-11T15:00:04.127Z</time>
      </trkpt>
      <trkpt lat="42.321748" lon="1.81323">
        <ele>1678</ele>
        <time>2020-07-11T15:00:16.127Z</time>
      </trkpt>
      <trkpt lat="42.321723" lon="1.81338">
        <ele>1678</ele>
        <time>2020-07-11T15:00:24.127Z</time>
      </trkpt>
      <trkpt lat="42.321755" lon="1.813583">
        <ele>1677</ele>
        <time>2020-07-11T15:00:32.127Z</time>
      </trkpt>
      <trkpt lat="42.3218" lon="1.813728">
        <ele>1675</ele>
        <time>2020-07-11T15:00:44.127Z</time>
      </trkpt>
      <trkpt lat="42.32187" lon="1.813875">
        <ele>1671.09300360955</ele>
        <time>2020-07-11T15:00:56.127Z</time>
      </trkpt>
      <trkpt lat="42.32191" lon="1.814047">
        <ele>1670</ele>
        <time>2020-07-11T15:01:08.127Z</time>
      </trkpt>
      <trkpt lat="42.32195" lon="1.814174">
        <ele>1669</ele>
        <time>2020-07-11T15:01:16.127Z</time>
      </trkpt>
      <trkpt lat="42.322002" lon="1.814267">
        <ele>1667</ele>
        <time>2020-07-11T15:01:24.127Z</time>
      </trkpt>
      <trkpt lat="42.322076" lon="1.814326">
        <ele>1664</ele>
        <time>2020-07-11T15:01:32.127Z</time>
      </trkpt>
      <trkpt lat="42.322139" lon="1.814459">
        <ele>1662</ele>
        <time>2020-07-11T15:01:40.127Z</time>
      </trkpt>
      <trkpt lat="42.322238" lon="1.814683">
        <ele>1661</ele>
        <time>2020-07-11T15:01:54.127Z</time>
      </trkpt>
      <trkpt lat="42.322277" lon="1.814806">
        <ele>1659</ele>
        <time>2020-07-11T15:02:03.127Z</time>
      </trkpt>
      <trkpt lat="42.322355" lon="1.814818">
        <ele>1659</ele>
        <time>2020-07-11T15:02:09.127Z</time>
      </trkpt>
      <trkpt lat="42.322466" lon="1.81483">
        <ele>1657</ele>
        <time>2020-07-11T15:02:15.899Z</time>
      </trkpt>
      <trkpt lat="42.322577" lon="1.814862">
        <ele>1655.19599610875</ele>
        <time>2020-07-11T15:02:21.122Z</time>
      </trkpt>
      <trkpt lat="42.322682" lon="1.814848">
        <ele>1654</ele>
        <time>2020-07-11T15:02:32.127Z</time>
      </trkpt>
      <trkpt lat="42.32279" lon="1.814848">
        <ele>1653.09299319031</ele>
        <time>2020-07-11T15:02:41.127Z</time>
      </trkpt>
      <trkpt lat="42.32289" lon="1.814898">
        <ele>1653</ele>
        <time>2020-07-11T15:02:50.130Z</time>
      </trkpt>
      <trkpt lat="42.322995" lon="1.814952">
        <ele>1652</ele>
        <time>2020-07-11T15:02:58.127Z</time>
      </trkpt>
      <trkpt lat="42.323089" lon="1.815009">
        <ele>1650</ele>
        <time>2020-07-11T15:03:04.127Z</time>
      </trkpt>
      <trkpt lat="42.323169" lon="1.815045">
        <ele>1650</ele>
        <time>2020-07-11T15:03:10.127Z</time>
      </trkpt>
      <trkpt lat="42.323263" lon="1.815204">
        <ele>1649</ele>
        <time>2020-07-11T15:03:25.125Z</time>
      </trkpt>
      <trkpt lat="42.323359" lon="1.815262">
        <ele>1649</ele>
        <time>2020-07-11T15:03:32.127Z</time>
      </trkpt>
      <trkpt lat="42.323445" lon="1.815349">
        <ele>1649</ele>
        <time>2020-07-11T15:04:17.127Z</time>
      </trkpt>
      <trkpt lat="42.323525" lon="1.815438">
        <ele>1647.09299319031</ele>
        <time>2020-07-11T15:04:31.127Z</time>
      </trkpt>
      <trkpt lat="42.323556" lon="1.815568">
        <ele>1647</ele>
        <time>2020-07-11T15:04:39.127Z</time>
      </trkpt>
      <trkpt lat="42.323607" lon="1.815678">
        <ele>1647</ele>
        <time>2020-07-11T15:04:46.128Z</time>
      </trkpt>
      <trkpt lat="42.323702" lon="1.815721">
        <ele>1645</ele>
        <time>2020-07-11T15:04:53.121Z</time>
      </trkpt>
      <trkpt lat="42.323746" lon="1.815842">
        <ele>1642</ele>
        <time>2020-07-11T15:05:02.127Z</time>
      </trkpt>
      <trkpt lat="42.323814" lon="1.815948">
        <ele>1642</ele>
        <time>2020-07-11T15:05:10.127Z</time>
      </trkpt>
      <trkpt lat="42.323863" lon="1.81604">
        <ele>1640</ele>
        <time>2020-07-11T15:05:17.135Z</time>
      </trkpt>
      <trkpt lat="42.323897" lon="1.816166">
        <ele>1638</ele>
        <time>2020-07-11T15:05:24.118Z</time>
      </trkpt>
      <trkpt lat="42.323978" lon="1.816252">
        <ele>1636</ele>
        <time>2020-07-11T15:05:34.127Z</time>
      </trkpt>
      <trkpt lat="42.324069" lon="1.816306">
        <ele>1634</ele>
        <time>2020-07-11T15:05:44.123Z</time>
      </trkpt>
      <trkpt lat="42.324188" lon="1.816332">
        <ele>1632</ele>
        <time>2020-07-11T15:05:53.133Z</time>
      </trkpt>
      <trkpt lat="42.324287" lon="1.816374">
        <ele>1632</ele>
        <time>2020-07-11T15:05:59.127Z</time>
      </trkpt>
      <trkpt lat="42.324411" lon="1.81634">
        <ele>1629</ele>
        <time>2020-07-11T15:06:07.127Z</time>
      </trkpt>
      <trkpt lat="42.324527" lon="1.816359">
        <ele>1629</ele>
        <time>2020-07-11T15:06:15.124Z</time>
      </trkpt>
      <trkpt lat="42.324708" lon="1.816426">
        <ele>1627</ele>
        <time>2020-07-11T15:06:28.127Z</time>
      </trkpt>
      <trkpt lat="42.324732" lon="1.816559">
        <ele>1624</ele>
        <time>2020-07-11T15:06:34.127Z</time>
      </trkpt>
      <trkpt lat="42.324779" lon="1.816689">
        <ele>1621.09299319031</ele>
        <time>2020-07-11T15:06:41.127Z</time>
      </trkpt>
      <trkpt lat="42.324822" lon="1.816823">
        <ele>1620</ele>
        <time>2020-07-11T15:06:50.126Z</time>
      </trkpt>
      <trkpt lat="42.32485" lon="1.816962">
        <ele>1619</ele>
        <time>2020-07-11T15:06:58.127Z</time>
      </trkpt>
      <trkpt lat="42.324905" lon="1.817079">
        <ele>1615</ele>
        <time>2020-07-11T15:07:05.127Z</time>
      </trkpt>
      <trkpt lat="42.324892" lon="1.817194">
        <ele>1615</ele>
        <time>2020-07-11T15:07:10.127Z</time>
      </trkpt>
      <trkpt lat="42.324895" lon="1.817286">
        <ele>1614</ele>
        <time>2020-07-11T15:07:15.123Z</time>
      </trkpt>
      <trkpt lat="42.324861" lon="1.817416">
        <ele>1611</ele>
        <time>2020-07-11T15:07:25.122Z</time>
      </trkpt>
      <trkpt lat="42.324839" lon="1.817562">
        <ele>1609</ele>
        <time>2020-07-11T15:07:33.127Z</time>
      </trkpt>
      <trkpt lat="42.324845" lon="1.817664">
        <ele>1608</ele>
        <time>2020-07-11T15:07:44.131Z</time>
      </trkpt>
      <trkpt lat="42.324855" lon="1.817815">
        <ele>1606</ele>
        <time>2020-07-11T15:07:53.127Z</time>
      </trkpt>
      <trkpt lat="42.324878" lon="1.817949">
        <ele>1606</ele>
        <time>2020-07-11T15:08:00.127Z</time>
      </trkpt>
      <trkpt lat="42.324907" lon="1.81808">
        <ele>1605</ele>
        <time>2020-07-11T15:08:07.127Z</time>
      </trkpt>
      <trkpt lat="42.324934" lon="1.818199">
        <ele>1605</ele>
        <time>2020-07-11T15:08:14.128Z</time>
      </trkpt>
      <trkpt lat="42.324956" lon="1.818313">
        <ele>1605.00798730224</ele>
        <time>2020-07-11T15:08:20.228Z</time>
      </trkpt>
      <trkpt lat="42.32494" lon="1.818466">
        <ele>1606</ele>
        <time>2020-07-11T15:08:26.131Z</time>
      </trkpt>
      <trkpt lat="42.324966" lon="1.818599">
        <ele>1606</ele>
        <time>2020-07-11T15:08:32.127Z</time>
      </trkpt>
      <trkpt lat="42.325006" lon="1.818744">
        <ele>1606</ele>
        <time>2020-07-11T15:08:38.122Z</time>
      </trkpt>
      <trkpt lat="42.325032" lon="1.818876">
        <ele>1607</ele>
        <time>2020-07-11T15:08:46.122Z</time>
      </trkpt>
      <trkpt lat="42.325071" lon="1.819008">
        <ele>1608</ele>
        <time>2020-07-11T15:08:52.127Z</time>
      </trkpt>
      <trkpt lat="42.325058" lon="1.819148">
        <ele>1608</ele>
        <time>2020-07-11T15:09:00.127Z</time>
      </trkpt>
      <trkpt lat="42.325048" lon="1.819288">
        <ele>1608</ele>
        <time>2020-07-11T15:09:09.127Z</time>
      </trkpt>
      <trkpt lat="42.325053" lon="1.819396">
        <ele>1609</ele>
        <time>2020-07-11T15:09:16.120Z</time>
      </trkpt>
      <trkpt lat="42.325041" lon="1.819534">
        <ele>1610</ele>
        <time>2020-07-11T15:09:28.121Z</time>
      </trkpt>
      <trkpt lat="42.325051" lon="1.819678">
        <ele>1611</ele>
        <time>2020-07-11T15:09:38.127Z</time>
      </trkpt>
      <trkpt lat="42.325022" lon="1.819814">
        <ele>1611</ele>
        <time>2020-07-11T15:09:44.134Z</time>
      </trkpt>
      <trkpt lat="42.325039" lon="1.819948">
        <ele>1611.90399877118</ele>
        <time>2020-07-11T15:09:51.124Z</time>
      </trkpt>
      <trkpt lat="42.325055" lon="1.82009">
        <ele>1612</ele>
        <time>2020-07-11T15:09:57.127Z</time>
      </trkpt>
      <trkpt lat="42.325107" lon="1.820214">
        <ele>1612</ele>
        <time>2020-07-11T15:10:03.127Z</time>
      </trkpt>
      <trkpt lat="42.325165" lon="1.820328">
        <ele>1612</ele>
        <time>2020-07-11T15:10:09.127Z</time>
      </trkpt>
      <trkpt lat="42.32524" lon="1.820438">
        <ele>1613</ele>
        <time>2020-07-11T15:10:17.121Z</time>
      </trkpt>
      <trkpt lat="42.325336" lon="1.820471">
        <ele>1613</ele>
        <time>2020-07-11T15:10:24.127Z</time>
      </trkpt>
      <trkpt lat="42.325441" lon="1.820538">
        <ele>1614</ele>
        <time>2020-07-11T15:10:34.127Z</time>
      </trkpt>
      <trkpt lat="42.325529" lon="1.820623">
        <ele>1614</ele>
        <time>2020-07-11T15:10:42.127Z</time>
      </trkpt>
      <trkpt lat="42.3256" lon="1.82073">
        <ele>1615</ele>
        <time>2020-07-11T15:10:53.129Z</time>
      </trkpt>
      <trkpt lat="42.325666" lon="1.82086">
        <ele>1615</ele>
        <time>2020-07-11T15:10:59.127Z</time>
      </trkpt>
      <trkpt lat="42.325709" lon="1.82098">
        <ele>1615</ele>
        <time>2020-07-11T15:11:05.127Z</time>
      </trkpt>
      <trkpt lat="42.325761" lon="1.821075">
        <ele>1615</ele>
        <time>2020-07-11T15:11:11.127Z</time>
      </trkpt>
      <trkpt lat="42.325831" lon="1.821198">
        <ele>1615</ele>
        <time>2020-07-11T15:11:20.122Z</time>
      </trkpt>
      <trkpt lat="42.325922" lon="1.821289">
        <ele>1615</ele>
        <time>2020-07-11T15:11:26.236Z</time>
      </trkpt>
      <trkpt lat="42.325984" lon="1.821399">
        <ele>1615</ele>
        <time>2020-07-11T15:11:35.127Z</time>
      </trkpt>
      <trkpt lat="42.326038" lon="1.821516">
        <ele>1615</ele>
        <time>2020-07-11T15:11:43.127Z</time>
      </trkpt>
      <trkpt lat="42.326103" lon="1.821634">
        <ele>1615</ele>
        <time>2020-07-11T15:11:49.127Z</time>
      </trkpt>
      <trkpt lat="42.326147" lon="1.821773">
        <ele>1615</ele>
        <time>2020-07-11T15:11:56.238Z</time>
      </trkpt>
      <trkpt lat="42.326139" lon="1.821908">
        <ele>1612</ele>
        <time>2020-07-11T15:12:02.127Z</time>
      </trkpt>
      <trkpt lat="42.326165" lon="1.822032">
        <ele>1612</ele>
        <time>2020-07-11T15:12:09.127Z</time>
      </trkpt>
      <trkpt lat="42.326242" lon="1.82213">
        <ele>1612</ele>
        <time>2020-07-11T15:12:17.131Z</time>
      </trkpt>
      <trkpt lat="42.326302" lon="1.822244">
        <ele>1612</ele>
        <time>2020-07-11T15:12:22.122Z</time>
      </trkpt>
      <trkpt lat="42.326338" lon="1.822371">
        <ele>1612</ele>
        <time>2020-07-11T15:12:29.127Z</time>
      </trkpt>
      <trkpt lat="42.326372" lon="1.822484">
        <ele>1611</ele>
        <time>2020-07-11T15:12:36.127Z</time>
      </trkpt>
      <trkpt lat="42.326421" lon="1.822598">
        <ele>1611</ele>
        <time>2020-07-11T15:12:44.127Z</time>
      </trkpt>
      <trkpt lat="42.326465" lon="1.822698">
        <ele>1611</ele>
        <time>2020-07-11T15:12:50.127Z</time>
      </trkpt>
      <trkpt lat="42.326525" lon="1.822836">
        <ele>1610</ele>
        <time>2020-07-11T15:12:58.127Z</time>
      </trkpt>
      <trkpt lat="42.326558" lon="1.822928">
        <ele>1609</ele>
        <time>2020-07-11T15:13:15.127Z</time>
      </trkpt>
      <trkpt lat="42.326587" lon="1.82302">
        <ele>1608.09299319031</ele>
        <time>2020-07-11T15:13:21.127Z</time>
      </trkpt>
      <trkpt lat="42.326604" lon="1.823132">
        <ele>1608</ele>
        <time>2020-07-11T15:13:27.127Z</time>
      </trkpt>
      <trkpt lat="42.326636" lon="1.82325">
        <ele>1607</ele>
        <time>2020-07-11T15:13:34.127Z</time>
      </trkpt>
      <trkpt lat="42.326641" lon="1.823402">
        <ele>1608</ele>
        <time>2020-07-11T15:13:43.127Z</time>
      </trkpt>
      <trkpt lat="42.326654" lon="1.82354">
        <ele>1608</ele>
        <time>2020-07-11T15:13:50.127Z</time>
      </trkpt>
      <trkpt lat="42.326656" lon="1.823684">
        <ele>1609</ele>
        <time>2020-07-11T15:13:59.127Z</time>
      </trkpt>
      <trkpt lat="42.326622" lon="1.823808">
        <ele>1607</ele>
        <time>2020-07-11T15:14:08.127Z</time>
      </trkpt>
      <trkpt lat="42.326583" lon="1.82395">
        <ele>1607</ele>
        <time>2020-07-11T15:14:15.127Z</time>
      </trkpt>
      <trkpt lat="42.326579" lon="1.824101">
        <ele>1606</ele>
        <time>2020-07-11T15:14:23.127Z</time>
      </trkpt>
      <trkpt lat="42.326612" lon="1.824229">
        <ele>1605</ele>
        <time>2020-07-11T15:14:38.127Z</time>
      </trkpt>
      <trkpt lat="42.326628" lon="1.824346">
        <ele>1604</ele>
        <time>2020-07-11T15:14:43.875Z</time>
      </trkpt>
      <trkpt lat="42.326593" lon="1.824488">
        <ele>1600.09394393877</ele>
        <time>2020-07-11T15:15:02.127Z</time>
      </trkpt>
      <trkpt lat="42.326606" lon="1.824604">
        <ele>1599.09299319031</ele>
        <time>2020-07-11T15:15:11.127Z</time>
      </trkpt>
      <trkpt lat="42.326609" lon="1.824733">
        <ele>1599</ele>
        <time>2020-07-11T15:15:20.129Z</time>
      </trkpt>
      <trkpt lat="42.326651" lon="1.824862">
        <ele>1594</ele>
        <time>2020-07-11T15:15:28.127Z</time>
      </trkpt>
      <trkpt lat="42.326669" lon="1.824995">
        <ele>1592</ele>
        <time>2020-07-11T15:15:46.123Z</time>
      </trkpt>
      <trkpt lat="42.326677" lon="1.825133">
        <ele>1591</ele>
        <time>2020-07-11T15:15:57.127Z</time>
      </trkpt>
      <trkpt lat="42.326678" lon="1.825268">
        <ele>1586</ele>
        <time>2020-07-11T15:16:07.127Z</time>
      </trkpt>
      <trkpt lat="42.326702" lon="1.825416">
        <ele>1584</ele>
        <time>2020-07-11T15:16:24.129Z</time>
      </trkpt>
      <trkpt lat="42.326698" lon="1.82556">
        <ele>1582</ele>
        <time>2020-07-11T15:16:36.119Z</time>
      </trkpt>
      <trkpt lat="42.326731" lon="1.82569">
        <ele>1578</ele>
        <time>2020-07-11T15:16:49.133Z</time>
      </trkpt>
      <trkpt lat="42.326683" lon="1.825812">
        <ele>1572</ele>
        <time>2020-07-11T15:17:03.128Z</time>
      </trkpt>
      <trkpt lat="42.326611" lon="1.825909">
        <ele>1571</ele>
        <time>2020-07-11T15:17:18.130Z</time>
      </trkpt>
      <trkpt lat="42.326527" lon="1.825992">
        <ele>1566</ele>
        <time>2020-07-11T15:17:26.238Z</time>
      </trkpt>
      <trkpt lat="42.326458" lon="1.826177">
        <ele>1560</ele>
        <time>2020-07-11T15:17:47.128Z</time>
      </trkpt>
      <trkpt lat="42.326403" lon="1.826294">
        <ele>1557</ele>
        <time>2020-07-11T15:17:59.127Z</time>
      </trkpt>
      <trkpt lat="42.326381" lon="1.826438">
        <ele>1554</ele>
        <time>2020-07-11T15:18:15.122Z</time>
      </trkpt>
      <trkpt lat="42.326356" lon="1.826578">
        <ele>1552</ele>
        <time>2020-07-11T15:18:27.127Z</time>
      </trkpt>
      <trkpt lat="42.326298" lon="1.826699">
        <ele>1548</ele>
        <time>2020-07-11T15:18:43.127Z</time>
      </trkpt>
      <trkpt lat="42.3262" lon="1.826782">
        <ele>1546.19599610875</ele>
        <time>2020-07-11T15:18:51.122Z</time>
      </trkpt>
      <trkpt lat="42.326135" lon="1.826914">
        <ele>1543</ele>
        <time>2020-07-11T15:19:07.127Z</time>
      </trkpt>
      <trkpt lat="42.326099" lon="1.827103">
        <ele>1541</ele>
        <time>2020-07-11T15:19:35.125Z</time>
      </trkpt>
      <trkpt lat="42.326023" lon="1.827202">
        <ele>1538</ele>
        <time>2020-07-11T15:19:43.127Z</time>
      </trkpt>
      <trkpt lat="42.325907" lon="1.827285">
        <ele>1536.09999487993</ele>
        <time>2020-07-11T15:19:51.120Z</time>
      </trkpt>
      <trkpt lat="42.32583" lon="1.827409">
        <ele>1536</ele>
        <time>2020-07-11T15:19:59.127Z</time>
      </trkpt>
      <trkpt lat="42.325738" lon="1.827501">
        <ele>1534</ele>
        <time>2020-07-11T15:20:07.127Z</time>
      </trkpt>
      <trkpt lat="42.32566" lon="1.827605">
        <ele>1534</ele>
        <time>2020-07-11T15:20:15.127Z</time>
      </trkpt>
      <trkpt lat="42.32561" lon="1.827741">
        <ele>1532</ele>
        <time>2020-07-11T15:20:23.126Z</time>
      </trkpt>
      <trkpt lat="42.325509" lon="1.827867">
        <ele>1529.27897957094</ele>
        <time>2020-07-11T15:20:31.127Z</time>
      </trkpt>
      <trkpt lat="42.325422" lon="1.827997">
        <ele>1529</ele>
        <time>2020-07-11T15:20:43.127Z</time>
      </trkpt>
      <trkpt lat="42.32533" lon="1.828117">
        <ele>1527</ele>
        <time>2020-07-11T15:21:11.126Z</time>
      </trkpt>
      <trkpt lat="42.325316" lon="1.828273">
        <ele>1527</ele>
        <time>2020-07-11T15:21:19.124Z</time>
      </trkpt>
      <trkpt lat="42.325331" lon="1.828466">
        <ele>1525.09299319031</ele>
        <time>2020-07-11T15:21:31.127Z</time>
      </trkpt>
      <trkpt lat="42.32526" lon="1.828616">
        <ele>1524</ele>
        <time>2020-07-11T15:21:43.127Z</time>
      </trkpt>
      <trkpt lat="42.325139" lon="1.828676">
        <ele>1524</ele>
        <time>2020-07-11T15:21:51.130Z</time>
      </trkpt>
      <trkpt lat="42.325056" lon="1.828932">
        <ele>1520.40002441406</ele>
        <time>2020-07-12T05:12:32.057Z</time>
      </trkpt>
      <trkpt lat="42.325096" lon="1.828874">
        <ele>1519</ele>
        <time>2020-07-12T05:12:43.057Z</time>
      </trkpt>
      <trkpt lat="42.32512" lon="1.8288">
        <ele>1518</ele>
        <time>2020-07-12T05:12:52.057Z</time>
      </trkpt>
      <trkpt lat="42.325138" lon="1.828707">
        <ele>1518</ele>
        <time>2020-07-12T05:12:59.057Z</time>
      </trkpt>
      <trkpt lat="42.325147" lon="1.82866">
        <ele>1518</ele>
        <time>2020-07-12T05:13:04.057Z</time>
      </trkpt>
      <trkpt lat="42.325141" lon="1.828597">
        <ele>1518</ele>
        <time>2020-07-12T05:13:17.057Z</time>
      </trkpt>
      <trkpt lat="42.325088" lon="1.828509">
        <ele>1518</ele>
        <time>2020-07-12T05:13:32.057Z</time>
      </trkpt>
      <trkpt lat="42.325079" lon="1.828476">
        <ele>1518</ele>
        <time>2020-07-12T05:14:12.057Z</time>
      </trkpt>
      <trkpt lat="42.325072" lon="1.828408">
        <ele>1518</ele>
        <time>2020-07-12T05:14:17.057Z</time>
      </trkpt>
      <trkpt lat="42.325058" lon="1.828302">
        <ele>1517</ele>
        <time>2020-07-12T05:14:25.057Z</time>
      </trkpt>
      <trkpt lat="42.325053" lon="1.828216">
        <ele>1516</ele>
        <time>2020-07-12T05:14:32.057Z</time>
      </trkpt>
      <trkpt lat="42.325061" lon="1.828127">
        <ele>1516</ele>
        <time>2020-07-12T05:14:38.057Z</time>
      </trkpt>
      <trkpt lat="42.325057" lon="1.828177">
        <ele>1516</ele>
        <time>2020-07-12T05:14:50.057Z</time>
      </trkpt>
      <trkpt lat="42.325044" lon="1.828306">
        <ele>1517</ele>
        <time>2020-07-12T05:14:57.057Z</time>
      </trkpt>
      <trkpt lat="42.324995" lon="1.82839">
        <ele>1517</ele>
        <time>2020-07-12T05:15:03.057Z</time>
      </trkpt>
      <trkpt lat="42.324942" lon="1.828467">
        <ele>1517</ele>
        <time>2020-07-12T05:15:09.057Z</time>
      </trkpt>
      <trkpt lat="42.324878" lon="1.828507">
        <ele>1516</ele>
        <time>2020-07-12T05:15:14.057Z</time>
      </trkpt>
      <trkpt lat="42.324821" lon="1.828514">
        <ele>1516</ele>
        <time>2020-07-12T05:15:19.057Z</time>
      </trkpt>
      <trkpt lat="42.324798" lon="1.8284">
        <ele>1515</ele>
        <time>2020-07-12T05:15:27.057Z</time>
      </trkpt>
      <trkpt lat="42.324819" lon="1.828314">
        <ele>1515</ele>
        <time>2020-07-12T05:15:35.057Z</time>
      </trkpt>
      <trkpt lat="42.324776" lon="1.828258">
        <ele>1513</ele>
        <time>2020-07-12T05:15:44.057Z</time>
      </trkpt>
      <trkpt lat="42.324751" lon="1.828173">
        <ele>1511.5260032</ele>
        <time>2020-07-12T05:15:51.057Z</time>
      </trkpt>
      <trkpt lat="42.32474" lon="1.828133">
        <ele>1511</ele>
        <time>2020-07-12T05:15:56.057Z</time>
      </trkpt>
      <trkpt lat="42.324712" lon="1.82807">
        <ele>1507</ele>
        <time>2020-07-12T05:16:02.057Z</time>
      </trkpt>
      <trkpt lat="42.324682" lon="1.827977">
        <ele>1507</ele>
        <time>2020-07-12T05:16:09.057Z</time>
      </trkpt>
      <trkpt lat="42.324663" lon="1.827913">
        <ele>1506</ele>
        <time>2020-07-12T05:16:16.057Z</time>
      </trkpt>
      <trkpt lat="42.324645" lon="1.827849">
        <ele>1504</ele>
        <time>2020-07-12T05:16:22.057Z</time>
      </trkpt>
      <trkpt lat="42.324619" lon="1.827784">
        <ele>1504</ele>
        <time>2020-07-12T05:16:28.057Z</time>
      </trkpt>
      <trkpt lat="42.324568" lon="1.827723">
        <ele>1502</ele>
        <time>2020-07-12T05:16:35.057Z</time>
      </trkpt>
      <trkpt lat="42.324523" lon="1.827675">
        <ele>1501.2630016</ele>
        <time>2020-07-12T05:16:41.057Z</time>
      </trkpt>
      <trkpt lat="42.324542" lon="1.827643">
        <ele>1500</ele>
        <time>2020-07-12T05:16:53.057Z</time>
      </trkpt>
      <trkpt lat="42.32457" lon="1.827583">
        <ele>1497</ele>
        <time>2020-07-12T05:17:03.057Z</time>
      </trkpt>
      <trkpt lat="42.324531" lon="1.827513">
        <ele>1497</ele>
        <time>2020-07-12T05:17:10.057Z</time>
      </trkpt>
      <trkpt lat="42.324473" lon="1.827481">
        <ele>1495</ele>
        <time>2020-07-12T05:17:16.057Z</time>
      </trkpt>
      <trkpt lat="42.324414" lon="1.827389">
        <ele>1494</ele>
        <time>2020-07-12T05:17:24.057Z</time>
      </trkpt>
      <trkpt lat="42.324363" lon="1.827338">
        <ele>1491.7890048</ele>
        <time>2020-07-12T05:17:31.057Z</time>
      </trkpt>
      <trkpt lat="42.324304" lon="1.827298">
        <ele>1490</ele>
        <time>2020-07-12T05:17:39.057Z</time>
      </trkpt>
      <trkpt lat="42.324246" lon="1.827254">
        <ele>1490</ele>
        <time>2020-07-12T05:17:45.057Z</time>
      </trkpt>
      <trkpt lat="42.324206" lon="1.827205">
        <ele>1490</ele>
        <time>2020-07-12T05:17:50.057Z</time>
      </trkpt>
      <trkpt lat="42.324161" lon="1.827169">
        <ele>1486</ele>
        <time>2020-07-12T05:17:59.057Z</time>
      </trkpt>
      <trkpt lat="42.324108" lon="1.827044">
        <ele>1486</ele>
        <time>2020-07-12T05:18:14.056Z</time>
      </trkpt>
      <trkpt lat="42.324042" lon="1.826914">
        <ele>1482.1549952</ele>
        <time>2020-07-12T05:18:26.165Z</time>
      </trkpt>
      <trkpt lat="42.323956" lon="1.82683">
        <ele>1481</ele>
        <time>2020-07-12T05:18:35.057Z</time>
      </trkpt>
      <trkpt lat="42.323854" lon="1.826762">
        <ele>1476</ele>
        <time>2020-07-12T05:18:48.061Z</time>
      </trkpt>
      <trkpt lat="42.323778" lon="1.826576">
        <ele>1475</ele>
        <time>2020-07-12T05:19:04.057Z</time>
      </trkpt>
      <trkpt lat="42.323682" lon="1.826476">
        <ele>1476</ele>
        <time>2020-07-12T05:19:16.157Z</time>
      </trkpt>
      <trkpt lat="42.323586" lon="1.826376">
        <ele>1477</ele>
        <time>2020-07-12T05:20:12.055Z</time>
      </trkpt>
      <trkpt lat="42.323524" lon="1.82625">
        <ele>1477</ele>
        <time>2020-07-12T05:20:20.057Z</time>
      </trkpt>
      <trkpt lat="42.323422" lon="1.826158">
        <ele>1473</ele>
        <time>2020-07-12T05:20:32.057Z</time>
      </trkpt>
      <trkpt lat="42.323379" lon="1.826017">
        <ele>1470</ele>
        <time>2020-07-12T05:20:40.057Z</time>
      </trkpt>
      <trkpt lat="42.323355" lon="1.825888">
        <ele>1466.7410048</ele>
        <time>2020-07-12T05:20:48.061Z</time>
      </trkpt>
      <trkpt lat="42.323304" lon="1.825777">
        <ele>1467</ele>
        <time>2020-07-12T05:20:56.059Z</time>
      </trkpt>
      <trkpt lat="42.323274" lon="1.825615">
        <ele>1466</ele>
        <time>2020-07-12T05:21:04.057Z</time>
      </trkpt>
      <trkpt lat="42.323176" lon="1.825503">
        <ele>1466</ele>
        <time>2020-07-12T05:21:20.051Z</time>
      </trkpt>
      <trkpt lat="42.32307" lon="1.825482">
        <ele>1462</ele>
        <time>2020-07-12T05:21:28.062Z</time>
      </trkpt>
      <trkpt lat="42.323015" lon="1.825324">
        <ele>1460</ele>
        <time>2020-07-12T05:21:43.056Z</time>
      </trkpt>
      <trkpt lat="42.322939" lon="1.825228">
        <ele>1457.7890048</ele>
        <time>2020-07-12T05:21:51.057Z</time>
      </trkpt>
      <trkpt lat="42.322851" lon="1.8251">
        <ele>1454</ele>
        <time>2020-07-12T05:22:03.065Z</time>
      </trkpt>
      <trkpt lat="42.322792" lon="1.824924">
        <ele>1453</ele>
        <time>2020-07-12T05:22:15.048Z</time>
      </trkpt>
      <trkpt lat="42.322806" lon="1.824761">
        <ele>1452</ele>
        <time>2020-07-12T05:22:27.155Z</time>
      </trkpt>
      <trkpt lat="42.322766" lon="1.824615">
        <ele>1448</ele>
        <time>2020-07-12T05:22:39.057Z</time>
      </trkpt>
      <trkpt lat="42.32268" lon="1.824545">
        <ele>1447</ele>
        <time>2020-07-12T05:22:47.055Z</time>
      </trkpt>
      <trkpt lat="42.322609" lon="1.82442">
        <ele>1443</ele>
        <time>2020-07-12T05:22:59.057Z</time>
      </trkpt>
      <trkpt lat="42.32253" lon="1.824374">
        <ele>1444</ele>
        <time>2020-07-12T05:23:07.057Z</time>
      </trkpt>
      <trkpt lat="42.322424" lon="1.824362">
        <ele>1444</ele>
        <time>2020-07-12T05:23:15.058Z</time>
      </trkpt>
      <trkpt lat="42.322329" lon="1.8243">
        <ele>1443</ele>
        <time>2020-07-12T05:23:23.059Z</time>
      </trkpt>
      <trkpt lat="42.322315" lon="1.824484">
        <ele>1440</ele>
        <time>2020-07-12T05:23:43.057Z</time>
      </trkpt>
      <trkpt lat="42.322242" lon="1.824585">
        <ele>1442</ele>
        <time>2020-07-12T05:23:55.059Z</time>
      </trkpt>
      <trkpt lat="42.322108" lon="1.82459">
        <ele>1443</ele>
        <time>2020-07-12T05:24:07.057Z</time>
      </trkpt>
      <trkpt lat="42.322026" lon="1.824587">
        <ele>1445</ele>
        <time>2020-07-12T05:24:15.053Z</time>
      </trkpt>
      <trkpt lat="42.321898" lon="1.824613">
        <ele>1446</ele>
        <time>2020-07-12T05:24:27.160Z</time>
      </trkpt>
      <trkpt lat="42.32182" lon="1.824739">
        <ele>1451</ele>
        <time>2020-07-12T05:24:47.057Z</time>
      </trkpt>
      <trkpt lat="42.321692" lon="1.824807">
        <ele>1452</ele>
        <time>2020-07-12T05:24:59.059Z</time>
      </trkpt>
      <trkpt lat="42.321578" lon="1.82468">
        <ele>1455</ele>
        <time>2020-07-12T05:25:15.052Z</time>
      </trkpt>
      <trkpt lat="42.32145" lon="1.824568">
        <ele>1454</ele>
        <time>2020-07-12T05:25:27.951Z</time>
      </trkpt>
      <trkpt lat="42.321377" lon="1.824447">
        <ele>1452</ele>
        <time>2020-07-12T05:25:36.057Z</time>
      </trkpt>
      <trkpt lat="42.321266" lon="1.824385">
        <ele>1451</ele>
        <time>2020-07-12T05:25:44.057Z</time>
      </trkpt>
      <trkpt lat="42.321165" lon="1.824295">
        <ele>1452</ele>
        <time>2020-07-12T05:25:54.057Z</time>
      </trkpt>
      <trkpt lat="42.32101" lon="1.824291">
        <ele>1452</ele>
        <time>2020-07-12T05:26:06.057Z</time>
      </trkpt>
      <trkpt lat="42.32086" lon="1.824276">
        <ele>1453</ele>
        <time>2020-07-12T05:26:18.059Z</time>
      </trkpt>
      <trkpt lat="42.320711" lon="1.824242">
        <ele>1455.7369984</ele>
        <time>2020-07-12T05:26:31.057Z</time>
      </trkpt>
      <trkpt lat="42.320538" lon="1.82423">
        <ele>1456</ele>
        <time>2020-07-12T05:26:49.057Z</time>
      </trkpt>
      <trkpt lat="42.320336" lon="1.824196">
        <ele>1460</ele>
        <time>2020-07-12T05:27:13.057Z</time>
      </trkpt>
      <trkpt lat="42.320202" lon="1.82423">
        <ele>1461</ele>
        <time>2020-07-12T05:27:25.057Z</time>
      </trkpt>
      <trkpt lat="42.320084" lon="1.824238">
        <ele>1461</ele>
        <time>2020-07-12T05:27:33.057Z</time>
      </trkpt>
      <trkpt lat="42.319977" lon="1.82422">
        <ele>1461.7369984</ele>
        <time>2020-07-12T05:27:41.057Z</time>
      </trkpt>
      <trkpt lat="42.319888" lon="1.824166">
        <ele>1462</ele>
        <time>2020-07-12T05:27:49.057Z</time>
      </trkpt>
      <trkpt lat="42.319809" lon="1.824114">
        <ele>1462</ele>
        <time>2020-07-12T05:27:57.057Z</time>
      </trkpt>
      <trkpt lat="42.319733" lon="1.824058">
        <ele>1464</ele>
        <time>2020-07-12T05:28:05.057Z</time>
      </trkpt>
      <trkpt lat="42.319624" lon="1.823961">
        <ele>1466</ele>
        <time>2020-07-12T05:28:17.057Z</time>
      </trkpt>
      <trkpt lat="42.31957" lon="1.823796">
        <ele>1466</ele>
        <time>2020-07-12T05:28:26.057Z</time>
      </trkpt>
      <trkpt lat="42.319467" lon="1.823683">
        <ele>1468</ele>
        <time>2020-07-12T05:28:38.057Z</time>
      </trkpt>
      <trkpt lat="42.319387" lon="1.823566">
        <ele>1469</ele>
        <time>2020-07-12T05:28:49.960Z</time>
      </trkpt>
      <trkpt lat="42.319398" lon="1.823364">
        <ele>1471</ele>
        <time>2020-07-12T05:28:58.057Z</time>
      </trkpt>
      <trkpt lat="42.319336" lon="1.823257">
        <ele>1471</ele>
        <time>2020-07-12T05:29:06.057Z</time>
      </trkpt>
      <trkpt lat="42.31924" lon="1.823153">
        <ele>1472</ele>
        <time>2020-07-12T05:29:18.062Z</time>
      </trkpt>
      <trkpt lat="42.319134" lon="1.823012">
        <ele>1474</ele>
        <time>2020-07-12T05:29:29.057Z</time>
      </trkpt>
      <trkpt lat="42.319013" lon="1.822918">
        <ele>1476.7379968</ele>
        <time>2020-07-12T05:29:41.057Z</time>
      </trkpt>
      <trkpt lat="42.31889" lon="1.822852">
        <ele>1479</ele>
        <time>2020-07-12T05:29:53.050Z</time>
      </trkpt>
      <trkpt lat="42.318775" lon="1.822727">
        <ele>1479</ele>
        <time>2020-07-12T05:30:05.057Z</time>
      </trkpt>
      <trkpt lat="42.318642" lon="1.822667">
        <ele>1481</ele>
        <time>2020-07-12T05:30:17.058Z</time>
      </trkpt>
      <trkpt lat="42.318493" lon="1.822638">
        <ele>1482</ele>
        <time>2020-07-12T05:30:26.057Z</time>
      </trkpt>
      <trkpt lat="42.318372" lon="1.822588">
        <ele>1483</ele>
        <time>2020-07-12T05:30:38.057Z</time>
      </trkpt>
      <trkpt lat="42.318282" lon="1.822527">
        <ele>1484</ele>
        <time>2020-07-12T05:30:46.057Z</time>
      </trkpt>
      <trkpt lat="42.31819" lon="1.822481">
        <ele>1484</ele>
        <time>2020-07-12T05:30:54.057Z</time>
      </trkpt>
      <trkpt lat="42.318115" lon="1.822303">
        <ele>1485</ele>
        <time>2020-07-12T05:31:06.057Z</time>
      </trkpt>
      <trkpt lat="42.318062" lon="1.822204">
        <ele>1486</ele>
        <time>2020-07-12T05:31:14.057Z</time>
      </trkpt>
      <trkpt lat="42.31797" lon="1.822084">
        <ele>1488</ele>
        <time>2020-07-12T05:31:24.057Z</time>
      </trkpt>
      <trkpt lat="42.317832" lon="1.82204">
        <ele>1489</ele>
        <time>2020-07-12T05:31:37.057Z</time>
      </trkpt>
      <trkpt lat="42.317709" lon="1.82206">
        <ele>1491</ele>
        <time>2020-07-12T05:31:45.057Z</time>
      </trkpt>
      <trkpt lat="42.317556" lon="1.822044">
        <ele>1492</ele>
        <time>2020-07-12T05:31:56.057Z</time>
      </trkpt>
      <trkpt lat="42.31745" lon="1.821915">
        <ele>1493</ele>
        <time>2020-07-12T05:32:08.057Z</time>
      </trkpt>
      <trkpt lat="42.31734" lon="1.821837">
        <ele>1494</ele>
        <time>2020-07-12T05:32:20.057Z</time>
      </trkpt>
      <trkpt lat="42.31724" lon="1.821694">
        <ele>1495</ele>
        <time>2020-07-12T05:32:33.057Z</time>
      </trkpt>
      <trkpt lat="42.317099" lon="1.821517">
        <ele>1496</ele>
        <time>2020-07-12T05:32:50.057Z</time>
      </trkpt>
      <trkpt lat="42.316961" lon="1.821475">
        <ele>1499</ele>
        <time>2020-07-12T05:33:02.057Z</time>
      </trkpt>
      <trkpt lat="42.316829" lon="1.821437">
        <ele>1500</ele>
        <time>2020-07-12T05:33:14.057Z</time>
      </trkpt>
      <trkpt lat="42.316715" lon="1.82139">
        <ele>1502</ele>
        <time>2020-07-12T05:33:26.057Z</time>
      </trkpt>
      <trkpt lat="42.316584" lon="1.821374">
        <ele>1504</ele>
        <time>2020-07-12T05:33:38.057Z</time>
      </trkpt>
      <trkpt lat="42.316482" lon="1.821351">
        <ele>1505</ele>
        <time>2020-07-12T05:33:46.057Z</time>
      </trkpt>
      <trkpt lat="42.316367" lon="1.821324">
        <ele>1506</ele>
        <time>2020-07-12T05:33:58.057Z</time>
      </trkpt>
      <trkpt lat="42.31629" lon="1.821221">
        <ele>1507</ele>
        <time>2020-07-12T05:34:06.057Z</time>
      </trkpt>
      <trkpt lat="42.316249" lon="1.821082">
        <ele>1508</ele>
        <time>2020-07-12T05:34:14.057Z</time>
      </trkpt>
      <trkpt lat="42.316121" lon="1.820967">
        <ele>1510</ele>
        <time>2020-07-12T05:34:28.057Z</time>
      </trkpt>
      <trkpt lat="42.316001" lon="1.820892">
        <ele>1511</ele>
        <time>2020-07-12T05:34:40.057Z</time>
      </trkpt>
      <trkpt lat="42.315963" lon="1.82072">
        <ele>1512</ele>
        <time>2020-07-12T05:34:48.057Z</time>
      </trkpt>
      <trkpt lat="42.315916" lon="1.820588">
        <ele>1514</ele>
        <time>2020-07-12T05:34:58.057Z</time>
      </trkpt>
      <trkpt lat="42.315905" lon="1.820418">
        <ele>1514</ele>
        <time>2020-07-12T05:35:06.057Z</time>
      </trkpt>
      <trkpt lat="42.315859" lon="1.820262">
        <ele>1515</ele>
        <time>2020-07-12T05:35:18.057Z</time>
      </trkpt>
      <trkpt lat="42.315741" lon="1.820226">
        <ele>1517</ele>
        <time>2020-07-12T05:35:28.057Z</time>
      </trkpt>
      <trkpt lat="42.315662" lon="1.820113">
        <ele>1518</ele>
        <time>2020-07-12T05:35:36.057Z</time>
      </trkpt>
      <trkpt lat="42.31553" lon="1.8201">
        <ele>1520</ele>
        <time>2020-07-12T05:35:48.057Z</time>
      </trkpt>
      <trkpt lat="42.315438" lon="1.819981">
        <ele>1520</ele>
        <time>2020-07-12T05:36:00.057Z</time>
      </trkpt>
      <trkpt lat="42.315347" lon="1.819767">
        <ele>1523</ele>
        <time>2020-07-12T05:36:13.057Z</time>
      </trkpt>
      <trkpt lat="42.315325" lon="1.819621">
        <ele>1523</ele>
        <time>2020-07-12T05:36:20.057Z</time>
      </trkpt>
      <trkpt lat="42.315309" lon="1.819473">
        <ele>1525</ele>
        <time>2020-07-12T05:36:28.057Z</time>
      </trkpt>
      <trkpt lat="42.315203" lon="1.819374">
        <ele>1526</ele>
        <time>2020-07-12T05:36:40.057Z</time>
      </trkpt>
      <trkpt lat="42.315107" lon="1.819282">
        <ele>1529</ele>
        <time>2020-07-12T05:36:56.057Z</time>
      </trkpt>
      <trkpt lat="42.315039" lon="1.819113">
        <ele>1531</ele>
        <time>2020-07-12T05:37:10.057Z</time>
      </trkpt>
      <trkpt lat="42.314981" lon="1.818998">
        <ele>1531</ele>
        <time>2020-07-12T05:37:18.056Z</time>
      </trkpt>
      <trkpt lat="42.314895" lon="1.818895">
        <ele>1533</ele>
        <time>2020-07-12T05:37:27.159Z</time>
      </trkpt>
      <trkpt lat="42.314778" lon="1.818942">
        <ele>1535</ele>
        <time>2020-07-12T05:37:35.057Z</time>
      </trkpt>
      <trkpt lat="42.314691" lon="1.818853">
        <ele>1536.7369984</ele>
        <time>2020-07-12T05:37:51.057Z</time>
      </trkpt>
      <trkpt lat="42.314565" lon="1.818789">
        <ele>1537</ele>
        <time>2020-07-12T05:37:59.057Z</time>
      </trkpt>
      <trkpt lat="42.314473" lon="1.818736">
        <ele>1539</ele>
        <time>2020-07-12T05:38:07.057Z</time>
      </trkpt>
      <trkpt lat="42.314396" lon="1.818637">
        <ele>1540</ele>
        <time>2020-07-12T05:38:15.057Z</time>
      </trkpt>
      <trkpt lat="42.314344" lon="1.818508">
        <ele>1541</ele>
        <time>2020-07-12T05:38:23.057Z</time>
      </trkpt>
      <trkpt lat="42.314289" lon="1.818389">
        <ele>1542.4739968</ele>
        <time>2020-07-12T05:38:31.057Z</time>
      </trkpt>
      <trkpt lat="42.314261" lon="1.818536">
        <ele>1544</ele>
        <time>2020-07-12T05:38:58.057Z</time>
      </trkpt>
      <trkpt lat="42.314355" lon="1.818639">
        <ele>1546</ele>
        <time>2020-07-12T05:39:06.057Z</time>
      </trkpt>
      <trkpt lat="42.314397" lon="1.818826">
        <ele>1547</ele>
        <time>2020-07-12T05:39:20.057Z</time>
      </trkpt>
      <trkpt lat="42.314466" lon="1.818932">
        <ele>1547</ele>
        <time>2020-07-12T05:39:28.057Z</time>
      </trkpt>
      <trkpt lat="42.314515" lon="1.819143">
        <ele>1548</ele>
        <time>2020-07-12T05:39:40.057Z</time>
      </trkpt>
      <trkpt lat="42.314579" lon="1.819259">
        <ele>1549</ele>
        <time>2020-07-12T05:39:48.057Z</time>
      </trkpt>
      <trkpt lat="42.31468" lon="1.819387">
        <ele>1550</ele>
        <time>2020-07-12T05:40:00.057Z</time>
      </trkpt>
      <trkpt lat="42.314764" lon="1.819559">
        <ele>1553</ele>
        <time>2020-07-12T05:40:12.057Z</time>
      </trkpt>
      <trkpt lat="42.314815" lon="1.819745">
        <ele>1554</ele>
        <time>2020-07-12T05:40:25.057Z</time>
      </trkpt>
      <trkpt lat="42.314854" lon="1.819873">
        <ele>1554</ele>
        <time>2020-07-12T05:40:33.057Z</time>
      </trkpt>
      <trkpt lat="42.314904" lon="1.819992">
        <ele>1554.7369984</ele>
        <time>2020-07-12T05:40:41.057Z</time>
      </trkpt>
      <trkpt lat="42.314936" lon="1.820173">
        <ele>1556</ele>
        <time>2020-07-12T05:40:55.057Z</time>
      </trkpt>
      <trkpt lat="42.314951" lon="1.820353">
        <ele>1557</ele>
        <time>2020-07-12T05:41:16.057Z</time>
      </trkpt>
      <trkpt lat="42.314992" lon="1.820509">
        <ele>1557</ele>
        <time>2020-07-12T05:41:24.057Z</time>
      </trkpt>
      <trkpt lat="42.315064" lon="1.820664">
        <ele>1559</ele>
        <time>2020-07-12T05:41:32.057Z</time>
      </trkpt>
      <trkpt lat="42.31508" lon="1.8208">
        <ele>1559</ele>
        <time>2020-07-12T05:41:40.057Z</time>
      </trkpt>
      <trkpt lat="42.315085" lon="1.820966">
        <ele>1560</ele>
        <time>2020-07-12T05:41:49.057Z</time>
      </trkpt>
      <trkpt lat="42.31513" lon="1.821112">
        <ele>1563</ele>
        <time>2020-07-12T05:42:02.057Z</time>
      </trkpt>
      <trkpt lat="42.31515" lon="1.82127">
        <ele>1565</ele>
        <time>2020-07-12T05:42:13.057Z</time>
      </trkpt>
      <trkpt lat="42.315051" lon="1.821404">
        <ele>1567</ele>
        <time>2020-07-12T05:42:25.057Z</time>
      </trkpt>
      <trkpt lat="42.31498" lon="1.821574">
        <ele>1569</ele>
        <time>2020-07-12T05:42:37.057Z</time>
      </trkpt>
      <trkpt lat="42.3151" lon="1.821678">
        <ele>1571.7369984</ele>
        <time>2020-07-12T05:43:01.057Z</time>
      </trkpt>
      <trkpt lat="42.315248" lon="1.821705">
        <ele>1572.7350016</ele>
        <time>2020-07-12T05:43:11.055Z</time>
      </trkpt>
      <trkpt lat="42.315371" lon="1.821813">
        <ele>1574</ele>
        <time>2020-07-12T05:43:24.062Z</time>
      </trkpt>
      <trkpt lat="42.315502" lon="1.822074">
        <ele>1576</ele>
        <time>2020-07-12T05:43:38.057Z</time>
      </trkpt>
      <trkpt lat="42.315596" lon="1.822164">
        <ele>1576</ele>
        <time>2020-07-12T05:43:47.057Z</time>
      </trkpt>
      <trkpt lat="42.315666" lon="1.822274">
        <ele>1578</ele>
        <time>2020-07-12T05:43:56.053Z</time>
      </trkpt>
      <trkpt lat="42.315757" lon="1.822406">
        <ele>1578</ele>
        <time>2020-07-12T05:44:07.057Z</time>
      </trkpt>
      <trkpt lat="42.315887" lon="1.822573">
        <ele>1579</ele>
        <time>2020-07-12T05:44:19.057Z</time>
      </trkpt>
      <trkpt lat="42.315961" lon="1.822689">
        <ele>1581</ele>
        <time>2020-07-12T05:44:28.057Z</time>
      </trkpt>
      <trkpt lat="42.315978" lon="1.822825">
        <ele>1582</ele>
        <time>2020-07-12T05:44:38.055Z</time>
      </trkpt>
      <trkpt lat="42.316145" lon="1.822843">
        <ele>1584</ele>
        <time>2020-07-12T05:44:55.057Z</time>
      </trkpt>
      <trkpt lat="42.316246" lon="1.822886">
        <ele>1584</ele>
        <time>2020-07-12T05:45:03.057Z</time>
      </trkpt>
      <trkpt lat="42.316376" lon="1.822991">
        <ele>1585</ele>
        <time>2020-07-12T05:45:15.057Z</time>
      </trkpt>
      <trkpt lat="42.316476" lon="1.823036">
        <ele>1585</ele>
        <time>2020-07-12T05:45:23.056Z</time>
      </trkpt>
      <trkpt lat="42.316601" lon="1.823131">
        <ele>1587</ele>
        <time>2020-07-12T05:45:35.057Z</time>
      </trkpt>
      <trkpt lat="42.316706" lon="1.823226">
        <ele>1589</ele>
        <time>2020-07-12T05:45:43.057Z</time>
      </trkpt>
      <trkpt lat="42.316791" lon="1.823351">
        <ele>1590</ele>
        <time>2020-07-12T05:45:52.057Z</time>
      </trkpt>
      <trkpt lat="42.316879" lon="1.823466">
        <ele>1590</ele>
        <time>2020-07-12T05:45:59.057Z</time>
      </trkpt>
      <trkpt lat="42.316923" lon="1.82359">
        <ele>1591</ele>
        <time>2020-07-12T05:46:07.057Z</time>
      </trkpt>
      <trkpt lat="42.316997" lon="1.823729">
        <ele>1592</ele>
        <time>2020-07-12T05:46:19.057Z</time>
      </trkpt>
      <trkpt lat="42.317062" lon="1.82389">
        <ele>1594.4739968</ele>
        <time>2020-07-12T05:46:31.057Z</time>
      </trkpt>
      <trkpt lat="42.317119" lon="1.824047">
        <ele>1596</ele>
        <time>2020-07-12T05:46:43.057Z</time>
      </trkpt>
      <trkpt lat="42.31719" lon="1.824142">
        <ele>1597.0779904</ele>
        <time>2020-07-12T05:46:50.859Z</time>
      </trkpt>
      <trkpt lat="42.317422" lon="1.824118">
        <ele>1598</ele>
        <time>2020-07-12T05:46:55.809Z</time>
      </trkpt>
      <trkpt lat="42.3174" lon="1.82438">
        <ele>1599</ele>
        <time>2020-07-12T05:47:19.057Z</time>
      </trkpt>
      <trkpt lat="42.317523" lon="1.824463">
        <ele>1601.7369984</ele>
        <time>2020-07-12T05:47:31.057Z</time>
      </trkpt>
      <trkpt lat="42.317584" lon="1.824577">
        <ele>1602</ele>
        <time>2020-07-12T05:47:39.057Z</time>
      </trkpt>
      <trkpt lat="42.317671" lon="1.824721">
        <ele>1605</ele>
        <time>2020-07-12T05:47:52.057Z</time>
      </trkpt>
      <trkpt lat="42.317789" lon="1.824822">
        <ele>1605</ele>
        <time>2020-07-12T05:48:00.063Z</time>
      </trkpt>
      <trkpt lat="42.317891" lon="1.824923">
        <ele>1607</ele>
        <time>2020-07-12T05:48:08.056Z</time>
      </trkpt>
      <trkpt lat="42.317937" lon="1.825051">
        <ele>1607</ele>
        <time>2020-07-12T05:48:16.052Z</time>
      </trkpt>
      <trkpt lat="42.317983" lon="1.825194">
        <ele>1608</ele>
        <time>2020-07-12T05:48:24.057Z</time>
      </trkpt>
      <trkpt lat="42.317965" lon="1.82536">
        <ele>1608</ele>
        <time>2020-07-12T05:48:36.060Z</time>
      </trkpt>
      <trkpt lat="42.317984" lon="1.825508">
        <ele>1609</ele>
        <time>2020-07-12T05:48:44.055Z</time>
      </trkpt>
      <trkpt lat="42.318086" lon="1.825568">
        <ele>1611</ele>
        <time>2020-07-12T05:48:52.052Z</time>
      </trkpt>
      <trkpt lat="42.318141" lon="1.82568">
        <ele>1611</ele>
        <time>2020-07-12T05:49:00.057Z</time>
      </trkpt>
      <trkpt lat="42.318164" lon="1.825847">
        <ele>1612</ele>
        <time>2020-07-12T05:49:12.057Z</time>
      </trkpt>
      <trkpt lat="42.31816" lon="1.826033">
        <ele>1613</ele>
        <time>2020-07-12T05:49:24.065Z</time>
      </trkpt>
      <trkpt lat="42.31822" lon="1.826199">
        <ele>1615</ele>
        <time>2020-07-12T05:49:32.154Z</time>
      </trkpt>
      <trkpt lat="42.318059" lon="1.826234">
        <ele>1617</ele>
        <time>2020-07-12T05:49:56.057Z</time>
      </trkpt>
      <trkpt lat="42.317988" lon="1.826129">
        <ele>1619</ele>
        <time>2020-07-12T05:50:08.057Z</time>
      </trkpt>
      <trkpt lat="42.317976" lon="1.825948">
        <ele>1621</ele>
        <time>2020-07-12T05:50:20.051Z</time>
      </trkpt>
      <trkpt lat="42.317901" lon="1.825805">
        <ele>1623</ele>
        <time>2020-07-12T05:50:33.057Z</time>
      </trkpt>
      <trkpt lat="42.317808" lon="1.825685">
        <ele>1623</ele>
        <time>2020-07-12T05:50:45.054Z</time>
      </trkpt>
      <trkpt lat="42.317673" lon="1.825571">
        <ele>1624</ele>
        <time>2020-07-12T05:50:55.814Z</time>
      </trkpt>
      <trkpt lat="42.317589" lon="1.825485">
        <ele>1626</ele>
        <time>2020-07-12T05:51:08.057Z</time>
      </trkpt>
      <trkpt lat="42.317513" lon="1.825407">
        <ele>1627</ele>
        <time>2020-07-12T05:51:16.064Z</time>
      </trkpt>
      <trkpt lat="42.317403" lon="1.825362">
        <ele>1628</ele>
        <time>2020-07-12T05:51:28.057Z</time>
      </trkpt>
      <trkpt lat="42.317294" lon="1.825373">
        <ele>1630</ele>
        <time>2020-07-12T05:51:40.057Z</time>
      </trkpt>
      <trkpt lat="42.317267" lon="1.825516">
        <ele>1633</ele>
        <time>2020-07-12T05:51:56.052Z</time>
      </trkpt>
      <trkpt lat="42.317161" lon="1.825563">
        <ele>1635</ele>
        <time>2020-07-12T05:53:08.057Z</time>
      </trkpt>
      <trkpt lat="42.317069" lon="1.825497">
        <ele>1637</ele>
        <time>2020-07-12T05:53:16.056Z</time>
      </trkpt>
      <trkpt lat="42.316974" lon="1.825433">
        <ele>1638</ele>
        <time>2020-07-12T05:53:24.063Z</time>
      </trkpt>
      <trkpt lat="42.316863" lon="1.82533">
        <ele>1640</ele>
        <time>2020-07-12T05:53:36.057Z</time>
      </trkpt>
      <trkpt lat="42.316747" lon="1.825273">
        <ele>1642</ele>
        <time>2020-07-12T05:53:48.054Z</time>
      </trkpt>
      <trkpt lat="42.31662" lon="1.825213">
        <ele>1644</ele>
        <time>2020-07-12T05:54:00.057Z</time>
      </trkpt>
      <trkpt lat="42.316506" lon="1.825171">
        <ele>1647</ele>
        <time>2020-07-12T05:54:12.057Z</time>
      </trkpt>
      <trkpt lat="42.316407" lon="1.82505">
        <ele>1650</ele>
        <time>2020-07-12T05:54:25.059Z</time>
      </trkpt>
      <trkpt lat="42.316304" lon="1.824988">
        <ele>1653.4739968</ele>
        <time>2020-07-12T05:54:41.057Z</time>
      </trkpt>
      <trkpt lat="42.31621" lon="1.824917">
        <ele>1655</ele>
        <time>2020-07-12T05:54:53.051Z</time>
      </trkpt>
      <trkpt lat="42.316111" lon="1.824906">
        <ele>1657</ele>
        <time>2020-07-12T05:55:05.057Z</time>
      </trkpt>
      <trkpt lat="42.315994" lon="1.824869">
        <ele>1658</ele>
        <time>2020-07-12T05:55:17.065Z</time>
      </trkpt>
      <trkpt lat="42.31589" lon="1.824766">
        <ele>1660</ele>
        <time>2020-07-12T05:55:29.057Z</time>
      </trkpt>
      <trkpt lat="42.315774" lon="1.82474">
        <ele>1662.7369984</ele>
        <time>2020-07-12T05:55:41.057Z</time>
      </trkpt>
      <trkpt lat="42.315671" lon="1.824712">
        <ele>1663</ele>
        <time>2020-07-12T05:55:53.057Z</time>
      </trkpt>
      <trkpt lat="42.315558" lon="1.824643">
        <ele>1666</ele>
        <time>2020-07-12T05:56:05.057Z</time>
      </trkpt>
      <trkpt lat="42.315436" lon="1.82464">
        <ele>1668</ele>
        <time>2020-07-12T05:56:21.056Z</time>
      </trkpt>
      <trkpt lat="42.31532" lon="1.824635">
        <ele>1670</ele>
        <time>2020-07-12T05:56:35.057Z</time>
      </trkpt>
      <trkpt lat="42.31517" lon="1.824628">
        <ele>1671</ele>
        <time>2020-07-12T05:56:47.053Z</time>
      </trkpt>
      <trkpt lat="42.315084" lon="1.824554">
        <ele>1672</ele>
        <time>2020-07-12T05:56:55.064Z</time>
      </trkpt>
      <trkpt lat="42.314964" lon="1.824542">
        <ele>1676</ele>
        <time>2020-07-12T05:57:15.057Z</time>
      </trkpt>
      <trkpt lat="42.314856" lon="1.824482">
        <ele>1678</ele>
        <time>2020-07-12T05:57:25.057Z</time>
      </trkpt>
      <trkpt lat="42.314741" lon="1.824504">
        <ele>1680.4739968</ele>
        <time>2020-07-12T05:57:41.057Z</time>
      </trkpt>
      <trkpt lat="42.31464" lon="1.824524">
        <ele>1684</ele>
        <time>2020-07-12T05:57:53.057Z</time>
      </trkpt>
      <trkpt lat="42.31453" lon="1.824497">
        <ele>1684.2630016</ele>
        <time>2020-07-12T05:58:01.057Z</time>
      </trkpt>
      <trkpt lat="42.314361" lon="1.824495">
        <ele>1686</ele>
        <time>2020-07-12T05:58:20.057Z</time>
      </trkpt>
      <trkpt lat="42.314261" lon="1.824563">
        <ele>1687</ele>
        <time>2020-07-12T05:58:29.059Z</time>
      </trkpt>
      <trkpt lat="42.314154" lon="1.824532">
        <ele>1691</ele>
        <time>2020-07-12T05:58:42.057Z</time>
      </trkpt>
      <trkpt lat="42.314005" lon="1.824491">
        <ele>1692</ele>
        <time>2020-07-12T05:58:58.057Z</time>
      </trkpt>
      <trkpt lat="42.31387" lon="1.824419">
        <ele>1693</ele>
        <time>2020-07-12T05:59:10.057Z</time>
      </trkpt>
      <trkpt lat="42.31375" lon="1.824391">
        <ele>1695</ele>
        <time>2020-07-12T05:59:50.057Z</time>
      </trkpt>
      <trkpt lat="42.313659" lon="1.824333">
        <ele>1697</ele>
        <time>2020-07-12T06:00:04.057Z</time>
      </trkpt>
      <trkpt lat="42.313534" lon="1.824321">
        <ele>1699</ele>
        <time>2020-07-12T06:00:16.057Z</time>
      </trkpt>
      <trkpt lat="42.313479" lon="1.824197">
        <ele>1704</ele>
        <time>2020-07-12T06:00:44.057Z</time>
      </trkpt>
      <trkpt lat="42.313374" lon="1.824129">
        <ele>1705</ele>
        <time>2020-07-12T06:01:00.054Z</time>
      </trkpt>
      <trkpt lat="42.313158" lon="1.824006">
        <ele>1712</ele>
        <time>2020-07-12T06:01:23.057Z</time>
      </trkpt>
      <trkpt lat="42.313103" lon="1.823881">
        <ele>1714</ele>
        <time>2020-07-12T06:01:39.057Z</time>
      </trkpt>
      <trkpt lat="42.313037" lon="1.823765">
        <ele>1718</ele>
        <time>2020-07-12T06:01:55.057Z</time>
      </trkpt>
      <trkpt lat="42.312945" lon="1.823664">
        <ele>1719</ele>
        <time>2020-07-12T06:02:05.057Z</time>
      </trkpt>
      <trkpt lat="42.312849" lon="1.823514">
        <ele>1720</ele>
        <time>2020-07-12T06:02:18.057Z</time>
      </trkpt>
      <trkpt lat="42.312725" lon="1.823492">
        <ele>1722</ele>
        <time>2020-07-12T06:02:30.057Z</time>
      </trkpt>
      <trkpt lat="42.312661" lon="1.823604">
        <ele>1727</ele>
        <time>2020-07-12T06:02:55.793Z</time>
      </trkpt>
      <trkpt lat="42.312505" lon="1.823605">
        <ele>1735</ele>
        <time>2020-07-12T06:03:33.057Z</time>
      </trkpt>
      <trkpt lat="42.312371" lon="1.823481">
        <ele>1736</ele>
        <time>2020-07-12T06:03:47.057Z</time>
      </trkpt>
      <trkpt lat="42.312287" lon="1.823367">
        <ele>1739</ele>
        <time>2020-07-12T06:04:04.057Z</time>
      </trkpt>
      <trkpt lat="42.312195" lon="1.823281">
        <ele>1741</ele>
        <time>2020-07-12T06:04:20.057Z</time>
      </trkpt>
      <trkpt lat="42.312104" lon="1.823165">
        <ele>1744</ele>
        <time>2020-07-12T06:04:37.057Z</time>
      </trkpt>
      <trkpt lat="42.311929" lon="1.823063">
        <ele>1750</ele>
        <time>2020-07-12T06:05:07.057Z</time>
      </trkpt>
      <trkpt lat="42.311888" lon="1.823195">
        <ele>1755</ele>
        <time>2020-07-12T06:05:47.057Z</time>
      </trkpt>
      <trkpt lat="42.311759" lon="1.823145">
        <ele>1758</ele>
        <time>2020-07-12T06:06:03.057Z</time>
      </trkpt>
      <trkpt lat="42.311684" lon="1.823039">
        <ele>1760</ele>
        <time>2020-07-12T06:06:15.057Z</time>
      </trkpt>
      <trkpt lat="42.311635" lon="1.822909">
        <ele>1762</ele>
        <time>2020-07-12T06:06:39.057Z</time>
      </trkpt>
      <trkpt lat="42.311533" lon="1.8228">
        <ele>1768</ele>
        <time>2020-07-12T06:07:03.057Z</time>
      </trkpt>
      <trkpt lat="42.311423" lon="1.822766">
        <ele>1771</ele>
        <time>2020-07-12T06:07:23.057Z</time>
      </trkpt>
      <trkpt lat="42.311325" lon="1.822723">
        <ele>1772</ele>
        <time>2020-07-12T06:07:35.057Z</time>
      </trkpt>
      <trkpt lat="42.311238" lon="1.822622">
        <ele>1775.4739968</ele>
        <time>2020-07-12T06:07:51.057Z</time>
      </trkpt>
      <trkpt lat="42.311138" lon="1.822561">
        <ele>1777</ele>
        <time>2020-07-12T06:08:07.057Z</time>
      </trkpt>
      <trkpt lat="42.311043" lon="1.822485">
        <ele>1779</ele>
        <time>2020-07-12T06:08:19.057Z</time>
      </trkpt>
      <trkpt lat="42.310972" lon="1.822392">
        <ele>1782.7369984</ele>
        <time>2020-07-12T06:08:31.057Z</time>
      </trkpt>
      <trkpt lat="42.310843" lon="1.822381">
        <ele>1786.4739968</ele>
        <time>2020-07-12T06:08:51.057Z</time>
      </trkpt>
      <trkpt lat="42.310761" lon="1.822286">
        <ele>1788</ele>
        <time>2020-07-12T06:09:06.057Z</time>
      </trkpt>
      <trkpt lat="42.310662" lon="1.822132">
        <ele>1793</ele>
        <time>2020-07-12T06:09:27.057Z</time>
      </trkpt>
      <trkpt lat="42.31053" lon="1.82205">
        <ele>1798</ele>
        <time>2020-07-12T06:09:54.057Z</time>
      </trkpt>
      <trkpt lat="42.310446" lon="1.821974">
        <ele>1801</ele>
        <time>2020-07-12T06:10:14.057Z</time>
      </trkpt>
      <trkpt lat="42.310468" lon="1.821835">
        <ele>1805</ele>
        <time>2020-07-12T06:10:34.057Z</time>
      </trkpt>
      <trkpt lat="42.310368" lon="1.821926">
        <ele>1809</ele>
        <time>2020-07-12T06:10:58.057Z</time>
      </trkpt>
      <trkpt lat="42.310274" lon="1.821996">
        <ele>1810</ele>
        <time>2020-07-12T06:11:10.057Z</time>
      </trkpt>
      <trkpt lat="42.310174" lon="1.822058">
        <ele>1815</ele>
        <time>2020-07-12T06:11:34.057Z</time>
      </trkpt>
      <trkpt lat="42.310077" lon="1.822046">
        <ele>1817</ele>
        <time>2020-07-12T06:11:46.060Z</time>
      </trkpt>
      <trkpt lat="42.309965" lon="1.821941">
        <ele>1820.4739968</ele>
        <time>2020-07-12T06:12:01.057Z</time>
      </trkpt>
      <trkpt lat="42.309954" lon="1.82179">
        <ele>1822</ele>
        <time>2020-07-12T06:12:18.057Z</time>
      </trkpt>
      <trkpt lat="42.30985" lon="1.821781">
        <ele>1826</ele>
        <time>2020-07-12T06:12:38.057Z</time>
      </trkpt>
      <trkpt lat="42.309788" lon="1.821673">
        <ele>1828</ele>
        <time>2020-07-12T06:12:58.057Z</time>
      </trkpt>
      <trkpt lat="42.309718" lon="1.821569">
        <ele>1832</ele>
        <time>2020-07-12T06:13:18.961Z</time>
      </trkpt>
      <trkpt lat="42.309638" lon="1.82174">
        <ele>1838</ele>
        <time>2020-07-12T06:13:45.057Z</time>
      </trkpt>
      <trkpt lat="42.309537" lon="1.821682">
        <ele>1843</ele>
        <time>2020-07-12T06:14:15.055Z</time>
      </trkpt>
      <trkpt lat="42.309417" lon="1.821627">
        <ele>1848</ele>
        <time>2020-07-12T06:14:33.056Z</time>
      </trkpt>
      <trkpt lat="42.309339" lon="1.821544">
        <ele>1852</ele>
        <time>2020-07-12T06:15:02.053Z</time>
      </trkpt>
      <trkpt lat="42.309208" lon="1.82157">
        <ele>1854</ele>
        <time>2020-07-12T06:15:17.057Z</time>
      </trkpt>
      <trkpt lat="42.309094" lon="1.821542">
        <ele>1859.4739968</ele>
        <time>2020-07-12T06:15:51.057Z</time>
      </trkpt>
      <trkpt lat="42.308978" lon="1.821564">
        <ele>1866</ele>
        <time>2020-07-12T06:16:23.057Z</time>
      </trkpt>
      <trkpt lat="42.308867" lon="1.821585">
        <ele>1870</ele>
        <time>2020-07-12T06:16:43.057Z</time>
      </trkpt>
      <trkpt lat="42.308765" lon="1.821549">
        <ele>1872</ele>
        <time>2020-07-12T06:16:58.057Z</time>
      </trkpt>
      <trkpt lat="42.308645" lon="1.82154">
        <ele>1875</ele>
        <time>2020-07-12T06:17:19.057Z</time>
      </trkpt>
      <trkpt lat="42.308554" lon="1.82146">
        <ele>1879</ele>
        <time>2020-07-12T06:17:42.057Z</time>
      </trkpt>
      <trkpt lat="42.30844" lon="1.821448">
        <ele>1883</ele>
        <time>2020-07-12T06:18:02.057Z</time>
      </trkpt>
      <trkpt lat="42.30829" lon="1.821373">
        <ele>1886</ele>
        <time>2020-07-12T06:18:29.057Z</time>
      </trkpt>
      <trkpt lat="42.308184" lon="1.821358">
        <ele>1891.7369984</ele>
        <time>2020-07-12T06:19:01.057Z</time>
      </trkpt>
      <trkpt lat="42.308102" lon="1.821446">
        <ele>1898</ele>
        <time>2020-07-12T06:19:37.057Z</time>
      </trkpt>
      <trkpt lat="42.308013" lon="1.821524">
        <ele>1900</ele>
        <time>2020-07-12T06:19:49.057Z</time>
      </trkpt>
      <trkpt lat="42.307883" lon="1.82154">
        <ele>1906</ele>
        <time>2020-07-12T06:20:12.057Z</time>
      </trkpt>
      <trkpt lat="42.307776" lon="1.821506">
        <ele>1910</ele>
        <time>2020-07-12T06:20:40.057Z</time>
      </trkpt>
      <trkpt lat="42.307687" lon="1.821613">
        <ele>1916</ele>
        <time>2020-07-12T06:21:05.057Z</time>
      </trkpt>
      <trkpt lat="42.307623" lon="1.821738">
        <ele>1918.736</ele>
        <time>2020-07-12T06:21:21.055Z</time>
      </trkpt>
      <trkpt lat="42.307534" lon="1.821801">
        <ele>1920</ele>
        <time>2020-07-12T06:23:09.057Z</time>
      </trkpt>
      <trkpt lat="42.307415" lon="1.821858">
        <ele>1921.4599936</ele>
        <time>2020-07-12T06:23:21.050Z</time>
      </trkpt>
      <trkpt lat="42.307306" lon="1.821974">
        <ele>1924</ele>
        <time>2020-07-12T06:23:37.057Z</time>
      </trkpt>
      <trkpt lat="42.307224" lon="1.821951">
        <ele>1925</ele>
        <time>2020-07-12T06:23:45.058Z</time>
      </trkpt>
      <trkpt lat="42.307082" lon="1.821959">
        <ele>1924</ele>
        <time>2020-07-12T06:23:57.150Z</time>
      </trkpt>
      <trkpt lat="42.307002" lon="1.822044">
        <ele>1923</ele>
        <time>2020-07-12T06:24:09.057Z</time>
      </trkpt>
      <trkpt lat="42.306916" lon="1.822128">
        <ele>1922</ele>
        <time>2020-07-12T06:24:54.057Z</time>
      </trkpt>
      <trkpt lat="42.306765" lon="1.822228">
        <ele>1921</ele>
        <time>2020-07-12T06:25:06.057Z</time>
      </trkpt>
      <trkpt lat="42.306655" lon="1.822267">
        <ele>1922</ele>
        <time>2020-07-12T06:25:18.056Z</time>
      </trkpt>
      <trkpt lat="42.306536" lon="1.822349">
        <ele>1922</ele>
        <time>2020-07-12T06:25:26.056Z</time>
      </trkpt>
      <trkpt lat="42.306423" lon="1.822415">
        <ele>1923</ele>
        <time>2020-07-12T06:25:42.057Z</time>
      </trkpt>
      <trkpt lat="42.306282" lon="1.822455">
        <ele>1922</ele>
        <time>2020-07-12T06:25:54.057Z</time>
      </trkpt>
      <trkpt lat="42.306186" lon="1.822409">
        <ele>1922</ele>
        <time>2020-07-12T06:26:06.160Z</time>
      </trkpt>
      <trkpt lat="42.306084" lon="1.82243">
        <ele>1921</ele>
        <time>2020-07-12T06:27:04.057Z</time>
      </trkpt>
      <trkpt lat="42.305977" lon="1.822383">
        <ele>1921</ele>
        <time>2020-07-12T06:27:20.054Z</time>
      </trkpt>
      <trkpt lat="42.305886" lon="1.822314">
        <ele>1921</ele>
        <time>2020-07-12T06:27:28.057Z</time>
      </trkpt>
      <trkpt lat="42.305836" lon="1.822198">
        <ele>1920</ele>
        <time>2020-07-12T06:27:40.057Z</time>
      </trkpt>
      <trkpt lat="42.305743" lon="1.822121">
        <ele>1918</ele>
        <time>2020-07-12T06:27:52.053Z</time>
      </trkpt>
      <trkpt lat="42.305654" lon="1.822022">
        <ele>1917</ele>
        <time>2020-07-12T06:28:04.057Z</time>
      </trkpt>
      <trkpt lat="42.305564" lon="1.821948">
        <ele>1919</ele>
        <time>2020-07-12T06:29:20.053Z</time>
      </trkpt>
      <trkpt lat="42.305494" lon="1.821801">
        <ele>1917</ele>
        <time>2020-07-12T06:29:32.057Z</time>
      </trkpt>
      <trkpt lat="42.305475" lon="1.821665">
        <ele>1917</ele>
        <time>2020-07-12T06:29:40.057Z</time>
      </trkpt>
      <trkpt lat="42.305456" lon="1.821548">
        <ele>1917</ele>
        <time>2020-07-12T06:29:48.060Z</time>
      </trkpt>
      <trkpt lat="42.305455" lon="1.821433">
        <ele>1918</ele>
        <time>2020-07-12T06:29:56.049Z</time>
      </trkpt>
      <trkpt lat="42.305377" lon="1.821301">
        <ele>1918</ele>
        <time>2020-07-12T06:30:08.057Z</time>
      </trkpt>
      <trkpt lat="42.305333" lon="1.821173">
        <ele>1917</ele>
        <time>2020-07-12T06:30:16.060Z</time>
      </trkpt>
      <trkpt lat="42.305277" lon="1.820993">
        <ele>1916</ele>
        <time>2020-07-12T06:30:24.063Z</time>
      </trkpt>
      <trkpt lat="42.305157" lon="1.820871">
        <ele>1915</ele>
        <time>2020-07-12T06:30:40.053Z</time>
      </trkpt>
      <trkpt lat="42.305046" lon="1.820728">
        <ele>1915</ele>
        <time>2020-07-12T06:30:50.057Z</time>
      </trkpt>
      <trkpt lat="42.30505" lon="1.820544">
        <ele>1917</ele>
        <time>2020-07-12T06:31:05.057Z</time>
      </trkpt>
      <trkpt lat="42.305012" lon="1.820384">
        <ele>1919</ele>
        <time>2020-07-12T06:31:17.057Z</time>
      </trkpt>
      <trkpt lat="42.304988" lon="1.820253">
        <ele>1920</ele>
        <time>2020-07-12T06:31:29.057Z</time>
      </trkpt>
      <trkpt lat="42.304923" lon="1.820087">
        <ele>1920</ele>
        <time>2020-07-12T06:31:41.057Z</time>
      </trkpt>
      <trkpt lat="42.304839" lon="1.819937">
        <ele>1922</ele>
        <time>2020-07-12T06:32:05.057Z</time>
      </trkpt>
      <trkpt lat="42.304817" lon="1.819813">
        <ele>1922</ele>
        <time>2020-07-12T06:32:13.057Z</time>
      </trkpt>
      <trkpt lat="42.304763" lon="1.819679">
        <ele>1922</ele>
        <time>2020-07-12T06:32:25.053Z</time>
      </trkpt>
      <trkpt lat="42.304684" lon="1.819538">
        <ele>1923</ele>
        <time>2020-07-12T06:32:33.060Z</time>
      </trkpt>
      <trkpt lat="42.304621" lon="1.819419">
        <ele>1924</ele>
        <time>2020-07-12T06:32:45.051Z</time>
      </trkpt>
      <trkpt lat="42.304518" lon="1.819349">
        <ele>1925</ele>
        <time>2020-07-12T06:32:53.051Z</time>
      </trkpt>
      <trkpt lat="42.304454" lon="1.819242">
        <ele>1924.2630016</ele>
        <time>2020-07-12T06:33:01.057Z</time>
      </trkpt>
      <trkpt lat="42.30434" lon="1.81916">
        <ele>1925</ele>
        <time>2020-07-12T06:33:13.057Z</time>
      </trkpt>
      <trkpt lat="42.304258" lon="1.819021">
        <ele>1926</ele>
        <time>2020-07-12T06:33:25.061Z</time>
      </trkpt>
      <trkpt lat="42.304175" lon="1.818916">
        <ele>1926</ele>
        <time>2020-07-12T06:33:33.057Z</time>
      </trkpt>
      <trkpt lat="42.304066" lon="1.818785">
        <ele>1926</ele>
        <time>2020-07-12T06:33:45.063Z</time>
      </trkpt>
      <trkpt lat="42.303955" lon="1.818698">
        <ele>1924.5319936</ele>
        <time>2020-07-12T06:34:01.054Z</time>
      </trkpt>
      <trkpt lat="42.303845" lon="1.818796">
        <ele>1923</ele>
        <time>2020-07-12T06:34:13.052Z</time>
      </trkpt>
      <trkpt lat="42.303786" lon="1.818967">
        <ele>1920</ele>
        <time>2020-07-12T06:34:25.058Z</time>
      </trkpt>
      <trkpt lat="42.303519" lon="1.819079">
        <ele>1918</ele>
        <time>2020-07-12T06:34:41.057Z</time>
      </trkpt>
      <trkpt lat="42.303419" lon="1.819035">
        <ele>1918</ele>
        <time>2020-07-12T06:34:57.064Z</time>
      </trkpt>
      <trkpt lat="42.303521" lon="1.81905">
        <ele>1918</ele>
        <time>2020-07-12T06:36:24.057Z</time>
      </trkpt>
      <trkpt lat="42.303425" lon="1.819127">
        <ele>1918</ele>
        <time>2020-07-12T06:36:40.057Z</time>
      </trkpt>
      <trkpt lat="42.303295" lon="1.819127">
        <ele>1917</ele>
        <time>2020-07-12T06:36:56.052Z</time>
      </trkpt>
      <trkpt lat="42.303192" lon="1.819152">
        <ele>1915</ele>
        <time>2020-07-12T06:37:04.064Z</time>
      </trkpt>
      <trkpt lat="42.303108" lon="1.819048">
        <ele>1919</ele>
        <time>2020-07-12T06:37:32.057Z</time>
      </trkpt>
      <trkpt lat="42.303014" lon="1.819092">
        <ele>1922</ele>
        <time>2020-07-12T06:37:56.054Z</time>
      </trkpt>
      <trkpt lat="42.302878" lon="1.819149">
        <ele>1927</ele>
        <time>2020-07-12T06:38:16.057Z</time>
      </trkpt>
      <trkpt lat="42.302785" lon="1.819245">
        <ele>1930</ele>
        <time>2020-07-12T06:38:32.059Z</time>
      </trkpt>
      <trkpt lat="42.302681" lon="1.819257">
        <ele>1935</ele>
        <time>2020-07-12T06:38:56.054Z</time>
      </trkpt>
      <trkpt lat="42.302681" lon="1.819395">
        <ele>1938</ele>
        <time>2020-07-12T06:39:16.049Z</time>
      </trkpt>
      <trkpt lat="42.302606" lon="1.819524">
        <ele>1942</ele>
        <time>2020-07-12T06:39:32.059Z</time>
      </trkpt>
      <trkpt lat="42.302645" lon="1.819652">
        <ele>1945</ele>
        <time>2020-07-12T06:39:48.052Z</time>
      </trkpt>
      <trkpt lat="42.302659" lon="1.819784">
        <ele>1947</ele>
        <time>2020-07-12T06:40:04.059Z</time>
      </trkpt>
      <trkpt lat="42.302648" lon="1.819918">
        <ele>1947</ele>
        <time>2020-07-12T06:40:16.056Z</time>
      </trkpt>
      <trkpt lat="42.302627" lon="1.820122">
        <ele>1949</ele>
        <time>2020-07-12T06:40:36.054Z</time>
      </trkpt>
      <trkpt lat="42.302628" lon="1.820296">
        <ele>1949</ele>
        <time>2020-07-12T06:40:48.064Z</time>
      </trkpt>
      <trkpt lat="42.302694" lon="1.820405">
        <ele>1950</ele>
        <time>2020-07-12T06:41:00.049Z</time>
      </trkpt>
      <trkpt lat="42.302745" lon="1.820542">
        <ele>1955.736</ele>
        <time>2020-07-12T06:41:16.056Z</time>
      </trkpt>
      <trkpt lat="42.302827" lon="1.820669">
        <ele>1956</ele>
        <time>2020-07-12T06:41:24.065Z</time>
      </trkpt>
      <trkpt lat="42.302848" lon="1.820827">
        <ele>1957</ele>
        <time>2020-07-12T06:41:36.054Z</time>
      </trkpt>
      <trkpt lat="42.302812" lon="1.820991">
        <ele>1960</ele>
        <time>2020-07-12T06:41:48.057Z</time>
      </trkpt>
      <trkpt lat="42.302731" lon="1.821087">
        <ele>1961</ele>
        <time>2020-07-12T06:42:00.050Z</time>
      </trkpt>
      <trkpt lat="42.302656" lon="1.821236">
        <ele>1963</ele>
        <time>2020-07-12T06:42:12.052Z</time>
      </trkpt>
      <trkpt lat="42.302577" lon="1.82139">
        <ele>1964</ele>
        <time>2020-07-12T06:42:24.061Z</time>
      </trkpt>
      <trkpt lat="42.30254" lon="1.821521">
        <ele>1967.46465142739</ele>
        <time>2020-07-12T06:42:36.055Z</time>
      </trkpt>
      <trkpt lat="42.302538" lon="1.821717">
        <ele>1969</ele>
        <time>2020-07-12T06:42:56.062Z</time>
      </trkpt>
      <trkpt lat="42.302591" lon="1.821839">
        <ele>1970</ele>
        <time>2020-07-12T06:43:04.056Z</time>
      </trkpt>
      <trkpt lat="42.302615" lon="1.822025">
        <ele>1971</ele>
        <time>2020-07-12T06:43:20.060Z</time>
      </trkpt>
      <trkpt lat="42.302637" lon="1.822159">
        <ele>1973</ele>
        <time>2020-07-12T06:43:48.060Z</time>
      </trkpt>
      <trkpt lat="42.302589" lon="1.822333">
        <ele>1976</ele>
        <time>2020-07-12T06:44:00.051Z</time>
      </trkpt>
      <trkpt lat="42.302546" lon="1.822493">
        <ele>1977</ele>
        <time>2020-07-12T06:44:20.055Z</time>
      </trkpt>
      <trkpt lat="42.302456" lon="1.822625">
        <ele>1980</ele>
        <time>2020-07-12T06:44:32.055Z</time>
      </trkpt>
      <trkpt lat="42.302387" lon="1.822784">
        <ele>1983</ele>
        <time>2020-07-12T06:44:44.062Z</time>
      </trkpt>
      <trkpt lat="42.302392" lon="1.822944">
        <ele>1988</ele>
        <time>2020-07-12T06:45:12.058Z</time>
      </trkpt>
      <trkpt lat="42.302334" lon="1.823129">
        <ele>1989</ele>
        <time>2020-07-12T06:45:24.050Z</time>
      </trkpt>
      <trkpt lat="42.302356" lon="1.823258">
        <ele>1992</ele>
        <time>2020-07-12T06:45:40.057Z</time>
      </trkpt>
      <trkpt lat="42.302387" lon="1.823431">
        <ele>1993</ele>
        <time>2020-07-12T06:45:52.048Z</time>
      </trkpt>
      <trkpt lat="42.302341" lon="1.823607">
        <ele>1993</ele>
        <time>2020-07-12T06:46:08.061Z</time>
      </trkpt>
      <trkpt lat="42.302261" lon="1.823744">
        <ele>1994</ele>
        <time>2020-07-12T06:46:20.054Z</time>
      </trkpt>
      <trkpt lat="42.302141" lon="1.82376">
        <ele>1995</ele>
        <time>2020-07-12T06:46:36.054Z</time>
      </trkpt>
      <trkpt lat="42.302039" lon="1.823867">
        <ele>1997</ele>
        <time>2020-07-12T06:46:48.058Z</time>
      </trkpt>
      <trkpt lat="42.30205" lon="1.823722">
        <ele>1998</ele>
        <time>2020-07-12T06:47:09.054Z</time>
      </trkpt>
      <trkpt lat="42.302047" lon="1.823544">
        <ele>2000</ele>
        <time>2020-07-12T06:47:25.050Z</time>
      </trkpt>
      <trkpt lat="42.30196" lon="1.82345">
        <ele>1998</ele>
        <time>2020-07-12T06:47:45.053Z</time>
      </trkpt>
      <trkpt lat="42.301791" lon="1.823481">
        <ele>1998</ele>
        <time>2020-07-12T06:47:57.057Z</time>
      </trkpt>
      <trkpt lat="42.301665" lon="1.82353">
        <ele>1997</ele>
        <time>2020-07-12T06:48:09.055Z</time>
      </trkpt>
      <trkpt lat="42.301556" lon="1.823597">
        <ele>1997</ele>
        <time>2020-07-12T06:48:21.057Z</time>
      </trkpt>
      <trkpt lat="42.301461" lon="1.823673">
        <ele>1997</ele>
        <time>2020-07-12T06:48:29.058Z</time>
      </trkpt>
      <trkpt lat="42.301371" lon="1.823727">
        <ele>1996</ele>
        <time>2020-07-12T06:48:41.061Z</time>
      </trkpt>
      <trkpt lat="42.301288" lon="1.823853">
        <ele>1996</ele>
        <time>2020-07-12T06:48:49.052Z</time>
      </trkpt>
      <trkpt lat="42.301184" lon="1.823934">
        <ele>1997</ele>
        <time>2020-07-12T06:48:57.056Z</time>
      </trkpt>
      <trkpt lat="42.301103" lon="1.82405">
        <ele>1999</ele>
        <time>2020-07-12T06:49:09.054Z</time>
      </trkpt>
      <trkpt lat="42.301048" lon="1.824196">
        <ele>1999</ele>
        <time>2020-07-12T06:49:17.058Z</time>
      </trkpt>
      <trkpt lat="42.300986" lon="1.824321">
        <ele>1997</ele>
        <time>2020-07-12T06:49:25.059Z</time>
      </trkpt>
      <trkpt lat="42.300773" lon="1.824387">
        <ele>1997</ele>
        <time>2020-07-12T06:49:37.062Z</time>
      </trkpt>
      <trkpt lat="42.300668" lon="1.824469">
        <ele>1999</ele>
        <time>2020-07-12T06:49:45.058Z</time>
      </trkpt>
      <trkpt lat="42.300581" lon="1.824621">
        <ele>1999</ele>
        <time>2020-07-12T06:49:57.060Z</time>
      </trkpt>
      <trkpt lat="42.300544" lon="1.82477">
        <ele>1997</ele>
        <time>2020-07-12T06:50:05.053Z</time>
      </trkpt>
      <trkpt lat="42.300514" lon="1.824946">
        <ele>1997</ele>
        <time>2020-07-12T06:50:17.060Z</time>
      </trkpt>
      <trkpt lat="42.300466" lon="1.825075">
        <ele>1995</ele>
        <time>2020-07-12T06:50:25.060Z</time>
      </trkpt>
      <trkpt lat="42.300411" lon="1.82523">
        <ele>1994.7350016</ele>
        <time>2020-07-12T06:50:33.055Z</time>
      </trkpt>
      <trkpt lat="42.300331" lon="1.825411">
        <ele>1995</ele>
        <time>2020-07-12T06:50:45.055Z</time>
      </trkpt>
      <trkpt lat="42.300296" lon="1.825579">
        <ele>1994</ele>
        <time>2020-07-12T06:50:53.056Z</time>
      </trkpt>
      <trkpt lat="42.300348" lon="1.825736">
        <ele>1993</ele>
        <time>2020-07-12T06:51:05.055Z</time>
      </trkpt>
      <trkpt lat="42.300466" lon="1.825777">
        <ele>1994</ele>
        <time>2020-07-12T06:51:29.055Z</time>
      </trkpt>
      <trkpt lat="42.300452" lon="1.825974">
        <ele>1993</ele>
        <time>2020-07-12T06:51:37.060Z</time>
      </trkpt>
      <trkpt lat="42.300459" lon="1.826121">
        <ele>1993</ele>
        <time>2020-07-12T06:51:45.053Z</time>
      </trkpt>
      <trkpt lat="42.300496" lon="1.826313">
        <ele>1993</ele>
        <time>2020-07-12T06:51:57.053Z</time>
      </trkpt>
      <trkpt lat="42.300532" lon="1.826477">
        <ele>1989</ele>
        <time>2020-07-12T06:52:13.051Z</time>
      </trkpt>
      <trkpt lat="42.300577" lon="1.826655">
        <ele>1989</ele>
        <time>2020-07-12T06:52:28.057Z</time>
      </trkpt>
      <trkpt lat="42.300508" lon="1.826757">
        <ele>1990</ele>
        <time>2020-07-12T06:52:40.059Z</time>
      </trkpt>
      <trkpt lat="42.300588" lon="1.826664">
        <ele>1990</ele>
        <time>2020-07-12T06:53:25.058Z</time>
      </trkpt>
      <trkpt lat="42.30058" lon="1.826809">
        <ele>1990</ele>
        <time>2020-07-12T06:55:52.188Z</time>
      </trkpt>
      <trkpt lat="42.300566" lon="1.826954">
        <ele>1990</ele>
        <time>2020-07-12T06:56:04.057Z</time>
      </trkpt>
      <trkpt lat="42.300599" lon="1.827105">
        <ele>1990</ele>
        <time>2020-07-12T06:56:16.058Z</time>
      </trkpt>
      <trkpt lat="42.300643" lon="1.827253">
        <ele>1989</ele>
        <time>2020-07-12T06:56:24.157Z</time>
      </trkpt>
      <trkpt lat="42.300672" lon="1.827393">
        <ele>1990</ele>
        <time>2020-07-12T06:56:32.057Z</time>
      </trkpt>
      <trkpt lat="42.300712" lon="1.827508">
        <ele>1990</ele>
        <time>2020-07-12T06:56:40.057Z</time>
      </trkpt>
      <trkpt lat="42.300732" lon="1.827642">
        <ele>1991</ele>
        <time>2020-07-12T06:56:52.057Z</time>
      </trkpt>
      <trkpt lat="42.300698" lon="1.827758">
        <ele>1993</ele>
        <time>2020-07-12T06:57:04.057Z</time>
      </trkpt>
      <trkpt lat="42.300633" lon="1.827812">
        <ele>1994</ele>
        <time>2020-07-12T06:57:16.057Z</time>
      </trkpt>
      <trkpt lat="42.300552" lon="1.827948">
        <ele>1999.7369984</ele>
        <time>2020-07-12T06:57:36.057Z</time>
      </trkpt>
      <trkpt lat="42.300505" lon="1.828042">
        <ele>2002</ele>
        <time>2020-07-12T06:57:48.058Z</time>
      </trkpt>
      <trkpt lat="42.300566" lon="1.828121">
        <ele>2002</ele>
        <time>2020-07-12T06:58:08.057Z</time>
      </trkpt>
      <trkpt lat="42.300595" lon="1.82826">
        <ele>2003</ele>
        <time>2020-07-12T06:59:04.057Z</time>
      </trkpt>
      <trkpt lat="42.300653" lon="1.828376">
        <ele>2000</ele>
        <time>2020-07-12T06:59:28.057Z</time>
      </trkpt>
      <trkpt lat="42.300719" lon="1.828482">
        <ele>2000</ele>
        <time>2020-07-12T06:59:36.057Z</time>
      </trkpt>
      <trkpt lat="42.300739" lon="1.828638">
        <ele>1999</ele>
        <time>2020-07-12T06:59:48.158Z</time>
      </trkpt>
      <trkpt lat="42.300831" lon="1.828761">
        <ele>1996</ele>
        <time>2020-07-12T07:00:00.057Z</time>
      </trkpt>
      <trkpt lat="42.300867" lon="1.828844">
        <ele>1994</ele>
        <time>2020-07-12T07:00:08.057Z</time>
      </trkpt>
      <trkpt lat="42.300912" lon="1.828946">
        <ele>1993</ele>
        <time>2020-07-12T07:00:16.066Z</time>
      </trkpt>
      <trkpt lat="42.300965" lon="1.829118">
        <ele>1992</ele>
        <time>2020-07-12T07:00:28.057Z</time>
      </trkpt>
      <trkpt lat="42.301002" lon="1.829253">
        <ele>1994</ele>
        <time>2020-07-12T07:00:40.057Z</time>
      </trkpt>
      <trkpt lat="42.301061" lon="1.829337">
        <ele>1994</ele>
        <time>2020-07-12T07:00:48.158Z</time>
      </trkpt>
      <trkpt lat="42.301198" lon="1.829445">
        <ele>1995</ele>
        <time>2020-07-12T07:01:00.057Z</time>
      </trkpt>
      <trkpt lat="42.301298" lon="1.829498">
        <ele>1998</ele>
        <time>2020-07-12T07:01:12.057Z</time>
      </trkpt>
      <trkpt lat="42.301397" lon="1.82963">
        <ele>1999</ele>
        <time>2020-07-12T07:01:29.057Z</time>
      </trkpt>
      <trkpt lat="42.301514" lon="1.829652">
        <ele>2000.7369984</ele>
        <time>2020-07-12T07:01:41.057Z</time>
      </trkpt>
      <trkpt lat="42.301614" lon="1.829764">
        <ele>2003</ele>
        <time>2020-07-12T07:01:58.057Z</time>
      </trkpt>
      <trkpt lat="42.301708" lon="1.829973">
        <ele>2009</ele>
        <time>2020-07-12T07:02:28.057Z</time>
      </trkpt>
      <trkpt lat="42.301924" lon="1.830187">
        <ele>2013</ele>
        <time>2020-07-12T07:02:59.057Z</time>
      </trkpt>
      <trkpt lat="42.302025" lon="1.830255">
        <ele>2016</ele>
        <time>2020-07-12T07:03:11.057Z</time>
      </trkpt>
      <trkpt lat="42.302075" lon="1.830386">
        <ele>2017.2879872</ele>
        <time>2020-07-12T07:03:30.964Z</time>
      </trkpt>
      <trkpt lat="42.30216" lon="1.830507">
        <ele>2020</ele>
        <time>2020-07-12T07:03:49.057Z</time>
      </trkpt>
      <trkpt lat="42.302221" lon="1.83063">
        <ele>2025</ele>
        <time>2020-07-12T07:04:11.057Z</time>
      </trkpt>
      <trkpt lat="42.302301" lon="1.830726">
        <ele>2027</ele>
        <time>2020-07-12T07:04:23.057Z</time>
      </trkpt>
      <trkpt lat="42.302235" lon="1.830852">
        <ele>2029</ele>
        <time>2020-07-12T07:04:35.058Z</time>
      </trkpt>
      <trkpt lat="42.302373" lon="1.830982">
        <ele>2030</ele>
        <time>2020-07-12T07:04:45.057Z</time>
      </trkpt>
      <trkpt lat="42.302404" lon="1.83111">
        <ele>2032</ele>
        <time>2020-07-12T07:05:18.962Z</time>
      </trkpt>
      <trkpt lat="42.302384" lon="1.831282">
        <ele>2033</ele>
        <time>2020-07-12T07:05:38.057Z</time>
      </trkpt>
      <trkpt lat="42.30246" lon="1.831417">
        <ele>2033</ele>
        <time>2020-07-12T07:05:46.057Z</time>
      </trkpt>
      <trkpt lat="42.302512" lon="1.831626">
        <ele>2033</ele>
        <time>2020-07-12T07:05:59.057Z</time>
      </trkpt>
      <trkpt lat="42.302526" lon="1.831759">
        <ele>2035.7369984</ele>
        <time>2020-07-12T07:06:11.057Z</time>
      </trkpt>
      <trkpt lat="42.302532" lon="1.831917">
        <ele>2038</ele>
        <time>2020-07-12T07:06:23.057Z</time>
      </trkpt>
      <trkpt lat="42.302533" lon="1.832057">
        <ele>2038</ele>
        <time>2020-07-12T07:06:35.057Z</time>
      </trkpt>
      <trkpt lat="42.302485" lon="1.832222">
        <ele>2041</ele>
        <time>2020-07-12T07:06:52.057Z</time>
      </trkpt>
      <trkpt lat="42.302548" lon="1.832327">
        <ele>2042</ele>
        <time>2020-07-12T07:07:04.057Z</time>
      </trkpt>
      <trkpt lat="42.302465" lon="1.832463">
        <ele>2048</ele>
        <time>2020-07-12T07:07:35.057Z</time>
      </trkpt>
      <trkpt lat="42.302452" lon="1.832617">
        <ele>2051</ele>
        <time>2020-07-12T07:07:47.052Z</time>
      </trkpt>
      <trkpt lat="42.302467" lon="1.832759">
        <ele>2051</ele>
        <time>2020-07-12T07:07:55.059Z</time>
      </trkpt>
      <trkpt lat="42.302542" lon="1.832856">
        <ele>2051</ele>
        <time>2020-07-12T07:08:02.953Z</time>
      </trkpt>
      <trkpt lat="42.302642" lon="1.833003">
        <ele>2052.6859904</ele>
        <time>2020-07-12T07:08:11.163Z</time>
      </trkpt>
      <trkpt lat="42.302719" lon="1.833109">
        <ele>2053</ele>
        <time>2020-07-12T07:08:18.952Z</time>
      </trkpt>
      <trkpt lat="42.30278" lon="1.833263">
        <ele>2053</ele>
        <time>2020-07-12T07:08:26.955Z</time>
      </trkpt>
      <trkpt lat="42.30281" lon="1.833432">
        <ele>2053</ele>
        <time>2020-07-12T07:08:38.956Z</time>
      </trkpt>
      <trkpt lat="42.302865" lon="1.833472">
        <ele>2055</ele>
        <time>2020-07-12T07:09:30.057Z</time>
      </trkpt>
      <trkpt lat="42.302957" lon="1.83351">
        <ele>2056</ele>
        <time>2020-07-12T07:09:42.057Z</time>
      </trkpt>
      <trkpt lat="42.303015" lon="1.833624">
        <ele>2058</ele>
        <time>2020-07-12T07:10:02.057Z</time>
      </trkpt>
      <trkpt lat="42.30312" lon="1.833707">
        <ele>2062</ele>
        <time>2020-07-12T07:10:22.057Z</time>
      </trkpt>
      <trkpt lat="42.303214" lon="1.833734">
        <ele>2065</ele>
        <time>2020-07-12T07:10:42.057Z</time>
      </trkpt>
      <trkpt lat="42.303305" lon="1.833812">
        <ele>2069</ele>
        <time>2020-07-12T07:10:58.057Z</time>
      </trkpt>
      <trkpt lat="42.303398" lon="1.833916">
        <ele>2068</ele>
        <time>2020-07-12T07:11:14.057Z</time>
      </trkpt>
      <trkpt lat="42.303505" lon="1.833956">
        <ele>2067</ele>
        <time>2020-07-12T07:11:26.057Z</time>
      </trkpt>
      <trkpt lat="42.303583" lon="1.834069">
        <ele>2068</ele>
        <time>2020-07-12T07:11:38.057Z</time>
      </trkpt>
      <trkpt lat="42.303668" lon="1.834196">
        <ele>2072</ele>
        <time>2020-07-12T07:12:02.057Z</time>
      </trkpt>
      <trkpt lat="42.303772" lon="1.834269">
        <ele>2072</ele>
        <time>2020-07-12T07:12:14.057Z</time>
      </trkpt>
      <trkpt lat="42.303885" lon="1.834261">
        <ele>2073</ele>
        <time>2020-07-12T07:12:26.057Z</time>
      </trkpt>
      <trkpt lat="42.304014" lon="1.834273">
        <ele>2074</ele>
        <time>2020-07-12T07:12:38.057Z</time>
      </trkpt>
      <trkpt lat="42.304101" lon="1.834341">
        <ele>2074</ele>
        <time>2020-07-12T07:12:50.057Z</time>
      </trkpt>
      <trkpt lat="42.304197" lon="1.834406">
        <ele>2074</ele>
        <time>2020-07-12T07:13:02.057Z</time>
      </trkpt>
      <trkpt lat="42.304273" lon="1.834519">
        <ele>2074</ele>
        <time>2020-07-12T07:13:14.057Z</time>
      </trkpt>
      <trkpt lat="42.304369" lon="1.834614">
        <ele>2074</ele>
        <time>2020-07-12T07:13:26.057Z</time>
      </trkpt>
      <trkpt lat="42.304419" lon="1.834762">
        <ele>2074</ele>
        <time>2020-07-12T07:13:38.057Z</time>
      </trkpt>
      <trkpt lat="42.304529" lon="1.83486">
        <ele>2074</ele>
        <time>2020-07-12T07:13:46.057Z</time>
      </trkpt>
      <trkpt lat="42.304564" lon="1.834993">
        <ele>2073</ele>
        <time>2020-07-12T07:13:54.057Z</time>
      </trkpt>
      <trkpt lat="42.304595" lon="1.835124">
        <ele>2073</ele>
        <time>2020-07-12T07:14:02.057Z</time>
      </trkpt>
      <trkpt lat="42.304642" lon="1.835274">
        <ele>2073</ele>
        <time>2020-07-12T07:14:10.057Z</time>
      </trkpt>
      <trkpt lat="42.304702" lon="1.835412">
        <ele>2073</ele>
        <time>2020-07-12T07:14:18.057Z</time>
      </trkpt>
      <trkpt lat="42.304776" lon="1.835513">
        <ele>2074</ele>
        <time>2020-07-12T07:14:30.057Z</time>
      </trkpt>
      <trkpt lat="42.304868" lon="1.835631">
        <ele>2076</ele>
        <time>2020-07-12T07:14:46.057Z</time>
      </trkpt>
      <trkpt lat="42.304877" lon="1.835776">
        <ele>2079</ele>
        <time>2020-07-12T07:15:02.057Z</time>
      </trkpt>
      <trkpt lat="42.304936" lon="1.835902">
        <ele>2082</ele>
        <time>2020-07-12T07:15:14.057Z</time>
      </trkpt>
      <trkpt lat="42.304988" lon="1.836028">
        <ele>2083</ele>
        <time>2020-07-12T07:15:30.057Z</time>
      </trkpt>
      <trkpt lat="42.305083" lon="1.83608">
        <ele>2091</ele>
        <time>2020-07-12T07:16:02.057Z</time>
      </trkpt>
      <trkpt lat="42.305135" lon="1.836215">
        <ele>2093.7369984</ele>
        <time>2020-07-12T07:16:26.057Z</time>
      </trkpt>
      <trkpt lat="42.305211" lon="1.836337">
        <ele>2100</ele>
        <time>2020-07-12T07:16:58.057Z</time>
      </trkpt>
      <trkpt lat="42.305316" lon="1.83637">
        <ele>2104.4739968</ele>
        <time>2020-07-12T07:17:26.057Z</time>
      </trkpt>
      <trkpt lat="42.305397" lon="1.836449">
        <ele>2107</ele>
        <time>2020-07-12T07:17:50.057Z</time>
      </trkpt>
      <trkpt lat="42.305447" lon="1.836595">
        <ele>2112</ele>
        <time>2020-07-12T07:18:22.057Z</time>
      </trkpt>
      <trkpt lat="42.305469" lon="1.836786">
        <ele>2115</ele>
        <time>2020-07-12T07:18:42.057Z</time>
      </trkpt>
      <trkpt lat="42.305468" lon="1.836958">
        <ele>2116</ele>
        <time>2020-07-12T07:18:54.057Z</time>
      </trkpt>
      <trkpt lat="42.305435" lon="1.837118">
        <ele>2117</ele>
        <time>2020-07-12T07:19:06.057Z</time>
      </trkpt>
      <trkpt lat="42.305419" lon="1.837259">
        <ele>2118</ele>
        <time>2020-07-12T07:19:22.057Z</time>
      </trkpt>
      <trkpt lat="42.305433" lon="1.837429">
        <ele>2119</ele>
        <time>2020-07-12T07:19:34.057Z</time>
      </trkpt>
      <trkpt lat="42.305465" lon="1.83762">
        <ele>2121</ele>
        <time>2020-07-12T07:19:46.057Z</time>
      </trkpt>
      <trkpt lat="42.305493" lon="1.837783">
        <ele>2123</ele>
        <time>2020-07-12T07:20:02.057Z</time>
      </trkpt>
      <trkpt lat="42.305492" lon="1.837926">
        <ele>2124</ele>
        <time>2020-07-12T07:20:14.057Z</time>
      </trkpt>
      <trkpt lat="42.305467" lon="1.838056">
        <ele>2129</ele>
        <time>2020-07-12T07:20:38.057Z</time>
      </trkpt>
      <trkpt lat="42.305518" lon="1.838177">
        <ele>2137</ele>
        <time>2020-07-12T07:21:22.057Z</time>
      </trkpt>
      <trkpt lat="42.305522" lon="1.838337">
        <ele>2142</ele>
        <time>2020-07-12T07:21:54.057Z</time>
      </trkpt>
      <trkpt lat="42.305542" lon="1.83848">
        <ele>2143</ele>
        <time>2020-07-12T07:22:10.057Z</time>
      </trkpt>
      <trkpt lat="42.305468" lon="1.838585">
        <ele>2147.7369984</ele>
        <time>2020-07-12T07:22:26.057Z</time>
      </trkpt>
      <trkpt lat="42.305473" lon="1.838722">
        <ele>2148</ele>
        <time>2020-07-12T07:22:38.057Z</time>
      </trkpt>
      <trkpt lat="42.305486" lon="1.838859">
        <ele>2150</ele>
        <time>2020-07-12T07:22:50.057Z</time>
      </trkpt>
      <trkpt lat="42.305471" lon="1.838996">
        <ele>2152.7369984</ele>
        <time>2020-07-12T07:23:06.057Z</time>
      </trkpt>
      <trkpt lat="42.305547" lon="1.839089">
        <ele>2154</ele>
        <time>2020-07-12T07:23:26.057Z</time>
      </trkpt>
      <trkpt lat="42.305607" lon="1.839198">
        <ele>2154</ele>
        <time>2020-07-12T07:23:38.057Z</time>
      </trkpt>
      <trkpt lat="42.305676" lon="1.83932">
        <ele>2152</ele>
        <time>2020-07-12T07:23:54.057Z</time>
      </trkpt>
      <trkpt lat="42.30572" lon="1.839448">
        <ele>2152</ele>
        <time>2020-07-12T07:24:14.057Z</time>
      </trkpt>
      <trkpt lat="42.30579" lon="1.839552">
        <ele>2158</ele>
        <time>2020-07-12T07:24:42.057Z</time>
      </trkpt>
      <trkpt lat="42.305767" lon="1.839691">
        <ele>2163</ele>
        <time>2020-07-12T07:25:10.057Z</time>
      </trkpt>
      <trkpt lat="42.305693" lon="1.839807">
        <ele>2172</ele>
        <time>2020-07-12T07:25:50.057Z</time>
      </trkpt>
      <trkpt lat="42.305582" lon="1.839762">
        <ele>2177</ele>
        <time>2020-07-12T07:26:18.057Z</time>
      </trkpt>
      <trkpt lat="42.305496" lon="1.839749">
        <ele>2179</ele>
        <time>2020-07-12T07:26:30.057Z</time>
      </trkpt>
      <trkpt lat="42.305492" lon="1.839901">
        <ele>2184</ele>
        <time>2020-07-12T07:26:54.057Z</time>
      </trkpt>
      <trkpt lat="42.305482" lon="1.839998">
        <ele>2185</ele>
        <time>2020-07-12T07:27:06.057Z</time>
      </trkpt>
      <trkpt lat="42.305468" lon="1.840101">
        <ele>2190</ele>
        <time>2020-07-12T07:27:22.057Z</time>
      </trkpt>
      <trkpt lat="42.305496" lon="1.84025">
        <ele>2194.7369984</ele>
        <time>2020-07-12T07:27:46.057Z</time>
      </trkpt>
      <trkpt lat="42.305556" lon="1.840389">
        <ele>2196</ele>
        <time>2020-07-12T07:28:10.057Z</time>
      </trkpt>
      <trkpt lat="42.305622" lon="1.840492">
        <ele>2200</ele>
        <time>2020-07-12T07:28:34.057Z</time>
      </trkpt>
      <trkpt lat="42.305701" lon="1.840596">
        <ele>2203</ele>
        <time>2020-07-12T07:28:50.057Z</time>
      </trkpt>
      <trkpt lat="42.305734" lon="1.840749">
        <ele>2206</ele>
        <time>2020-07-12T07:29:10.057Z</time>
      </trkpt>
      <trkpt lat="42.305807" lon="1.840874">
        <ele>2208.7369984</ele>
        <time>2020-07-12T07:29:26.057Z</time>
      </trkpt>
      <trkpt lat="42.305862" lon="1.840956">
        <ele>2212</ele>
        <time>2020-07-12T07:30:02.057Z</time>
      </trkpt>
      <trkpt lat="42.30589" lon="1.841061">
        <ele>2219</ele>
        <time>2020-07-12T07:30:34.057Z</time>
      </trkpt>
      <trkpt lat="42.305956" lon="1.841147">
        <ele>2219</ele>
        <time>2020-07-12T07:30:50.057Z</time>
      </trkpt>
      <trkpt lat="42.306" lon="1.841309">
        <ele>2218</ele>
        <time>2020-07-12T07:31:06.057Z</time>
      </trkpt>
      <trkpt lat="42.306059" lon="1.841427">
        <ele>2221</ele>
        <time>2020-07-12T07:31:18.057Z</time>
      </trkpt>
      <trkpt lat="42.306173" lon="1.841514">
        <ele>2225</ele>
        <time>2020-07-12T07:31:35.057Z</time>
      </trkpt>
      <trkpt lat="42.306189" lon="1.841651">
        <ele>2229</ele>
        <time>2020-07-12T07:32:05.057Z</time>
      </trkpt>
      <trkpt lat="42.30631" lon="1.841681">
        <ele>2234</ele>
        <time>2020-07-12T07:32:28.057Z</time>
      </trkpt>
      <trkpt lat="42.306388" lon="1.841792">
        <ele>2239.4739968</ele>
        <time>2020-07-12T07:32:51.057Z</time>
      </trkpt>
      <trkpt lat="42.306493" lon="1.841846">
        <ele>2241</ele>
        <time>2020-07-12T07:33:07.057Z</time>
      </trkpt>
      <trkpt lat="42.306606" lon="1.841869">
        <ele>2244</ele>
        <time>2020-07-12T07:33:27.057Z</time>
      </trkpt>
      <trkpt lat="42.306666" lon="1.841997">
        <ele>2252</ele>
        <time>2020-07-12T07:34:05.057Z</time>
      </trkpt>
      <trkpt lat="42.306637" lon="1.842175">
        <ele>2257</ele>
        <time>2020-07-12T07:34:32.953Z</time>
      </trkpt>
      <trkpt lat="42.306594" lon="1.842319">
        <ele>2260.3639936</ele>
        <time>2020-07-12T07:35:00.956Z</time>
      </trkpt>
      <trkpt lat="42.306501" lon="1.842379">
        <ele>2265</ele>
        <time>2020-07-12T07:35:17.165Z</time>
      </trkpt>
      <trkpt lat="42.306375" lon="1.842375">
        <ele>2269</ele>
        <time>2020-07-12T07:35:48.954Z</time>
      </trkpt>
      <trkpt lat="42.3063" lon="1.842475">
        <ele>2269</ele>
        <time>2020-07-12T07:36:44.962Z</time>
      </trkpt>
      <trkpt lat="42.306371" lon="1.84244">
        <ele>2271</ele>
        <time>2020-07-12T07:44:57.156Z</time>
      </trkpt>
      <trkpt lat="42.306452" lon="1.842342">
        <ele>2273</ele>
        <time>2020-07-12T07:50:35.057Z</time>
      </trkpt>
      <trkpt lat="42.306572" lon="1.842314">
        <ele>2270.5260032</ele>
        <time>2020-07-12T07:50:51.057Z</time>
      </trkpt>
      <trkpt lat="42.306646" lon="1.842263">
        <ele>2267.5260032</ele>
        <time>2020-07-12T07:51:11.057Z</time>
      </trkpt>
      <trkpt lat="42.306767" lon="1.842322">
        <ele>2262</ele>
        <time>2020-07-12T07:51:38.057Z</time>
      </trkpt>
      <trkpt lat="42.30688" lon="1.842342">
        <ele>2254</ele>
        <time>2020-07-12T07:52:02.057Z</time>
      </trkpt>
      <trkpt lat="42.306989" lon="1.84235">
        <ele>2252</ele>
        <time>2020-07-12T07:52:14.057Z</time>
      </trkpt>
      <trkpt lat="42.307108" lon="1.842332">
        <ele>2248</ele>
        <time>2020-07-12T07:52:30.057Z</time>
      </trkpt>
      <trkpt lat="42.307186" lon="1.842342">
        <ele>2244</ele>
        <time>2020-07-12T07:52:38.057Z</time>
      </trkpt>
      <trkpt lat="42.307324" lon="1.842416">
        <ele>2243</ele>
        <time>2020-07-12T07:52:50.052Z</time>
      </trkpt>
      <trkpt lat="42.307338" lon="1.842597">
        <ele>2236</ele>
        <time>2020-07-12T07:53:02.056Z</time>
      </trkpt>
      <trkpt lat="42.307338" lon="1.842758">
        <ele>2230</ele>
        <time>2020-07-12T07:53:24.158Z</time>
      </trkpt>
      <trkpt lat="42.307324" lon="1.842891">
        <ele>2221</ele>
        <time>2020-07-12T07:54:07.062Z</time>
      </trkpt>
      <trkpt lat="42.307313" lon="1.843045">
        <ele>2216.5319936</ele>
        <time>2020-07-12T07:54:21.054Z</time>
      </trkpt>
      <trkpt lat="42.307295" lon="1.843227">
        <ele>2212</ele>
        <time>2020-07-12T07:54:38.057Z</time>
      </trkpt>
      <trkpt lat="42.307332" lon="1.84336">
        <ele>2208</ele>
        <time>2020-07-12T07:54:50.057Z</time>
      </trkpt>
      <trkpt lat="42.307418" lon="1.843457">
        <ele>2206</ele>
        <time>2020-07-12T07:55:00.057Z</time>
      </trkpt>
      <trkpt lat="42.307506" lon="1.843523">
        <ele>2203</ele>
        <time>2020-07-12T07:55:12.057Z</time>
      </trkpt>
      <trkpt lat="42.307624" lon="1.843614">
        <ele>2203</ele>
        <time>2020-07-12T07:55:29.057Z</time>
      </trkpt>
      <trkpt lat="42.307703" lon="1.843728">
        <ele>2191</ele>
        <time>2020-07-12T07:56:09.057Z</time>
      </trkpt>
      <trkpt lat="42.307757" lon="1.84388">
        <ele>2189</ele>
        <time>2020-07-12T07:56:23.062Z</time>
      </trkpt>
      <trkpt lat="42.307648" lon="1.843989">
        <ele>2187.5319936</ele>
        <time>2020-07-12T07:56:31.054Z</time>
      </trkpt>
      <trkpt lat="42.307723" lon="1.844088">
        <ele>2181</ele>
        <time>2020-07-12T07:56:48.057Z</time>
      </trkpt>
      <trkpt lat="42.307807" lon="1.844193">
        <ele>2176</ele>
        <time>2020-07-12T07:57:08.057Z</time>
      </trkpt>
      <trkpt lat="42.30786" lon="1.844307">
        <ele>2170</ele>
        <time>2020-07-12T07:57:32.057Z</time>
      </trkpt>
      <trkpt lat="42.307916" lon="1.84445">
        <ele>2168</ele>
        <time>2020-07-12T07:57:44.057Z</time>
      </trkpt>
      <trkpt lat="42.307948" lon="1.844577">
        <ele>2168</ele>
        <time>2020-07-12T07:57:57.057Z</time>
      </trkpt>
      <trkpt lat="42.308028" lon="1.844724">
        <ele>2165</ele>
        <time>2020-07-12T07:58:11.057Z</time>
      </trkpt>
      <trkpt lat="42.308055" lon="1.844901">
        <ele>2164</ele>
        <time>2020-07-12T07:58:29.057Z</time>
      </trkpt>
      <trkpt lat="42.308131" lon="1.845022">
        <ele>2160.7369984</ele>
        <time>2020-07-12T07:58:41.057Z</time>
      </trkpt>
      <trkpt lat="42.308202" lon="1.845194">
        <ele>2155.5260032</ele>
        <time>2020-07-12T07:59:01.057Z</time>
      </trkpt>
      <trkpt lat="42.308299" lon="1.845293">
        <ele>2154.2630016</ele>
        <time>2020-07-12T07:59:11.057Z</time>
      </trkpt>
      <trkpt lat="42.308352" lon="1.845427">
        <ele>2154</ele>
        <time>2020-07-12T07:59:24.057Z</time>
      </trkpt>
      <trkpt lat="42.308421" lon="1.845547">
        <ele>2154</ele>
        <time>2020-07-12T07:59:36.057Z</time>
      </trkpt>
      <trkpt lat="42.308506" lon="1.845684">
        <ele>2153</ele>
        <time>2020-07-12T07:59:48.057Z</time>
      </trkpt>
      <trkpt lat="42.308617" lon="1.845745">
        <ele>2148.7369984</ele>
        <time>2020-07-12T08:00:06.057Z</time>
      </trkpt>
      <trkpt lat="42.308721" lon="1.845835">
        <ele>2149</ele>
        <time>2020-07-12T08:00:14.057Z</time>
      </trkpt>
      <trkpt lat="42.308815" lon="1.845903">
        <ele>2148</ele>
        <time>2020-07-12T08:00:22.159Z</time>
      </trkpt>
      <trkpt lat="42.308894" lon="1.84599">
        <ele>2148</ele>
        <time>2020-07-12T08:00:30.159Z</time>
      </trkpt>
      <trkpt lat="42.30901" lon="1.846143">
        <ele>2146</ele>
        <time>2020-07-12T08:00:45.057Z</time>
      </trkpt>
      <trkpt lat="42.309069" lon="1.846251">
        <ele>2145</ele>
        <time>2020-07-12T08:00:54.057Z</time>
      </trkpt>
      <trkpt lat="42.309149" lon="1.846384">
        <ele>2145</ele>
        <time>2020-07-12T08:01:08.057Z</time>
      </trkpt>
      <trkpt lat="42.309222" lon="1.846538">
        <ele>2145</ele>
        <time>2020-07-12T08:01:20.057Z</time>
      </trkpt>
      <trkpt lat="42.309274" lon="1.846704">
        <ele>2144</ele>
        <time>2020-07-12T08:01:34.057Z</time>
      </trkpt>
      <trkpt lat="42.309235" lon="1.846834">
        <ele>2143</ele>
        <time>2020-07-12T08:01:42.057Z</time>
      </trkpt>
      <trkpt lat="42.309225" lon="1.847006">
        <ele>2140</ele>
        <time>2020-07-12T08:01:52.058Z</time>
      </trkpt>
      <trkpt lat="42.30929" lon="1.847174">
        <ele>2136</ele>
        <time>2020-07-12T08:02:06.057Z</time>
      </trkpt>
      <trkpt lat="42.309342" lon="1.847333">
        <ele>2136</ele>
        <time>2020-07-12T08:02:17.060Z</time>
      </trkpt>
      <trkpt lat="42.309364" lon="1.847466">
        <ele>2133</ele>
        <time>2020-07-12T08:02:25.057Z</time>
      </trkpt>
      <trkpt lat="42.309396" lon="1.847615">
        <ele>2128</ele>
        <time>2020-07-12T08:02:37.057Z</time>
      </trkpt>
      <trkpt lat="42.309429" lon="1.847754">
        <ele>2125</ele>
        <time>2020-07-12T08:02:49.059Z</time>
      </trkpt>
      <trkpt lat="42.309448" lon="1.847936">
        <ele>2121.7890048</ele>
        <time>2020-07-12T08:03:01.057Z</time>
      </trkpt>
      <trkpt lat="42.309468" lon="1.848082">
        <ele>2121</ele>
        <time>2020-07-12T08:03:10.057Z</time>
      </trkpt>
      <trkpt lat="42.309502" lon="1.848226">
        <ele>2120</ele>
        <time>2020-07-12T08:03:20.055Z</time>
      </trkpt>
      <trkpt lat="42.309588" lon="1.848379">
        <ele>2118</ele>
        <time>2020-07-12T08:03:51.054Z</time>
      </trkpt>
      <trkpt lat="42.309675" lon="1.848487">
        <ele>2117</ele>
        <time>2020-07-12T08:04:35.057Z</time>
      </trkpt>
      <trkpt lat="42.309751" lon="1.848605">
        <ele>2116</ele>
        <time>2020-07-12T08:04:49.057Z</time>
      </trkpt>
      <trkpt lat="42.309841" lon="1.848689">
        <ele>2115</ele>
        <time>2020-07-12T08:04:57.150Z</time>
      </trkpt>
      <trkpt lat="42.3099" lon="1.848871">
        <ele>2116</ele>
        <time>2020-07-12T08:05:08.054Z</time>
      </trkpt>
      <trkpt lat="42.310011" lon="1.848951">
        <ele>2114</ele>
        <time>2020-07-12T08:05:24.057Z</time>
      </trkpt>
      <trkpt lat="42.310018" lon="1.849129">
        <ele>2116</ele>
        <time>2020-07-12T08:05:43.057Z</time>
      </trkpt>
      <trkpt lat="42.310077" lon="1.849253">
        <ele>2118</ele>
        <time>2020-07-12T08:05:59.057Z</time>
      </trkpt>
      <trkpt lat="42.310115" lon="1.849387">
        <ele>2121</ele>
        <time>2020-07-12T08:06:15.162Z</time>
      </trkpt>
      <trkpt lat="42.310181" lon="1.849572">
        <ele>2124.8460032</ele>
        <time>2020-07-12T08:06:31.166Z</time>
      </trkpt>
      <trkpt lat="42.310217" lon="1.849717">
        <ele>2129</ele>
        <time>2020-07-12T08:06:55.057Z</time>
      </trkpt>
      <trkpt lat="42.310333" lon="1.849815">
        <ele>2132.4739968</ele>
        <time>2020-07-12T08:07:11.057Z</time>
      </trkpt>
      <trkpt lat="42.310374" lon="1.849981">
        <ele>2135</ele>
        <time>2020-07-12T08:07:29.057Z</time>
      </trkpt>
      <trkpt lat="42.3104" lon="1.85012">
        <ele>2139.20605347538</ele>
        <time>2020-07-12T08:07:51.058Z</time>
      </trkpt>
      <trkpt lat="42.310483" lon="1.850213">
        <ele>2140</ele>
        <time>2020-07-12T08:08:08.057Z</time>
      </trkpt>
      <trkpt lat="42.310475" lon="1.850351">
        <ele>2143.7369984</ele>
        <time>2020-07-12T08:08:21.057Z</time>
      </trkpt>
      <trkpt lat="42.310569" lon="1.850424">
        <ele>2145</ele>
        <time>2020-07-12T08:08:37.061Z</time>
      </trkpt>
      <trkpt lat="42.31068" lon="1.850538">
        <ele>2149</ele>
        <time>2020-07-12T08:08:59.061Z</time>
      </trkpt>
      <trkpt lat="42.310751" lon="1.850675">
        <ele>2152</ele>
        <time>2020-07-12T08:09:17.055Z</time>
      </trkpt>
      <trkpt lat="42.310816" lon="1.850782">
        <ele>2157</ele>
        <time>2020-07-12T08:09:45.057Z</time>
      </trkpt>
      <trkpt lat="42.310899" lon="1.850938">
        <ele>2160</ele>
        <time>2020-07-12T08:10:04.057Z</time>
      </trkpt>
      <trkpt lat="42.310971" lon="1.851061">
        <ele>2162.7350016</ele>
        <time>2020-07-12T08:10:16.055Z</time>
      </trkpt>
      <trkpt lat="42.310889" lon="1.851151">
        <ele>2161</ele>
        <time>2020-07-12T08:10:32.048Z</time>
      </trkpt>
      <trkpt lat="42.310866" lon="1.851283">
        <ele>2156</ele>
        <time>2020-07-12T08:10:48.057Z</time>
      </trkpt>
      <trkpt lat="42.310852" lon="1.851473">
        <ele>2154.256</ele>
        <time>2020-07-12T08:10:56.064Z</time>
      </trkpt>
      <trkpt lat="42.310836" lon="1.851652">
        <ele>2153</ele>
        <time>2020-07-12T08:11:08.066Z</time>
      </trkpt>
      <trkpt lat="42.310766" lon="1.851792">
        <ele>2152.27029630193</ele>
        <time>2020-07-12T08:11:21.057Z</time>
      </trkpt>
      <trkpt lat="42.310742" lon="1.851952">
        <ele>2151</ele>
        <time>2020-07-12T08:11:32.057Z</time>
      </trkpt>
      <trkpt lat="42.310675" lon="1.85212">
        <ele>2150</ele>
        <time>2020-07-12T08:11:42.050Z</time>
      </trkpt>
      <trkpt lat="42.310628" lon="1.852242">
        <ele>2150</ele>
        <time>2020-07-12T08:11:50.051Z</time>
      </trkpt>
      <trkpt lat="42.310564" lon="1.852358">
        <ele>2149</ele>
        <time>2020-07-12T08:11:58.057Z</time>
      </trkpt>
      <trkpt lat="42.310556" lon="1.852496">
        <ele>2149</ele>
        <time>2020-07-12T08:12:07.057Z</time>
      </trkpt>
      <trkpt lat="42.310527" lon="1.85265">
        <ele>2149</ele>
        <time>2020-07-12T08:12:15.057Z</time>
      </trkpt>
      <trkpt lat="42.310566" lon="1.852783">
        <ele>2148</ele>
        <time>2020-07-12T08:12:27.157Z</time>
      </trkpt>
      <trkpt lat="42.310591" lon="1.852914">
        <ele>2146</ele>
        <time>2020-07-12T08:12:53.057Z</time>
      </trkpt>
      <trkpt lat="42.310598" lon="1.853067">
        <ele>2145</ele>
        <time>2020-07-12T08:13:05.057Z</time>
      </trkpt>
      <trkpt lat="42.310629" lon="1.853206">
        <ele>2145</ele>
        <time>2020-07-12T08:13:13.057Z</time>
      </trkpt>
      <trkpt lat="42.310683" lon="1.85338">
        <ele>2144</ele>
        <time>2020-07-12T08:13:25.057Z</time>
      </trkpt>
      <trkpt lat="42.31071" lon="1.853506">
        <ele>2144</ele>
        <time>2020-07-12T08:13:33.057Z</time>
      </trkpt>
      <trkpt lat="42.310738" lon="1.853655">
        <ele>2143</ele>
        <time>2020-07-12T08:14:17.057Z</time>
      </trkpt>
      <trkpt lat="42.310775" lon="1.853844">
        <ele>2143</ele>
        <time>2020-07-12T08:14:29.057Z</time>
      </trkpt>
      <trkpt lat="42.310813" lon="1.853995">
        <ele>2141.2630016</ele>
        <time>2020-07-12T08:14:41.057Z</time>
      </trkpt>
      <trkpt lat="42.31084" lon="1.854146">
        <ele>2142</ele>
        <time>2020-07-12T08:14:53.057Z</time>
      </trkpt>
      <trkpt lat="42.31084" lon="1.854307">
        <ele>2141</ele>
        <time>2020-07-12T08:15:05.057Z</time>
      </trkpt>
      <trkpt lat="42.310854" lon="1.854467">
        <ele>2142</ele>
        <time>2020-07-12T08:15:17.057Z</time>
      </trkpt>
      <trkpt lat="42.310865" lon="1.854638">
        <ele>2142</ele>
        <time>2020-07-12T08:15:29.057Z</time>
      </trkpt>
      <trkpt lat="42.310862" lon="1.854839">
        <ele>2141</ele>
        <time>2020-07-12T08:15:41.057Z</time>
      </trkpt>
      <trkpt lat="42.310874" lon="1.854987">
        <ele>2140</ele>
        <time>2020-07-12T08:15:53.057Z</time>
      </trkpt>
      <trkpt lat="42.310852" lon="1.855111">
        <ele>2139.2630016</ele>
        <time>2020-07-12T08:16:01.057Z</time>
      </trkpt>
      <trkpt lat="42.310847" lon="1.855282">
        <ele>2139</ele>
        <time>2020-07-12T08:16:13.057Z</time>
      </trkpt>
      <trkpt lat="42.310844" lon="1.855408">
        <ele>2136.7890048</ele>
        <time>2020-07-12T08:16:21.057Z</time>
      </trkpt>
      <trkpt lat="42.310834" lon="1.855562">
        <ele>2136</ele>
        <time>2020-07-12T08:16:29.057Z</time>
      </trkpt>
      <trkpt lat="42.31083" lon="1.855716">
        <ele>2135.2630016</ele>
        <time>2020-07-12T08:16:41.057Z</time>
      </trkpt>
      <trkpt lat="42.310875" lon="1.855874">
        <ele>2135</ele>
        <time>2020-07-12T08:16:53.057Z</time>
      </trkpt>
      <trkpt lat="42.310896" lon="1.856014">
        <ele>2135</ele>
        <time>2020-07-12T08:17:01.057Z</time>
      </trkpt>
      <trkpt lat="42.310909" lon="1.85621">
        <ele>2135</ele>
        <time>2020-07-12T08:17:17.057Z</time>
      </trkpt>
      <trkpt lat="42.310834" lon="1.856354">
        <ele>2133.07252370102</ele>
        <time>2020-07-12T08:17:30.832Z</time>
      </trkpt>
      <trkpt lat="42.310924" lon="1.85651">
        <ele>2131</ele>
        <time>2020-07-12T08:17:40.056Z</time>
      </trkpt>
      <trkpt lat="42.31098" lon="1.856688">
        <ele>2131</ele>
        <time>2020-07-12T08:17:48.063Z</time>
      </trkpt>
      <trkpt lat="42.311033" lon="1.856832">
        <ele>2132</ele>
        <time>2020-07-12T08:18:07.057Z</time>
      </trkpt>
      <trkpt lat="42.311109" lon="1.857">
        <ele>2135</ele>
        <time>2020-07-12T08:18:24.057Z</time>
      </trkpt>
      <trkpt lat="42.311144" lon="1.857133">
        <ele>2139</ele>
        <time>2020-07-12T08:19:06.057Z</time>
      </trkpt>
      <trkpt lat="42.311168" lon="1.857232">
        <ele>2139</ele>
        <time>2020-07-12T08:19:18.056Z</time>
      </trkpt>
      <trkpt lat="42.311213" lon="1.857373">
        <ele>2138</ele>
        <time>2020-07-12T08:19:30.164Z</time>
      </trkpt>
      <trkpt lat="42.311173" lon="1.857514">
        <ele>2139</ele>
        <time>2020-07-12T08:19:46.057Z</time>
      </trkpt>
      <trkpt lat="42.311177" lon="1.857679">
        <ele>2139</ele>
        <time>2020-07-12T08:20:04.057Z</time>
      </trkpt>
      <trkpt lat="42.311221" lon="1.857824">
        <ele>2141</ele>
        <time>2020-07-12T08:20:20.058Z</time>
      </trkpt>
      <trkpt lat="42.311255" lon="1.857951">
        <ele>2142</ele>
        <time>2020-07-12T08:20:28.057Z</time>
      </trkpt>
      <trkpt lat="42.311235" lon="1.858105">
        <ele>2143</ele>
        <time>2020-07-12T08:20:48.062Z</time>
      </trkpt>
      <trkpt lat="42.311246" lon="1.85825">
        <ele>2146</ele>
        <time>2020-07-12T08:21:04.051Z</time>
      </trkpt>
      <trkpt lat="42.31133" lon="1.858343">
        <ele>2146</ele>
        <time>2020-07-12T08:21:12.057Z</time>
      </trkpt>
      <trkpt lat="42.311418" lon="1.858465">
        <ele>2150</ele>
        <time>2020-07-12T08:21:36.057Z</time>
      </trkpt>
      <trkpt lat="42.311515" lon="1.858542">
        <ele>2153</ele>
        <time>2020-07-12T08:21:48.057Z</time>
      </trkpt>
      <trkpt lat="42.311584" lon="1.858645">
        <ele>2153</ele>
        <time>2020-07-12T08:22:00.057Z</time>
      </trkpt>
      <trkpt lat="42.311657" lon="1.858759">
        <ele>2155</ele>
        <time>2020-07-12T08:22:12.057Z</time>
      </trkpt>
      <trkpt lat="42.311718" lon="1.858868">
        <ele>2155</ele>
        <time>2020-07-12T08:24:16.057Z</time>
      </trkpt>
      <trkpt lat="42.311772" lon="1.85904">
        <ele>2154</ele>
        <time>2020-07-12T08:24:28.057Z</time>
      </trkpt>
      <trkpt lat="42.311771" lon="1.859176">
        <ele>2153</ele>
        <time>2020-07-12T08:24:36.057Z</time>
      </trkpt>
      <trkpt lat="42.311819" lon="1.859292">
        <ele>2152</ele>
        <time>2020-07-12T08:24:44.057Z</time>
      </trkpt>
      <trkpt lat="42.311859" lon="1.85942">
        <ele>2152</ele>
        <time>2020-07-12T08:24:56.054Z</time>
      </trkpt>
      <trkpt lat="42.311845" lon="1.859566">
        <ele>2151</ele>
        <time>2020-07-12T08:25:04.057Z</time>
      </trkpt>
      <trkpt lat="42.311842" lon="1.859703">
        <ele>2151</ele>
        <time>2020-07-12T08:25:12.057Z</time>
      </trkpt>
      <trkpt lat="42.31193" lon="1.859912">
        <ele>2150</ele>
        <time>2020-07-12T08:25:28.057Z</time>
      </trkpt>
      <trkpt lat="42.311942" lon="1.860043">
        <ele>2150</ele>
        <time>2020-07-12T08:25:36.057Z</time>
      </trkpt>
      <trkpt lat="42.311976" lon="1.860162">
        <ele>2146</ele>
        <time>2020-07-12T08:25:44.057Z</time>
      </trkpt>
      <trkpt lat="42.312026" lon="1.860328">
        <ele>2143</ele>
        <time>2020-07-12T08:25:57.150Z</time>
      </trkpt>
      <trkpt lat="42.312111" lon="1.860463">
        <ele>2141</ele>
        <time>2020-07-12T08:26:09.057Z</time>
      </trkpt>
      <trkpt lat="42.312139" lon="1.860641">
        <ele>2139</ele>
        <time>2020-07-12T08:26:24.057Z</time>
      </trkpt>
      <trkpt lat="42.312143" lon="1.860794">
        <ele>2136.2630016</ele>
        <time>2020-07-12T08:26:31.057Z</time>
      </trkpt>
      <trkpt lat="42.312171" lon="1.860935">
        <ele>2135.2630016</ele>
        <time>2020-07-12T08:26:41.057Z</time>
      </trkpt>
      <trkpt lat="42.312167" lon="1.861101">
        <ele>2135</ele>
        <time>2020-07-12T08:26:50.057Z</time>
      </trkpt>
      <trkpt lat="42.312176" lon="1.861287">
        <ele>2131</ele>
        <time>2020-07-12T08:26:59.057Z</time>
      </trkpt>
      <trkpt lat="42.312155" lon="1.861433">
        <ele>2130</ele>
        <time>2020-07-12T08:27:07.057Z</time>
      </trkpt>
      <trkpt lat="42.312129" lon="1.861617">
        <ele>2128</ele>
        <time>2020-07-12T08:27:19.052Z</time>
      </trkpt>
      <trkpt lat="42.312097" lon="1.861773">
        <ele>2127</ele>
        <time>2020-07-12T08:27:29.162Z</time>
      </trkpt>
      <trkpt lat="42.312084" lon="1.861932">
        <ele>2126</ele>
        <time>2020-07-12T08:27:37.057Z</time>
      </trkpt>
      <trkpt lat="42.312045" lon="1.862116">
        <ele>2126</ele>
        <time>2020-07-12T08:27:49.057Z</time>
      </trkpt>
      <trkpt lat="42.31197" lon="1.862268">
        <ele>2124</ele>
        <time>2020-07-12T08:28:05.057Z</time>
      </trkpt>
      <trkpt lat="42.311927" lon="1.862398">
        <ele>2124</ele>
        <time>2020-07-12T08:28:13.057Z</time>
      </trkpt>
      <trkpt lat="42.311876" lon="1.862522">
        <ele>2124</ele>
        <time>2020-07-12T08:28:22.057Z</time>
      </trkpt>
      <trkpt lat="42.311797" lon="1.862616">
        <ele>2124</ele>
        <time>2020-07-12T08:28:29.057Z</time>
      </trkpt>
      <trkpt lat="42.311702" lon="1.862756">
        <ele>2120</ele>
        <time>2020-07-12T08:28:37.057Z</time>
      </trkpt>
      <trkpt lat="42.311672" lon="1.86292">
        <ele>2117</ele>
        <time>2020-07-12T08:28:53.057Z</time>
      </trkpt>
      <trkpt lat="42.311618" lon="1.863086">
        <ele>2114</ele>
        <time>2020-07-12T08:29:05.057Z</time>
      </trkpt>
      <trkpt lat="42.311546" lon="1.863189">
        <ele>2113</ele>
        <time>2020-07-12T08:29:13.057Z</time>
      </trkpt>
      <trkpt lat="42.311396" lon="1.863299">
        <ele>2110</ele>
        <time>2020-07-12T08:29:27.057Z</time>
      </trkpt>
      <trkpt lat="42.311317" lon="1.863425">
        <ele>2110</ele>
        <time>2020-07-12T08:29:35.057Z</time>
      </trkpt>
      <trkpt lat="42.311265" lon="1.863555">
        <ele>2109</ele>
        <time>2020-07-12T08:29:43.057Z</time>
      </trkpt>
      <trkpt lat="42.311222" lon="1.863701">
        <ele>2108</ele>
        <time>2020-07-12T08:29:55.057Z</time>
      </trkpt>
      <trkpt lat="42.31119" lon="1.863829">
        <ele>2104</ele>
        <time>2020-07-12T08:30:03.057Z</time>
      </trkpt>
      <trkpt lat="42.311158" lon="1.863967">
        <ele>2102</ele>
        <time>2020-07-12T08:30:15.063Z</time>
      </trkpt>
      <trkpt lat="42.311231" lon="1.864104">
        <ele>2097</ele>
        <time>2020-07-12T08:30:28.057Z</time>
      </trkpt>
      <trkpt lat="42.31131" lon="1.864199">
        <ele>2093</ele>
        <time>2020-07-12T08:30:44.057Z</time>
      </trkpt>
      <trkpt lat="42.311403" lon="1.864316">
        <ele>2087.7890048</ele>
        <time>2020-07-12T08:30:56.057Z</time>
      </trkpt>
      <trkpt lat="42.311479" lon="1.864413">
        <ele>2084</ele>
        <time>2020-07-12T08:31:04.060Z</time>
      </trkpt>
      <trkpt lat="42.311563" lon="1.864508">
        <ele>2083</ele>
        <time>2020-07-12T08:31:16.053Z</time>
      </trkpt>
      <trkpt lat="42.311637" lon="1.864603">
        <ele>2082</ele>
        <time>2020-07-12T08:31:24.057Z</time>
      </trkpt>
      <trkpt lat="42.311697" lon="1.864767">
        <ele>2076.5260032</ele>
        <time>2020-07-12T08:31:36.057Z</time>
      </trkpt>
      <trkpt lat="42.31179" lon="1.864896">
        <ele>2074</ele>
        <time>2020-07-12T08:31:48.057Z</time>
      </trkpt>
      <trkpt lat="42.311862" lon="1.864991">
        <ele>2072.2630016</ele>
        <time>2020-07-12T08:31:56.057Z</time>
      </trkpt>
      <trkpt lat="42.311971" lon="1.865094">
        <ele>2070</ele>
        <time>2020-07-12T08:32:04.053Z</time>
      </trkpt>
      <trkpt lat="42.31204" lon="1.865243">
        <ele>2070</ele>
        <time>2020-07-12T08:32:16.059Z</time>
      </trkpt>
      <trkpt lat="42.312057" lon="1.865411">
        <ele>2069</ele>
        <time>2020-07-12T08:32:25.057Z</time>
      </trkpt>
      <trkpt lat="42.312078" lon="1.865548">
        <ele>2069</ele>
        <time>2020-07-12T08:32:33.057Z</time>
      </trkpt>
      <trkpt lat="42.312108" lon="1.865667">
        <ele>2068.2630016</ele>
        <time>2020-07-12T08:32:41.057Z</time>
      </trkpt>
      <trkpt lat="42.312193" lon="1.865819">
        <ele>2068</ele>
        <time>2020-07-12T08:32:50.057Z</time>
      </trkpt>
      <trkpt lat="42.312276" lon="1.865931">
        <ele>2067</ele>
        <time>2020-07-12T08:32:58.057Z</time>
      </trkpt>
      <trkpt lat="42.312307" lon="1.866096">
        <ele>2065</ele>
        <time>2020-07-12T08:33:10.057Z</time>
      </trkpt>
      <trkpt lat="42.312292" lon="1.866301">
        <ele>2062</ele>
        <time>2020-07-12T08:33:22.057Z</time>
      </trkpt>
      <trkpt lat="42.312334" lon="1.866499">
        <ele>2061</ele>
        <time>2020-07-12T08:33:30.057Z</time>
      </trkpt>
      <trkpt lat="42.312352" lon="1.866647">
        <ele>2058</ele>
        <time>2020-07-12T08:33:38.057Z</time>
      </trkpt>
      <trkpt lat="42.312337" lon="1.866784">
        <ele>2057</ele>
        <time>2020-07-12T08:33:46.057Z</time>
      </trkpt>
      <trkpt lat="42.312345" lon="1.866984">
        <ele>2057</ele>
        <time>2020-07-12T08:33:57.155Z</time>
      </trkpt>
      <trkpt lat="42.312337" lon="1.867127">
        <ele>2054</ele>
        <time>2020-07-12T08:34:05.057Z</time>
      </trkpt>
      <trkpt lat="42.312313" lon="1.86726">
        <ele>2052</ele>
        <time>2020-07-12T08:34:13.057Z</time>
      </trkpt>
      <trkpt lat="42.312273" lon="1.867443">
        <ele>2050</ele>
        <time>2020-07-12T08:34:24.856Z</time>
      </trkpt>
      <trkpt lat="42.312254" lon="1.867595">
        <ele>2045.2630016</ele>
        <time>2020-07-12T08:34:36.057Z</time>
      </trkpt>
      <trkpt lat="42.312246" lon="1.867749">
        <ele>2045</ele>
        <time>2020-07-12T08:34:47.064Z</time>
      </trkpt>
      <trkpt lat="42.312249" lon="1.86796">
        <ele>2038</ele>
        <time>2020-07-12T08:35:02.057Z</time>
      </trkpt>
      <trkpt lat="42.312284" lon="1.868118">
        <ele>2038</ele>
        <time>2020-07-12T08:35:10.057Z</time>
      </trkpt>
      <trkpt lat="42.31231" lon="1.868255">
        <ele>2037</ele>
        <time>2020-07-12T08:35:18.057Z</time>
      </trkpt>
      <trkpt lat="42.312399" lon="1.868414">
        <ele>2036</ele>
        <time>2020-07-12T08:35:30.057Z</time>
      </trkpt>
      <trkpt lat="42.312438" lon="1.868564">
        <ele>2032</ele>
        <time>2020-07-12T08:35:38.057Z</time>
      </trkpt>
      <trkpt lat="42.312485" lon="1.868702">
        <ele>2032</ele>
        <time>2020-07-12T08:35:46.062Z</time>
      </trkpt>
      <trkpt lat="42.312516" lon="1.868859">
        <ele>2031</ele>
        <time>2020-07-12T08:35:58.057Z</time>
      </trkpt>
      <trkpt lat="42.312561" lon="1.868924">
        <ele>2027</ele>
        <time>2020-07-12T08:36:14.057Z</time>
      </trkpt>
      <trkpt lat="42.31259" lon="1.869013">
        <ele>2027</ele>
        <time>2020-07-12T08:36:26.060Z</time>
      </trkpt>
      <trkpt lat="42.312663" lon="1.869135">
        <ele>2027</ele>
        <time>2020-07-12T08:36:34.057Z</time>
      </trkpt>
      <trkpt lat="42.31273" lon="1.869183">
        <ele>2030</ele>
        <time>2020-07-12T08:37:47.057Z</time>
      </trkpt>
      <trkpt lat="42.31274" lon="1.86938">
        <ele>2033</ele>
        <time>2020-07-12T08:41:34.057Z</time>
      </trkpt>
      <trkpt lat="42.312806" lon="1.869544">
        <ele>2035</ele>
        <time>2020-07-12T08:41:46.057Z</time>
      </trkpt>
      <trkpt lat="42.3129" lon="1.869683">
        <ele>2038</ele>
        <time>2020-07-12T08:42:03.057Z</time>
      </trkpt>
      <trkpt lat="42.31293" lon="1.869802">
        <ele>2040</ele>
        <time>2020-07-12T08:42:15.055Z</time>
      </trkpt>
      <trkpt lat="42.312966" lon="1.869937">
        <ele>2043</ele>
        <time>2020-07-12T08:42:31.047Z</time>
      </trkpt>
      <trkpt lat="42.313012" lon="1.870088">
        <ele>2045</ele>
        <time>2020-07-12T08:42:47.059Z</time>
      </trkpt>
      <trkpt lat="42.313021" lon="1.870224">
        <ele>2046</ele>
        <time>2020-07-12T08:42:59.057Z</time>
      </trkpt>
      <trkpt lat="42.313012" lon="1.870372">
        <ele>2051</ele>
        <time>2020-07-12T08:43:19.057Z</time>
      </trkpt>
      <trkpt lat="42.313081" lon="1.870535">
        <ele>2053.7369984</ele>
        <time>2020-07-12T08:43:41.057Z</time>
      </trkpt>
      <trkpt lat="42.313139" lon="1.870696">
        <ele>2055</ele>
        <time>2020-07-12T08:43:57.163Z</time>
      </trkpt>
      <trkpt lat="42.313216" lon="1.870788">
        <ele>2058</ele>
        <time>2020-07-12T08:44:09.057Z</time>
      </trkpt>
      <trkpt lat="42.313299" lon="1.870896">
        <ele>2060</ele>
        <time>2020-07-12T08:44:21.050Z</time>
      </trkpt>
      <trkpt lat="42.313422" lon="1.870984">
        <ele>2062</ele>
        <time>2020-07-12T08:44:33.051Z</time>
      </trkpt>
      <trkpt lat="42.313447" lon="1.871128">
        <ele>2065</ele>
        <time>2020-07-12T08:44:53.057Z</time>
      </trkpt>
      <trkpt lat="42.313489" lon="1.871253">
        <ele>2068</ele>
        <time>2020-07-12T08:45:09.057Z</time>
      </trkpt>
      <trkpt lat="42.313555" lon="1.871358">
        <ele>2070</ele>
        <time>2020-07-12T08:45:25.057Z</time>
      </trkpt>
      <trkpt lat="42.313652" lon="1.871402">
        <ele>2071</ele>
        <time>2020-07-12T08:45:37.057Z</time>
      </trkpt>
      <trkpt lat="42.313765" lon="1.871466">
        <ele>2074</ele>
        <time>2020-07-12T08:45:53.060Z</time>
      </trkpt>
      <trkpt lat="42.313869" lon="1.871517">
        <ele>2077</ele>
        <time>2020-07-12T08:46:09.057Z</time>
      </trkpt>
      <trkpt lat="42.314002" lon="1.871568">
        <ele>2081</ele>
        <time>2020-07-12T08:46:33.057Z</time>
      </trkpt>
      <trkpt lat="42.314093" lon="1.871639">
        <ele>2082</ele>
        <time>2020-07-12T08:46:49.057Z</time>
      </trkpt>
      <trkpt lat="42.314174" lon="1.871756">
        <ele>2084.4739968</ele>
        <time>2020-07-12T08:47:01.057Z</time>
      </trkpt>
      <trkpt lat="42.314225" lon="1.871905">
        <ele>2086.4739968</ele>
        <time>2020-07-12T08:47:21.057Z</time>
      </trkpt>
      <trkpt lat="42.314285" lon="1.872065">
        <ele>2088</ele>
        <time>2020-07-12T08:47:35.053Z</time>
      </trkpt>
      <trkpt lat="42.314308" lon="1.872223">
        <ele>2089</ele>
        <time>2020-07-12T08:47:43.057Z</time>
      </trkpt>
      <trkpt lat="42.31436" lon="1.872362">
        <ele>2090</ele>
        <time>2020-07-12T08:47:55.057Z</time>
      </trkpt>
      <trkpt lat="42.314398" lon="1.872511">
        <ele>2092</ele>
        <time>2020-07-12T08:48:04.057Z</time>
      </trkpt>
      <trkpt lat="42.314386" lon="1.872675">
        <ele>2092</ele>
        <time>2020-07-12T08:48:17.057Z</time>
      </trkpt>
      <trkpt lat="42.314328" lon="1.87286">
        <ele>2093</ele>
        <time>2020-07-12T08:48:30.057Z</time>
      </trkpt>
      <trkpt lat="42.314404" lon="1.8731">
        <ele>2093</ele>
        <time>2020-07-12T08:48:48.057Z</time>
      </trkpt>
      <trkpt lat="42.314333" lon="1.873263">
        <ele>2095</ele>
        <time>2020-07-12T08:49:00.057Z</time>
      </trkpt>
      <trkpt lat="42.314281" lon="1.873408">
        <ele>2096</ele>
        <time>2020-07-12T08:49:12.057Z</time>
      </trkpt>
      <trkpt lat="42.314217" lon="1.873558">
        <ele>2097</ele>
        <time>2020-07-12T08:49:28.057Z</time>
      </trkpt>
      <trkpt lat="42.314173" lon="1.873713">
        <ele>2101</ele>
        <time>2020-07-12T08:49:40.057Z</time>
      </trkpt>
      <trkpt lat="42.31414" lon="1.873847">
        <ele>2103</ele>
        <time>2020-07-12T08:49:54.057Z</time>
      </trkpt>
      <trkpt lat="42.314109" lon="1.874001">
        <ele>2101</ele>
        <time>2020-07-12T08:50:02.057Z</time>
      </trkpt>
      <trkpt lat="42.31406" lon="1.874122">
        <ele>2103</ele>
        <time>2020-07-12T08:50:14.057Z</time>
      </trkpt>
      <trkpt lat="42.313999" lon="1.874231">
        <ele>2104</ele>
        <time>2020-07-12T08:50:29.057Z</time>
      </trkpt>
      <trkpt lat="42.313959" lon="1.874361">
        <ele>2107</ele>
        <time>2020-07-12T08:50:49.057Z</time>
      </trkpt>
      <trkpt lat="42.313901" lon="1.874508">
        <ele>2110</ele>
        <time>2020-07-12T08:51:08.057Z</time>
      </trkpt>
      <trkpt lat="42.313818" lon="1.874602">
        <ele>2114</ele>
        <time>2020-07-12T08:51:24.057Z</time>
      </trkpt>
      <trkpt lat="42.313738" lon="1.874762">
        <ele>2117</ele>
        <time>2020-07-12T08:51:43.057Z</time>
      </trkpt>
      <trkpt lat="42.313686" lon="1.874908">
        <ele>2117</ele>
        <time>2020-07-12T08:51:55.057Z</time>
      </trkpt>
      <trkpt lat="42.313644" lon="1.875054">
        <ele>2118</ele>
        <time>2020-07-12T08:52:07.057Z</time>
      </trkpt>
      <trkpt lat="42.313593" lon="1.875209">
        <ele>2119</ele>
        <time>2020-07-12T08:52:19.057Z</time>
      </trkpt>
      <trkpt lat="42.313503" lon="1.875364">
        <ele>2121</ele>
        <time>2020-07-12T08:52:34.057Z</time>
      </trkpt>
      <trkpt lat="42.313423" lon="1.875462">
        <ele>2122</ele>
        <time>2020-07-12T08:52:42.057Z</time>
      </trkpt>
      <trkpt lat="42.313338" lon="1.875551">
        <ele>2124</ele>
        <time>2020-07-12T08:52:54.057Z</time>
      </trkpt>
      <trkpt lat="42.313287" lon="1.875706">
        <ele>2125</ele>
        <time>2020-07-12T08:53:10.057Z</time>
      </trkpt>
      <trkpt lat="42.313221" lon="1.875856">
        <ele>2130</ele>
        <time>2020-07-12T08:53:30.057Z</time>
      </trkpt>
      <trkpt lat="42.313106" lon="1.875946">
        <ele>2132</ele>
        <time>2020-07-12T08:53:46.057Z</time>
      </trkpt>
      <trkpt lat="42.313007" lon="1.87598">
        <ele>2134</ele>
        <time>2020-07-12T08:54:40.053Z</time>
      </trkpt>
      <trkpt lat="42.313046" lon="1.876104">
        <ele>2134</ele>
        <time>2020-07-12T08:54:48.057Z</time>
      </trkpt>
      <trkpt lat="42.313007" lon="1.876234">
        <ele>2135</ele>
        <time>2020-07-12T08:54:57.159Z</time>
      </trkpt>
      <trkpt lat="42.312999" lon="1.876403">
        <ele>2136</ele>
        <time>2020-07-12T08:55:09.057Z</time>
      </trkpt>
      <trkpt lat="42.312975" lon="1.87655">
        <ele>2138.4739968</ele>
        <time>2020-07-12T08:55:21.057Z</time>
      </trkpt>
      <trkpt lat="42.312998" lon="1.876754">
        <ele>2142.736</ele>
        <time>2020-07-12T08:55:41.056Z</time>
      </trkpt>
      <trkpt lat="42.313004" lon="1.8769">
        <ele>2145</ele>
        <time>2020-07-12T08:55:54.057Z</time>
      </trkpt>
      <trkpt lat="42.312932" lon="1.876999">
        <ele>2145</ele>
        <time>2020-07-12T08:56:02.055Z</time>
      </trkpt>
      <trkpt lat="42.312842" lon="1.877053">
        <ele>2145</ele>
        <time>2020-07-12T08:56:10.051Z</time>
      </trkpt>
      <trkpt lat="42.312785" lon="1.8772">
        <ele>2150</ele>
        <time>2020-07-12T08:56:30.057Z</time>
      </trkpt>
      <trkpt lat="42.31283" lon="1.877303">
        <ele>2153</ele>
        <time>2020-07-12T08:56:42.057Z</time>
      </trkpt>
      <trkpt lat="42.312846" lon="1.877498">
        <ele>2153</ele>
        <time>2020-07-12T08:57:02.053Z</time>
      </trkpt>
      <trkpt lat="42.312868" lon="1.877631">
        <ele>2153</ele>
        <time>2020-07-12T08:57:10.052Z</time>
      </trkpt>
      <trkpt lat="42.312828" lon="1.877778">
        <ele>2153</ele>
        <time>2020-07-12T08:57:20.057Z</time>
      </trkpt>
      <trkpt lat="42.312806" lon="1.877978">
        <ele>2152</ele>
        <time>2020-07-12T08:57:32.057Z</time>
      </trkpt>
      <trkpt lat="42.31282" lon="1.878107">
        <ele>2152</ele>
        <time>2020-07-12T08:57:40.057Z</time>
      </trkpt>
      <trkpt lat="42.312859" lon="1.878298">
        <ele>2154</ele>
        <time>2020-07-12T08:57:52.053Z</time>
      </trkpt>
      <trkpt lat="42.312882" lon="1.878462">
        <ele>2154</ele>
        <time>2020-07-12T08:58:04.057Z</time>
      </trkpt>
      <trkpt lat="42.312932" lon="1.878602">
        <ele>2154</ele>
        <time>2020-07-12T08:58:16.063Z</time>
      </trkpt>
      <trkpt lat="42.312975" lon="1.878743">
        <ele>2157</ele>
        <time>2020-07-12T08:58:28.057Z</time>
      </trkpt>
      <trkpt lat="42.313027" lon="1.878846">
        <ele>2157</ele>
        <time>2020-07-12T08:58:36.057Z</time>
      </trkpt>
      <trkpt lat="42.313062" lon="1.878934">
        <ele>2158</ele>
        <time>2020-07-12T08:58:44.057Z</time>
      </trkpt>
      <trkpt lat="42.313111" lon="1.879062">
        <ele>2160</ele>
        <time>2020-07-12T08:58:56.050Z</time>
      </trkpt>
      <trkpt lat="42.313212" lon="1.87918">
        <ele>2161</ele>
        <time>2020-07-12T08:59:08.057Z</time>
      </trkpt>
      <trkpt lat="42.313307" lon="1.87931">
        <ele>2164</ele>
        <time>2020-07-12T08:59:24.056Z</time>
      </trkpt>
      <trkpt lat="42.313416" lon="1.879351">
        <ele>2167</ele>
        <time>2020-07-12T08:59:44.057Z</time>
      </trkpt>
      <trkpt lat="42.313506" lon="1.879392">
        <ele>2169</ele>
        <time>2020-07-12T08:59:56.055Z</time>
      </trkpt>
      <trkpt lat="42.313596" lon="1.879398">
        <ele>2172</ele>
        <time>2020-07-12T09:00:12.057Z</time>
      </trkpt>
      <trkpt lat="42.313698" lon="1.879465">
        <ele>2173</ele>
        <time>2020-07-12T09:00:28.057Z</time>
      </trkpt>
      <trkpt lat="42.313792" lon="1.879495">
        <ele>2178</ele>
        <time>2020-07-12T09:00:44.057Z</time>
      </trkpt>
      <trkpt lat="42.313889" lon="1.879571">
        <ele>2181</ele>
        <time>2020-07-12T09:01:00.057Z</time>
      </trkpt>
      <trkpt lat="42.313996" lon="1.87965">
        <ele>2185</ele>
        <time>2020-07-12T09:01:23.057Z</time>
      </trkpt>
      <trkpt lat="42.314106" lon="1.879702">
        <ele>2186</ele>
        <time>2020-07-12T09:01:35.057Z</time>
      </trkpt>
      <trkpt lat="42.314198" lon="1.879758">
        <ele>2191</ele>
        <time>2020-07-12T09:01:59.057Z</time>
      </trkpt>
      <trkpt lat="42.314279" lon="1.8798">
        <ele>2192</ele>
        <time>2020-07-12T09:02:15.057Z</time>
      </trkpt>
      <trkpt lat="42.31435" lon="1.879936">
        <ele>2196.7369984</ele>
        <time>2020-07-12T09:02:31.057Z</time>
      </trkpt>
      <trkpt lat="42.314424" lon="1.880048">
        <ele>2198</ele>
        <time>2020-07-12T09:02:47.059Z</time>
      </trkpt>
      <trkpt lat="42.314501" lon="1.880135">
        <ele>2203</ele>
        <time>2020-07-12T09:03:19.051Z</time>
      </trkpt>
      <trkpt lat="42.314591" lon="1.880195">
        <ele>2209</ele>
        <time>2020-07-12T09:03:43.057Z</time>
      </trkpt>
      <trkpt lat="42.314699" lon="1.880289">
        <ele>2212</ele>
        <time>2020-07-12T09:04:03.057Z</time>
      </trkpt>
      <trkpt lat="42.314711" lon="1.88045">
        <ele>2215</ele>
        <time>2020-07-12T09:04:19.161Z</time>
      </trkpt>
      <trkpt lat="42.314729" lon="1.880593">
        <ele>2222</ele>
        <time>2020-07-12T09:05:15.060Z</time>
      </trkpt>
      <trkpt lat="42.314832" lon="1.880696">
        <ele>2226</ele>
        <time>2020-07-12T09:05:55.056Z</time>
      </trkpt>
      <trkpt lat="42.314779" lon="1.880818">
        <ele>2229</ele>
        <time>2020-07-12T09:06:23.057Z</time>
      </trkpt>
      <trkpt lat="42.314845" lon="1.880968">
        <ele>2233</ele>
        <time>2020-07-12T09:06:46.057Z</time>
      </trkpt>
      <trkpt lat="42.314906" lon="1.881082">
        <ele>2233</ele>
        <time>2020-07-12T09:06:58.057Z</time>
      </trkpt>
      <trkpt lat="42.314945" lon="1.881204">
        <ele>2236</ele>
        <time>2020-07-12T09:07:14.057Z</time>
      </trkpt>
      <trkpt lat="42.315015" lon="1.8813">
        <ele>2238</ele>
        <time>2020-07-12T09:07:26.057Z</time>
      </trkpt>
      <trkpt lat="42.315098" lon="1.881446">
        <ele>2240</ele>
        <time>2020-07-12T09:07:44.057Z</time>
      </trkpt>
      <trkpt lat="42.315214" lon="1.881529">
        <ele>2243</ele>
        <time>2020-07-12T09:08:02.056Z</time>
      </trkpt>
      <trkpt lat="42.315301" lon="1.881685">
        <ele>2246</ele>
        <time>2020-07-12T09:08:22.060Z</time>
      </trkpt>
      <trkpt lat="42.315428" lon="1.881762">
        <ele>2248</ele>
        <time>2020-07-12T09:08:38.065Z</time>
      </trkpt>
      <trkpt lat="42.315526" lon="1.881848">
        <ele>2252</ele>
        <time>2020-07-12T09:08:58.060Z</time>
      </trkpt>
      <trkpt lat="42.315626" lon="1.881908">
        <ele>2253</ele>
        <time>2020-07-12T09:09:18.054Z</time>
      </trkpt>
      <trkpt lat="42.315696" lon="1.882009">
        <ele>2258</ele>
        <time>2020-07-12T09:09:38.050Z</time>
      </trkpt>
      <trkpt lat="42.315778" lon="1.882099">
        <ele>2261</ele>
        <time>2020-07-12T09:09:58.055Z</time>
      </trkpt>
      <trkpt lat="42.315879" lon="1.882123">
        <ele>2262</ele>
        <time>2020-07-12T09:10:10.057Z</time>
      </trkpt>
      <trkpt lat="42.316008" lon="1.882173">
        <ele>2269</ele>
        <time>2020-07-12T09:10:38.158Z</time>
      </trkpt>
      <trkpt lat="42.316129" lon="1.882188">
        <ele>2271</ele>
        <time>2020-07-12T09:10:58.057Z</time>
      </trkpt>
      <trkpt lat="42.316227" lon="1.882179">
        <ele>2274</ele>
        <time>2020-07-12T09:11:14.057Z</time>
      </trkpt>
      <trkpt lat="42.316338" lon="1.882272">
        <ele>2278</ele>
        <time>2020-07-12T09:11:35.052Z</time>
      </trkpt>
      <trkpt lat="42.316465" lon="1.882268">
        <ele>2281</ele>
        <time>2020-07-12T09:11:59.056Z</time>
      </trkpt>
      <trkpt lat="42.316595" lon="1.882245">
        <ele>2286</ele>
        <time>2020-07-12T09:12:27.155Z</time>
      </trkpt>
      <trkpt lat="42.316677" lon="1.882283">
        <ele>2287</ele>
        <time>2020-07-12T09:12:43.057Z</time>
      </trkpt>
      <trkpt lat="42.31678" lon="1.882324">
        <ele>2291</ele>
        <time>2020-07-12T09:13:03.056Z</time>
      </trkpt>
      <trkpt lat="42.316864" lon="1.882383">
        <ele>2296</ele>
        <time>2020-07-12T09:13:27.156Z</time>
      </trkpt>
      <trkpt lat="42.316975" lon="1.882437">
        <ele>2297</ele>
        <time>2020-07-12T09:13:47.061Z</time>
      </trkpt>
      <trkpt lat="42.317064" lon="1.882526">
        <ele>2298</ele>
        <time>2020-07-12T09:13:59.049Z</time>
      </trkpt>
      <trkpt lat="42.317152" lon="1.882612">
        <ele>2299</ele>
        <time>2020-07-12T09:14:15.053Z</time>
      </trkpt>
      <trkpt lat="42.317202" lon="1.882757">
        <ele>2301</ele>
        <time>2020-07-12T09:14:27.055Z</time>
      </trkpt>
      <trkpt lat="42.317289" lon="1.88283">
        <ele>2302</ele>
        <time>2020-07-12T09:14:43.048Z</time>
      </trkpt>
      <trkpt lat="42.317378" lon="1.882951">
        <ele>2302</ele>
        <time>2020-07-12T09:14:55.054Z</time>
      </trkpt>
      <trkpt lat="42.317432" lon="1.883119">
        <ele>2303.4640128</ele>
        <time>2020-07-12T09:15:11.052Z</time>
      </trkpt>
      <trkpt lat="42.31748" lon="1.883265">
        <ele>2307</ele>
        <time>2020-07-12T09:15:27.055Z</time>
      </trkpt>
      <trkpt lat="42.317526" lon="1.883436">
        <ele>2306.5260032</ele>
        <time>2020-07-12T09:18:31.057Z</time>
      </trkpt>
      <trkpt lat="42.317573" lon="1.883597">
        <ele>2305</ele>
        <time>2020-07-12T09:18:43.057Z</time>
      </trkpt>
      <trkpt lat="42.31763" lon="1.883743">
        <ele>2303</ele>
        <time>2020-07-12T09:18:55.057Z</time>
      </trkpt>
      <trkpt lat="42.317652" lon="1.883853">
        <ele>2300</ele>
        <time>2020-07-12T09:19:03.057Z</time>
      </trkpt>
      <trkpt lat="42.317689" lon="1.883954">
        <ele>2298.5260032</ele>
        <time>2020-07-12T09:19:11.057Z</time>
      </trkpt>
      <trkpt lat="42.317705" lon="1.88407">
        <ele>2296</ele>
        <time>2020-07-12T09:19:19.057Z</time>
      </trkpt>
      <trkpt lat="42.317722" lon="1.884174">
        <ele>2295</ele>
        <time>2020-07-12T09:19:27.057Z</time>
      </trkpt>
      <trkpt lat="42.317722" lon="1.884314">
        <ele>2293</ele>
        <time>2020-07-12T09:19:35.057Z</time>
      </trkpt>
      <trkpt lat="42.317723" lon="1.884438">
        <ele>2292</ele>
        <time>2020-07-12T09:19:43.057Z</time>
      </trkpt>
      <trkpt lat="42.31771" lon="1.884628">
        <ele>2291</ele>
        <time>2020-07-12T09:19:55.057Z</time>
      </trkpt>
      <trkpt lat="42.317691" lon="1.884748">
        <ele>2288</ele>
        <time>2020-07-12T09:20:03.057Z</time>
      </trkpt>
      <trkpt lat="42.317715" lon="1.884927">
        <ele>2286</ele>
        <time>2020-07-12T09:20:15.057Z</time>
      </trkpt>
      <trkpt lat="42.31775" lon="1.885046">
        <ele>2286</ele>
        <time>2020-07-12T09:20:23.057Z</time>
      </trkpt>
      <trkpt lat="42.317767" lon="1.885174">
        <ele>2285.2630016</ele>
        <time>2020-07-12T09:20:31.057Z</time>
      </trkpt>
      <trkpt lat="42.31776" lon="1.885346">
        <ele>2286</ele>
        <time>2020-07-12T09:20:43.057Z</time>
      </trkpt>
      <trkpt lat="42.317755" lon="1.885476">
        <ele>2287</ele>
        <time>2020-07-12T09:20:59.057Z</time>
      </trkpt>
      <trkpt lat="42.317731" lon="1.885638">
        <ele>2292</ele>
        <time>2020-07-12T09:21:15.051Z</time>
      </trkpt>
      <trkpt lat="42.317653" lon="1.885756">
        <ele>2295</ele>
        <time>2020-07-12T09:21:39.057Z</time>
      </trkpt>
      <trkpt lat="42.317671" lon="1.885919">
        <ele>2299</ele>
        <time>2020-07-12T09:21:59.061Z</time>
      </trkpt>
      <trkpt lat="42.317692" lon="1.88606">
        <ele>2303</ele>
        <time>2020-07-12T09:22:19.056Z</time>
      </trkpt>
      <trkpt lat="42.317741" lon="1.886214">
        <ele>2305</ele>
        <time>2020-07-12T09:22:39.057Z</time>
      </trkpt>
      <trkpt lat="42.31775" lon="1.886355">
        <ele>2308</ele>
        <time>2020-07-12T09:22:55.059Z</time>
      </trkpt>
      <trkpt lat="42.317817" lon="1.886494">
        <ele>2311</ele>
        <time>2020-07-12T09:23:11.057Z</time>
      </trkpt>
      <trkpt lat="42.317894" lon="1.88659">
        <ele>2311</ele>
        <time>2020-07-12T09:23:23.059Z</time>
      </trkpt>
      <trkpt lat="42.317964" lon="1.886688">
        <ele>2315</ele>
        <time>2020-07-12T09:23:57.162Z</time>
      </trkpt>
      <trkpt lat="42.318023" lon="1.88682">
        <ele>2320</ele>
        <time>2020-07-12T09:24:13.057Z</time>
      </trkpt>
      <trkpt lat="42.318032" lon="1.886962">
        <ele>2320</ele>
        <time>2020-07-12T09:24:29.057Z</time>
      </trkpt>
      <trkpt lat="42.318041" lon="1.887085">
        <ele>2324</ele>
        <time>2020-07-12T09:24:45.062Z</time>
      </trkpt>
      <trkpt lat="42.318049" lon="1.887224">
        <ele>2327</ele>
        <time>2020-07-12T09:25:05.057Z</time>
      </trkpt>
      <trkpt lat="42.318066" lon="1.887395">
        <ele>2329</ele>
        <time>2020-07-12T09:25:25.056Z</time>
      </trkpt>
      <trkpt lat="42.318115" lon="1.887548">
        <ele>2332</ele>
        <time>2020-07-12T09:25:37.057Z</time>
      </trkpt>
      <trkpt lat="42.318136" lon="1.887706">
        <ele>2334</ele>
        <time>2020-07-12T09:25:53.058Z</time>
      </trkpt>
      <trkpt lat="42.318129" lon="1.88786">
        <ele>2336</ele>
        <time>2020-07-12T09:26:09.057Z</time>
      </trkpt>
      <trkpt lat="42.318131" lon="1.888006">
        <ele>2337</ele>
        <time>2020-07-12T09:26:21.056Z</time>
      </trkpt>
      <trkpt lat="42.318146" lon="1.888148">
        <ele>2338</ele>
        <time>2020-07-12T09:26:33.057Z</time>
      </trkpt>
      <trkpt lat="42.318168" lon="1.888288">
        <ele>2339</ele>
        <time>2020-07-12T09:26:45.059Z</time>
      </trkpt>
      <trkpt lat="42.318158" lon="1.888445">
        <ele>2343</ele>
        <time>2020-07-12T09:27:05.057Z</time>
      </trkpt>
      <trkpt lat="42.318129" lon="1.888514">
        <ele>2344</ele>
        <time>2020-07-12T09:27:13.057Z</time>
      </trkpt>
      <trkpt lat="42.318122" lon="1.888673">
        <ele>2346</ele>
        <time>2020-07-12T09:27:25.052Z</time>
      </trkpt>
      <trkpt lat="42.318209" lon="1.888786">
        <ele>2348.4739968</ele>
        <time>2020-07-12T09:27:41.057Z</time>
      </trkpt>
      <trkpt lat="42.318205" lon="1.888922">
        <ele>2351</ele>
        <time>2020-07-12T09:28:01.057Z</time>
      </trkpt>
      <trkpt lat="42.318241" lon="1.889042">
        <ele>2352</ele>
        <time>2020-07-12T09:28:13.057Z</time>
      </trkpt>
      <trkpt lat="42.318257" lon="1.889178">
        <ele>2355.7369984</ele>
        <time>2020-07-12T09:28:31.057Z</time>
      </trkpt>
      <trkpt lat="42.318266" lon="1.889324">
        <ele>2362</ele>
        <time>2020-07-12T09:29:03.064Z</time>
      </trkpt>
      <trkpt lat="42.31832" lon="1.889492">
        <ele>2362</ele>
        <time>2020-07-12T09:29:19.064Z</time>
      </trkpt>
      <trkpt lat="42.318238" lon="1.889579">
        <ele>2366</ele>
        <time>2020-07-12T09:29:31.057Z</time>
      </trkpt>
      <trkpt lat="42.318158" lon="1.889642">
        <ele>2368</ele>
        <time>2020-07-12T09:29:43.057Z</time>
      </trkpt>
      <trkpt lat="42.318146" lon="1.889778">
        <ele>2369</ele>
        <time>2020-07-12T09:29:56.054Z</time>
      </trkpt>
      <trkpt lat="42.317998" lon="1.889708">
        <ele>2377</ele>
        <time>2020-07-12T09:30:48.049Z</time>
      </trkpt>
      <trkpt lat="42.317982" lon="1.889871">
        <ele>2382</ele>
        <time>2020-07-12T09:31:12.059Z</time>
      </trkpt>
      <trkpt lat="42.317874" lon="1.889836">
        <ele>2383</ele>
        <time>2020-07-12T09:31:24.057Z</time>
      </trkpt>
      <trkpt lat="42.317822" lon="1.889694">
        <ele>2387</ele>
        <time>2020-07-12T09:31:40.051Z</time>
      </trkpt>
      <trkpt lat="42.317698" lon="1.889792">
        <ele>2392</ele>
        <time>2020-07-12T09:32:12.057Z</time>
      </trkpt>
      <trkpt lat="42.317635" lon="1.889937">
        <ele>2393</ele>
        <time>2020-07-12T09:32:28.054Z</time>
      </trkpt>
      <trkpt lat="42.317699" lon="1.890078">
        <ele>2399</ele>
        <time>2020-07-12T09:32:52.060Z</time>
      </trkpt>
      <trkpt lat="42.317622" lon="1.890201">
        <ele>2402</ele>
        <time>2020-07-12T09:33:12.059Z</time>
      </trkpt>
      <trkpt lat="42.317608" lon="1.890361">
        <ele>2402</ele>
        <time>2020-07-12T09:33:20.058Z</time>
      </trkpt>
      <trkpt lat="42.317487" lon="1.890323">
        <ele>2407.7369984</ele>
        <time>2020-07-12T09:33:36.057Z</time>
      </trkpt>
      <trkpt lat="42.317402" lon="1.890405">
        <ele>2410</ele>
        <time>2020-07-12T09:33:52.057Z</time>
      </trkpt>
      <trkpt lat="42.317421" lon="1.89056">
        <ele>2412</ele>
        <time>2020-07-12T09:36:24.056Z</time>
      </trkpt>
      <trkpt lat="42.31754" lon="1.890602">
        <ele>2414</ele>
        <time>2020-07-12T09:36:32.056Z</time>
      </trkpt>
      <trkpt lat="42.31763" lon="1.890721">
        <ele>2417</ele>
        <time>2020-07-12T09:36:44.051Z</time>
      </trkpt>
      <trkpt lat="42.317715" lon="1.89079">
        <ele>2419</ele>
        <time>2020-07-12T09:37:04.055Z</time>
      </trkpt>
      <trkpt lat="42.317786" lon="1.890952">
        <ele>2423.4540032</ele>
        <time>2020-07-12T09:37:16.047Z</time>
      </trkpt>
      <trkpt lat="42.317835" lon="1.89108">
        <ele>2426</ele>
        <time>2020-07-12T09:37:36.052Z</time>
      </trkpt>
      <trkpt lat="42.317869" lon="1.891262">
        <ele>2429</ele>
        <time>2020-07-12T09:37:52.051Z</time>
      </trkpt>
      <trkpt lat="42.317967" lon="1.891236">
        <ele>2437</ele>
        <time>2020-07-12T09:38:32.057Z</time>
      </trkpt>
      <trkpt lat="42.318077" lon="1.891331">
        <ele>2438</ele>
        <time>2020-07-12T09:38:52.059Z</time>
      </trkpt>
      <trkpt lat="42.318194" lon="1.891394">
        <ele>2439</ele>
        <time>2020-07-12T09:39:00.061Z</time>
      </trkpt>
      <trkpt lat="42.318264" lon="1.891497">
        <ele>2443</ele>
        <time>2020-07-12T09:39:20.059Z</time>
      </trkpt>
      <trkpt lat="42.318334" lon="1.891616">
        <ele>2451</ele>
        <time>2020-07-12T09:40:08.051Z</time>
      </trkpt>
      <trkpt lat="42.318432" lon="1.891702">
        <ele>2454</ele>
        <time>2020-07-12T09:40:36.057Z</time>
      </trkpt>
      <trkpt lat="42.318516" lon="1.891784">
        <ele>2458</ele>
        <time>2020-07-12T09:40:52.056Z</time>
      </trkpt>
      <trkpt lat="42.318629" lon="1.891878">
        <ele>2461</ele>
        <time>2020-07-12T09:41:08.054Z</time>
      </trkpt>
      <trkpt lat="42.318745" lon="1.891865">
        <ele>2463</ele>
        <time>2020-07-12T09:41:24.057Z</time>
      </trkpt>
      <trkpt lat="42.318748" lon="1.892043">
        <ele>2469</ele>
        <time>2020-07-12T09:42:08.064Z</time>
      </trkpt>
      <trkpt lat="42.318843" lon="1.892177">
        <ele>2472</ele>
        <time>2020-07-12T09:42:24.054Z</time>
      </trkpt>
      <trkpt lat="42.318876" lon="1.892307">
        <ele>2476.7350016</ele>
        <time>2020-07-12T09:42:36.055Z</time>
      </trkpt>
      <trkpt lat="42.318923" lon="1.892438">
        <ele>2482.7319936</ele>
        <time>2020-07-12T09:43:16.052Z</time>
      </trkpt>
      <trkpt lat="42.318953" lon="1.892575">
        <ele>2487</ele>
        <time>2020-07-12T09:43:40.062Z</time>
      </trkpt>
      <trkpt lat="42.318961" lon="1.892757">
        <ele>2497</ele>
        <time>2020-07-12T09:44:32.060Z</time>
      </trkpt>
      <trkpt lat="42.31898" lon="1.892937">
        <ele>2498</ele>
        <time>2020-07-12T09:44:48.053Z</time>
      </trkpt>
      <trkpt lat="42.318978" lon="1.89308">
        <ele>2499</ele>
        <time>2020-07-12T09:45:12.050Z</time>
      </trkpt>
      <trkpt lat="42.319049" lon="1.893221">
        <ele>2503</ele>
        <time>2020-07-12T09:45:28.058Z</time>
      </trkpt>
      <trkpt lat="42.319164" lon="1.893247">
        <ele>2502</ele>
        <time>2020-07-12T09:45:40.053Z</time>
      </trkpt>
      <trkpt lat="42.319208" lon="1.893108">
        <ele>2504</ele>
        <time>2020-07-12T09:45:52.058Z</time>
      </trkpt>
      <trkpt lat="42.319307" lon="1.893027">
        <ele>2504</ele>
        <time>2020-07-12T09:46:04.056Z</time>
      </trkpt>
      <trkpt lat="42.319423" lon="1.892998">
        <ele>2509</ele>
        <time>2020-07-12T09:46:20.049Z</time>
      </trkpt>
      <trkpt lat="42.319524" lon="1.893033">
        <ele>2509</ele>
        <time>2020-07-12T09:46:28.054Z</time>
      </trkpt>
      <trkpt lat="42.319637" lon="1.893022">
        <ele>2511</ele>
        <time>2020-07-12T09:46:36.060Z</time>
      </trkpt>
      <trkpt lat="42.319757" lon="1.893088">
        <ele>2512</ele>
        <time>2020-07-12T09:46:48.055Z</time>
      </trkpt>
      <trkpt lat="42.319863" lon="1.893121">
        <ele>2512</ele>
        <time>2020-07-12T09:47:00.059Z</time>
      </trkpt>
      <trkpt lat="42.319979" lon="1.893194">
        <ele>2517</ele>
        <time>2020-07-12T09:47:12.048Z</time>
      </trkpt>
      <trkpt lat="42.320078" lon="1.893184">
        <ele>2518</ele>
        <time>2020-07-12T09:47:24.054Z</time>
      </trkpt>
      <trkpt lat="42.32021" lon="1.893231">
        <ele>2519</ele>
        <time>2020-07-12T09:47:36.060Z</time>
      </trkpt>
      <trkpt lat="42.320309" lon="1.893236">
        <ele>2521</ele>
        <time>2020-07-12T09:47:48.052Z</time>
      </trkpt>
      <trkpt lat="42.320371" lon="1.893119">
        <ele>2522</ele>
        <time>2020-07-12T09:48:00.059Z</time>
      </trkpt>
      <trkpt lat="42.320376" lon="1.892946">
        <ele>2525</ele>
        <time>2020-07-12T09:48:12.048Z</time>
      </trkpt>
      <trkpt lat="42.320409" lon="1.892815">
        <ele>2528</ele>
        <time>2020-07-12T09:48:28.052Z</time>
      </trkpt>
      <trkpt lat="42.320368" lon="1.89268">
        <ele>2530</ele>
        <time>2020-07-12T09:48:40.059Z</time>
      </trkpt>
      <trkpt lat="42.320311" lon="1.892821">
        <ele>2529</ele>
        <time>2020-07-12T09:49:20.060Z</time>
      </trkpt>
      <trkpt lat="42.320217" lon="1.892934">
        <ele>2526</ele>
        <time>2020-07-12T09:49:28.056Z</time>
      </trkpt>
      <trkpt lat="42.320181" lon="1.893064">
        <ele>2526</ele>
        <time>2020-07-12T09:49:40.054Z</time>
      </trkpt>
      <trkpt lat="42.320097" lon="1.893135">
        <ele>2522</ele>
        <time>2020-07-12T09:49:52.057Z</time>
      </trkpt>
      <trkpt lat="42.319985" lon="1.893163">
        <ele>2521</ele>
        <time>2020-07-12T09:50:00.050Z</time>
      </trkpt>
      <trkpt lat="42.319888" lon="1.893114">
        <ele>2519</ele>
        <time>2020-07-12T09:50:08.048Z</time>
      </trkpt>
      <trkpt lat="42.319758" lon="1.893138">
        <ele>2518</ele>
        <time>2020-07-12T09:50:16.058Z</time>
      </trkpt>
      <trkpt lat="42.31964" lon="1.893104">
        <ele>2517</ele>
        <time>2020-07-12T09:50:24.064Z</time>
      </trkpt>
      <trkpt lat="42.319541" lon="1.893052">
        <ele>2512.2620032</ele>
        <time>2020-07-12T09:50:36.058Z</time>
      </trkpt>
      <trkpt lat="42.319443" lon="1.893156">
        <ele>2510</ele>
        <time>2020-07-12T09:50:52.055Z</time>
      </trkpt>
      <trkpt lat="42.319311" lon="1.893166">
        <ele>2511</ele>
        <time>2020-07-12T09:51:04.059Z</time>
      </trkpt>
      <trkpt lat="42.319301" lon="1.893322">
        <ele>2511</ele>
        <time>2020-07-12T09:51:12.056Z</time>
      </trkpt>
      <trkpt lat="42.319423" lon="1.893399">
        <ele>2512</ele>
        <time>2020-07-12T09:51:28.058Z</time>
      </trkpt>
      <trkpt lat="42.319493" lon="1.893241">
        <ele>2514</ele>
        <time>2020-07-12T09:52:35.057Z</time>
      </trkpt>
      <trkpt lat="42.319494" lon="1.89337">
        <ele>2514</ele>
        <time>2020-07-12T09:54:42.057Z</time>
      </trkpt>
      <trkpt lat="42.31939" lon="1.893379">
        <ele>2513</ele>
        <time>2020-07-12T09:55:06.057Z</time>
      </trkpt>
      <trkpt lat="42.319449" lon="1.89337">
        <ele>2519</ele>
        <time>2020-07-12T10:05:07.057Z</time>
      </trkpt>
      <trkpt lat="42.319635" lon="1.893346">
        <ele>2521</ele>
        <time>2020-07-12T10:07:53.057Z</time>
      </trkpt>
      <trkpt lat="42.31951" lon="1.893352">
        <ele>2521</ele>
        <time>2020-07-12T10:08:17.057Z</time>
      </trkpt>
      <trkpt lat="42.319399" lon="1.893376">
        <ele>2518</ele>
        <time>2020-07-12T10:09:09.055Z</time>
      </trkpt>
      <trkpt lat="42.319509" lon="1.893351">
        <ele>2521</ele>
        <time>2020-07-12T10:09:26.057Z</time>
      </trkpt>
      <trkpt lat="42.319623" lon="1.893355">
        <ele>2521</ele>
        <time>2020-07-12T10:09:38.057Z</time>
      </trkpt>
      <trkpt lat="42.319699" lon="1.893485">
        <ele>2521</ele>
        <time>2020-07-12T10:09:46.052Z</time>
      </trkpt>
      <trkpt lat="42.319687" lon="1.893629">
        <ele>2516</ele>
        <time>2020-07-12T10:10:02.055Z</time>
      </trkpt>
      <trkpt lat="42.319579" lon="1.893833">
        <ele>2516</ele>
        <time>2020-07-12T10:10:10.050Z</time>
      </trkpt>
      <trkpt lat="42.319493" lon="1.893965">
        <ele>2511</ele>
        <time>2020-07-12T10:10:18.063Z</time>
      </trkpt>
      <trkpt lat="42.319429" lon="1.894103">
        <ele>2507.5339904</ele>
        <time>2020-07-12T10:10:26.053Z</time>
      </trkpt>
      <trkpt lat="42.319378" lon="1.894265">
        <ele>2505</ele>
        <time>2020-07-12T10:10:34.052Z</time>
      </trkpt>
      <trkpt lat="42.319359" lon="1.894437">
        <ele>2502</ele>
        <time>2020-07-12T10:10:42.050Z</time>
      </trkpt>
      <trkpt lat="42.319333" lon="1.89464">
        <ele>2499</ele>
        <time>2020-07-12T10:10:54.064Z</time>
      </trkpt>
      <trkpt lat="42.31935" lon="1.894846">
        <ele>2498</ele>
        <time>2020-07-12T10:11:02.055Z</time>
      </trkpt>
      <trkpt lat="42.319427" lon="1.895003">
        <ele>2496</ele>
        <time>2020-07-12T10:11:18.057Z</time>
      </trkpt>
      <trkpt lat="42.319368" lon="1.895159">
        <ele>2496</ele>
        <time>2020-07-12T10:11:26.055Z</time>
      </trkpt>
      <trkpt lat="42.319343" lon="1.895348">
        <ele>2495</ele>
        <time>2020-07-12T10:11:38.060Z</time>
      </trkpt>
      <trkpt lat="42.31931" lon="1.895632">
        <ele>2494</ele>
        <time>2020-07-12T10:11:46.060Z</time>
      </trkpt>
      <trkpt lat="42.319321" lon="1.895784">
        <ele>2493</ele>
        <time>2020-07-12T10:11:58.059Z</time>
      </trkpt>
      <trkpt lat="42.319282" lon="1.895994">
        <ele>2494</ele>
        <time>2020-07-12T10:12:14.050Z</time>
      </trkpt>
      <trkpt lat="42.319343" lon="1.896152">
        <ele>2493</ele>
        <time>2020-07-12T10:12:22.051Z</time>
      </trkpt>
      <trkpt lat="42.319326" lon="1.896359">
        <ele>2493</ele>
        <time>2020-07-12T10:12:34.053Z</time>
      </trkpt>
      <trkpt lat="42.319328" lon="1.896554">
        <ele>2493</ele>
        <time>2020-07-12T10:12:42.058Z</time>
      </trkpt>
      <trkpt lat="42.319378" lon="1.896816">
        <ele>2493</ele>
        <time>2020-07-12T10:12:50.063Z</time>
      </trkpt>
      <trkpt lat="42.319416" lon="1.897003">
        <ele>2493</ele>
        <time>2020-07-12T10:12:58.059Z</time>
      </trkpt>
      <trkpt lat="42.319446" lon="1.89714">
        <ele>2493</ele>
        <time>2020-07-12T10:13:10.057Z</time>
      </trkpt>
      <trkpt lat="42.319506" lon="1.89737">
        <ele>2493</ele>
        <time>2020-07-12T10:13:28.057Z</time>
      </trkpt>
      <trkpt lat="42.3195" lon="1.897601">
        <ele>2493</ele>
        <time>2020-07-12T10:13:34.057Z</time>
      </trkpt>
      <trkpt lat="42.319508" lon="1.897805">
        <ele>2492</ele>
        <time>2020-07-12T10:13:42.057Z</time>
      </trkpt>
      <trkpt lat="42.319542" lon="1.897975">
        <ele>2492</ele>
        <time>2020-07-12T10:13:49.844Z</time>
      </trkpt>
      <trkpt lat="42.319504" lon="1.89818">
        <ele>2492</ele>
        <time>2020-07-12T10:14:02.057Z</time>
      </trkpt>
      <trkpt lat="42.319521" lon="1.898363">
        <ele>2492</ele>
        <time>2020-07-12T10:14:10.057Z</time>
      </trkpt>
      <trkpt lat="42.319563" lon="1.898585">
        <ele>2492</ele>
        <time>2020-07-12T10:14:18.061Z</time>
      </trkpt>
      <trkpt lat="42.319524" lon="1.898787">
        <ele>2491</ele>
        <time>2020-07-12T10:14:34.057Z</time>
      </trkpt>
      <trkpt lat="42.319454" lon="1.898905">
        <ele>2491</ele>
        <time>2020-07-12T10:14:42.057Z</time>
      </trkpt>
      <trkpt lat="42.319404" lon="1.899023">
        <ele>2491</ele>
        <time>2020-07-12T10:14:50.057Z</time>
      </trkpt>
      <trkpt lat="42.319352" lon="1.899174">
        <ele>2488</ele>
        <time>2020-07-12T10:14:58.057Z</time>
      </trkpt>
      <trkpt lat="42.31936" lon="1.899335">
        <ele>2487</ele>
        <time>2020-07-12T10:15:06.057Z</time>
      </trkpt>
      <trkpt lat="42.319389" lon="1.899467">
        <ele>2488</ele>
        <time>2020-07-12T10:15:14.057Z</time>
      </trkpt>
      <trkpt lat="42.319353" lon="1.899712">
        <ele>2487</ele>
        <time>2020-07-12T10:15:22.048Z</time>
      </trkpt>
      <trkpt lat="42.319247" lon="1.899892">
        <ele>2486</ele>
        <time>2020-07-12T10:15:34.057Z</time>
      </trkpt>
      <trkpt lat="42.319181" lon="1.900012">
        <ele>2486</ele>
        <time>2020-07-12T10:15:42.057Z</time>
      </trkpt>
      <trkpt lat="42.319122" lon="1.900169">
        <ele>2486</ele>
        <time>2020-07-12T10:15:50.054Z</time>
      </trkpt>
      <trkpt lat="42.319083" lon="1.900343">
        <ele>2487</ele>
        <time>2020-07-12T10:15:58.057Z</time>
      </trkpt>
      <trkpt lat="42.319028" lon="1.900468">
        <ele>2488</ele>
        <time>2020-07-12T10:16:14.057Z</time>
      </trkpt>
      <trkpt lat="42.318941" lon="1.900602">
        <ele>2486</ele>
        <time>2020-07-12T10:16:22.057Z</time>
      </trkpt>
      <trkpt lat="42.318914" lon="1.900817">
        <ele>2484</ele>
        <time>2020-07-12T10:16:34.057Z</time>
      </trkpt>
      <trkpt lat="42.318888" lon="1.900955">
        <ele>2482</ele>
        <time>2020-07-12T10:16:42.057Z</time>
      </trkpt>
      <trkpt lat="42.318803" lon="1.90111">
        <ele>2482</ele>
        <time>2020-07-12T10:16:54.058Z</time>
      </trkpt>
      <trkpt lat="42.318748" lon="1.901295">
        <ele>2482</ele>
        <time>2020-07-12T10:17:06.057Z</time>
      </trkpt>
      <trkpt lat="42.318696" lon="1.901442">
        <ele>2481</ele>
        <time>2020-07-12T10:17:14.057Z</time>
      </trkpt>
      <trkpt lat="42.31864" lon="1.90156">
        <ele>2480</ele>
        <time>2020-07-12T10:17:22.059Z</time>
      </trkpt>
      <trkpt lat="42.318515" lon="1.901659">
        <ele>2479</ele>
        <time>2020-07-12T10:17:34.057Z</time>
      </trkpt>
      <trkpt lat="42.31841" lon="1.901739">
        <ele>2478</ele>
        <time>2020-07-12T10:17:42.057Z</time>
      </trkpt>
      <trkpt lat="42.318307" lon="1.901837">
        <ele>2477</ele>
        <time>2020-07-12T10:17:54.057Z</time>
      </trkpt>
      <trkpt lat="42.318235" lon="1.901976">
        <ele>2476</ele>
        <time>2020-07-12T10:18:02.057Z</time>
      </trkpt>
      <trkpt lat="42.318157" lon="1.902121">
        <ele>2476</ele>
        <time>2020-07-12T10:18:10.057Z</time>
      </trkpt>
      <trkpt lat="42.318006" lon="1.902284">
        <ele>2475</ele>
        <time>2020-07-12T10:18:22.059Z</time>
      </trkpt>
      <trkpt lat="42.317947" lon="1.902502">
        <ele>2474</ele>
        <time>2020-07-12T10:18:34.057Z</time>
      </trkpt>
      <trkpt lat="42.317873" lon="1.902641">
        <ele>2473</ele>
        <time>2020-07-12T10:18:42.057Z</time>
      </trkpt>
      <trkpt lat="42.317806" lon="1.902768">
        <ele>2473</ele>
        <time>2020-07-12T10:18:50.056Z</time>
      </trkpt>
      <trkpt lat="42.317786" lon="1.902909">
        <ele>2470</ele>
        <time>2020-07-12T10:18:58.058Z</time>
      </trkpt>
      <trkpt lat="42.317727" lon="1.903054">
        <ele>2468.2669952</ele>
        <time>2020-07-12T10:19:06.053Z</time>
      </trkpt>
      <trkpt lat="42.317679" lon="1.903263">
        <ele>2467</ele>
        <time>2020-07-12T10:19:14.057Z</time>
      </trkpt>
      <trkpt lat="42.317639" lon="1.903394">
        <ele>2464</ele>
        <time>2020-07-12T10:19:22.057Z</time>
      </trkpt>
      <trkpt lat="42.317607" lon="1.903558">
        <ele>2464</ele>
        <time>2020-07-12T10:19:30.057Z</time>
      </trkpt>
      <trkpt lat="42.31754" lon="1.903684">
        <ele>2463</ele>
        <time>2020-07-12T10:19:38.057Z</time>
      </trkpt>
      <trkpt lat="42.317514" lon="1.903831">
        <ele>2459.2579968</ele>
        <time>2020-07-12T10:19:46.062Z</time>
      </trkpt>
      <trkpt lat="42.317439" lon="1.904048">
        <ele>2457</ele>
        <time>2020-07-12T10:19:58.057Z</time>
      </trkpt>
      <trkpt lat="42.317395" lon="1.904201">
        <ele>2455</ele>
        <time>2020-07-12T10:20:06.057Z</time>
      </trkpt>
      <trkpt lat="42.317325" lon="1.904335">
        <ele>2455</ele>
        <time>2020-07-12T10:20:14.057Z</time>
      </trkpt>
      <trkpt lat="42.317223" lon="1.904472">
        <ele>2454</ele>
        <time>2020-07-12T10:20:22.058Z</time>
      </trkpt>
      <trkpt lat="42.317143" lon="1.90466">
        <ele>2452</ele>
        <time>2020-07-12T10:20:34.057Z</time>
      </trkpt>
      <trkpt lat="42.317054" lon="1.904767">
        <ele>2450</ele>
        <time>2020-07-12T10:20:42.057Z</time>
      </trkpt>
      <trkpt lat="42.316994" lon="1.904861">
        <ele>2449</ele>
        <time>2020-07-12T10:20:50.062Z</time>
      </trkpt>
      <trkpt lat="42.316834" lon="1.905041">
        <ele>2445</ele>
        <time>2020-07-12T10:21:04.057Z</time>
      </trkpt>
      <trkpt lat="42.316747" lon="1.90516">
        <ele>2444</ele>
        <time>2020-07-12T10:21:12.057Z</time>
      </trkpt>
      <trkpt lat="42.316644" lon="1.905249">
        <ele>2444</ele>
        <time>2020-07-12T10:21:20.057Z</time>
      </trkpt>
      <trkpt lat="42.316547" lon="1.905339">
        <ele>2443</ele>
        <time>2020-07-12T10:21:28.057Z</time>
      </trkpt>
      <trkpt lat="42.316462" lon="1.90545">
        <ele>2440.2630016</ele>
        <time>2020-07-12T10:21:36.057Z</time>
      </trkpt>
      <trkpt lat="42.316333" lon="1.905608">
        <ele>2438</ele>
        <time>2020-07-12T10:21:48.057Z</time>
      </trkpt>
      <trkpt lat="42.316252" lon="1.905724">
        <ele>2435.5260032</ele>
        <time>2020-07-12T10:21:56.057Z</time>
      </trkpt>
      <trkpt lat="42.316177" lon="1.905851">
        <ele>2433</ele>
        <time>2020-07-12T10:22:04.057Z</time>
      </trkpt>
      <trkpt lat="42.316018" lon="1.905964">
        <ele>2432</ele>
        <time>2020-07-12T10:22:16.057Z</time>
      </trkpt>
      <trkpt lat="42.315845" lon="1.906058">
        <ele>2428</ele>
        <time>2020-07-12T10:22:28.057Z</time>
      </trkpt>
      <trkpt lat="42.315735" lon="1.906141">
        <ele>2425.2630016</ele>
        <time>2020-07-12T10:22:36.057Z</time>
      </trkpt>
      <trkpt lat="42.315623" lon="1.906213">
        <ele>2424</ele>
        <time>2020-07-12T10:22:44.057Z</time>
      </trkpt>
      <trkpt lat="42.315513" lon="1.906288">
        <ele>2421</ele>
        <time>2020-07-12T10:22:52.057Z</time>
      </trkpt>
      <trkpt lat="42.315414" lon="1.906368">
        <ele>2420</ele>
        <time>2020-07-12T10:23:00.057Z</time>
      </trkpt>
      <trkpt lat="42.315308" lon="1.906446">
        <ele>2418</ele>
        <time>2020-07-12T10:23:08.057Z</time>
      </trkpt>
      <trkpt lat="42.315209" lon="1.906524">
        <ele>2417</ele>
        <time>2020-07-12T10:23:16.057Z</time>
      </trkpt>
      <trkpt lat="42.315112" lon="1.906608">
        <ele>2413</ele>
        <time>2020-07-12T10:23:24.057Z</time>
      </trkpt>
      <trkpt lat="42.315028" lon="1.906714">
        <ele>2410</ele>
        <time>2020-07-12T10:23:32.057Z</time>
      </trkpt>
      <trkpt lat="42.314947" lon="1.90682">
        <ele>2409</ele>
        <time>2020-07-12T10:23:40.057Z</time>
      </trkpt>
      <trkpt lat="42.314827" lon="1.906952">
        <ele>2404</ele>
        <time>2020-07-12T10:23:52.057Z</time>
      </trkpt>
      <trkpt lat="42.314739" lon="1.907028">
        <ele>2403</ele>
        <time>2020-07-12T10:24:00.057Z</time>
      </trkpt>
      <trkpt lat="42.314675" lon="1.907116">
        <ele>2400</ele>
        <time>2020-07-12T10:24:08.057Z</time>
      </trkpt>
      <trkpt lat="42.314606" lon="1.907192">
        <ele>2396.2630016</ele>
        <time>2020-07-12T10:24:16.057Z</time>
      </trkpt>
      <trkpt lat="42.314482" lon="1.907287">
        <ele>2394</ele>
        <time>2020-07-12T10:24:28.057Z</time>
      </trkpt>
      <trkpt lat="42.314389" lon="1.907346">
        <ele>2390.5260032</ele>
        <time>2020-07-12T10:24:36.057Z</time>
      </trkpt>
      <trkpt lat="42.314288" lon="1.907379">
        <ele>2388</ele>
        <time>2020-07-12T10:24:44.057Z</time>
      </trkpt>
      <trkpt lat="42.3142" lon="1.907421">
        <ele>2387</ele>
        <time>2020-07-12T10:24:52.057Z</time>
      </trkpt>
      <trkpt lat="42.314098" lon="1.907451">
        <ele>2387</ele>
        <time>2020-07-12T10:25:00.057Z</time>
      </trkpt>
      <trkpt lat="42.313949" lon="1.907456">
        <ele>2378</ele>
        <time>2020-07-12T10:25:12.057Z</time>
      </trkpt>
      <trkpt lat="42.313831" lon="1.907411">
        <ele>2376</ele>
        <time>2020-07-12T10:25:23.953Z</time>
      </trkpt>
      <trkpt lat="42.313726" lon="1.907484">
        <ele>2373</ele>
        <time>2020-07-12T10:25:32.057Z</time>
      </trkpt>
      <trkpt lat="42.31362" lon="1.907516">
        <ele>2371</ele>
        <time>2020-07-12T10:25:40.057Z</time>
      </trkpt>
      <trkpt lat="42.313503" lon="1.907527">
        <ele>2369</ele>
        <time>2020-07-12T10:25:47.956Z</time>
      </trkpt>
      <trkpt lat="42.313355" lon="1.907537">
        <ele>2366.5260032</ele>
        <time>2020-07-12T10:25:56.057Z</time>
      </trkpt>
      <trkpt lat="42.313218" lon="1.90755">
        <ele>2364</ele>
        <time>2020-07-12T10:26:04.057Z</time>
      </trkpt>
      <trkpt lat="42.313078" lon="1.907631">
        <ele>2363</ele>
        <time>2020-07-12T10:26:12.057Z</time>
      </trkpt>
      <trkpt lat="42.312973" lon="1.907745">
        <ele>2363</ele>
        <time>2020-07-12T10:26:20.158Z</time>
      </trkpt>
      <trkpt lat="42.312846" lon="1.907813">
        <ele>2359</ele>
        <time>2020-07-12T10:26:27.955Z</time>
      </trkpt>
      <trkpt lat="42.312715" lon="1.907856">
        <ele>2357.3640064</ele>
        <time>2020-07-12T10:26:35.956Z</time>
      </trkpt>
      <trkpt lat="42.312585" lon="1.907913">
        <ele>2356</ele>
        <time>2020-07-12T10:26:47.956Z</time>
      </trkpt>
      <trkpt lat="42.312432" lon="1.908008">
        <ele>2356</ele>
        <time>2020-07-12T10:26:56.159Z</time>
      </trkpt>
      <trkpt lat="42.312327" lon="1.908057">
        <ele>2356</ele>
        <time>2020-07-12T10:27:03.955Z</time>
      </trkpt>
      <trkpt lat="42.312249" lon="1.908227">
        <ele>2356</ele>
        <time>2020-07-12T10:27:11.956Z</time>
      </trkpt>
      <trkpt lat="42.312122" lon="1.908311">
        <ele>2355</ele>
        <time>2020-07-12T10:27:23.956Z</time>
      </trkpt>
      <trkpt lat="42.312022" lon="1.908325">
        <ele>2357</ele>
        <time>2020-07-12T10:27:32.159Z</time>
      </trkpt>
      <trkpt lat="42.311999" lon="1.908503">
        <ele>2359</ele>
        <time>2020-07-12T10:27:44.159Z</time>
      </trkpt>
      <trkpt lat="42.311929" lon="1.908618">
        <ele>2360</ele>
        <time>2020-07-12T10:27:56.158Z</time>
      </trkpt>
      <trkpt lat="42.31183" lon="1.908688">
        <ele>2364.6349952</ele>
        <time>2020-07-12T10:28:15.955Z</time>
      </trkpt>
      <trkpt lat="42.311738" lon="1.908744">
        <ele>2365</ele>
        <time>2020-07-12T10:28:27.955Z</time>
      </trkpt>
      <trkpt lat="42.311649" lon="1.908883">
        <ele>2371</ele>
        <time>2020-07-12T10:28:47.956Z</time>
      </trkpt>
      <trkpt lat="42.311529" lon="1.908952">
        <ele>2373</ele>
        <time>2020-07-12T10:29:03.956Z</time>
      </trkpt>
      <trkpt lat="42.311432" lon="1.909009">
        <ele>2376</ele>
        <time>2020-07-12T10:29:23.956Z</time>
      </trkpt>
      <trkpt lat="42.311385" lon="1.909129">
        <ele>2381</ele>
        <time>2020-07-12T10:29:44.254Z</time>
      </trkpt>
      <trkpt lat="42.311373" lon="1.909272">
        <ele>2384</ele>
        <time>2020-07-12T10:30:00.255Z</time>
      </trkpt>
      <trkpt lat="42.311322" lon="1.909413">
        <ele>2387</ele>
        <time>2020-07-12T10:30:16.255Z</time>
      </trkpt>
      <trkpt lat="42.311245" lon="1.909517">
        <ele>2389</ele>
        <time>2020-07-12T10:30:28.057Z</time>
      </trkpt>
      <trkpt lat="42.311179" lon="1.909626">
        <ele>2391</ele>
        <time>2020-07-12T10:30:44.057Z</time>
      </trkpt>
      <trkpt lat="42.311126" lon="1.909764">
        <ele>2394</ele>
        <time>2020-07-12T10:31:00.253Z</time>
      </trkpt>
      <trkpt lat="42.311069" lon="1.909898">
        <ele>2398</ele>
        <time>2020-07-12T10:31:24.253Z</time>
      </trkpt>
      <trkpt lat="42.31099" lon="1.909998">
        <ele>2399</ele>
        <time>2020-07-12T10:31:40.255Z</time>
      </trkpt>
      <trkpt lat="42.310908" lon="1.910086">
        <ele>2402</ele>
        <time>2020-07-12T10:31:52.255Z</time>
      </trkpt>
      <trkpt lat="42.310818" lon="1.910163">
        <ele>2406</ele>
        <time>2020-07-12T10:32:12.255Z</time>
      </trkpt>
      <trkpt lat="42.310734" lon="1.910296">
        <ele>2408</ele>
        <time>2020-07-12T10:32:28.254Z</time>
      </trkpt>
      <trkpt lat="42.310635" lon="1.910454">
        <ele>2405</ele>
        <time>2020-07-12T10:32:44.252Z</time>
      </trkpt>
      <trkpt lat="42.310543" lon="1.910556">
        <ele>2401.0649984</ele>
        <time>2020-07-12T10:32:56.255Z</time>
      </trkpt>
      <trkpt lat="42.310501" lon="1.91072">
        <ele>2401</ele>
        <time>2020-07-12T10:33:08.254Z</time>
      </trkpt>
      <trkpt lat="42.310425" lon="1.910833">
        <ele>2398</ele>
        <time>2020-07-12T10:33:20.253Z</time>
      </trkpt>
      <trkpt lat="42.310385" lon="1.910968">
        <ele>2395</ele>
        <time>2020-07-12T10:33:28.057Z</time>
      </trkpt>
      <trkpt lat="42.31026" lon="1.911143">
        <ele>2394</ele>
        <time>2020-07-12T10:33:40.057Z</time>
      </trkpt>
      <trkpt lat="42.310199" lon="1.911264">
        <ele>2393</ele>
        <time>2020-07-12T10:33:51.859Z</time>
      </trkpt>
      <trkpt lat="42.310158" lon="1.91143">
        <ele>2393</ele>
        <time>2020-07-12T10:33:59.860Z</time>
      </trkpt>
      <trkpt lat="42.310088" lon="1.911542">
        <ele>2390</ele>
        <time>2020-07-12T10:34:11.861Z</time>
      </trkpt>
      <trkpt lat="42.30998" lon="1.911613">
        <ele>2390</ele>
        <time>2020-07-12T10:34:23.863Z</time>
      </trkpt>
      <trkpt lat="42.309835" lon="1.911674">
        <ele>2391</ele>
        <time>2020-07-12T10:34:35.861Z</time>
      </trkpt>
      <trkpt lat="42.309704" lon="1.911699">
        <ele>2391</ele>
        <time>2020-07-12T10:34:43.860Z</time>
      </trkpt>
      <trkpt lat="42.309588" lon="1.911748">
        <ele>2387.4600064</ele>
        <time>2020-07-12T10:34:55.860Z</time>
      </trkpt>
      <trkpt lat="42.309502" lon="1.911831">
        <ele>2385</ele>
        <time>2020-07-12T10:35:07.860Z</time>
      </trkpt>
      <trkpt lat="42.309453" lon="1.911947">
        <ele>2384</ele>
        <time>2020-07-12T10:35:19.861Z</time>
      </trkpt>
      <trkpt lat="42.309314" lon="1.911937">
        <ele>2382</ele>
        <time>2020-07-12T10:35:35.859Z</time>
      </trkpt>
      <trkpt lat="42.309204" lon="1.911955">
        <ele>2376</ele>
        <time>2020-07-12T10:35:47.859Z</time>
      </trkpt>
      <trkpt lat="42.309088" lon="1.911937">
        <ele>2372.9220096</ele>
        <time>2020-07-12T10:35:55.859Z</time>
      </trkpt>
      <trkpt lat="42.308952" lon="1.911908">
        <ele>2370</ele>
        <time>2020-07-12T10:36:07.859Z</time>
      </trkpt>
      <trkpt lat="42.308854" lon="1.911891">
        <ele>2369</ele>
        <time>2020-07-12T10:36:15.860Z</time>
      </trkpt>
      <trkpt lat="42.308708" lon="1.911772">
        <ele>2368</ele>
        <time>2020-07-12T10:36:27.861Z</time>
      </trkpt>
      <trkpt lat="42.308538" lon="1.911828">
        <ele>2364</ele>
        <time>2020-07-12T10:36:39.860Z</time>
      </trkpt>
      <trkpt lat="42.308402" lon="1.9119">
        <ele>2363</ele>
        <time>2020-07-12T10:36:51.858Z</time>
      </trkpt>
      <trkpt lat="42.308233" lon="1.912">
        <ele>2363</ele>
        <time>2020-07-12T10:37:03.862Z</time>
      </trkpt>
      <trkpt lat="42.308083" lon="1.911909">
        <ele>2363</ele>
        <time>2020-07-12T10:37:11.057Z</time>
      </trkpt>
      <trkpt lat="42.307987" lon="1.911954">
        <ele>2363</ele>
        <time>2020-07-12T10:37:19.057Z</time>
      </trkpt>
      <trkpt lat="42.307866" lon="1.912035">
        <ele>2361</ele>
        <time>2020-07-12T10:37:31.861Z</time>
      </trkpt>
      <trkpt lat="42.307785" lon="1.912131">
        <ele>2361</ele>
        <time>2020-07-12T10:37:39.860Z</time>
      </trkpt>
      <trkpt lat="42.307597" lon="1.912122">
        <ele>2358</ele>
        <time>2020-07-12T10:37:51.861Z</time>
      </trkpt>
      <trkpt lat="42.307467" lon="1.912141">
        <ele>2356</ele>
        <time>2020-07-12T10:38:03.862Z</time>
      </trkpt>
      <trkpt lat="42.307362" lon="1.912227">
        <ele>2355</ele>
        <time>2020-07-12T10:38:11.860Z</time>
      </trkpt>
      <trkpt lat="42.307242" lon="1.912305">
        <ele>2351</ele>
        <time>2020-07-12T10:38:23.862Z</time>
      </trkpt>
      <trkpt lat="42.30714" lon="1.912335">
        <ele>2348</ele>
        <time>2020-07-12T10:38:31.860Z</time>
      </trkpt>
      <trkpt lat="42.307049" lon="1.912392">
        <ele>2344</ele>
        <time>2020-07-12T10:38:43.861Z</time>
      </trkpt>
      <trkpt lat="42.306936" lon="1.912427">
        <ele>2342</ele>
        <time>2020-07-12T10:38:51.862Z</time>
      </trkpt>
      <trkpt lat="42.306806" lon="1.912331">
        <ele>2342</ele>
        <time>2020-07-12T10:39:00.057Z</time>
      </trkpt>
      <trkpt lat="42.306703" lon="1.912228">
        <ele>2338</ele>
        <time>2020-07-12T10:39:12.057Z</time>
      </trkpt>
      <trkpt lat="42.306634" lon="1.912126">
        <ele>2334</ele>
        <time>2020-07-12T10:39:23.861Z</time>
      </trkpt>
      <trkpt lat="42.30654" lon="1.912202">
        <ele>2331.4589952</ele>
        <time>2020-07-12T10:39:35.861Z</time>
      </trkpt>
      <trkpt lat="42.306446" lon="1.91216">
        <ele>2327</ele>
        <time>2020-07-12T10:39:52.057Z</time>
      </trkpt>
      <trkpt lat="42.306348" lon="1.912229">
        <ele>2321</ele>
        <time>2020-07-12T10:40:04.057Z</time>
      </trkpt>
      <trkpt lat="42.306266" lon="1.912126">
        <ele>2320</ele>
        <time>2020-07-12T10:40:16.057Z</time>
      </trkpt>
      <trkpt lat="42.306154" lon="1.912072">
        <ele>2312.2630016</ele>
        <time>2020-07-12T10:40:36.057Z</time>
      </trkpt>
      <trkpt lat="42.306076" lon="1.911979">
        <ele>2310</ele>
        <time>2020-07-12T10:40:44.057Z</time>
      </trkpt>
      <trkpt lat="42.306022" lon="1.91184">
        <ele>2306</ele>
        <time>2020-07-12T10:40:52.057Z</time>
      </trkpt>
      <trkpt lat="42.306003" lon="1.911705">
        <ele>2303</ele>
        <time>2020-07-12T10:41:04.057Z</time>
      </trkpt>
      <trkpt lat="42.305939" lon="1.91156">
        <ele>2295</ele>
        <time>2020-07-12T10:41:24.057Z</time>
      </trkpt>
      <trkpt lat="42.305827" lon="1.911392">
        <ele>2290.2630016</ele>
        <time>2020-07-12T10:41:36.057Z</time>
      </trkpt>
      <trkpt lat="42.305769" lon="1.911264">
        <ele>2286</ele>
        <time>2020-07-12T10:41:47.861Z</time>
      </trkpt>
      <trkpt lat="42.305723" lon="1.911052">
        <ele>2282</ele>
        <time>2020-07-12T10:42:03.860Z</time>
      </trkpt>
      <trkpt lat="42.305637" lon="1.910973">
        <ele>2278.9200128</ele>
        <time>2020-07-12T10:42:15.860Z</time>
      </trkpt>
      <trkpt lat="42.305559" lon="1.910886">
        <ele>2269</ele>
        <time>2020-07-12T10:42:39.859Z</time>
      </trkpt>
      <trkpt lat="42.305431" lon="1.910803">
        <ele>2261.9220096</ele>
        <time>2020-07-12T10:42:55.859Z</time>
      </trkpt>
      <trkpt lat="42.305293" lon="1.910709">
        <ele>2258</ele>
        <time>2020-07-12T10:43:03.861Z</time>
      </trkpt>
      <trkpt lat="42.305181" lon="1.910704">
        <ele>2255</ele>
        <time>2020-07-12T10:43:11.860Z</time>
      </trkpt>
      <trkpt lat="42.305084" lon="1.910661">
        <ele>2252</ele>
        <time>2020-07-12T10:43:23.859Z</time>
      </trkpt>
      <trkpt lat="42.30496" lon="1.910591">
        <ele>2246.9220096</ele>
        <time>2020-07-12T10:43:35.859Z</time>
      </trkpt>
      <trkpt lat="42.30487" lon="1.910523">
        <ele>2244</ele>
        <time>2020-07-12T10:43:43.859Z</time>
      </trkpt>
      <trkpt lat="42.304774" lon="1.910598">
        <ele>2240</ele>
        <time>2020-07-12T10:43:51.859Z</time>
      </trkpt>
      <trkpt lat="42.304687" lon="1.91052">
        <ele>2234.4600064</ele>
        <time>2020-07-12T10:44:03.860Z</time>
      </trkpt>
      <trkpt lat="42.3046" lon="1.910375">
        <ele>2231.9200128</ele>
        <time>2020-07-12T10:44:15.860Z</time>
      </trkpt>
      <trkpt lat="42.304505" lon="1.910334">
        <ele>2229</ele>
        <time>2020-07-12T10:44:23.861Z</time>
      </trkpt>
      <trkpt lat="42.304383" lon="1.910278">
        <ele>2224.3800192</ele>
        <time>2020-07-12T10:44:35.860Z</time>
      </trkpt>
      <trkpt lat="42.304301" lon="1.910179">
        <ele>2221</ele>
        <time>2020-07-12T10:44:43.861Z</time>
      </trkpt>
      <trkpt lat="42.304184" lon="1.910131">
        <ele>2216.4600064</ele>
        <time>2020-07-12T10:44:55.860Z</time>
      </trkpt>
      <trkpt lat="42.304126" lon="1.910014">
        <ele>2215</ele>
        <time>2020-07-12T10:45:03.859Z</time>
      </trkpt>
      <trkpt lat="42.30403" lon="1.909945">
        <ele>2215</ele>
        <time>2020-07-12T10:45:11.861Z</time>
      </trkpt>
      <trkpt lat="42.303945" lon="1.909754">
        <ele>2211</ele>
        <time>2020-07-12T10:45:27.859Z</time>
      </trkpt>
      <trkpt lat="42.303844" lon="1.909721">
        <ele>2208.9179904</ele>
        <time>2020-07-12T10:45:35.861Z</time>
      </trkpt>
      <trkpt lat="42.303706" lon="1.909562">
        <ele>2207</ele>
        <time>2020-07-12T10:45:43.859Z</time>
      </trkpt>
      <trkpt lat="42.303573" lon="1.909472">
        <ele>2204.4589952</ele>
        <time>2020-07-12T10:45:55.861Z</time>
      </trkpt>
      <trkpt lat="42.303479" lon="1.909418">
        <ele>2203</ele>
        <time>2020-07-12T10:46:03.859Z</time>
      </trkpt>
      <trkpt lat="42.303368" lon="1.909365">
        <ele>2202</ele>
        <time>2020-07-12T10:46:11.860Z</time>
      </trkpt>
      <trkpt lat="42.303241" lon="1.90932">
        <ele>2202</ele>
        <time>2020-07-12T10:46:19.861Z</time>
      </trkpt>
      <trkpt lat="42.303127" lon="1.909173">
        <ele>2200</ele>
        <time>2020-07-12T10:46:31.860Z</time>
      </trkpt>
      <trkpt lat="42.303001" lon="1.909106">
        <ele>2199</ele>
        <time>2020-07-12T10:46:43.862Z</time>
      </trkpt>
      <trkpt lat="42.30294" lon="1.908955">
        <ele>2194</ele>
        <time>2020-07-12T10:46:59.861Z</time>
      </trkpt>
      <trkpt lat="42.302801" lon="1.908955">
        <ele>2188</ele>
        <time>2020-07-12T10:47:11.860Z</time>
      </trkpt>
      <trkpt lat="42.30268" lon="1.908849">
        <ele>2186</ele>
        <time>2020-07-12T10:47:23.861Z</time>
      </trkpt>
      <trkpt lat="42.302562" lon="1.908726">
        <ele>2181.4589952</ele>
        <time>2020-07-12T10:47:35.861Z</time>
      </trkpt>
      <trkpt lat="42.302501" lon="1.908593">
        <ele>2178</ele>
        <time>2020-07-12T10:47:43.860Z</time>
      </trkpt>
      <trkpt lat="42.302402" lon="1.908557">
        <ele>2174.3800192</ele>
        <time>2020-07-12T10:47:55.860Z</time>
      </trkpt>
      <trkpt lat="42.302306" lon="1.908476">
        <ele>2168</ele>
        <time>2020-07-12T10:48:11.860Z</time>
      </trkpt>
      <trkpt lat="42.302158" lon="1.908428">
        <ele>2164</ele>
        <time>2020-07-12T10:48:23.862Z</time>
      </trkpt>
      <trkpt lat="42.302108" lon="1.908256">
        <ele>2160</ele>
        <time>2020-07-12T10:48:31.858Z</time>
      </trkpt>
      <trkpt lat="42.302057" lon="1.908101">
        <ele>2157</ele>
        <time>2020-07-12T10:48:43.861Z</time>
      </trkpt>
      <trkpt lat="42.30197" lon="1.90801">
        <ele>2153</ele>
        <time>2020-07-12T10:48:51.859Z</time>
      </trkpt>
      <trkpt lat="42.301951" lon="1.907833">
        <ele>2145.9159936</ele>
        <time>2020-07-12T10:49:03.862Z</time>
      </trkpt>
      <trkpt lat="42.301866" lon="1.907683">
        <ele>2143</ele>
        <time>2020-07-12T10:49:11.862Z</time>
      </trkpt>
      <trkpt lat="42.301778" lon="1.907516">
        <ele>2136</ele>
        <time>2020-07-12T10:49:23.858Z</time>
      </trkpt>
      <trkpt lat="42.30175" lon="1.907319">
        <ele>2133</ele>
        <time>2020-07-12T10:49:31.860Z</time>
      </trkpt>
      <trkpt lat="42.301721" lon="1.907139">
        <ele>2129</ele>
        <time>2020-07-12T10:49:43.859Z</time>
      </trkpt>
      <trkpt lat="42.301656" lon="1.907033">
        <ele>2125</ele>
        <time>2020-07-12T10:49:51.861Z</time>
      </trkpt>
      <trkpt lat="42.301611" lon="1.906818">
        <ele>2121</ele>
        <time>2020-07-12T10:50:04.057Z</time>
      </trkpt>
      <trkpt lat="42.301629" lon="1.906673">
        <ele>2117</ele>
        <time>2020-07-12T10:50:12.057Z</time>
      </trkpt>
      <trkpt lat="42.301649" lon="1.906528">
        <ele>2116</ele>
        <time>2020-07-12T10:50:20.058Z</time>
      </trkpt>
      <trkpt lat="42.30166" lon="1.906336">
        <ele>2113</ele>
        <time>2020-07-12T10:50:28.858Z</time>
      </trkpt>
      <trkpt lat="42.301717" lon="1.906207">
        <ele>2109.9199872</ele>
        <time>2020-07-12T10:50:40.860Z</time>
      </trkpt>
      <trkpt lat="42.301671" lon="1.906066">
        <ele>2107</ele>
        <time>2020-07-12T10:50:52.859Z</time>
      </trkpt>
      <trkpt lat="42.301596" lon="1.905934">
        <ele>2102</ele>
        <time>2020-07-12T10:51:16.860Z</time>
      </trkpt>
      <trkpt lat="42.301515" lon="1.905819">
        <ele>2100</ele>
        <time>2020-07-12T10:51:56.861Z</time>
      </trkpt>
      <trkpt lat="42.301409" lon="1.905761">
        <ele>2093</ele>
        <time>2020-07-12T10:52:33.860Z</time>
      </trkpt>
      <trkpt lat="42.301349" lon="1.90564">
        <ele>2088.9200128</ele>
        <time>2020-07-12T10:52:45.860Z</time>
      </trkpt>
      <trkpt lat="42.301251" lon="1.905559">
        <ele>2086</ele>
        <time>2020-07-12T10:52:57.859Z</time>
      </trkpt>
      <trkpt lat="42.301198" lon="1.905444">
        <ele>2083.4610048</ele>
        <time>2020-07-12T10:53:05.859Z</time>
      </trkpt>
      <trkpt lat="42.301124" lon="1.905282">
        <ele>2081</ele>
        <time>2020-07-12T10:53:13.861Z</time>
      </trkpt>
      <trkpt lat="42.301068" lon="1.905121">
        <ele>2077</ele>
        <time>2020-07-12T10:53:21.859Z</time>
      </trkpt>
      <trkpt lat="42.301096" lon="1.904936">
        <ele>2076</ele>
        <time>2020-07-12T10:53:29.861Z</time>
      </trkpt>
      <trkpt lat="42.30111" lon="1.904765">
        <ele>2070</ele>
        <time>2020-07-12T10:53:41.858Z</time>
      </trkpt>
      <trkpt lat="42.301094" lon="1.904608">
        <ele>2066</ele>
        <time>2020-07-12T10:53:53.862Z</time>
      </trkpt>
      <trkpt lat="42.301144" lon="1.904468">
        <ele>2059.4610048</ele>
        <time>2020-07-12T10:54:05.859Z</time>
      </trkpt>
      <trkpt lat="42.301099" lon="1.904338">
        <ele>2058</ele>
        <time>2020-07-12T10:54:13.858Z</time>
      </trkpt>
      <trkpt lat="42.301073" lon="1.904148">
        <ele>2054.2630016</ele>
        <time>2020-07-12T10:54:26.057Z</time>
      </trkpt>
      <trkpt lat="42.300978" lon="1.903974">
        <ele>2054</ele>
        <time>2020-07-12T10:54:38.057Z</time>
      </trkpt>
      <trkpt lat="42.300875" lon="1.903702">
        <ele>2052</ele>
        <time>2020-07-12T10:54:50.057Z</time>
      </trkpt>
      <trkpt lat="42.30091" lon="1.903533">
        <ele>2049</ele>
        <time>2020-07-12T10:55:01.861Z</time>
      </trkpt>
      <trkpt lat="42.300834" lon="1.903417">
        <ele>2048</ele>
        <time>2020-07-12T10:55:09.859Z</time>
      </trkpt>
      <trkpt lat="42.300846" lon="1.903234">
        <ele>2045</ele>
        <time>2020-07-12T10:55:17.857Z</time>
      </trkpt>
      <trkpt lat="42.300805" lon="1.903082">
        <ele>2044.5389952</ele>
        <time>2020-07-12T10:55:25.859Z</time>
      </trkpt>
      <trkpt lat="42.300758" lon="1.902961">
        <ele>2045</ele>
        <time>2020-07-12T10:55:33.860Z</time>
      </trkpt>
      <trkpt lat="42.300648" lon="1.902758">
        <ele>2038</ele>
        <time>2020-07-12T10:55:53.861Z</time>
      </trkpt>
      <trkpt lat="42.30062" lon="1.90254">
        <ele>2036</ele>
        <time>2020-07-12T10:56:05.057Z</time>
      </trkpt>
      <trkpt lat="42.300624" lon="1.902378">
        <ele>2035</ele>
        <time>2020-07-12T10:56:17.057Z</time>
      </trkpt>
      <trkpt lat="42.300574" lon="1.90226">
        <ele>2032</ele>
        <time>2020-07-12T10:56:24.862Z</time>
      </trkpt>
      <trkpt lat="42.300479" lon="1.902138">
        <ele>2030</ele>
        <time>2020-07-12T10:56:32.861Z</time>
      </trkpt>
      <trkpt lat="42.300442" lon="1.901978">
        <ele>2028</ele>
        <time>2020-07-12T10:56:45.057Z</time>
      </trkpt>
      <trkpt lat="42.300364" lon="1.901881">
        <ele>2026</ele>
        <time>2020-07-12T10:56:54.057Z</time>
      </trkpt>
      <trkpt lat="42.300297" lon="1.901743">
        <ele>2022.2630016</ele>
        <time>2020-07-12T10:57:06.057Z</time>
      </trkpt>
      <trkpt lat="42.300288" lon="1.901485">
        <ele>2021</ele>
        <time>2020-07-12T10:57:18.057Z</time>
      </trkpt>
      <trkpt lat="42.300286" lon="1.901271">
        <ele>2021</ele>
        <time>2020-07-12T10:57:29.057Z</time>
      </trkpt>
      <trkpt lat="42.300286" lon="1.901057">
        <ele>2020</ele>
        <time>2020-07-12T10:57:39.251Z</time>
      </trkpt>
      <trkpt lat="42.300317" lon="1.900914">
        <ele>2017</ele>
        <time>2020-07-12T10:57:47.057Z</time>
      </trkpt>
      <trkpt lat="42.3004" lon="1.90081">
        <ele>2015</ele>
        <time>2020-07-12T10:57:59.057Z</time>
      </trkpt>
      <trkpt lat="42.300474" lon="1.900652">
        <ele>2013</ele>
        <time>2020-07-12T10:58:09.057Z</time>
      </trkpt>
      <trkpt lat="42.300439" lon="1.900525">
        <ele>2012</ele>
        <time>2020-07-12T10:58:15.057Z</time>
      </trkpt>
      <trkpt lat="42.300366" lon="1.900368">
        <ele>2010</ele>
        <time>2020-07-12T10:58:23.058Z</time>
      </trkpt>
      <trkpt lat="42.300274" lon="1.900151">
        <ele>2007</ele>
        <time>2020-07-12T10:58:34.057Z</time>
      </trkpt>
      <trkpt lat="42.300217" lon="1.899968">
        <ele>2004.0679936</ele>
        <time>2020-07-12T10:58:46.252Z</time>
      </trkpt>
      <trkpt lat="42.300138" lon="1.899825">
        <ele>2003</ele>
        <time>2020-07-12T10:58:54.254Z</time>
      </trkpt>
      <trkpt lat="42.300088" lon="1.899688">
        <ele>2001</ele>
        <time>2020-07-12T10:59:04.861Z</time>
      </trkpt>
      <trkpt lat="42.300019" lon="1.899588">
        <ele>2000</ele>
        <time>2020-07-12T10:59:16.860Z</time>
      </trkpt>
      <trkpt lat="42.299919" lon="1.899462">
        <ele>2000</ele>
        <time>2020-07-12T10:59:27.355Z</time>
      </trkpt>
      <trkpt lat="42.299851" lon="1.899318">
        <ele>2001</ele>
        <time>2020-07-12T10:59:35.057Z</time>
      </trkpt>
      <trkpt lat="42.299778" lon="1.899206">
        <ele>2000</ele>
        <time>2020-07-12T10:59:43.057Z</time>
      </trkpt>
      <trkpt lat="42.299719" lon="1.899086">
        <ele>1997</ele>
        <time>2020-07-12T10:59:55.057Z</time>
      </trkpt>
      <trkpt lat="42.299684" lon="1.898952">
        <ele>1994</ele>
        <time>2020-07-12T11:00:03.057Z</time>
      </trkpt>
      <trkpt lat="42.299626" lon="1.898823">
        <ele>1992.2630016</ele>
        <time>2020-07-12T11:00:11.057Z</time>
      </trkpt>
      <trkpt lat="42.299565" lon="1.898701">
        <ele>1992</ele>
        <time>2020-07-12T11:00:21.057Z</time>
      </trkpt>
      <trkpt lat="42.299523" lon="1.898409">
        <ele>1991</ele>
        <time>2020-07-12T11:00:37.057Z</time>
      </trkpt>
      <trkpt lat="42.29955" lon="1.898255">
        <ele>1989</ele>
        <time>2020-07-12T11:00:45.057Z</time>
      </trkpt>
      <trkpt lat="42.2995" lon="1.898">
        <ele>1989</ele>
        <time>2020-07-12T11:00:57.057Z</time>
      </trkpt>
      <trkpt lat="42.299413" lon="1.897754">
        <ele>1986</ele>
        <time>2020-07-12T11:01:05.252Z</time>
      </trkpt>
      <trkpt lat="42.299321" lon="1.897569">
        <ele>1984</ele>
        <time>2020-07-12T11:01:22.057Z</time>
      </trkpt>
      <trkpt lat="42.299266" lon="1.897435">
        <ele>1984</ele>
        <time>2020-07-12T11:01:30.057Z</time>
      </trkpt>
      <trkpt lat="42.299131" lon="1.897317">
        <ele>1979</ele>
        <time>2020-07-12T11:01:38.057Z</time>
      </trkpt>
      <trkpt lat="42.299056" lon="1.897215">
        <ele>1978.2630016</ele>
        <time>2020-07-12T11:01:46.057Z</time>
      </trkpt>
      <trkpt lat="42.298959" lon="1.897131">
        <ele>1976</ele>
        <time>2020-07-12T11:01:58.058Z</time>
      </trkpt>
      <trkpt lat="42.298816" lon="1.89713">
        <ele>1975</ele>
        <time>2020-07-12T11:02:08.057Z</time>
      </trkpt>
      <trkpt lat="42.298716" lon="1.897104">
        <ele>1973</ele>
        <time>2020-07-12T11:02:16.057Z</time>
      </trkpt>
      <trkpt lat="42.298568" lon="1.896974">
        <ele>1972</ele>
        <time>2020-07-12T11:02:28.057Z</time>
      </trkpt>
      <trkpt lat="42.298442" lon="1.896892">
        <ele>1968</ele>
        <time>2020-07-12T11:02:42.057Z</time>
      </trkpt>
      <trkpt lat="42.298366" lon="1.896744">
        <ele>1965</ele>
        <time>2020-07-12T11:02:54.057Z</time>
      </trkpt>
      <trkpt lat="42.298278" lon="1.896615">
        <ele>1963</ele>
        <time>2020-07-12T11:03:02.057Z</time>
      </trkpt>
      <trkpt lat="42.298191" lon="1.896516">
        <ele>1963</ele>
        <time>2020-07-12T11:03:10.057Z</time>
      </trkpt>
      <trkpt lat="42.2981" lon="1.896372">
        <ele>1961</ele>
        <time>2020-07-12T11:03:19.057Z</time>
      </trkpt>
      <trkpt lat="42.297986" lon="1.896314">
        <ele>1960</ele>
        <time>2020-07-12T11:03:27.057Z</time>
      </trkpt>
      <trkpt lat="42.297867" lon="1.896228">
        <ele>1959</ele>
        <time>2020-07-12T11:03:35.057Z</time>
      </trkpt>
      <trkpt lat="42.297761" lon="1.896146">
        <ele>1957</ele>
        <time>2020-07-12T11:03:45.253Z</time>
      </trkpt>
      <trkpt lat="42.297663" lon="1.896072">
        <ele>1954</ele>
        <time>2020-07-12T11:03:57.057Z</time>
      </trkpt>
      <trkpt lat="42.297574" lon="1.896">
        <ele>1952</ele>
        <time>2020-07-12T11:04:03.057Z</time>
      </trkpt>
      <trkpt lat="42.297477" lon="1.895946">
        <ele>1951.2630016</ele>
        <time>2020-07-12T11:04:11.057Z</time>
      </trkpt>
      <trkpt lat="42.29738" lon="1.895853">
        <ele>1951</ele>
        <time>2020-07-12T11:04:19.057Z</time>
      </trkpt>
      <trkpt lat="42.297286" lon="1.895735">
        <ele>1950</ele>
        <time>2020-07-12T11:04:27.057Z</time>
      </trkpt>
      <trkpt lat="42.297192" lon="1.895584">
        <ele>1949</ele>
        <time>2020-07-12T11:04:39.057Z</time>
      </trkpt>
      <trkpt lat="42.297095" lon="1.895457">
        <ele>1945.5260032</ele>
        <time>2020-07-12T11:04:51.057Z</time>
      </trkpt>
      <trkpt lat="42.29699" lon="1.895422">
        <ele>1945</ele>
        <time>2020-07-12T11:04:57.057Z</time>
      </trkpt>
      <trkpt lat="42.296888" lon="1.895231">
        <ele>1941</ele>
        <time>2020-07-12T11:05:05.057Z</time>
      </trkpt>
      <trkpt lat="42.296745" lon="1.895086">
        <ele>1940</ele>
        <time>2020-07-12T11:05:13.058Z</time>
      </trkpt>
      <trkpt lat="42.296652" lon="1.894962">
        <ele>1940</ele>
        <time>2020-07-12T11:05:29.057Z</time>
      </trkpt>
      <trkpt lat="42.296574" lon="1.894872">
        <ele>1941</ele>
        <time>2020-07-12T11:05:37.057Z</time>
      </trkpt>
      <trkpt lat="42.296492" lon="1.894767">
        <ele>1942</ele>
        <time>2020-07-12T11:05:45.057Z</time>
      </trkpt>
      <trkpt lat="42.296377" lon="1.894649">
        <ele>1941</ele>
        <time>2020-07-12T11:05:57.057Z</time>
      </trkpt>
      <trkpt lat="42.296322" lon="1.894532">
        <ele>1940</ele>
        <time>2020-07-12T11:06:05.057Z</time>
      </trkpt>
      <trkpt lat="42.296214" lon="1.894455">
        <ele>1939</ele>
        <time>2020-07-12T11:06:13.057Z</time>
      </trkpt>
      <trkpt lat="42.296141" lon="1.89429">
        <ele>1937.5260032</ele>
        <time>2020-07-12T11:06:21.057Z</time>
      </trkpt>
      <trkpt lat="42.2961" lon="1.894123">
        <ele>1937</ele>
        <time>2020-07-12T11:06:29.057Z</time>
      </trkpt>
      <trkpt lat="42.296019" lon="1.893948">
        <ele>1934</ele>
        <time>2020-07-12T11:06:45.057Z</time>
      </trkpt>
      <trkpt lat="42.295947" lon="1.893813">
        <ele>1933</ele>
        <time>2020-07-12T11:06:53.058Z</time>
      </trkpt>
      <trkpt lat="42.295827" lon="1.893767">
        <ele>1933</ele>
        <time>2020-07-12T11:07:05.057Z</time>
      </trkpt>
      <trkpt lat="42.29574" lon="1.893682">
        <ele>1934</ele>
        <time>2020-07-12T11:07:13.057Z</time>
      </trkpt>
      <trkpt lat="42.29565" lon="1.893593">
        <ele>1932.5260032</ele>
        <time>2020-07-12T11:07:21.057Z</time>
      </trkpt>
      <trkpt lat="42.295546" lon="1.893562">
        <ele>1932</ele>
        <time>2020-07-12T11:07:29.057Z</time>
      </trkpt>
      <trkpt lat="42.295446" lon="1.893436">
        <ele>1930</ele>
        <time>2020-07-12T11:07:41.057Z</time>
      </trkpt>
      <trkpt lat="42.295321" lon="1.893403">
        <ele>1929</ele>
        <time>2020-07-12T11:07:49.057Z</time>
      </trkpt>
      <trkpt lat="42.295246" lon="1.893283">
        <ele>1929</ele>
        <time>2020-07-12T11:07:57.057Z</time>
      </trkpt>
      <trkpt lat="42.295106" lon="1.89316">
        <ele>1928</ele>
        <time>2020-07-12T11:08:05.057Z</time>
      </trkpt>
      <trkpt lat="42.294987" lon="1.893113">
        <ele>1927</ele>
        <time>2020-07-12T11:08:12.057Z</time>
      </trkpt>
      <trkpt lat="42.294869" lon="1.893065">
        <ele>1927</ele>
        <time>2020-07-12T11:08:19.862Z</time>
      </trkpt>
      <trkpt lat="42.294744" lon="1.892978">
        <ele>1926</ele>
        <time>2020-07-12T11:08:31.860Z</time>
      </trkpt>
      <trkpt lat="42.294613" lon="1.892956">
        <ele>1923</ele>
        <time>2020-07-12T11:08:43.861Z</time>
      </trkpt>
      <trkpt lat="42.294353" lon="1.892905">
        <ele>1921</ele>
        <time>2020-07-12T11:08:55.861Z</time>
      </trkpt>
      <trkpt lat="42.294241" lon="1.892865">
        <ele>1918</ele>
        <time>2020-07-12T11:09:03.862Z</time>
      </trkpt>
      <trkpt lat="42.294167" lon="1.892711">
        <ele>1916</ele>
        <time>2020-07-12T11:09:16.057Z</time>
      </trkpt>
      <trkpt lat="42.294091" lon="1.892588">
        <ele>1914</ele>
        <time>2020-07-12T11:09:24.057Z</time>
      </trkpt>
      <trkpt lat="42.293981" lon="1.892458">
        <ele>1912</ele>
        <time>2020-07-12T11:09:32.057Z</time>
      </trkpt>
      <trkpt lat="42.293874" lon="1.892394">
        <ele>1912</ele>
        <time>2020-07-12T11:09:40.057Z</time>
      </trkpt>
      <trkpt lat="42.293756" lon="1.892271">
        <ele>1908</ele>
        <time>2020-07-12T11:09:48.057Z</time>
      </trkpt>
      <trkpt lat="42.293644" lon="1.892211">
        <ele>1907</ele>
        <time>2020-07-12T11:09:56.057Z</time>
      </trkpt>
      <trkpt lat="42.29356" lon="1.892033">
        <ele>1902</ele>
        <time>2020-07-12T11:10:04.057Z</time>
      </trkpt>
      <trkpt lat="42.293496" lon="1.891881">
        <ele>1900</ele>
        <time>2020-07-12T11:10:12.957Z</time>
      </trkpt>
      <trkpt lat="42.293358" lon="1.89176">
        <ele>1898</ele>
        <time>2020-07-12T11:10:25.057Z</time>
      </trkpt>
      <trkpt lat="42.293245" lon="1.89166">
        <ele>1897</ele>
        <time>2020-07-12T11:10:37.057Z</time>
      </trkpt>
      <trkpt lat="42.293159" lon="1.891525">
        <ele>1895</ele>
        <time>2020-07-12T11:10:45.057Z</time>
      </trkpt>
      <trkpt lat="42.293079" lon="1.891368">
        <ele>1892</ele>
        <time>2020-07-12T11:10:53.057Z</time>
      </trkpt>
      <trkpt lat="42.293077" lon="1.891206">
        <ele>1889.2630016</ele>
        <time>2020-07-12T11:11:01.057Z</time>
      </trkpt>
      <trkpt lat="42.292974" lon="1.891111">
        <ele>1888</ele>
        <time>2020-07-12T11:11:09.057Z</time>
      </trkpt>
      <trkpt lat="42.292891" lon="1.890916">
        <ele>1887</ele>
        <time>2020-07-12T11:11:17.057Z</time>
      </trkpt>
      <trkpt lat="42.29285" lon="1.890762">
        <ele>1886</ele>
        <time>2020-07-12T11:11:25.057Z</time>
      </trkpt>
      <trkpt lat="42.292819" lon="1.890594">
        <ele>1885</ele>
        <time>2020-07-12T11:11:33.057Z</time>
      </trkpt>
      <trkpt lat="42.292775" lon="1.890415">
        <ele>1884.2630016</ele>
        <time>2020-07-12T11:11:41.057Z</time>
      </trkpt>
      <trkpt lat="42.292734" lon="1.890278">
        <ele>1884</ele>
        <time>2020-07-12T11:11:49.057Z</time>
      </trkpt>
      <trkpt lat="42.292705" lon="1.890079">
        <ele>1884</ele>
        <time>2020-07-12T11:11:57.057Z</time>
      </trkpt>
      <trkpt lat="42.292682" lon="1.889929">
        <ele>1881</ele>
        <time>2020-07-12T11:12:05.057Z</time>
      </trkpt>
      <trkpt lat="42.292638" lon="1.889722">
        <ele>1880</ele>
        <time>2020-07-12T11:12:13.057Z</time>
      </trkpt>
      <trkpt lat="42.29257" lon="1.889542">
        <ele>1878.5260032</ele>
        <time>2020-07-12T11:12:21.057Z</time>
      </trkpt>
      <trkpt lat="42.292526" lon="1.889385">
        <ele>1877</ele>
        <time>2020-07-12T11:12:33.057Z</time>
      </trkpt>
      <trkpt lat="42.29247" lon="1.889259">
        <ele>1875.5260032</ele>
        <time>2020-07-12T11:12:41.057Z</time>
      </trkpt>
      <trkpt lat="42.292361" lon="1.889118">
        <ele>1871</ele>
        <time>2020-07-12T11:12:57.057Z</time>
      </trkpt>
      <trkpt lat="42.292345" lon="1.888916">
        <ele>1868</ele>
        <time>2020-07-12T11:13:07.057Z</time>
      </trkpt>
      <trkpt lat="42.292266" lon="1.888731">
        <ele>1865</ele>
        <time>2020-07-12T11:13:19.057Z</time>
      </trkpt>
      <trkpt lat="42.292172" lon="1.888601">
        <ele>1860</ele>
        <time>2020-07-12T11:13:32.057Z</time>
      </trkpt>
      <trkpt lat="42.292116" lon="1.88835">
        <ele>1858</ele>
        <time>2020-07-12T11:13:46.858Z</time>
      </trkpt>
      <trkpt lat="42.292097" lon="1.88814">
        <ele>1850</ele>
        <time>2020-07-12T11:14:02.863Z</time>
      </trkpt>
      <trkpt lat="42.292017" lon="1.888002">
        <ele>1848.3709952</ele>
        <time>2020-07-12T11:14:10.863Z</time>
      </trkpt>
      <trkpt lat="42.291885" lon="1.88786">
        <ele>1846</ele>
        <time>2020-07-12T11:14:18.861Z</time>
      </trkpt>
      <trkpt lat="42.291851" lon="1.887617">
        <ele>1842.7890048</ele>
        <time>2020-07-12T11:14:31.057Z</time>
      </trkpt>
      <trkpt lat="42.291787" lon="1.887469">
        <ele>1841</ele>
        <time>2020-07-12T11:14:39.057Z</time>
      </trkpt>
      <trkpt lat="42.29172" lon="1.887341">
        <ele>1838</ele>
        <time>2020-07-12T11:14:53.057Z</time>
      </trkpt>
      <trkpt lat="42.291656" lon="1.887213">
        <ele>1833</ele>
        <time>2020-07-12T11:15:04.057Z</time>
      </trkpt>
      <trkpt lat="42.291616" lon="1.887065">
        <ele>1829</ele>
        <time>2020-07-12T11:15:23.057Z</time>
      </trkpt>
      <trkpt lat="42.291559" lon="1.886914">
        <ele>1826</ele>
        <time>2020-07-12T11:15:35.057Z</time>
      </trkpt>
      <trkpt lat="42.291471" lon="1.886819">
        <ele>1823</ele>
        <time>2020-07-12T11:15:43.057Z</time>
      </trkpt>
      <trkpt lat="42.29147" lon="1.886643">
        <ele>1820.5260032</ele>
        <time>2020-07-12T11:15:51.057Z</time>
      </trkpt>
      <trkpt lat="42.291588" lon="1.886553">
        <ele>1819</ele>
        <time>2020-07-12T11:15:59.058Z</time>
      </trkpt>
      <trkpt lat="42.291684" lon="1.886434">
        <ele>1815.2630016</ele>
        <time>2020-07-12T11:16:11.057Z</time>
      </trkpt>
      <trkpt lat="42.291581" lon="1.886372">
        <ele>1808</ele>
        <time>2020-07-12T11:16:35.057Z</time>
      </trkpt>
      <trkpt lat="42.291525" lon="1.886262">
        <ele>1805</ele>
        <time>2020-07-12T11:16:43.057Z</time>
      </trkpt>
      <trkpt lat="42.291414" lon="1.886141">
        <ele>1801</ele>
        <time>2020-07-12T11:16:55.057Z</time>
      </trkpt>
      <trkpt lat="42.291259" lon="1.886093">
        <ele>1798</ele>
        <time>2020-07-12T11:17:11.057Z</time>
      </trkpt>
      <trkpt lat="42.291113" lon="1.886002">
        <ele>1795</ele>
        <time>2020-07-12T11:17:23.057Z</time>
      </trkpt>
      <trkpt lat="42.290992" lon="1.885987">
        <ele>1795</ele>
        <time>2020-07-12T11:17:31.057Z</time>
      </trkpt>
      <trkpt lat="42.290881" lon="1.886015">
        <ele>1795</ele>
        <time>2020-07-12T11:17:39.057Z</time>
      </trkpt>
      <trkpt lat="42.290751" lon="1.886013">
        <ele>1793</ele>
        <time>2020-07-12T11:17:47.057Z</time>
      </trkpt>
      <trkpt lat="42.290621" lon="1.886215">
        <ele>1792</ele>
        <time>2020-07-12T11:17:59.057Z</time>
      </trkpt>
      <trkpt lat="42.290516" lon="1.886334">
        <ele>1788.0669952</ele>
        <time>2020-07-12T11:18:11.253Z</time>
      </trkpt>
      <trkpt lat="42.290424" lon="1.886407">
        <ele>1788</ele>
        <time>2020-07-12T11:18:19.057Z</time>
      </trkpt>
      <trkpt lat="42.290364" lon="1.886573">
        <ele>1788</ele>
        <time>2020-07-12T11:18:30.057Z</time>
      </trkpt>
      <trkpt lat="42.290201" lon="1.886727">
        <ele>1784</ele>
        <time>2020-07-12T11:18:45.057Z</time>
      </trkpt>
      <trkpt lat="42.290059" lon="1.886823">
        <ele>1784</ele>
        <time>2020-07-12T11:18:55.057Z</time>
      </trkpt>
      <trkpt lat="42.289948" lon="1.886833">
        <ele>1780</ele>
        <time>2020-07-12T11:19:03.057Z</time>
      </trkpt>
      <trkpt lat="42.289838" lon="1.886862">
        <ele>1780.2630016</ele>
        <time>2020-07-12T11:19:11.057Z</time>
      </trkpt>
      <trkpt lat="42.289768" lon="1.886753">
        <ele>1772.79697196938</ele>
        <time>2020-07-12T11:19:31.057Z</time>
      </trkpt>
      <trkpt lat="42.289657" lon="1.886663">
        <ele>1768</ele>
        <time>2020-07-12T11:19:43.057Z</time>
      </trkpt>
      <trkpt lat="42.289628" lon="1.886517">
        <ele>1765</ele>
        <time>2020-07-12T11:19:55.057Z</time>
      </trkpt>
      <trkpt lat="42.289656" lon="1.886363">
        <ele>1758</ele>
        <time>2020-07-12T11:20:15.057Z</time>
      </trkpt>
      <trkpt lat="42.28962" lon="1.886217">
        <ele>1752</ele>
        <time>2020-07-12T11:20:27.057Z</time>
      </trkpt>
      <trkpt lat="42.289502" lon="1.886117">
        <ele>1746.2630016</ele>
        <time>2020-07-12T11:20:39.057Z</time>
      </trkpt>
      <trkpt lat="42.289436" lon="1.886007">
        <ele>1745</ele>
        <time>2020-07-12T11:20:47.057Z</time>
      </trkpt>
      <trkpt lat="42.2894" lon="1.885854">
        <ele>1737</ele>
        <time>2020-07-12T11:21:03.057Z</time>
      </trkpt>
      <trkpt lat="42.289314" lon="1.885654">
        <ele>1734.5260032</ele>
        <time>2020-07-12T11:21:11.057Z</time>
      </trkpt>
      <trkpt lat="42.289238" lon="1.885554">
        <ele>1731</ele>
        <time>2020-07-12T11:21:19.057Z</time>
      </trkpt>
      <trkpt lat="42.289118" lon="1.885508">
        <ele>1728</ele>
        <time>2020-07-12T11:21:27.056Z</time>
      </trkpt>
      <trkpt lat="42.28901" lon="1.885486">
        <ele>1725</ele>
        <time>2020-07-12T11:21:35.057Z</time>
      </trkpt>
      <trkpt lat="42.288878" lon="1.885382">
        <ele>1721</ele>
        <time>2020-07-12T11:21:43.057Z</time>
      </trkpt>
      <trkpt lat="42.2888" lon="1.88529">
        <ele>1718.5260032</ele>
        <time>2020-07-12T11:21:51.057Z</time>
      </trkpt>
      <trkpt lat="42.288678" lon="1.885292">
        <ele>1717</ele>
        <time>2020-07-12T11:21:59.057Z</time>
      </trkpt>
      <trkpt lat="42.288577" lon="1.885389">
        <ele>1710.7890048</ele>
        <time>2020-07-12T11:22:11.057Z</time>
      </trkpt>
      <trkpt lat="42.288558" lon="1.88556">
        <ele>1708</ele>
        <time>2020-07-12T11:22:23.057Z</time>
      </trkpt>
      <trkpt lat="42.288567" lon="1.88571">
        <ele>1706.5260032</ele>
        <time>2020-07-12T11:22:31.057Z</time>
      </trkpt>
      <trkpt lat="42.288522" lon="1.885849">
        <ele>1702</ele>
        <time>2020-07-12T11:22:59.057Z</time>
      </trkpt>
      <trkpt lat="42.288406" lon="1.885815">
        <ele>1696.7890048</ele>
        <time>2020-07-12T11:23:11.057Z</time>
      </trkpt>
      <trkpt lat="42.288346" lon="1.885679">
        <ele>1695</ele>
        <time>2020-07-12T11:23:19.057Z</time>
      </trkpt>
      <trkpt lat="42.288267" lon="1.885499">
        <ele>1694</ele>
        <time>2020-07-12T11:23:27.057Z</time>
      </trkpt>
      <trkpt lat="42.288211" lon="1.885632">
        <ele>1691</ele>
        <time>2020-07-12T11:23:47.057Z</time>
      </trkpt>
      <trkpt lat="42.288122" lon="1.885569">
        <ele>1688</ele>
        <time>2020-07-12T11:23:55.057Z</time>
      </trkpt>
      <trkpt lat="42.287976" lon="1.885515">
        <ele>1681.7890048</ele>
        <time>2020-07-12T11:24:11.057Z</time>
      </trkpt>
      <trkpt lat="42.287919" lon="1.885385">
        <ele>1680</ele>
        <time>2020-07-12T11:24:19.057Z</time>
      </trkpt>
      <trkpt lat="42.287805" lon="1.885335">
        <ele>1676.7890048</ele>
        <time>2020-07-12T11:24:31.057Z</time>
      </trkpt>
      <trkpt lat="42.287702" lon="1.885214">
        <ele>1672</ele>
        <time>2020-07-12T11:24:43.057Z</time>
      </trkpt>
      <trkpt lat="42.287616" lon="1.885075">
        <ele>1668</ele>
        <time>2020-07-12T11:24:55.057Z</time>
      </trkpt>
      <trkpt lat="42.287506" lon="1.884993">
        <ele>1664</ele>
        <time>2020-07-12T11:25:18.057Z</time>
      </trkpt>
      <trkpt lat="42.287405" lon="1.884975">
        <ele>1659</ele>
        <time>2020-07-12T11:25:34.057Z</time>
      </trkpt>
      <trkpt lat="42.28734" lon="1.884982">
        <ele>1659</ele>
        <time>2020-07-12T11:25:46.057Z</time>
      </trkpt>
      <trkpt lat="42.287331" lon="1.88498">
        <ele>0</ele>
        <time>2020-07-12T11:25:47.057Z</time>
      </trkpt>
      <trkpt lat="42.287166" lon="1.885134">
        <ele>1635.19995117188</ele>
        <time>2020-07-13T05:07:59.055Z</time>
      </trkpt>
      <trkpt lat="42.287136" lon="1.885188">
        <ele>1635</ele>
        <time>2020-07-13T05:08:28.055Z</time>
      </trkpt>
      <trkpt lat="42.287072" lon="1.885297">
        <ele>1635</ele>
        <time>2020-07-13T05:08:38.055Z</time>
      </trkpt>
      <trkpt lat="42.287019" lon="1.885422">
        <ele>1635</ele>
        <time>2020-07-13T05:08:46.055Z</time>
      </trkpt>
      <trkpt lat="42.286966" lon="1.885536">
        <ele>1634</ele>
        <time>2020-07-13T05:08:54.055Z</time>
      </trkpt>
      <trkpt lat="42.286907" lon="1.885654">
        <ele>1635</ele>
        <time>2020-07-13T05:09:02.055Z</time>
      </trkpt>
      <trkpt lat="42.28686" lon="1.885782">
        <ele>1635.1250048</ele>
        <time>2020-07-13T05:09:11.055Z</time>
      </trkpt>
      <trkpt lat="42.286788" lon="1.885897">
        <ele>1636</ele>
        <time>2020-07-13T05:09:19.055Z</time>
      </trkpt>
      <trkpt lat="42.286766" lon="1.885979">
        <ele>1637</ele>
        <time>2020-07-13T05:10:00.055Z</time>
      </trkpt>
      <trkpt lat="42.286723" lon="1.886056">
        <ele>1635</ele>
        <time>2020-07-13T05:10:05.055Z</time>
      </trkpt>
      <trkpt lat="42.28667" lon="1.88615">
        <ele>1635</ele>
        <time>2020-07-13T05:10:11.055Z</time>
      </trkpt>
      <trkpt lat="42.286622" lon="1.88627">
        <ele>1635</ele>
        <time>2020-07-13T05:10:18.055Z</time>
      </trkpt>
      <trkpt lat="42.286578" lon="1.886374">
        <ele>1635</ele>
        <time>2020-07-13T05:10:28.055Z</time>
      </trkpt>
      <trkpt lat="42.286518" lon="1.886486">
        <ele>1634</ele>
        <time>2020-07-13T05:10:35.055Z</time>
      </trkpt>
      <trkpt lat="42.286439" lon="1.886671">
        <ele>1633</ele>
        <time>2020-07-13T05:10:46.055Z</time>
      </trkpt>
      <trkpt lat="42.286426" lon="1.886794">
        <ele>1634</ele>
        <time>2020-07-13T05:10:53.055Z</time>
      </trkpt>
      <trkpt lat="42.286431" lon="1.886886">
        <ele>1634</ele>
        <time>2020-07-13T05:10:58.055Z</time>
      </trkpt>
      <trkpt lat="42.286428" lon="1.886982">
        <ele>1631</ele>
        <time>2020-07-13T05:11:03.055Z</time>
      </trkpt>
      <trkpt lat="42.286424" lon="1.887075">
        <ele>1631</ele>
        <time>2020-07-13T05:11:09.055Z</time>
      </trkpt>
      <trkpt lat="42.286344" lon="1.887113">
        <ele>1629.6249856</ele>
        <time>2020-07-13T05:11:21.055Z</time>
      </trkpt>
      <trkpt lat="42.286264" lon="1.887059">
        <ele>1625.8749952</ele>
        <time>2020-07-13T05:11:31.055Z</time>
      </trkpt>
      <trkpt lat="42.2862" lon="1.88699">
        <ele>1624.8749952</ele>
        <time>2020-07-13T05:11:36.055Z</time>
      </trkpt>
      <trkpt lat="42.286153" lon="1.886912">
        <ele>1623.8749952</ele>
        <time>2020-07-13T05:11:41.055Z</time>
      </trkpt>
      <trkpt lat="42.286106" lon="1.886802">
        <ele>1623</ele>
        <time>2020-07-13T05:11:49.055Z</time>
      </trkpt>
      <trkpt lat="42.286026" lon="1.886711">
        <ele>1616</ele>
        <time>2020-07-13T05:12:07.055Z</time>
      </trkpt>
      <trkpt lat="42.285918" lon="1.886674">
        <ele>1612</ele>
        <time>2020-07-13T05:12:24.055Z</time>
      </trkpt>
      <trkpt lat="42.285828" lon="1.886611">
        <ele>1609</ele>
        <time>2020-07-13T05:12:33.055Z</time>
      </trkpt>
      <trkpt lat="42.285754" lon="1.886523">
        <ele>1608</ele>
        <time>2020-07-13T05:12:43.055Z</time>
      </trkpt>
      <trkpt lat="42.28568" lon="1.886422">
        <ele>1607.8749952</ele>
        <time>2020-07-13T05:12:51.055Z</time>
      </trkpt>
      <trkpt lat="42.28559" lon="1.886351">
        <ele>1607</ele>
        <time>2020-07-13T05:12:57.055Z</time>
      </trkpt>
      <trkpt lat="42.285496" lon="1.886302">
        <ele>1603</ele>
        <time>2020-07-13T05:13:05.055Z</time>
      </trkpt>
      <trkpt lat="42.285412" lon="1.88622">
        <ele>1603</ele>
        <time>2020-07-13T05:13:12.055Z</time>
      </trkpt>
      <trkpt lat="42.285318" lon="1.886167">
        <ele>1603</ele>
        <time>2020-07-13T05:13:19.055Z</time>
      </trkpt>
      <trkpt lat="42.285233" lon="1.8861">
        <ele>1601</ele>
        <time>2020-07-13T05:13:26.055Z</time>
      </trkpt>
      <trkpt lat="42.285138" lon="1.886045">
        <ele>1600</ele>
        <time>2020-07-13T05:13:33.055Z</time>
      </trkpt>
      <trkpt lat="42.28504" lon="1.885986">
        <ele>1600</ele>
        <time>2020-07-13T05:13:40.055Z</time>
      </trkpt>
      <trkpt lat="42.284946" lon="1.88592">
        <ele>1598</ele>
        <time>2020-07-13T05:13:47.055Z</time>
      </trkpt>
      <trkpt lat="42.284907" lon="1.885834">
        <ele>1599</ele>
        <time>2020-07-13T05:14:09.055Z</time>
      </trkpt>
      <trkpt lat="42.284955" lon="1.885733">
        <ele>1597</ele>
        <time>2020-07-13T05:14:20.055Z</time>
      </trkpt>
      <trkpt lat="42.285064" lon="1.885694">
        <ele>1595</ele>
        <time>2020-07-13T05:14:28.055Z</time>
      </trkpt>
      <trkpt lat="42.285178" lon="1.885672">
        <ele>1593</ele>
        <time>2020-07-13T05:14:37.055Z</time>
      </trkpt>
      <trkpt lat="42.285286" lon="1.885663">
        <ele>1590</ele>
        <time>2020-07-13T05:14:45.055Z</time>
      </trkpt>
      <trkpt lat="42.285377" lon="1.885596">
        <ele>1587</ele>
        <time>2020-07-13T05:14:53.055Z</time>
      </trkpt>
      <trkpt lat="42.28548" lon="1.885583">
        <ele>1586</ele>
        <time>2020-07-13T05:14:59.055Z</time>
      </trkpt>
      <trkpt lat="42.285574" lon="1.885539">
        <ele>1584</ele>
        <time>2020-07-13T05:15:08.055Z</time>
      </trkpt>
      <trkpt lat="42.285611" lon="1.885412">
        <ele>1583</ele>
        <time>2020-07-13T05:15:16.055Z</time>
      </trkpt>
      <trkpt lat="42.285644" lon="1.885276">
        <ele>1582</ele>
        <time>2020-07-13T05:15:24.055Z</time>
      </trkpt>
      <trkpt lat="42.285714" lon="1.885193">
        <ele>1581.6249856</ele>
        <time>2020-07-13T05:15:31.055Z</time>
      </trkpt>
      <trkpt lat="42.28563" lon="1.885152">
        <ele>1577</ele>
        <time>2020-07-13T05:15:52.055Z</time>
      </trkpt>
      <trkpt lat="42.285538" lon="1.885124">
        <ele>1575</ele>
        <time>2020-07-13T05:15:59.055Z</time>
      </trkpt>
      <trkpt lat="42.285439" lon="1.885103">
        <ele>1572</ele>
        <time>2020-07-13T05:16:06.055Z</time>
      </trkpt>
      <trkpt lat="42.285364" lon="1.885043">
        <ele>1571</ele>
        <time>2020-07-13T05:16:12.055Z</time>
      </trkpt>
      <trkpt lat="42.285303" lon="1.884938">
        <ele>1571</ele>
        <time>2020-07-13T05:16:19.055Z</time>
      </trkpt>
      <trkpt lat="42.285245" lon="1.88481">
        <ele>1566</ele>
        <time>2020-07-13T05:16:29.055Z</time>
      </trkpt>
      <trkpt lat="42.285118" lon="1.884674">
        <ele>1560.7499904</ele>
        <time>2020-07-13T05:16:46.055Z</time>
      </trkpt>
      <trkpt lat="42.285035" lon="1.884537">
        <ele>1555</ele>
        <time>2020-07-13T05:16:58.055Z</time>
      </trkpt>
      <trkpt lat="42.284968" lon="1.884428">
        <ele>1553.8749952</ele>
        <time>2020-07-13T05:17:06.055Z</time>
      </trkpt>
      <trkpt lat="42.284959" lon="1.884264">
        <ele>1552</ele>
        <time>2020-07-13T05:17:17.052Z</time>
      </trkpt>
      <trkpt lat="42.284956" lon="1.884116">
        <ele>1547</ele>
        <time>2020-07-13T05:17:35.055Z</time>
      </trkpt>
      <trkpt lat="42.284958" lon="1.883982">
        <ele>1544</ele>
        <time>2020-07-13T05:17:42.055Z</time>
      </trkpt>
      <trkpt lat="42.284987" lon="1.883838">
        <ele>1540</ele>
        <time>2020-07-13T05:17:52.059Z</time>
      </trkpt>
      <trkpt lat="42.284901" lon="1.883723">
        <ele>1536</ele>
        <time>2020-07-13T05:18:04.054Z</time>
      </trkpt>
      <trkpt lat="42.284757" lon="1.883745">
        <ele>1534</ele>
        <time>2020-07-13T05:18:16.055Z</time>
      </trkpt>
      <trkpt lat="42.284676" lon="1.883578">
        <ele>1530</ele>
        <time>2020-07-13T05:18:32.055Z</time>
      </trkpt>
      <trkpt lat="42.284685" lon="1.883433">
        <ele>1528</ele>
        <time>2020-07-13T05:18:44.055Z</time>
      </trkpt>
      <trkpt lat="42.28466" lon="1.883254">
        <ele>1527</ele>
        <time>2020-07-13T05:18:56.055Z</time>
      </trkpt>
      <trkpt lat="42.284644" lon="1.883094">
        <ele>1523</ele>
        <time>2020-07-13T05:19:04.055Z</time>
      </trkpt>
      <trkpt lat="42.284683" lon="1.882905">
        <ele>1521</ele>
        <time>2020-07-13T05:19:14.150Z</time>
      </trkpt>
      <trkpt lat="42.284795" lon="1.88278">
        <ele>1519</ele>
        <time>2020-07-13T05:19:27.055Z</time>
      </trkpt>
      <trkpt lat="42.284817" lon="1.88262">
        <ele>1516</ele>
        <time>2020-07-13T05:19:35.055Z</time>
      </trkpt>
      <trkpt lat="42.284849" lon="1.882473">
        <ele>1510</ele>
        <time>2020-07-13T05:19:47.055Z</time>
      </trkpt>
      <trkpt lat="42.284861" lon="1.882318">
        <ele>1501.8749952</ele>
        <time>2020-07-13T05:20:03.055Z</time>
      </trkpt>
      <trkpt lat="42.284874" lon="1.882148">
        <ele>1498</ele>
        <time>2020-07-13T05:20:19.055Z</time>
      </trkpt>
      <trkpt lat="42.284867" lon="1.881922">
        <ele>1497</ele>
        <time>2020-07-13T05:20:27.055Z</time>
      </trkpt>
      <trkpt lat="42.284888" lon="1.881775">
        <ele>1493</ele>
        <time>2020-07-13T05:20:39.055Z</time>
      </trkpt>
      <trkpt lat="42.284858" lon="1.881646">
        <ele>1488</ele>
        <time>2020-07-13T05:20:48.055Z</time>
      </trkpt>
      <trkpt lat="42.284798" lon="1.881507">
        <ele>1485</ele>
        <time>2020-07-13T05:21:00.055Z</time>
      </trkpt>
      <trkpt lat="42.284692" lon="1.881487">
        <ele>1481</ele>
        <time>2020-07-13T05:21:16.061Z</time>
      </trkpt>
      <trkpt lat="42.284558" lon="1.881495">
        <ele>1477</ele>
        <time>2020-07-13T05:21:35.053Z</time>
      </trkpt>
      <trkpt lat="42.284445" lon="1.881449">
        <ele>1472.7499904</ele>
        <time>2020-07-13T05:21:51.055Z</time>
      </trkpt>
      <trkpt lat="42.284389" lon="1.881289">
        <ele>1469</ele>
        <time>2020-07-13T05:21:59.055Z</time>
      </trkpt>
      <trkpt lat="42.284422" lon="1.881114">
        <ele>1465.8749952</ele>
        <time>2020-07-13T05:22:11.055Z</time>
      </trkpt>
      <trkpt lat="42.284459" lon="1.881252">
        <ele>1464</ele>
        <time>2020-07-13T05:22:22.149Z</time>
      </trkpt>
      <trkpt lat="42.28454" lon="1.881045">
        <ele>1463</ele>
        <time>2020-07-13T05:22:57.055Z</time>
      </trkpt>
      <trkpt lat="42.284472" lon="1.880824">
        <ele>1459</ele>
        <time>2020-07-13T05:23:05.883Z</time>
      </trkpt>
      <trkpt lat="42.284644" lon="1.880776">
        <ele>1457</ele>
        <time>2020-07-13T05:23:16.055Z</time>
      </trkpt>
      <trkpt lat="42.284797" lon="1.880746">
        <ele>1453.8749952</ele>
        <time>2020-07-13T05:23:26.055Z</time>
      </trkpt>
      <trkpt lat="42.284902" lon="1.880722">
        <ele>1452</ele>
        <time>2020-07-13T05:23:38.055Z</time>
      </trkpt>
      <trkpt lat="42.284816" lon="1.880558">
        <ele>1444</ele>
        <time>2020-07-13T05:24:00.055Z</time>
      </trkpt>
      <trkpt lat="42.284706" lon="1.880491">
        <ele>1439</ele>
        <time>2020-07-13T05:24:12.055Z</time>
      </trkpt>
      <trkpt lat="42.284701" lon="1.880309">
        <ele>1438</ele>
        <time>2020-07-13T05:24:24.055Z</time>
      </trkpt>
      <trkpt lat="42.284769" lon="1.88017">
        <ele>1437</ele>
        <time>2020-07-13T05:24:32.055Z</time>
      </trkpt>
      <trkpt lat="42.284894" lon="1.880066">
        <ele>1439</ele>
        <time>2020-07-13T05:24:44.055Z</time>
      </trkpt>
      <trkpt lat="42.285012" lon="1.879902">
        <ele>1440</ele>
        <time>2020-07-13T05:24:59.055Z</time>
      </trkpt>
      <trkpt lat="42.285062" lon="1.879772">
        <ele>1440</ele>
        <time>2020-07-13T05:25:07.055Z</time>
      </trkpt>
      <trkpt lat="42.285148" lon="1.879617">
        <ele>1441</ele>
        <time>2020-07-13T05:25:18.055Z</time>
      </trkpt>
      <trkpt lat="42.28521" lon="1.879446">
        <ele>1443</ele>
        <time>2020-07-13T05:25:29.055Z</time>
      </trkpt>
      <trkpt lat="42.285244" lon="1.879297">
        <ele>1443</ele>
        <time>2020-07-13T05:25:37.055Z</time>
      </trkpt>
      <trkpt lat="42.285266" lon="1.879155">
        <ele>1442</ele>
        <time>2020-07-13T05:25:48.055Z</time>
      </trkpt>
      <trkpt lat="42.285297" lon="1.87897">
        <ele>1437</ele>
        <time>2020-07-13T05:25:59.055Z</time>
      </trkpt>
      <trkpt lat="42.285307" lon="1.878794">
        <ele>1433.8749952</ele>
        <time>2020-07-13T05:26:11.055Z</time>
      </trkpt>
      <trkpt lat="42.285337" lon="1.878629">
        <ele>1430</ele>
        <time>2020-07-13T05:26:27.055Z</time>
      </trkpt>
      <trkpt lat="42.285446" lon="1.878612">
        <ele>1429</ele>
        <time>2020-07-13T05:26:39.055Z</time>
      </trkpt>
      <trkpt lat="42.285492" lon="1.878708">
        <ele>1427</ele>
        <time>2020-07-13T05:26:47.054Z</time>
      </trkpt>
      <trkpt lat="42.285463" lon="1.878556">
        <ele>1422</ele>
        <time>2020-07-13T05:26:58.055Z</time>
      </trkpt>
      <trkpt lat="42.285484" lon="1.878421">
        <ele>1419</ele>
        <time>2020-07-13T05:27:06.055Z</time>
      </trkpt>
      <trkpt lat="42.285502" lon="1.878258">
        <ele>1418</ele>
        <time>2020-07-13T05:27:14.055Z</time>
      </trkpt>
      <trkpt lat="42.285558" lon="1.878123">
        <ele>1417</ele>
        <time>2020-07-13T05:27:22.055Z</time>
      </trkpt>
      <trkpt lat="42.285666" lon="1.878">
        <ele>1417</ele>
        <time>2020-07-13T05:27:30.055Z</time>
      </trkpt>
      <trkpt lat="42.28577" lon="1.877934">
        <ele>1416</ele>
        <time>2020-07-13T05:27:38.055Z</time>
      </trkpt>
      <trkpt lat="42.285877" lon="1.877827">
        <ele>1412</ele>
        <time>2020-07-13T05:27:50.055Z</time>
      </trkpt>
      <trkpt lat="42.285974" lon="1.877726">
        <ele>1407</ele>
        <time>2020-07-13T05:28:02.055Z</time>
      </trkpt>
      <trkpt lat="42.286049" lon="1.87761">
        <ele>1404</ele>
        <time>2020-07-13T05:28:14.055Z</time>
      </trkpt>
      <trkpt lat="42.286129" lon="1.877442">
        <ele>1400.7499904</ele>
        <time>2020-07-13T05:28:26.055Z</time>
      </trkpt>
      <trkpt lat="42.286028" lon="1.877314">
        <ele>1396</ele>
        <time>2020-07-13T05:28:38.055Z</time>
      </trkpt>
      <trkpt lat="42.285899" lon="1.877228">
        <ele>1395</ele>
        <time>2020-07-13T05:28:50.055Z</time>
      </trkpt>
      <trkpt lat="42.285766" lon="1.877147">
        <ele>1391</ele>
        <time>2020-07-13T05:29:02.055Z</time>
      </trkpt>
      <trkpt lat="42.285652" lon="1.877117">
        <ele>1389</ele>
        <time>2020-07-13T05:29:10.055Z</time>
      </trkpt>
      <trkpt lat="42.285553" lon="1.877095">
        <ele>1387</ele>
        <time>2020-07-13T05:29:18.055Z</time>
      </trkpt>
      <trkpt lat="42.285437" lon="1.877078">
        <ele>1383</ele>
        <time>2020-07-13T05:29:28.055Z</time>
      </trkpt>
      <trkpt lat="42.28531" lon="1.877045">
        <ele>1379</ele>
        <time>2020-07-13T05:29:42.055Z</time>
      </trkpt>
      <trkpt lat="42.285224" lon="1.876964">
        <ele>1378</ele>
        <time>2020-07-13T05:29:48.055Z</time>
      </trkpt>
      <trkpt lat="42.285202" lon="1.876792">
        <ele>1375.7499904</ele>
        <time>2020-07-13T05:29:56.055Z</time>
      </trkpt>
      <trkpt lat="42.285296" lon="1.876675">
        <ele>1370</ele>
        <time>2020-07-13T05:30:08.055Z</time>
      </trkpt>
      <trkpt lat="42.28538" lon="1.876574">
        <ele>1368</ele>
        <time>2020-07-13T05:30:16.055Z</time>
      </trkpt>
      <trkpt lat="42.285503" lon="1.876498">
        <ele>1368</ele>
        <time>2020-07-13T05:30:25.055Z</time>
      </trkpt>
      <trkpt lat="42.285616" lon="1.87639">
        <ele>1367</ele>
        <time>2020-07-13T05:30:33.055Z</time>
      </trkpt>
      <trkpt lat="42.28569" lon="1.876278">
        <ele>1366.8749952</ele>
        <time>2020-07-13T05:30:41.055Z</time>
      </trkpt>
      <trkpt lat="42.285789" lon="1.876142">
        <ele>1366</ele>
        <time>2020-07-13T05:30:49.055Z</time>
      </trkpt>
      <trkpt lat="42.285779" lon="1.875968">
        <ele>1364.87623247915</ele>
        <time>2020-07-13T05:31:01.055Z</time>
      </trkpt>
      <trkpt lat="42.285783" lon="1.875805">
        <ele>1362</ele>
        <time>2020-07-13T05:31:13.055Z</time>
      </trkpt>
      <trkpt lat="42.285779" lon="1.875662">
        <ele>1359</ele>
        <time>2020-07-13T05:31:25.055Z</time>
      </trkpt>
      <trkpt lat="42.285804" lon="1.875477">
        <ele>1353</ele>
        <time>2020-07-13T05:31:37.055Z</time>
      </trkpt>
      <trkpt lat="42.285809" lon="1.875266">
        <ele>1348.8749952</ele>
        <time>2020-07-13T05:31:51.055Z</time>
      </trkpt>
      <trkpt lat="42.285801" lon="1.875097">
        <ele>1348</ele>
        <time>2020-07-13T05:31:59.055Z</time>
      </trkpt>
      <trkpt lat="42.285853" lon="1.874955">
        <ele>1343.8749952</ele>
        <time>2020-07-13T05:32:11.055Z</time>
      </trkpt>
      <trkpt lat="42.285857" lon="1.874812">
        <ele>1341</ele>
        <time>2020-07-13T05:32:22.055Z</time>
      </trkpt>
      <trkpt lat="42.285837" lon="1.874636">
        <ele>1341</ele>
        <time>2020-07-13T05:32:30.055Z</time>
      </trkpt>
      <trkpt lat="42.28589" lon="1.874466">
        <ele>1334</ele>
        <time>2020-07-13T05:32:42.055Z</time>
      </trkpt>
      <trkpt lat="42.285902" lon="1.874312">
        <ele>1330</ele>
        <time>2020-07-13T05:33:00.055Z</time>
      </trkpt>
      <trkpt lat="42.28588" lon="1.874131">
        <ele>1325</ele>
        <time>2020-07-13T05:33:12.055Z</time>
      </trkpt>
      <trkpt lat="42.285922" lon="1.873999">
        <ele>1325</ele>
        <time>2020-07-13T05:33:20.053Z</time>
      </trkpt>
      <trkpt lat="42.285901" lon="1.873813">
        <ele>1319</ele>
        <time>2020-07-13T05:33:35.154Z</time>
      </trkpt>
      <trkpt lat="42.285806" lon="1.873688">
        <ele>1311</ele>
        <time>2020-07-13T05:33:57.055Z</time>
      </trkpt>
      <trkpt lat="42.285696" lon="1.87353">
        <ele>1305.6249856</ele>
        <time>2020-07-13T05:34:21.055Z</time>
      </trkpt>
      <trkpt lat="42.2857" lon="1.873349">
        <ele>1301</ele>
        <time>2020-07-13T05:34:34.055Z</time>
      </trkpt>
      <trkpt lat="42.285626" lon="1.873212">
        <ele>1296</ele>
        <time>2020-07-13T05:34:47.055Z</time>
      </trkpt>
      <trkpt lat="42.285605" lon="1.873067">
        <ele>1293.7479936</ele>
        <time>2020-07-13T05:34:56.056Z</time>
      </trkpt>
      <trkpt lat="42.285568" lon="1.872925">
        <ele>1288</ele>
        <time>2020-07-13T05:35:12.055Z</time>
      </trkpt>
      <trkpt lat="42.285539" lon="1.872736">
        <ele>1285</ele>
        <time>2020-07-13T05:35:24.049Z</time>
      </trkpt>
      <trkpt lat="42.285567" lon="1.872548">
        <ele>1281.8749952</ele>
        <time>2020-07-13T05:35:36.055Z</time>
      </trkpt>
      <trkpt lat="42.285444" lon="1.872514">
        <ele>1276</ele>
        <time>2020-07-13T05:35:54.055Z</time>
      </trkpt>
      <trkpt lat="42.285324" lon="1.872402">
        <ele>1272</ele>
        <time>2020-07-13T05:36:02.055Z</time>
      </trkpt>
      <trkpt lat="42.285311" lon="1.872212">
        <ele>1272</ele>
        <time>2020-07-13T05:36:10.055Z</time>
      </trkpt>
      <trkpt lat="42.285322" lon="1.87206">
        <ele>1273</ele>
        <time>2020-07-13T05:36:18.056Z</time>
      </trkpt>
      <trkpt lat="42.285398" lon="1.871879">
        <ele>1272</ele>
        <time>2020-07-13T05:36:29.055Z</time>
      </trkpt>
      <trkpt lat="42.285465" lon="1.871762">
        <ele>1273</ele>
        <time>2020-07-13T05:36:37.055Z</time>
      </trkpt>
      <trkpt lat="42.285584" lon="1.871637">
        <ele>1274</ele>
        <time>2020-07-13T05:36:48.055Z</time>
      </trkpt>
      <trkpt lat="42.285661" lon="1.871517">
        <ele>1275</ele>
        <time>2020-07-13T05:36:56.055Z</time>
      </trkpt>
      <trkpt lat="42.285687" lon="1.871354">
        <ele>1276</ele>
        <time>2020-07-13T05:37:08.055Z</time>
      </trkpt>
      <trkpt lat="42.285641" lon="1.871164">
        <ele>1275</ele>
        <time>2020-07-13T05:37:24.055Z</time>
      </trkpt>
      <trkpt lat="42.285511" lon="1.871062">
        <ele>1271.7499904</ele>
        <time>2020-07-13T05:37:36.055Z</time>
      </trkpt>
      <trkpt lat="42.285444" lon="1.870948">
        <ele>1270</ele>
        <time>2020-07-13T05:37:44.055Z</time>
      </trkpt>
      <trkpt lat="42.285362" lon="1.870769">
        <ele>1266</ele>
        <time>2020-07-13T05:37:57.055Z</time>
      </trkpt>
      <trkpt lat="42.285348" lon="1.870612">
        <ele>1264</ele>
        <time>2020-07-13T05:38:05.055Z</time>
      </trkpt>
      <trkpt lat="42.28527" lon="1.870511">
        <ele>1262</ele>
        <time>2020-07-13T05:38:13.055Z</time>
      </trkpt>
      <trkpt lat="42.285187" lon="1.870434">
        <ele>1262</ele>
        <time>2020-07-13T05:38:20.055Z</time>
      </trkpt>
      <trkpt lat="42.285143" lon="1.870222">
        <ele>1261</ele>
        <time>2020-07-13T05:38:29.055Z</time>
      </trkpt>
      <trkpt lat="42.285238" lon="1.870066">
        <ele>1259.8749952</ele>
        <time>2020-07-13T05:38:41.055Z</time>
      </trkpt>
      <trkpt lat="42.285352" lon="1.869958">
        <ele>1259</ele>
        <time>2020-07-13T05:38:49.164Z</time>
      </trkpt>
      <trkpt lat="42.285437" lon="1.869847">
        <ele>1261</ele>
        <time>2020-07-13T05:38:57.055Z</time>
      </trkpt>
      <trkpt lat="42.285462" lon="1.869682">
        <ele>1262</ele>
        <time>2020-07-13T05:39:09.055Z</time>
      </trkpt>
      <trkpt lat="42.285471" lon="1.869522">
        <ele>1264</ele>
        <time>2020-07-13T05:39:17.053Z</time>
      </trkpt>
      <trkpt lat="42.285567" lon="1.869425">
        <ele>1265</ele>
        <time>2020-07-13T05:39:29.055Z</time>
      </trkpt>
      <trkpt lat="42.285654" lon="1.869296">
        <ele>1267.2500096</ele>
        <time>2020-07-13T05:39:41.055Z</time>
      </trkpt>
      <trkpt lat="42.285764" lon="1.869135">
        <ele>1269</ele>
        <time>2020-07-13T05:39:57.055Z</time>
      </trkpt>
      <trkpt lat="42.285845" lon="1.868988">
        <ele>1271</ele>
        <time>2020-07-13T05:40:05.055Z</time>
      </trkpt>
      <trkpt lat="42.285901" lon="1.86882">
        <ele>1272</ele>
        <time>2020-07-13T05:40:17.049Z</time>
      </trkpt>
      <trkpt lat="42.285917" lon="1.868586">
        <ele>1273</ele>
        <time>2020-07-13T05:40:29.055Z</time>
      </trkpt>
      <trkpt lat="42.285924" lon="1.868438">
        <ele>1272</ele>
        <time>2020-07-13T05:40:37.055Z</time>
      </trkpt>
      <trkpt lat="42.28593" lon="1.868278">
        <ele>1271</ele>
        <time>2020-07-13T05:40:45.053Z</time>
      </trkpt>
      <trkpt lat="42.285981" lon="1.868148">
        <ele>1270</ele>
        <time>2020-07-13T05:40:53.062Z</time>
      </trkpt>
      <trkpt lat="42.286064" lon="1.867986">
        <ele>1270</ele>
        <time>2020-07-13T05:41:01.055Z</time>
      </trkpt>
      <trkpt lat="42.286125" lon="1.867852">
        <ele>1270</ele>
        <time>2020-07-13T05:41:09.055Z</time>
      </trkpt>
      <trkpt lat="42.286176" lon="1.867692">
        <ele>1270</ele>
        <time>2020-07-13T05:41:17.052Z</time>
      </trkpt>
      <trkpt lat="42.286264" lon="1.867479">
        <ele>1270</ele>
        <time>2020-07-13T05:41:29.059Z</time>
      </trkpt>
      <trkpt lat="42.286194" lon="1.867345">
        <ele>1270</ele>
        <time>2020-07-13T05:41:37.047Z</time>
      </trkpt>
      <trkpt lat="42.286096" lon="1.867239">
        <ele>1271</ele>
        <time>2020-07-13T05:41:49.052Z</time>
      </trkpt>
      <trkpt lat="42.285996" lon="1.867159">
        <ele>1270</ele>
        <time>2020-07-13T05:41:57.160Z</time>
      </trkpt>
      <trkpt lat="42.285908" lon="1.867079">
        <ele>1269</ele>
        <time>2020-07-13T05:42:05.055Z</time>
      </trkpt>
      <trkpt lat="42.285837" lon="1.866965">
        <ele>1270</ele>
        <time>2020-07-13T05:42:13.055Z</time>
      </trkpt>
      <trkpt lat="42.28573" lon="1.866805">
        <ele>1269</ele>
        <time>2020-07-13T05:42:25.051Z</time>
      </trkpt>
      <trkpt lat="42.285661" lon="1.866643">
        <ele>1268</ele>
        <time>2020-07-13T05:42:33.055Z</time>
      </trkpt>
      <trkpt lat="42.285617" lon="1.866506">
        <ele>1267.8739968</ele>
        <time>2020-07-13T05:42:41.055Z</time>
      </trkpt>
      <trkpt lat="42.285542" lon="1.866406">
        <ele>1267</ele>
        <time>2020-07-13T05:42:49.056Z</time>
      </trkpt>
      <trkpt lat="42.28546" lon="1.866252">
        <ele>1265</ele>
        <time>2020-07-13T05:43:05.055Z</time>
      </trkpt>
      <trkpt lat="42.285421" lon="1.866118">
        <ele>1265</ele>
        <time>2020-07-13T05:43:13.055Z</time>
      </trkpt>
      <trkpt lat="42.285358" lon="1.865988">
        <ele>1265</ele>
        <time>2020-07-13T05:43:25.053Z</time>
      </trkpt>
      <trkpt lat="42.285364" lon="1.865836">
        <ele>1265.87623247915</ele>
        <time>2020-07-13T05:43:41.055Z</time>
      </trkpt>
      <trkpt lat="42.285349" lon="1.865695">
        <ele>1264</ele>
        <time>2020-07-13T05:44:05.055Z</time>
      </trkpt>
      <trkpt lat="42.285372" lon="1.865545">
        <ele>1264</ele>
        <time>2020-07-13T05:44:13.055Z</time>
      </trkpt>
      <trkpt lat="42.285415" lon="1.865386">
        <ele>1262</ele>
        <time>2020-07-13T05:45:08.055Z</time>
      </trkpt>
      <trkpt lat="42.285444" lon="1.865255">
        <ele>1262</ele>
        <time>2020-07-13T05:45:16.059Z</time>
      </trkpt>
      <trkpt lat="42.285479" lon="1.865125">
        <ele>1261</ele>
        <time>2020-07-13T05:45:24.055Z</time>
      </trkpt>
      <trkpt lat="42.285515" lon="1.864981">
        <ele>1261</ele>
        <time>2020-07-13T05:45:48.055Z</time>
      </trkpt>
      <trkpt lat="42.285571" lon="1.864868">
        <ele>1261</ele>
        <time>2020-07-13T05:45:56.053Z</time>
      </trkpt>
      <trkpt lat="42.285666" lon="1.864811">
        <ele>1261</ele>
        <time>2020-07-13T05:46:20.055Z</time>
      </trkpt>
      <trkpt lat="42.285748" lon="1.86469">
        <ele>1259</ele>
        <time>2020-07-13T05:46:36.055Z</time>
      </trkpt>
      <trkpt lat="42.285857" lon="1.864596">
        <ele>1257</ele>
        <time>2020-07-13T05:46:48.055Z</time>
      </trkpt>
      <trkpt lat="42.286018" lon="1.864505">
        <ele>1256</ele>
        <time>2020-07-13T05:47:00.056Z</time>
      </trkpt>
      <trkpt lat="42.286109" lon="1.864423">
        <ele>1254</ele>
        <time>2020-07-13T05:47:12.048Z</time>
      </trkpt>
      <trkpt lat="42.286096" lon="1.864249">
        <ele>1253.7499904</ele>
        <time>2020-07-13T05:47:21.055Z</time>
      </trkpt>
      <trkpt lat="42.28611" lon="1.864076">
        <ele>1251</ele>
        <time>2020-07-13T05:47:29.055Z</time>
      </trkpt>
      <trkpt lat="42.286096" lon="1.863936">
        <ele>1250</ele>
        <time>2020-07-13T05:47:37.055Z</time>
      </trkpt>
      <trkpt lat="42.286076" lon="1.86379">
        <ele>1248</ele>
        <time>2020-07-13T05:47:45.054Z</time>
      </trkpt>
      <trkpt lat="42.285983" lon="1.863672">
        <ele>1246.7499904</ele>
        <time>2020-07-13T05:48:01.055Z</time>
      </trkpt>
      <trkpt lat="42.285892" lon="1.863572">
        <ele>1245</ele>
        <time>2020-07-13T05:48:09.055Z</time>
      </trkpt>
      <trkpt lat="42.285824" lon="1.863444">
        <ele>1245</ele>
        <time>2020-07-13T05:48:17.056Z</time>
      </trkpt>
      <trkpt lat="42.285735" lon="1.86334">
        <ele>1245</ele>
        <time>2020-07-13T05:48:29.055Z</time>
      </trkpt>
      <trkpt lat="42.285625" lon="1.863205">
        <ele>1244</ele>
        <time>2020-07-13T05:48:37.055Z</time>
      </trkpt>
      <trkpt lat="42.285559" lon="1.863112">
        <ele>1244</ele>
        <time>2020-07-13T05:48:45.055Z</time>
      </trkpt>
      <trkpt lat="42.28546" lon="1.862933">
        <ele>1244</ele>
        <time>2020-07-13T05:48:53.054Z</time>
      </trkpt>
      <trkpt lat="42.285394" lon="1.862644">
        <ele>1241</ele>
        <time>2020-07-13T05:49:09.053Z</time>
      </trkpt>
      <trkpt lat="42.285496" lon="1.862554">
        <ele>1240.7479936</ele>
        <time>2020-07-13T05:49:21.056Z</time>
      </trkpt>
      <trkpt lat="42.285595" lon="1.86238">
        <ele>1239</ele>
        <time>2020-07-13T05:49:29.055Z</time>
      </trkpt>
      <trkpt lat="42.28572" lon="1.862296">
        <ele>1237</ele>
        <time>2020-07-13T05:49:37.055Z</time>
      </trkpt>
      <trkpt lat="42.285823" lon="1.862228">
        <ele>1236</ele>
        <time>2020-07-13T05:49:45.052Z</time>
      </trkpt>
      <trkpt lat="42.285959" lon="1.862158">
        <ele>1235</ele>
        <time>2020-07-13T05:49:56.050Z</time>
      </trkpt>
      <trkpt lat="42.28608" lon="1.862163">
        <ele>1232</ele>
        <time>2020-07-13T05:50:04.055Z</time>
      </trkpt>
      <trkpt lat="42.286174" lon="1.862113">
        <ele>1232</ele>
        <time>2020-07-13T05:50:12.055Z</time>
      </trkpt>
      <trkpt lat="42.28608" lon="1.862038">
        <ele>1229</ele>
        <time>2020-07-13T05:50:24.055Z</time>
      </trkpt>
      <trkpt lat="42.285966" lon="1.862051">
        <ele>1227</ele>
        <time>2020-07-13T05:50:32.055Z</time>
      </trkpt>
      <trkpt lat="42.286102" lon="1.862075">
        <ele>1229</ele>
        <time>2020-07-13T05:51:01.055Z</time>
      </trkpt>
      <trkpt lat="42.286212" lon="1.862188">
        <ele>1230</ele>
        <time>2020-07-13T05:51:13.055Z</time>
      </trkpt>
      <trkpt lat="42.286317" lon="1.862221">
        <ele>1229.8749952</ele>
        <time>2020-07-13T05:51:21.055Z</time>
      </trkpt>
      <trkpt lat="42.286442" lon="1.862255">
        <ele>1229</ele>
        <time>2020-07-13T05:51:29.057Z</time>
      </trkpt>
      <trkpt lat="42.286599" lon="1.862189">
        <ele>1226</ele>
        <time>2020-07-13T05:51:45.158Z</time>
      </trkpt>
      <trkpt lat="42.286688" lon="1.862079">
        <ele>1224</ele>
        <time>2020-07-13T05:51:53.062Z</time>
      </trkpt>
      <trkpt lat="42.286579" lon="1.861934">
        <ele>1223</ele>
        <time>2020-07-13T05:52:18.055Z</time>
      </trkpt>
      <trkpt lat="42.286498" lon="1.861857">
        <ele>1223</ele>
        <time>2020-07-13T05:52:26.058Z</time>
      </trkpt>
      <trkpt lat="42.286336" lon="1.861843">
        <ele>1223</ele>
        <time>2020-07-13T05:52:38.055Z</time>
      </trkpt>
      <trkpt lat="42.286173" lon="1.861792">
        <ele>1219</ele>
        <time>2020-07-13T05:52:53.055Z</time>
      </trkpt>
      <trkpt lat="42.286041" lon="1.861772">
        <ele>1218.4999808</ele>
        <time>2020-07-13T05:53:01.055Z</time>
      </trkpt>
      <trkpt lat="42.285914" lon="1.861698">
        <ele>1213</ele>
        <time>2020-07-13T05:53:13.055Z</time>
      </trkpt>
      <trkpt lat="42.285812" lon="1.861653">
        <ele>1211</ele>
        <time>2020-07-13T05:53:22.058Z</time>
      </trkpt>
      <trkpt lat="42.285857" lon="1.861511">
        <ele>1211</ele>
        <time>2020-07-13T05:53:30.055Z</time>
      </trkpt>
      <trkpt lat="42.285899" lon="1.861381">
        <ele>1210</ele>
        <time>2020-07-13T05:53:37.055Z</time>
      </trkpt>
      <trkpt lat="42.285915" lon="1.861233">
        <ele>1210</ele>
        <time>2020-07-13T05:53:45.055Z</time>
      </trkpt>
      <trkpt lat="42.285882" lon="1.86109">
        <ele>1210</ele>
        <time>2020-07-13T05:53:57.950Z</time>
      </trkpt>
      <trkpt lat="42.285984" lon="1.860819">
        <ele>1209</ele>
        <time>2020-07-13T05:54:08.055Z</time>
      </trkpt>
      <trkpt lat="42.285995" lon="1.860623">
        <ele>1209</ele>
        <time>2020-07-13T05:54:20.055Z</time>
      </trkpt>
      <trkpt lat="42.285993" lon="1.860436">
        <ele>1209</ele>
        <time>2020-07-13T05:54:28.055Z</time>
      </trkpt>
      <trkpt lat="42.285892" lon="1.860282">
        <ele>1209</ele>
        <time>2020-07-13T05:54:40.055Z</time>
      </trkpt>
      <trkpt lat="42.285833" lon="1.860158">
        <ele>1209</ele>
        <time>2020-07-13T05:54:48.055Z</time>
      </trkpt>
      <trkpt lat="42.285797" lon="1.859987">
        <ele>1209</ele>
        <time>2020-07-13T05:54:56.055Z</time>
      </trkpt>
      <trkpt lat="42.285761" lon="1.859825">
        <ele>1210</ele>
        <time>2020-07-13T05:55:07.055Z</time>
      </trkpt>
      <trkpt lat="42.285711" lon="1.859669">
        <ele>1212</ele>
        <time>2020-07-13T05:55:15.055Z</time>
      </trkpt>
      <trkpt lat="42.285657" lon="1.859543">
        <ele>1210</ele>
        <time>2020-07-13T05:55:23.055Z</time>
      </trkpt>
      <trkpt lat="42.285662" lon="1.85939">
        <ele>1209.6249856</ele>
        <time>2020-07-13T05:55:31.055Z</time>
      </trkpt>
      <trkpt lat="42.285608" lon="1.859235">
        <ele>1205</ele>
        <time>2020-07-13T05:55:43.055Z</time>
      </trkpt>
      <trkpt lat="42.285592" lon="1.859045">
        <ele>1203</ele>
        <time>2020-07-13T05:55:52.055Z</time>
      </trkpt>
      <trkpt lat="42.285596" lon="1.858843">
        <ele>1200</ele>
        <time>2020-07-13T05:56:02.055Z</time>
      </trkpt>
      <trkpt lat="42.285614" lon="1.858636">
        <ele>1199.8749952</ele>
        <time>2020-07-13T05:56:11.055Z</time>
      </trkpt>
      <trkpt lat="42.285622" lon="1.858482">
        <ele>1198</ele>
        <time>2020-07-13T05:56:23.055Z</time>
      </trkpt>
      <trkpt lat="42.2856" lon="1.858293">
        <ele>1195</ele>
        <time>2020-07-13T05:56:35.055Z</time>
      </trkpt>
      <trkpt lat="42.285559" lon="1.858101">
        <ele>1193</ele>
        <time>2020-07-13T05:56:45.055Z</time>
      </trkpt>
      <trkpt lat="42.285428" lon="1.858003">
        <ele>1192</ele>
        <time>2020-07-13T05:56:56.055Z</time>
      </trkpt>
      <trkpt lat="42.285338" lon="1.857896">
        <ele>1193</ele>
        <time>2020-07-13T05:57:04.048Z</time>
      </trkpt>
      <trkpt lat="42.2852" lon="1.85783">
        <ele>1192</ele>
        <time>2020-07-13T05:57:18.059Z</time>
      </trkpt>
      <trkpt lat="42.285104" lon="1.857761">
        <ele>1191</ele>
        <time>2020-07-13T05:57:26.056Z</time>
      </trkpt>
      <trkpt lat="42.284996" lon="1.857617">
        <ele>1190</ele>
        <time>2020-07-13T05:57:38.049Z</time>
      </trkpt>
      <trkpt lat="42.284904" lon="1.857475">
        <ele>1189</ele>
        <time>2020-07-13T05:57:46.155Z</time>
      </trkpt>
      <trkpt lat="42.284854" lon="1.857352">
        <ele>1187</ele>
        <time>2020-07-13T05:57:58.056Z</time>
      </trkpt>
      <trkpt lat="42.2848" lon="1.857213">
        <ele>1184</ele>
        <time>2020-07-13T05:58:07.053Z</time>
      </trkpt>
      <trkpt lat="42.284694" lon="1.856988">
        <ele>1183</ele>
        <time>2020-07-13T05:58:19.807Z</time>
      </trkpt>
      <trkpt lat="42.284541" lon="1.856873">
        <ele>1183</ele>
        <time>2020-07-13T05:58:32.055Z</time>
      </trkpt>
      <trkpt lat="42.284444" lon="1.856836">
        <ele>1183</ele>
        <time>2020-07-13T05:58:38.055Z</time>
      </trkpt>
      <trkpt lat="42.284338" lon="1.856769">
        <ele>1183</ele>
        <time>2020-07-13T05:58:47.055Z</time>
      </trkpt>
      <trkpt lat="42.284222" lon="1.856819">
        <ele>1182</ele>
        <time>2020-07-13T05:58:59.055Z</time>
      </trkpt>
      <trkpt lat="42.284116" lon="1.856929">
        <ele>1178.8749952</ele>
        <time>2020-07-13T05:59:11.055Z</time>
      </trkpt>
      <trkpt lat="42.284013" lon="1.856945">
        <ele>1178</ele>
        <time>2020-07-13T05:59:19.055Z</time>
      </trkpt>
      <trkpt lat="42.283841" lon="1.857118">
        <ele>1179</ele>
        <time>2020-07-13T05:59:34.055Z</time>
      </trkpt>
      <trkpt lat="42.283714" lon="1.857219">
        <ele>1179</ele>
        <time>2020-07-13T05:59:45.055Z</time>
      </trkpt>
      <trkpt lat="42.283555" lon="1.85724">
        <ele>1178</ele>
        <time>2020-07-13T05:59:54.055Z</time>
      </trkpt>
      <trkpt lat="42.283404" lon="1.857279">
        <ele>1174</ele>
        <time>2020-07-13T06:00:04.055Z</time>
      </trkpt>
      <trkpt lat="42.283266" lon="1.857315">
        <ele>1172</ele>
        <time>2020-07-13T06:00:12.055Z</time>
      </trkpt>
      <trkpt lat="42.283153" lon="1.857332">
        <ele>1172</ele>
        <time>2020-07-13T06:00:22.060Z</time>
      </trkpt>
      <trkpt lat="42.282986" lon="1.857276">
        <ele>1168</ele>
        <time>2020-07-13T06:00:37.055Z</time>
      </trkpt>
      <trkpt lat="42.282879" lon="1.857283">
        <ele>1167</ele>
        <time>2020-07-13T06:00:45.055Z</time>
      </trkpt>
      <trkpt lat="42.282748" lon="1.857193">
        <ele>1165</ele>
        <time>2020-07-13T06:00:55.055Z</time>
      </trkpt>
      <trkpt lat="42.282643" lon="1.8572">
        <ele>1162</ele>
        <time>2020-07-13T06:01:03.055Z</time>
      </trkpt>
      <trkpt lat="42.282535" lon="1.857143">
        <ele>1160</ele>
        <time>2020-07-13T06:01:15.056Z</time>
      </trkpt>
      <trkpt lat="42.282439" lon="1.857054">
        <ele>1157</ele>
        <time>2020-07-13T06:01:25.055Z</time>
      </trkpt>
      <trkpt lat="42.282332" lon="1.857175">
        <ele>1153</ele>
        <time>2020-07-13T06:01:37.055Z</time>
      </trkpt>
      <trkpt lat="42.282204" lon="1.857156">
        <ele>1152</ele>
        <time>2020-07-13T06:01:52.055Z</time>
      </trkpt>
      <trkpt lat="42.28208" lon="1.857026">
        <ele>1152</ele>
        <time>2020-07-13T06:02:01.055Z</time>
      </trkpt>
      <trkpt lat="42.282047" lon="1.856895">
        <ele>1152</ele>
        <time>2020-07-13T06:02:09.055Z</time>
      </trkpt>
      <trkpt lat="42.281986" lon="1.856775">
        <ele>1152</ele>
        <time>2020-07-13T06:02:17.048Z</time>
      </trkpt>
      <trkpt lat="42.281827" lon="1.856744">
        <ele>1151</ele>
        <time>2020-07-13T06:02:28.055Z</time>
      </trkpt>
      <trkpt lat="42.281672" lon="1.856744">
        <ele>1147.7459968</ele>
        <time>2020-07-13T06:02:36.057Z</time>
      </trkpt>
      <trkpt lat="42.281578" lon="1.856638">
        <ele>1142</ele>
        <time>2020-07-13T06:02:53.055Z</time>
      </trkpt>
      <trkpt lat="42.281485" lon="1.856525">
        <ele>1137</ele>
        <time>2020-07-13T06:03:07.055Z</time>
      </trkpt>
      <trkpt lat="42.2814" lon="1.856429">
        <ele>1133</ele>
        <time>2020-07-13T06:03:27.055Z</time>
      </trkpt>
      <trkpt lat="42.281325" lon="1.85631">
        <ele>1128</ele>
        <time>2020-07-13T06:03:43.055Z</time>
      </trkpt>
      <trkpt lat="42.281368" lon="1.856158">
        <ele>1124</ele>
        <time>2020-07-13T06:03:55.055Z</time>
      </trkpt>
      <trkpt lat="42.281318" lon="1.856031">
        <ele>1120</ele>
        <time>2020-07-13T06:04:07.055Z</time>
      </trkpt>
      <trkpt lat="42.281266" lon="1.855858">
        <ele>1117</ele>
        <time>2020-07-13T06:04:19.055Z</time>
      </trkpt>
      <trkpt lat="42.281242" lon="1.855719">
        <ele>1112</ele>
        <time>2020-07-13T06:05:11.055Z</time>
      </trkpt>
      <trkpt lat="42.281146" lon="1.855602">
        <ele>1111</ele>
        <time>2020-07-13T06:05:39.055Z</time>
      </trkpt>
      <trkpt lat="42.281074" lon="1.85541">
        <ele>1104.8749952</ele>
        <time>2020-07-13T06:05:51.055Z</time>
      </trkpt>
      <trkpt lat="42.281037" lon="1.855286">
        <ele>1103</ele>
        <time>2020-07-13T06:05:59.055Z</time>
      </trkpt>
      <trkpt lat="42.281048" lon="1.855133">
        <ele>1098.7499904</ele>
        <time>2020-07-13T06:06:11.055Z</time>
      </trkpt>
      <trkpt lat="42.281095" lon="1.854761">
        <ele>1096</ele>
        <time>2020-07-13T06:06:23.055Z</time>
      </trkpt>
      <trkpt lat="42.280967" lon="1.85469">
        <ele>1094</ele>
        <time>2020-07-13T06:06:35.055Z</time>
      </trkpt>
      <trkpt lat="42.280909" lon="1.854528">
        <ele>1089</ele>
        <time>2020-07-13T06:06:47.055Z</time>
      </trkpt>
      <trkpt lat="42.280832" lon="1.854376">
        <ele>1086</ele>
        <time>2020-07-13T06:06:59.055Z</time>
      </trkpt>
      <trkpt lat="42.280795" lon="1.854236">
        <ele>1084</ele>
        <time>2020-07-13T06:07:07.062Z</time>
      </trkpt>
      <trkpt lat="42.280656" lon="1.854062">
        <ele>1081</ele>
        <time>2020-07-13T06:07:23.052Z</time>
      </trkpt>
      <trkpt lat="42.280578" lon="1.853957">
        <ele>1080.7499904</ele>
        <time>2020-07-13T06:07:31.055Z</time>
      </trkpt>
      <trkpt lat="42.280531" lon="1.853837">
        <ele>1077</ele>
        <time>2020-07-13T06:07:43.055Z</time>
      </trkpt>
      <trkpt lat="42.280487" lon="1.853684">
        <ele>1074</ele>
        <time>2020-07-13T06:07:55.050Z</time>
      </trkpt>
      <trkpt lat="42.28041" lon="1.85354">
        <ele>1072</ele>
        <time>2020-07-13T06:08:07.055Z</time>
      </trkpt>
      <trkpt lat="42.280402" lon="1.853329">
        <ele>1070</ele>
        <time>2020-07-13T06:08:19.055Z</time>
      </trkpt>
      <trkpt lat="42.280473" lon="1.853131">
        <ele>1066</ele>
        <time>2020-07-13T06:08:28.055Z</time>
      </trkpt>
      <trkpt lat="42.28058" lon="1.853051">
        <ele>1065</ele>
        <time>2020-07-13T06:08:52.055Z</time>
      </trkpt>
      <trkpt lat="42.280572" lon="1.852855">
        <ele>1062</ele>
        <time>2020-07-13T06:09:04.055Z</time>
      </trkpt>
      <trkpt lat="42.280569" lon="1.852692">
        <ele>1062</ele>
        <time>2020-07-13T06:09:12.055Z</time>
      </trkpt>
      <trkpt lat="42.280451" lon="1.852629">
        <ele>1060</ele>
        <time>2020-07-13T06:09:24.160Z</time>
      </trkpt>
      <trkpt lat="42.280424" lon="1.852425">
        <ele>1057.7499904</ele>
        <time>2020-07-13T06:09:36.055Z</time>
      </trkpt>
      <trkpt lat="42.280467" lon="1.852212">
        <ele>1055</ele>
        <time>2020-07-13T06:09:44.055Z</time>
      </trkpt>
      <trkpt lat="42.28058" lon="1.852128">
        <ele>1052</ele>
        <time>2020-07-13T06:09:52.157Z</time>
      </trkpt>
      <trkpt lat="42.28074" lon="1.852125">
        <ele>1052</ele>
        <time>2020-07-13T06:10:00.055Z</time>
      </trkpt>
      <trkpt lat="42.280857" lon="1.852161">
        <ele>1050</ele>
        <time>2020-07-13T06:10:08.055Z</time>
      </trkpt>
      <trkpt lat="42.280978" lon="1.85215">
        <ele>1050</ele>
        <time>2020-07-13T06:10:18.055Z</time>
      </trkpt>
      <trkpt lat="42.280861" lon="1.852043">
        <ele>1048</ele>
        <time>2020-07-13T06:10:30.055Z</time>
      </trkpt>
      <trkpt lat="42.280835" lon="1.851861">
        <ele>1045</ele>
        <time>2020-07-13T06:10:48.055Z</time>
      </trkpt>
      <trkpt lat="42.280768" lon="1.851758">
        <ele>1038</ele>
        <time>2020-07-13T06:11:04.055Z</time>
      </trkpt>
      <trkpt lat="42.280762" lon="1.851601">
        <ele>1037</ele>
        <time>2020-07-13T06:11:20.055Z</time>
      </trkpt>
      <trkpt lat="42.280729" lon="1.851462">
        <ele>1032</ele>
        <time>2020-07-13T06:11:32.055Z</time>
      </trkpt>
      <trkpt lat="42.280634" lon="1.851351">
        <ele>1028</ele>
        <time>2020-07-13T06:11:56.055Z</time>
      </trkpt>
      <trkpt lat="42.280733" lon="1.851232">
        <ele>1026</ele>
        <time>2020-07-13T06:12:15.164Z</time>
      </trkpt>
      <trkpt lat="42.280787" lon="1.85108">
        <ele>1025</ele>
        <time>2020-07-13T06:12:27.164Z</time>
      </trkpt>
      <trkpt lat="42.280726" lon="1.850946">
        <ele>1020</ele>
        <time>2020-07-13T06:12:43.055Z</time>
      </trkpt>
      <trkpt lat="42.280671" lon="1.850831">
        <ele>1017</ele>
        <time>2020-07-13T06:13:34.055Z</time>
      </trkpt>
      <trkpt lat="42.28058" lon="1.850697">
        <ele>1015</ele>
        <time>2020-07-13T06:13:48.055Z</time>
      </trkpt>
      <trkpt lat="42.280508" lon="1.850494">
        <ele>1013</ele>
        <time>2020-07-13T06:13:57.160Z</time>
      </trkpt>
      <trkpt lat="42.280533" lon="1.850299">
        <ele>1009</ele>
        <time>2020-07-13T06:14:09.055Z</time>
      </trkpt>
      <trkpt lat="42.28053" lon="1.850144">
        <ele>1008</ele>
        <time>2020-07-13T06:14:22.062Z</time>
      </trkpt>
      <trkpt lat="42.28049" lon="1.849984">
        <ele>1008</ele>
        <time>2020-07-13T06:14:30.055Z</time>
      </trkpt>
      <trkpt lat="42.280415" lon="1.849812">
        <ele>1004</ele>
        <time>2020-07-13T06:14:52.055Z</time>
      </trkpt>
      <trkpt lat="42.280468" lon="1.849686">
        <ele>1005</ele>
        <time>2020-07-13T06:15:28.055Z</time>
      </trkpt>
      <trkpt lat="42.280579" lon="1.849613">
        <ele>1005</ele>
        <time>2020-07-13T06:15:50.055Z</time>
      </trkpt>
      <trkpt lat="42.280719" lon="1.849501">
        <ele>1005</ele>
        <time>2020-07-13T06:16:02.055Z</time>
      </trkpt>
      <trkpt lat="42.28077" lon="1.849335">
        <ele>1006</ele>
        <time>2020-07-13T06:16:14.055Z</time>
      </trkpt>
      <trkpt lat="42.280813" lon="1.849181">
        <ele>1009</ele>
        <time>2020-07-13T06:16:27.055Z</time>
      </trkpt>
      <trkpt lat="42.280927" lon="1.849098">
        <ele>1011</ele>
        <time>2020-07-13T06:16:35.055Z</time>
      </trkpt>
      <trkpt lat="42.281007" lon="1.849016">
        <ele>1015</ele>
        <time>2020-07-13T06:16:47.062Z</time>
      </trkpt>
      <trkpt lat="42.281119" lon="1.849072">
        <ele>1015</ele>
        <time>2020-07-13T06:16:55.057Z</time>
      </trkpt>
      <trkpt lat="42.281266" lon="1.849101">
        <ele>1016</ele>
        <time>2020-07-13T06:17:25.054Z</time>
      </trkpt>
      <trkpt lat="42.28136" lon="1.849">
        <ele>1018</ele>
        <time>2020-07-13T06:17:37.055Z</time>
      </trkpt>
      <trkpt lat="42.281449" lon="1.848937">
        <ele>1020</ele>
        <time>2020-07-13T06:17:45.049Z</time>
      </trkpt>
      <trkpt lat="42.281544" lon="1.848829">
        <ele>1021</ele>
        <time>2020-07-13T06:17:53.055Z</time>
      </trkpt>
      <trkpt lat="42.281664" lon="1.84876">
        <ele>1021.1250048</ele>
        <time>2020-07-13T06:18:01.055Z</time>
      </trkpt>
      <trkpt lat="42.281713" lon="1.848688">
        <ele>1022</ele>
        <time>2020-07-13T06:18:09.055Z</time>
      </trkpt>
      <trkpt lat="42.281778" lon="1.84853">
        <ele>1022.1250048</ele>
        <time>2020-07-13T06:18:21.055Z</time>
      </trkpt>
      <trkpt lat="42.281842" lon="1.84841">
        <ele>1023</ele>
        <time>2020-07-13T06:18:29.055Z</time>
      </trkpt>
      <trkpt lat="42.281911" lon="1.84828">
        <ele>1027.1250048</ele>
        <time>2020-07-13T06:18:41.055Z</time>
      </trkpt>
      <trkpt lat="42.282051" lon="1.848168">
        <ele>1029</ele>
        <time>2020-07-13T06:18:58.055Z</time>
      </trkpt>
      <trkpt lat="42.282139" lon="1.848024">
        <ele>1030</ele>
        <time>2020-07-13T06:19:10.057Z</time>
      </trkpt>
      <trkpt lat="42.282163" lon="1.847888">
        <ele>1034</ele>
        <time>2020-07-13T06:19:22.055Z</time>
      </trkpt>
      <trkpt lat="42.282166" lon="1.847746">
        <ele>1036</ele>
        <time>2020-07-13T06:19:34.055Z</time>
      </trkpt>
      <trkpt lat="42.282231" lon="1.847632">
        <ele>1038</ele>
        <time>2020-07-13T06:19:48.055Z</time>
      </trkpt>
      <trkpt lat="42.282314" lon="1.847463">
        <ele>1040</ele>
        <time>2020-07-13T06:19:56.055Z</time>
      </trkpt>
      <trkpt lat="42.282377" lon="1.847349">
        <ele>1042</ele>
        <time>2020-07-13T06:20:04.055Z</time>
      </trkpt>
      <trkpt lat="42.282466" lon="1.847183">
        <ele>1043</ele>
        <time>2020-07-13T06:20:16.055Z</time>
      </trkpt>
      <trkpt lat="42.282556" lon="1.847057">
        <ele>1044</ele>
        <time>2020-07-13T06:20:28.055Z</time>
      </trkpt>
      <trkpt lat="42.282649" lon="1.846944">
        <ele>1046.2500096</ele>
        <time>2020-07-13T06:20:41.055Z</time>
      </trkpt>
      <trkpt lat="42.282764" lon="1.846881">
        <ele>1050</ele>
        <time>2020-07-13T06:20:53.055Z</time>
      </trkpt>
      <trkpt lat="42.282891" lon="1.846786">
        <ele>1052</ele>
        <time>2020-07-13T06:21:05.055Z</time>
      </trkpt>
      <trkpt lat="42.283015" lon="1.846731">
        <ele>1054</ele>
        <time>2020-07-13T06:21:20.055Z</time>
      </trkpt>
      <trkpt lat="42.28316" lon="1.846736">
        <ele>1058</ele>
        <time>2020-07-13T06:21:32.055Z</time>
      </trkpt>
      <trkpt lat="42.283307" lon="1.846729">
        <ele>1060</ele>
        <time>2020-07-13T06:21:44.057Z</time>
      </trkpt>
      <trkpt lat="42.283357" lon="1.846902">
        <ele>1061</ele>
        <time>2020-07-13T06:21:56.056Z</time>
      </trkpt>
      <trkpt lat="42.283316" lon="1.847055">
        <ele>1062</ele>
        <time>2020-07-13T06:22:04.052Z</time>
      </trkpt>
      <trkpt lat="42.283347" lon="1.847274">
        <ele>1064</ele>
        <time>2020-07-13T06:22:18.055Z</time>
      </trkpt>
      <trkpt lat="42.283336" lon="1.847472">
        <ele>1068</ele>
        <time>2020-07-13T06:22:35.055Z</time>
      </trkpt>
      <trkpt lat="42.283303" lon="1.847613">
        <ele>1070</ele>
        <time>2020-07-13T06:22:43.055Z</time>
      </trkpt>
      <trkpt lat="42.283377" lon="1.847751">
        <ele>1071</ele>
        <time>2020-07-13T06:22:56.055Z</time>
      </trkpt>
      <trkpt lat="42.28348" lon="1.847837">
        <ele>1073</ele>
        <time>2020-07-13T06:23:08.055Z</time>
      </trkpt>
      <trkpt lat="42.283626" lon="1.847833">
        <ele>1075</ele>
        <time>2020-07-13T06:23:20.049Z</time>
      </trkpt>
      <trkpt lat="42.283707" lon="1.847947">
        <ele>1078</ele>
        <time>2020-07-13T06:23:35.059Z</time>
      </trkpt>
      <trkpt lat="42.283776" lon="1.847979">
        <ele>1078</ele>
        <time>2020-07-13T06:23:40.055Z</time>
      </trkpt>
      <trkpt lat="42.283911" lon="1.847964">
        <ele>1080</ele>
        <time>2020-07-13T06:23:52.050Z</time>
      </trkpt>
      <trkpt lat="42.284017" lon="1.848047">
        <ele>1082</ele>
        <time>2020-07-13T06:24:04.055Z</time>
      </trkpt>
      <trkpt lat="42.284138" lon="1.847982">
        <ele>1083</ele>
        <time>2020-07-13T06:24:16.052Z</time>
      </trkpt>
      <trkpt lat="42.28424" lon="1.848053">
        <ele>1084</ele>
        <time>2020-07-13T06:24:24.056Z</time>
      </trkpt>
      <trkpt lat="42.284356" lon="1.848066">
        <ele>1086</ele>
        <time>2020-07-13T06:24:36.057Z</time>
      </trkpt>
      <trkpt lat="42.284474" lon="1.848029">
        <ele>1088</ele>
        <time>2020-07-13T06:24:44.047Z</time>
      </trkpt>
      <trkpt lat="42.284585" lon="1.848016">
        <ele>1089</ele>
        <time>2020-07-13T06:24:52.052Z</time>
      </trkpt>
      <trkpt lat="42.284684" lon="1.847897">
        <ele>1090</ele>
        <time>2020-07-13T06:25:04.048Z</time>
      </trkpt>
      <trkpt lat="42.284756" lon="1.847781">
        <ele>1090</ele>
        <time>2020-07-13T06:25:16.047Z</time>
      </trkpt>
      <trkpt lat="42.284822" lon="1.84766">
        <ele>1091</ele>
        <time>2020-07-13T06:25:25.055Z</time>
      </trkpt>
      <trkpt lat="42.284914" lon="1.847541">
        <ele>1092</ele>
        <time>2020-07-13T06:25:37.055Z</time>
      </trkpt>
      <trkpt lat="42.28502" lon="1.847482">
        <ele>1094</ele>
        <time>2020-07-13T06:25:49.054Z</time>
      </trkpt>
      <trkpt lat="42.285104" lon="1.84738">
        <ele>1096</ele>
        <time>2020-07-13T06:25:57.159Z</time>
      </trkpt>
      <trkpt lat="42.285199" lon="1.847284">
        <ele>1098</ele>
        <time>2020-07-13T06:26:05.055Z</time>
      </trkpt>
      <trkpt lat="42.285298" lon="1.847159">
        <ele>1100</ele>
        <time>2020-07-13T06:26:17.058Z</time>
      </trkpt>
      <trkpt lat="42.28538" lon="1.847037">
        <ele>1101</ele>
        <time>2020-07-13T06:26:29.055Z</time>
      </trkpt>
      <trkpt lat="42.285454" lon="1.846948">
        <ele>1102</ele>
        <time>2020-07-13T06:26:37.055Z</time>
      </trkpt>
      <trkpt lat="42.285515" lon="1.846852">
        <ele>1104</ele>
        <time>2020-07-13T06:26:45.057Z</time>
      </trkpt>
      <trkpt lat="42.285564" lon="1.846705">
        <ele>1105</ele>
        <time>2020-07-13T06:26:57.156Z</time>
      </trkpt>
      <trkpt lat="42.285663" lon="1.84658">
        <ele>1106</ele>
        <time>2020-07-13T06:27:09.055Z</time>
      </trkpt>
      <trkpt lat="42.285744" lon="1.846502">
        <ele>1107</ele>
        <time>2020-07-13T06:27:17.160Z</time>
      </trkpt>
      <trkpt lat="42.28584" lon="1.846422">
        <ele>1108</ele>
        <time>2020-07-13T06:27:25.051Z</time>
      </trkpt>
      <trkpt lat="42.28589" lon="1.846278">
        <ele>1109</ele>
        <time>2020-07-13T06:27:33.055Z</time>
      </trkpt>
      <trkpt lat="42.285923" lon="1.84616">
        <ele>1109.2500096</ele>
        <time>2020-07-13T06:27:41.055Z</time>
      </trkpt>
      <trkpt lat="42.28601" lon="1.845924">
        <ele>1111</ele>
        <time>2020-07-13T06:27:57.158Z</time>
      </trkpt>
      <trkpt lat="42.286024" lon="1.845788">
        <ele>1111</ele>
        <time>2020-07-13T06:28:05.055Z</time>
      </trkpt>
      <trkpt lat="42.286061" lon="1.845648">
        <ele>1112</ele>
        <time>2020-07-13T06:28:13.055Z</time>
      </trkpt>
      <trkpt lat="42.286086" lon="1.845507">
        <ele>1112</ele>
        <time>2020-07-13T06:28:21.063Z</time>
      </trkpt>
      <trkpt lat="42.286151" lon="1.845403">
        <ele>1112</ele>
        <time>2020-07-13T06:28:29.054Z</time>
      </trkpt>
      <trkpt lat="42.286293" lon="1.845342">
        <ele>1114</ele>
        <time>2020-07-13T06:28:45.058Z</time>
      </trkpt>
      <trkpt lat="42.286422" lon="1.845318">
        <ele>1116</ele>
        <time>2020-07-13T06:28:57.055Z</time>
      </trkpt>
      <trkpt lat="42.286489" lon="1.845226">
        <ele>1117</ele>
        <time>2020-07-13T06:29:05.055Z</time>
      </trkpt>
      <trkpt lat="42.286508" lon="1.845108">
        <ele>1118</ele>
        <time>2020-07-13T06:29:13.055Z</time>
      </trkpt>
      <trkpt lat="42.286494" lon="1.844948">
        <ele>1118</ele>
        <time>2020-07-13T06:29:25.055Z</time>
      </trkpt>
      <trkpt lat="42.286592" lon="1.845046">
        <ele>1118</ele>
        <time>2020-07-13T06:29:41.051Z</time>
      </trkpt>
      <trkpt lat="42.286458" lon="1.845018">
        <ele>1118</ele>
        <time>2020-07-13T06:29:57.057Z</time>
      </trkpt>
      <trkpt lat="42.286457" lon="1.844824">
        <ele>1117</ele>
        <time>2020-07-13T06:31:03.055Z</time>
      </trkpt>
      <trkpt lat="42.286498" lon="1.844673">
        <ele>1117.2500096</ele>
        <time>2020-07-13T06:31:11.055Z</time>
      </trkpt>
      <trkpt lat="42.286562" lon="1.844568">
        <ele>1119</ele>
        <time>2020-07-13T06:31:19.055Z</time>
      </trkpt>
      <trkpt lat="42.286628" lon="1.844401">
        <ele>1120</ele>
        <time>2020-07-13T06:31:29.055Z</time>
      </trkpt>
      <trkpt lat="42.286633" lon="1.844266">
        <ele>1122</ele>
        <time>2020-07-13T06:31:37.059Z</time>
      </trkpt>
      <trkpt lat="42.286712" lon="1.844161">
        <ele>1124</ele>
        <time>2020-07-13T06:31:45.055Z</time>
      </trkpt>
      <trkpt lat="42.286804" lon="1.844095">
        <ele>1125</ele>
        <time>2020-07-13T06:31:53.054Z</time>
      </trkpt>
      <trkpt lat="42.286889" lon="1.843952">
        <ele>1128</ele>
        <time>2020-07-13T06:32:05.055Z</time>
      </trkpt>
      <trkpt lat="42.287026" lon="1.843873">
        <ele>1129</ele>
        <time>2020-07-13T06:32:19.055Z</time>
      </trkpt>
      <trkpt lat="42.287106" lon="1.843724">
        <ele>1131</ele>
        <time>2020-07-13T06:32:35.057Z</time>
      </trkpt>
      <trkpt lat="42.28711" lon="1.843574">
        <ele>1133</ele>
        <time>2020-07-13T06:32:43.054Z</time>
      </trkpt>
      <trkpt lat="42.28726" lon="1.843495">
        <ele>1135</ele>
        <time>2020-07-13T06:32:54.055Z</time>
      </trkpt>
      <trkpt lat="42.28737" lon="1.843414">
        <ele>1137</ele>
        <time>2020-07-13T06:33:02.055Z</time>
      </trkpt>
      <trkpt lat="42.287511" lon="1.843436">
        <ele>1137.1180032</ele>
        <time>2020-07-13T06:33:11.048Z</time>
      </trkpt>
      <trkpt lat="42.287638" lon="1.843452">
        <ele>1140</ele>
        <time>2020-07-13T06:33:24.055Z</time>
      </trkpt>
      <trkpt lat="42.287743" lon="1.843387">
        <ele>1140</ele>
        <time>2020-07-13T06:33:36.055Z</time>
      </trkpt>
      <trkpt lat="42.288027" lon="1.843242">
        <ele>1140</ele>
        <time>2020-07-13T06:33:53.055Z</time>
      </trkpt>
      <trkpt lat="42.288175" lon="1.843214">
        <ele>1140</ele>
        <time>2020-07-13T06:34:04.055Z</time>
      </trkpt>
      <trkpt lat="42.288135" lon="1.84306">
        <ele>1140</ele>
        <time>2020-07-13T06:34:28.056Z</time>
      </trkpt>
      <trkpt lat="42.288012" lon="1.842954">
        <ele>1142</ele>
        <time>2020-07-13T06:34:36.056Z</time>
      </trkpt>
      <trkpt lat="42.287979" lon="1.842776">
        <ele>1143</ele>
        <time>2020-07-13T06:34:48.056Z</time>
      </trkpt>
      <trkpt lat="42.28798" lon="1.8426">
        <ele>1144</ele>
        <time>2020-07-13T06:34:56.049Z</time>
      </trkpt>
      <trkpt lat="42.287968" lon="1.842317">
        <ele>1144</ele>
        <time>2020-07-13T06:35:32.055Z</time>
      </trkpt>
      <trkpt lat="42.288" lon="1.842162">
        <ele>1144</ele>
        <time>2020-07-13T06:35:44.055Z</time>
      </trkpt>
      <trkpt lat="42.287994" lon="1.842018">
        <ele>1144</ele>
        <time>2020-07-13T06:35:54.055Z</time>
      </trkpt>
      <trkpt lat="42.287937" lon="1.841882">
        <ele>1145</ele>
        <time>2020-07-13T06:36:02.055Z</time>
      </trkpt>
      <trkpt lat="42.287976" lon="1.841671">
        <ele>1145.1250048</ele>
        <time>2020-07-13T06:36:11.055Z</time>
      </trkpt>
      <trkpt lat="42.288042" lon="1.841514">
        <ele>1146</ele>
        <time>2020-07-13T06:36:19.055Z</time>
      </trkpt>
      <trkpt lat="42.288111" lon="1.841395">
        <ele>1147</ele>
        <time>2020-07-13T06:36:27.055Z</time>
      </trkpt>
      <trkpt lat="42.288169" lon="1.841229">
        <ele>1147</ele>
        <time>2020-07-13T06:36:39.055Z</time>
      </trkpt>
      <trkpt lat="42.288208" lon="1.84101">
        <ele>1146.8749952</ele>
        <time>2020-07-13T06:36:51.055Z</time>
      </trkpt>
      <trkpt lat="42.288221" lon="1.840876">
        <ele>1146</ele>
        <time>2020-07-13T06:36:59.055Z</time>
      </trkpt>
      <trkpt lat="42.288253" lon="1.840729">
        <ele>1147</ele>
        <time>2020-07-13T06:37:11.049Z</time>
      </trkpt>
      <trkpt lat="42.288169" lon="1.840586">
        <ele>1148</ele>
        <time>2020-07-13T06:37:28.055Z</time>
      </trkpt>
      <trkpt lat="42.288085" lon="1.840497">
        <ele>1150</ele>
        <time>2020-07-13T06:37:36.953Z</time>
      </trkpt>
      <trkpt lat="42.288136" lon="1.840336">
        <ele>1153</ele>
        <time>2020-07-13T06:37:45.055Z</time>
      </trkpt>
      <trkpt lat="42.288171" lon="1.840185">
        <ele>1156</ele>
        <time>2020-07-13T06:37:53.057Z</time>
      </trkpt>
      <trkpt lat="42.28823" lon="1.840015">
        <ele>1157</ele>
        <time>2020-07-13T06:38:05.055Z</time>
      </trkpt>
      <trkpt lat="42.288337" lon="1.839869">
        <ele>1158</ele>
        <time>2020-07-13T06:38:18.055Z</time>
      </trkpt>
      <trkpt lat="42.288453" lon="1.839755">
        <ele>1161</ele>
        <time>2020-07-13T06:38:33.055Z</time>
      </trkpt>
      <trkpt lat="42.28832" lon="1.839674">
        <ele>1165</ele>
        <time>2020-07-13T06:38:57.055Z</time>
      </trkpt>
      <trkpt lat="42.288258" lon="1.839821">
        <ele>1166</ele>
        <time>2020-07-13T06:39:08.057Z</time>
      </trkpt>
      <trkpt lat="42.288137" lon="1.839896">
        <ele>1167</ele>
        <time>2020-07-13T06:39:15.055Z</time>
      </trkpt>
      <trkpt lat="42.288091" lon="1.840036">
        <ele>1167</ele>
        <time>2020-07-13T06:39:26.055Z</time>
      </trkpt>
      <trkpt lat="42.287864" lon="1.840163">
        <ele>1168</ele>
        <time>2020-07-13T06:39:40.055Z</time>
      </trkpt>
      <trkpt lat="42.287731" lon="1.840172">
        <ele>1170</ele>
        <time>2020-07-13T06:39:49.055Z</time>
      </trkpt>
      <trkpt lat="42.287685" lon="1.839998">
        <ele>1172</ele>
        <time>2020-07-13T06:39:57.051Z</time>
      </trkpt>
      <trkpt lat="42.287786" lon="1.8398">
        <ele>1175</ele>
        <time>2020-07-13T06:40:09.055Z</time>
      </trkpt>
      <trkpt lat="42.28787" lon="1.839693">
        <ele>1176</ele>
        <time>2020-07-13T06:40:17.055Z</time>
      </trkpt>
      <trkpt lat="42.288004" lon="1.839587">
        <ele>1177</ele>
        <time>2020-07-13T06:40:30.055Z</time>
      </trkpt>
      <trkpt lat="42.287992" lon="1.839443">
        <ele>1179</ele>
        <time>2020-07-13T06:40:39.055Z</time>
      </trkpt>
      <trkpt lat="42.288009" lon="1.839311">
        <ele>1180</ele>
        <time>2020-07-13T06:40:47.055Z</time>
      </trkpt>
      <trkpt lat="42.288139" lon="1.839207">
        <ele>1182</ele>
        <time>2020-07-13T06:40:58.055Z</time>
      </trkpt>
      <trkpt lat="42.288186" lon="1.839074">
        <ele>1186</ele>
        <time>2020-07-13T06:41:14.055Z</time>
      </trkpt>
      <trkpt lat="42.288296" lon="1.838942">
        <ele>1186</ele>
        <time>2020-07-13T06:41:21.055Z</time>
      </trkpt>
      <trkpt lat="42.288487" lon="1.838836">
        <ele>1187</ele>
        <time>2020-07-13T06:41:32.055Z</time>
      </trkpt>
      <trkpt lat="42.28857" lon="1.83871">
        <ele>1189</ele>
        <time>2020-07-13T06:41:43.051Z</time>
      </trkpt>
      <trkpt lat="42.288605" lon="1.838504">
        <ele>1190</ele>
        <time>2020-07-13T06:41:59.055Z</time>
      </trkpt>
      <trkpt lat="42.289011" lon="1.838364">
        <ele>1191</ele>
        <time>2020-07-13T06:42:10.798Z</time>
      </trkpt>
      <trkpt lat="42.288802" lon="1.838186">
        <ele>1192</ele>
        <time>2020-07-13T06:42:17.055Z</time>
      </trkpt>
      <trkpt lat="42.288726" lon="1.838002">
        <ele>1194</ele>
        <time>2020-07-13T06:42:29.055Z</time>
      </trkpt>
      <trkpt lat="42.288776" lon="1.83788">
        <ele>1196</ele>
        <time>2020-07-13T06:42:37.055Z</time>
      </trkpt>
      <trkpt lat="42.288699" lon="1.837724">
        <ele>1196</ele>
        <time>2020-07-13T06:42:45.047Z</time>
      </trkpt>
      <trkpt lat="42.288796" lon="1.837616">
        <ele>1197</ele>
        <time>2020-07-13T06:42:55.055Z</time>
      </trkpt>
      <trkpt lat="42.28869" lon="1.837635">
        <ele>1201</ele>
        <time>2020-07-13T06:43:15.055Z</time>
      </trkpt>
      <trkpt lat="42.288555" lon="1.837542">
        <ele>1205</ele>
        <time>2020-07-13T06:43:33.055Z</time>
      </trkpt>
      <trkpt lat="42.28844" lon="1.837482">
        <ele>1207</ele>
        <time>2020-07-13T06:43:45.046Z</time>
      </trkpt>
      <trkpt lat="42.288302" lon="1.837433">
        <ele>1208</ele>
        <time>2020-07-13T06:43:57.055Z</time>
      </trkpt>
      <trkpt lat="42.28816" lon="1.837313">
        <ele>1213</ele>
        <time>2020-07-13T06:44:27.150Z</time>
      </trkpt>
      <trkpt lat="42.288043" lon="1.837195">
        <ele>1215</ele>
        <time>2020-07-13T06:44:39.055Z</time>
      </trkpt>
      <trkpt lat="42.288054" lon="1.837018">
        <ele>1220</ele>
        <time>2020-07-13T06:44:53.055Z</time>
      </trkpt>
      <trkpt lat="42.288155" lon="1.836976">
        <ele>1221</ele>
        <time>2020-07-13T06:45:05.055Z</time>
      </trkpt>
      <trkpt lat="42.288249" lon="1.83692">
        <ele>1223</ele>
        <time>2020-07-13T06:45:13.055Z</time>
      </trkpt>
      <trkpt lat="42.288343" lon="1.836878">
        <ele>1223.11615789406</ele>
        <time>2020-07-13T06:45:21.055Z</time>
      </trkpt>
      <trkpt lat="42.28845" lon="1.836786">
        <ele>1224</ele>
        <time>2020-07-13T06:45:29.055Z</time>
      </trkpt>
      <trkpt lat="42.288564" lon="1.836712">
        <ele>1228</ele>
        <time>2020-07-13T06:45:45.055Z</time>
      </trkpt>
      <trkpt lat="42.28845" lon="1.836698">
        <ele>1232</ele>
        <time>2020-07-13T06:46:05.055Z</time>
      </trkpt>
      <trkpt lat="42.288345" lon="1.836687">
        <ele>1233</ele>
        <time>2020-07-13T06:46:13.055Z</time>
      </trkpt>
      <trkpt lat="42.288202" lon="1.836693">
        <ele>1235</ele>
        <time>2020-07-13T06:46:25.055Z</time>
      </trkpt>
      <trkpt lat="42.288071" lon="1.836649">
        <ele>1236</ele>
        <time>2020-07-13T06:46:33.055Z</time>
      </trkpt>
      <trkpt lat="42.287917" lon="1.836643">
        <ele>1238</ele>
        <time>2020-07-13T06:46:48.055Z</time>
      </trkpt>
      <trkpt lat="42.287808" lon="1.836675">
        <ele>1238</ele>
        <time>2020-07-13T06:46:55.055Z</time>
      </trkpt>
      <trkpt lat="42.287712" lon="1.83664">
        <ele>1239</ele>
        <time>2020-07-13T06:47:07.055Z</time>
      </trkpt>
      <trkpt lat="42.287594" lon="1.836605">
        <ele>1241</ele>
        <time>2020-07-13T06:47:19.055Z</time>
      </trkpt>
      <trkpt lat="42.287474" lon="1.836663">
        <ele>1242</ele>
        <time>2020-07-13T06:47:29.055Z</time>
      </trkpt>
      <trkpt lat="42.287335" lon="1.836677">
        <ele>1242</ele>
        <time>2020-07-13T06:47:37.055Z</time>
      </trkpt>
      <trkpt lat="42.2872" lon="1.836655">
        <ele>1245</ele>
        <time>2020-07-13T06:47:55.055Z</time>
      </trkpt>
      <trkpt lat="42.287098" lon="1.836655">
        <ele>1247</ele>
        <time>2020-07-13T06:48:07.055Z</time>
      </trkpt>
      <trkpt lat="42.287077" lon="1.836799">
        <ele>1250</ele>
        <time>2020-07-13T06:48:25.055Z</time>
      </trkpt>
      <trkpt lat="42.287191" lon="1.836897">
        <ele>1252</ele>
        <time>2020-07-13T06:48:37.055Z</time>
      </trkpt>
      <trkpt lat="42.287282" lon="1.837006">
        <ele>1254</ele>
        <time>2020-07-13T06:48:46.053Z</time>
      </trkpt>
      <trkpt lat="42.287171" lon="1.837172">
        <ele>1255</ele>
        <time>2020-07-13T06:48:54.051Z</time>
      </trkpt>
      <trkpt lat="42.287248" lon="1.837321">
        <ele>1257</ele>
        <time>2020-07-13T06:49:06.055Z</time>
      </trkpt>
      <trkpt lat="42.287322" lon="1.837461">
        <ele>1258</ele>
        <time>2020-07-13T06:49:14.055Z</time>
      </trkpt>
      <trkpt lat="42.287335" lon="1.837635">
        <ele>1260</ele>
        <time>2020-07-13T06:49:27.055Z</time>
      </trkpt>
      <trkpt lat="42.287237" lon="1.837828">
        <ele>1264</ele>
        <time>2020-07-13T06:49:42.055Z</time>
      </trkpt>
      <trkpt lat="42.287124" lon="1.837705">
        <ele>1266</ele>
        <time>2020-07-13T06:49:58.055Z</time>
      </trkpt>
      <trkpt lat="42.287044" lon="1.837598">
        <ele>1268</ele>
        <time>2020-07-13T06:50:06.055Z</time>
      </trkpt>
      <trkpt lat="42.286983" lon="1.837484">
        <ele>1270</ele>
        <time>2020-07-13T06:50:18.056Z</time>
      </trkpt>
      <trkpt lat="42.28694" lon="1.837356">
        <ele>1271</ele>
        <time>2020-07-13T06:50:29.055Z</time>
      </trkpt>
      <trkpt lat="42.286896" lon="1.83721">
        <ele>1273.2500096</ele>
        <time>2020-07-13T06:50:41.055Z</time>
      </trkpt>
      <trkpt lat="42.286825" lon="1.837098">
        <ele>1275.1250048</ele>
        <time>2020-07-13T06:50:51.055Z</time>
      </trkpt>
      <trkpt lat="42.286762" lon="1.836981">
        <ele>1276</ele>
        <time>2020-07-13T06:51:00.055Z</time>
      </trkpt>
      <trkpt lat="42.286727" lon="1.836816">
        <ele>1278</ele>
        <time>2020-07-13T06:51:19.055Z</time>
      </trkpt>
      <trkpt lat="42.286648" lon="1.836731">
        <ele>1280</ele>
        <time>2020-07-13T06:51:26.055Z</time>
      </trkpt>
      <trkpt lat="42.286602" lon="1.836601">
        <ele>1282</ele>
        <time>2020-07-13T06:51:38.055Z</time>
      </trkpt>
      <trkpt lat="42.286512" lon="1.836454">
        <ele>1285</ele>
        <time>2020-07-13T06:51:56.055Z</time>
      </trkpt>
      <trkpt lat="42.28654" lon="1.83632">
        <ele>1292</ele>
        <time>2020-07-13T06:52:24.055Z</time>
      </trkpt>
      <trkpt lat="42.286443" lon="1.836154">
        <ele>1296</ele>
        <time>2020-07-13T06:52:44.055Z</time>
      </trkpt>
      <trkpt lat="42.286323" lon="1.835986">
        <ele>1298</ele>
        <time>2020-07-13T06:52:59.055Z</time>
      </trkpt>
      <trkpt lat="42.286353" lon="1.835838">
        <ele>1300</ele>
        <time>2020-07-13T06:53:07.055Z</time>
      </trkpt>
      <trkpt lat="42.286255" lon="1.835737">
        <ele>1301</ele>
        <time>2020-07-13T06:53:27.157Z</time>
      </trkpt>
      <trkpt lat="42.286358" lon="1.83575">
        <ele>1301</ele>
        <time>2020-07-13T06:54:10.055Z</time>
      </trkpt>
      <trkpt lat="42.28632" lon="1.835588">
        <ele>1303</ele>
        <time>2020-07-13T06:54:42.055Z</time>
      </trkpt>
      <trkpt lat="42.286336" lon="1.835398">
        <ele>1305</ele>
        <time>2020-07-13T06:54:57.055Z</time>
      </trkpt>
      <trkpt lat="42.286293" lon="1.835242">
        <ele>1307</ele>
        <time>2020-07-13T06:55:09.055Z</time>
      </trkpt>
      <trkpt lat="42.286274" lon="1.83503">
        <ele>1309</ele>
        <time>2020-07-13T06:55:20.055Z</time>
      </trkpt>
      <trkpt lat="42.286225" lon="1.834847">
        <ele>1314</ele>
        <time>2020-07-13T06:55:37.055Z</time>
      </trkpt>
      <trkpt lat="42.286196" lon="1.834668">
        <ele>1315</ele>
        <time>2020-07-13T06:55:44.055Z</time>
      </trkpt>
      <trkpt lat="42.286152" lon="1.834525">
        <ele>1315.2500096</ele>
        <time>2020-07-13T06:55:51.055Z</time>
      </trkpt>
      <trkpt lat="42.286297" lon="1.834455">
        <ele>1317</ele>
        <time>2020-07-13T06:56:03.055Z</time>
      </trkpt>
      <trkpt lat="42.286417" lon="1.834434">
        <ele>1318</ele>
        <time>2020-07-13T06:56:15.055Z</time>
      </trkpt>
      <trkpt lat="42.28653" lon="1.834384">
        <ele>1320</ele>
        <time>2020-07-13T06:56:27.055Z</time>
      </trkpt>
      <trkpt lat="42.28659" lon="1.834276">
        <ele>1331</ele>
        <time>2020-07-13T06:57:12.055Z</time>
      </trkpt>
      <trkpt lat="42.286454" lon="1.834194">
        <ele>1332</ele>
        <time>2020-07-13T06:57:28.055Z</time>
      </trkpt>
      <trkpt lat="42.28634" lon="1.834224">
        <ele>1335</ele>
        <time>2020-07-13T06:57:50.055Z</time>
      </trkpt>
      <trkpt lat="42.286189" lon="1.834269">
        <ele>1339</ele>
        <time>2020-07-13T06:58:03.055Z</time>
      </trkpt>
      <trkpt lat="42.28607" lon="1.834311">
        <ele>1341</ele>
        <time>2020-07-13T06:58:19.060Z</time>
      </trkpt>
      <trkpt lat="42.285965" lon="1.834256">
        <ele>1343</ele>
        <time>2020-07-13T06:58:25.055Z</time>
      </trkpt>
      <trkpt lat="42.285988" lon="1.834079">
        <ele>1345</ele>
        <time>2020-07-13T06:58:37.055Z</time>
      </trkpt>
      <trkpt lat="42.286094" lon="1.83401">
        <ele>1346</ele>
        <time>2020-07-13T06:58:46.055Z</time>
      </trkpt>
      <trkpt lat="42.286177" lon="1.833866">
        <ele>1348</ele>
        <time>2020-07-13T06:58:58.055Z</time>
      </trkpt>
      <trkpt lat="42.286218" lon="1.833744">
        <ele>1349</ele>
        <time>2020-07-13T06:59:10.055Z</time>
      </trkpt>
      <trkpt lat="42.28631" lon="1.83363">
        <ele>1354</ele>
        <time>2020-07-13T06:59:22.055Z</time>
      </trkpt>
      <trkpt lat="42.286393" lon="1.833504">
        <ele>1355</ele>
        <time>2020-07-13T06:59:38.055Z</time>
      </trkpt>
      <trkpt lat="42.286511" lon="1.83339">
        <ele>1357</ele>
        <time>2020-07-13T06:59:58.055Z</time>
      </trkpt>
      <trkpt lat="42.286618" lon="1.833352">
        <ele>1361</ele>
        <time>2020-07-13T07:00:10.055Z</time>
      </trkpt>
      <trkpt lat="42.286736" lon="1.833325">
        <ele>1364</ele>
        <time>2020-07-13T07:00:22.055Z</time>
      </trkpt>
      <trkpt lat="42.286878" lon="1.833268">
        <ele>1364.1250048</ele>
        <time>2020-07-13T07:00:31.055Z</time>
      </trkpt>
      <trkpt lat="42.286974" lon="1.833194">
        <ele>1365</ele>
        <time>2020-07-13T07:00:39.055Z</time>
      </trkpt>
      <trkpt lat="42.287065" lon="1.833133">
        <ele>1366.2500096</ele>
        <time>2020-07-13T07:00:51.055Z</time>
      </trkpt>
      <trkpt lat="42.287149" lon="1.833046">
        <ele>1371</ele>
        <time>2020-07-13T07:01:05.055Z</time>
      </trkpt>
      <trkpt lat="42.287193" lon="1.83288">
        <ele>1374</ele>
        <time>2020-07-13T07:01:26.062Z</time>
      </trkpt>
      <trkpt lat="42.287169" lon="1.832681">
        <ele>1375</ele>
        <time>2020-07-13T07:01:38.055Z</time>
      </trkpt>
      <trkpt lat="42.287219" lon="1.832513">
        <ele>1381</ele>
        <time>2020-07-13T07:01:57.055Z</time>
      </trkpt>
      <trkpt lat="42.287251" lon="1.832348">
        <ele>1381</ele>
        <time>2020-07-13T07:02:07.055Z</time>
      </trkpt>
      <trkpt lat="42.287343" lon="1.832214">
        <ele>1385</ele>
        <time>2020-07-13T07:02:23.055Z</time>
      </trkpt>
      <trkpt lat="42.287344" lon="1.832057">
        <ele>1389</ele>
        <time>2020-07-13T07:02:49.055Z</time>
      </trkpt>
      <trkpt lat="42.287199" lon="1.831944">
        <ele>1391</ele>
        <time>2020-07-13T07:03:00.055Z</time>
      </trkpt>
      <trkpt lat="42.287158" lon="1.831822">
        <ele>1393</ele>
        <time>2020-07-13T07:03:08.055Z</time>
      </trkpt>
      <trkpt lat="42.287198" lon="1.831698">
        <ele>1395</ele>
        <time>2020-07-13T07:03:16.055Z</time>
      </trkpt>
      <trkpt lat="42.287205" lon="1.831549">
        <ele>1396</ele>
        <time>2020-07-13T07:03:28.055Z</time>
      </trkpt>
      <trkpt lat="42.287298" lon="1.831459">
        <ele>1398</ele>
        <time>2020-07-13T07:03:40.055Z</time>
      </trkpt>
      <trkpt lat="42.287356" lon="1.831268">
        <ele>1401</ele>
        <time>2020-07-13T07:03:56.055Z</time>
      </trkpt>
      <trkpt lat="42.287445" lon="1.831107">
        <ele>1403</ele>
        <time>2020-07-13T07:04:09.055Z</time>
      </trkpt>
      <trkpt lat="42.287514" lon="1.830968">
        <ele>1405.2500096</ele>
        <time>2020-07-13T07:04:21.055Z</time>
      </trkpt>
      <trkpt lat="42.287521" lon="1.830791">
        <ele>1409</ele>
        <time>2020-07-13T07:04:35.055Z</time>
      </trkpt>
      <trkpt lat="42.28746" lon="1.830595">
        <ele>1411</ele>
        <time>2020-07-13T07:04:49.055Z</time>
      </trkpt>
      <trkpt lat="42.287427" lon="1.830464">
        <ele>1414</ele>
        <time>2020-07-13T07:05:05.055Z</time>
      </trkpt>
      <trkpt lat="42.287319" lon="1.830366">
        <ele>1416</ele>
        <time>2020-07-13T07:05:20.055Z</time>
      </trkpt>
      <trkpt lat="42.287252" lon="1.830219">
        <ele>1420</ele>
        <time>2020-07-13T07:05:33.055Z</time>
      </trkpt>
      <trkpt lat="42.28718" lon="1.830103">
        <ele>1422</ele>
        <time>2020-07-13T07:05:45.055Z</time>
      </trkpt>
      <trkpt lat="42.287123" lon="1.829944">
        <ele>1424</ele>
        <time>2020-07-13T07:05:56.055Z</time>
      </trkpt>
      <trkpt lat="42.28708" lon="1.829811">
        <ele>1425</ele>
        <time>2020-07-13T07:06:08.055Z</time>
      </trkpt>
      <trkpt lat="42.287016" lon="1.829672">
        <ele>1427</ele>
        <time>2020-07-13T07:06:20.055Z</time>
      </trkpt>
      <trkpt lat="42.287058" lon="1.829544">
        <ele>1429</ele>
        <time>2020-07-13T07:06:28.055Z</time>
      </trkpt>
      <trkpt lat="42.287112" lon="1.829363">
        <ele>1430</ele>
        <time>2020-07-13T07:06:40.055Z</time>
      </trkpt>
      <trkpt lat="42.287115" lon="1.829136">
        <ele>1432</ele>
        <time>2020-07-13T07:06:54.055Z</time>
      </trkpt>
      <trkpt lat="42.286945" lon="1.82892">
        <ele>1435</ele>
        <time>2020-07-13T07:07:08.055Z</time>
      </trkpt>
      <trkpt lat="42.286902" lon="1.828765">
        <ele>1440</ele>
        <time>2020-07-13T07:07:32.055Z</time>
      </trkpt>
      <trkpt lat="42.286826" lon="1.828622">
        <ele>1440</ele>
        <time>2020-07-13T07:07:44.055Z</time>
      </trkpt>
      <trkpt lat="42.286807" lon="1.828463">
        <ele>1442</ele>
        <time>2020-07-13T07:07:56.055Z</time>
      </trkpt>
      <trkpt lat="42.286829" lon="1.828326">
        <ele>1446</ele>
        <time>2020-07-13T07:08:08.055Z</time>
      </trkpt>
      <trkpt lat="42.286815" lon="1.828185">
        <ele>1447</ele>
        <time>2020-07-13T07:08:20.055Z</time>
      </trkpt>
      <trkpt lat="42.286791" lon="1.82802">
        <ele>1450</ele>
        <time>2020-07-13T07:08:32.055Z</time>
      </trkpt>
      <trkpt lat="42.286822" lon="1.827875">
        <ele>1452</ele>
        <time>2020-07-13T07:08:44.055Z</time>
      </trkpt>
      <trkpt lat="42.286818" lon="1.827735">
        <ele>1453</ele>
        <time>2020-07-13T07:08:56.055Z</time>
      </trkpt>
      <trkpt lat="42.286851" lon="1.827584">
        <ele>1455</ele>
        <time>2020-07-13T07:09:08.055Z</time>
      </trkpt>
      <trkpt lat="42.286906" lon="1.82746">
        <ele>1457</ele>
        <time>2020-07-13T07:09:20.055Z</time>
      </trkpt>
      <trkpt lat="42.286939" lon="1.827316">
        <ele>1462.1250048</ele>
        <time>2020-07-13T07:09:36.055Z</time>
      </trkpt>
      <trkpt lat="42.286992" lon="1.827202">
        <ele>1464</ele>
        <time>2020-07-13T07:09:48.055Z</time>
      </trkpt>
      <trkpt lat="42.28706" lon="1.8271">
        <ele>1466</ele>
        <time>2020-07-13T07:10:00.055Z</time>
      </trkpt>
      <trkpt lat="42.287143" lon="1.826982">
        <ele>1470</ele>
        <time>2020-07-13T07:10:12.055Z</time>
      </trkpt>
      <trkpt lat="42.287185" lon="1.826854">
        <ele>1472</ele>
        <time>2020-07-13T07:10:28.055Z</time>
      </trkpt>
      <trkpt lat="42.287205" lon="1.826699">
        <ele>1477</ele>
        <time>2020-07-13T07:10:44.055Z</time>
      </trkpt>
      <trkpt lat="42.287242" lon="1.826543">
        <ele>1478</ele>
        <time>2020-07-13T07:11:00.055Z</time>
      </trkpt>
      <trkpt lat="42.287299" lon="1.826412">
        <ele>1482</ele>
        <time>2020-07-13T07:11:14.055Z</time>
      </trkpt>
      <trkpt lat="42.287404" lon="1.826296">
        <ele>1484</ele>
        <time>2020-07-13T07:11:28.055Z</time>
      </trkpt>
      <trkpt lat="42.287428" lon="1.826148">
        <ele>1485</ele>
        <time>2020-07-13T07:11:39.055Z</time>
      </trkpt>
      <trkpt lat="42.287436" lon="1.825983">
        <ele>1489</ele>
        <time>2020-07-13T07:11:52.055Z</time>
      </trkpt>
      <trkpt lat="42.287338" lon="1.825888">
        <ele>1489</ele>
        <time>2020-07-13T07:12:00.048Z</time>
      </trkpt>
      <trkpt lat="42.287443" lon="1.825766">
        <ele>1492</ele>
        <time>2020-07-13T07:12:13.054Z</time>
      </trkpt>
      <trkpt lat="42.287522" lon="1.825639">
        <ele>1494</ele>
        <time>2020-07-13T07:12:27.055Z</time>
      </trkpt>
      <trkpt lat="42.287643" lon="1.82556">
        <ele>1496</ele>
        <time>2020-07-13T07:12:39.055Z</time>
      </trkpt>
      <trkpt lat="42.28775" lon="1.825441">
        <ele>1498.2480128</ele>
        <time>2020-07-13T07:12:51.054Z</time>
      </trkpt>
      <trkpt lat="42.287758" lon="1.825314">
        <ele>1500</ele>
        <time>2020-07-13T07:13:15.056Z</time>
      </trkpt>
      <trkpt lat="42.287806" lon="1.825171">
        <ele>1499</ele>
        <time>2020-07-13T07:13:53.050Z</time>
      </trkpt>
      <trkpt lat="42.287697" lon="1.82512">
        <ele>1497</ele>
        <time>2020-07-13T07:14:47.055Z</time>
      </trkpt>
      <trkpt lat="42.287749" lon="1.824957">
        <ele>1493</ele>
        <time>2020-07-13T07:14:59.055Z</time>
      </trkpt>
      <trkpt lat="42.28785" lon="1.824811">
        <ele>1492.7479936</ele>
        <time>2020-07-13T07:15:11.056Z</time>
      </trkpt>
      <trkpt lat="42.287925" lon="1.82472">
        <ele>1491</ele>
        <time>2020-07-13T07:15:19.056Z</time>
      </trkpt>
      <trkpt lat="42.287813" lon="1.824712">
        <ele>1487</ele>
        <time>2020-07-13T07:16:19.058Z</time>
      </trkpt>
      <trkpt lat="42.287863" lon="1.824542">
        <ele>1484.6249856</ele>
        <time>2020-07-13T07:16:31.055Z</time>
      </trkpt>
      <trkpt lat="42.287895" lon="1.824411">
        <ele>1479</ele>
        <time>2020-07-13T07:16:43.055Z</time>
      </trkpt>
      <trkpt lat="42.28785" lon="1.824283">
        <ele>1476</ele>
        <time>2020-07-13T07:16:59.055Z</time>
      </trkpt>
      <trkpt lat="42.287942" lon="1.824366">
        <ele>1478</ele>
        <time>2020-07-13T07:17:24.052Z</time>
      </trkpt>
      <trkpt lat="42.288045" lon="1.824375">
        <ele>1480</ele>
        <time>2020-07-13T07:17:44.055Z</time>
      </trkpt>
      <trkpt lat="42.287967" lon="1.824275">
        <ele>1478</ele>
        <time>2020-07-13T07:18:00.055Z</time>
      </trkpt>
      <trkpt lat="42.287935" lon="1.824113">
        <ele>1475</ele>
        <time>2020-07-13T07:18:07.055Z</time>
      </trkpt>
      <trkpt lat="42.28793" lon="1.823962">
        <ele>1474</ele>
        <time>2020-07-13T07:18:19.058Z</time>
      </trkpt>
      <trkpt lat="42.287847" lon="1.824046">
        <ele>1466</ele>
        <time>2020-07-13T07:18:45.058Z</time>
      </trkpt>
      <trkpt lat="42.287812" lon="1.823853">
        <ele>1461.7499904</ele>
        <time>2020-07-13T07:19:01.055Z</time>
      </trkpt>
      <trkpt lat="42.287796" lon="1.82372">
        <ele>1459</ele>
        <time>2020-07-13T07:19:09.055Z</time>
      </trkpt>
      <trkpt lat="42.287765" lon="1.823576">
        <ele>1455.8710016</ele>
        <time>2020-07-13T07:19:21.059Z</time>
      </trkpt>
      <trkpt lat="42.287718" lon="1.823427">
        <ele>1452</ele>
        <time>2020-07-13T07:19:33.055Z</time>
      </trkpt>
      <trkpt lat="42.287712" lon="1.82329">
        <ele>1451.87623247915</ele>
        <time>2020-07-13T07:19:41.055Z</time>
      </trkpt>
      <trkpt lat="42.287676" lon="1.823108">
        <ele>1449</ele>
        <time>2020-07-13T07:19:59.055Z</time>
      </trkpt>
      <trkpt lat="42.287741" lon="1.822994">
        <ele>1448</ele>
        <time>2020-07-13T07:20:07.053Z</time>
      </trkpt>
      <trkpt lat="42.28767" lon="1.822843">
        <ele>1446</ele>
        <time>2020-07-13T07:20:19.055Z</time>
      </trkpt>
      <trkpt lat="42.287576" lon="1.822752">
        <ele>1441</ele>
        <time>2020-07-13T07:20:28.050Z</time>
      </trkpt>
      <trkpt lat="42.287639" lon="1.82263">
        <ele>1434</ele>
        <time>2020-07-13T07:20:47.049Z</time>
      </trkpt>
      <trkpt lat="42.287706" lon="1.822497">
        <ele>1429</ele>
        <time>2020-07-13T07:21:03.055Z</time>
      </trkpt>
      <trkpt lat="42.287599" lon="1.822412">
        <ele>1427.76768421189</ele>
        <time>2020-07-13T07:21:21.055Z</time>
      </trkpt>
      <trkpt lat="42.287594" lon="1.822261">
        <ele>1423</ele>
        <time>2020-07-13T07:21:33.053Z</time>
      </trkpt>
      <trkpt lat="42.287541" lon="1.822118">
        <ele>1414.46295703704</ele>
        <time>2020-07-13T07:22:01.800Z</time>
      </trkpt>
      <trkpt lat="42.287639" lon="1.822061">
        <ele>1410</ele>
        <time>2020-07-13T07:22:17.160Z</time>
      </trkpt>
      <trkpt lat="42.287558" lon="1.82196">
        <ele>1405.8749952</ele>
        <time>2020-07-13T07:22:36.055Z</time>
      </trkpt>
      <trkpt lat="42.287431" lon="1.821875">
        <ele>1404</ele>
        <time>2020-07-13T07:22:49.055Z</time>
      </trkpt>
      <trkpt lat="42.287333" lon="1.821799">
        <ele>1402</ele>
        <time>2020-07-13T07:23:00.055Z</time>
      </trkpt>
      <trkpt lat="42.287284" lon="1.821683">
        <ele>1395</ele>
        <time>2020-07-13T07:23:16.055Z</time>
      </trkpt>
      <trkpt lat="42.287211" lon="1.821568">
        <ele>1390</ele>
        <time>2020-07-13T07:23:34.055Z</time>
      </trkpt>
      <trkpt lat="42.287175" lon="1.821407">
        <ele>1383</ele>
        <time>2020-07-13T07:23:50.055Z</time>
      </trkpt>
      <trkpt lat="42.287078" lon="1.821283">
        <ele>1379</ele>
        <time>2020-07-13T07:24:06.055Z</time>
      </trkpt>
      <trkpt lat="42.287048" lon="1.821148">
        <ele>1373</ele>
        <time>2020-07-13T07:24:29.055Z</time>
      </trkpt>
      <trkpt lat="42.286995" lon="1.821033">
        <ele>1371.7499904</ele>
        <time>2020-07-13T07:24:41.055Z</time>
      </trkpt>
      <trkpt lat="42.286977" lon="1.820895">
        <ele>1367</ele>
        <time>2020-07-13T07:24:53.055Z</time>
      </trkpt>
      <trkpt lat="42.286943" lon="1.820741">
        <ele>1363</ele>
        <time>2020-07-13T07:25:02.055Z</time>
      </trkpt>
      <trkpt lat="42.286945" lon="1.820602">
        <ele>1362</ele>
        <time>2020-07-13T07:25:14.055Z</time>
      </trkpt>
      <trkpt lat="42.28692" lon="1.820437">
        <ele>1355.8749952</ele>
        <time>2020-07-13T07:25:36.055Z</time>
      </trkpt>
      <trkpt lat="42.286848" lon="1.820319">
        <ele>1354</ele>
        <time>2020-07-13T07:25:49.055Z</time>
      </trkpt>
      <trkpt lat="42.286819" lon="1.820157">
        <ele>1348</ele>
        <time>2020-07-13T07:26:05.055Z</time>
      </trkpt>
      <trkpt lat="42.286844" lon="1.820019">
        <ele>1343</ele>
        <time>2020-07-13T07:26:32.056Z</time>
      </trkpt>
      <trkpt lat="42.286948" lon="1.820037">
        <ele>1343</ele>
        <time>2020-07-13T07:26:40.055Z</time>
      </trkpt>
      <trkpt lat="42.287044" lon="1.81996">
        <ele>1341</ele>
        <time>2020-07-13T07:26:48.055Z</time>
      </trkpt>
      <trkpt lat="42.28718" lon="1.819954">
        <ele>1336</ele>
        <time>2020-07-13T07:27:02.061Z</time>
      </trkpt>
      <trkpt lat="42.28731" lon="1.819957">
        <ele>1335</ele>
        <time>2020-07-13T07:27:12.055Z</time>
      </trkpt>
      <trkpt lat="42.287194" lon="1.819876">
        <ele>1332</ele>
        <time>2020-07-13T07:27:37.055Z</time>
      </trkpt>
      <trkpt lat="42.287142" lon="1.819753">
        <ele>1331</ele>
        <time>2020-07-13T07:27:45.055Z</time>
      </trkpt>
      <trkpt lat="42.28719" lon="1.819571">
        <ele>1327</ele>
        <time>2020-07-13T07:27:57.055Z</time>
      </trkpt>
      <trkpt lat="42.287322" lon="1.819466">
        <ele>1325</ele>
        <time>2020-07-13T07:28:09.055Z</time>
      </trkpt>
      <trkpt lat="42.287367" lon="1.819264">
        <ele>1322</ele>
        <time>2020-07-13T07:28:28.055Z</time>
      </trkpt>
      <trkpt lat="42.287404" lon="1.819068">
        <ele>1320</ele>
        <time>2020-07-13T07:28:36.058Z</time>
      </trkpt>
      <trkpt lat="42.287409" lon="1.81891">
        <ele>1317.8749952</ele>
        <time>2020-07-13T07:28:51.055Z</time>
      </trkpt>
      <trkpt lat="42.287397" lon="1.818749">
        <ele>1314</ele>
        <time>2020-07-13T07:29:07.055Z</time>
      </trkpt>
      <trkpt lat="42.287335" lon="1.818639">
        <ele>1313</ele>
        <time>2020-07-13T07:29:15.059Z</time>
      </trkpt>
      <trkpt lat="42.287305" lon="1.818487">
        <ele>1313</ele>
        <time>2020-07-13T07:29:23.058Z</time>
      </trkpt>
      <trkpt lat="42.287227" lon="1.818374">
        <ele>1313</ele>
        <time>2020-07-13T07:29:37.055Z</time>
      </trkpt>
      <trkpt lat="42.287196" lon="1.818259">
        <ele>1313</ele>
        <time>2020-07-13T07:29:45.056Z</time>
      </trkpt>
      <trkpt lat="42.2872" lon="1.818111">
        <ele>1313</ele>
        <time>2020-07-13T07:29:58.055Z</time>
      </trkpt>
      <trkpt lat="42.287132" lon="1.817953">
        <ele>1315</ele>
        <time>2020-07-13T07:30:50.054Z</time>
      </trkpt>
      <trkpt lat="42.287072" lon="1.817789">
        <ele>1314</ele>
        <time>2020-07-13T07:31:02.055Z</time>
      </trkpt>
      <trkpt lat="42.287012" lon="1.817677">
        <ele>1314</ele>
        <time>2020-07-13T07:31:10.055Z</time>
      </trkpt>
      <trkpt lat="42.286969" lon="1.817554">
        <ele>1316</ele>
        <time>2020-07-13T07:31:22.055Z</time>
      </trkpt>
      <trkpt lat="42.286863" lon="1.817377">
        <ele>1316</ele>
        <time>2020-07-13T07:32:13.057Z</time>
      </trkpt>
      <trkpt lat="42.286892" lon="1.817208">
        <ele>1317</ele>
        <time>2020-07-13T07:32:25.056Z</time>
      </trkpt>
      <trkpt lat="42.286968" lon="1.817048">
        <ele>1317</ele>
        <time>2020-07-13T07:32:37.055Z</time>
      </trkpt>
      <trkpt lat="42.287067" lon="1.816941">
        <ele>1318</ele>
        <time>2020-07-13T07:32:49.060Z</time>
      </trkpt>
      <trkpt lat="42.287163" lon="1.816885">
        <ele>1319</ele>
        <time>2020-07-13T07:32:57.159Z</time>
      </trkpt>
      <trkpt lat="42.2873" lon="1.816858">
        <ele>1320</ele>
        <time>2020-07-13T07:33:09.055Z</time>
      </trkpt>
      <trkpt lat="42.287426" lon="1.816946">
        <ele>1321</ele>
        <time>2020-07-13T07:33:21.055Z</time>
      </trkpt>
      <trkpt lat="42.287533" lon="1.816958">
        <ele>1321</ele>
        <time>2020-07-13T07:33:29.055Z</time>
      </trkpt>
      <trkpt lat="42.287627" lon="1.816866">
        <ele>1320</ele>
        <time>2020-07-13T07:33:37.055Z</time>
      </trkpt>
      <trkpt lat="42.287708" lon="1.816772">
        <ele>1321</ele>
        <time>2020-07-13T07:33:45.055Z</time>
      </trkpt>
      <trkpt lat="42.28779" lon="1.81666">
        <ele>1322</ele>
        <time>2020-07-13T07:33:56.052Z</time>
      </trkpt>
      <trkpt lat="42.287832" lon="1.81652">
        <ele>1324</ele>
        <time>2020-07-13T07:34:06.055Z</time>
      </trkpt>
      <trkpt lat="42.287961" lon="1.816383">
        <ele>1326</ele>
        <time>2020-07-13T07:34:24.055Z</time>
      </trkpt>
      <trkpt lat="42.288022" lon="1.816242">
        <ele>1327</ele>
        <time>2020-07-13T07:34:36.055Z</time>
      </trkpt>
      <trkpt lat="42.288085" lon="1.816101">
        <ele>1329</ele>
        <time>2020-07-13T07:34:48.054Z</time>
      </trkpt>
      <trkpt lat="42.288177" lon="1.815843">
        <ele>1333</ele>
        <time>2020-07-13T07:35:06.055Z</time>
      </trkpt>
      <trkpt lat="42.2882" lon="1.815712">
        <ele>1333</ele>
        <time>2020-07-13T07:35:18.062Z</time>
      </trkpt>
      <trkpt lat="42.288234" lon="1.815565">
        <ele>1334</ele>
        <time>2020-07-13T07:35:28.055Z</time>
      </trkpt>
      <trkpt lat="42.288312" lon="1.815415">
        <ele>1336</ele>
        <time>2020-07-13T07:35:40.055Z</time>
      </trkpt>
      <trkpt lat="42.28839" lon="1.815326">
        <ele>1339</ele>
        <time>2020-07-13T07:35:52.047Z</time>
      </trkpt>
      <trkpt lat="42.288429" lon="1.815127">
        <ele>1340</ele>
        <time>2020-07-13T07:36:05.055Z</time>
      </trkpt>
      <trkpt lat="42.288375" lon="1.814984">
        <ele>1341.1250048</ele>
        <time>2020-07-13T07:36:21.055Z</time>
      </trkpt>
      <trkpt lat="42.288345" lon="1.814745">
        <ele>1344</ele>
        <time>2020-07-13T07:36:38.845Z</time>
      </trkpt>
      <trkpt lat="42.288417" lon="1.814652">
        <ele>1346</ele>
        <time>2020-07-13T07:36:50.055Z</time>
      </trkpt>
      <trkpt lat="42.288476" lon="1.814523">
        <ele>1348</ele>
        <time>2020-07-13T07:36:58.055Z</time>
      </trkpt>
      <trkpt lat="42.288525" lon="1.814389">
        <ele>1348</ele>
        <time>2020-07-13T07:37:10.055Z</time>
      </trkpt>
      <trkpt lat="42.288566" lon="1.814254">
        <ele>1351</ele>
        <time>2020-07-13T07:37:22.049Z</time>
      </trkpt>
      <trkpt lat="42.288597" lon="1.814076">
        <ele>1352</ele>
        <time>2020-07-13T07:37:35.055Z</time>
      </trkpt>
      <trkpt lat="42.288654" lon="1.813994">
        <ele>1354</ele>
        <time>2020-07-13T07:37:43.055Z</time>
      </trkpt>
      <trkpt lat="42.288737" lon="1.813907">
        <ele>1354</ele>
        <time>2020-07-13T07:37:55.055Z</time>
      </trkpt>
      <trkpt lat="42.288843" lon="1.813857">
        <ele>1356</ele>
        <time>2020-07-13T07:38:06.055Z</time>
      </trkpt>
      <trkpt lat="42.288969" lon="1.813745">
        <ele>1358</ele>
        <time>2020-07-13T07:38:18.056Z</time>
      </trkpt>
      <trkpt lat="42.289065" lon="1.81369">
        <ele>1357</ele>
        <time>2020-07-13T07:38:28.055Z</time>
      </trkpt>
      <trkpt lat="42.289241" lon="1.813673">
        <ele>1356</ele>
        <time>2020-07-13T07:38:41.055Z</time>
      </trkpt>
      <trkpt lat="42.289356" lon="1.813716">
        <ele>1356</ele>
        <time>2020-07-13T07:38:53.055Z</time>
      </trkpt>
      <trkpt lat="42.289477" lon="1.81367">
        <ele>1357</ele>
        <time>2020-07-13T07:39:09.055Z</time>
      </trkpt>
      <trkpt lat="42.289586" lon="1.813566">
        <ele>1359</ele>
        <time>2020-07-13T07:39:24.055Z</time>
      </trkpt>
      <trkpt lat="42.28966" lon="1.813419">
        <ele>1361</ele>
        <time>2020-07-13T07:39:38.055Z</time>
      </trkpt>
      <trkpt lat="42.289742" lon="1.813302">
        <ele>1363</ele>
        <time>2020-07-13T07:39:50.055Z</time>
      </trkpt>
      <trkpt lat="42.289847" lon="1.813255">
        <ele>1366</ele>
        <time>2020-07-13T07:40:02.055Z</time>
      </trkpt>
      <trkpt lat="42.28995" lon="1.813282">
        <ele>1366</ele>
        <time>2020-07-13T07:40:10.055Z</time>
      </trkpt>
      <trkpt lat="42.290054" lon="1.813276">
        <ele>1369</ele>
        <time>2020-07-13T07:40:24.055Z</time>
      </trkpt>
      <trkpt lat="42.290176" lon="1.813251">
        <ele>1371</ele>
        <time>2020-07-13T07:40:36.055Z</time>
      </trkpt>
      <trkpt lat="42.290277" lon="1.813221">
        <ele>1373</ele>
        <time>2020-07-13T07:40:48.055Z</time>
      </trkpt>
      <trkpt lat="42.290399" lon="1.813205">
        <ele>1375</ele>
        <time>2020-07-13T07:41:00.055Z</time>
      </trkpt>
      <trkpt lat="42.290532" lon="1.813313">
        <ele>1376</ele>
        <time>2020-07-13T07:41:08.055Z</time>
      </trkpt>
      <trkpt lat="42.290647" lon="1.813323">
        <ele>1375</ele>
        <time>2020-07-13T07:41:24.055Z</time>
      </trkpt>
      <trkpt lat="42.290703" lon="1.813195">
        <ele>1378</ele>
        <time>2020-07-13T07:41:44.055Z</time>
      </trkpt>
      <trkpt lat="42.290819" lon="1.813193">
        <ele>1380</ele>
        <time>2020-07-13T07:42:08.055Z</time>
      </trkpt>
      <trkpt lat="42.290906" lon="1.81311">
        <ele>1384</ele>
        <time>2020-07-13T07:42:29.055Z</time>
      </trkpt>
      <trkpt lat="42.290836" lon="1.812979">
        <ele>1386</ele>
        <time>2020-07-13T07:42:50.055Z</time>
      </trkpt>
      <trkpt lat="42.29074" lon="1.812878">
        <ele>1389</ele>
        <time>2020-07-13T07:43:06.055Z</time>
      </trkpt>
      <trkpt lat="42.290639" lon="1.812722">
        <ele>1392</ele>
        <time>2020-07-13T07:43:23.055Z</time>
      </trkpt>
      <trkpt lat="42.290554" lon="1.812542">
        <ele>1394</ele>
        <time>2020-07-13T07:43:37.055Z</time>
      </trkpt>
      <trkpt lat="42.290486" lon="1.812434">
        <ele>1396</ele>
        <time>2020-07-13T07:43:49.055Z</time>
      </trkpt>
      <trkpt lat="42.290407" lon="1.812351">
        <ele>1398</ele>
        <time>2020-07-13T07:44:06.055Z</time>
      </trkpt>
      <trkpt lat="42.290277" lon="1.81228">
        <ele>1401</ele>
        <time>2020-07-13T07:44:26.055Z</time>
      </trkpt>
      <trkpt lat="42.290281" lon="1.812134">
        <ele>1404</ele>
        <time>2020-07-13T07:44:50.055Z</time>
      </trkpt>
      <trkpt lat="42.290385" lon="1.812083">
        <ele>1405</ele>
        <time>2020-07-13T07:45:06.055Z</time>
      </trkpt>
      <trkpt lat="42.290481" lon="1.81202">
        <ele>1406</ele>
        <time>2020-07-13T07:45:18.055Z</time>
      </trkpt>
      <trkpt lat="42.290564" lon="1.81187">
        <ele>1408</ele>
        <time>2020-07-13T07:45:30.055Z</time>
      </trkpt>
      <trkpt lat="42.290632" lon="1.811739">
        <ele>1410</ele>
        <time>2020-07-13T07:45:42.055Z</time>
      </trkpt>
      <trkpt lat="42.290748" lon="1.811676">
        <ele>1412</ele>
        <time>2020-07-13T07:45:58.055Z</time>
      </trkpt>
      <trkpt lat="42.290859" lon="1.811739">
        <ele>1413</ele>
        <time>2020-07-13T07:46:10.055Z</time>
      </trkpt>
      <trkpt lat="42.290988" lon="1.811846">
        <ele>1421</ele>
        <time>2020-07-13T07:46:32.055Z</time>
      </trkpt>
      <trkpt lat="42.291043" lon="1.811978">
        <ele>1421</ele>
        <time>2020-07-13T07:46:48.055Z</time>
      </trkpt>
      <trkpt lat="42.291142" lon="1.812074">
        <ele>1424</ele>
        <time>2020-07-13T07:47:05.055Z</time>
      </trkpt>
      <trkpt lat="42.291241" lon="1.812112">
        <ele>1426</ele>
        <time>2020-07-13T07:47:24.055Z</time>
      </trkpt>
      <trkpt lat="42.291354" lon="1.812052">
        <ele>1430</ele>
        <time>2020-07-13T07:47:44.055Z</time>
      </trkpt>
      <trkpt lat="42.29146" lon="1.812097">
        <ele>1431</ele>
        <time>2020-07-13T07:48:00.055Z</time>
      </trkpt>
      <trkpt lat="42.291553" lon="1.812186">
        <ele>1435</ele>
        <time>2020-07-13T07:48:12.055Z</time>
      </trkpt>
      <trkpt lat="42.291588" lon="1.812037">
        <ele>1437</ele>
        <time>2020-07-13T07:48:44.055Z</time>
      </trkpt>
      <trkpt lat="42.291632" lon="1.811892">
        <ele>1439</ele>
        <time>2020-07-13T07:49:00.055Z</time>
      </trkpt>
      <trkpt lat="42.291738" lon="1.811778">
        <ele>1443</ele>
        <time>2020-07-13T07:49:16.055Z</time>
      </trkpt>
      <trkpt lat="42.291859" lon="1.811664">
        <ele>1444.2500096</ele>
        <time>2020-07-13T07:49:31.055Z</time>
      </trkpt>
      <trkpt lat="42.291962" lon="1.811623">
        <ele>1446</ele>
        <time>2020-07-13T07:49:47.055Z</time>
      </trkpt>
      <trkpt lat="42.291929" lon="1.811491">
        <ele>1449</ele>
        <time>2020-07-13T07:50:25.055Z</time>
      </trkpt>
      <trkpt lat="42.291924" lon="1.811335">
        <ele>1451</ele>
        <time>2020-07-13T07:50:37.055Z</time>
      </trkpt>
      <trkpt lat="42.291937" lon="1.811192">
        <ele>1452</ele>
        <time>2020-07-13T07:50:48.055Z</time>
      </trkpt>
      <trkpt lat="42.291906" lon="1.81101">
        <ele>1456</ele>
        <time>2020-07-13T07:51:02.055Z</time>
      </trkpt>
      <trkpt lat="42.291934" lon="1.810839">
        <ele>1458</ele>
        <time>2020-07-13T07:51:12.056Z</time>
      </trkpt>
      <trkpt lat="42.291906" lon="1.81067">
        <ele>1460</ele>
        <time>2020-07-13T07:51:28.053Z</time>
      </trkpt>
      <trkpt lat="42.291855" lon="1.810539">
        <ele>1463</ele>
        <time>2020-07-13T07:51:44.055Z</time>
      </trkpt>
      <trkpt lat="42.291784" lon="1.810419">
        <ele>1466</ele>
        <time>2020-07-13T07:52:10.058Z</time>
      </trkpt>
      <trkpt lat="42.291682" lon="1.810367">
        <ele>1468</ele>
        <time>2020-07-13T07:52:18.062Z</time>
      </trkpt>
      <trkpt lat="42.291625" lon="1.810189">
        <ele>1469.1250048</ele>
        <time>2020-07-13T07:52:31.055Z</time>
      </trkpt>
      <trkpt lat="42.291591" lon="1.810025">
        <ele>1472</ele>
        <time>2020-07-13T07:52:43.055Z</time>
      </trkpt>
      <trkpt lat="42.291522" lon="1.809924">
        <ele>1473</ele>
        <time>2020-07-13T07:52:55.051Z</time>
      </trkpt>
      <trkpt lat="42.291472" lon="1.8098">
        <ele>1476</ele>
        <time>2020-07-13T07:53:07.055Z</time>
      </trkpt>
      <trkpt lat="42.291384" lon="1.80976">
        <ele>1478</ele>
        <time>2020-07-13T07:53:27.155Z</time>
      </trkpt>
      <trkpt lat="42.291328" lon="1.809623">
        <ele>1479</ele>
        <time>2020-07-13T07:53:39.055Z</time>
      </trkpt>
      <trkpt lat="42.291297" lon="1.809485">
        <ele>1482</ele>
        <time>2020-07-13T07:53:55.051Z</time>
      </trkpt>
      <trkpt lat="42.291185" lon="1.809404">
        <ele>1482</ele>
        <time>2020-07-13T07:54:07.055Z</time>
      </trkpt>
      <trkpt lat="42.291106" lon="1.809366">
        <ele>1484</ele>
        <time>2020-07-13T07:54:15.058Z</time>
      </trkpt>
      <trkpt lat="42.291116" lon="1.809218">
        <ele>1486</ele>
        <time>2020-07-13T07:54:27.151Z</time>
      </trkpt>
      <trkpt lat="42.291149" lon="1.809086">
        <ele>1488</ele>
        <time>2020-07-13T07:54:47.056Z</time>
      </trkpt>
      <trkpt lat="42.291213" lon="1.80894">
        <ele>1492</ele>
        <time>2020-07-13T07:55:03.055Z</time>
      </trkpt>
      <trkpt lat="42.291245" lon="1.808767">
        <ele>1493</ele>
        <time>2020-07-13T07:55:15.052Z</time>
      </trkpt>
      <trkpt lat="42.29128" lon="1.808654">
        <ele>1495</ele>
        <time>2020-07-13T07:55:23.053Z</time>
      </trkpt>
      <trkpt lat="42.291335" lon="1.808496">
        <ele>1496</ele>
        <time>2020-07-13T07:55:35.055Z</time>
      </trkpt>
      <trkpt lat="42.291377" lon="1.808399">
        <ele>1497</ele>
        <time>2020-07-13T07:55:43.055Z</time>
      </trkpt>
      <trkpt lat="42.291428" lon="1.808228">
        <ele>1499</ele>
        <time>2020-07-13T07:55:55.050Z</time>
      </trkpt>
      <trkpt lat="42.291504" lon="1.808134">
        <ele>1501</ele>
        <time>2020-07-13T07:56:07.055Z</time>
      </trkpt>
      <trkpt lat="42.291549" lon="1.80806">
        <ele>1502</ele>
        <time>2020-07-13T07:56:15.057Z</time>
      </trkpt>
      <trkpt lat="42.291639" lon="1.80797">
        <ele>1503</ele>
        <time>2020-07-13T07:56:27.157Z</time>
      </trkpt>
      <trkpt lat="42.291724" lon="1.807835">
        <ele>1507</ele>
        <time>2020-07-13T07:56:43.055Z</time>
      </trkpt>
      <trkpt lat="42.291837" lon="1.807819">
        <ele>1508</ele>
        <time>2020-07-13T07:56:55.055Z</time>
      </trkpt>
      <trkpt lat="42.291909" lon="1.807678">
        <ele>1509</ele>
        <time>2020-07-13T07:57:07.055Z</time>
      </trkpt>
      <trkpt lat="42.291958" lon="1.807537">
        <ele>1511</ele>
        <time>2020-07-13T07:57:19.053Z</time>
      </trkpt>
      <trkpt lat="42.292017" lon="1.807385">
        <ele>1515</ele>
        <time>2020-07-13T07:57:35.055Z</time>
      </trkpt>
      <trkpt lat="42.292051" lon="1.807248">
        <ele>1517</ele>
        <time>2020-07-13T07:57:47.058Z</time>
      </trkpt>
      <trkpt lat="42.292082" lon="1.807118">
        <ele>1518</ele>
        <time>2020-07-13T07:57:59.055Z</time>
      </trkpt>
      <trkpt lat="42.292128" lon="1.806962">
        <ele>1519.2500096</ele>
        <time>2020-07-13T07:58:11.055Z</time>
      </trkpt>
      <trkpt lat="42.29218" lon="1.806838">
        <ele>1523</ele>
        <time>2020-07-13T07:58:23.157Z</time>
      </trkpt>
      <trkpt lat="42.292209" lon="1.806706">
        <ele>1523</ele>
        <time>2020-07-13T07:58:31.055Z</time>
      </trkpt>
      <trkpt lat="42.292234" lon="1.806616">
        <ele>1523</ele>
        <time>2020-07-13T07:58:39.055Z</time>
      </trkpt>
      <trkpt lat="42.292303" lon="1.80647">
        <ele>1525.256</ele>
        <time>2020-07-13T07:58:51.058Z</time>
      </trkpt>
      <trkpt lat="42.292376" lon="1.80636">
        <ele>1527</ele>
        <time>2020-07-13T07:58:59.059Z</time>
      </trkpt>
      <trkpt lat="42.292421" lon="1.806216">
        <ele>1527.1180032</ele>
        <time>2020-07-13T07:59:11.048Z</time>
      </trkpt>
      <trkpt lat="42.292509" lon="1.806159">
        <ele>1530</ele>
        <time>2020-07-13T07:59:27.157Z</time>
      </trkpt>
      <trkpt lat="42.292559" lon="1.806037">
        <ele>1532</ele>
        <time>2020-07-13T07:59:35.055Z</time>
      </trkpt>
      <trkpt lat="42.292584" lon="1.805942">
        <ele>1533</ele>
        <time>2020-07-13T07:59:43.055Z</time>
      </trkpt>
      <trkpt lat="42.292655" lon="1.80583">
        <ele>1534</ele>
        <time>2020-07-13T07:59:55.054Z</time>
      </trkpt>
      <trkpt lat="42.292761" lon="1.805694">
        <ele>1536.2500096</ele>
        <time>2020-07-13T08:00:11.055Z</time>
      </trkpt>
      <trkpt lat="42.292847" lon="1.805622">
        <ele>1538</ele>
        <time>2020-07-13T08:00:20.055Z</time>
      </trkpt>
      <trkpt lat="42.292957" lon="1.805574">
        <ele>1538</ele>
        <time>2020-07-13T08:00:29.055Z</time>
      </trkpt>
      <trkpt lat="42.293077" lon="1.805478">
        <ele>1540</ele>
        <time>2020-07-13T08:00:45.055Z</time>
      </trkpt>
      <trkpt lat="42.29321" lon="1.805413">
        <ele>1540</ele>
        <time>2020-07-13T08:00:57.154Z</time>
      </trkpt>
      <trkpt lat="42.293322" lon="1.805298">
        <ele>1539</ele>
        <time>2020-07-13T08:01:09.055Z</time>
      </trkpt>
      <trkpt lat="42.293426" lon="1.805183">
        <ele>1540.1260032</ele>
        <time>2020-07-13T08:01:21.056Z</time>
      </trkpt>
      <trkpt lat="42.293539" lon="1.805078">
        <ele>1543</ele>
        <time>2020-07-13T08:01:33.055Z</time>
      </trkpt>
      <trkpt lat="42.293595" lon="1.804902">
        <ele>1543</ele>
        <time>2020-07-13T08:01:48.055Z</time>
      </trkpt>
      <trkpt lat="42.293727" lon="1.804937">
        <ele>1547</ele>
        <time>2020-07-13T08:02:29.053Z</time>
      </trkpt>
      <trkpt lat="42.293795" lon="1.805071">
        <ele>1551</ele>
        <time>2020-07-13T08:02:46.058Z</time>
      </trkpt>
      <trkpt lat="42.293797" lon="1.805215">
        <ele>1554</ele>
        <time>2020-07-13T08:03:02.055Z</time>
      </trkpt>
      <trkpt lat="42.293902" lon="1.805213">
        <ele>1556</ele>
        <time>2020-07-13T08:03:26.055Z</time>
      </trkpt>
      <trkpt lat="42.293936" lon="1.805072">
        <ele>1557</ele>
        <time>2020-07-13T08:03:34.051Z</time>
      </trkpt>
      <trkpt lat="42.29401" lon="1.804965">
        <ele>1559</ele>
        <time>2020-07-13T08:03:46.055Z</time>
      </trkpt>
      <trkpt lat="42.29402" lon="1.805104">
        <ele>1561</ele>
        <time>2020-07-13T08:05:43.059Z</time>
      </trkpt>
      <trkpt lat="42.294083" lon="1.804997">
        <ele>1561</ele>
        <time>2020-07-13T08:05:55.152Z</time>
      </trkpt>
      <trkpt lat="42.294008" lon="1.804899">
        <ele>1560</ele>
        <time>2020-07-13T08:07:42.047Z</time>
      </trkpt>
      <trkpt lat="42.293937" lon="1.805002">
        <ele>1560</ele>
        <time>2020-07-13T08:10:00.051Z</time>
      </trkpt>
      <trkpt lat="42.29407" lon="1.804936">
        <ele>1561</ele>
        <time>2020-07-13T08:10:12.048Z</time>
      </trkpt>
      <trkpt lat="42.294166" lon="1.804865">
        <ele>1561</ele>
        <time>2020-07-13T08:10:46.053Z</time>
      </trkpt>
      <trkpt lat="42.294075" lon="1.80492">
        <ele>1561</ele>
        <time>2020-07-13T08:10:58.055Z</time>
      </trkpt>
      <trkpt lat="42.293879" lon="1.804924">
        <ele>1561</ele>
        <time>2020-07-13T08:11:14.055Z</time>
      </trkpt>
      <trkpt lat="42.293968" lon="1.804985">
        <ele>1560</ele>
        <time>2020-07-13T08:13:27.055Z</time>
      </trkpt>
      <trkpt lat="42.294081" lon="1.804936">
        <ele>1563</ele>
        <time>2020-07-13T08:29:15.052Z</time>
      </trkpt>
      <trkpt lat="42.294043" lon="1.80511">
        <ele>1564</ele>
        <time>2020-07-13T08:30:06.057Z</time>
      </trkpt>
      <trkpt lat="42.293985" lon="1.805104">
        <ele>1564</ele>
        <time>2020-07-13T08:31:09.055Z</time>
      </trkpt>
      <trkpt lat="42.2939" lon="1.805223">
        <ele>1562</ele>
        <time>2020-07-13T08:31:45.046Z</time>
      </trkpt>
      <trkpt lat="42.293802" lon="1.805278">
        <ele>1562</ele>
        <time>2020-07-13T08:31:53.055Z</time>
      </trkpt>
      <trkpt lat="42.293696" lon="1.805243">
        <ele>1561.6249856</ele>
        <time>2020-07-13T08:32:01.055Z</time>
      </trkpt>
      <trkpt lat="42.293593" lon="1.805148">
        <ele>1557</ele>
        <time>2020-07-13T08:32:13.057Z</time>
      </trkpt>
      <trkpt lat="42.293647" lon="1.805024">
        <ele>1555</ele>
        <time>2020-07-13T08:32:37.055Z</time>
      </trkpt>
      <trkpt lat="42.293569" lon="1.804899">
        <ele>1552</ele>
        <time>2020-07-13T08:32:49.056Z</time>
      </trkpt>
      <trkpt lat="42.293471" lon="1.80482">
        <ele>1552</ele>
        <time>2020-07-13T08:33:14.055Z</time>
      </trkpt>
      <trkpt lat="42.293404" lon="1.804698">
        <ele>1552</ele>
        <time>2020-07-13T08:33:30.054Z</time>
      </trkpt>
      <trkpt lat="42.293328" lon="1.804555">
        <ele>1549</ele>
        <time>2020-07-13T08:33:42.052Z</time>
      </trkpt>
      <trkpt lat="42.293225" lon="1.804503">
        <ele>1549</ele>
        <time>2020-07-13T08:33:50.054Z</time>
      </trkpt>
      <trkpt lat="42.293142" lon="1.804357">
        <ele>1550</ele>
        <time>2020-07-13T08:34:08.055Z</time>
      </trkpt>
      <trkpt lat="42.293034" lon="1.804252">
        <ele>1553</ele>
        <time>2020-07-13T08:34:28.055Z</time>
      </trkpt>
      <trkpt lat="42.293061" lon="1.804381">
        <ele>1553</ele>
        <time>2020-07-13T08:35:48.055Z</time>
      </trkpt>
      <trkpt lat="42.293176" lon="1.804441">
        <ele>1551</ele>
        <time>2020-07-13T08:36:32.055Z</time>
      </trkpt>
      <trkpt lat="42.293299" lon="1.804554">
        <ele>1550</ele>
        <time>2020-07-13T08:36:43.057Z</time>
      </trkpt>
      <trkpt lat="42.293248" lon="1.804703">
        <ele>1549</ele>
        <time>2020-07-13T08:36:59.064Z</time>
      </trkpt>
      <trkpt lat="42.29322" lon="1.804876">
        <ele>1547</ele>
        <time>2020-07-13T08:37:07.055Z</time>
      </trkpt>
      <trkpt lat="42.293154" lon="1.804978">
        <ele>1546</ele>
        <time>2020-07-13T08:37:19.055Z</time>
      </trkpt>
      <trkpt lat="42.293024" lon="1.80501">
        <ele>1543</ele>
        <time>2020-07-13T08:37:35.055Z</time>
      </trkpt>
      <trkpt lat="42.29291" lon="1.804984">
        <ele>1540</ele>
        <time>2020-07-13T08:37:43.050Z</time>
      </trkpt>
      <trkpt lat="42.29281" lon="1.805011">
        <ele>1536</ele>
        <time>2020-07-13T08:37:59.048Z</time>
      </trkpt>
      <trkpt lat="42.29269" lon="1.805027">
        <ele>1531</ele>
        <time>2020-07-13T08:38:19.055Z</time>
      </trkpt>
      <trkpt lat="42.292571" lon="1.805057">
        <ele>1530</ele>
        <time>2020-07-13T08:38:39.055Z</time>
      </trkpt>
      <trkpt lat="42.292454" lon="1.805092">
        <ele>1528</ele>
        <time>2020-07-13T08:38:47.054Z</time>
      </trkpt>
      <trkpt lat="42.292401" lon="1.805236">
        <ele>1523</ele>
        <time>2020-07-13T08:38:59.056Z</time>
      </trkpt>
      <trkpt lat="42.292289" lon="1.805257">
        <ele>1520.7559808</ele>
        <time>2020-07-13T08:39:11.052Z</time>
      </trkpt>
      <trkpt lat="42.292196" lon="1.805367">
        <ele>1520</ele>
        <time>2020-07-13T08:39:19.055Z</time>
      </trkpt>
      <trkpt lat="42.292118" lon="1.805513">
        <ele>1511</ele>
        <time>2020-07-13T08:39:47.055Z</time>
      </trkpt>
      <trkpt lat="42.292071" lon="1.805632">
        <ele>1508</ele>
        <time>2020-07-13T08:39:59.055Z</time>
      </trkpt>
      <trkpt lat="42.291973" lon="1.805603">
        <ele>1506</ele>
        <time>2020-07-13T08:40:37.055Z</time>
      </trkpt>
      <trkpt lat="42.291865" lon="1.805647">
        <ele>1504</ele>
        <time>2020-07-13T08:40:44.055Z</time>
      </trkpt>
      <trkpt lat="42.29173" lon="1.805727">
        <ele>1499</ele>
        <time>2020-07-13T08:40:57.055Z</time>
      </trkpt>
      <trkpt lat="42.291615" lon="1.805774">
        <ele>1497</ele>
        <time>2020-07-13T08:41:05.055Z</time>
      </trkpt>
      <trkpt lat="42.291454" lon="1.805899">
        <ele>1494</ele>
        <time>2020-07-13T08:41:22.055Z</time>
      </trkpt>
      <trkpt lat="42.291313" lon="1.805949">
        <ele>1491</ele>
        <time>2020-07-13T08:41:34.055Z</time>
      </trkpt>
      <trkpt lat="42.291196" lon="1.806029">
        <ele>1490</ele>
        <time>2020-07-13T08:41:42.062Z</time>
      </trkpt>
      <trkpt lat="42.291101" lon="1.806126">
        <ele>1485</ele>
        <time>2020-07-13T08:41:57.055Z</time>
      </trkpt>
      <trkpt lat="42.29097" lon="1.80622">
        <ele>1481</ele>
        <time>2020-07-13T08:42:14.055Z</time>
      </trkpt>
      <trkpt lat="42.290916" lon="1.80634">
        <ele>1475.8749952</ele>
        <time>2020-07-13T08:42:31.055Z</time>
      </trkpt>
      <trkpt lat="42.290798" lon="1.806484">
        <ele>1470</ele>
        <time>2020-07-13T08:42:49.055Z</time>
      </trkpt>
      <trkpt lat="42.290693" lon="1.80662">
        <ele>1466.8749952</ele>
        <time>2020-07-13T08:43:01.055Z</time>
      </trkpt>
      <trkpt lat="42.290629" lon="1.806821">
        <ele>1465</ele>
        <time>2020-07-13T08:43:12.055Z</time>
      </trkpt>
      <trkpt lat="42.290563" lon="1.806955">
        <ele>1465</ele>
        <time>2020-07-13T08:43:20.155Z</time>
      </trkpt>
      <trkpt lat="42.29046" lon="1.807021">
        <ele>1464</ele>
        <time>2020-07-13T08:43:28.055Z</time>
      </trkpt>
      <trkpt lat="42.290373" lon="1.80711">
        <ele>1460</ele>
        <time>2020-07-13T08:43:40.055Z</time>
      </trkpt>
      <trkpt lat="42.290339" lon="1.80728">
        <ele>1454.753984</ele>
        <time>2020-07-13T08:43:56.053Z</time>
      </trkpt>
      <trkpt lat="42.29027" lon="1.807406">
        <ele>1450.8749952</ele>
        <time>2020-07-13T08:44:06.055Z</time>
      </trkpt>
      <trkpt lat="42.290186" lon="1.807489">
        <ele>1447</ele>
        <time>2020-07-13T08:44:18.055Z</time>
      </trkpt>
      <trkpt lat="42.290098" lon="1.807593">
        <ele>1444</ele>
        <time>2020-07-13T08:44:30.055Z</time>
      </trkpt>
      <trkpt lat="42.290025" lon="1.807702">
        <ele>1440</ele>
        <time>2020-07-13T08:44:43.055Z</time>
      </trkpt>
      <trkpt lat="42.289908" lon="1.807816">
        <ele>1436</ele>
        <time>2020-07-13T08:44:57.055Z</time>
      </trkpt>
      <trkpt lat="42.289884" lon="1.807956">
        <ele>1431</ele>
        <time>2020-07-13T08:45:13.055Z</time>
      </trkpt>
      <trkpt lat="42.289813" lon="1.808246">
        <ele>1428</ele>
        <time>2020-07-13T08:45:30.055Z</time>
      </trkpt>
      <trkpt lat="42.289729" lon="1.808416">
        <ele>1426</ele>
        <time>2020-07-13T08:45:44.055Z</time>
      </trkpt>
      <trkpt lat="42.289683" lon="1.808548">
        <ele>1422.7499904</ele>
        <time>2020-07-13T08:45:56.055Z</time>
      </trkpt>
      <trkpt lat="42.289661" lon="1.808704">
        <ele>1418</ele>
        <time>2020-07-13T08:46:15.055Z</time>
      </trkpt>
      <trkpt lat="42.289654" lon="1.808849">
        <ele>1415</ele>
        <time>2020-07-13T08:46:23.055Z</time>
      </trkpt>
      <trkpt lat="42.289631" lon="1.809001">
        <ele>1412.8749952</ele>
        <time>2020-07-13T08:46:31.055Z</time>
      </trkpt>
      <trkpt lat="42.289565" lon="1.809121">
        <ele>1410</ele>
        <time>2020-07-13T08:46:39.055Z</time>
      </trkpt>
      <trkpt lat="42.289466" lon="1.809232">
        <ele>1406</ele>
        <time>2020-07-13T08:46:54.055Z</time>
      </trkpt>
      <trkpt lat="42.2894" lon="1.809334">
        <ele>1403</ele>
        <time>2020-07-13T08:47:02.055Z</time>
      </trkpt>
      <trkpt lat="42.289346" lon="1.809478">
        <ele>1401</ele>
        <time>2020-07-13T08:47:18.060Z</time>
      </trkpt>
      <trkpt lat="42.289256" lon="1.809566">
        <ele>1398.876992</ele>
        <time>2020-07-13T08:47:26.053Z</time>
      </trkpt>
      <trkpt lat="42.289116" lon="1.809492">
        <ele>1397</ele>
        <time>2020-07-13T08:47:40.055Z</time>
      </trkpt>
      <trkpt lat="42.289066" lon="1.809643">
        <ele>1392</ele>
        <time>2020-07-13T08:47:55.055Z</time>
      </trkpt>
      <trkpt lat="42.288968" lon="1.809766">
        <ele>1387</ele>
        <time>2020-07-13T08:48:07.055Z</time>
      </trkpt>
      <trkpt lat="42.288904" lon="1.809874">
        <ele>1385.62869743746</ele>
        <time>2020-07-13T08:48:21.055Z</time>
      </trkpt>
      <trkpt lat="42.288874" lon="1.810014">
        <ele>1378</ele>
        <time>2020-07-13T08:48:44.055Z</time>
      </trkpt>
      <trkpt lat="42.288787" lon="1.81016">
        <ele>1372</ele>
        <time>2020-07-13T08:49:04.055Z</time>
      </trkpt>
      <trkpt lat="42.288703" lon="1.810325">
        <ele>1371</ele>
        <time>2020-07-13T08:49:16.055Z</time>
      </trkpt>
      <trkpt lat="42.288619" lon="1.810475">
        <ele>1367</ele>
        <time>2020-07-13T08:49:29.055Z</time>
      </trkpt>
      <trkpt lat="42.28855" lon="1.810612">
        <ele>1362</ele>
        <time>2020-07-13T08:49:45.055Z</time>
      </trkpt>
      <trkpt lat="42.288495" lon="1.810764">
        <ele>1358</ele>
        <time>2020-07-13T08:49:57.055Z</time>
      </trkpt>
      <trkpt lat="42.288455" lon="1.810933">
        <ele>1355</ele>
        <time>2020-07-13T08:50:09.055Z</time>
      </trkpt>
      <trkpt lat="42.288368" lon="1.811086">
        <ele>1354</ele>
        <time>2020-07-13T08:50:21.055Z</time>
      </trkpt>
      <trkpt lat="42.2883" lon="1.811225">
        <ele>1350</ele>
        <time>2020-07-13T08:50:33.055Z</time>
      </trkpt>
      <trkpt lat="42.288457" lon="1.811186">
        <ele>1340</ele>
        <time>2020-07-13T08:51:00.055Z</time>
      </trkpt>
      <trkpt lat="42.288551" lon="1.811264">
        <ele>1338</ele>
        <time>2020-07-13T08:51:12.055Z</time>
      </trkpt>
      <trkpt lat="42.288559" lon="1.811432">
        <ele>1331</ele>
        <time>2020-07-13T08:51:32.055Z</time>
      </trkpt>
      <trkpt lat="42.288463" lon="1.811601">
        <ele>1329</ele>
        <time>2020-07-13T08:51:43.055Z</time>
      </trkpt>
      <trkpt lat="42.288441" lon="1.811768">
        <ele>1326</ele>
        <time>2020-07-13T08:51:55.054Z</time>
      </trkpt>
      <trkpt lat="42.288421" lon="1.811922">
        <ele>1321</ele>
        <time>2020-07-13T08:52:08.055Z</time>
      </trkpt>
      <trkpt lat="42.288305" lon="1.811997">
        <ele>1320</ele>
        <time>2020-07-13T08:52:18.055Z</time>
      </trkpt>
      <trkpt lat="42.28829" lon="1.812202">
        <ele>1318</ele>
        <time>2020-07-13T08:52:53.055Z</time>
      </trkpt>
      <trkpt lat="42.288238" lon="1.812358">
        <ele>1317.744</ele>
        <time>2020-07-13T08:53:01.058Z</time>
      </trkpt>
      <trkpt lat="42.28816" lon="1.812512">
        <ele>1316</ele>
        <time>2020-07-13T08:53:09.051Z</time>
      </trkpt>
      <trkpt lat="42.288124" lon="1.812642">
        <ele>1315</ele>
        <time>2020-07-13T08:53:17.061Z</time>
      </trkpt>
      <trkpt lat="42.288024" lon="1.812702">
        <ele>1314</ele>
        <time>2020-07-13T08:53:25.050Z</time>
      </trkpt>
      <trkpt lat="42.28796" lon="1.812874">
        <ele>1312</ele>
        <time>2020-07-13T08:53:35.055Z</time>
      </trkpt>
      <trkpt lat="42.287862" lon="1.812917">
        <ele>1310</ele>
        <time>2020-07-13T08:53:46.055Z</time>
      </trkpt>
      <trkpt lat="42.287776" lon="1.813059">
        <ele>1309</ele>
        <time>2020-07-13T08:53:58.053Z</time>
      </trkpt>
      <trkpt lat="42.287657" lon="1.81312">
        <ele>1307</ele>
        <time>2020-07-13T08:54:09.055Z</time>
      </trkpt>
      <trkpt lat="42.287544" lon="1.813379">
        <ele>1304</ele>
        <time>2020-07-13T08:54:27.055Z</time>
      </trkpt>
      <trkpt lat="42.287458" lon="1.813496">
        <ele>1301</ele>
        <time>2020-07-13T08:54:35.055Z</time>
      </trkpt>
      <trkpt lat="42.287352" lon="1.813637">
        <ele>1299</ele>
        <time>2020-07-13T08:54:47.055Z</time>
      </trkpt>
      <trkpt lat="42.287335" lon="1.813844">
        <ele>1295</ele>
        <time>2020-07-13T08:55:00.055Z</time>
      </trkpt>
      <trkpt lat="42.287267" lon="1.813992">
        <ele>1292</ele>
        <time>2020-07-13T08:55:12.061Z</time>
      </trkpt>
      <trkpt lat="42.287117" lon="1.81398">
        <ele>1291</ele>
        <time>2020-07-13T08:55:23.055Z</time>
      </trkpt>
      <trkpt lat="42.287055" lon="1.814096">
        <ele>1288</ele>
        <time>2020-07-13T08:55:35.055Z</time>
      </trkpt>
      <trkpt lat="42.286978" lon="1.814182">
        <ele>1285</ele>
        <time>2020-07-13T08:55:57.055Z</time>
      </trkpt>
      <trkpt lat="42.286877" lon="1.814214">
        <ele>1283</ele>
        <time>2020-07-13T08:56:21.055Z</time>
      </trkpt>
      <trkpt lat="42.28679" lon="1.814284">
        <ele>1280</ele>
        <time>2020-07-13T08:56:53.055Z</time>
      </trkpt>
      <trkpt lat="42.286662" lon="1.814405">
        <ele>1281</ele>
        <time>2020-07-13T08:57:37.055Z</time>
      </trkpt>
      <trkpt lat="42.286556" lon="1.814487">
        <ele>1282</ele>
        <time>2020-07-13T08:57:49.055Z</time>
      </trkpt>
      <trkpt lat="42.286446" lon="1.814502">
        <ele>1284</ele>
        <time>2020-07-13T08:57:58.164Z</time>
      </trkpt>
      <trkpt lat="42.286351" lon="1.814596">
        <ele>1285</ele>
        <time>2020-07-13T08:58:06.055Z</time>
      </trkpt>
      <trkpt lat="42.286281" lon="1.814758">
        <ele>1285</ele>
        <time>2020-07-13T08:58:14.057Z</time>
      </trkpt>
      <trkpt lat="42.286179" lon="1.814928">
        <ele>1283</ele>
        <time>2020-07-13T08:58:25.055Z</time>
      </trkpt>
      <trkpt lat="42.286104" lon="1.815102">
        <ele>1276.8749952</ele>
        <time>2020-07-13T08:58:41.055Z</time>
      </trkpt>
      <trkpt lat="42.286068" lon="1.815272">
        <ele>1275</ele>
        <time>2020-07-13T08:58:55.055Z</time>
      </trkpt>
      <trkpt lat="42.285922" lon="1.815331">
        <ele>1272</ele>
        <time>2020-07-13T08:59:03.055Z</time>
      </trkpt>
      <trkpt lat="42.285816" lon="1.815395">
        <ele>1271.8749952</ele>
        <time>2020-07-13T08:59:11.055Z</time>
      </trkpt>
      <trkpt lat="42.285726" lon="1.815513">
        <ele>1271</ele>
        <time>2020-07-13T08:59:19.055Z</time>
      </trkpt>
      <trkpt lat="42.285634" lon="1.815647">
        <ele>1270.8749952</ele>
        <time>2020-07-13T08:59:31.055Z</time>
      </trkpt>
      <trkpt lat="42.285544" lon="1.815718">
        <ele>1270</ele>
        <time>2020-07-13T08:59:39.055Z</time>
      </trkpt>
      <trkpt lat="42.285412" lon="1.815774">
        <ele>1269</ele>
        <time>2020-07-13T08:59:48.054Z</time>
      </trkpt>
      <trkpt lat="42.285248" lon="1.815821">
        <ele>1268</ele>
        <time>2020-07-13T08:59:56.055Z</time>
      </trkpt>
      <trkpt lat="42.285178" lon="1.815918">
        <ele>1264</ele>
        <time>2020-07-13T09:00:08.155Z</time>
      </trkpt>
      <trkpt lat="42.285061" lon="1.816026">
        <ele>1263</ele>
        <time>2020-07-13T09:00:16.055Z</time>
      </trkpt>
      <trkpt lat="42.284895" lon="1.81604">
        <ele>1261</ele>
        <time>2020-07-13T09:00:30.055Z</time>
      </trkpt>
      <trkpt lat="42.28479" lon="1.816171">
        <ele>1261</ele>
        <time>2020-07-13T09:00:40.055Z</time>
      </trkpt>
      <trkpt lat="42.284669" lon="1.816245">
        <ele>1259</ele>
        <time>2020-07-13T09:00:49.055Z</time>
      </trkpt>
      <trkpt lat="42.284562" lon="1.816331">
        <ele>1257</ele>
        <time>2020-07-13T09:00:57.055Z</time>
      </trkpt>
      <trkpt lat="42.284441" lon="1.816386">
        <ele>1253</ele>
        <time>2020-07-13T09:01:09.055Z</time>
      </trkpt>
      <trkpt lat="42.284332" lon="1.816381">
        <ele>1251</ele>
        <time>2020-07-13T09:01:17.051Z</time>
      </trkpt>
      <trkpt lat="42.284186" lon="1.816339">
        <ele>1247</ele>
        <time>2020-07-13T09:01:29.055Z</time>
      </trkpt>
      <trkpt lat="42.284023" lon="1.816357">
        <ele>1247</ele>
        <time>2020-07-13T09:01:37.055Z</time>
      </trkpt>
      <trkpt lat="42.283899" lon="1.81632">
        <ele>1245</ele>
        <time>2020-07-13T09:01:45.055Z</time>
      </trkpt>
      <trkpt lat="42.283803" lon="1.816251">
        <ele>1244</ele>
        <time>2020-07-13T09:01:53.055Z</time>
      </trkpt>
      <trkpt lat="42.283647" lon="1.816242">
        <ele>1243.8839936</ele>
        <time>2020-07-13T09:02:01.046Z</time>
      </trkpt>
      <trkpt lat="42.283534" lon="1.816217">
        <ele>1241</ele>
        <time>2020-07-13T09:02:17.055Z</time>
      </trkpt>
      <trkpt lat="42.283377" lon="1.816179">
        <ele>1235</ele>
        <time>2020-07-13T09:02:28.054Z</time>
      </trkpt>
      <trkpt lat="42.283374" lon="1.816386">
        <ele>1227</ele>
        <time>2020-07-13T09:02:55.055Z</time>
      </trkpt>
      <trkpt lat="42.283268" lon="1.816463">
        <ele>1222</ele>
        <time>2020-07-13T09:03:08.055Z</time>
      </trkpt>
      <trkpt lat="42.283196" lon="1.816604">
        <ele>1219</ele>
        <time>2020-07-13T09:03:18.055Z</time>
      </trkpt>
      <trkpt lat="42.283136" lon="1.816747">
        <ele>1218</ele>
        <time>2020-07-13T09:03:30.055Z</time>
      </trkpt>
      <trkpt lat="42.283029" lon="1.816801">
        <ele>1212.7499904</ele>
        <time>2020-07-13T09:03:46.055Z</time>
      </trkpt>
      <trkpt lat="42.28289" lon="1.816847">
        <ele>1209</ele>
        <time>2020-07-13T09:03:58.055Z</time>
      </trkpt>
      <trkpt lat="42.282786" lon="1.816862">
        <ele>1206</ele>
        <time>2020-07-13T09:04:06.055Z</time>
      </trkpt>
      <trkpt lat="42.282679" lon="1.816816">
        <ele>1205</ele>
        <time>2020-07-13T09:04:13.055Z</time>
      </trkpt>
      <trkpt lat="42.282547" lon="1.816859">
        <ele>1203</ele>
        <time>2020-07-13T09:04:27.055Z</time>
      </trkpt>
      <trkpt lat="42.282441" lon="1.816891">
        <ele>1198</ele>
        <time>2020-07-13T09:04:39.055Z</time>
      </trkpt>
      <trkpt lat="42.282321" lon="1.816777">
        <ele>1195</ele>
        <time>2020-07-13T09:04:48.055Z</time>
      </trkpt>
      <trkpt lat="42.282236" lon="1.816622">
        <ele>1193</ele>
        <time>2020-07-13T09:04:54.055Z</time>
      </trkpt>
      <trkpt lat="42.282155" lon="1.816476">
        <ele>1189</ele>
        <time>2020-07-13T09:05:02.055Z</time>
      </trkpt>
      <trkpt lat="42.282064" lon="1.816587">
        <ele>1190</ele>
        <time>2020-07-13T09:05:10.055Z</time>
      </trkpt>
      <trkpt lat="42.281951" lon="1.816645">
        <ele>1191</ele>
        <time>2020-07-13T09:05:38.055Z</time>
      </trkpt>
      <trkpt lat="42.281816" lon="1.816632">
        <ele>1193</ele>
        <time>2020-07-13T09:05:46.058Z</time>
      </trkpt>
      <trkpt lat="42.281727" lon="1.816526">
        <ele>1188</ele>
        <time>2020-07-13T09:06:10.055Z</time>
      </trkpt>
      <trkpt lat="42.281629" lon="1.816646">
        <ele>1185</ele>
        <time>2020-07-13T09:06:24.055Z</time>
      </trkpt>
      <trkpt lat="42.281608" lon="1.816822">
        <ele>1180</ele>
        <time>2020-07-13T09:06:40.055Z</time>
      </trkpt>
      <trkpt lat="42.281577" lon="1.817006">
        <ele>1176</ele>
        <time>2020-07-13T09:06:53.055Z</time>
      </trkpt>
      <trkpt lat="42.281538" lon="1.817342">
        <ele>1171</ele>
        <time>2020-07-13T09:07:12.055Z</time>
      </trkpt>
      <trkpt lat="42.28149" lon="1.817529">
        <ele>1169</ele>
        <time>2020-07-13T09:07:22.055Z</time>
      </trkpt>
      <trkpt lat="42.281398" lon="1.817793">
        <ele>1168</ele>
        <time>2020-07-13T09:07:35.055Z</time>
      </trkpt>
      <trkpt lat="42.281364" lon="1.817941">
        <ele>1167</ele>
        <time>2020-07-13T09:07:42.055Z</time>
      </trkpt>
      <trkpt lat="42.281296" lon="1.818086">
        <ele>1167</ele>
        <time>2020-07-13T09:07:49.055Z</time>
      </trkpt>
      <trkpt lat="42.281302" lon="1.818286">
        <ele>1167</ele>
        <time>2020-07-13T09:08:00.054Z</time>
      </trkpt>
      <trkpt lat="42.281268" lon="1.818422">
        <ele>1165</ele>
        <time>2020-07-13T09:08:08.055Z</time>
      </trkpt>
      <trkpt lat="42.281212" lon="1.818642">
        <ele>1165</ele>
        <time>2020-07-13T09:08:19.055Z</time>
      </trkpt>
      <trkpt lat="42.281226" lon="1.818786">
        <ele>1163</ele>
        <time>2020-07-13T09:08:27.166Z</time>
      </trkpt>
      <trkpt lat="42.281146" lon="1.818956">
        <ele>1160</ele>
        <time>2020-07-13T09:08:35.055Z</time>
      </trkpt>
      <trkpt lat="42.28102" lon="1.819082">
        <ele>1160</ele>
        <time>2020-07-13T09:08:43.055Z</time>
      </trkpt>
      <trkpt lat="42.28093" lon="1.819174">
        <ele>1160</ele>
        <time>2020-07-13T09:08:51.055Z</time>
      </trkpt>
      <trkpt lat="42.28078" lon="1.819242">
        <ele>1160</ele>
        <time>2020-07-13T09:08:59.055Z</time>
      </trkpt>
      <trkpt lat="42.280673" lon="1.819315">
        <ele>1158</ele>
        <time>2020-07-13T09:09:04.055Z</time>
      </trkpt>
      <trkpt lat="42.280613" lon="1.819444">
        <ele>1154</ele>
        <time>2020-07-13T09:09:26.055Z</time>
      </trkpt>
      <trkpt lat="42.280486" lon="1.819533">
        <ele>1151</ele>
        <time>2020-07-13T09:09:38.055Z</time>
      </trkpt>
      <trkpt lat="42.280368" lon="1.81963">
        <ele>1150</ele>
        <time>2020-07-13T09:09:46.055Z</time>
      </trkpt>
      <trkpt lat="42.280249" lon="1.819687">
        <ele>1149</ele>
        <time>2020-07-13T09:09:54.055Z</time>
      </trkpt>
      <trkpt lat="42.280146" lon="1.819684">
        <ele>1148</ele>
        <time>2020-07-13T09:10:02.055Z</time>
      </trkpt>
      <trkpt lat="42.280035" lon="1.81967">
        <ele>1148</ele>
        <time>2020-07-13T09:10:10.055Z</time>
      </trkpt>
      <trkpt lat="42.279902" lon="1.819697">
        <ele>1149</ele>
        <time>2020-07-13T09:10:18.055Z</time>
      </trkpt>
      <trkpt lat="42.27978" lon="1.819688">
        <ele>1148</ele>
        <time>2020-07-13T09:10:26.055Z</time>
      </trkpt>
      <trkpt lat="42.27966" lon="1.819702">
        <ele>1147</ele>
        <time>2020-07-13T09:10:34.055Z</time>
      </trkpt>
      <trkpt lat="42.279459" lon="1.819646">
        <ele>1145</ele>
        <time>2020-07-13T09:10:45.055Z</time>
      </trkpt>
      <trkpt lat="42.278816" lon="1.819738">
        <ele>1139</ele>
        <time>2020-07-13T09:11:02.055Z</time>
      </trkpt>
      <trkpt lat="42.278702" lon="1.819625">
        <ele>1137</ele>
        <time>2020-07-13T09:11:14.055Z</time>
      </trkpt>
      <trkpt lat="42.27856" lon="1.819552">
        <ele>1135</ele>
        <time>2020-07-13T09:11:25.055Z</time>
      </trkpt>
      <trkpt lat="42.278402" lon="1.819589">
        <ele>1133</ele>
        <time>2020-07-13T09:11:33.055Z</time>
      </trkpt>
      <trkpt lat="42.278289" lon="1.819527">
        <ele>1131</ele>
        <time>2020-07-13T09:11:48.055Z</time>
      </trkpt>
      <trkpt lat="42.278321" lon="1.819379">
        <ele>1128</ele>
        <time>2020-07-13T09:11:55.055Z</time>
      </trkpt>
      <trkpt lat="42.278341" lon="1.819141">
        <ele>1123</ele>
        <time>2020-07-13T09:12:03.055Z</time>
      </trkpt>
      <trkpt lat="42.278332" lon="1.818996">
        <ele>1122</ele>
        <time>2020-07-13T09:12:15.055Z</time>
      </trkpt>
      <trkpt lat="42.278241" lon="1.819053">
        <ele>1118</ele>
        <time>2020-07-13T09:12:35.055Z</time>
      </trkpt>
      <trkpt lat="42.278176" lon="1.819167">
        <ele>1116</ele>
        <time>2020-07-13T09:12:47.055Z</time>
      </trkpt>
      <trkpt lat="42.278139" lon="1.819308">
        <ele>1114</ele>
        <time>2020-07-13T09:12:55.055Z</time>
      </trkpt>
      <trkpt lat="42.278075" lon="1.819424">
        <ele>1109</ele>
        <time>2020-07-13T09:13:14.055Z</time>
      </trkpt>
      <trkpt lat="42.278182" lon="1.819506">
        <ele>1110</ele>
        <time>2020-07-13T09:13:34.055Z</time>
      </trkpt>
      <trkpt lat="42.278189" lon="1.819366">
        <ele>1109</ele>
        <time>2020-07-13T09:13:54.055Z</time>
      </trkpt>
      <trkpt lat="42.27807" lon="1.819234">
        <ele>1104</ele>
        <time>2020-07-13T09:14:06.055Z</time>
      </trkpt>
      <trkpt lat="42.277999" lon="1.819379">
        <ele>1102</ele>
        <time>2020-07-13T09:14:29.055Z</time>
      </trkpt>
      <trkpt lat="42.278045" lon="1.819234">
        <ele>1101</ele>
        <time>2020-07-13T09:14:37.055Z</time>
      </trkpt>
      <trkpt lat="42.277978" lon="1.819131">
        <ele>1095</ele>
        <time>2020-07-13T09:14:53.055Z</time>
      </trkpt>
      <trkpt lat="42.277882" lon="1.819014">
        <ele>1094.7499904</ele>
        <time>2020-07-13T09:15:01.055Z</time>
      </trkpt>
      <trkpt lat="42.278045" lon="1.819008">
        <ele>1093</ele>
        <time>2020-07-13T09:15:07.055Z</time>
      </trkpt>
      <trkpt lat="42.277963" lon="1.81916">
        <ele>1091</ele>
        <time>2020-07-13T09:15:19.055Z</time>
      </trkpt>
      <trkpt lat="42.278049" lon="1.819058">
        <ele>1087</ele>
        <time>2020-07-13T09:15:43.055Z</time>
      </trkpt>
      <trkpt lat="42.277964" lon="1.818978">
        <ele>1083</ele>
        <time>2020-07-13T09:16:35.055Z</time>
      </trkpt>
      <trkpt lat="42.277856" lon="1.818964">
        <ele>1074</ele>
        <time>2020-07-13T09:17:03.055Z</time>
      </trkpt>
      <trkpt lat="42.277732" lon="1.81902">
        <ele>1076.7499904</ele>
        <time>2020-07-13T09:18:11.055Z</time>
      </trkpt>
      <trkpt lat="42.277647" lon="1.818898">
        <ele>1072</ele>
        <time>2020-07-13T09:18:35.055Z</time>
      </trkpt>
      <trkpt lat="42.277614" lon="1.818768">
        <ele>1072</ele>
        <time>2020-07-13T09:18:47.055Z</time>
      </trkpt>
      <trkpt lat="42.27759" lon="1.818587">
        <ele>1070</ele>
        <time>2020-07-13T09:19:11.055Z</time>
      </trkpt>
      <trkpt lat="42.27753" lon="1.818757">
        <ele>1070</ele>
        <time>2020-07-13T09:19:19.055Z</time>
      </trkpt>
      <trkpt lat="42.277386" lon="1.818891">
        <ele>1064</ele>
        <time>2020-07-13T09:19:55.055Z</time>
      </trkpt>
      <trkpt lat="42.277313" lon="1.818975">
        <ele>1062</ele>
        <time>2020-07-13T09:20:07.055Z</time>
      </trkpt>
      <trkpt lat="42.277301" lon="1.818833">
        <ele>1059</ele>
        <time>2020-07-13T09:20:33.055Z</time>
      </trkpt>
      <trkpt lat="42.277252" lon="1.818705">
        <ele>1057</ele>
        <time>2020-07-13T09:20:57.055Z</time>
      </trkpt>
      <trkpt lat="42.277173" lon="1.818805">
        <ele>1054</ele>
        <time>2020-07-13T09:21:35.055Z</time>
      </trkpt>
      <trkpt lat="42.277047" lon="1.818866">
        <ele>1054</ele>
        <time>2020-07-13T09:22:57.055Z</time>
      </trkpt>
      <trkpt lat="42.27686" lon="1.819025">
        <ele>1052</ele>
        <time>2020-07-13T09:23:05.055Z</time>
      </trkpt>
      <trkpt lat="42.276818" lon="1.818789">
        <ele>1052</ele>
        <time>2020-07-13T09:23:17.055Z</time>
      </trkpt>
      <trkpt lat="42.276823" lon="1.818648">
        <ele>1050</ele>
        <time>2020-07-13T09:23:25.055Z</time>
      </trkpt>
      <trkpt lat="42.276744" lon="1.818508">
        <ele>1047</ele>
        <time>2020-07-13T09:24:05.055Z</time>
      </trkpt>
      <trkpt lat="42.276643" lon="1.818543">
        <ele>1047</ele>
        <time>2020-07-13T09:24:29.055Z</time>
      </trkpt>
      <trkpt lat="42.276616" lon="1.818413">
        <ele>1047</ele>
        <time>2020-07-13T09:24:49.055Z</time>
      </trkpt>
      <trkpt lat="42.276514" lon="1.818423">
        <ele>1045</ele>
        <time>2020-07-13T09:25:13.055Z</time>
      </trkpt>
      <trkpt lat="42.276536" lon="1.818292">
        <ele>1044.8749952</ele>
        <time>2020-07-13T09:25:51.055Z</time>
      </trkpt>
      <trkpt lat="42.276512" lon="1.818449">
        <ele>1044</ele>
        <time>2020-07-13T09:26:18.055Z</time>
      </trkpt>
      <trkpt lat="42.276432" lon="1.818659">
        <ele>1045</ele>
        <time>2020-07-13T09:26:34.055Z</time>
      </trkpt>
      <trkpt lat="42.276321" lon="1.81866">
        <ele>1045</ele>
        <time>2020-07-13T09:26:41.055Z</time>
      </trkpt>
      <trkpt lat="42.276245" lon="1.818566">
        <ele>1040</ele>
        <time>2020-07-13T09:27:18.055Z</time>
      </trkpt>
      <trkpt lat="42.276184" lon="1.818443">
        <ele>1041</ele>
        <time>2020-07-13T09:27:34.055Z</time>
      </trkpt>
      <trkpt lat="42.27608" lon="1.818401">
        <ele>1044</ele>
        <time>2020-07-13T09:27:42.055Z</time>
      </trkpt>
      <trkpt lat="42.275954" lon="1.818414">
        <ele>1044</ele>
        <time>2020-07-13T09:27:54.055Z</time>
      </trkpt>
      <trkpt lat="42.275832" lon="1.818403">
        <ele>1040</ele>
        <time>2020-07-13T09:28:10.055Z</time>
      </trkpt>
      <trkpt lat="42.27572" lon="1.818404">
        <ele>1039</ele>
        <time>2020-07-13T09:28:22.054Z</time>
      </trkpt>
      <trkpt lat="42.275622" lon="1.818325">
        <ele>1037</ele>
        <time>2020-07-13T09:28:37.055Z</time>
      </trkpt>
      <trkpt lat="42.275537" lon="1.818249">
        <ele>1036</ele>
        <time>2020-07-13T09:28:45.055Z</time>
      </trkpt>
      <trkpt lat="42.275498" lon="1.818378">
        <ele>1034</ele>
        <time>2020-07-13T09:28:53.055Z</time>
      </trkpt>
      <trkpt lat="42.27537" lon="1.81839">
        <ele>1031</ele>
        <time>2020-07-13T09:29:07.055Z</time>
      </trkpt>
      <trkpt lat="42.27529" lon="1.81825">
        <ele>1026</ele>
        <time>2020-07-13T09:29:22.055Z</time>
      </trkpt>
      <trkpt lat="42.275198" lon="1.818154">
        <ele>1024.8749952</ele>
        <time>2020-07-13T09:29:31.055Z</time>
      </trkpt>
      <trkpt lat="42.275287" lon="1.818078">
        <ele>1021</ele>
        <time>2020-07-13T09:30:03.055Z</time>
      </trkpt>
      <trkpt lat="42.275402" lon="1.818023">
        <ele>1021</ele>
        <time>2020-07-13T09:30:23.055Z</time>
      </trkpt>
      <trkpt lat="42.275503" lon="1.817944">
        <ele>1022</ele>
        <time>2020-07-13T09:30:32.055Z</time>
      </trkpt>
      <trkpt lat="42.275565" lon="1.817829">
        <ele>1022</ele>
        <time>2020-07-13T09:30:44.055Z</time>
      </trkpt>
      <trkpt lat="42.275623" lon="1.817714">
        <ele>1024</ele>
        <time>2020-07-13T09:30:57.055Z</time>
      </trkpt>
      <trkpt lat="42.275666" lon="1.817565">
        <ele>1030.1250048</ele>
        <time>2020-07-13T09:31:16.055Z</time>
      </trkpt>
      <trkpt lat="42.275623" lon="1.817415">
        <ele>1033</ele>
        <time>2020-07-13T09:31:44.055Z</time>
      </trkpt>
      <trkpt lat="42.275688" lon="1.817287">
        <ele>1034.2500096</ele>
        <time>2020-07-13T09:32:11.055Z</time>
      </trkpt>
      <trkpt lat="42.275716" lon="1.817134">
        <ele>1039.3750144</ele>
        <time>2020-07-13T09:32:26.055Z</time>
      </trkpt>
      <trkpt lat="42.27577" lon="1.817021">
        <ele>1042</ele>
        <time>2020-07-13T09:32:38.055Z</time>
      </trkpt>
      <trkpt lat="42.275826" lon="1.816902">
        <ele>1046</ele>
        <time>2020-07-13T09:32:53.055Z</time>
      </trkpt>
      <trkpt lat="42.27592" lon="1.816841">
        <ele>1052</ele>
        <time>2020-07-13T09:33:09.055Z</time>
      </trkpt>
      <trkpt lat="42.275809" lon="1.81698">
        <ele>1047</ele>
        <time>2020-07-13T09:37:40.055Z</time>
      </trkpt>
      <trkpt lat="42.275729" lon="1.817084">
        <ele>1042</ele>
        <time>2020-07-13T09:37:50.055Z</time>
      </trkpt>
      <trkpt lat="42.275716" lon="1.817295">
        <ele>1035</ele>
        <time>2020-07-13T09:38:03.055Z</time>
      </trkpt>
      <trkpt lat="42.275646" lon="1.817443">
        <ele>1034.7499904</ele>
        <time>2020-07-13T09:38:11.055Z</time>
      </trkpt>
      <trkpt lat="42.275726" lon="1.817622">
        <ele>1034</ele>
        <time>2020-07-13T09:38:35.055Z</time>
      </trkpt>
      <trkpt lat="42.275662" lon="1.817782">
        <ele>1025</ele>
        <time>2020-07-13T09:39:00.055Z</time>
      </trkpt>
      <trkpt lat="42.275549" lon="1.817871">
        <ele>1022</ele>
        <time>2020-07-13T09:39:12.055Z</time>
      </trkpt>
      <trkpt lat="42.275461" lon="1.817973">
        <ele>1022</ele>
        <time>2020-07-13T09:39:27.055Z</time>
      </trkpt>
      <trkpt lat="42.275359" lon="1.818046">
        <ele>1023</ele>
        <time>2020-07-13T09:39:39.055Z</time>
      </trkpt>
      <trkpt lat="42.275249" lon="1.818018">
        <ele>1022</ele>
        <time>2020-07-13T09:40:28.055Z</time>
      </trkpt>
      <trkpt lat="42.275117" lon="1.818006">
        <ele>1022</ele>
        <time>2020-07-13T09:40:40.055Z</time>
      </trkpt>
      <trkpt lat="42.275013" lon="1.81807">
        <ele>1020</ele>
        <time>2020-07-13T09:40:52.055Z</time>
      </trkpt>
      <trkpt lat="42.274898" lon="1.818074">
        <ele>1016</ele>
        <time>2020-07-13T09:41:05.179Z</time>
      </trkpt>
      <trkpt lat="42.274869" lon="1.817924">
        <ele>1015</ele>
        <time>2020-07-13T09:41:13.055Z</time>
      </trkpt>
      <trkpt lat="42.27476" lon="1.817935">
        <ele>1017</ele>
        <time>2020-07-13T09:41:32.055Z</time>
      </trkpt>
      <trkpt lat="42.274732" lon="1.818102">
        <ele>1017</ele>
        <time>2020-07-13T09:41:40.055Z</time>
      </trkpt>
      <trkpt lat="42.274635" lon="1.818265">
        <ele>1017</ele>
        <time>2020-07-13T09:41:48.155Z</time>
      </trkpt>
      <trkpt lat="42.27447" lon="1.818276">
        <ele>1015</ele>
        <time>2020-07-13T09:41:56.055Z</time>
      </trkpt>
      <trkpt lat="42.274345" lon="1.818319">
        <ele>1014</ele>
        <time>2020-07-13T09:42:08.055Z</time>
      </trkpt>
      <trkpt lat="42.274236" lon="1.818258">
        <ele>1014</ele>
        <time>2020-07-13T09:42:16.055Z</time>
      </trkpt>
      <trkpt lat="42.274125" lon="1.818222">
        <ele>1011</ele>
        <time>2020-07-13T09:42:25.055Z</time>
      </trkpt>
      <trkpt lat="42.273962" lon="1.81815">
        <ele>1009</ele>
        <time>2020-07-13T09:42:33.055Z</time>
      </trkpt>
      <trkpt lat="42.273849" lon="1.818105">
        <ele>1008.7499904</ele>
        <time>2020-07-13T09:42:41.055Z</time>
      </trkpt>
      <trkpt lat="42.273619" lon="1.818001">
        <ele>1006</ele>
        <time>2020-07-13T09:42:57.055Z</time>
      </trkpt>
      <trkpt lat="42.273521" lon="1.817979">
        <ele>1003</ele>
        <time>2020-07-13T09:43:05.055Z</time>
      </trkpt>
      <trkpt lat="42.273495" lon="1.818123">
        <ele>1002</ele>
        <time>2020-07-13T09:43:17.055Z</time>
      </trkpt>
      <trkpt lat="42.273485" lon="1.818262">
        <ele>1000</ele>
        <time>2020-07-13T09:43:25.055Z</time>
      </trkpt>
      <trkpt lat="42.273442" lon="1.818389">
        <ele>998</ele>
        <time>2020-07-13T09:43:33.055Z</time>
      </trkpt>
      <trkpt lat="42.273369" lon="1.818485">
        <ele>998</ele>
        <time>2020-07-13T09:43:40.055Z</time>
      </trkpt>
      <trkpt lat="42.27325" lon="1.818625">
        <ele>997</ele>
        <time>2020-07-13T09:43:51.055Z</time>
      </trkpt>
      <trkpt lat="42.273119" lon="1.818665">
        <ele>997</ele>
        <time>2020-07-13T09:43:59.055Z</time>
      </trkpt>
      <trkpt lat="42.273008" lon="1.818583">
        <ele>994.8749952</ele>
        <time>2020-07-13T09:44:11.055Z</time>
      </trkpt>
      <trkpt lat="42.273027" lon="1.818381">
        <ele>994</ele>
        <time>2020-07-13T09:44:25.055Z</time>
      </trkpt>
      <trkpt lat="42.272996" lon="1.81821">
        <ele>993</ele>
        <time>2020-07-13T09:44:35.055Z</time>
      </trkpt>
      <trkpt lat="42.272962" lon="1.818076">
        <ele>992</ele>
        <time>2020-07-13T09:44:43.055Z</time>
      </trkpt>
      <trkpt lat="42.2729" lon="1.817941">
        <ele>991.8749952</ele>
        <time>2020-07-13T09:44:51.055Z</time>
      </trkpt>
      <trkpt lat="42.272838" lon="1.81783">
        <ele>991</ele>
        <time>2020-07-13T09:44:59.055Z</time>
      </trkpt>
      <trkpt lat="42.272751" lon="1.817723">
        <ele>986.8749952</ele>
        <time>2020-07-13T09:45:11.055Z</time>
      </trkpt>
      <trkpt lat="42.272651" lon="1.817639">
        <ele>985.8749952</ele>
        <time>2020-07-13T09:45:21.055Z</time>
      </trkpt>
      <trkpt lat="42.272595" lon="1.81746">
        <ele>985</ele>
        <time>2020-07-13T09:45:29.055Z</time>
      </trkpt>
      <trkpt lat="42.272492" lon="1.817301">
        <ele>982</ele>
        <time>2020-07-13T09:45:44.055Z</time>
      </trkpt>
      <trkpt lat="42.272344" lon="1.817175">
        <ele>982</ele>
        <time>2020-07-13T09:45:54.055Z</time>
      </trkpt>
      <trkpt lat="42.272225" lon="1.817109">
        <ele>982</ele>
        <time>2020-07-13T09:46:00.055Z</time>
      </trkpt>
      <trkpt lat="42.272188" lon="1.816954">
        <ele>981</ele>
        <time>2020-07-13T09:46:08.055Z</time>
      </trkpt>
      <trkpt lat="42.272006" lon="1.816922">
        <ele>982</ele>
        <time>2020-07-13T09:46:17.056Z</time>
      </trkpt>
      <trkpt lat="42.271905" lon="1.816814">
        <ele>983</ele>
        <time>2020-07-13T09:46:29.155Z</time>
      </trkpt>
      <trkpt lat="42.271837" lon="1.81663">
        <ele>983</ele>
        <time>2020-07-13T09:46:37.055Z</time>
      </trkpt>
      <trkpt lat="42.271748" lon="1.816515">
        <ele>984</ele>
        <time>2020-07-13T09:46:45.055Z</time>
      </trkpt>
      <trkpt lat="42.27165" lon="1.816339">
        <ele>984</ele>
        <time>2020-07-13T09:46:54.055Z</time>
      </trkpt>
      <trkpt lat="42.271548" lon="1.816169">
        <ele>983</ele>
        <time>2020-07-13T09:47:05.055Z</time>
      </trkpt>
      <trkpt lat="42.271424" lon="1.81607">
        <ele>983</ele>
        <time>2020-07-13T09:47:13.055Z</time>
      </trkpt>
      <trkpt lat="42.27133" lon="1.815946">
        <ele>985</ele>
        <time>2020-07-13T09:47:27.156Z</time>
      </trkpt>
      <trkpt lat="42.271132" lon="1.816129">
        <ele>985</ele>
        <time>2020-07-13T09:47:39.055Z</time>
      </trkpt>
      <trkpt lat="42.271" lon="1.81619">
        <ele>984</ele>
        <time>2020-07-13T09:47:48.055Z</time>
      </trkpt>
      <trkpt lat="42.270892" lon="1.81627">
        <ele>983</ele>
        <time>2020-07-13T09:47:59.055Z</time>
      </trkpt>
      <trkpt lat="42.270749" lon="1.816231">
        <ele>978.7499904</ele>
        <time>2020-07-13T09:48:11.055Z</time>
      </trkpt>
      <trkpt lat="42.270603" lon="1.816247">
        <ele>975</ele>
        <time>2020-07-13T09:48:23.055Z</time>
      </trkpt>
      <trkpt lat="42.270432" lon="1.816374">
        <ele>974</ele>
        <time>2020-07-13T09:48:33.055Z</time>
      </trkpt>
      <trkpt lat="42.270324" lon="1.816383">
        <ele>973.6249856</ele>
        <time>2020-07-13T09:48:41.055Z</time>
      </trkpt>
      <trkpt lat="42.270211" lon="1.816348">
        <ele>968</ele>
        <time>2020-07-13T09:48:53.955Z</time>
      </trkpt>
      <trkpt lat="42.270094" lon="1.816331">
        <ele>966.8749952</ele>
        <time>2020-07-13T09:49:21.055Z</time>
      </trkpt>
      <trkpt lat="42.269998" lon="1.816265">
        <ele>965.6219904</ele>
        <time>2020-07-13T09:49:31.056Z</time>
      </trkpt>
      <trkpt lat="42.269857" lon="1.816183">
        <ele>962</ele>
        <time>2020-07-13T09:49:43.055Z</time>
      </trkpt>
      <trkpt lat="42.269751" lon="1.816051">
        <ele>962</ele>
        <time>2020-07-13T09:49:51.055Z</time>
      </trkpt>
      <trkpt lat="42.269658" lon="1.815933">
        <ele>962</ele>
        <time>2020-07-13T09:49:59.055Z</time>
      </trkpt>
      <trkpt lat="42.269575" lon="1.815844">
        <ele>958</ele>
        <time>2020-07-13T09:50:07.055Z</time>
      </trkpt>
      <trkpt lat="42.269531" lon="1.815702">
        <ele>957</ele>
        <time>2020-07-13T09:50:15.056Z</time>
      </trkpt>
      <trkpt lat="42.2695" lon="1.815574">
        <ele>957</ele>
        <time>2020-07-13T09:50:24.055Z</time>
      </trkpt>
      <trkpt lat="42.269399" lon="1.815513">
        <ele>957</ele>
        <time>2020-07-13T09:50:35.055Z</time>
      </trkpt>
      <trkpt lat="42.269325" lon="1.815423">
        <ele>956</ele>
        <time>2020-07-13T09:50:51.055Z</time>
      </trkpt>
      <trkpt lat="42.269244" lon="1.815297">
        <ele>956</ele>
        <time>2020-07-13T09:50:59.055Z</time>
      </trkpt>
      <trkpt lat="42.26913" lon="1.81519">
        <ele>951.8749952</ele>
        <time>2020-07-13T09:51:11.055Z</time>
      </trkpt>
      <trkpt lat="42.269006" lon="1.815104">
        <ele>950</ele>
        <time>2020-07-13T09:51:22.055Z</time>
      </trkpt>
      <trkpt lat="42.268852" lon="1.815096">
        <ele>949</ele>
        <time>2020-07-13T09:51:34.055Z</time>
      </trkpt>
      <trkpt lat="42.268737" lon="1.815071">
        <ele>946</ele>
        <time>2020-07-13T09:52:02.055Z</time>
      </trkpt>
      <trkpt lat="42.268638" lon="1.814946">
        <ele>944</ele>
        <time>2020-07-13T09:52:22.055Z</time>
      </trkpt>
      <trkpt lat="42.268501" lon="1.814696">
        <ele>943</ele>
        <time>2020-07-13T09:52:38.055Z</time>
      </trkpt>
      <trkpt lat="42.268387" lon="1.81462">
        <ele>940.8749952</ele>
        <time>2020-07-13T09:52:46.055Z</time>
      </trkpt>
      <trkpt lat="42.268274" lon="1.814667">
        <ele>940</ele>
        <time>2020-07-13T09:52:58.055Z</time>
      </trkpt>
      <trkpt lat="42.268277" lon="1.814817">
        <ele>939</ele>
        <time>2020-07-13T09:53:06.055Z</time>
      </trkpt>
      <trkpt lat="42.268307" lon="1.814951">
        <ele>940</ele>
        <time>2020-07-13T09:53:18.054Z</time>
      </trkpt>
      <trkpt lat="42.268409" lon="1.814987">
        <ele>940</ele>
        <time>2020-07-13T09:53:50.054Z</time>
      </trkpt>
      <trkpt lat="42.268314" lon="1.814922">
        <ele>940</ele>
        <time>2020-07-13T09:54:14.055Z</time>
      </trkpt>
      <trkpt lat="42.268274" lon="1.81479">
        <ele>940</ele>
        <time>2020-07-13T09:55:35.055Z</time>
      </trkpt>
      <trkpt lat="42.268279" lon="1.814643">
        <ele>938</ele>
        <time>2020-07-13T09:55:43.055Z</time>
      </trkpt>
      <trkpt lat="42.268203" lon="1.814468">
        <ele>936</ele>
        <time>2020-07-13T09:55:55.055Z</time>
      </trkpt>
      <trkpt lat="42.268076" lon="1.814439">
        <ele>941</ele>
        <time>2020-07-13T09:56:32.055Z</time>
      </trkpt>
      <trkpt lat="42.268064" lon="1.814255">
        <ele>942</ele>
        <time>2020-07-13T09:56:44.055Z</time>
      </trkpt>
      <trkpt lat="42.26803" lon="1.814089">
        <ele>942</ele>
        <time>2020-07-13T09:56:59.055Z</time>
      </trkpt>
      <trkpt lat="42.268062" lon="1.813895">
        <ele>940</ele>
        <time>2020-07-13T09:57:15.055Z</time>
      </trkpt>
      <trkpt lat="42.268068" lon="1.813699">
        <ele>937</ele>
        <time>2020-07-13T09:57:23.055Z</time>
      </trkpt>
      <trkpt lat="42.26814" lon="1.813632">
        <ele>936</ele>
        <time>2020-07-13T09:57:31.055Z</time>
      </trkpt>
      <trkpt lat="42.268254" lon="1.813516">
        <ele>934</ele>
        <time>2020-07-13T09:57:43.055Z</time>
      </trkpt>
      <trkpt lat="42.26833" lon="1.813329">
        <ele>932</ele>
        <time>2020-07-13T09:57:55.055Z</time>
      </trkpt>
      <trkpt lat="42.268425" lon="1.813195">
        <ele>930</ele>
        <time>2020-07-13T09:58:03.055Z</time>
      </trkpt>
      <trkpt lat="42.268531" lon="1.813048">
        <ele>931</ele>
        <time>2020-07-13T09:58:15.055Z</time>
      </trkpt>
      <trkpt lat="42.268619" lon="1.812903">
        <ele>930</ele>
        <time>2020-07-13T09:58:23.056Z</time>
      </trkpt>
      <trkpt lat="42.26868" lon="1.812757">
        <ele>929.6249856</ele>
        <time>2020-07-13T09:58:31.055Z</time>
      </trkpt>
      <trkpt lat="42.268655" lon="1.812567">
        <ele>925</ele>
        <time>2020-07-13T09:58:39.055Z</time>
      </trkpt>
      <trkpt lat="42.268581" lon="1.81246">
        <ele>925</ele>
        <time>2020-07-13T09:58:47.056Z</time>
      </trkpt>
      <trkpt lat="42.268401" lon="1.812456">
        <ele>926</ele>
        <time>2020-07-13T09:58:59.055Z</time>
      </trkpt>
      <trkpt lat="42.268284" lon="1.812584">
        <ele>925</ele>
        <time>2020-07-13T09:59:07.064Z</time>
      </trkpt>
      <trkpt lat="42.268237" lon="1.812747">
        <ele>926</ele>
        <time>2020-07-13T09:59:15.055Z</time>
      </trkpt>
      <trkpt lat="42.268139" lon="1.812821">
        <ele>927</ele>
        <time>2020-07-13T09:59:23.055Z</time>
      </trkpt>
      <trkpt lat="42.268038" lon="1.812721">
        <ele>927</ele>
        <time>2020-07-13T09:59:36.055Z</time>
      </trkpt>
      <trkpt lat="42.268044" lon="1.812584">
        <ele>928</ele>
        <time>2020-07-13T09:59:44.055Z</time>
      </trkpt>
      <trkpt lat="42.268047" lon="1.812414">
        <ele>930</ele>
        <time>2020-07-13T09:59:56.055Z</time>
      </trkpt>
      <trkpt lat="42.26804" lon="1.812254">
        <ele>931</ele>
        <time>2020-07-13T10:00:08.055Z</time>
      </trkpt>
      <trkpt lat="42.268038" lon="1.812066">
        <ele>935</ele>
        <time>2020-07-13T10:00:24.055Z</time>
      </trkpt>
      <trkpt lat="42.268" lon="1.811854">
        <ele>938</ele>
        <time>2020-07-13T10:00:42.055Z</time>
      </trkpt>
      <trkpt lat="42.268062" lon="1.81174">
        <ele>940.1250048</ele>
        <time>2020-07-13T10:00:56.055Z</time>
      </trkpt>
      <trkpt lat="42.26814" lon="1.81164">
        <ele>941</ele>
        <time>2020-07-13T10:01:08.055Z</time>
      </trkpt>
      <trkpt lat="42.268231" lon="1.81154">
        <ele>943</ele>
        <time>2020-07-13T10:01:20.059Z</time>
      </trkpt>
      <trkpt lat="42.268302" lon="1.811418">
        <ele>946</ele>
        <time>2020-07-13T10:01:32.055Z</time>
      </trkpt>
      <trkpt lat="42.268312" lon="1.811266">
        <ele>948</ele>
        <time>2020-07-13T10:01:44.055Z</time>
      </trkpt>
      <trkpt lat="42.268282" lon="1.811126">
        <ele>949</ele>
        <time>2020-07-13T10:01:52.047Z</time>
      </trkpt>
      <trkpt lat="42.268266" lon="1.810991">
        <ele>952</ele>
        <time>2020-07-13T10:02:04.055Z</time>
      </trkpt>
      <trkpt lat="42.268205" lon="1.810869">
        <ele>953</ele>
        <time>2020-07-13T10:02:16.060Z</time>
      </trkpt>
      <trkpt lat="42.268141" lon="1.810761">
        <ele>955</ele>
        <time>2020-07-13T10:02:29.055Z</time>
      </trkpt>
      <trkpt lat="42.268025" lon="1.810733">
        <ele>957</ele>
        <time>2020-07-13T10:02:45.055Z</time>
      </trkpt>
      <trkpt lat="42.26791" lon="1.810695">
        <ele>958</ele>
        <time>2020-07-13T10:02:56.046Z</time>
      </trkpt>
      <trkpt lat="42.267779" lon="1.810638">
        <ele>959</ele>
        <time>2020-07-13T10:03:08.055Z</time>
      </trkpt>
      <trkpt lat="42.267686" lon="1.810563">
        <ele>962</ele>
        <time>2020-07-13T10:03:22.055Z</time>
      </trkpt>
      <trkpt lat="42.267574" lon="1.8105">
        <ele>964</ele>
        <time>2020-07-13T10:03:36.055Z</time>
      </trkpt>
      <trkpt lat="42.267544" lon="1.810344">
        <ele>966</ele>
        <time>2020-07-13T10:03:48.055Z</time>
      </trkpt>
      <trkpt lat="42.267403" lon="1.810251">
        <ele>967</ele>
        <time>2020-07-13T10:04:00.055Z</time>
      </trkpt>
      <trkpt lat="42.267332" lon="1.81014">
        <ele>970</ele>
        <time>2020-07-13T10:04:14.055Z</time>
      </trkpt>
      <trkpt lat="42.267223" lon="1.80996">
        <ele>972</ele>
        <time>2020-07-13T10:04:29.055Z</time>
      </trkpt>
      <trkpt lat="42.267246" lon="1.809801">
        <ele>973</ele>
        <time>2020-07-13T10:04:37.055Z</time>
      </trkpt>
      <trkpt lat="42.267286" lon="1.809571">
        <ele>976</ele>
        <time>2020-07-13T10:04:52.055Z</time>
      </trkpt>
      <trkpt lat="42.267277" lon="1.809389">
        <ele>979</ele>
        <time>2020-07-13T10:05:12.055Z</time>
      </trkpt>
      <trkpt lat="42.267167" lon="1.809294">
        <ele>981</ele>
        <time>2020-07-13T10:05:24.058Z</time>
      </trkpt>
      <trkpt lat="42.267086" lon="1.809217">
        <ele>983</ele>
        <time>2020-07-13T10:05:40.055Z</time>
      </trkpt>
      <trkpt lat="42.266985" lon="1.809165">
        <ele>986</ele>
        <time>2020-07-13T10:05:56.153Z</time>
      </trkpt>
      <trkpt lat="42.266844" lon="1.809144">
        <ele>987</ele>
        <time>2020-07-13T10:06:03.055Z</time>
      </trkpt>
      <trkpt lat="42.266619" lon="1.809151">
        <ele>989</ele>
        <time>2020-07-13T10:06:24.055Z</time>
      </trkpt>
      <trkpt lat="42.266504" lon="1.809127">
        <ele>990</ele>
        <time>2020-07-13T10:06:35.055Z</time>
      </trkpt>
      <trkpt lat="42.26638" lon="1.809051">
        <ele>992</ele>
        <time>2020-07-13T10:06:49.055Z</time>
      </trkpt>
      <trkpt lat="42.26627" lon="1.809016">
        <ele>995</ele>
        <time>2020-07-13T10:07:03.055Z</time>
      </trkpt>
      <trkpt lat="42.266132" lon="1.80904">
        <ele>997</ele>
        <time>2020-07-13T10:07:15.054Z</time>
      </trkpt>
      <trkpt lat="42.26601" lon="1.809092">
        <ele>1002</ele>
        <time>2020-07-13T10:07:35.052Z</time>
      </trkpt>
      <trkpt lat="42.265838" lon="1.809126">
        <ele>1005</ele>
        <time>2020-07-13T10:07:59.055Z</time>
      </trkpt>
      <trkpt lat="42.265668" lon="1.8091">
        <ele>1005</ele>
        <time>2020-07-13T10:08:07.161Z</time>
      </trkpt>
      <trkpt lat="42.265545" lon="1.809074">
        <ele>1007</ele>
        <time>2020-07-13T10:08:15.057Z</time>
      </trkpt>
      <trkpt lat="42.265417" lon="1.809046">
        <ele>1008</ele>
        <time>2020-07-13T10:08:27.048Z</time>
      </trkpt>
      <trkpt lat="42.265317" lon="1.809023">
        <ele>1008</ele>
        <time>2020-07-13T10:08:39.055Z</time>
      </trkpt>
      <trkpt lat="42.26522" lon="1.808968">
        <ele>1009</ele>
        <time>2020-07-13T10:08:51.055Z</time>
      </trkpt>
      <trkpt lat="42.265109" lon="1.808855">
        <ele>1006</ele>
        <time>2020-07-13T10:09:03.055Z</time>
      </trkpt>
      <trkpt lat="42.265049" lon="1.80876">
        <ele>1006</ele>
        <time>2020-07-13T10:09:11.055Z</time>
      </trkpt>
      <trkpt lat="42.265002" lon="1.808616">
        <ele>1006</ele>
        <time>2020-07-13T10:09:19.063Z</time>
      </trkpt>
      <trkpt lat="42.264988" lon="1.808477">
        <ele>1005</ele>
        <time>2020-07-13T10:09:27.059Z</time>
      </trkpt>
      <trkpt lat="42.264911" lon="1.808298">
        <ele>1002</ele>
        <time>2020-07-13T10:09:35.048Z</time>
      </trkpt>
      <trkpt lat="42.264819" lon="1.808162">
        <ele>998</ele>
        <time>2020-07-13T10:09:43.054Z</time>
      </trkpt>
      <trkpt lat="42.264768" lon="1.808012">
        <ele>996</ele>
        <time>2020-07-13T10:09:55.059Z</time>
      </trkpt>
      <trkpt lat="42.264727" lon="1.807822">
        <ele>996</ele>
        <time>2020-07-13T10:10:07.055Z</time>
      </trkpt>
      <trkpt lat="42.264654" lon="1.807677">
        <ele>997</ele>
        <time>2020-07-13T10:10:15.063Z</time>
      </trkpt>
      <trkpt lat="42.264602" lon="1.807531">
        <ele>998</ele>
        <time>2020-07-13T10:10:23.056Z</time>
      </trkpt>
      <trkpt lat="42.264516" lon="1.807357">
        <ele>998</ele>
        <time>2020-07-13T10:10:35.055Z</time>
      </trkpt>
      <trkpt lat="42.26456" lon="1.80721">
        <ele>998</ele>
        <time>2020-07-13T10:10:53.058Z</time>
      </trkpt>
      <trkpt lat="42.264564" lon="1.807057">
        <ele>997.1209984</ele>
        <time>2020-07-13T10:11:21.051Z</time>
      </trkpt>
      <trkpt lat="42.264516" lon="1.806874">
        <ele>998</ele>
        <time>2020-07-13T10:11:33.055Z</time>
      </trkpt>
      <trkpt lat="42.2645" lon="1.806735">
        <ele>997.876232479152</ele>
        <time>2020-07-13T10:11:41.055Z</time>
      </trkpt>
      <trkpt lat="42.264463" lon="1.806537">
        <ele>997</ele>
        <time>2020-07-13T10:11:52.055Z</time>
      </trkpt>
      <trkpt lat="42.264427" lon="1.806372">
        <ele>998</ele>
        <time>2020-07-13T10:12:02.055Z</time>
      </trkpt>
      <trkpt lat="42.264404" lon="1.806166">
        <ele>998</ele>
        <time>2020-07-13T10:12:11.053Z</time>
      </trkpt>
      <trkpt lat="42.264366" lon="1.806023">
        <ele>998</ele>
        <time>2020-07-13T10:12:19.055Z</time>
      </trkpt>
      <trkpt lat="42.26434" lon="1.805888">
        <ele>998</ele>
        <time>2020-07-13T10:12:27.159Z</time>
      </trkpt>
      <trkpt lat="42.26431" lon="1.805745">
        <ele>999</ele>
        <time>2020-07-13T10:12:35.055Z</time>
      </trkpt>
      <trkpt lat="42.264296" lon="1.805599">
        <ele>1000</ele>
        <time>2020-07-13T10:12:43.055Z</time>
      </trkpt>
      <trkpt lat="42.264291" lon="1.805396">
        <ele>1001</ele>
        <time>2020-07-13T10:12:55.055Z</time>
      </trkpt>
      <trkpt lat="42.264244" lon="1.805218">
        <ele>1001</ele>
        <time>2020-07-13T10:13:03.055Z</time>
      </trkpt>
      <trkpt lat="42.264238" lon="1.805071">
        <ele>1003</ele>
        <time>2020-07-13T10:13:15.060Z</time>
      </trkpt>
      <trkpt lat="42.264202" lon="1.804915">
        <ele>1004</ele>
        <time>2020-07-13T10:13:24.050Z</time>
      </trkpt>
      <trkpt lat="42.26417" lon="1.804754">
        <ele>1004</ele>
        <time>2020-07-13T10:13:32.055Z</time>
      </trkpt>
      <trkpt lat="42.26416" lon="1.804552">
        <ele>1005</ele>
        <time>2020-07-13T10:13:44.055Z</time>
      </trkpt>
      <trkpt lat="42.264089" lon="1.804399">
        <ele>1004</ele>
        <time>2020-07-13T10:13:52.048Z</time>
      </trkpt>
      <trkpt lat="42.264156" lon="1.804246">
        <ele>1005</ele>
        <time>2020-07-13T10:14:04.047Z</time>
      </trkpt>
      <trkpt lat="42.26413" lon="1.804073">
        <ele>1006</ele>
        <time>2020-07-13T10:14:12.050Z</time>
      </trkpt>
      <trkpt lat="42.264093" lon="1.80387">
        <ele>1008</ele>
        <time>2020-07-13T10:14:24.052Z</time>
      </trkpt>
      <trkpt lat="42.264074" lon="1.803676">
        <ele>1009</ele>
        <time>2020-07-13T10:14:36.055Z</time>
      </trkpt>
      <trkpt lat="42.264031" lon="1.803534">
        <ele>1011</ele>
        <time>2020-07-13T10:14:48.055Z</time>
      </trkpt>
      <trkpt lat="42.263984" lon="1.803381">
        <ele>1012</ele>
        <time>2020-07-13T10:14:56.055Z</time>
      </trkpt>
      <trkpt lat="42.263936" lon="1.803231">
        <ele>1016</ele>
        <time>2020-07-13T10:15:08.055Z</time>
      </trkpt>
      <trkpt lat="42.263892" lon="1.803101">
        <ele>1016</ele>
        <time>2020-07-13T10:15:19.055Z</time>
      </trkpt>
      <trkpt lat="42.263791" lon="1.802948">
        <ele>1018.1250048</ele>
        <time>2020-07-13T10:15:31.055Z</time>
      </trkpt>
      <trkpt lat="42.263741" lon="1.80278">
        <ele>1021</ele>
        <time>2020-07-13T10:15:43.055Z</time>
      </trkpt>
      <trkpt lat="42.263731" lon="1.802605">
        <ele>1022</ele>
        <time>2020-07-13T10:15:55.050Z</time>
      </trkpt>
      <trkpt lat="42.26365" lon="1.802438">
        <ele>1024</ele>
        <time>2020-07-13T10:16:03.055Z</time>
      </trkpt>
      <trkpt lat="42.263593" lon="1.802279">
        <ele>1026</ele>
        <time>2020-07-13T10:16:15.056Z</time>
      </trkpt>
      <trkpt lat="42.263549" lon="1.802083">
        <ele>1027</ele>
        <time>2020-07-13T10:16:27.156Z</time>
      </trkpt>
      <trkpt lat="42.263546" lon="1.801872">
        <ele>1028</ele>
        <time>2020-07-13T10:16:35.051Z</time>
      </trkpt>
      <trkpt lat="42.263475" lon="1.801711">
        <ele>1029</ele>
        <time>2020-07-13T10:16:43.052Z</time>
      </trkpt>
      <trkpt lat="42.263465" lon="1.801512">
        <ele>1030</ele>
        <time>2020-07-13T10:17:00.055Z</time>
      </trkpt>
      <trkpt lat="42.263392" lon="1.801366">
        <ele>1032</ele>
        <time>2020-07-13T10:17:08.055Z</time>
      </trkpt>
      <trkpt lat="42.263347" lon="1.801184">
        <ele>1033</ele>
        <time>2020-07-13T10:17:20.061Z</time>
      </trkpt>
      <trkpt lat="42.263208" lon="1.800943">
        <ele>1034</ele>
        <time>2020-07-13T10:17:28.055Z</time>
      </trkpt>
      <trkpt lat="42.263294" lon="1.800851">
        <ele>1036</ele>
        <time>2020-07-13T10:17:36.055Z</time>
      </trkpt>
      <trkpt lat="42.263357" lon="1.800729">
        <ele>1036</ele>
        <time>2020-07-13T10:17:44.055Z</time>
      </trkpt>
      <trkpt lat="42.263447" lon="1.800545">
        <ele>1037</ele>
        <time>2020-07-13T10:17:52.055Z</time>
      </trkpt>
      <trkpt lat="42.263485" lon="1.800406">
        <ele>1036</ele>
        <time>2020-07-13T10:18:00.055Z</time>
      </trkpt>
      <trkpt lat="42.263464" lon="1.800237">
        <ele>1039</ele>
        <time>2020-07-13T10:18:12.055Z</time>
      </trkpt>
      <trkpt lat="42.263506" lon="1.800101">
        <ele>1039</ele>
        <time>2020-07-13T10:18:20.054Z</time>
      </trkpt>
      <trkpt lat="42.263658" lon="1.800134">
        <ele>1039</ele>
        <time>2020-07-13T10:18:28.055Z</time>
      </trkpt>
      <trkpt lat="42.26375" lon="1.800157">
        <ele>1040</ele>
        <time>2020-07-13T10:18:36.055Z</time>
      </trkpt>
      <trkpt lat="42.263836" lon="1.800249">
        <ele>1039</ele>
        <time>2020-07-13T10:18:44.055Z</time>
      </trkpt>
      <trkpt lat="42.263918" lon="1.800364">
        <ele>1041</ele>
        <time>2020-07-13T10:18:52.055Z</time>
      </trkpt>
      <trkpt lat="42.263946" lon="1.800507">
        <ele>1041</ele>
        <time>2020-07-13T10:19:00.054Z</time>
      </trkpt>
      <trkpt lat="42.264014" lon="1.800674">
        <ele>1043</ele>
        <time>2020-07-13T10:19:12.055Z</time>
      </trkpt>
      <trkpt lat="42.264052" lon="1.800836">
        <ele>1045</ele>
        <time>2020-07-13T10:19:24.055Z</time>
      </trkpt>
      <trkpt lat="42.264156" lon="1.800821">
        <ele>1048</ele>
        <time>2020-07-13T10:19:40.055Z</time>
      </trkpt>
      <trkpt lat="42.264124" lon="1.800666">
        <ele>1049</ele>
        <time>2020-07-13T10:19:56.055Z</time>
      </trkpt>
      <trkpt lat="42.264087" lon="1.800501">
        <ele>1052</ele>
        <time>2020-07-13T10:20:08.055Z</time>
      </trkpt>
      <trkpt lat="42.264067" lon="1.800332">
        <ele>1053</ele>
        <time>2020-07-13T10:20:20.055Z</time>
      </trkpt>
      <trkpt lat="42.264034" lon="1.800168">
        <ele>1056</ele>
        <time>2020-07-13T10:20:32.055Z</time>
      </trkpt>
      <trkpt lat="42.263981" lon="1.799983">
        <ele>1057</ele>
        <time>2020-07-13T10:20:44.055Z</time>
      </trkpt>
      <trkpt lat="42.263965" lon="1.799796">
        <ele>1059</ele>
        <time>2020-07-13T10:20:56.055Z</time>
      </trkpt>
      <trkpt lat="42.264024" lon="1.799663">
        <ele>1060</ele>
        <time>2020-07-13T10:21:08.055Z</time>
      </trkpt>
      <trkpt lat="42.264052" lon="1.799501">
        <ele>1061</ele>
        <time>2020-07-13T10:21:16.055Z</time>
      </trkpt>
      <trkpt lat="42.264015" lon="1.799312">
        <ele>1063</ele>
        <time>2020-07-13T10:21:32.055Z</time>
      </trkpt>
      <trkpt lat="42.263935" lon="1.799202">
        <ele>1063</ele>
        <time>2020-07-13T10:21:40.055Z</time>
      </trkpt>
      <trkpt lat="42.263864" lon="1.799078">
        <ele>1065</ele>
        <time>2020-07-13T10:21:48.055Z</time>
      </trkpt>
      <trkpt lat="42.263833" lon="1.798884">
        <ele>1066</ele>
        <time>2020-07-13T10:21:56.055Z</time>
      </trkpt>
      <trkpt lat="42.263826" lon="1.798685">
        <ele>1067</ele>
        <time>2020-07-13T10:22:04.055Z</time>
      </trkpt>
      <trkpt lat="42.263866" lon="1.798537">
        <ele>1067</ele>
        <time>2020-07-13T10:22:16.055Z</time>
      </trkpt>
      <trkpt lat="42.263912" lon="1.798358">
        <ele>1068</ele>
        <time>2020-07-13T10:22:28.055Z</time>
      </trkpt>
      <trkpt lat="42.263982" lon="1.798202">
        <ele>1069</ele>
        <time>2020-07-13T10:22:40.055Z</time>
      </trkpt>
      <trkpt lat="42.263999" lon="1.798066">
        <ele>1071</ele>
        <time>2020-07-13T10:22:48.055Z</time>
      </trkpt>
      <trkpt lat="42.263986" lon="1.797897">
        <ele>1072</ele>
        <time>2020-07-13T10:22:56.055Z</time>
      </trkpt>
      <trkpt lat="42.263941" lon="1.797693">
        <ele>1074</ele>
        <time>2020-07-13T10:23:04.080Z</time>
      </trkpt>
      <trkpt lat="42.263922" lon="1.797515">
        <ele>1074</ele>
        <time>2020-07-13T10:23:12.055Z</time>
      </trkpt>
      <trkpt lat="42.263925" lon="1.797317">
        <ele>1074</ele>
        <time>2020-07-13T10:23:20.055Z</time>
      </trkpt>
      <trkpt lat="42.263939" lon="1.797138">
        <ele>1076</ele>
        <time>2020-07-13T10:23:28.055Z</time>
      </trkpt>
      <trkpt lat="42.264026" lon="1.797011">
        <ele>1077</ele>
        <time>2020-07-13T10:23:48.056Z</time>
      </trkpt>
      <trkpt lat="42.263937" lon="1.796828">
        <ele>1079</ele>
        <time>2020-07-13T10:23:56.055Z</time>
      </trkpt>
      <trkpt lat="42.263961" lon="1.796652">
        <ele>1083</ele>
        <time>2020-07-13T10:24:12.055Z</time>
      </trkpt>
      <trkpt lat="42.263918" lon="1.796508">
        <ele>1083</ele>
        <time>2020-07-13T10:24:20.055Z</time>
      </trkpt>
      <trkpt lat="42.263846" lon="1.796394">
        <ele>1084</ele>
        <time>2020-07-13T10:24:28.055Z</time>
      </trkpt>
      <trkpt lat="42.263775" lon="1.796323">
        <ele>1084</ele>
        <time>2020-07-13T10:24:36.055Z</time>
      </trkpt>
      <trkpt lat="42.263688" lon="1.796275">
        <ele>1086</ele>
        <time>2020-07-13T10:24:44.055Z</time>
      </trkpt>
      <trkpt lat="42.263581" lon="1.796231">
        <ele>1088</ele>
        <time>2020-07-13T10:24:52.055Z</time>
      </trkpt>
      <trkpt lat="42.263475" lon="1.796169">
        <ele>1088</ele>
        <time>2020-07-13T10:25:00.055Z</time>
      </trkpt>
      <trkpt lat="42.263394" lon="1.796074">
        <ele>1089</ele>
        <time>2020-07-13T10:25:08.055Z</time>
      </trkpt>
      <trkpt lat="42.263286" lon="1.796">
        <ele>1090</ele>
        <time>2020-07-13T10:25:20.055Z</time>
      </trkpt>
      <trkpt lat="42.263201" lon="1.795892">
        <ele>1094</ele>
        <time>2020-07-13T10:25:28.055Z</time>
      </trkpt>
      <trkpt lat="42.263174" lon="1.79575">
        <ele>1095</ele>
        <time>2020-07-13T10:25:36.055Z</time>
      </trkpt>
      <trkpt lat="42.263209" lon="1.795624">
        <ele>1095</ele>
        <time>2020-07-13T10:25:44.055Z</time>
      </trkpt>
      <trkpt lat="42.263325" lon="1.795514">
        <ele>1095</ele>
        <time>2020-07-13T10:26:00.055Z</time>
      </trkpt>
      <trkpt lat="42.2635" lon="1.795497">
        <ele>1097</ele>
        <time>2020-07-13T10:26:08.055Z</time>
      </trkpt>
      <trkpt lat="42.263607" lon="1.795503">
        <ele>1097</ele>
        <time>2020-07-13T10:26:16.055Z</time>
      </trkpt>
      <trkpt lat="42.263712" lon="1.795526">
        <ele>1099</ele>
        <time>2020-07-13T10:26:24.055Z</time>
      </trkpt>
      <trkpt lat="42.263828" lon="1.795552">
        <ele>1101</ele>
        <time>2020-07-13T10:26:33.055Z</time>
      </trkpt>
      <trkpt lat="42.263929" lon="1.79561">
        <ele>1101</ele>
        <time>2020-07-13T10:26:41.158Z</time>
      </trkpt>
      <trkpt lat="42.264053" lon="1.795629">
        <ele>1103</ele>
        <time>2020-07-13T10:26:53.159Z</time>
      </trkpt>
      <trkpt lat="42.264157" lon="1.795727">
        <ele>1106</ele>
        <time>2020-07-13T10:27:05.055Z</time>
      </trkpt>
      <trkpt lat="42.264184" lon="1.795586">
        <ele>1106</ele>
        <time>2020-07-13T10:27:13.055Z</time>
      </trkpt>
      <trkpt lat="42.264116" lon="1.795433">
        <ele>1107</ele>
        <time>2020-07-13T10:27:25.055Z</time>
      </trkpt>
      <trkpt lat="42.264005" lon="1.795351">
        <ele>1111.1250048</ele>
        <time>2020-07-13T10:27:41.055Z</time>
      </trkpt>
      <trkpt lat="42.263908" lon="1.795279">
        <ele>1112</ele>
        <time>2020-07-13T10:27:49.055Z</time>
      </trkpt>
      <trkpt lat="42.263831" lon="1.795145">
        <ele>1113.1250048</ele>
        <time>2020-07-13T10:28:01.055Z</time>
      </trkpt>
      <trkpt lat="42.263802" lon="1.79502">
        <ele>1116</ele>
        <time>2020-07-13T10:28:13.055Z</time>
      </trkpt>
      <trkpt lat="42.263766" lon="1.794889">
        <ele>1118</ele>
        <time>2020-07-13T10:32:29.055Z</time>
      </trkpt>
      <trkpt lat="42.263751" lon="1.79472">
        <ele>1118.2500096</ele>
        <time>2020-07-13T10:32:41.055Z</time>
      </trkpt>
      <trkpt lat="42.263667" lon="1.794584">
        <ele>1121</ele>
        <time>2020-07-13T10:32:53.052Z</time>
      </trkpt>
      <trkpt lat="42.263579" lon="1.794471">
        <ele>1121.12376752085</ele>
        <time>2020-07-13T10:33:01.055Z</time>
      </trkpt>
      <trkpt lat="42.263462" lon="1.794355">
        <ele>1124</ele>
        <time>2020-07-13T10:33:13.055Z</time>
      </trkpt>
      <trkpt lat="42.263391" lon="1.794232">
        <ele>1124</ele>
        <time>2020-07-13T10:33:25.057Z</time>
      </trkpt>
      <trkpt lat="42.263314" lon="1.794132">
        <ele>1126</ele>
        <time>2020-07-13T10:33:37.062Z</time>
      </trkpt>
      <trkpt lat="42.263198" lon="1.794127">
        <ele>1127</ele>
        <time>2020-07-13T10:33:47.055Z</time>
      </trkpt>
      <trkpt lat="42.263085" lon="1.794151">
        <ele>1128</ele>
        <time>2020-07-13T10:34:49.055Z</time>
      </trkpt>
      <trkpt lat="42.263035" lon="1.793988">
        <ele>1130</ele>
        <time>2020-07-13T10:34:57.164Z</time>
      </trkpt>
      <trkpt lat="42.262927" lon="1.793959">
        <ele>1132</ele>
        <time>2020-07-13T10:35:05.055Z</time>
      </trkpt>
      <trkpt lat="42.262839" lon="1.793883">
        <ele>1132</ele>
        <time>2020-07-13T10:35:13.055Z</time>
      </trkpt>
      <trkpt lat="42.26273" lon="1.793723">
        <ele>1134</ele>
        <time>2020-07-13T10:35:25.059Z</time>
      </trkpt>
      <trkpt lat="42.262657" lon="1.793613">
        <ele>1135</ele>
        <time>2020-07-13T10:35:33.055Z</time>
      </trkpt>
      <trkpt lat="42.262592" lon="1.793463">
        <ele>1136</ele>
        <time>2020-07-13T10:35:45.054Z</time>
      </trkpt>
      <trkpt lat="42.26253" lon="1.793355">
        <ele>1136</ele>
        <time>2020-07-13T10:35:53.055Z</time>
      </trkpt>
      <trkpt lat="42.262413" lon="1.793214">
        <ele>1136.1250048</ele>
        <time>2020-07-13T10:36:01.055Z</time>
      </trkpt>
      <trkpt lat="42.262386" lon="1.793043">
        <ele>1137</ele>
        <time>2020-07-13T10:36:09.055Z</time>
      </trkpt>
      <trkpt lat="42.262436" lon="1.792928">
        <ele>1137</ele>
        <time>2020-07-13T10:36:17.055Z</time>
      </trkpt>
      <trkpt lat="42.262518" lon="1.792756">
        <ele>1137</ele>
        <time>2020-07-13T10:36:25.053Z</time>
      </trkpt>
      <trkpt lat="42.262562" lon="1.79261">
        <ele>1137</ele>
        <time>2020-07-13T10:36:33.055Z</time>
      </trkpt>
      <trkpt lat="42.262567" lon="1.792472">
        <ele>1137.1250048</ele>
        <time>2020-07-13T10:36:41.055Z</time>
      </trkpt>
      <trkpt lat="42.26259" lon="1.792333">
        <ele>1138</ele>
        <time>2020-07-13T10:36:49.063Z</time>
      </trkpt>
      <trkpt lat="42.262635" lon="1.792202">
        <ele>1140</ele>
        <time>2020-07-13T10:36:57.055Z</time>
      </trkpt>
      <trkpt lat="42.262562" lon="1.791972">
        <ele>1140</ele>
        <time>2020-07-13T10:37:09.062Z</time>
      </trkpt>
      <trkpt lat="42.262574" lon="1.791817">
        <ele>1142</ele>
        <time>2020-07-13T10:37:17.054Z</time>
      </trkpt>
      <trkpt lat="42.262553" lon="1.791653">
        <ele>1145</ele>
        <time>2020-07-13T10:37:25.057Z</time>
      </trkpt>
      <trkpt lat="42.262621" lon="1.791542">
        <ele>1147</ele>
        <time>2020-07-13T10:37:37.055Z</time>
      </trkpt>
      <trkpt lat="42.26262" lon="1.791417">
        <ele>1149</ele>
        <time>2020-07-13T10:37:45.055Z</time>
      </trkpt>
      <trkpt lat="42.262631" lon="1.79126">
        <ele>1149</ele>
        <time>2020-07-13T10:37:54.055Z</time>
      </trkpt>
      <trkpt lat="42.262628" lon="1.791065">
        <ele>1149</ele>
        <time>2020-07-13T10:38:06.049Z</time>
      </trkpt>
      <trkpt lat="42.262596" lon="1.790888">
        <ele>1149</ele>
        <time>2020-07-13T10:38:14.052Z</time>
      </trkpt>
      <trkpt lat="42.26248" lon="1.79075">
        <ele>1148</ele>
        <time>2020-07-13T10:38:22.059Z</time>
      </trkpt>
      <trkpt lat="42.262391" lon="1.790593">
        <ele>1147</ele>
        <time>2020-07-13T10:38:34.055Z</time>
      </trkpt>
      <trkpt lat="42.26231" lon="1.790466">
        <ele>1146</ele>
        <time>2020-07-13T10:38:42.055Z</time>
      </trkpt>
      <trkpt lat="42.262285" lon="1.79032">
        <ele>1146</ele>
        <time>2020-07-13T10:38:54.055Z</time>
      </trkpt>
      <trkpt lat="42.262244" lon="1.790109">
        <ele>1144</ele>
        <time>2020-07-13T10:39:02.055Z</time>
      </trkpt>
      <trkpt lat="42.262191" lon="1.78995">
        <ele>1144</ele>
        <time>2020-07-13T10:39:10.055Z</time>
      </trkpt>
      <trkpt lat="42.262117" lon="1.789851">
        <ele>1147</ele>
        <time>2020-07-13T10:39:22.055Z</time>
      </trkpt>
      <trkpt lat="42.261998" lon="1.789827">
        <ele>1149</ele>
        <time>2020-07-13T10:39:38.055Z</time>
      </trkpt>
      <trkpt lat="42.261907" lon="1.789693">
        <ele>1153</ele>
        <time>2020-07-13T10:39:54.063Z</time>
      </trkpt>
      <trkpt lat="42.261794" lon="1.78968">
        <ele>1154</ele>
        <time>2020-07-13T10:40:06.055Z</time>
      </trkpt>
      <trkpt lat="42.261654" lon="1.789651">
        <ele>1157</ele>
        <time>2020-07-13T10:40:22.061Z</time>
      </trkpt>
      <trkpt lat="42.261552" lon="1.789582">
        <ele>1162</ele>
        <time>2020-07-13T10:40:39.055Z</time>
      </trkpt>
      <trkpt lat="42.261453" lon="1.78954">
        <ele>1164</ele>
        <time>2020-07-13T10:40:56.057Z</time>
      </trkpt>
      <trkpt lat="42.261353" lon="1.789538">
        <ele>1166</ele>
        <time>2020-07-13T10:41:04.055Z</time>
      </trkpt>
      <trkpt lat="42.261249" lon="1.78948">
        <ele>1167</ele>
        <time>2020-07-13T10:41:16.060Z</time>
      </trkpt>
      <trkpt lat="42.261137" lon="1.78938">
        <ele>1170</ele>
        <time>2020-07-13T10:41:32.055Z</time>
      </trkpt>
      <trkpt lat="42.261048" lon="1.789258">
        <ele>1172</ele>
        <time>2020-07-13T10:41:45.055Z</time>
      </trkpt>
      <trkpt lat="42.260965" lon="1.789148">
        <ele>1172</ele>
        <time>2020-07-13T10:41:57.162Z</time>
      </trkpt>
      <trkpt lat="42.260881" lon="1.789009">
        <ele>1169</ele>
        <time>2020-07-13T10:42:05.055Z</time>
      </trkpt>
      <trkpt lat="42.260843" lon="1.788873">
        <ele>1173</ele>
        <time>2020-07-13T10:42:17.157Z</time>
      </trkpt>
      <trkpt lat="42.260877" lon="1.788665">
        <ele>1174</ele>
        <time>2020-07-13T10:42:31.055Z</time>
      </trkpt>
      <trkpt lat="42.260961" lon="1.788576">
        <ele>1176</ele>
        <time>2020-07-13T10:42:50.055Z</time>
      </trkpt>
      <trkpt lat="42.260958" lon="1.788422">
        <ele>1184</ele>
        <time>2020-07-13T10:43:18.062Z</time>
      </trkpt>
      <trkpt lat="42.260958" lon="1.788268">
        <ele>1186</ele>
        <time>2020-07-13T10:43:33.055Z</time>
      </trkpt>
      <trkpt lat="42.260854" lon="1.788203">
        <ele>1190</ele>
        <time>2020-07-13T10:43:53.051Z</time>
      </trkpt>
      <trkpt lat="42.260864" lon="1.78805">
        <ele>1193</ele>
        <time>2020-07-13T10:44:05.055Z</time>
      </trkpt>
      <trkpt lat="42.260967" lon="1.787921">
        <ele>1196</ele>
        <time>2020-07-13T10:44:22.055Z</time>
      </trkpt>
      <trkpt lat="42.261114" lon="1.787849">
        <ele>1199</ele>
        <time>2020-07-13T10:44:43.049Z</time>
      </trkpt>
      <trkpt lat="42.261156" lon="1.787685">
        <ele>1200</ele>
        <time>2020-07-13T10:44:59.055Z</time>
      </trkpt>
      <trkpt lat="42.26113" lon="1.787548">
        <ele>1200.2500096</ele>
        <time>2020-07-13T10:45:11.055Z</time>
      </trkpt>
      <trkpt lat="42.261064" lon="1.78741">
        <ele>1204</ele>
        <time>2020-07-13T10:45:23.055Z</time>
      </trkpt>
      <trkpt lat="42.261068" lon="1.787267">
        <ele>1204.2500096</ele>
        <time>2020-07-13T10:45:31.055Z</time>
      </trkpt>
      <trkpt lat="42.261105" lon="1.787106">
        <ele>1207</ele>
        <time>2020-07-13T10:45:43.055Z</time>
      </trkpt>
      <trkpt lat="42.261002" lon="1.786899">
        <ele>1209</ele>
        <time>2020-07-13T10:45:59.055Z</time>
      </trkpt>
      <trkpt lat="42.260998" lon="1.786717">
        <ele>1213</ele>
        <time>2020-07-13T10:46:14.055Z</time>
      </trkpt>
      <trkpt lat="42.261012" lon="1.786566">
        <ele>1214</ele>
        <time>2020-07-13T10:46:26.055Z</time>
      </trkpt>
      <trkpt lat="42.261116" lon="1.78644">
        <ele>1215</ele>
        <time>2020-07-13T10:46:40.055Z</time>
      </trkpt>
      <trkpt lat="42.261179" lon="1.786246">
        <ele>1218</ele>
        <time>2020-07-13T10:46:53.055Z</time>
      </trkpt>
      <trkpt lat="42.26124" lon="1.786115">
        <ele>1222</ele>
        <time>2020-07-13T10:47:11.158Z</time>
      </trkpt>
      <trkpt lat="42.261276" lon="1.785947">
        <ele>1224</ele>
        <time>2020-07-13T10:47:26.055Z</time>
      </trkpt>
      <trkpt lat="42.261343" lon="1.78584">
        <ele>1228</ele>
        <time>2020-07-13T10:47:50.054Z</time>
      </trkpt>
      <trkpt lat="42.261367" lon="1.785705">
        <ele>1232</ele>
        <time>2020-07-13T10:48:06.055Z</time>
      </trkpt>
      <trkpt lat="42.261293" lon="1.785594">
        <ele>1235</ele>
        <time>2020-07-13T10:48:22.053Z</time>
      </trkpt>
      <trkpt lat="42.261223" lon="1.785393">
        <ele>1237</ele>
        <time>2020-07-13T10:48:34.055Z</time>
      </trkpt>
      <trkpt lat="42.261204" lon="1.785198">
        <ele>1239</ele>
        <time>2020-07-13T10:48:49.055Z</time>
      </trkpt>
      <trkpt lat="42.261183" lon="1.785032">
        <ele>1240.2500096</ele>
        <time>2020-07-13T10:49:01.055Z</time>
      </trkpt>
      <trkpt lat="42.261181" lon="1.78489">
        <ele>1244</ele>
        <time>2020-07-13T10:49:13.055Z</time>
      </trkpt>
      <trkpt lat="42.261078" lon="1.784756">
        <ele>1245</ele>
        <time>2020-07-13T10:49:29.055Z</time>
      </trkpt>
      <trkpt lat="42.260991" lon="1.784634">
        <ele>1245</ele>
        <time>2020-07-13T10:49:41.055Z</time>
      </trkpt>
      <trkpt lat="42.260976" lon="1.784464">
        <ele>1247</ele>
        <time>2020-07-13T10:49:53.055Z</time>
      </trkpt>
      <trkpt lat="42.260916" lon="1.784311">
        <ele>1247</ele>
        <time>2020-07-13T10:50:02.055Z</time>
      </trkpt>
      <trkpt lat="42.260844" lon="1.784201">
        <ele>1247</ele>
        <time>2020-07-13T10:50:10.055Z</time>
      </trkpt>
      <trkpt lat="42.260718" lon="1.784118">
        <ele>1251</ele>
        <time>2020-07-13T10:50:24.051Z</time>
      </trkpt>
      <trkpt lat="42.260622" lon="1.784032">
        <ele>1253</ele>
        <time>2020-07-13T10:50:39.149Z</time>
      </trkpt>
      <trkpt lat="42.260544" lon="1.783944">
        <ele>1255</ele>
        <time>2020-07-13T10:50:47.056Z</time>
      </trkpt>
      <trkpt lat="42.260458" lon="1.783868">
        <ele>1256</ele>
        <time>2020-07-13T10:51:00.055Z</time>
      </trkpt>
      <trkpt lat="42.260464" lon="1.78372">
        <ele>1255</ele>
        <time>2020-07-13T10:51:16.055Z</time>
      </trkpt>
      <trkpt lat="42.260509" lon="1.783556">
        <ele>1257</ele>
        <time>2020-07-13T10:51:28.055Z</time>
      </trkpt>
      <trkpt lat="42.260608" lon="1.78344">
        <ele>1259</ele>
        <time>2020-07-13T10:51:42.055Z</time>
      </trkpt>
      <trkpt lat="42.260664" lon="1.783289">
        <ele>1259</ele>
        <time>2020-07-13T10:51:54.047Z</time>
      </trkpt>
      <trkpt lat="42.260767" lon="1.783134">
        <ele>1260</ele>
        <time>2020-07-13T10:52:09.055Z</time>
      </trkpt>
      <trkpt lat="42.260745" lon="1.782961">
        <ele>1262</ele>
        <time>2020-07-13T10:52:20.055Z</time>
      </trkpt>
      <trkpt lat="42.260792" lon="1.782842">
        <ele>1263.2500096</ele>
        <time>2020-07-13T10:52:31.055Z</time>
      </trkpt>
      <trkpt lat="42.260883" lon="1.782734">
        <ele>1267</ele>
        <time>2020-07-13T10:52:43.055Z</time>
      </trkpt>
      <trkpt lat="42.26095" lon="1.782606">
        <ele>1267</ele>
        <time>2020-07-13T10:52:55.055Z</time>
      </trkpt>
      <trkpt lat="42.261062" lon="1.782489">
        <ele>1270.2500096</ele>
        <time>2020-07-13T10:53:11.055Z</time>
      </trkpt>
      <trkpt lat="42.261138" lon="1.782342">
        <ele>1272</ele>
        <time>2020-07-13T10:53:23.055Z</time>
      </trkpt>
      <trkpt lat="42.261224" lon="1.782189">
        <ele>1273</ele>
        <time>2020-07-13T10:53:33.055Z</time>
      </trkpt>
      <trkpt lat="42.261295" lon="1.782057">
        <ele>1275</ele>
        <time>2020-07-13T10:53:45.053Z</time>
      </trkpt>
      <trkpt lat="42.261403" lon="1.781918">
        <ele>1277</ele>
        <time>2020-07-13T10:54:00.061Z</time>
      </trkpt>
      <trkpt lat="42.261515" lon="1.781788">
        <ele>1279</ele>
        <time>2020-07-13T10:54:12.055Z</time>
      </trkpt>
      <trkpt lat="42.261625" lon="1.781668">
        <ele>1280</ele>
        <time>2020-07-13T10:54:24.057Z</time>
      </trkpt>
      <trkpt lat="42.261685" lon="1.781558">
        <ele>1282</ele>
        <time>2020-07-13T10:54:36.055Z</time>
      </trkpt>
      <trkpt lat="42.26165" lon="1.7814">
        <ele>1284</ele>
        <time>2020-07-13T10:54:48.059Z</time>
      </trkpt>
      <trkpt lat="42.261623" lon="1.781247">
        <ele>1286</ele>
        <time>2020-07-13T10:55:00.055Z</time>
      </trkpt>
      <trkpt lat="42.261547" lon="1.781111">
        <ele>1289</ele>
        <time>2020-07-13T10:55:16.062Z</time>
      </trkpt>
      <trkpt lat="42.261469" lon="1.78097">
        <ele>1292</ele>
        <time>2020-07-13T10:55:32.055Z</time>
      </trkpt>
      <trkpt lat="42.261447" lon="1.780773">
        <ele>1292</ele>
        <time>2020-07-13T10:55:40.055Z</time>
      </trkpt>
      <trkpt lat="42.261444" lon="1.780616">
        <ele>1295</ele>
        <time>2020-07-13T10:55:52.055Z</time>
      </trkpt>
      <trkpt lat="42.261426" lon="1.780444">
        <ele>1297</ele>
        <time>2020-07-13T10:56:08.056Z</time>
      </trkpt>
      <trkpt lat="42.261388" lon="1.780319">
        <ele>1299</ele>
        <time>2020-07-13T10:56:16.058Z</time>
      </trkpt>
      <trkpt lat="42.261353" lon="1.780105">
        <ele>1299.2500096</ele>
        <time>2020-07-13T10:56:31.055Z</time>
      </trkpt>
      <trkpt lat="42.261373" lon="1.779948">
        <ele>1302</ele>
        <time>2020-07-13T10:56:43.055Z</time>
      </trkpt>
      <trkpt lat="42.261419" lon="1.779805">
        <ele>1304</ele>
        <time>2020-07-13T10:56:56.055Z</time>
      </trkpt>
      <trkpt lat="42.261495" lon="1.77966">
        <ele>1306</ele>
        <time>2020-07-13T10:57:06.055Z</time>
      </trkpt>
      <trkpt lat="42.261472" lon="1.779523">
        <ele>1307</ele>
        <time>2020-07-13T10:57:14.060Z</time>
      </trkpt>
      <trkpt lat="42.261487" lon="1.779388">
        <ele>1308</ele>
        <time>2020-07-13T10:57:29.055Z</time>
      </trkpt>
      <trkpt lat="42.261487" lon="1.779236">
        <ele>1309</ele>
        <time>2020-07-13T10:57:37.055Z</time>
      </trkpt>
      <trkpt lat="42.261494" lon="1.779096">
        <ele>1310</ele>
        <time>2020-07-13T10:57:45.055Z</time>
      </trkpt>
      <trkpt lat="42.261503" lon="1.778881">
        <ele>1310</ele>
        <time>2020-07-13T10:57:56.055Z</time>
      </trkpt>
      <trkpt lat="42.261462" lon="1.778698">
        <ele>1312</ele>
        <time>2020-07-13T10:58:05.055Z</time>
      </trkpt>
      <trkpt lat="42.261457" lon="1.778474">
        <ele>1315</ele>
        <time>2020-07-13T10:58:24.055Z</time>
      </trkpt>
      <trkpt lat="42.261382" lon="1.778298">
        <ele>1316</ele>
        <time>2020-07-13T10:58:32.062Z</time>
      </trkpt>
      <trkpt lat="42.261371" lon="1.778116">
        <ele>1320</ele>
        <time>2020-07-13T10:58:52.055Z</time>
      </trkpt>
      <trkpt lat="42.261312" lon="1.777926">
        <ele>1321</ele>
        <time>2020-07-13T10:59:06.055Z</time>
      </trkpt>
      <trkpt lat="42.26122" lon="1.777849">
        <ele>1323</ele>
        <time>2020-07-13T10:59:20.055Z</time>
      </trkpt>
      <trkpt lat="42.261321" lon="1.777818">
        <ele>1325</ele>
        <time>2020-07-13T10:59:28.055Z</time>
      </trkpt>
      <trkpt lat="42.261436" lon="1.77782">
        <ele>1326</ele>
        <time>2020-07-13T10:59:36.055Z</time>
      </trkpt>
      <trkpt lat="42.261506" lon="1.777654">
        <ele>1328</ele>
        <time>2020-07-13T10:59:48.057Z</time>
      </trkpt>
      <trkpt lat="42.261565" lon="1.777534">
        <ele>1330</ele>
        <time>2020-07-13T11:00:00.057Z</time>
      </trkpt>
      <trkpt lat="42.261687" lon="1.777464">
        <ele>1331</ele>
        <time>2020-07-13T11:00:12.055Z</time>
      </trkpt>
      <trkpt lat="42.261786" lon="1.777384">
        <ele>1333</ele>
        <time>2020-07-13T11:00:28.055Z</time>
      </trkpt>
      <trkpt lat="42.261901" lon="1.777326">
        <ele>1335</ele>
        <time>2020-07-13T11:00:40.055Z</time>
      </trkpt>
      <trkpt lat="42.261995" lon="1.777265">
        <ele>1339</ele>
        <time>2020-07-13T11:00:52.055Z</time>
      </trkpt>
      <trkpt lat="42.262085" lon="1.777186">
        <ele>1343</ele>
        <time>2020-07-13T11:01:04.055Z</time>
      </trkpt>
      <trkpt lat="42.262085" lon="1.776994">
        <ele>1343</ele>
        <time>2020-07-13T11:01:15.953Z</time>
      </trkpt>
      <trkpt lat="42.262088" lon="1.776811">
        <ele>1344</ele>
        <time>2020-07-13T11:01:28.055Z</time>
      </trkpt>
      <trkpt lat="42.262091" lon="1.776631">
        <ele>1346</ele>
        <time>2020-07-13T11:01:40.055Z</time>
      </trkpt>
      <trkpt lat="42.262011" lon="1.776454">
        <ele>1345</ele>
        <time>2020-07-13T11:01:56.256Z</time>
      </trkpt>
      <trkpt lat="42.262007" lon="1.776242">
        <ele>1345</ele>
        <time>2020-07-13T11:02:07.062Z</time>
      </trkpt>
      <trkpt lat="42.261973" lon="1.776065">
        <ele>1346</ele>
        <time>2020-07-13T11:02:19.055Z</time>
      </trkpt>
      <trkpt lat="42.261935" lon="1.775937">
        <ele>1346</ele>
        <time>2020-07-13T11:02:29.055Z</time>
      </trkpt>
      <trkpt lat="42.261902" lon="1.775805">
        <ele>1345</ele>
        <time>2020-07-13T11:02:37.055Z</time>
      </trkpt>
      <trkpt lat="42.261833" lon="1.775657">
        <ele>1344.8749952</ele>
        <time>2020-07-13T11:02:51.055Z</time>
      </trkpt>
      <trkpt lat="42.261819" lon="1.775499">
        <ele>1344</ele>
        <time>2020-07-13T11:03:07.055Z</time>
      </trkpt>
      <trkpt lat="42.2619" lon="1.77535">
        <ele>1345</ele>
        <time>2020-07-13T11:03:19.055Z</time>
      </trkpt>
      <trkpt lat="42.261941" lon="1.775184">
        <ele>1348</ele>
        <time>2020-07-13T11:03:33.057Z</time>
      </trkpt>
      <trkpt lat="42.261959" lon="1.775029">
        <ele>1348.1250048</ele>
        <time>2020-07-13T11:03:41.055Z</time>
      </trkpt>
      <trkpt lat="42.261948" lon="1.774893">
        <ele>1349</ele>
        <time>2020-07-13T11:03:49.055Z</time>
      </trkpt>
      <trkpt lat="42.262176" lon="1.774795">
        <ele>1352</ele>
        <time>2020-07-13T11:04:05.055Z</time>
      </trkpt>
      <trkpt lat="42.262273" lon="1.774643">
        <ele>1352</ele>
        <time>2020-07-13T11:04:17.055Z</time>
      </trkpt>
      <trkpt lat="42.262382" lon="1.774555">
        <ele>1353</ele>
        <time>2020-07-13T11:04:29.055Z</time>
      </trkpt>
      <trkpt lat="42.26246" lon="1.774455">
        <ele>1354</ele>
        <time>2020-07-13T11:04:37.055Z</time>
      </trkpt>
      <trkpt lat="42.262506" lon="1.774275">
        <ele>1355</ele>
        <time>2020-07-13T11:04:49.058Z</time>
      </trkpt>
      <trkpt lat="42.262573" lon="1.774125">
        <ele>1355</ele>
        <time>2020-07-13T11:04:59.055Z</time>
      </trkpt>
      <trkpt lat="42.26263" lon="1.773996">
        <ele>1354.2500096</ele>
        <time>2020-07-13T11:05:11.055Z</time>
      </trkpt>
      <trkpt lat="42.262644" lon="1.773737">
        <ele>1358</ele>
        <time>2020-07-13T11:05:27.055Z</time>
      </trkpt>
      <trkpt lat="42.262658" lon="1.7736">
        <ele>1359</ele>
        <time>2020-07-13T11:05:35.055Z</time>
      </trkpt>
      <trkpt lat="42.262705" lon="1.773442">
        <ele>1359</ele>
        <time>2020-07-13T11:05:47.058Z</time>
      </trkpt>
      <trkpt lat="42.262768" lon="1.773226">
        <ele>1361</ele>
        <time>2020-07-13T11:06:01.055Z</time>
      </trkpt>
      <trkpt lat="42.262811" lon="1.773099">
        <ele>1361</ele>
        <time>2020-07-13T11:06:09.061Z</time>
      </trkpt>
      <trkpt lat="42.262748" lon="1.772942">
        <ele>1361</ele>
        <time>2020-07-13T11:06:17.357Z</time>
      </trkpt>
      <trkpt lat="42.262743" lon="1.772747">
        <ele>1362</ele>
        <time>2020-07-13T11:06:26.055Z</time>
      </trkpt>
      <trkpt lat="42.262736" lon="1.772492">
        <ele>1364</ele>
        <time>2020-07-13T11:06:40.055Z</time>
      </trkpt>
      <trkpt lat="42.26269" lon="1.772254">
        <ele>1364.1250048</ele>
        <time>2020-07-13T11:06:51.055Z</time>
      </trkpt>
      <trkpt lat="42.26267" lon="1.772117">
        <ele>1366</ele>
        <time>2020-07-13T11:07:03.055Z</time>
      </trkpt>
      <trkpt lat="42.262639" lon="1.771965">
        <ele>1368</ele>
        <time>2020-07-13T11:07:15.055Z</time>
      </trkpt>
      <trkpt lat="42.262596" lon="1.771825">
        <ele>1368</ele>
        <time>2020-07-13T11:07:27.055Z</time>
      </trkpt>
      <trkpt lat="42.262557" lon="1.77167">
        <ele>1369</ele>
        <time>2020-07-13T11:07:35.055Z</time>
      </trkpt>
      <trkpt lat="42.262479" lon="1.771521">
        <ele>1369</ele>
        <time>2020-07-13T11:07:43.055Z</time>
      </trkpt>
      <trkpt lat="42.262415" lon="1.771372">
        <ele>1369</ele>
        <time>2020-07-13T11:07:51.055Z</time>
      </trkpt>
      <trkpt lat="42.262378" lon="1.771187">
        <ele>1368.8749952</ele>
        <time>2020-07-13T11:08:01.055Z</time>
      </trkpt>
      <trkpt lat="42.262402" lon="1.771043">
        <ele>1369</ele>
        <time>2020-07-13T11:08:09.055Z</time>
      </trkpt>
      <trkpt lat="42.262432" lon="1.770905">
        <ele>1371</ele>
        <time>2020-07-13T11:08:17.056Z</time>
      </trkpt>
      <trkpt lat="42.262546" lon="1.770745">
        <ele>1372</ele>
        <time>2020-07-13T11:08:28.055Z</time>
      </trkpt>
      <trkpt lat="42.262626" lon="1.770656">
        <ele>1372</ele>
        <time>2020-07-13T11:08:36.052Z</time>
      </trkpt>
      <trkpt lat="42.262654" lon="1.770447">
        <ele>1372</ele>
        <time>2020-07-13T11:08:48.055Z</time>
      </trkpt>
      <trkpt lat="42.262596" lon="1.770286">
        <ele>1372</ele>
        <time>2020-07-13T11:08:56.055Z</time>
      </trkpt>
      <trkpt lat="42.262571" lon="1.770123">
        <ele>1373</ele>
        <time>2020-07-13T11:09:04.055Z</time>
      </trkpt>
      <trkpt lat="42.262564" lon="1.769931">
        <ele>1373</ele>
        <time>2020-07-13T11:09:16.056Z</time>
      </trkpt>
      <trkpt lat="42.262587" lon="1.769762">
        <ele>1373</ele>
        <time>2020-07-13T11:09:28.054Z</time>
      </trkpt>
      <trkpt lat="42.262552" lon="1.769599">
        <ele>1372</ele>
        <time>2020-07-13T11:09:37.055Z</time>
      </trkpt>
      <trkpt lat="42.26252" lon="1.769305">
        <ele>1371</ele>
        <time>2020-07-13T11:09:50.055Z</time>
      </trkpt>
      <trkpt lat="42.262501" lon="1.769174">
        <ele>1370</ele>
        <time>2020-07-13T11:09:56.055Z</time>
      </trkpt>
      <trkpt lat="42.262466" lon="1.769034">
        <ele>1371</ele>
        <time>2020-07-13T11:10:04.055Z</time>
      </trkpt>
      <trkpt lat="42.26243" lon="1.76882">
        <ele>1371</ele>
        <time>2020-07-13T11:10:16.060Z</time>
      </trkpt>
      <trkpt lat="42.26243" lon="1.768676">
        <ele>1370</ele>
        <time>2020-07-13T11:10:27.055Z</time>
      </trkpt>
      <trkpt lat="42.262404" lon="1.768516">
        <ele>1370</ele>
        <time>2020-07-13T11:10:39.054Z</time>
      </trkpt>
      <trkpt lat="42.262356" lon="1.768346">
        <ele>1371</ele>
        <time>2020-07-13T11:10:47.061Z</time>
      </trkpt>
      <trkpt lat="42.26232" lon="1.768162">
        <ele>1372</ele>
        <time>2020-07-13T11:10:55.255Z</time>
      </trkpt>
      <trkpt lat="42.262283" lon="1.768028">
        <ele>1374</ele>
        <time>2020-07-13T11:11:05.055Z</time>
      </trkpt>
      <trkpt lat="42.262238" lon="1.767851">
        <ele>1376</ele>
        <time>2020-07-13T11:11:17.056Z</time>
      </trkpt>
      <trkpt lat="42.262187" lon="1.76773">
        <ele>1378</ele>
        <time>2020-07-13T11:11:25.055Z</time>
      </trkpt>
      <trkpt lat="42.262173" lon="1.767564">
        <ele>1382</ele>
        <time>2020-07-13T11:11:49.050Z</time>
      </trkpt>
      <trkpt lat="42.262058" lon="1.767459">
        <ele>1384.2480128</ele>
        <time>2020-07-13T11:12:01.054Z</time>
      </trkpt>
      <trkpt lat="42.261989" lon="1.767331">
        <ele>1386</ele>
        <time>2020-07-13T11:12:09.047Z</time>
      </trkpt>
      <trkpt lat="42.261911" lon="1.767225">
        <ele>1388.1250048</ele>
        <time>2020-07-13T11:12:21.055Z</time>
      </trkpt>
      <trkpt lat="42.2618" lon="1.767102">
        <ele>1391</ele>
        <time>2020-07-13T11:12:33.052Z</time>
      </trkpt>
      <trkpt lat="42.261712" lon="1.766936">
        <ele>1393</ele>
        <time>2020-07-13T11:12:47.055Z</time>
      </trkpt>
      <trkpt lat="42.261656" lon="1.766817">
        <ele>1394</ele>
        <time>2020-07-13T11:12:59.055Z</time>
      </trkpt>
      <trkpt lat="42.261558" lon="1.766758">
        <ele>1395</ele>
        <time>2020-07-13T11:13:09.055Z</time>
      </trkpt>
      <trkpt lat="42.261431" lon="1.76658">
        <ele>1397.1260032</ele>
        <time>2020-07-13T11:13:21.056Z</time>
      </trkpt>
      <trkpt lat="42.261353" lon="1.76645">
        <ele>1400</ele>
        <time>2020-07-13T11:13:39.055Z</time>
      </trkpt>
      <trkpt lat="42.261259" lon="1.766352">
        <ele>1402.1250048</ele>
        <time>2020-07-13T11:13:51.055Z</time>
      </trkpt>
      <trkpt lat="42.261138" lon="1.766234">
        <ele>1404</ele>
        <time>2020-07-13T11:14:04.055Z</time>
      </trkpt>
      <trkpt lat="42.261064" lon="1.766129">
        <ele>1406</ele>
        <time>2020-07-13T11:14:16.055Z</time>
      </trkpt>
      <trkpt lat="42.260908" lon="1.766125">
        <ele>1410</ele>
        <time>2020-07-13T11:14:32.052Z</time>
      </trkpt>
      <trkpt lat="42.2609" lon="1.765988">
        <ele>1410</ele>
        <time>2020-07-13T11:14:40.062Z</time>
      </trkpt>
      <trkpt lat="42.260877" lon="1.765848">
        <ele>1414</ele>
        <time>2020-07-13T11:15:00.055Z</time>
      </trkpt>
      <trkpt lat="42.26078" lon="1.765881">
        <ele>1418</ele>
        <time>2020-07-13T11:15:16.055Z</time>
      </trkpt>
      <trkpt lat="42.26065" lon="1.765911">
        <ele>1421</ele>
        <time>2020-07-13T11:15:32.055Z</time>
      </trkpt>
      <trkpt lat="42.26053" lon="1.76587">
        <ele>1423</ele>
        <time>2020-07-13T11:15:48.056Z</time>
      </trkpt>
      <trkpt lat="42.260456" lon="1.76572">
        <ele>1428</ele>
        <time>2020-07-13T11:16:04.054Z</time>
      </trkpt>
      <trkpt lat="42.260534" lon="1.765693">
        <ele>1430</ele>
        <time>2020-07-13T11:17:56.049Z</time>
      </trkpt>
      <trkpt lat="42.260645" lon="1.765595">
        <ele>1431</ele>
        <time>2020-07-13T11:20:04.055Z</time>
      </trkpt>
      <trkpt lat="42.260746" lon="1.765504">
        <ele>1431</ele>
        <time>2020-07-13T11:20:16.052Z</time>
      </trkpt>
      <trkpt lat="42.260831" lon="1.765388">
        <ele>1430</ele>
        <time>2020-07-13T11:20:26.055Z</time>
      </trkpt>
      <trkpt lat="42.260934" lon="1.76527">
        <ele>1430</ele>
        <time>2020-07-13T11:20:38.055Z</time>
      </trkpt>
      <trkpt lat="42.261033" lon="1.765212">
        <ele>1430</ele>
        <time>2020-07-13T11:20:48.055Z</time>
      </trkpt>
      <trkpt lat="42.261149" lon="1.765121">
        <ele>1430</ele>
        <time>2020-07-13T11:20:56.050Z</time>
      </trkpt>
      <trkpt lat="42.261246" lon="1.765029">
        <ele>1429</ele>
        <time>2020-07-13T11:21:04.055Z</time>
      </trkpt>
      <trkpt lat="42.261361" lon="1.764894">
        <ele>1429</ele>
        <time>2020-07-13T11:21:16.054Z</time>
      </trkpt>
      <trkpt lat="42.261435" lon="1.764782">
        <ele>1430</ele>
        <time>2020-07-13T11:21:25.063Z</time>
      </trkpt>
      <trkpt lat="42.261506" lon="1.764644">
        <ele>1430</ele>
        <time>2020-07-13T11:21:33.055Z</time>
      </trkpt>
      <trkpt lat="42.261557" lon="1.764499">
        <ele>1430</ele>
        <time>2020-07-13T11:21:41.055Z</time>
      </trkpt>
      <trkpt lat="42.261625" lon="1.764379">
        <ele>1430</ele>
        <time>2020-07-13T11:21:49.055Z</time>
      </trkpt>
      <trkpt lat="42.261685" lon="1.764209">
        <ele>1429</ele>
        <time>2020-07-13T11:21:57.056Z</time>
      </trkpt>
      <trkpt lat="42.261802" lon="1.76411">
        <ele>1427</ele>
        <time>2020-07-13T11:22:05.056Z</time>
      </trkpt>
      <trkpt lat="42.261857" lon="1.76399">
        <ele>1427</ele>
        <time>2020-07-13T11:22:13.055Z</time>
      </trkpt>
      <trkpt lat="42.261974" lon="1.763859">
        <ele>1426.8739968</ele>
        <time>2020-07-13T11:22:21.056Z</time>
      </trkpt>
      <trkpt lat="42.262015" lon="1.76372">
        <ele>1426</ele>
        <time>2020-07-13T11:22:29.055Z</time>
      </trkpt>
      <trkpt lat="42.262115" lon="1.763607">
        <ele>1424</ele>
        <time>2020-07-13T11:22:37.055Z</time>
      </trkpt>
      <trkpt lat="42.262207" lon="1.763499">
        <ele>1423</ele>
        <time>2020-07-13T11:22:45.058Z</time>
      </trkpt>
      <trkpt lat="42.262281" lon="1.763318">
        <ele>1423</ele>
        <time>2020-07-13T11:22:57.055Z</time>
      </trkpt>
      <trkpt lat="42.262428" lon="1.76314">
        <ele>1420</ele>
        <time>2020-07-13T11:23:08.055Z</time>
      </trkpt>
      <trkpt lat="42.262502" lon="1.763008">
        <ele>1420</ele>
        <time>2020-07-13T11:23:16.055Z</time>
      </trkpt>
      <trkpt lat="42.262602" lon="1.76292">
        <ele>1420</ele>
        <time>2020-07-13T11:23:24.055Z</time>
      </trkpt>
      <trkpt lat="42.262683" lon="1.76281">
        <ele>1420</ele>
        <time>2020-07-13T11:23:32.055Z</time>
      </trkpt>
      <trkpt lat="42.262798" lon="1.762748">
        <ele>1420</ele>
        <time>2020-07-13T11:23:40.055Z</time>
      </trkpt>
      <trkpt lat="42.262915" lon="1.762692">
        <ele>1419</ele>
        <time>2020-07-13T11:23:48.055Z</time>
      </trkpt>
      <trkpt lat="42.263015" lon="1.762608">
        <ele>1417</ele>
        <time>2020-07-13T11:23:56.055Z</time>
      </trkpt>
      <trkpt lat="42.263127" lon="1.762528">
        <ele>1415</ele>
        <time>2020-07-13T11:24:04.055Z</time>
      </trkpt>
      <trkpt lat="42.263252" lon="1.762438">
        <ele>1415</ele>
        <time>2020-07-13T11:24:12.055Z</time>
      </trkpt>
      <trkpt lat="42.263362" lon="1.762347">
        <ele>1415</ele>
        <time>2020-07-13T11:24:20.055Z</time>
      </trkpt>
      <trkpt lat="42.263464" lon="1.762252">
        <ele>1414</ele>
        <time>2020-07-13T11:24:28.055Z</time>
      </trkpt>
      <trkpt lat="42.263567" lon="1.762176">
        <ele>1414</ele>
        <time>2020-07-13T11:24:36.055Z</time>
      </trkpt>
      <trkpt lat="42.263687" lon="1.762081">
        <ele>1412</ele>
        <time>2020-07-13T11:24:44.055Z</time>
      </trkpt>
      <trkpt lat="42.263814" lon="1.762023">
        <ele>1411</ele>
        <time>2020-07-13T11:24:52.055Z</time>
      </trkpt>
      <trkpt lat="42.263956" lon="1.762016">
        <ele>1411</ele>
        <time>2020-07-13T11:25:00.055Z</time>
      </trkpt>
      <trkpt lat="42.264075" lon="1.762046">
        <ele>1411</ele>
        <time>2020-07-13T11:25:08.055Z</time>
      </trkpt>
      <trkpt lat="42.264184" lon="1.762009">
        <ele>1412</ele>
        <time>2020-07-13T11:25:16.055Z</time>
      </trkpt>
      <trkpt lat="42.264275" lon="1.761929">
        <ele>1412</ele>
        <time>2020-07-13T11:25:24.055Z</time>
      </trkpt>
      <trkpt lat="42.264347" lon="1.761818">
        <ele>1412</ele>
        <time>2020-07-13T11:25:32.055Z</time>
      </trkpt>
      <trkpt lat="42.264407" lon="1.761671">
        <ele>1412</ele>
        <time>2020-07-13T11:25:40.055Z</time>
      </trkpt>
      <trkpt lat="42.26451" lon="1.761579">
        <ele>1412</ele>
        <time>2020-07-13T11:25:48.055Z</time>
      </trkpt>
      <trkpt lat="42.264621" lon="1.761517">
        <ele>1412</ele>
        <time>2020-07-13T11:25:56.055Z</time>
      </trkpt>
      <trkpt lat="42.264718" lon="1.761433">
        <ele>1412</ele>
        <time>2020-07-13T11:26:04.055Z</time>
      </trkpt>
      <trkpt lat="42.264826" lon="1.76134">
        <ele>1412</ele>
        <time>2020-07-13T11:26:12.055Z</time>
      </trkpt>
      <trkpt lat="42.264926" lon="1.761257">
        <ele>1412</ele>
        <time>2020-07-13T11:26:20.055Z</time>
      </trkpt>
      <trkpt lat="42.26505" lon="1.761194">
        <ele>1414</ele>
        <time>2020-07-13T11:26:28.055Z</time>
      </trkpt>
      <trkpt lat="42.265156" lon="1.761126">
        <ele>1414</ele>
        <time>2020-07-13T11:26:36.055Z</time>
      </trkpt>
      <trkpt lat="42.265255" lon="1.761034">
        <ele>1414</ele>
        <time>2020-07-13T11:26:44.055Z</time>
      </trkpt>
      <trkpt lat="42.265328" lon="1.760913">
        <ele>1415</ele>
        <time>2020-07-13T11:26:52.055Z</time>
      </trkpt>
      <trkpt lat="42.265377" lon="1.760767">
        <ele>1415</ele>
        <time>2020-07-13T11:27:00.055Z</time>
      </trkpt>
      <trkpt lat="42.265421" lon="1.760634">
        <ele>1415</ele>
        <time>2020-07-13T11:27:08.053Z</time>
      </trkpt>
      <trkpt lat="42.265504" lon="1.760484">
        <ele>1417</ele>
        <time>2020-07-13T11:27:16.047Z</time>
      </trkpt>
      <trkpt lat="42.265563" lon="1.760328">
        <ele>1417</ele>
        <time>2020-07-13T11:27:24.050Z</time>
      </trkpt>
      <trkpt lat="42.265619" lon="1.760164">
        <ele>1417</ele>
        <time>2020-07-13T11:27:32.055Z</time>
      </trkpt>
      <trkpt lat="42.265697" lon="1.760043">
        <ele>1417</ele>
        <time>2020-07-13T11:27:40.055Z</time>
      </trkpt>
      <trkpt lat="42.265782" lon="1.759934">
        <ele>1416</ele>
        <time>2020-07-13T11:27:48.054Z</time>
      </trkpt>
      <trkpt lat="42.265866" lon="1.759773">
        <ele>1416</ele>
        <time>2020-07-13T11:28:00.065Z</time>
      </trkpt>
      <trkpt lat="42.265986" lon="1.759653">
        <ele>1416</ele>
        <time>2020-07-13T11:28:08.061Z</time>
      </trkpt>
      <trkpt lat="42.266074" lon="1.759503">
        <ele>1417</ele>
        <time>2020-07-13T11:28:16.049Z</time>
      </trkpt>
      <trkpt lat="42.266121" lon="1.759322">
        <ele>1417</ele>
        <time>2020-07-13T11:28:28.055Z</time>
      </trkpt>
      <trkpt lat="42.266135" lon="1.759186">
        <ele>1417</ele>
        <time>2020-07-13T11:28:36.048Z</time>
      </trkpt>
      <trkpt lat="42.266126" lon="1.758966">
        <ele>1417</ele>
        <time>2020-07-13T11:28:48.048Z</time>
      </trkpt>
      <trkpt lat="42.266223" lon="1.758786">
        <ele>1417</ele>
        <time>2020-07-13T11:28:56.054Z</time>
      </trkpt>
      <trkpt lat="42.266258" lon="1.758588">
        <ele>1416</ele>
        <time>2020-07-13T11:29:05.055Z</time>
      </trkpt>
      <trkpt lat="42.266287" lon="1.758389">
        <ele>1417</ele>
        <time>2020-07-13T11:29:14.051Z</time>
      </trkpt>
      <trkpt lat="42.266204" lon="1.75824">
        <ele>1417</ele>
        <time>2020-07-13T11:29:22.055Z</time>
      </trkpt>
      <trkpt lat="42.266205" lon="1.757974">
        <ele>1417</ele>
        <time>2020-07-13T11:29:30.055Z</time>
      </trkpt>
      <trkpt lat="42.266185" lon="1.757809">
        <ele>1415</ele>
        <time>2020-07-13T11:29:42.054Z</time>
      </trkpt>
      <trkpt lat="42.266136" lon="1.757667">
        <ele>1415</ele>
        <time>2020-07-13T11:29:50.050Z</time>
      </trkpt>
      <trkpt lat="42.266157" lon="1.757489">
        <ele>1415</ele>
        <time>2020-07-13T11:30:02.050Z</time>
      </trkpt>
      <trkpt lat="42.266283" lon="1.757505">
        <ele>1415</ele>
        <time>2020-07-13T11:30:10.053Z</time>
      </trkpt>
      <trkpt lat="42.266435" lon="1.757435">
        <ele>1419</ele>
        <time>2020-07-13T11:30:28.048Z</time>
      </trkpt>
      <trkpt lat="42.266552" lon="1.757517">
        <ele>1427</ele>
        <time>2020-07-13T11:31:04.055Z</time>
      </trkpt>
      <trkpt lat="42.266741" lon="1.757506">
        <ele>1427</ele>
        <time>2020-07-13T11:31:16.049Z</time>
      </trkpt>
      <trkpt lat="42.266842" lon="1.757514">
        <ele>1429</ele>
        <time>2020-07-13T11:31:24.049Z</time>
      </trkpt>
      <trkpt lat="42.266928" lon="1.757376">
        <ele>1429</ele>
        <time>2020-07-13T11:31:44.055Z</time>
      </trkpt>
      <trkpt lat="42.267004" lon="1.757247">
        <ele>1430</ele>
        <time>2020-07-13T11:31:52.055Z</time>
      </trkpt>
      <trkpt lat="42.26709" lon="1.75708">
        <ele>1431</ele>
        <time>2020-07-13T11:32:04.055Z</time>
      </trkpt>
      <trkpt lat="42.267164" lon="1.756932">
        <ele>1431</ele>
        <time>2020-07-13T11:32:16.055Z</time>
      </trkpt>
      <trkpt lat="42.267208" lon="1.756797">
        <ele>1433</ele>
        <time>2020-07-13T11:32:24.055Z</time>
      </trkpt>
      <trkpt lat="42.267249" lon="1.756642">
        <ele>1433</ele>
        <time>2020-07-13T11:32:32.055Z</time>
      </trkpt>
      <trkpt lat="42.267301" lon="1.756507">
        <ele>1433</ele>
        <time>2020-07-13T11:32:40.055Z</time>
      </trkpt>
      <trkpt lat="42.267368" lon="1.756373">
        <ele>1432</ele>
        <time>2020-07-13T11:32:48.055Z</time>
      </trkpt>
      <trkpt lat="42.267432" lon="1.756248">
        <ele>1432</ele>
        <time>2020-07-13T11:32:56.055Z</time>
      </trkpt>
      <trkpt lat="42.267479" lon="1.756117">
        <ele>1433</ele>
        <time>2020-07-13T11:33:04.055Z</time>
      </trkpt>
      <trkpt lat="42.26754" lon="1.755947">
        <ele>1435</ele>
        <time>2020-07-13T11:33:16.055Z</time>
      </trkpt>
      <trkpt lat="42.267555" lon="1.755832">
        <ele>1436</ele>
        <time>2020-07-13T11:33:24.055Z</time>
      </trkpt>
      <trkpt lat="42.267543" lon="1.755749">
        <ele>1437</ele>
        <time>2020-07-13T11:33:36.055Z</time>
      </trkpt>
      <trkpt lat="42.267467" lon="1.755662">
        <ele>1438</ele>
        <time>2020-07-13T11:34:24.055Z</time>
      </trkpt>
      <trkpt lat="42.267408" lon="1.755558">
        <ele>1441.2500096</ele>
        <time>2020-07-13T11:34:36.055Z</time>
      </trkpt>
      <trkpt lat="42.267376" lon="1.755444">
        <ele>1443</ele>
        <time>2020-07-13T11:34:48.055Z</time>
      </trkpt>
      <trkpt lat="42.267326" lon="1.755317">
        <ele>1447</ele>
        <time>2020-07-13T11:35:04.055Z</time>
      </trkpt>
      <trkpt lat="42.2673" lon="1.755199">
        <ele>1449</ele>
        <time>2020-07-13T11:35:12.055Z</time>
      </trkpt>
      <trkpt lat="42.267262" lon="1.755073">
        <ele>1449</ele>
        <time>2020-07-13T11:35:20.055Z</time>
      </trkpt>
      <trkpt lat="42.267232" lon="1.754969">
        <ele>1449</ele>
        <time>2020-07-13T11:35:28.055Z</time>
      </trkpt>
      <trkpt lat="42.267187" lon="1.754837">
        <ele>1451</ele>
        <time>2020-07-13T11:35:40.055Z</time>
      </trkpt>
      <trkpt lat="42.267122" lon="1.754746">
        <ele>1455</ele>
        <time>2020-07-13T11:35:52.055Z</time>
      </trkpt>
      <trkpt lat="42.267058" lon="1.754648">
        <ele>1455</ele>
        <time>2020-07-13T11:36:00.055Z</time>
      </trkpt>
      <trkpt lat="42.267007" lon="1.754494">
        <ele>1457</ele>
        <time>2020-07-13T11:36:12.055Z</time>
      </trkpt>
      <trkpt lat="42.267" lon="1.754358">
        <ele>1457</ele>
        <time>2020-07-13T11:36:20.055Z</time>
      </trkpt>
      <trkpt lat="42.266971" lon="1.754258">
        <ele>1459</ele>
        <time>2020-07-13T11:36:28.055Z</time>
      </trkpt>
      <trkpt lat="42.26693" lon="1.754156">
        <ele>1459</ele>
        <time>2020-07-13T11:36:36.055Z</time>
      </trkpt>
      <trkpt lat="42.2669" lon="1.754016">
        <ele>1461</ele>
        <time>2020-07-13T11:36:48.055Z</time>
      </trkpt>
      <trkpt lat="42.266892" lon="1.753891">
        <ele>1463</ele>
        <time>2020-07-13T11:36:56.055Z</time>
      </trkpt>
      <trkpt lat="42.266914" lon="1.7537">
        <ele>1464</ele>
        <time>2020-07-13T11:37:08.055Z</time>
      </trkpt>
      <trkpt lat="42.266944" lon="1.753558">
        <ele>1465</ele>
        <time>2020-07-13T11:37:16.055Z</time>
      </trkpt>
      <trkpt lat="42.266982" lon="1.753436">
        <ele>1465</ele>
        <time>2020-07-13T11:37:24.055Z</time>
      </trkpt>
      <trkpt lat="42.267025" lon="1.753246">
        <ele>1467</ele>
        <time>2020-07-13T11:37:36.055Z</time>
      </trkpt>
      <trkpt lat="42.267055" lon="1.753094">
        <ele>1467</ele>
        <time>2020-07-13T11:37:44.055Z</time>
      </trkpt>
      <trkpt lat="42.267056" lon="1.752966">
        <ele>1469</ele>
        <time>2020-07-13T11:37:52.055Z</time>
      </trkpt>
      <trkpt lat="42.267054" lon="1.752848">
        <ele>1469</ele>
        <time>2020-07-13T11:38:00.055Z</time>
      </trkpt>
      <trkpt lat="42.267014" lon="1.752695">
        <ele>1468</ele>
        <time>2020-07-13T11:38:08.055Z</time>
      </trkpt>
      <trkpt lat="42.26699" lon="1.752557">
        <ele>1467</ele>
        <time>2020-07-13T11:38:16.055Z</time>
      </trkpt>
      <trkpt lat="42.266994" lon="1.752419">
        <ele>1464</ele>
        <time>2020-07-13T11:38:24.055Z</time>
      </trkpt>
      <trkpt lat="42.266986" lon="1.752259">
        <ele>1462</ele>
        <time>2020-07-13T11:38:32.055Z</time>
      </trkpt>
      <trkpt lat="42.267024" lon="1.752113">
        <ele>1462</ele>
        <time>2020-07-13T11:38:40.055Z</time>
      </trkpt>
      <trkpt lat="42.26702" lon="1.751968">
        <ele>1461</ele>
        <time>2020-07-13T11:38:48.055Z</time>
      </trkpt>
      <trkpt lat="42.266956" lon="1.751818">
        <ele>1460</ele>
        <time>2020-07-13T11:38:56.055Z</time>
      </trkpt>
      <trkpt lat="42.266936" lon="1.751678">
        <ele>1461</ele>
        <time>2020-07-13T11:39:04.055Z</time>
      </trkpt>
      <trkpt lat="42.266914" lon="1.751485">
        <ele>1462</ele>
        <time>2020-07-13T11:39:16.055Z</time>
      </trkpt>
      <trkpt lat="42.266869" lon="1.751355">
        <ele>1463</ele>
        <time>2020-07-13T11:39:24.055Z</time>
      </trkpt>
      <trkpt lat="42.266859" lon="1.75122">
        <ele>1463</ele>
        <time>2020-07-13T11:39:32.055Z</time>
      </trkpt>
      <trkpt lat="42.266859" lon="1.751079">
        <ele>1463</ele>
        <time>2020-07-13T11:39:40.055Z</time>
      </trkpt>
      <trkpt lat="42.266845" lon="1.750939">
        <ele>1465</ele>
        <time>2020-07-13T11:39:52.055Z</time>
      </trkpt>
      <trkpt lat="42.266843" lon="1.750826">
        <ele>1464</ele>
        <time>2020-07-13T11:40:04.055Z</time>
      </trkpt>
      <trkpt lat="42.266821" lon="1.750718">
        <ele>1465</ele>
        <time>2020-07-13T11:40:16.055Z</time>
      </trkpt>
      <trkpt lat="42.26677" lon="1.750646">
        <ele>1470</ele>
        <time>2020-07-13T11:40:28.055Z</time>
      </trkpt>
      <trkpt lat="42.266724" lon="1.750554">
        <ele>1471.1250048</ele>
        <time>2020-07-13T11:40:36.055Z</time>
      </trkpt>
      <trkpt lat="42.26668" lon="1.750414">
        <ele>1473</ele>
        <time>2020-07-13T11:40:48.055Z</time>
      </trkpt>
      <trkpt lat="42.266641" lon="1.750274">
        <ele>1475</ele>
        <time>2020-07-13T11:41:00.055Z</time>
      </trkpt>
      <trkpt lat="42.266597" lon="1.750097">
        <ele>1478</ele>
        <time>2020-07-13T11:41:12.055Z</time>
      </trkpt>
      <trkpt lat="42.266563" lon="1.749968">
        <ele>1479</ele>
        <time>2020-07-13T11:41:24.055Z</time>
      </trkpt>
      <trkpt lat="42.266558" lon="1.749821">
        <ele>1481</ele>
        <time>2020-07-13T11:41:40.055Z</time>
      </trkpt>
      <trkpt lat="42.266518" lon="1.749552">
        <ele>1485</ele>
        <time>2020-07-13T11:41:54.055Z</time>
      </trkpt>
      <trkpt lat="42.266438" lon="1.749386">
        <ele>1486</ele>
        <time>2020-07-13T11:42:06.055Z</time>
      </trkpt>
      <trkpt lat="42.266433" lon="1.749266">
        <ele>1488</ele>
        <time>2020-07-13T11:42:14.055Z</time>
      </trkpt>
      <trkpt lat="42.26645" lon="1.749101">
        <ele>1489</ele>
        <time>2020-07-13T11:42:26.055Z</time>
      </trkpt>
      <trkpt lat="42.266397" lon="1.748957">
        <ele>1491</ele>
        <time>2020-07-13T11:42:34.055Z</time>
      </trkpt>
      <trkpt lat="42.266438" lon="1.74885">
        <ele>1493</ele>
        <time>2020-07-13T11:42:42.055Z</time>
      </trkpt>
      <trkpt lat="42.266434" lon="1.748655">
        <ele>1495</ele>
        <time>2020-07-13T11:42:59.055Z</time>
      </trkpt>
      <trkpt lat="42.266381" lon="1.748512">
        <ele>1495.2500096</ele>
        <time>2020-07-13T11:43:11.055Z</time>
      </trkpt>
      <trkpt lat="42.266346" lon="1.748343">
        <ele>1497</ele>
        <time>2020-07-13T11:43:23.055Z</time>
      </trkpt>
      <trkpt lat="42.266316" lon="1.748197">
        <ele>1497.2500096</ele>
        <time>2020-07-13T11:43:31.055Z</time>
      </trkpt>
      <trkpt lat="42.2663" lon="1.748033">
        <ele>1501</ele>
        <time>2020-07-13T11:43:43.055Z</time>
      </trkpt>
      <trkpt lat="42.26626" lon="1.747904">
        <ele>1503</ele>
        <time>2020-07-13T11:43:55.463Z</time>
      </trkpt>
      <trkpt lat="42.266249" lon="1.747702">
        <ele>1503</ele>
        <time>2020-07-13T11:44:07.055Z</time>
      </trkpt>
      <trkpt lat="42.266182" lon="1.747542">
        <ele>1505</ele>
        <time>2020-07-13T11:44:15.058Z</time>
      </trkpt>
      <trkpt lat="42.266228" lon="1.74741">
        <ele>1507</ele>
        <time>2020-07-13T11:44:27.055Z</time>
      </trkpt>
      <trkpt lat="42.266168" lon="1.747217">
        <ele>1508</ele>
        <time>2020-07-13T11:44:35.055Z</time>
      </trkpt>
      <trkpt lat="42.266105" lon="1.747008">
        <ele>1507.2500096</ele>
        <time>2020-07-13T11:45:01.055Z</time>
      </trkpt>
      <trkpt lat="42.266069" lon="1.746854">
        <ele>1511</ele>
        <time>2020-07-13T11:45:17.058Z</time>
      </trkpt>
      <trkpt lat="42.265991" lon="1.746729">
        <ele>1514</ele>
        <time>2020-07-13T11:45:29.055Z</time>
      </trkpt>
      <trkpt lat="42.26598" lon="1.746582">
        <ele>1516</ele>
        <time>2020-07-13T11:45:41.055Z</time>
      </trkpt>
      <trkpt lat="42.265959" lon="1.746425">
        <ele>1517</ele>
        <time>2020-07-13T11:45:52.055Z</time>
      </trkpt>
      <trkpt lat="42.265901" lon="1.746282">
        <ele>1519</ele>
        <time>2020-07-13T11:46:04.055Z</time>
      </trkpt>
      <trkpt lat="42.26581" lon="1.746145">
        <ele>1520</ele>
        <time>2020-07-13T11:46:20.055Z</time>
      </trkpt>
      <trkpt lat="42.26574" lon="1.746028">
        <ele>1522</ele>
        <time>2020-07-13T11:46:32.055Z</time>
      </trkpt>
      <trkpt lat="42.265702" lon="1.745889">
        <ele>1522</ele>
        <time>2020-07-13T11:46:40.055Z</time>
      </trkpt>
      <trkpt lat="42.265666" lon="1.745704">
        <ele>1526</ele>
        <time>2020-07-13T11:46:55.564Z</time>
      </trkpt>
      <trkpt lat="42.265726" lon="1.745646">
        <ele>1526</ele>
        <time>2020-07-13T11:47:07.055Z</time>
      </trkpt>
      <trkpt lat="42.265634" lon="1.74574">
        <ele>1526</ele>
        <time>2020-07-13T11:48:06.051Z</time>
      </trkpt>
      <trkpt lat="42.265748" lon="1.745628">
        <ele>1527</ele>
        <time>2020-07-13T11:48:22.055Z</time>
      </trkpt>
      <trkpt lat="42.265676" lon="1.745519">
        <ele>1526</ele>
        <time>2020-07-13T11:48:34.055Z</time>
      </trkpt>
      <trkpt lat="42.265737" lon="1.745636">
        <ele>1527</ele>
        <time>2020-07-13T11:49:54.055Z</time>
      </trkpt>
      <trkpt lat="42.265673" lon="1.745568">
        <ele>1528</ele>
        <time>2020-07-13T11:50:46.055Z</time>
      </trkpt>
      <trkpt lat="42.265652" lon="1.745413">
        <ele>1529</ele>
        <time>2020-07-13T11:50:58.055Z</time>
      </trkpt>
      <trkpt lat="42.265596" lon="1.7453">
        <ele>1529</ele>
        <time>2020-07-13T11:51:06.055Z</time>
      </trkpt>
      <trkpt lat="42.265597" lon="1.745109">
        <ele>1531</ele>
        <time>2020-07-13T11:51:20.757Z</time>
      </trkpt>
      <trkpt lat="42.265557" lon="1.744958">
        <ele>1533</ele>
        <time>2020-07-13T11:51:30.055Z</time>
      </trkpt>
      <trkpt lat="42.265513" lon="1.744825">
        <ele>1534</ele>
        <time>2020-07-13T11:51:38.055Z</time>
      </trkpt>
      <trkpt lat="42.265473" lon="1.744679">
        <ele>1537</ele>
        <time>2020-07-13T11:51:53.055Z</time>
      </trkpt>
      <trkpt lat="42.265403" lon="1.74454">
        <ele>1537.1250048</ele>
        <time>2020-07-13T11:52:01.055Z</time>
      </trkpt>
      <trkpt lat="42.265353" lon="1.744376">
        <ele>1538</ele>
        <time>2020-07-13T11:52:09.055Z</time>
      </trkpt>
      <trkpt lat="42.265291" lon="1.744253">
        <ele>1538</ele>
        <time>2020-07-13T11:52:17.349Z</time>
      </trkpt>
      <trkpt lat="42.265289" lon="1.744057">
        <ele>1538</ele>
        <time>2020-07-13T11:52:25.050Z</time>
      </trkpt>
      <trkpt lat="42.265264" lon="1.743853">
        <ele>1540</ele>
        <time>2020-07-13T11:52:37.055Z</time>
      </trkpt>
      <trkpt lat="42.265231" lon="1.743718">
        <ele>1542</ele>
        <time>2020-07-13T11:52:45.055Z</time>
      </trkpt>
      <trkpt lat="42.265136" lon="1.743495">
        <ele>1543</ele>
        <time>2020-07-13T11:52:57.351Z</time>
      </trkpt>
      <trkpt lat="42.265074" lon="1.743393">
        <ele>1545</ele>
        <time>2020-07-13T11:53:09.055Z</time>
      </trkpt>
      <trkpt lat="42.264914" lon="1.743272">
        <ele>1547.6740096</ele>
        <time>2020-07-13T11:53:21.767Z</time>
      </trkpt>
      <trkpt lat="42.26489" lon="1.74312">
        <ele>1550</ele>
        <time>2020-07-13T11:53:33.055Z</time>
      </trkpt>
      <trkpt lat="42.264854" lon="1.742979">
        <ele>1552</ele>
        <time>2020-07-13T11:53:45.053Z</time>
      </trkpt>
      <trkpt lat="42.264783" lon="1.742848">
        <ele>1553</ele>
        <time>2020-07-13T11:53:53.759Z</time>
      </trkpt>
      <trkpt lat="42.264761" lon="1.742693">
        <ele>1555</ele>
        <time>2020-07-13T11:54:05.055Z</time>
      </trkpt>
      <trkpt lat="42.264728" lon="1.742523">
        <ele>1557.2500096</ele>
        <time>2020-07-13T11:54:21.055Z</time>
      </trkpt>
      <trkpt lat="42.264678" lon="1.742399">
        <ele>1559</ele>
        <time>2020-07-13T11:54:29.055Z</time>
      </trkpt>
      <trkpt lat="42.264662" lon="1.742265">
        <ele>1561.2500096</ele>
        <time>2020-07-13T11:54:41.055Z</time>
      </trkpt>
      <trkpt lat="42.264652" lon="1.742117">
        <ele>1565</ele>
        <time>2020-07-13T11:54:54.055Z</time>
      </trkpt>
      <trkpt lat="42.264662" lon="1.74193">
        <ele>1567</ele>
        <time>2020-07-13T11:55:06.055Z</time>
      </trkpt>
      <trkpt lat="42.264618" lon="1.741741">
        <ele>1570</ele>
        <time>2020-07-13T11:55:23.349Z</time>
      </trkpt>
      <trkpt lat="42.264614" lon="1.741568">
        <ele>1572</ele>
        <time>2020-07-13T11:55:35.055Z</time>
      </trkpt>
      <trkpt lat="42.264551" lon="1.74147">
        <ele>1576</ele>
        <time>2020-07-13T11:55:47.057Z</time>
      </trkpt>
      <trkpt lat="42.264549" lon="1.741304">
        <ele>1576</ele>
        <time>2020-07-13T11:56:00.055Z</time>
      </trkpt>
      <trkpt lat="42.264511" lon="1.741179">
        <ele>1578</ele>
        <time>2020-07-13T11:56:16.064Z</time>
      </trkpt>
      <trkpt lat="42.264496" lon="1.741042">
        <ele>1578</ele>
        <time>2020-07-13T11:56:24.060Z</time>
      </trkpt>
      <trkpt lat="42.264384" lon="1.740832">
        <ele>1577</ele>
        <time>2020-07-13T11:56:32.755Z</time>
      </trkpt>
      <trkpt lat="42.264466" lon="1.740734">
        <ele>1574</ele>
        <time>2020-07-13T11:56:44.763Z</time>
      </trkpt>
      <trkpt lat="42.26441" lon="1.740577">
        <ele>1571.6249856</ele>
        <time>2020-07-13T11:57:01.055Z</time>
      </trkpt>
      <trkpt lat="42.264388" lon="1.740434">
        <ele>1568</ele>
        <time>2020-07-13T11:57:13.055Z</time>
      </trkpt>
      <trkpt lat="42.264329" lon="1.740301">
        <ele>1567</ele>
        <time>2020-07-13T11:57:28.055Z</time>
      </trkpt>
      <trkpt lat="42.264346" lon="1.740139">
        <ele>1567</ele>
        <time>2020-07-13T11:57:40.055Z</time>
      </trkpt>
      <trkpt lat="42.26436" lon="1.739997">
        <ele>1560</ele>
        <time>2020-07-13T11:57:52.857Z</time>
      </trkpt>
      <trkpt lat="42.26437" lon="1.739845">
        <ele>1555</ele>
        <time>2020-07-13T11:58:04.055Z</time>
      </trkpt>
      <trkpt lat="42.264323" lon="1.739708">
        <ele>1554</ele>
        <time>2020-07-13T11:58:16.057Z</time>
      </trkpt>
      <trkpt lat="42.264313" lon="1.739514">
        <ele>1551</ele>
        <time>2020-07-13T11:58:24.055Z</time>
      </trkpt>
      <trkpt lat="42.264181" lon="1.739336">
        <ele>1548</ele>
        <time>2020-07-13T11:58:32.058Z</time>
      </trkpt>
      <trkpt lat="42.264281" lon="1.739196">
        <ele>1547</ele>
        <time>2020-07-13T11:58:40.055Z</time>
      </trkpt>
      <trkpt lat="42.264343" lon="1.73902">
        <ele>1543</ele>
        <time>2020-07-13T11:58:49.055Z</time>
      </trkpt>
      <trkpt lat="42.26432" lon="1.738838">
        <ele>1540</ele>
        <time>2020-07-13T11:58:57.055Z</time>
      </trkpt>
      <trkpt lat="42.264326" lon="1.738609">
        <ele>1537</ele>
        <time>2020-07-13T11:59:10.056Z</time>
      </trkpt>
      <trkpt lat="42.264332" lon="1.738398">
        <ele>1532</ele>
        <time>2020-07-13T11:59:24.055Z</time>
      </trkpt>
      <trkpt lat="42.264339" lon="1.738237">
        <ele>1528.8749952</ele>
        <time>2020-07-13T11:59:36.055Z</time>
      </trkpt>
      <trkpt lat="42.264308" lon="1.7381">
        <ele>1522</ele>
        <time>2020-07-13T12:00:00.055Z</time>
      </trkpt>
      <trkpt lat="42.264314" lon="1.737949">
        <ele>1520</ele>
        <time>2020-07-13T12:00:08.055Z</time>
      </trkpt>
      <trkpt lat="42.264316" lon="1.737716">
        <ele>1519</ele>
        <time>2020-07-13T12:00:18.049Z</time>
      </trkpt>
      <trkpt lat="42.264378" lon="1.737557">
        <ele>1514</ele>
        <time>2020-07-13T12:00:30.055Z</time>
      </trkpt>
      <trkpt lat="42.264331" lon="1.737396">
        <ele>1510</ele>
        <time>2020-07-13T12:00:42.055Z</time>
      </trkpt>
      <trkpt lat="42.26437" lon="1.73724">
        <ele>1508</ele>
        <time>2020-07-13T12:00:54.152Z</time>
      </trkpt>
      <trkpt lat="42.264371" lon="1.737009">
        <ele>1503</ele>
        <time>2020-07-13T12:01:04.055Z</time>
      </trkpt>
      <trkpt lat="42.264359" lon="1.736874">
        <ele>1500.6339712</ele>
        <time>2020-07-13T12:01:21.052Z</time>
      </trkpt>
      <trkpt lat="42.264391" lon="1.73669">
        <ele>1494</ele>
        <time>2020-07-13T12:01:33.055Z</time>
      </trkpt>
      <trkpt lat="42.264362" lon="1.736546">
        <ele>1491</ele>
        <time>2020-07-13T12:01:45.058Z</time>
      </trkpt>
      <trkpt lat="42.264311" lon="1.736408">
        <ele>1486</ele>
        <time>2020-07-13T12:01:57.053Z</time>
      </trkpt>
      <trkpt lat="42.264291" lon="1.736271">
        <ele>1484</ele>
        <time>2020-07-13T12:02:10.053Z</time>
      </trkpt>
      <trkpt lat="42.264281" lon="1.736134">
        <ele>1480</ele>
        <time>2020-07-13T12:02:23.052Z</time>
      </trkpt>
      <trkpt lat="42.264281" lon="1.735973">
        <ele>1477</ele>
        <time>2020-07-13T12:02:33.055Z</time>
      </trkpt>
      <trkpt lat="42.264279" lon="1.735787">
        <ele>1472</ele>
        <time>2020-07-13T12:02:48.055Z</time>
      </trkpt>
      <trkpt lat="42.264218" lon="1.735653">
        <ele>1469</ele>
        <time>2020-07-13T12:03:00.055Z</time>
      </trkpt>
      <trkpt lat="42.264225" lon="1.735492">
        <ele>1466</ele>
        <time>2020-07-13T12:03:08.055Z</time>
      </trkpt>
      <trkpt lat="42.264252" lon="1.735304">
        <ele>1461</ele>
        <time>2020-07-13T12:03:24.154Z</time>
      </trkpt>
      <trkpt lat="42.264289" lon="1.735168">
        <ele>1459.7499904</ele>
        <time>2020-07-13T12:03:31.055Z</time>
      </trkpt>
      <trkpt lat="42.264272" lon="1.734996">
        <ele>1457</ele>
        <time>2020-07-13T12:03:39.055Z</time>
      </trkpt>
      <trkpt lat="42.264191" lon="1.734887">
        <ele>1452</ele>
        <time>2020-07-13T12:03:54.957Z</time>
      </trkpt>
      <trkpt lat="42.264146" lon="1.734698">
        <ele>1448</ele>
        <time>2020-07-13T12:04:12.958Z</time>
      </trkpt>
      <trkpt lat="42.264174" lon="1.734535">
        <ele>1448</ele>
        <time>2020-07-13T12:04:20.158Z</time>
      </trkpt>
      <trkpt lat="42.264122" lon="1.734365">
        <ele>1446</ele>
        <time>2020-07-13T12:04:27.055Z</time>
      </trkpt>
      <trkpt lat="42.264036" lon="1.734207">
        <ele>1445</ele>
        <time>2020-07-13T12:04:35.055Z</time>
      </trkpt>
      <trkpt lat="42.264018" lon="1.734017">
        <ele>1439</ele>
        <time>2020-07-13T12:04:47.056Z</time>
      </trkpt>
      <trkpt lat="42.264003" lon="1.733775">
        <ele>1438</ele>
        <time>2020-07-13T12:04:55.154Z</time>
      </trkpt>
      <trkpt lat="42.263956" lon="1.733536">
        <ele>1433</ele>
        <time>2020-07-13T12:05:03.055Z</time>
      </trkpt>
      <trkpt lat="42.263949" lon="1.733393">
        <ele>1431.7499904</ele>
        <time>2020-07-13T12:05:11.055Z</time>
      </trkpt>
      <trkpt lat="42.263871" lon="1.733241">
        <ele>1423</ele>
        <time>2020-07-13T12:05:21.959Z</time>
      </trkpt>
      <trkpt lat="42.263804" lon="1.733081">
        <ele>1419</ele>
        <time>2020-07-13T12:05:34.055Z</time>
      </trkpt>
      <trkpt lat="42.263769" lon="1.732886">
        <ele>1414.77169528341</ele>
        <time>2020-07-13T12:05:46.053Z</time>
      </trkpt>
      <trkpt lat="42.263724" lon="1.732729">
        <ele>1413</ele>
        <time>2020-07-13T12:05:54.055Z</time>
      </trkpt>
      <trkpt lat="42.263529" lon="1.732504">
        <ele>1408</ele>
        <time>2020-07-13T12:06:06.056Z</time>
      </trkpt>
      <trkpt lat="42.263464" lon="1.732269">
        <ele>1407</ele>
        <time>2020-07-13T12:06:17.055Z</time>
      </trkpt>
      <trkpt lat="42.263429" lon="1.732117">
        <ele>1402</ele>
        <time>2020-07-13T12:06:25.060Z</time>
      </trkpt>
      <trkpt lat="42.263445" lon="1.731778">
        <ele>1397</ele>
        <time>2020-07-13T12:06:37.055Z</time>
      </trkpt>
      <trkpt lat="42.263409" lon="1.731634">
        <ele>1394</ele>
        <time>2020-07-13T12:06:48.055Z</time>
      </trkpt>
      <trkpt lat="42.263368" lon="1.731478">
        <ele>1393</ele>
        <time>2020-07-13T12:06:54.160Z</time>
      </trkpt>
      <trkpt lat="42.263348" lon="1.731347">
        <ele>1387</ele>
        <time>2020-07-13T12:07:02.055Z</time>
      </trkpt>
      <trkpt lat="42.263303" lon="1.731193">
        <ele>1383.8749952</ele>
        <time>2020-07-13T12:07:10.055Z</time>
      </trkpt>
      <trkpt lat="42.263238" lon="1.731067">
        <ele>1382</ele>
        <time>2020-07-13T12:07:18.154Z</time>
      </trkpt>
      <trkpt lat="42.263195" lon="1.730915">
        <ele>1380</ele>
        <time>2020-07-13T12:07:25.055Z</time>
      </trkpt>
      <trkpt lat="42.263145" lon="1.730769">
        <ele>1377</ele>
        <time>2020-07-13T12:07:33.055Z</time>
      </trkpt>
      <trkpt lat="42.263085" lon="1.730655">
        <ele>1374.88384210594</ele>
        <time>2020-07-13T12:07:41.055Z</time>
      </trkpt>
      <trkpt lat="42.26295" lon="1.730502">
        <ele>1370</ele>
        <time>2020-07-13T12:07:55.055Z</time>
      </trkpt>
      <trkpt lat="42.262758" lon="1.73035">
        <ele>1368</ele>
        <time>2020-07-13T12:08:07.055Z</time>
      </trkpt>
      <trkpt lat="42.262646" lon="1.730272">
        <ele>1363</ele>
        <time>2020-07-13T12:08:19.055Z</time>
      </trkpt>
      <trkpt lat="42.262535" lon="1.730196">
        <ele>1360</ele>
        <time>2020-07-13T12:08:27.160Z</time>
      </trkpt>
      <trkpt lat="42.262467" lon="1.730032">
        <ele>1357</ele>
        <time>2020-07-13T12:08:35.055Z</time>
      </trkpt>
      <trkpt lat="42.262432" lon="1.729874">
        <ele>1355</ele>
        <time>2020-07-13T12:08:48.055Z</time>
      </trkpt>
      <trkpt lat="42.262374" lon="1.729714">
        <ele>1351</ele>
        <time>2020-07-13T12:09:08.149Z</time>
      </trkpt>
      <trkpt lat="42.262385" lon="1.729562">
        <ele>1348</ele>
        <time>2020-07-13T12:09:34.055Z</time>
      </trkpt>
      <trkpt lat="42.262345" lon="1.729427">
        <ele>1348</ele>
        <time>2020-07-13T12:11:16.055Z</time>
      </trkpt>
      <trkpt lat="42.262233" lon="1.729196">
        <ele>1343</ele>
        <time>2020-07-13T12:11:39.055Z</time>
      </trkpt>
      <trkpt lat="42.262118" lon="1.72906">
        <ele>1338</ele>
        <time>2020-07-13T12:11:59.055Z</time>
      </trkpt>
      <trkpt lat="42.262064" lon="1.728919">
        <ele>1337</ele>
        <time>2020-07-13T12:12:07.055Z</time>
      </trkpt>
      <trkpt lat="42.261939" lon="1.72879">
        <ele>1334</ele>
        <time>2020-07-13T12:12:15.054Z</time>
      </trkpt>
      <trkpt lat="42.261799" lon="1.728684">
        <ele>1330</ele>
        <time>2020-07-13T12:12:24.050Z</time>
      </trkpt>
      <trkpt lat="42.261741" lon="1.72855">
        <ele>1328</ele>
        <time>2020-07-13T12:12:40.055Z</time>
      </trkpt>
      <trkpt lat="42.261608" lon="1.728481">
        <ele>1324</ele>
        <time>2020-07-13T12:12:52.049Z</time>
      </trkpt>
      <trkpt lat="42.26154" lon="1.728345">
        <ele>1324</ele>
        <time>2020-07-13T12:13:00.054Z</time>
      </trkpt>
      <trkpt lat="42.261545" lon="1.728197">
        <ele>1320</ele>
        <time>2020-07-13T12:13:08.052Z</time>
      </trkpt>
      <trkpt lat="42.261478" lon="1.727978">
        <ele>1319</ele>
        <time>2020-07-13T12:13:16.056Z</time>
      </trkpt>
      <trkpt lat="42.261401" lon="1.727834">
        <ele>1318</ele>
        <time>2020-07-13T12:13:24.151Z</time>
      </trkpt>
      <trkpt lat="42.26134" lon="1.727692">
        <ele>1317</ele>
        <time>2020-07-13T12:13:32.055Z</time>
      </trkpt>
      <trkpt lat="42.261348" lon="1.727506">
        <ele>1317</ele>
        <time>2020-07-13T12:13:39.952Z</time>
      </trkpt>
      <trkpt lat="42.261309" lon="1.727372">
        <ele>1316</ele>
        <time>2020-07-13T12:13:47.957Z</time>
      </trkpt>
      <trkpt lat="42.261162" lon="1.727241">
        <ele>1312</ele>
        <time>2020-07-13T12:13:57.159Z</time>
      </trkpt>
      <trkpt lat="42.261136" lon="1.727067">
        <ele>1312</ele>
        <time>2020-07-13T12:14:05.055Z</time>
      </trkpt>
      <trkpt lat="42.261072" lon="1.726895">
        <ele>1312</ele>
        <time>2020-07-13T12:14:13.055Z</time>
      </trkpt>
      <trkpt lat="42.261085" lon="1.726684">
        <ele>1311</ele>
        <time>2020-07-13T12:14:21.957Z</time>
      </trkpt>
      <trkpt lat="42.261058" lon="1.726546">
        <ele>1311</ele>
        <time>2020-07-13T12:14:29.152Z</time>
      </trkpt>
      <trkpt lat="42.260956" lon="1.726416">
        <ele>1307</ele>
        <time>2020-07-13T12:14:36.954Z</time>
      </trkpt>
      <trkpt lat="42.260855" lon="1.726281">
        <ele>1306</ele>
        <time>2020-07-13T12:14:45.055Z</time>
      </trkpt>
      <trkpt lat="42.260774" lon="1.726116">
        <ele>1305</ele>
        <time>2020-07-13T12:14:54.059Z</time>
      </trkpt>
      <trkpt lat="42.26068" lon="1.725929">
        <ele>1302</ele>
        <time>2020-07-13T12:15:02.055Z</time>
      </trkpt>
      <trkpt lat="42.260608" lon="1.725796">
        <ele>1302</ele>
        <time>2020-07-13T12:15:10.055Z</time>
      </trkpt>
      <trkpt lat="42.260489" lon="1.725682">
        <ele>1300</ele>
        <time>2020-07-13T12:15:17.951Z</time>
      </trkpt>
      <trkpt lat="42.260373" lon="1.725599">
        <ele>1298</ele>
        <time>2020-07-13T12:15:25.948Z</time>
      </trkpt>
      <trkpt lat="42.260228" lon="1.725532">
        <ele>1297</ele>
        <time>2020-07-13T12:15:34.055Z</time>
      </trkpt>
      <trkpt lat="42.26011" lon="1.725504">
        <ele>1295</ele>
        <time>2020-07-13T12:15:42.055Z</time>
      </trkpt>
      <trkpt lat="42.259978" lon="1.725471">
        <ele>1294.9799936</ele>
        <time>2020-07-13T12:15:50.950Z</time>
      </trkpt>
      <trkpt lat="42.25987" lon="1.725439">
        <ele>1294</ele>
        <time>2020-07-13T12:15:58.055Z</time>
      </trkpt>
      <trkpt lat="42.259733" lon="1.725485">
        <ele>1291</ele>
        <time>2020-07-13T12:16:06.055Z</time>
      </trkpt>
      <trkpt lat="42.259629" lon="1.725544">
        <ele>1290</ele>
        <time>2020-07-13T12:16:14.055Z</time>
      </trkpt>
      <trkpt lat="42.25952" lon="1.725541">
        <ele>1288</ele>
        <time>2020-07-13T12:16:22.056Z</time>
      </trkpt>
      <trkpt lat="42.259397" lon="1.725448">
        <ele>1288</ele>
        <time>2020-07-13T12:16:30.059Z</time>
      </trkpt>
      <trkpt lat="42.25925" lon="1.725311">
        <ele>1287</ele>
        <time>2020-07-13T12:16:37.953Z</time>
      </trkpt>
      <trkpt lat="42.259131" lon="1.725235">
        <ele>1287</ele>
        <time>2020-07-13T12:16:45.951Z</time>
      </trkpt>
      <trkpt lat="42.259015" lon="1.725113">
        <ele>1286</ele>
        <time>2020-07-13T12:16:54.151Z</time>
      </trkpt>
      <trkpt lat="42.258956" lon="1.725009">
        <ele>1284</ele>
        <time>2020-07-13T12:17:06.055Z</time>
      </trkpt>
      <trkpt lat="42.259049" lon="1.724876">
        <ele>1283</ele>
        <time>2020-07-13T12:17:26.061Z</time>
      </trkpt>
      <trkpt lat="42.259193" lon="1.724782">
        <ele>1281</ele>
        <time>2020-07-13T12:17:34.055Z</time>
      </trkpt>
      <trkpt lat="42.259321" lon="1.724768">
        <ele>1279</ele>
        <time>2020-07-13T12:17:42.055Z</time>
      </trkpt>
      <trkpt lat="42.25947" lon="1.724888">
        <ele>1278</ele>
        <time>2020-07-13T12:17:54.156Z</time>
      </trkpt>
      <trkpt lat="42.259544" lon="1.725023">
        <ele>1274</ele>
        <time>2020-07-13T12:18:02.055Z</time>
      </trkpt>
      <trkpt lat="42.259646" lon="1.725049">
        <ele>1274</ele>
        <time>2020-07-13T12:18:10.055Z</time>
      </trkpt>
      <trkpt lat="42.259751" lon="1.725027">
        <ele>1274</ele>
        <time>2020-07-13T12:18:18.048Z</time>
      </trkpt>
      <trkpt lat="42.259762" lon="1.72487">
        <ele>1274</ele>
        <time>2020-07-13T12:19:18.054Z</time>
      </trkpt>
      <trkpt lat="42.259776" lon="1.725006">
        <ele>1273</ele>
        <time>2020-07-13T12:20:14.055Z</time>
      </trkpt>
      <trkpt lat="42.259691" lon="1.725039">
        <ele>1273</ele>
        <time>2020-07-13T12:20:26.049Z</time>
      </trkpt>
      <trkpt lat="42.259791" lon="1.725016">
        <ele>1274</ele>
        <time>2020-07-13T12:21:50.153Z</time>
      </trkpt>
      <trkpt lat="42.25965" lon="1.724895">
        <ele>1272</ele>
        <time>2020-07-13T12:22:21.962Z</time>
      </trkpt>
      <trkpt lat="42.25955" lon="1.724811">
        <ele>1272</ele>
        <time>2020-07-13T12:22:29.955Z</time>
      </trkpt>
      <trkpt lat="42.259432" lon="1.7247">
        <ele>1271</ele>
        <time>2020-07-13T12:22:38.156Z</time>
      </trkpt>
      <trkpt lat="42.259302" lon="1.724612">
        <ele>1271</ele>
        <time>2020-07-13T12:22:45.945Z</time>
      </trkpt>
      <trkpt lat="42.259146" lon="1.724437">
        <ele>1271</ele>
        <time>2020-07-13T12:22:58.161Z</time>
      </trkpt>
      <trkpt lat="42.259032" lon="1.7245">
        <ele>1267</ele>
        <time>2020-07-13T12:23:14.059Z</time>
      </trkpt>
      <trkpt lat="42.258927" lon="1.724632">
        <ele>1266</ele>
        <time>2020-07-13T12:23:21.953Z</time>
      </trkpt>
      <trkpt lat="42.258663" lon="1.72467">
        <ele>1265</ele>
        <time>2020-07-13T12:23:36.055Z</time>
      </trkpt>
      <trkpt lat="42.258519" lon="1.724628">
        <ele>1264</ele>
        <time>2020-07-13T12:23:44.055Z</time>
      </trkpt>
      <trkpt lat="42.258357" lon="1.724589">
        <ele>1263</ele>
        <time>2020-07-13T12:23:56.055Z</time>
      </trkpt>
      <trkpt lat="42.258272" lon="1.724506">
        <ele>1258.8759936</ele>
        <time>2020-07-13T12:24:04.054Z</time>
      </trkpt>
      <trkpt lat="42.258208" lon="1.724394">
        <ele>1257</ele>
        <time>2020-07-13T12:24:12.052Z</time>
      </trkpt>
      <trkpt lat="42.258204" lon="1.724387">
        <ele>0</ele>
        <time>2020-07-13T12:24:38.055Z</time>
      </trkpt>
    </trkseg>
  </trk>
</gpx>
